<?xml version="1.0"?>
<gpx xmlns="http://www.topografix.com/GPX/1/1" xmlns:xsi="http://www.w3.org/2001/XMLSchema-instance" xmlns:wptx1="http://www.garmin.com/xmlschemas/WaypointExtension/v1" xmlns:gpxtrx="http://www.garmin.com/xmlschemas/GpxExtensions/v3" xmlns:gpxtpx="http://www.garmin.com/xmlschemas/TrackPointExtension/v1" xmlns:gpxx="http://www.garmin.com/xmlschemas/GpxExtensions/v3" xmlns:trp="http://www.garmin.com/xmlschemas/TripExtensions/v1" xmlns:adv="http://www.garmin.com/xmlschemas/AdventuresExtensions/v1" xmlns:prs="http://www.garmin.com/xmlschemas/PressureExtension/v1" creator="Garmin Desktop App" version="1.1" xsi:schemaLocation="http://www.topografix.com/GPX/1/1 http://www.topografix.com/GPX/1/1/gpx.xsd http://www.garmin.com/xmlschemas/WaypointExtension/v1 http://www8.garmin.com/xmlschemas/WaypointExtensionv1.xsd http://www.garmin.com/xmlschemas/TrackPointExtension/v1 http://www.garmin.com/xmlschemas/TrackPointExtensionv1.xsd http://www.garmin.com/xmlschemas/GpxExtensions/v3 http://www8.garmin.com/xmlschemas/GpxExtensionsv3.xsd http://www.garmin.com/xmlschemas/ActivityExtension/v1 http://www8.garmin.com/xmlschemas/ActivityExtensionv1.xsd http://www.garmin.com/xmlschemas/AdventuresExtensions/v1 http://www8.garmin.com/xmlschemas/AdventuresExtensionv1.xsd http://www.garmin.com/xmlschemas/PressureExtension/v1 http://www.garmin.com/xmlschemas/PressureExtensionv1.xsd http://www.garmin.com/xmlschemas/TripExtensions/v1 http://www.garmin.com/xmlschemas/TripExtensionsv1.xsd">

  <metadata>
    <link href="http://www.garmin.com">
      <text>Garmin International</text>
    </link>
    <time>2013-06-16T17:28:20Z</time>
    <bounds maxlat="48.126548789441586" maxlon="11.577230002731085" minlat="47.652689125388861" minlon="11.441285340115428"/>
  </metadata>

  <trk>
    <name>Probstalm 2013.06.15.-16. 001</name>
    <extensions>
      <gpxx:TrackExtension>
        <gpxx:DisplayColor>DarkMagenta</gpxx:DisplayColor>
      </gpxx:TrackExtension>
    </extensions>
    <trkseg>
      <trkpt lat="48.126544514670968" lon="11.577230002731085">
        <ele>505.3101806640625</ele>
        <time>2013-06-15T06:00:53Z</time>
      </trkpt>
      <trkpt lat="48.126542838290334" lon="11.577226985245943">
        <ele>506.271484375</ele>
        <time>2013-06-15T06:01:51Z</time>
      </trkpt>
      <trkpt lat="48.126544347032905" lon="11.577223716303706">
        <ele>506.7520751953125</ele>
        <time>2013-06-15T06:02:05Z</time>
      </trkpt>
      <trkpt lat="48.126542586833239" lon="11.577219190075994">
        <ele>506.7520751953125</ele>
        <time>2013-06-15T06:02:17Z</time>
      </trkpt>
      <trkpt lat="48.126548789441586" lon="11.577227739617229">
        <ele>506.7520751953125</ele>
        <time>2013-06-15T06:02:28Z</time>
      </trkpt>
      <trkpt lat="48.126545269042253" lon="11.577222039923072">
        <ele>506.7520751953125</ele>
        <time>2013-06-15T06:03:12Z</time>
      </trkpt>
      <trkpt lat="48.126508975401521" lon="11.577193038538098">
        <ele>507.2327880859375</ele>
        <time>2013-06-15T06:03:41Z</time>
      </trkpt>
      <trkpt lat="48.126529343426228" lon="11.577192870900035">
        <ele>509.1553955078125</ele>
        <time>2013-06-15T06:06:45Z</time>
      </trkpt>
      <trkpt lat="48.126528924331069" lon="11.577198822051287">
        <ele>508.6746826171875</ele>
        <time>2013-06-15T06:07:04Z</time>
      </trkpt>
      <trkpt lat="48.126517357304692" lon="11.577193876728415">
        <ele>509.1553955078125</ele>
        <time>2013-06-15T06:07:30Z</time>
      </trkpt>
      <trkpt lat="48.126512747257948" lon="11.577171916142106">
        <ele>508.6746826171875</ele>
        <time>2013-06-15T06:07:39Z</time>
      </trkpt>
      <trkpt lat="48.126518195495009" lon="11.57715791836381">
        <ele>509.1553955078125</ele>
        <time>2013-06-15T06:07:49Z</time>
      </trkpt>
      <trkpt lat="48.126521045342088" lon="11.577152637764812">
        <ele>509.1553955078125</ele>
        <time>2013-06-15T06:08:19Z</time>
      </trkpt>
      <trkpt lat="48.126521799713373" lon="11.577156744897366">
        <ele>510.11669921875</ele>
        <time>2013-06-15T06:10:22Z</time>
      </trkpt>
      <trkpt lat="48.126543005928397" lon="11.577203180640936">
        <ele>510.11669921875</ele>
        <time>2013-06-15T06:10:30Z</time>
      </trkpt>
      <trkpt lat="48.126536551862955" lon="11.577196894213557">
        <ele>510.11669921875</ele>
        <time>2013-06-15T06:11:11Z</time>
      </trkpt>
      <trkpt lat="48.126495145261288" lon="11.577040320262313">
        <ele>509.1553955078125</ele>
        <time>2013-06-15T06:11:18Z</time>
      </trkpt>
      <trkpt lat="48.12645616941154" lon="11.57696396112442">
        <ele>508.6746826171875</ele>
        <time>2013-06-15T06:11:20Z</time>
      </trkpt>
      <trkpt lat="48.126296577975154" lon="11.576693141832948">
        <ele>509.6361083984375</ele>
        <time>2013-06-15T06:11:27Z</time>
      </trkpt>
      <trkpt lat="48.126138662919402" lon="11.576421484351158">
        <ele>510.11669921875</ele>
        <time>2013-06-15T06:11:34Z</time>
      </trkpt>
      <trkpt lat="48.125935317948461" lon="11.576138092204928">
        <ele>511.0780029296875</ele>
        <time>2013-06-15T06:11:41Z</time>
      </trkpt>
      <trkpt lat="48.125802045688033" lon="11.575887138023973">
        <ele>510.11669921875</ele>
        <time>2013-06-15T06:11:46Z</time>
      </trkpt>
      <trkpt lat="48.125669276341796" lon="11.575578935444355">
        <ele>509.6361083984375</ele>
        <time>2013-06-15T06:11:51Z</time>
      </trkpt>
      <trkpt lat="48.125542541965842" lon="11.575346337631345">
        <ele>510.5972900390625</ele>
        <time>2013-06-15T06:11:54Z</time>
      </trkpt>
      <trkpt lat="48.125413376837969" lon="11.575138131156564">
        <ele>510.11669921875</ele>
        <time>2013-06-15T06:11:57Z</time>
      </trkpt>
      <trkpt lat="48.125268453732133" lon="11.574780475348234">
        <ele>508.6746826171875</ele>
        <time>2013-06-15T06:12:03Z</time>
      </trkpt>
      <trkpt lat="48.125226460397243" lon="11.5746233984828">
        <ele>509.1553955078125</ele>
        <time>2013-06-15T06:12:05Z</time>
      </trkpt>
      <trkpt lat="48.12515152618289" lon="11.574480906128883">
        <ele>509.1553955078125</ele>
        <time>2013-06-15T06:12:07Z</time>
      </trkpt>
      <trkpt lat="48.12490769661963" lon="11.57412551343441">
        <ele>509.1553955078125</ele>
        <time>2013-06-15T06:12:13Z</time>
      </trkpt>
      <trkpt lat="48.124705189839005" lon="11.57376492395997">
        <ele>509.1553955078125</ele>
        <time>2013-06-15T06:12:19Z</time>
      </trkpt>
      <trkpt lat="48.124591950327158" lon="11.57354012131691">
        <ele>509.1553955078125</ele>
        <time>2013-06-15T06:12:23Z</time>
      </trkpt>
      <trkpt lat="48.124479632824659" lon="11.573314312845469">
        <ele>510.11669921875</ele>
        <time>2013-06-15T06:12:27Z</time>
      </trkpt>
      <trkpt lat="48.124189116060734" lon="11.572716264054179">
        <ele>509.6361083984375</ele>
        <time>2013-06-15T06:12:35Z</time>
      </trkpt>
      <trkpt lat="48.123760716989636" lon="11.571878995746374">
        <ele>509.6361083984375</ele>
        <time>2013-06-15T06:12:47Z</time>
      </trkpt>
      <trkpt lat="48.123607579618692" lon="11.571625107899308">
        <ele>509.1553955078125</ele>
        <time>2013-06-15T06:12:51Z</time>
      </trkpt>
      <trkpt lat="48.123340951278806" lon="11.571092354133725">
        <ele>510.11669921875</ele>
        <time>2013-06-15T06:12:59Z</time>
      </trkpt>
      <trkpt lat="48.123262412846088" lon="11.570899989455938">
        <ele>510.11669921875</ele>
        <time>2013-06-15T06:13:02Z</time>
      </trkpt>
      <trkpt lat="48.123096534982324" lon="11.570643587037921">
        <ele>510.5972900390625</ele>
        <time>2013-06-15T06:13:07Z</time>
      </trkpt>
      <trkpt lat="48.123031659051776" lon="11.570546021685004">
        <ele>511.0780029296875</ele>
        <time>2013-06-15T06:13:09Z</time>
      </trkpt>
      <trkpt lat="48.122898889705539" lon="11.570305293425918">
        <ele>510.5972900390625</ele>
        <time>2013-06-15T06:13:13Z</time>
      </trkpt>
      <trkpt lat="48.122705100104213" lon="11.569896256551147">
        <ele>510.11669921875</ele>
        <time>2013-06-15T06:13:19Z</time>
      </trkpt>
      <trkpt lat="48.122385498136282" lon="11.569203743711114">
        <ele>509.6361083984375</ele>
        <time>2013-06-15T06:13:28Z</time>
      </trkpt>
      <trkpt lat="48.12218994833529" lon="11.568843238055706">
        <ele>509.1553955078125</ele>
        <time>2013-06-15T06:13:33Z</time>
      </trkpt>
      <trkpt lat="48.122128760442138" lon="11.568602258339524">
        <ele>509.6361083984375</ele>
        <time>2013-06-15T06:13:36Z</time>
      </trkpt>
      <trkpt lat="48.121809661388397" lon="11.568177463486791">
        <ele>511.0780029296875</ele>
        <time>2013-06-15T06:13:44Z</time>
      </trkpt>
      <trkpt lat="48.121489975601435" lon="11.567566590383649">
        <ele>511.0780029296875</ele>
        <time>2013-06-15T06:13:54Z</time>
      </trkpt>
      <trkpt lat="48.121421243995428" lon="11.567441113293171">
        <ele>510.5972900390625</ele>
        <time>2013-06-15T06:13:56Z</time>
      </trkpt>
      <trkpt lat="48.121201554313302" lon="11.567146154120564">
        <ele>510.11669921875</ele>
        <time>2013-06-15T06:14:01Z</time>
      </trkpt>
      <trkpt lat="48.12079343944788" lon="11.566392621025443">
        <ele>510.11669921875</ele>
        <time>2013-06-15T06:14:12Z</time>
      </trkpt>
      <trkpt lat="48.120278874412179" lon="11.565471952781081">
        <ele>510.5972900390625</ele>
        <time>2013-06-15T06:14:26Z</time>
      </trkpt>
      <trkpt lat="48.120238892734051" lon="11.565414201468229">
        <ele>510.11669921875</ele>
        <time>2013-06-15T06:14:27Z</time>
      </trkpt>
      <trkpt lat="48.120112577453256" lon="11.56514941714704">
        <ele>510.11669921875</ele>
        <time>2013-06-15T06:14:31Z</time>
      </trkpt>
      <trkpt lat="48.119889451190829" lon="11.564803747460246">
        <ele>511.0780029296875</ele>
        <time>2013-06-15T06:14:37Z</time>
      </trkpt>
      <trkpt lat="48.119565406814218" lon="11.564398482441902">
        <ele>511.5587158203125</ele>
        <time>2013-06-15T06:14:45Z</time>
      </trkpt>
      <trkpt lat="48.119432218372822" lon="11.564240902662277">
        <ele>511.0780029296875</ele>
        <time>2013-06-15T06:14:48Z</time>
      </trkpt>
      <trkpt lat="48.119061319157481" lon="11.563804959878325">
        <ele>510.5972900390625</ele>
        <time>2013-06-15T06:14:56Z</time>
      </trkpt>
      <trkpt lat="48.119013039395213" lon="11.563759446144104">
        <ele>511.5587158203125</ele>
        <time>2013-06-15T06:14:57Z</time>
      </trkpt>
      <trkpt lat="48.118918742984533" lon="11.563680153340101">
        <ele>511.0780029296875</ele>
        <time>2013-06-15T06:14:59Z</time>
      </trkpt>
      <trkpt lat="48.118783459067345" lon="11.56353740952909">
        <ele>511.0780029296875</ele>
        <time>2013-06-15T06:15:02Z</time>
      </trkpt>
      <trkpt lat="48.118421528488398" lon="11.563159134238958">
        <ele>512.0394287109375</ele>
        <time>2013-06-15T06:15:10Z</time>
      </trkpt>
      <trkpt lat="48.118203263729811" lon="11.562895774841309">
        <ele>510.5972900390625</ele>
        <time>2013-06-15T06:15:15Z</time>
      </trkpt>
      <trkpt lat="48.117878967896104" lon="11.562375845387578">
        <ele>510.5972900390625</ele>
        <time>2013-06-15T06:15:23Z</time>
      </trkpt>
      <trkpt lat="48.117802273482084" lon="11.562224384397268">
        <ele>510.11669921875</ele>
        <time>2013-06-15T06:15:25Z</time>
      </trkpt>
      <trkpt lat="48.117405474185944" lon="11.561784837394953">
        <ele>510.11669921875</ele>
        <time>2013-06-15T06:15:33Z</time>
      </trkpt>
      <trkpt lat="48.116766940802336" lon="11.561093665659428">
        <ele>510.5972900390625</ele>
        <time>2013-06-15T06:15:46Z</time>
      </trkpt>
      <trkpt lat="48.116271905601025" lon="11.560781104490161">
        <ele>511.0780029296875</ele>
        <time>2013-06-15T06:15:55Z</time>
      </trkpt>
      <trkpt lat="48.116105357185006" lon="11.560710528865457">
        <ele>511.5587158203125</ele>
        <time>2013-06-15T06:15:58Z</time>
      </trkpt>
      <trkpt lat="48.115711072459817" lon="11.560581363737583">
        <ele>511.5587158203125</ele>
        <time>2013-06-15T06:16:05Z</time>
      </trkpt>
      <trkpt lat="48.115487024188042" lon="11.560667529702187">
        <ele>512.0394287109375</ele>
        <time>2013-06-15T06:16:09Z</time>
      </trkpt>
      <trkpt lat="48.115269094705582" lon="11.560675241053104">
        <ele>512.52001953125</ele>
        <time>2013-06-15T06:16:14Z</time>
      </trkpt>
      <trkpt lat="48.115121321752667" lon="11.560673313215375">
        <ele>513.9620361328125</ele>
        <time>2013-06-15T06:16:17Z</time>
      </trkpt>
      <trkpt lat="48.114760397002101" lon="11.560644982382655">
        <ele>512.52001953125</ele>
        <time>2013-06-15T06:16:24Z</time>
      </trkpt>
      <trkpt lat="48.114603403955698" lon="11.560638444498181">
        <ele>512.52001953125</ele>
        <time>2013-06-15T06:16:27Z</time>
      </trkpt>
      <trkpt lat="48.114294949918985" lon="11.560617322102189">
        <ele>512.52001953125</ele>
        <time>2013-06-15T06:16:33Z</time>
      </trkpt>
      <trkpt lat="48.114076014608145" lon="11.560585722327232">
        <ele>512.52001953125</ele>
        <time>2013-06-15T06:16:38Z</time>
      </trkpt>
      <trkpt lat="48.113914411514997" lon="11.560597959905863">
        <ele>513.4814453125</ele>
        <time>2013-06-15T06:16:41Z</time>
      </trkpt>
      <trkpt lat="48.113804440945387" lon="11.560612041503191">
        <ele>513.000732421875</ele>
        <time>2013-06-15T06:16:43Z</time>
      </trkpt>
      <trkpt lat="48.113449718803167" lon="11.560589913278818">
        <ele>512.0394287109375</ele>
        <time>2013-06-15T06:16:48Z</time>
      </trkpt>
      <trkpt lat="48.113366402685642" lon="11.560578430071473">
        <ele>512.0394287109375</ele>
        <time>2013-06-15T06:16:49Z</time>
      </trkpt>
      <trkpt lat="48.113150233402848" lon="11.560626877471805">
        <ele>513.000732421875</ele>
        <time>2013-06-15T06:16:52Z</time>
      </trkpt>
      <trkpt lat="48.112884443253279" lon="11.560803484171629">
        <ele>513.000732421875</ele>
        <time>2013-06-15T06:16:57Z</time>
      </trkpt>
      <trkpt lat="48.112490829080343" lon="11.560820415616035">
        <ele>512.52001953125</ele>
        <time>2013-06-15T06:17:04Z</time>
      </trkpt>
      <trkpt lat="48.112423690035939" lon="11.560827037319541">
        <ele>512.0394287109375</ele>
        <time>2013-06-15T06:17:05Z</time>
      </trkpt>
      <trkpt lat="48.111983723938465" lon="11.560904737561941">
        <ele>513.000732421875</ele>
        <time>2013-06-15T06:17:12Z</time>
      </trkpt>
      <trkpt lat="48.111537555232644" lon="11.561065670102835">
        <ele>512.52001953125</ele>
        <time>2013-06-15T06:17:20Z</time>
      </trkpt>
      <trkpt lat="48.111370168626308" lon="11.561132306233048">
        <ele>512.52001953125</ele>
        <time>2013-06-15T06:17:23Z</time>
      </trkpt>
      <trkpt lat="48.11113128438592" lon="11.561193326488137">
        <ele>512.0394287109375</ele>
        <time>2013-06-15T06:17:27Z</time>
      </trkpt>
      <trkpt lat="48.110858704894781" lon="11.561124259606004">
        <ele>513.000732421875</ele>
        <time>2013-06-15T06:17:31Z</time>
      </trkpt>
      <trkpt lat="48.11061873100698" lon="11.561148231849074">
        <ele>512.52001953125</ele>
        <time>2013-06-15T06:17:35Z</time>
      </trkpt>
      <trkpt lat="48.110041720792651" lon="11.561307152733207">
        <ele>513.000732421875</ele>
        <time>2013-06-15T06:17:45Z</time>
      </trkpt>
      <trkpt lat="48.109522210434079" lon="11.561279408633709">
        <ele>513.4814453125</ele>
        <time>2013-06-15T06:17:54Z</time>
      </trkpt>
      <trkpt lat="48.109308136627078" lon="11.561190141364932">
        <ele>513.4814453125</ele>
        <time>2013-06-15T06:17:58Z</time>
      </trkpt>
      <trkpt lat="48.109138738363981" lon="11.561127528548241">
        <ele>513.000732421875</ele>
        <time>2013-06-15T06:18:01Z</time>
      </trkpt>
      <trkpt lat="48.10885232873261" lon="11.561050666496158">
        <ele>513.4814453125</ele>
        <time>2013-06-15T06:18:06Z</time>
      </trkpt>
      <trkpt lat="48.108620820567012" lon="11.560964835807681">
        <ele>513.4814453125</ele>
        <time>2013-06-15T06:18:10Z</time>
      </trkpt>
      <trkpt lat="48.108185548335314" lon="11.56066183000803">
        <ele>513.4814453125</ele>
        <time>2013-06-15T06:18:18Z</time>
      </trkpt>
      <trkpt lat="48.107879944145679" lon="11.560353711247444">
        <ele>513.9620361328125</ele>
        <time>2013-06-15T06:18:24Z</time>
      </trkpt>
      <trkpt lat="48.107392117381096" lon="11.559823052957654">
        <ele>513.4814453125</ele>
        <time>2013-06-15T06:18:34Z</time>
      </trkpt>
      <trkpt lat="48.106749895960093" lon="11.558994501829147">
        <ele>514.442626953125</ele>
        <time>2013-06-15T06:18:49Z</time>
      </trkpt>
      <trkpt lat="48.106572115793824" lon="11.558786882087588">
        <ele>514.92333984375</ele>
        <time>2013-06-15T06:18:53Z</time>
      </trkpt>
      <trkpt lat="48.106352090835571" lon="11.55828170478344">
        <ele>515.404052734375</ele>
        <time>2013-06-15T06:19:00Z</time>
      </trkpt>
      <trkpt lat="48.106153775006533" lon="11.557858167216182">
        <ele>514.442626953125</ele>
        <time>2013-06-15T06:19:06Z</time>
      </trkpt>
      <trkpt lat="48.105967277660966" lon="11.557643506675959">
        <ele>514.92333984375</ele>
        <time>2013-06-15T06:19:10Z</time>
      </trkpt>
      <trkpt lat="48.10574566014111" lon="11.557221561670303">
        <ele>515.404052734375</ele>
        <time>2013-06-15T06:19:16Z</time>
      </trkpt>
      <trkpt lat="48.105416335165501" lon="11.556626949459314">
        <ele>515.404052734375</ele>
        <time>2013-06-15T06:19:25Z</time>
      </trkpt>
      <trkpt lat="48.105134954676032" lon="11.556193772703409">
        <ele>515.8846435546875</ele>
        <time>2013-06-15T06:19:32Z</time>
      </trkpt>
      <trkpt lat="48.104945356026292" lon="11.555981794372201">
        <ele>514.92333984375</ele>
        <time>2013-06-15T06:19:36Z</time>
      </trkpt>
      <trkpt lat="48.104848712682724" lon="11.555741066113114">
        <ele>514.92333984375</ele>
        <time>2013-06-15T06:19:39Z</time>
      </trkpt>
      <trkpt lat="48.104689121246338" lon="11.555474018678069">
        <ele>515.404052734375</ele>
        <time>2013-06-15T06:19:43Z</time>
      </trkpt>
      <trkpt lat="48.104574121534824" lon="11.555408891290426">
        <ele>515.404052734375</ele>
        <time>2013-06-15T06:19:45Z</time>
      </trkpt>
      <trkpt lat="48.104427689686418" lon="11.555150225758553">
        <ele>515.404052734375</ele>
        <time>2013-06-15T06:19:49Z</time>
      </trkpt>
      <trkpt lat="48.104186458513141" lon="11.554892985150218">
        <ele>515.404052734375</ele>
        <time>2013-06-15T06:19:54Z</time>
      </trkpt>
      <trkpt lat="48.104014461860061" lon="11.554632475599647">
        <ele>516.365234375</ele>
        <time>2013-06-15T06:19:58Z</time>
      </trkpt>
      <trkpt lat="48.103900132700801" lon="11.554448073729873">
        <ele>516.365234375</ele>
        <time>2013-06-15T06:20:01Z</time>
      </trkpt>
      <trkpt lat="48.103775745257735" lon="11.554296026006341">
        <ele>515.8846435546875</ele>
        <time>2013-06-15T06:20:04Z</time>
      </trkpt>
      <trkpt lat="48.103586565703154" lon="11.553958654403687">
        <ele>515.8846435546875</ele>
        <time>2013-06-15T06:20:09Z</time>
      </trkpt>
      <trkpt lat="48.103399565443397" lon="11.553736114874482">
        <ele>515.8846435546875</ele>
        <time>2013-06-15T06:20:13Z</time>
      </trkpt>
      <trkpt lat="48.103076107800007" lon="11.553165223449469">
        <ele>516.845947265625</ele>
        <time>2013-06-15T06:20:22Z</time>
      </trkpt>
      <trkpt lat="48.103037718683481" lon="11.553101101890206">
        <ele>516.365234375</ele>
        <time>2013-06-15T06:20:23Z</time>
      </trkpt>
      <trkpt lat="48.102899584919214" lon="11.552727520465851">
        <ele>517.32666015625</ele>
        <time>2013-06-15T06:20:28Z</time>
      </trkpt>
      <trkpt lat="48.102694731205702" lon="11.552427364513278">
        <ele>518.287841796875</ele>
        <time>2013-06-15T06:20:34Z</time>
      </trkpt>
      <trkpt lat="48.102536564692855" lon="11.552108768373728">
        <ele>518.287841796875</ele>
        <time>2013-06-15T06:20:40Z</time>
      </trkpt>
      <trkpt lat="48.102443357929587" lon="11.552028469741344">
        <ele>518.7685546875</ele>
        <time>2013-06-15T06:20:42Z</time>
      </trkpt>
      <trkpt lat="48.10230958275497" lon="11.55182646587491">
        <ele>518.7685546875</ele>
        <time>2013-06-15T06:20:45Z</time>
      </trkpt>
      <trkpt lat="48.102175388485193" lon="11.55152840539813">
        <ele>518.287841796875</ele>
        <time>2013-06-15T06:20:49Z</time>
      </trkpt>
      <trkpt lat="48.102006996050477" lon="11.551306201145053">
        <ele>519.249267578125</ele>
        <time>2013-06-15T06:20:53Z</time>
      </trkpt>
      <trkpt lat="48.101742463186383" lon="11.551024317741394">
        <ele>519.7298583984375</ele>
        <time>2013-06-15T06:20:59Z</time>
      </trkpt>
      <trkpt lat="48.101525790989399" lon="11.550973523408175">
        <ele>519.7298583984375</ele>
        <time>2013-06-15T06:21:04Z</time>
      </trkpt>
      <trkpt lat="48.101281626150012" lon="11.550909066572785">
        <ele>520.2105712890625</ele>
        <time>2013-06-15T06:21:09Z</time>
      </trkpt>
      <trkpt lat="48.10105724260211" lon="11.550827091559768">
        <ele>520.2105712890625</ele>
        <time>2013-06-15T06:21:13Z</time>
      </trkpt>
      <trkpt lat="48.100821040570736" lon="11.550807813182473">
        <ele>518.7685546875</ele>
        <time>2013-06-15T06:21:18Z</time>
      </trkpt>
      <trkpt lat="48.100778628140688" lon="11.550799096003175">
        <ele>519.249267578125</ele>
        <time>2013-06-15T06:21:19Z</time>
      </trkpt>
      <trkpt lat="48.100572768598795" lon="11.550820050761104">
        <ele>520.6912841796875</ele>
        <time>2013-06-15T06:21:23Z</time>
      </trkpt>
      <trkpt lat="48.10050998814404" lon="11.550914766266942">
        <ele>521.652587890625</ele>
        <time>2013-06-15T06:21:25Z</time>
      </trkpt>
      <trkpt lat="48.100408567115664" lon="11.550984168425202">
        <ele>521.652587890625</ele>
        <time>2013-06-15T06:21:29Z</time>
      </trkpt>
      <trkpt lat="48.100385349243879" lon="11.550975786522031">
        <ele>521.652587890625</ele>
        <time>2013-06-15T06:21:30Z</time>
      </trkpt>
      <trkpt lat="48.100295411422849" lon="11.551005290821195">
        <ele>522.1331787109375</ele>
        <time>2013-06-15T06:21:36Z</time>
      </trkpt>
      <trkpt lat="48.100260123610497" lon="11.551004201173782">
        <ele>522.1331787109375</ele>
        <time>2013-06-15T06:22:28Z</time>
      </trkpt>
      <trkpt lat="48.100144034251571" lon="11.550964387133718">
        <ele>521.652587890625</ele>
        <time>2013-06-15T06:22:34Z</time>
      </trkpt>
      <trkpt lat="48.099886039271951" lon="11.550977462902665">
        <ele>521.652587890625</ele>
        <time>2013-06-15T06:22:40Z</time>
      </trkpt>
      <trkpt lat="48.099699961021543" lon="11.550981318578124">
        <ele>521.1719970703125</ele>
        <time>2013-06-15T06:22:44Z</time>
      </trkpt>
      <trkpt lat="48.099606838077307" lon="11.550957430154085">
        <ele>521.1719970703125</ele>
        <time>2013-06-15T06:22:46Z</time>
      </trkpt>
      <trkpt lat="48.099389411509037" lon="11.550944689661264">
        <ele>520.2105712890625</ele>
        <time>2013-06-15T06:22:50Z</time>
      </trkpt>
      <trkpt lat="48.099164189770818" lon="11.550927506759763">
        <ele>519.7298583984375</ele>
        <time>2013-06-15T06:22:54Z</time>
      </trkpt>
      <trkpt lat="48.099003508687019" lon="11.550904037430882">
        <ele>519.7298583984375</ele>
        <time>2013-06-15T06:22:57Z</time>
      </trkpt>
      <trkpt lat="48.098730510100722" lon="11.550916945561767">
        <ele>521.1719970703125</ele>
        <time>2013-06-15T06:23:02Z</time>
      </trkpt>
      <trkpt lat="48.098478382453322" lon="11.550879059359431">
        <ele>521.1719970703125</ele>
        <time>2013-06-15T06:23:07Z</time>
      </trkpt>
      <trkpt lat="48.098113350570202" lon="11.55086874961853">
        <ele>521.1719970703125</ele>
        <time>2013-06-15T06:23:13Z</time>
      </trkpt>
      <trkpt lat="48.097933307290077" lon="11.55087361112237">
        <ele>521.652587890625</ele>
        <time>2013-06-15T06:23:16Z</time>
      </trkpt>
      <trkpt lat="48.097743541002274" lon="11.550894482061267">
        <ele>521.652587890625</ele>
        <time>2013-06-15T06:23:19Z</time>
      </trkpt>
      <trkpt lat="48.097619907930493" lon="11.55089121311903">
        <ele>521.1719970703125</ele>
        <time>2013-06-15T06:23:21Z</time>
      </trkpt>
      <trkpt lat="48.097174577414989" lon="11.550922226160765">
        <ele>521.1719970703125</ele>
        <time>2013-06-15T06:23:28Z</time>
      </trkpt>
      <trkpt lat="48.096837624907494" lon="11.550939660519361">
        <ele>521.652587890625</ele>
        <time>2013-06-15T06:23:33Z</time>
      </trkpt>
      <trkpt lat="48.09656529687345" lon="11.550921471789479">
        <ele>521.652587890625</ele>
        <time>2013-06-15T06:23:38Z</time>
      </trkpt>
      <trkpt lat="48.096391623839736" lon="11.550914095714688">
        <ele>521.1719970703125</ele>
        <time>2013-06-15T06:23:41Z</time>
      </trkpt>
      <trkpt lat="48.096280312165618" lon="11.550909569486976">
        <ele>521.652587890625</ele>
        <time>2013-06-15T06:23:43Z</time>
      </trkpt>
      <trkpt lat="48.095852416008711" lon="11.550928177312016">
        <ele>521.1719970703125</ele>
        <time>2013-06-15T06:23:50Z</time>
      </trkpt>
      <trkpt lat="48.095696764066815" lon="11.550916191190481">
        <ele>521.652587890625</ele>
        <time>2013-06-15T06:23:53Z</time>
      </trkpt>
      <trkpt lat="48.095323266461492" lon="11.550932452082634">
        <ele>521.652587890625</ele>
        <time>2013-06-15T06:23:59Z</time>
      </trkpt>
      <trkpt lat="48.095146073028445" lon="11.550914263352752">
        <ele>521.652587890625</ele>
        <time>2013-06-15T06:24:02Z</time>
      </trkpt>
      <trkpt lat="48.094921270385385" lon="11.55092247761786">
        <ele>522.1331787109375</ele>
        <time>2013-06-15T06:24:06Z</time>
      </trkpt>
      <trkpt lat="48.094757907092571" lon="11.550896074622869">
        <ele>522.1331787109375</ele>
        <time>2013-06-15T06:24:09Z</time>
      </trkpt>
      <trkpt lat="48.094656737521291" lon="11.550880065187812">
        <ele>522.1331787109375</ele>
        <time>2013-06-15T06:24:11Z</time>
      </trkpt>
      <trkpt lat="48.094280054792762" lon="11.550838239490986">
        <ele>521.652587890625</ele>
        <time>2013-06-15T06:24:17Z</time>
      </trkpt>
      <trkpt lat="48.094130102545023" lon="11.550838155671954">
        <ele>521.652587890625</ele>
        <time>2013-06-15T06:24:19Z</time>
      </trkpt>
      <trkpt lat="48.093833969905972" lon="11.550695076584816">
        <ele>521.652587890625</ele>
        <time>2013-06-15T06:24:24Z</time>
      </trkpt>
      <trkpt lat="48.093593157827854" lon="11.550619974732399">
        <ele>522.1331787109375</ele>
        <time>2013-06-15T06:24:28Z</time>
      </trkpt>
      <trkpt lat="48.093466842547059" lon="11.550620477646589">
        <ele>521.1719970703125</ele>
        <time>2013-06-15T06:24:30Z</time>
      </trkpt>
      <trkpt lat="48.093200046569109" lon="11.550584603101015">
        <ele>522.1331787109375</ele>
        <time>2013-06-15T06:24:35Z</time>
      </trkpt>
      <trkpt lat="48.093101475387812" lon="11.550589883700013">
        <ele>522.6138916015625</ele>
        <time>2013-06-15T06:24:37Z</time>
      </trkpt>
      <trkpt lat="48.092885557562113" lon="11.550561469048262">
        <ele>523.5751953125</ele>
        <time>2013-06-15T06:24:41Z</time>
      </trkpt>
      <trkpt lat="48.092779107391834" lon="11.550519810989499">
        <ele>523.0946044921875</ele>
        <time>2013-06-15T06:24:43Z</time>
      </trkpt>
      <trkpt lat="48.092513317242265" lon="11.550494162365794">
        <ele>524.5364990234375</ele>
        <time>2013-06-15T06:24:49Z</time>
      </trkpt>
      <trkpt lat="48.092399071902037" lon="11.550613436847925">
        <ele>525.0172119140625</ele>
        <time>2013-06-15T06:24:54Z</time>
      </trkpt>
      <trkpt lat="48.092290945351124" lon="11.550657022744417">
        <ele>524.5364990234375</ele>
        <time>2013-06-15T06:24:58Z</time>
      </trkpt>
      <trkpt lat="48.09220184572041" lon="11.550636319443583">
        <ele>524.5364990234375</ele>
        <time>2013-06-15T06:25:00Z</time>
      </trkpt>
      <trkpt lat="48.091896828263998" lon="11.550663225352764">
        <ele>525.0172119140625</ele>
        <time>2013-06-15T06:25:07Z</time>
      </trkpt>
      <trkpt lat="48.091753832995892" lon="11.550668757408857">
        <ele>524.5364990234375</ele>
        <time>2013-06-15T06:25:10Z</time>
      </trkpt>
      <trkpt lat="48.09155392460525" lon="11.550677893683314">
        <ele>525.0172119140625</ele>
        <time>2013-06-15T06:25:14Z</time>
      </trkpt>
      <trkpt lat="48.091288637369871" lon="11.550621232017875">
        <ele>525.0172119140625</ele>
        <time>2013-06-15T06:25:20Z</time>
      </trkpt>
      <trkpt lat="48.091203812509775" lon="11.550599606707692">
        <ele>525.0172119140625</ele>
        <time>2013-06-15T06:25:22Z</time>
      </trkpt>
      <trkpt lat="48.091053692623973" lon="11.55056482180953">
        <ele>525.0172119140625</ele>
        <time>2013-06-15T06:25:25Z</time>
      </trkpt>
      <trkpt lat="48.090813802555203" lon="11.550512351095676">
        <ele>525.0172119140625</ele>
        <time>2013-06-15T06:25:29Z</time>
      </trkpt>
      <trkpt lat="48.090611211955547" lon="11.550414031371474">
        <ele>525.497802734375</ele>
        <time>2013-06-15T06:25:33Z</time>
      </trkpt>
      <trkpt lat="48.090399568900466" lon="11.550291404128075">
        <ele>525.0172119140625</ele>
        <time>2013-06-15T06:25:37Z</time>
      </trkpt>
      <trkpt lat="48.090183064341545" lon="11.550105074420571">
        <ele>524.5364990234375</ele>
        <time>2013-06-15T06:25:41Z</time>
      </trkpt>
      <trkpt lat="48.090075859799981" lon="11.550013711676002">
        <ele>524.0557861328125</ele>
        <time>2013-06-15T06:25:43Z</time>
      </trkpt>
      <trkpt lat="48.08978408575058" lon="11.549786813557148">
        <ele>524.0557861328125</ele>
        <time>2013-06-15T06:25:49Z</time>
      </trkpt>
      <trkpt lat="48.08957202360034" lon="11.549579864367843">
        <ele>524.0557861328125</ele>
        <time>2013-06-15T06:25:54Z</time>
      </trkpt>
      <trkpt lat="48.089343113824725" lon="11.549420105293393">
        <ele>524.5364990234375</ele>
        <time>2013-06-15T06:25:59Z</time>
      </trkpt>
      <trkpt lat="48.089293912053108" lon="11.549385823309422">
        <ele>524.0557861328125</ele>
        <time>2013-06-15T06:26:00Z</time>
      </trkpt>
      <trkpt lat="48.088965760543942" lon="11.549100335687399">
        <ele>524.0557861328125</ele>
        <time>2013-06-15T06:26:07Z</time>
      </trkpt>
      <trkpt lat="48.088861489668489" lon="11.549012660980225">
        <ele>524.5364990234375</ele>
        <time>2013-06-15T06:26:09Z</time>
      </trkpt>
      <trkpt lat="48.088736012578011" lon="11.548924315720797">
        <ele>524.0557861328125</ele>
        <time>2013-06-15T06:26:12Z</time>
      </trkpt>
      <trkpt lat="48.088586144149303" lon="11.548753408715129">
        <ele>525.497802734375</ele>
        <time>2013-06-15T06:26:16Z</time>
      </trkpt>
      <trkpt lat="48.088435018435121" lon="11.548594906926155">
        <ele>525.0172119140625</ele>
        <time>2013-06-15T06:26:19Z</time>
      </trkpt>
      <trkpt lat="48.088223291561007" lon="11.54840555973351">
        <ele>525.497802734375</ele>
        <time>2013-06-15T06:26:24Z</time>
      </trkpt>
      <trkpt lat="48.088080380111933" lon="11.548285698518157">
        <ele>525.497802734375</ele>
        <time>2013-06-15T06:26:27Z</time>
      </trkpt>
      <trkpt lat="48.087979126721621" lon="11.548200035467744">
        <ele>525.0172119140625</ele>
        <time>2013-06-15T06:26:29Z</time>
      </trkpt>
      <trkpt lat="48.087885668501258" lon="11.54813096858561">
        <ele>525.497802734375</ele>
        <time>2013-06-15T06:26:31Z</time>
      </trkpt>
      <trkpt lat="48.087715432047844" lon="11.54796676710248">
        <ele>525.0172119140625</ele>
        <time>2013-06-15T06:26:35Z</time>
      </trkpt>
      <trkpt lat="48.087520385161042" lon="11.547815725207329">
        <ele>525.0172119140625</ele>
        <time>2013-06-15T06:26:39Z</time>
      </trkpt>
      <trkpt lat="48.08717530220747" lon="11.547502242028713">
        <ele>525.497802734375</ele>
        <time>2013-06-15T06:26:46Z</time>
      </trkpt>
      <trkpt lat="48.087075557559729" lon="11.547389337792993">
        <ele>525.0172119140625</ele>
        <time>2013-06-15T06:26:48Z</time>
      </trkpt>
      <trkpt lat="48.086767103523016" lon="11.54715908691287">
        <ele>525.9783935546875</ele>
        <time>2013-06-15T06:26:54Z</time>
      </trkpt>
      <trkpt lat="48.08669988065958" lon="11.547088259831071">
        <ele>525.9783935546875</ele>
        <time>2013-06-15T06:26:56Z</time>
      </trkpt>
      <trkpt lat="48.086623772978783" lon="11.547022629529238">
        <ele>525.497802734375</ele>
        <time>2013-06-15T06:26:58Z</time>
      </trkpt>
      <trkpt lat="48.086411543190479" lon="11.546800844371319">
        <ele>526.4591064453125</ele>
        <time>2013-06-15T06:27:03Z</time>
      </trkpt>
      <trkpt lat="48.086216244846582" lon="11.546640582382679">
        <ele>526.4591064453125</ele>
        <time>2013-06-15T06:27:07Z</time>
      </trkpt>
      <trkpt lat="48.085987251251936" lon="11.546422401443124">
        <ele>525.9783935546875</ele>
        <time>2013-06-15T06:27:12Z</time>
      </trkpt>
      <trkpt lat="48.085941905155778" lon="11.546378144994378">
        <ele>525.9783935546875</ele>
        <time>2013-06-15T06:27:13Z</time>
      </trkpt>
      <trkpt lat="48.085754066705704" lon="11.546177566051483">
        <ele>526.4591064453125</ele>
        <time>2013-06-15T06:27:17Z</time>
      </trkpt>
      <trkpt lat="48.085510572418571" lon="11.545970365405083">
        <ele>525.9783935546875</ele>
        <time>2013-06-15T06:27:22Z</time>
      </trkpt>
      <trkpt lat="48.085105391219258" lon="11.545689655467868">
        <ele>526.4591064453125</ele>
        <time>2013-06-15T06:27:30Z</time>
      </trkpt>
      <trkpt lat="48.084806324914098" lon="11.545437360182405">
        <ele>526.4591064453125</ele>
        <time>2013-06-15T06:27:36Z</time>
      </trkpt>
      <trkpt lat="48.084557801485062" lon="11.545221274718642">
        <ele>525.9783935546875</ele>
        <time>2013-06-15T06:27:41Z</time>
      </trkpt>
      <trkpt lat="48.084336435422301" lon="11.545082470402122">
        <ele>526.4591064453125</ele>
        <time>2013-06-15T06:27:45Z</time>
      </trkpt>
      <trkpt lat="48.083930835127831" lon="11.544783907011151">
        <ele>526.4591064453125</ele>
        <time>2013-06-15T06:27:53Z</time>
      </trkpt>
      <trkpt lat="48.083773842081428" lon="11.544658010825515">
        <ele>525.9783935546875</ele>
        <time>2013-06-15T06:27:56Z</time>
      </trkpt>
      <trkpt lat="48.083567982539535" lon="11.544554410502315">
        <ele>526.4591064453125</ele>
        <time>2013-06-15T06:28:00Z</time>
      </trkpt>
      <trkpt lat="48.083501178771257" lon="11.544514428824186">
        <ele>526.4591064453125</ele>
        <time>2013-06-15T06:28:02Z</time>
      </trkpt>
      <trkpt lat="48.083329265937209" lon="11.544329775497317">
        <ele>526.4591064453125</ele>
        <time>2013-06-15T06:28:06Z</time>
      </trkpt>
      <trkpt lat="48.083091052249074" lon="11.544208824634552">
        <ele>526.4591064453125</ele>
        <time>2013-06-15T06:28:10Z</time>
      </trkpt>
      <trkpt lat="48.082891395315528" lon="11.544137327000499">
        <ele>526.9398193359375</ele>
        <time>2013-06-15T06:28:14Z</time>
      </trkpt>
      <trkpt lat="48.082798104733229" lon="11.544106565415859">
        <ele>527.42041015625</ele>
        <time>2013-06-15T06:28:16Z</time>
      </trkpt>
      <trkpt lat="48.082553520798683" lon="11.544033978134394">
        <ele>526.9398193359375</ele>
        <time>2013-06-15T06:28:20Z</time>
      </trkpt>
      <trkpt lat="48.082318408414721" lon="11.543946890160441">
        <ele>527.42041015625</ele>
        <time>2013-06-15T06:28:25Z</time>
      </trkpt>
      <trkpt lat="48.081923369318247" lon="11.543785706162453">
        <ele>527.42041015625</ele>
        <time>2013-06-15T06:28:32Z</time>
      </trkpt>
      <trkpt lat="48.081866707652807" lon="11.543754357844591">
        <ele>527.42041015625</ele>
        <time>2013-06-15T06:28:33Z</time>
      </trkpt>
      <trkpt lat="48.081683227792382" lon="11.543673556298018">
        <ele>527.42041015625</ele>
        <time>2013-06-15T06:28:36Z</time>
      </trkpt>
      <trkpt lat="48.08136940933764" lon="11.543478928506374">
        <ele>527.42041015625</ele>
        <time>2013-06-15T06:28:42Z</time>
      </trkpt>
      <trkpt lat="48.080932963639498" lon="11.543157482519746">
        <ele>526.9398193359375</ele>
        <time>2013-06-15T06:28:51Z</time>
      </trkpt>
      <trkpt lat="48.080725762993097" lon="11.542978528887033">
        <ele>526.9398193359375</ele>
        <time>2013-06-15T06:28:56Z</time>
      </trkpt>
      <trkpt lat="48.080501798540354" lon="11.542856739833951">
        <ele>526.4591064453125</ele>
        <time>2013-06-15T06:29:01Z</time>
      </trkpt>
      <trkpt lat="48.080174569040537" lon="11.542739057913423">
        <ele>527.42041015625</ele>
        <time>2013-06-15T06:29:08Z</time>
      </trkpt>
      <trkpt lat="48.080068118870258" lon="11.542674014344811">
        <ele>526.9398193359375</ele>
        <time>2013-06-15T06:29:10Z</time>
      </trkpt>
      <trkpt lat="48.079911125823855" lon="11.542588518932462">
        <ele>526.9398193359375</ele>
        <time>2013-06-15T06:29:13Z</time>
      </trkpt>
      <trkpt lat="48.079685987904668" lon="11.542541077360511">
        <ele>527.42041015625</ele>
        <time>2013-06-15T06:29:17Z</time>
      </trkpt>
      <trkpt lat="48.079163962975144" lon="11.542285596951842">
        <ele>527.42041015625</ele>
        <time>2013-06-15T06:29:27Z</time>
      </trkpt>
      <trkpt lat="48.079067654907703" lon="11.542233545333147">
        <ele>527.42041015625</ele>
        <time>2013-06-15T06:29:29Z</time>
      </trkpt>
      <trkpt lat="48.078787447884679" lon="11.542103793472052">
        <ele>528.3818359375</ele>
        <time>2013-06-15T06:29:35Z</time>
      </trkpt>
      <trkpt lat="48.078524507582188" lon="11.542007485404611">
        <ele>527.9010009765625</ele>
        <time>2013-06-15T06:29:40Z</time>
      </trkpt>
      <trkpt lat="48.078258465975523" lon="11.541896341368556">
        <ele>527.42041015625</ele>
        <time>2013-06-15T06:29:46Z</time>
      </trkpt>
      <trkpt lat="48.0780956055969" lon="11.541832722723484">
        <ele>527.42041015625</ele>
        <time>2013-06-15T06:29:49Z</time>
      </trkpt>
      <trkpt lat="48.077947245910764" lon="11.541801039129496">
        <ele>527.42041015625</ele>
        <time>2013-06-15T06:29:52Z</time>
      </trkpt>
      <trkpt lat="48.077757311984897" lon="11.541820233687758">
        <ele>527.42041015625</ele>
        <time>2013-06-15T06:29:56Z</time>
      </trkpt>
      <trkpt lat="48.077661003917456" lon="11.5418232511729">
        <ele>527.9010009765625</ele>
        <time>2013-06-15T06:29:58Z</time>
      </trkpt>
      <trkpt lat="48.077376186847687" lon="11.541802464053035">
        <ele>528.3818359375</ele>
        <time>2013-06-15T06:30:05Z</time>
      </trkpt>
      <trkpt lat="48.077196981757879" lon="11.54179148375988">
        <ele>528.862548828125</ele>
        <time>2013-06-15T06:30:10Z</time>
      </trkpt>
      <trkpt lat="48.077108133584261" lon="11.541818305850029">
        <ele>528.3818359375</ele>
        <time>2013-06-15T06:30:12Z</time>
      </trkpt>
      <trkpt lat="48.076757770031691" lon="11.541873291134834">
        <ele>527.9010009765625</ele>
        <time>2013-06-15T06:30:18Z</time>
      </trkpt>
      <trkpt lat="48.07655836455524" lon="11.541855102404952">
        <ele>528.3818359375</ele>
        <time>2013-06-15T06:30:22Z</time>
      </trkpt>
      <trkpt lat="48.076334986835718" lon="11.541821155697107">
        <ele>527.9010009765625</ele>
        <time>2013-06-15T06:30:26Z</time>
      </trkpt>
      <trkpt lat="48.076135665178299" lon="11.541833728551865">
        <ele>527.9010009765625</ele>
        <time>2013-06-15T06:30:29Z</time>
      </trkpt>
      <trkpt lat="48.075987724587321" lon="11.541786203160882">
        <ele>527.9010009765625</ele>
        <time>2013-06-15T06:30:32Z</time>
      </trkpt>
      <trkpt lat="48.075767029076815" lon="11.541725769639015">
        <ele>530.78515625</ele>
        <time>2013-06-15T06:30:38Z</time>
      </trkpt>
      <trkpt lat="48.075746158137918" lon="11.541731134057045">
        <ele>530.78515625</ele>
        <time>2013-06-15T06:30:39Z</time>
      </trkpt>
      <trkpt lat="48.075533006340265" lon="11.541792573407292">
        <ele>532.22705078125</ele>
        <time>2013-06-15T06:30:46Z</time>
      </trkpt>
      <trkpt lat="48.075385149568319" lon="11.541829789057374">
        <ele>531.2657470703125</ele>
        <time>2013-06-15T06:30:51Z</time>
      </trkpt>
      <trkpt lat="48.07518046349287" lon="11.541815958917141">
        <ele>529.82373046875</ele>
        <time>2013-06-15T06:30:56Z</time>
      </trkpt>
      <trkpt lat="48.074906039983034" lon="11.541834650561213">
        <ele>529.82373046875</ele>
        <time>2013-06-15T06:31:02Z</time>
      </trkpt>
      <trkpt lat="48.074650978669524" lon="11.541920732706785">
        <ele>530.304443359375</ele>
        <time>2013-06-15T06:31:08Z</time>
      </trkpt>
      <trkpt lat="48.074489962309599" lon="11.541991978883743">
        <ele>529.82373046875</ele>
        <time>2013-06-15T06:31:12Z</time>
      </trkpt>
      <trkpt lat="48.074318720027804" lon="11.54203581623733">
        <ele>529.3431396484375</ele>
        <time>2013-06-15T06:31:16Z</time>
      </trkpt>
      <trkpt lat="48.074012361466885" lon="11.542090550065041">
        <ele>529.3431396484375</ele>
        <time>2013-06-15T06:31:23Z</time>
      </trkpt>
      <trkpt lat="48.073821673169732" lon="11.542111001908779">
        <ele>528.862548828125</ele>
        <time>2013-06-15T06:31:28Z</time>
      </trkpt>
      <trkpt lat="48.073594691231847" lon="11.542133884504437">
        <ele>529.82373046875</ele>
        <time>2013-06-15T06:31:32Z</time>
      </trkpt>
      <trkpt lat="48.073327643796802" lon="11.542213931679726">
        <ele>529.3431396484375</ele>
        <time>2013-06-15T06:31:38Z</time>
      </trkpt>
      <trkpt lat="48.073287745937705" lon="11.542216865345836">
        <ele>529.82373046875</ele>
        <time>2013-06-15T06:31:39Z</time>
      </trkpt>
      <trkpt lat="48.073149109259248" lon="11.542232958599925">
        <ele>529.82373046875</ele>
        <time>2013-06-15T06:31:42Z</time>
      </trkpt>
      <trkpt lat="48.072784328833222" lon="11.542281406000257">
        <ele>529.3431396484375</ele>
        <time>2013-06-15T06:31:50Z</time>
      </trkpt>
      <trkpt lat="48.072566399350762" lon="11.542357765138149">
        <ele>529.3431396484375</ele>
        <time>2013-06-15T06:31:55Z</time>
      </trkpt>
      <trkpt lat="48.072482580319047" lon="11.54240570962429">
        <ele>529.3431396484375</ele>
        <time>2013-06-15T06:31:57Z</time>
      </trkpt>
      <trkpt lat="48.072184938937426" lon="11.542612658813596">
        <ele>529.82373046875</ele>
        <time>2013-06-15T06:32:04Z</time>
      </trkpt>
      <trkpt lat="48.07197698391974" lon="11.542736040428281">
        <ele>530.78515625</ele>
        <time>2013-06-15T06:32:10Z</time>
      </trkpt>
      <trkpt lat="48.071919400244951" lon="11.542750541120768">
        <ele>530.304443359375</ele>
        <time>2013-06-15T06:32:12Z</time>
      </trkpt>
      <trkpt lat="48.071724940091372" lon="11.542827738448977">
        <ele>530.304443359375</ele>
        <time>2013-06-15T06:32:17Z</time>
      </trkpt>
      <trkpt lat="48.071652771905065" lon="11.542871659621596">
        <ele>530.304443359375</ele>
        <time>2013-06-15T06:32:19Z</time>
      </trkpt>
      <trkpt lat="48.071484044194221" lon="11.542909629642963">
        <ele>529.82373046875</ele>
        <time>2013-06-15T06:32:23Z</time>
      </trkpt>
      <trkpt lat="48.071304252371192" lon="11.542833605781198">
        <ele>527.9010009765625</ele>
        <time>2013-06-15T06:32:27Z</time>
      </trkpt>
      <trkpt lat="48.071061680093408" lon="11.542778285220265">
        <ele>528.3818359375</ele>
        <time>2013-06-15T06:32:32Z</time>
      </trkpt>
      <trkpt lat="48.070915583521128" lon="11.542753055691719">
        <ele>528.3818359375</ele>
        <time>2013-06-15T06:32:35Z</time>
      </trkpt>
      <trkpt lat="48.070607800036669" lon="11.54269102960825">
        <ele>528.862548828125</ele>
        <time>2013-06-15T06:32:41Z</time>
      </trkpt>
      <trkpt lat="48.070421135053039" lon="11.542599834501743">
        <ele>527.9010009765625</ele>
        <time>2013-06-15T06:32:45Z</time>
      </trkpt>
      <trkpt lat="48.070090133696795" lon="11.542527666315436">
        <ele>528.3818359375</ele>
        <time>2013-06-15T06:32:51Z</time>
      </trkpt>
      <trkpt lat="48.069994915276766" lon="11.542545016855001">
        <ele>527.9010009765625</ele>
        <time>2013-06-15T06:32:53Z</time>
      </trkpt>
      <trkpt lat="48.069805987179279" lon="11.542626656591892">
        <ele>527.9010009765625</ele>
        <time>2013-06-15T06:32:56Z</time>
      </trkpt>
      <trkpt lat="48.06945369578898" lon="11.542715923860669">
        <ele>528.862548828125</ele>
        <time>2013-06-15T06:33:04Z</time>
      </trkpt>
      <trkpt lat="48.069145157933235" lon="11.542839389294386">
        <ele>528.862548828125</ele>
        <time>2013-06-15T06:33:11Z</time>
      </trkpt>
      <trkpt lat="48.068894287571311" lon="11.54290359467268">
        <ele>528.3818359375</ele>
        <time>2013-06-15T06:33:17Z</time>
      </trkpt>
      <trkpt lat="48.068570913746953" lon="11.543007781729102">
        <ele>528.3818359375</ele>
        <time>2013-06-15T06:33:23Z</time>
      </trkpt>
      <trkpt lat="48.06851651519537" lon="11.543010380119085">
        <ele>527.9010009765625</ele>
        <time>2013-06-15T06:33:24Z</time>
      </trkpt>
      <trkpt lat="48.068122733384371" lon="11.543115573003888">
        <ele>527.9010009765625</ele>
        <time>2013-06-15T06:33:31Z</time>
      </trkpt>
      <trkpt lat="48.068022653460503" lon="11.543117584660649">
        <ele>527.9010009765625</ele>
        <time>2013-06-15T06:33:33Z</time>
      </trkpt>
      <trkpt lat="48.067751917988062" lon="11.543188830837607">
        <ele>527.9010009765625</ele>
        <time>2013-06-15T06:33:38Z</time>
      </trkpt>
      <trkpt lat="48.06746986694634" lon="11.543227219954133">
        <ele>527.9010009765625</ele>
        <time>2013-06-15T06:33:43Z</time>
      </trkpt>
      <trkpt lat="48.06723240762949" lon="11.543263429775834">
        <ele>527.9010009765625</ele>
        <time>2013-06-15T06:33:47Z</time>
      </trkpt>
      <trkpt lat="48.066980447620153" lon="11.5432651899755">
        <ele>527.9010009765625</ele>
        <time>2013-06-15T06:33:52Z</time>
      </trkpt>
      <trkpt lat="48.066876931115985" lon="11.543273068964481">
        <ele>528.3818359375</ele>
        <time>2013-06-15T06:33:54Z</time>
      </trkpt>
      <trkpt lat="48.066669646650553" lon="11.543262423947453">
        <ele>527.9010009765625</ele>
        <time>2013-06-15T06:33:58Z</time>
      </trkpt>
      <trkpt lat="48.066396731883287" lon="11.543230153620243">
        <ele>527.42041015625</ele>
        <time>2013-06-15T06:34:03Z</time>
      </trkpt>
      <trkpt lat="48.066197074949741" lon="11.543149603530765">
        <ele>527.9010009765625</ele>
        <time>2013-06-15T06:34:07Z</time>
      </trkpt>
      <trkpt lat="48.066039243713021" lon="11.543033346533775">
        <ele>528.3818359375</ele>
        <time>2013-06-15T06:34:11Z</time>
      </trkpt>
      <trkpt lat="48.065746212378144" lon="11.542881466448307">
        <ele>528.862548828125</ele>
        <time>2013-06-15T06:34:17Z</time>
      </trkpt>
      <trkpt lat="48.065479081124067" lon="11.542784906923771">
        <ele>529.3431396484375</ele>
        <time>2013-06-15T06:34:23Z</time>
      </trkpt>
      <trkpt lat="48.065455192700028" lon="11.54278926551342">
        <ele>529.3431396484375</ele>
        <time>2013-06-15T06:34:24Z</time>
      </trkpt>
      <trkpt lat="48.065415881574154" lon="11.542831091210246">
        <ele>528.862548828125</ele>
        <time>2013-06-15T06:34:26Z</time>
      </trkpt>
      <trkpt lat="48.065281771123409" lon="11.542842071503401">
        <ele>529.82373046875</ele>
        <time>2013-06-15T06:34:31Z</time>
      </trkpt>
      <trkpt lat="48.06517037563026" lon="11.542808124795556">
        <ele>529.82373046875</ele>
        <time>2013-06-15T06:34:35Z</time>
      </trkpt>
      <trkpt lat="48.065102398395538" lon="11.542627327144146">
        <ele>528.862548828125</ele>
        <time>2013-06-15T06:34:40Z</time>
      </trkpt>
      <trkpt lat="48.064952613785863" lon="11.542537556961179">
        <ele>528.3818359375</ele>
        <time>2013-06-15T06:34:45Z</time>
      </trkpt>
      <trkpt lat="48.064634520560503" lon="11.542345192283392">
        <ele>528.862548828125</ele>
        <time>2013-06-15T06:34:54Z</time>
      </trkpt>
      <trkpt lat="48.064378201961517" lon="11.542198760434985">
        <ele>529.3431396484375</ele>
        <time>2013-06-15T06:35:01Z</time>
      </trkpt>
      <trkpt lat="48.064157757908106" lon="11.542120892554522">
        <ele>529.3431396484375</ele>
        <time>2013-06-15T06:35:07Z</time>
      </trkpt>
      <trkpt lat="48.063929937779903" lon="11.542007736861706">
        <ele>529.3431396484375</ele>
        <time>2013-06-15T06:35:13Z</time>
      </trkpt>
      <trkpt lat="48.063688958063722" lon="11.541902208700776">
        <ele>529.3431396484375</ele>
        <time>2013-06-15T06:35:19Z</time>
      </trkpt>
      <trkpt lat="48.063546465709805" lon="11.541853593662381">
        <ele>528.862548828125</ele>
        <time>2013-06-15T06:35:23Z</time>
      </trkpt>
      <trkpt lat="48.063334655016661" lon="11.5417421143502">
        <ele>528.862548828125</ele>
        <time>2013-06-15T06:35:29Z</time>
      </trkpt>
      <trkpt lat="48.063301043584943" lon="11.541731217876077">
        <ele>529.82373046875</ele>
        <time>2013-06-15T06:35:30Z</time>
      </trkpt>
      <trkpt lat="48.063194425776601" lon="11.541683692485094">
        <ele>529.82373046875</ele>
        <time>2013-06-15T06:35:33Z</time>
      </trkpt>
      <trkpt lat="48.062960570678115" lon="11.541574392467737">
        <ele>529.82373046875</ele>
        <time>2013-06-15T06:35:39Z</time>
      </trkpt>
      <trkpt lat="48.062806930392981" lon="11.541478922590613">
        <ele>529.82373046875</ele>
        <time>2013-06-15T06:35:43Z</time>
      </trkpt>
      <trkpt lat="48.062481041997671" lon="11.541349003091455">
        <ele>529.82373046875</ele>
        <time>2013-06-15T06:35:50Z</time>
      </trkpt>
      <trkpt lat="48.062249785289168" lon="11.54121145606041">
        <ele>529.82373046875</ele>
        <time>2013-06-15T06:35:56Z</time>
      </trkpt>
      <trkpt lat="48.06205683387816" lon="11.541154962033033">
        <ele>529.82373046875</ele>
        <time>2013-06-15T06:36:00Z</time>
      </trkpt>
      <trkpt lat="48.061760701239109" lon="11.540975170210004">
        <ele>530.304443359375</ele>
        <time>2013-06-15T06:36:07Z</time>
      </trkpt>
      <trkpt lat="48.061722982674837" lon="11.540933009237051">
        <ele>529.82373046875</ele>
        <time>2013-06-15T06:36:08Z</time>
      </trkpt>
      <trkpt lat="48.061584429815412" lon="11.540861343964934">
        <ele>529.82373046875</ele>
        <time>2013-06-15T06:36:11Z</time>
      </trkpt>
      <trkpt lat="48.061373708769679" lon="11.540798228234053">
        <ele>530.304443359375</ele>
        <time>2013-06-15T06:36:15Z</time>
      </trkpt>
      <trkpt lat="48.061274383217096" lon="11.540759671479464">
        <ele>530.304443359375</ele>
        <time>2013-06-15T06:36:17Z</time>
      </trkpt>
      <trkpt lat="48.061070451512933" lon="11.540708793327212">
        <ele>529.82373046875</ele>
        <time>2013-06-15T06:36:21Z</time>
      </trkpt>
      <trkpt lat="48.060705503448844" lon="11.540490947663784">
        <ele>530.78515625</ele>
        <time>2013-06-15T06:36:29Z</time>
      </trkpt>
      <trkpt lat="48.060492686927319" lon="11.540333200246096">
        <ele>529.82373046875</ele>
        <time>2013-06-15T06:36:34Z</time>
      </trkpt>
      <trkpt lat="48.06032664142549" lon="11.540131447836757">
        <ele>529.82373046875</ele>
        <time>2013-06-15T06:36:39Z</time>
      </trkpt>
      <trkpt lat="48.060282971709967" lon="11.540095740929246">
        <ele>530.304443359375</ele>
        <time>2013-06-15T06:36:40Z</time>
      </trkpt>
      <trkpt lat="48.059997651726007" lon="11.539938496425748">
        <ele>530.78515625</ele>
        <time>2013-06-15T06:36:47Z</time>
      </trkpt>
      <trkpt lat="48.05995331145823" lon="11.539921397343278">
        <ele>530.304443359375</ele>
        <time>2013-06-15T06:36:48Z</time>
      </trkpt>
      <trkpt lat="48.059687102213502" lon="11.539714531973004">
        <ele>530.78515625</ele>
        <time>2013-06-15T06:36:54Z</time>
      </trkpt>
      <trkpt lat="48.059462467208505" lon="11.539606405422091">
        <ele>531.2657470703125</ele>
        <time>2013-06-15T06:36:59Z</time>
      </trkpt>
      <trkpt lat="48.059181505814195" lon="11.539467684924603">
        <ele>531.2657470703125</ele>
        <time>2013-06-15T06:37:05Z</time>
      </trkpt>
      <trkpt lat="48.059098860248923" lon="11.539598610252142">
        <ele>531.2657470703125</ele>
        <time>2013-06-15T06:37:10Z</time>
      </trkpt>
      <trkpt lat="48.059100201353431" lon="11.539762476459146">
        <ele>532.22705078125</ele>
        <time>2013-06-15T06:37:15Z</time>
      </trkpt>
      <trkpt lat="48.059089723974466" lon="11.539749233052135">
        <ele>532.707763671875</ele>
        <time>2013-06-15T06:37:16Z</time>
      </trkpt>
      <trkpt lat="48.058988051488996" lon="11.53962736018002">
        <ele>532.707763671875</ele>
        <time>2013-06-15T06:37:21Z</time>
      </trkpt>
      <trkpt lat="48.058830639347434" lon="11.539430217817426">
        <ele>534.149658203125</ele>
        <time>2013-06-15T06:37:27Z</time>
      </trkpt>
      <trkpt lat="48.058716310188174" lon="11.53925746679306">
        <ele>534.149658203125</ele>
        <time>2013-06-15T06:37:32Z</time>
      </trkpt>
      <trkpt lat="48.05860910564661" lon="11.539148921146989">
        <ele>533.6689453125</ele>
        <time>2013-06-15T06:37:36Z</time>
      </trkpt>
      <trkpt lat="48.058449011296034" lon="11.53904783539474">
        <ele>532.707763671875</ele>
        <time>2013-06-15T06:37:42Z</time>
      </trkpt>
      <trkpt lat="48.058351948857307" lon="11.539011960849166">
        <ele>533.6689453125</ele>
        <time>2013-06-15T06:37:47Z</time>
      </trkpt>
      <trkpt lat="48.058276092633605" lon="11.538980193436146">
        <ele>533.6689453125</ele>
        <time>2013-06-15T06:37:53Z</time>
      </trkpt>
      <trkpt lat="48.058243403211236" lon="11.538971140980721">
        <ele>534.149658203125</ele>
        <time>2013-06-15T06:38:01Z</time>
      </trkpt>
      <trkpt lat="48.058251114562154" lon="11.538907689973712">
        <ele>533.1883544921875</ele>
        <time>2013-06-15T06:38:09Z</time>
      </trkpt>
      <trkpt lat="48.058225549757481" lon="11.538918754085898">
        <ele>534.63037109375</ele>
        <time>2013-06-15T06:39:35Z</time>
      </trkpt>
      <trkpt lat="48.058092864230275" lon="11.538820769637823">
        <ele>535.591552734375</ele>
        <time>2013-06-15T06:39:42Z</time>
      </trkpt>
      <trkpt lat="48.058005440980196" lon="11.538737621158361">
        <ele>535.1109619140625</ele>
        <time>2013-06-15T06:39:46Z</time>
      </trkpt>
      <trkpt lat="48.05797727778554" lon="11.538706189021468">
        <ele>535.591552734375</ele>
        <time>2013-06-15T06:39:47Z</time>
      </trkpt>
      <trkpt lat="48.057804023846984" lon="11.538492701947689">
        <ele>536.0723876953125</ele>
        <time>2013-06-15T06:39:54Z</time>
      </trkpt>
      <trkpt lat="48.057696651667356" lon="11.538323136046529">
        <ele>537.9949951171875</ele>
        <time>2013-06-15T06:40:00Z</time>
      </trkpt>
      <trkpt lat="48.057538736611605" lon="11.538145523518324">
        <ele>539.9176025390625</ele>
        <time>2013-06-15T06:40:06Z</time>
      </trkpt>
      <trkpt lat="48.057413175702095" lon="11.53797335922718">
        <ele>539.4368896484375</ele>
        <time>2013-06-15T06:40:12Z</time>
      </trkpt>
      <trkpt lat="48.05736648850143" lon="11.537919715046883">
        <ele>539.4368896484375</ele>
        <time>2013-06-15T06:40:14Z</time>
      </trkpt>
      <trkpt lat="48.057363135740161" lon="11.537815276533365">
        <ele>538.4757080078125</ele>
        <time>2013-06-15T06:40:18Z</time>
      </trkpt>
      <trkpt lat="48.057338325306773" lon="11.537606902420521">
        <ele>538.4757080078125</ele>
        <time>2013-06-15T06:40:22Z</time>
      </trkpt>
      <trkpt lat="48.057298511266708" lon="11.537482012063265">
        <ele>539.4368896484375</ele>
        <time>2013-06-15T06:40:25Z</time>
      </trkpt>
      <trkpt lat="48.057247716933489" lon="11.537398528307676">
        <ele>540.3983154296875</ele>
        <time>2013-06-15T06:40:29Z</time>
      </trkpt>
      <trkpt lat="48.057162724435329" lon="11.537267016246915">
        <ele>541.3594970703125</ele>
        <time>2013-06-15T06:40:32Z</time>
      </trkpt>
      <trkpt lat="48.057066751644015" lon="11.537093510851264">
        <ele>541.3594970703125</ele>
        <time>2013-06-15T06:40:37Z</time>
      </trkpt>
      <trkpt lat="48.05694529786706" lon="11.536727976053953">
        <ele>540.87890625</ele>
        <time>2013-06-15T06:40:44Z</time>
      </trkpt>
      <trkpt lat="48.056926857680082" lon="11.536628985777497">
        <ele>540.3983154296875</ele>
        <time>2013-06-15T06:40:46Z</time>
      </trkpt>
      <trkpt lat="48.05684806779027" lon="11.536167981103063">
        <ele>540.87890625</ele>
        <time>2013-06-15T06:40:54Z</time>
      </trkpt>
      <trkpt lat="48.056835494935513" lon="11.536066392436624">
        <ele>541.3594970703125</ele>
        <time>2013-06-15T06:40:56Z</time>
      </trkpt>
      <trkpt lat="48.056838847696781" lon="11.53598022647202">
        <ele>541.8402099609375</ele>
        <time>2013-06-15T06:41:01Z</time>
      </trkpt>
      <trkpt lat="48.056819904595613" lon="11.535986429080367">
        <ele>541.8402099609375</ele>
        <time>2013-06-15T06:41:04Z</time>
      </trkpt>
      <trkpt lat="48.056763326749206" lon="11.535905292257667">
        <ele>542.801513671875</ele>
        <time>2013-06-15T06:41:09Z</time>
      </trkpt>
      <trkpt lat="48.056751005351543" lon="11.535884756594896">
        <ele>542.801513671875</ele>
        <time>2013-06-15T06:41:10Z</time>
      </trkpt>
      <trkpt lat="48.056688727810979" lon="11.535706724971533">
        <ele>544.24365234375</ele>
        <time>2013-06-15T06:41:17Z</time>
      </trkpt>
      <trkpt lat="48.056671293452382" lon="11.535430457442999">
        <ele>544.7242431640625</ele>
        <time>2013-06-15T06:41:24Z</time>
      </trkpt>
      <trkpt lat="48.056661570444703" lon="11.535124182701111">
        <ele>543.7628173828125</ele>
        <time>2013-06-15T06:41:30Z</time>
      </trkpt>
      <trkpt lat="48.056629132479429" lon="11.53488521464169">
        <ele>544.24365234375</ele>
        <time>2013-06-15T06:41:34Z</time>
      </trkpt>
      <trkpt lat="48.056598287075758" lon="11.53459738008678">
        <ele>543.2821044921875</ele>
        <time>2013-06-15T06:41:39Z</time>
      </trkpt>
      <trkpt lat="48.056557383388281" lon="11.534284232184291">
        <ele>545.685546875</ele>
        <time>2013-06-15T06:41:45Z</time>
      </trkpt>
      <trkpt lat="48.056389996781945" lon="11.534039480611682">
        <ele>546.166259765625</ele>
        <time>2013-06-15T06:41:51Z</time>
      </trkpt>
      <trkpt lat="48.056338280439377" lon="11.533673359081149">
        <ele>547.12744140625</ele>
        <time>2013-06-15T06:41:57Z</time>
      </trkpt>
      <trkpt lat="48.056403575465083" lon="11.533387787640095">
        <ele>547.12744140625</ele>
        <time>2013-06-15T06:42:02Z</time>
      </trkpt>
      <trkpt lat="48.056397037580609" lon="11.533064749091864">
        <ele>547.608154296875</ele>
        <time>2013-06-15T06:42:08Z</time>
      </trkpt>
      <trkpt lat="48.05630374699831" lon="11.532711116597056">
        <ele>548.5693359375</ele>
        <time>2013-06-15T06:42:14Z</time>
      </trkpt>
      <trkpt lat="48.05630911141634" lon="11.532402411103249">
        <ele>548.0888671875</ele>
        <time>2013-06-15T06:42:20Z</time>
      </trkpt>
      <trkpt lat="48.056373735889792" lon="11.532045509666204">
        <ele>548.0888671875</ele>
        <time>2013-06-15T06:42:26Z</time>
      </trkpt>
      <trkpt lat="48.056384045630693" lon="11.531941238790751">
        <ele>548.0888671875</ele>
        <time>2013-06-15T06:42:28Z</time>
      </trkpt>
      <trkpt lat="48.056321768090129" lon="11.531506050378084">
        <ele>547.12744140625</ele>
        <time>2013-06-15T06:42:34Z</time>
      </trkpt>
      <trkpt lat="48.0562265496701" lon="11.531233638525009">
        <ele>549.050048828125</ele>
        <time>2013-06-15T06:42:39Z</time>
      </trkpt>
      <trkpt lat="48.05613074451685" lon="11.530973212793469">
        <ele>549.050048828125</ele>
        <time>2013-06-15T06:42:46Z</time>
      </trkpt>
      <trkpt lat="48.056149687618017" lon="11.530775735154748">
        <ele>548.0888671875</ele>
        <time>2013-06-15T06:42:50Z</time>
      </trkpt>
      <trkpt lat="48.056262005120516" lon="11.530474238097668">
        <ele>545.204833984375</ele>
        <time>2013-06-15T06:42:54Z</time>
      </trkpt>
      <trkpt lat="48.056358313187957" lon="11.530111469328403">
        <ele>543.2821044921875</ele>
        <time>2013-06-15T06:42:58Z</time>
      </trkpt>
      <trkpt lat="48.056368203833699" lon="11.529926396906376">
        <ele>542.3209228515625</ele>
        <time>2013-06-15T06:43:00Z</time>
      </trkpt>
      <trkpt lat="48.056327048689127" lon="11.529459524899721">
        <ele>539.4368896484375</ele>
        <time>2013-06-15T06:43:04Z</time>
      </trkpt>
      <trkpt lat="48.056282624602318" lon="11.529088960960507">
        <ele>537.5142822265625</ele>
        <time>2013-06-15T06:43:07Z</time>
      </trkpt>
      <trkpt lat="48.056104509159923" lon="11.528615299612284">
        <ele>535.1109619140625</ele>
        <time>2013-06-15T06:43:11Z</time>
      </trkpt>
      <trkpt lat="48.055792534723878" lon="11.528045330196619">
        <ele>535.1109619140625</ele>
        <time>2013-06-15T06:43:17Z</time>
      </trkpt>
      <trkpt lat="48.055729921907187" lon="11.527892528101802">
        <ele>535.1109619140625</ele>
        <time>2013-06-15T06:43:19Z</time>
      </trkpt>
      <trkpt lat="48.055656999349594" lon="11.527694631367922">
        <ele>535.1109619140625</ele>
        <time>2013-06-15T06:43:22Z</time>
      </trkpt>
      <trkpt lat="48.055516937747598" lon="11.527483239769936">
        <ele>534.63037109375</ele>
        <time>2013-06-15T06:43:26Z</time>
      </trkpt>
      <trkpt lat="48.055278556421399" lon="11.527189705520868">
        <ele>534.63037109375</ele>
        <time>2013-06-15T06:43:32Z</time>
      </trkpt>
      <trkpt lat="48.055124329403043" lon="11.52691813185811">
        <ele>534.63037109375</ele>
        <time>2013-06-15T06:43:36Z</time>
      </trkpt>
      <trkpt lat="48.054961804300547" lon="11.526755522936583">
        <ele>535.1109619140625</ele>
        <time>2013-06-15T06:43:40Z</time>
      </trkpt>
      <trkpt lat="48.054931126534939" lon="11.526715792715549">
        <ele>535.1109619140625</ele>
        <time>2013-06-15T06:43:41Z</time>
      </trkpt>
      <trkpt lat="48.054703725501895" lon="11.526428125798702">
        <ele>537.9949951171875</ele>
        <time>2013-06-15T06:43:48Z</time>
      </trkpt>
      <trkpt lat="48.054632311686873" lon="11.526365764439106">
        <ele>539.4368896484375</ele>
        <time>2013-06-15T06:43:51Z</time>
      </trkpt>
      <trkpt lat="48.054562155157328" lon="11.526248920708895">
        <ele>539.9176025390625</ele>
        <time>2013-06-15T06:43:54Z</time>
      </trkpt>
      <trkpt lat="48.05442301556468" lon="11.526060411706567">
        <ele>539.9176025390625</ele>
        <time>2013-06-15T06:43:58Z</time>
      </trkpt>
      <trkpt lat="48.054333245381713" lon="11.52599218301475">
        <ele>539.9176025390625</ele>
        <time>2013-06-15T06:44:00Z</time>
      </trkpt>
      <trkpt lat="48.054087236523628" lon="11.525845751166344">
        <ele>540.3983154296875</ele>
        <time>2013-06-15T06:44:05Z</time>
      </trkpt>
      <trkpt lat="48.053971482440829" lon="11.525754639878869">
        <ele>539.9176025390625</ele>
        <time>2013-06-15T06:44:08Z</time>
      </trkpt>
      <trkpt lat="48.053767969831824" lon="11.525659924373031">
        <ele>539.9176025390625</ele>
        <time>2013-06-15T06:44:13Z</time>
      </trkpt>
      <trkpt lat="48.053487678989768" lon="11.525704264640808">
        <ele>542.801513671875</ele>
        <time>2013-06-15T06:44:20Z</time>
      </trkpt>
      <trkpt lat="48.053338564932346" lon="11.525679370388389">
        <ele>543.7628173828125</ele>
        <time>2013-06-15T06:44:25Z</time>
      </trkpt>
      <trkpt lat="48.053220631554723" lon="11.525595551356673">
        <ele>543.2821044921875</ele>
        <time>2013-06-15T06:44:28Z</time>
      </trkpt>
      <trkpt lat="48.05297864601016" lon="11.525484574958682">
        <ele>545.685546875</ele>
        <time>2013-06-15T06:44:34Z</time>
      </trkpt>
      <trkpt lat="48.052926510572433" lon="11.525476612150669">
        <ele>545.685546875</ele>
        <time>2013-06-15T06:44:36Z</time>
      </trkpt>
      <trkpt lat="48.05279684253037" lon="11.525427661836147">
        <ele>546.6468505859375</ele>
        <time>2013-06-15T06:44:39Z</time>
      </trkpt>
      <trkpt lat="48.052519569173455" lon="11.525311069563031">
        <ele>546.166259765625</ele>
        <time>2013-06-15T06:44:45Z</time>
      </trkpt>
      <trkpt lat="48.052454693242908" lon="11.525250133126974">
        <ele>546.166259765625</ele>
        <time>2013-06-15T06:44:47Z</time>
      </trkpt>
      <trkpt lat="48.052193513140082" lon="11.525012841448188">
        <ele>544.24365234375</ele>
        <time>2013-06-15T06:44:52Z</time>
      </trkpt>
      <trkpt lat="48.051931913942099" lon="11.524544628337026">
        <ele>539.9176025390625</ele>
        <time>2013-06-15T06:44:56Z</time>
      </trkpt>
      <trkpt lat="48.051775339990854" lon="11.524347821250558">
        <ele>537.9949951171875</ele>
        <time>2013-06-15T06:44:59Z</time>
      </trkpt>
      <trkpt lat="48.051570151001215" lon="11.52426777407527">
        <ele>539.9176025390625</ele>
        <time>2013-06-15T06:45:04Z</time>
      </trkpt>
      <trkpt lat="48.051364962011576" lon="11.524300714954734">
        <ele>540.3983154296875</ele>
        <time>2013-06-15T06:45:09Z</time>
      </trkpt>
      <trkpt lat="48.05116580799222" lon="11.524178590625525">
        <ele>540.3983154296875</ele>
        <time>2013-06-15T06:45:14Z</time>
      </trkpt>
      <trkpt lat="48.051005294546485" lon="11.523997122421861">
        <ele>540.87890625</ele>
        <time>2013-06-15T06:45:17Z</time>
      </trkpt>
      <trkpt lat="48.050780743360519" lon="11.523796711117029">
        <ele>540.87890625</ele>
        <time>2013-06-15T06:45:22Z</time>
      </trkpt>
      <trkpt lat="48.050560969859362" lon="11.52360325679183">
        <ele>537.9949951171875</ele>
        <time>2013-06-15T06:45:26Z</time>
      </trkpt>
      <trkpt lat="48.050498943775892" lon="11.523560509085655">
        <ele>538.4757080078125</ele>
        <time>2013-06-15T06:45:27Z</time>
      </trkpt>
      <trkpt lat="48.050106503069401" lon="11.523374933749437">
        <ele>540.3983154296875</ele>
        <time>2013-06-15T06:45:33Z</time>
      </trkpt>
      <trkpt lat="48.049874659627676" lon="11.523223975673318">
        <ele>541.8402099609375</ele>
        <time>2013-06-15T06:45:38Z</time>
      </trkpt>
      <trkpt lat="48.049708781763911" lon="11.523021049797535">
        <ele>539.4368896484375</ele>
        <time>2013-06-15T06:45:42Z</time>
      </trkpt>
      <trkpt lat="48.049518428742886" lon="11.522960532456636">
        <ele>539.4368896484375</ele>
        <time>2013-06-15T06:45:45Z</time>
      </trkpt>
      <trkpt lat="48.049368392676115" lon="11.522947708144784">
        <ele>541.3594970703125</ele>
        <time>2013-06-15T06:45:47Z</time>
      </trkpt>
      <trkpt lat="48.049214752390981" lon="11.522892052307725">
        <ele>540.3983154296875</ele>
        <time>2013-06-15T06:45:50Z</time>
      </trkpt>
      <trkpt lat="48.048956757411361" lon="11.522779818624258">
        <ele>539.9176025390625</ele>
        <time>2013-06-15T06:45:54Z</time>
      </trkpt>
      <trkpt lat="48.048681998625398" lon="11.522693485021591">
        <ele>542.801513671875</ele>
        <time>2013-06-15T06:45:59Z</time>
      </trkpt>
      <trkpt lat="48.048644363880157" lon="11.522696418687701">
        <ele>542.801513671875</ele>
        <time>2013-06-15T06:46:00Z</time>
      </trkpt>
      <trkpt lat="48.048527017235756" lon="11.522732125595212">
        <ele>542.801513671875</ele>
        <time>2013-06-15T06:46:03Z</time>
      </trkpt>
      <trkpt lat="48.048317888751626" lon="11.522666327655315">
        <ele>545.204833984375</ele>
        <time>2013-06-15T06:46:08Z</time>
      </trkpt>
      <trkpt lat="48.048120997846127" lon="11.522545795887709">
        <ele>546.6468505859375</ele>
        <time>2013-06-15T06:46:12Z</time>
      </trkpt>
      <trkpt lat="48.047813884913921" lon="11.522497180849314">
        <ele>547.608154296875</ele>
        <time>2013-06-15T06:46:19Z</time>
      </trkpt>
      <trkpt lat="48.047774322330952" lon="11.522492319345474">
        <ele>548.0888671875</ele>
        <time>2013-06-15T06:46:20Z</time>
      </trkpt>
      <trkpt lat="48.04746394045651" lon="11.522423168644309">
        <ele>549.050048828125</ele>
        <time>2013-06-15T06:46:26Z</time>
      </trkpt>
      <trkpt lat="48.04740727879107" lon="11.522437082603574">
        <ele>550.4921875</ele>
        <time>2013-06-15T06:46:27Z</time>
      </trkpt>
      <trkpt lat="48.047245256602764" lon="11.522466083988547">
        <ele>552.41455078125</ele>
        <time>2013-06-15T06:46:31Z</time>
      </trkpt>
      <trkpt lat="48.047000505030155" lon="11.522420570254326">
        <ele>551.93408203125</ele>
        <time>2013-06-15T06:46:37Z</time>
      </trkpt>
      <trkpt lat="48.046897910535336" lon="11.522366590797901">
        <ele>550.97265625</ele>
        <time>2013-06-15T06:46:39Z</time>
      </trkpt>
      <trkpt lat="48.046635389328003" lon="11.522185290232301">
        <ele>549.050048828125</ele>
        <time>2013-06-15T06:46:44Z</time>
      </trkpt>
      <trkpt lat="48.04652726277709" lon="11.522043887525797">
        <ele>549.53076171875</ele>
        <time>2013-06-15T06:46:46Z</time>
      </trkpt>
      <trkpt lat="48.046385860070586" lon="11.521737864241004">
        <ele>551.453369140625</ele>
        <time>2013-06-15T06:46:50Z</time>
      </trkpt>
      <trkpt lat="48.046345710754395" lon="11.521446006372571">
        <ele>548.5693359375</ele>
        <time>2013-06-15T06:46:53Z</time>
      </trkpt>
      <trkpt lat="48.046247055754066" lon="11.521159261465073">
        <ele>549.53076171875</ele>
        <time>2013-06-15T06:46:56Z</time>
      </trkpt>
      <trkpt lat="48.045973889529705" lon="11.520986761897802">
        <ele>552.41455078125</ele>
        <time>2013-06-15T06:47:01Z</time>
      </trkpt>
      <trkpt lat="48.045931560918689" lon="11.520966645330191">
        <ele>552.41455078125</ele>
        <time>2013-06-15T06:47:02Z</time>
      </trkpt>
      <trkpt lat="48.04574984125793" lon="11.520822811871767">
        <ele>551.93408203125</ele>
        <time>2013-06-15T06:47:06Z</time>
      </trkpt>
      <trkpt lat="48.045366453006864" lon="11.520619466900826">
        <ele>553.3759765625</ele>
        <time>2013-06-15T06:47:12Z</time>
      </trkpt>
      <trkpt lat="48.045225972309709" lon="11.520543359220028">
        <ele>555.298583984375</ele>
        <time>2013-06-15T06:47:15Z</time>
      </trkpt>
      <trkpt lat="48.045002846047282" lon="11.520309085026383">
        <ele>556.74072265625</ele>
        <time>2013-06-15T06:47:21Z</time>
      </trkpt>
      <trkpt lat="48.044694308191538" lon="11.520096939057112">
        <ele>558.663330078125</ele>
        <time>2013-06-15T06:47:27Z</time>
      </trkpt>
      <trkpt lat="48.044540081173182" lon="11.519953357055783">
        <ele>559.14404296875</ele>
        <time>2013-06-15T06:47:34Z</time>
      </trkpt>
      <trkpt lat="48.044494735077024" lon="11.519903400912881">
        <ele>559.624755859375</ele>
        <time>2013-06-15T06:51:54Z</time>
      </trkpt>
      <trkpt lat="48.044472187757492" lon="11.519858138635755">
        <ele>559.14404296875</ele>
        <time>2013-06-15T06:51:55Z</time>
      </trkpt>
      <trkpt lat="48.044344866648316" lon="11.519547086209059">
        <ele>557.7021484375</ele>
        <time>2013-06-15T06:51:58Z</time>
      </trkpt>
      <trkpt lat="48.044298095628619" lon="11.519378609955311">
        <ele>557.7021484375</ele>
        <time>2013-06-15T06:52:00Z</time>
      </trkpt>
      <trkpt lat="48.044070694595575" lon="11.519058085978031">
        <ele>557.7021484375</ele>
        <time>2013-06-15T06:52:06Z</time>
      </trkpt>
      <trkpt lat="48.043982852250338" lon="11.518986001610756">
        <ele>558.182861328125</ele>
        <time>2013-06-15T06:52:09Z</time>
      </trkpt>
      <trkpt lat="48.043804988265038" lon="11.518702693283558">
        <ele>558.663330078125</ele>
        <time>2013-06-15T06:52:15Z</time>
      </trkpt>
      <trkpt lat="48.043481195345521" lon="11.518263313919306">
        <ele>559.14404296875</ele>
        <time>2013-06-15T06:52:25Z</time>
      </trkpt>
      <trkpt lat="48.043357813730836" lon="11.518004145473242">
        <ele>559.14404296875</ele>
        <time>2013-06-15T06:52:31Z</time>
      </trkpt>
      <trkpt lat="48.043273910880089" lon="11.517857210710645">
        <ele>558.663330078125</ele>
        <time>2013-06-15T06:52:36Z</time>
      </trkpt>
      <trkpt lat="48.043281454592943" lon="11.51775386184454">
        <ele>558.182861328125</ele>
        <time>2013-06-15T06:52:38Z</time>
      </trkpt>
      <trkpt lat="48.04322998970747" lon="11.517055230215192">
        <ele>556.74072265625</ele>
        <time>2013-06-15T06:52:48Z</time>
      </trkpt>
      <trkpt lat="48.04308095946908" lon="11.515987711027265">
        <ele>555.779296875</ele>
        <time>2013-06-15T06:53:02Z</time>
      </trkpt>
      <trkpt lat="48.042899072170258" lon="11.514751715585589">
        <ele>556.74072265625</ele>
        <time>2013-06-15T06:53:18Z</time>
      </trkpt>
      <trkpt lat="48.042871579527855" lon="11.514545353129506">
        <ele>557.221435546875</ele>
        <time>2013-06-15T06:53:21Z</time>
      </trkpt>
      <trkpt lat="48.042753143236041" lon="11.514362124726176">
        <ele>557.221435546875</ele>
        <time>2013-06-15T06:53:26Z</time>
      </trkpt>
      <trkpt lat="48.042521551251411" lon="11.51433689519763">
        <ele>556.74072265625</ele>
        <time>2013-06-15T06:53:32Z</time>
      </trkpt>
      <trkpt lat="48.042307142168283" lon="11.514257770031691">
        <ele>555.298583984375</ele>
        <time>2013-06-15T06:53:37Z</time>
      </trkpt>
      <trkpt lat="48.042159704491496" lon="11.514213429763913">
        <ele>553.856689453125</ele>
        <time>2013-06-15T06:53:40Z</time>
      </trkpt>
      <trkpt lat="48.042020229622722" lon="11.514179734513164">
        <ele>553.3759765625</ele>
        <time>2013-06-15T06:53:43Z</time>
      </trkpt>
      <trkpt lat="48.041801126673818" lon="11.514155846089125">
        <ele>553.3759765625</ele>
        <time>2013-06-15T06:53:47Z</time>
      </trkpt>
      <trkpt lat="48.041590824723244" lon="11.514138747006655">
        <ele>551.93408203125</ele>
        <time>2013-06-15T06:53:51Z</time>
      </trkpt>
      <trkpt lat="48.041348839178681" lon="11.514038583263755">
        <ele>550.97265625</ele>
        <time>2013-06-15T06:53:55Z</time>
      </trkpt>
      <trkpt lat="48.041023705154657" lon="11.514004049822688">
        <ele>549.050048828125</ele>
        <time>2013-06-15T06:54:00Z</time>
      </trkpt>
      <trkpt lat="48.040877021849155" lon="11.513961972668767">
        <ele>547.608154296875</ele>
        <time>2013-06-15T06:54:02Z</time>
      </trkpt>
      <trkpt lat="48.040518527850509" lon="11.513907993212342">
        <ele>545.685546875</ele>
        <time>2013-06-15T06:54:06Z</time>
      </trkpt>
      <trkpt lat="48.040235051885247" lon="11.513707162812352">
        <ele>544.7242431640625</ele>
        <time>2013-06-15T06:54:09Z</time>
      </trkpt>
      <trkpt lat="48.03990195505321" lon="11.513311369344592">
        <ele>544.24365234375</ele>
        <time>2013-06-15T06:54:14Z</time>
      </trkpt>
      <trkpt lat="48.039477663114667" lon="11.512459851801395">
        <ele>543.7628173828125</ele>
        <time>2013-06-15T06:54:24Z</time>
      </trkpt>
      <trkpt lat="48.039016742259264" lon="11.511610765010118">
        <ele>544.24365234375</ele>
        <time>2013-06-15T06:54:36Z</time>
      </trkpt>
      <trkpt lat="48.038724046200514" lon="11.511092511937022">
        <ele>543.7628173828125</ele>
        <time>2013-06-15T06:54:44Z</time>
      </trkpt>
      <trkpt lat="48.038379549980164" lon="11.510431515052915">
        <ele>544.7242431640625</ele>
        <time>2013-06-15T06:54:54Z</time>
      </trkpt>
      <trkpt lat="48.037986857816577" lon="11.509680161252618">
        <ele>543.7628173828125</ele>
        <time>2013-06-15T06:55:06Z</time>
      </trkpt>
      <trkpt lat="48.037549071013927" lon="11.50884909555316">
        <ele>544.24365234375</ele>
        <time>2013-06-15T06:55:19Z</time>
      </trkpt>
      <trkpt lat="48.037158055230975" lon="11.508167730644345">
        <ele>543.2821044921875</ele>
        <time>2013-06-15T06:55:30Z</time>
      </trkpt>
      <trkpt lat="48.036948507651687" lon="11.507924068719149">
        <ele>543.2821044921875</ele>
        <time>2013-06-15T06:55:35Z</time>
      </trkpt>
      <trkpt lat="48.036484653130174" lon="11.50749558582902">
        <ele>543.2821044921875</ele>
        <time>2013-06-15T06:55:45Z</time>
      </trkpt>
      <trkpt lat="48.036103108897805" lon="11.507283439859748">
        <ele>545.204833984375</ele>
        <time>2013-06-15T06:55:53Z</time>
      </trkpt>
      <trkpt lat="48.03595089353621" lon="11.507179336622357">
        <ele>544.24365234375</ele>
        <time>2013-06-15T06:55:57Z</time>
      </trkpt>
      <trkpt lat="48.035868918523192" lon="11.507059391587973">
        <ele>544.7242431640625</ele>
        <time>2013-06-15T06:56:01Z</time>
      </trkpt>
      <trkpt lat="48.035771353170276" lon="11.507009938359261">
        <ele>544.7242431640625</ele>
        <time>2013-06-15T06:56:06Z</time>
      </trkpt>
      <trkpt lat="48.035519141703844" lon="11.5067885722965">
        <ele>546.6468505859375</ele>
        <time>2013-06-15T06:56:14Z</time>
      </trkpt>
      <trkpt lat="48.035353934392333" lon="11.506693102419376">
        <ele>548.0888671875</ele>
        <time>2013-06-15T06:56:20Z</time>
      </trkpt>
      <trkpt lat="48.035197695717216" lon="11.506548766046762">
        <ele>550.4921875</ele>
        <time>2013-06-15T06:56:27Z</time>
      </trkpt>
      <trkpt lat="48.035065345466137" lon="11.506444243714213">
        <ele>551.453369140625</ele>
        <time>2013-06-15T06:56:32Z</time>
      </trkpt>
      <trkpt lat="48.034971803426743" lon="11.506365872919559">
        <ele>552.41455078125</ele>
        <time>2013-06-15T06:56:36Z</time>
      </trkpt>
      <trkpt lat="48.03486124612391" lon="11.506139058619738">
        <ele>553.3759765625</ele>
        <time>2013-06-15T06:56:44Z</time>
      </trkpt>
      <trkpt lat="48.034764351323247" lon="11.505917860195041">
        <ele>554.33740234375</ele>
        <time>2013-06-15T06:56:51Z</time>
      </trkpt>
      <trkpt lat="48.034662678837776" lon="11.505769165232778">
        <ele>555.779296875</ele>
        <time>2013-06-15T06:56:58Z</time>
      </trkpt>
      <trkpt lat="48.034494454041123" lon="11.50554595515132">
        <ele>558.182861328125</ele>
        <time>2013-06-15T06:57:09Z</time>
      </trkpt>
      <trkpt lat="48.034454640001059" lon="11.50548585690558">
        <ele>560.105224609375</ele>
        <time>2013-06-15T06:57:12Z</time>
      </trkpt>
      <trkpt lat="48.034327151253819" lon="11.505266083404422">
        <ele>562.508544921875</ele>
        <time>2013-06-15T06:57:22Z</time>
      </trkpt>
      <trkpt lat="48.034182144328952" lon="11.505020996555686">
        <ele>562.508544921875</ele>
        <time>2013-06-15T06:57:34Z</time>
      </trkpt>
      <trkpt lat="48.03407653234899" lon="11.504908427596092">
        <ele>562.508544921875</ele>
        <time>2013-06-15T06:57:40Z</time>
      </trkpt>
      <trkpt lat="48.033973602578044" lon="11.504815639927983">
        <ele>563.469970703125</ele>
        <time>2013-06-15T06:57:46Z</time>
      </trkpt>
      <trkpt lat="48.033834714442492" lon="11.504665436223149">
        <ele>563.469970703125</ele>
        <time>2013-06-15T06:57:53Z</time>
      </trkpt>
      <trkpt lat="48.033709237352014" lon="11.504549095407128">
        <ele>564.43115234375</ele>
        <time>2013-06-15T06:57:59Z</time>
      </trkpt>
      <trkpt lat="48.033586693927646" lon="11.504319347441196">
        <ele>565.873291015625</ele>
        <time>2013-06-15T06:58:04Z</time>
      </trkpt>
      <trkpt lat="48.03347940556705" lon="11.504160761833191">
        <ele>566.83447265625</ele>
        <time>2013-06-15T06:58:10Z</time>
      </trkpt>
      <trkpt lat="48.033376140519977" lon="11.503985412418842">
        <ele>567.315185546875</ele>
        <time>2013-06-15T06:58:14Z</time>
      </trkpt>
      <trkpt lat="48.033145638182759" lon="11.503853062167764">
        <ele>566.83447265625</ele>
        <time>2013-06-15T06:58:20Z</time>
      </trkpt>
      <trkpt lat="48.033024519681931" lon="11.503789611160755">
        <ele>567.315185546875</ele>
        <time>2013-06-15T06:58:23Z</time>
      </trkpt>
      <trkpt lat="48.032800136134028" lon="11.503662290051579">
        <ele>567.795654296875</ele>
        <time>2013-06-15T06:58:29Z</time>
      </trkpt>
      <trkpt lat="48.032556474208832" lon="11.503462297841907">
        <ele>569.23779296875</ele>
        <time>2013-06-15T06:58:36Z</time>
      </trkpt>
      <trkpt lat="48.032400570809841" lon="11.503317123278975">
        <ele>568.2763671875</ele>
        <time>2013-06-15T06:58:41Z</time>
      </trkpt>
      <trkpt lat="48.032249193638563" lon="11.503149569034576">
        <ele>568.2763671875</ele>
        <time>2013-06-15T06:58:45Z</time>
      </trkpt>
      <trkpt lat="48.031947948038578" lon="11.50300607085228">
        <ele>566.83447265625</ele>
        <time>2013-06-15T06:58:51Z</time>
      </trkpt>
      <trkpt lat="48.031679978594184" lon="11.502988804131746">
        <ele>567.315185546875</ele>
        <time>2013-06-15T06:58:56Z</time>
      </trkpt>
      <trkpt lat="48.031517453491688" lon="11.502984613180161">
        <ele>566.83447265625</ele>
        <time>2013-06-15T06:58:59Z</time>
      </trkpt>
      <trkpt lat="48.031176226213574" lon="11.502827703952789">
        <ele>566.353759765625</ele>
        <time>2013-06-15T06:59:05Z</time>
      </trkpt>
      <trkpt lat="48.031122330576181" lon="11.502785291522741">
        <ele>565.873291015625</ele>
        <time>2013-06-15T06:59:06Z</time>
      </trkpt>
      <trkpt lat="48.031024178490043" lon="11.502693090587854">
        <ele>565.392578125</ele>
        <time>2013-06-15T06:59:08Z</time>
      </trkpt>
      <trkpt lat="48.030665265396237" lon="11.502387067303061">
        <ele>564.43115234375</ele>
        <time>2013-06-15T06:59:15Z</time>
      </trkpt>
      <trkpt lat="48.030550014227629" lon="11.502301152795553">
        <ele>564.911865234375</ele>
        <time>2013-06-15T06:59:17Z</time>
      </trkpt>
      <trkpt lat="48.030138378962874" lon="11.502186488360167">
        <ele>566.353759765625</ele>
        <time>2013-06-15T06:59:24Z</time>
      </trkpt>
      <trkpt lat="48.029998065903783" lon="11.502157151699066">
        <ele>565.873291015625</ele>
        <time>2013-06-15T06:59:27Z</time>
      </trkpt>
      <trkpt lat="48.029549214988947" lon="11.501867305487394">
        <ele>563.950439453125</ele>
        <time>2013-06-15T06:59:36Z</time>
      </trkpt>
      <trkpt lat="48.029373362660408" lon="11.50179136544466">
        <ele>562.9892578125</ele>
        <time>2013-06-15T06:59:39Z</time>
      </trkpt>
      <trkpt lat="48.029096173122525" lon="11.501838890835643">
        <ele>558.663330078125</ele>
        <time>2013-06-15T06:59:43Z</time>
      </trkpt>
      <trkpt lat="48.028620583936572" lon="11.502064447849989">
        <ele>554.33740234375</ele>
        <time>2013-06-15T06:59:48Z</time>
      </trkpt>
      <trkpt lat="48.028541710227728" lon="11.502087917178869">
        <ele>553.856689453125</ele>
        <time>2013-06-15T06:59:49Z</time>
      </trkpt>
      <trkpt lat="48.028236692771316" lon="11.502111135050654">
        <ele>551.453369140625</ele>
        <time>2013-06-15T06:59:53Z</time>
      </trkpt>
      <trkpt lat="48.027788512408733" lon="11.501825479790568">
        <ele>549.050048828125</ele>
        <time>2013-06-15T07:00:01Z</time>
      </trkpt>
      <trkpt lat="48.02767745219171" lon="11.501733530312777">
        <ele>549.53076171875</ele>
        <time>2013-06-15T07:00:03Z</time>
      </trkpt>
      <trkpt lat="48.027518447488546" lon="11.501488024368882">
        <ele>549.050048828125</ele>
        <time>2013-06-15T07:00:07Z</time>
      </trkpt>
      <trkpt lat="48.027304206043482" lon="11.500932220369577">
        <ele>549.53076171875</ele>
        <time>2013-06-15T07:00:15Z</time>
      </trkpt>
      <trkpt lat="48.027226170524955" lon="11.500477753579617">
        <ele>547.608154296875</ele>
        <time>2013-06-15T07:00:22Z</time>
      </trkpt>
      <trkpt lat="48.027143608778715" lon="11.500364346429706">
        <ele>548.5693359375</ele>
        <time>2013-06-15T07:00:28Z</time>
      </trkpt>
      <trkpt lat="48.027078229933977" lon="11.500136107206345">
        <ele>548.5693359375</ele>
        <time>2013-06-15T07:00:35Z</time>
      </trkpt>
      <trkpt lat="48.02703489549458" lon="11.499546691775322">
        <ele>548.0888671875</ele>
        <time>2013-06-15T07:00:46Z</time>
      </trkpt>
      <trkpt lat="48.027043361216784" lon="11.499037658795714">
        <ele>548.0888671875</ele>
        <time>2013-06-15T07:00:54Z</time>
      </trkpt>
      <trkpt lat="48.027039421722293" lon="11.498751752078533">
        <ele>548.5693359375</ele>
        <time>2013-06-15T07:00:58Z</time>
      </trkpt>
      <trkpt lat="48.026978150010109" lon="11.498459139838815">
        <ele>547.608154296875</ele>
        <time>2013-06-15T07:01:02Z</time>
      </trkpt>
      <trkpt lat="48.026791652664542" lon="11.498181279748678">
        <ele>546.166259765625</ele>
        <time>2013-06-15T07:01:08Z</time>
      </trkpt>
      <trkpt lat="48.026789808645844" lon="11.498080277815461">
        <ele>546.166259765625</ele>
        <time>2013-06-15T07:01:10Z</time>
      </trkpt>
      <trkpt lat="48.026785533875227" lon="11.497885901480913">
        <ele>546.6468505859375</ele>
        <time>2013-06-15T07:01:13Z</time>
      </trkpt>
      <trkpt lat="48.026729458943009" lon="11.497523719444871">
        <ele>546.166259765625</ele>
        <time>2013-06-15T07:01:19Z</time>
      </trkpt>
      <trkpt lat="48.026724932715297" lon="11.497473428025842">
        <ele>546.166259765625</ele>
        <time>2013-06-15T07:01:20Z</time>
      </trkpt>
      <trkpt lat="48.026602473109961" lon="11.497011668980122">
        <ele>546.6468505859375</ele>
        <time>2013-06-15T07:01:27Z</time>
      </trkpt>
      <trkpt lat="48.026533825322986" lon="11.496799439191818">
        <ele>547.12744140625</ele>
        <time>2013-06-15T07:01:30Z</time>
      </trkpt>
      <trkpt lat="48.026311621069908" lon="11.496400209143758">
        <ele>547.12744140625</ele>
        <time>2013-06-15T07:01:37Z</time>
      </trkpt>
      <trkpt lat="48.0261514429003" lon="11.49619996547699">
        <ele>546.6468505859375</ele>
        <time>2013-06-15T07:01:42Z</time>
      </trkpt>
      <trkpt lat="48.026081118732691" lon="11.496115727350116">
        <ele>546.6468505859375</ele>
        <time>2013-06-15T07:01:44Z</time>
      </trkpt>
      <trkpt lat="48.025777023285627" lon="11.495857061818242">
        <ele>546.166259765625</ele>
        <time>2013-06-15T07:01:51Z</time>
      </trkpt>
      <trkpt lat="48.025733688846231" lon="11.495820851996541">
        <ele>546.6468505859375</ele>
        <time>2013-06-15T07:01:52Z</time>
      </trkpt>
      <trkpt lat="48.025562446564436" lon="11.495742397382855">
        <ele>546.166259765625</ele>
        <time>2013-06-15T07:01:56Z</time>
      </trkpt>
      <trkpt lat="48.025378715246916" lon="11.495652291923761">
        <ele>546.6468505859375</ele>
        <time>2013-06-15T07:02:00Z</time>
      </trkpt>
      <trkpt lat="48.025235468521714" lon="11.495587164536119">
        <ele>546.166259765625</ele>
        <time>2013-06-15T07:02:03Z</time>
      </trkpt>
      <trkpt lat="48.024983005598187" lon="11.495503261685371">
        <ele>546.6468505859375</ele>
        <time>2013-06-15T07:02:08Z</time>
      </trkpt>
      <trkpt lat="48.024779744446278" lon="11.495450371876359">
        <ele>546.6468505859375</ele>
        <time>2013-06-15T07:02:12Z</time>
      </trkpt>
      <trkpt lat="48.024481097236276" lon="11.495463531464338">
        <ele>546.6468505859375</ele>
        <time>2013-06-15T07:02:18Z</time>
      </trkpt>
      <trkpt lat="48.0244349129498" lon="11.49546361528337">
        <ele>546.6468505859375</ele>
        <time>2013-06-15T07:02:19Z</time>
      </trkpt>
      <trkpt lat="48.024067115038633" lon="11.495567047968507">
        <ele>546.166259765625</ele>
        <time>2013-06-15T07:02:27Z</time>
      </trkpt>
      <trkpt lat="48.024021098390222" lon="11.49558431468904">
        <ele>546.6468505859375</ele>
        <time>2013-06-15T07:02:28Z</time>
      </trkpt>
      <trkpt lat="48.023829739540815" lon="11.495667546987534">
        <ele>547.12744140625</ele>
        <time>2013-06-15T07:02:32Z</time>
      </trkpt>
      <trkpt lat="48.023684062063694" lon="11.495679616928101">
        <ele>546.166259765625</ele>
        <time>2013-06-15T07:02:35Z</time>
      </trkpt>
      <trkpt lat="48.023463953286409" lon="11.495698727667332">
        <ele>547.608154296875</ele>
        <time>2013-06-15T07:02:40Z</time>
      </trkpt>
      <trkpt lat="48.023388767614961" lon="11.495715994387865">
        <ele>547.608154296875</ele>
        <time>2013-06-15T07:02:42Z</time>
      </trkpt>
      <trkpt lat="48.023305451497436" lon="11.495728483423591">
        <ele>547.608154296875</ele>
        <time>2013-06-15T07:02:44Z</time>
      </trkpt>
      <trkpt lat="48.023023065179586" lon="11.495830239728093">
        <ele>548.0888671875</ele>
        <time>2013-06-15T07:02:51Z</time>
      </trkpt>
      <trkpt lat="48.023014012724161" lon="11.495997291058302">
        <ele>546.166259765625</ele>
        <time>2013-06-15T07:02:57Z</time>
      </trkpt>
      <trkpt lat="48.02307260222733" lon="11.496037943288684">
        <ele>545.685546875</ele>
        <time>2013-06-15T07:03:02Z</time>
      </trkpt>
      <trkpt lat="48.023034716024995" lon="11.496023191139102">
        <ele>546.166259765625</ele>
        <time>2013-06-15T07:03:08Z</time>
      </trkpt>
      <trkpt lat="48.023030608892441" lon="11.496043810620904">
        <ele>546.166259765625</ele>
        <time>2013-06-15T07:03:17Z</time>
      </trkpt>
      <trkpt lat="48.023015605285764" lon="11.496021850034595">
        <ele>546.6468505859375</ele>
        <time>2013-06-15T07:03:24Z</time>
      </trkpt>
      <trkpt lat="48.023012168705463" lon="11.496033417060971">
        <ele>546.166259765625</ele>
        <time>2013-06-15T07:03:32Z</time>
      </trkpt>
      <trkpt lat="48.023015270009637" lon="11.496101478114724">
        <ele>546.6468505859375</ele>
        <time>2013-06-15T07:03:40Z</time>
      </trkpt>
      <trkpt lat="48.022998590022326" lon="11.496085887774825">
        <ele>546.6468505859375</ele>
        <time>2013-06-15T07:04:45Z</time>
      </trkpt>
      <trkpt lat="48.022993644699454" lon="11.496111452579498">
        <ele>546.6468505859375</ele>
        <time>2013-06-15T07:04:59Z</time>
      </trkpt>
      <trkpt lat="48.02299196831882" lon="11.496123690158129">
        <ele>546.166259765625</ele>
        <time>2013-06-15T07:05:47Z</time>
      </trkpt>
      <trkpt lat="48.022989872843027" lon="11.49611983448267">
        <ele>545.685546875</ele>
        <time>2013-06-15T07:07:07Z</time>
      </trkpt>
      <trkpt lat="48.022951735183597" lon="11.496079517528415">
        <ele>546.166259765625</ele>
        <time>2013-06-15T07:07:12Z</time>
      </trkpt>
      <trkpt lat="48.022762387990952" lon="11.496059652417898">
        <ele>546.6468505859375</ele>
        <time>2013-06-15T07:07:19Z</time>
      </trkpt>
      <trkpt lat="48.022636994719505" lon="11.496069878339767">
        <ele>547.608154296875</ele>
        <time>2013-06-15T07:07:24Z</time>
      </trkpt>
      <trkpt lat="48.022455694153905" lon="11.496025118976831">
        <ele>548.5693359375</ele>
        <time>2013-06-15T07:07:31Z</time>
      </trkpt>
      <trkpt lat="48.022220581769943" lon="11.495950687676668">
        <ele>550.4921875</ele>
        <time>2013-06-15T07:07:40Z</time>
      </trkpt>
      <trkpt lat="48.022147407755256" lon="11.495908526703715">
        <ele>551.453369140625</ele>
        <time>2013-06-15T07:07:43Z</time>
      </trkpt>
      <trkpt lat="48.022039951756597" lon="11.495868796482682">
        <ele>552.895263671875</ele>
        <time>2013-06-15T07:07:48Z</time>
      </trkpt>
      <trkpt lat="48.021858399733901" lon="11.495657823979855">
        <ele>553.3759765625</ele>
        <time>2013-06-15T07:07:56Z</time>
      </trkpt>
      <trkpt lat="48.021711800247431" lon="11.495526395738125">
        <ele>554.81787109375</ele>
        <time>2013-06-15T07:08:01Z</time>
      </trkpt>
      <trkpt lat="48.021506778895855" lon="11.495459508150816">
        <ele>554.81787109375</ele>
        <time>2013-06-15T07:08:07Z</time>
      </trkpt>
      <trkpt lat="48.021413655951619" lon="11.495338138192892">
        <ele>551.93408203125</ele>
        <time>2013-06-15T07:08:10Z</time>
      </trkpt>
      <trkpt lat="48.021189272403717" lon="11.49497595615685">
        <ele>550.97265625</ele>
        <time>2013-06-15T07:08:14Z</time>
      </trkpt>
      <trkpt lat="48.020869670435786" lon="11.494835643097758">
        <ele>548.0888671875</ele>
        <time>2013-06-15T07:08:19Z</time>
      </trkpt>
      <trkpt lat="48.020583847537637" lon="11.494625508785248">
        <ele>546.6468505859375</ele>
        <time>2013-06-15T07:08:23Z</time>
      </trkpt>
      <trkpt lat="48.020517379045486" lon="11.494561806321144">
        <ele>546.166259765625</ele>
        <time>2013-06-15T07:08:24Z</time>
      </trkpt>
      <trkpt lat="48.020289223641157" lon="11.494267182424664">
        <ele>547.608154296875</ele>
        <time>2013-06-15T07:08:28Z</time>
      </trkpt>
      <trkpt lat="48.020183779299259" lon="11.494037518277764">
        <ele>546.6468505859375</ele>
        <time>2013-06-15T07:08:31Z</time>
      </trkpt>
      <trkpt lat="48.020000802353024" lon="11.493739960715175">
        <ele>547.12744140625</ele>
        <time>2013-06-15T07:08:37Z</time>
      </trkpt>
      <trkpt lat="48.019992085173726" lon="11.493657398968935">
        <ele>548.0888671875</ele>
        <time>2013-06-15T07:08:39Z</time>
      </trkpt>
      <trkpt lat="48.019973812624812" lon="11.493589673191309">
        <ele>548.5693359375</ele>
        <time>2013-06-15T07:08:41Z</time>
      </trkpt>
      <trkpt lat="48.019791590049863" lon="11.4934675488621">
        <ele>548.5693359375</ele>
        <time>2013-06-15T07:08:48Z</time>
      </trkpt>
      <trkpt lat="48.019766695797443" lon="11.493403511121869">
        <ele>549.050048828125</ele>
        <time>2013-06-15T07:08:50Z</time>
      </trkpt>
      <trkpt lat="48.01964096724987" lon="11.493185833096504">
        <ele>550.4921875</ele>
        <time>2013-06-15T07:08:56Z</time>
      </trkpt>
      <trkpt lat="48.019596040248871" lon="11.49308642372489">
        <ele>550.97265625</ele>
        <time>2013-06-15T07:08:58Z</time>
      </trkpt>
      <trkpt lat="48.019487494602799" lon="11.492892969399691">
        <ele>553.3759765625</ele>
        <time>2013-06-15T07:09:04Z</time>
      </trkpt>
      <trkpt lat="48.019476095214486" lon="11.492864303290844">
        <ele>552.895263671875</ele>
        <time>2013-06-15T07:09:05Z</time>
      </trkpt>
      <trkpt lat="48.019364783540368" lon="11.492570852860808">
        <ele>555.779296875</ele>
        <time>2013-06-15T07:09:13Z</time>
      </trkpt>
      <trkpt lat="48.019317928701639" lon="11.4923847746104">
        <ele>557.7021484375</ele>
        <time>2013-06-15T07:09:19Z</time>
      </trkpt>
      <trkpt lat="48.0192129034549" lon="11.492191571742296">
        <ele>559.14404296875</ele>
        <time>2013-06-15T07:09:25Z</time>
      </trkpt>
      <trkpt lat="48.019041996449232" lon="11.491924691945314">
        <ele>560.105224609375</ele>
        <time>2013-06-15T07:09:33Z</time>
      </trkpt>
      <trkpt lat="48.018941581249237" lon="11.491698883473873">
        <ele>560.5859375</ele>
        <time>2013-06-15T07:09:39Z</time>
      </trkpt>
      <trkpt lat="48.01885130815208" lon="11.491411468014121">
        <ele>561.54736328125</ele>
        <time>2013-06-15T07:09:46Z</time>
      </trkpt>
      <trkpt lat="48.018807470798492" lon="11.491260342299938">
        <ele>562.508544921875</ele>
        <time>2013-06-15T07:09:50Z</time>
      </trkpt>
      <trkpt lat="48.018755167722702" lon="11.491063367575407">
        <ele>563.950439453125</ele>
        <time>2013-06-15T07:09:55Z</time>
      </trkpt>
      <trkpt lat="48.018694231286645" lon="11.490875193849206">
        <ele>563.950439453125</ele>
        <time>2013-06-15T07:10:00Z</time>
      </trkpt>
      <trkpt lat="48.01857965067029" lon="11.490807719528675">
        <ele>562.028076171875</ele>
        <time>2013-06-15T07:10:04Z</time>
      </trkpt>
      <trkpt lat="48.018361805006862" lon="11.490608146414161">
        <ele>558.182861328125</ele>
        <time>2013-06-15T07:10:08Z</time>
      </trkpt>
      <trkpt lat="48.018122082576156" lon="11.490278486162424">
        <ele>553.856689453125</ele>
        <time>2013-06-15T07:10:12Z</time>
      </trkpt>
      <trkpt lat="48.018055697903037" lon="11.490198606625199">
        <ele>553.3759765625</ele>
        <time>2013-06-15T07:10:13Z</time>
      </trkpt>
      <trkpt lat="48.017852436751127" lon="11.490022335201502">
        <ele>550.97265625</ele>
        <time>2013-06-15T07:10:16Z</time>
      </trkpt>
      <trkpt lat="48.017681948840618" lon="11.48997288197279">
        <ele>550.011474609375</ele>
        <time>2013-06-15T07:10:20Z</time>
      </trkpt>
      <trkpt lat="48.017459493130445" lon="11.489868694916368">
        <ele>550.97265625</ele>
        <time>2013-06-15T07:10:25Z</time>
      </trkpt>
      <trkpt lat="48.017390929162502" lon="11.489805411547422">
        <ele>552.895263671875</ele>
        <time>2013-06-15T07:10:27Z</time>
      </trkpt>
      <trkpt lat="48.017261847853661" lon="11.489579603075981">
        <ele>554.81787109375</ele>
        <time>2013-06-15T07:10:33Z</time>
      </trkpt>
      <trkpt lat="48.017177693545818" lon="11.489269221201539">
        <ele>556.260009765625</ele>
        <time>2013-06-15T07:10:40Z</time>
      </trkpt>
      <trkpt lat="48.017185321077704" lon="11.488961521536112">
        <ele>556.74072265625</ele>
        <time>2013-06-15T07:10:46Z</time>
      </trkpt>
      <trkpt lat="48.017206192016602" lon="11.488759601488709">
        <ele>558.182861328125</ele>
        <time>2013-06-15T07:10:52Z</time>
      </trkpt>
      <trkpt lat="48.017155984416604" lon="11.488535804674029">
        <ele>560.105224609375</ele>
        <time>2013-06-15T07:10:58Z</time>
      </trkpt>
      <trkpt lat="48.017119690775871" lon="11.488448213785887">
        <ele>561.066650390625</ele>
        <time>2013-06-15T07:11:01Z</time>
      </trkpt>
      <trkpt lat="48.0170922819525" lon="11.488215029239655">
        <ele>563.469970703125</ele>
        <time>2013-06-15T07:11:07Z</time>
      </trkpt>
      <trkpt lat="48.017057161778212" lon="11.488069100305438">
        <ele>563.469970703125</ele>
        <time>2013-06-15T07:11:12Z</time>
      </trkpt>
      <trkpt lat="48.016923302784562" lon="11.487826779484749">
        <ele>565.392578125</ele>
        <time>2013-06-15T07:11:20Z</time>
      </trkpt>
      <trkpt lat="48.01689874380827" lon="11.487785875797272">
        <ele>566.353759765625</ele>
        <time>2013-06-15T07:11:22Z</time>
      </trkpt>
      <trkpt lat="48.01688214763999" lon="11.487718736752868">
        <ele>566.353759765625</ele>
        <time>2013-06-15T07:11:24Z</time>
      </trkpt>
      <trkpt lat="48.016867814585567" lon="11.48765679448843">
        <ele>566.83447265625</ele>
        <time>2013-06-15T07:11:26Z</time>
      </trkpt>
      <trkpt lat="48.016853649169207" lon="11.487610023468733">
        <ele>567.795654296875</ele>
        <time>2013-06-15T07:11:28Z</time>
      </trkpt>
      <trkpt lat="48.016766561195254" lon="11.487371893599629">
        <ele>569.718505859375</ele>
        <time>2013-06-15T07:11:35Z</time>
      </trkpt>
      <trkpt lat="48.016747031360865" lon="11.487317914143205">
        <ele>569.718505859375</ele>
        <time>2013-06-15T07:11:37Z</time>
      </trkpt>
      <trkpt lat="48.016713168472052" lon="11.487268712371588">
        <ele>570.6796875</ele>
        <time>2013-06-15T07:11:39Z</time>
      </trkpt>
      <trkpt lat="48.016548380255699" lon="11.487059248611331">
        <ele>570.6796875</ele>
        <time>2013-06-15T07:11:47Z</time>
      </trkpt>
      <trkpt lat="48.016430782154202" lon="11.486908877268434">
        <ele>571.160400390625</ele>
        <time>2013-06-15T07:11:53Z</time>
      </trkpt>
      <trkpt lat="48.016381245106459" lon="11.486789435148239">
        <ele>571.160400390625</ele>
        <time>2013-06-15T07:11:57Z</time>
      </trkpt>
      <trkpt lat="48.016256019473076" lon="11.48661257699132">
        <ele>573.083251953125</ele>
        <time>2013-06-15T07:12:04Z</time>
      </trkpt>
      <trkpt lat="48.01619759760797" lon="11.486476873978972">
        <ele>573.56396484375</ele>
        <time>2013-06-15T07:12:09Z</time>
      </trkpt>
      <trkpt lat="48.016051584854722" lon="11.486440245062113">
        <ele>573.083251953125</ele>
        <time>2013-06-15T07:12:16Z</time>
      </trkpt>
      <trkpt lat="48.016052674502134" lon="11.486455164849758">
        <ele>574.525146484375</ele>
        <time>2013-06-15T07:14:02Z</time>
      </trkpt>
      <trkpt lat="48.015923090279102" lon="11.486408729106188">
        <ele>573.083251953125</ele>
        <time>2013-06-15T07:14:08Z</time>
      </trkpt>
      <trkpt lat="48.015866512432694" lon="11.48638584651053">
        <ele>572.6025390625</ele>
        <time>2013-06-15T07:14:10Z</time>
      </trkpt>
      <trkpt lat="48.015696946531534" lon="11.486177053302526">
        <ele>570.6796875</ele>
        <time>2013-06-15T07:14:15Z</time>
      </trkpt>
      <trkpt lat="48.015649002045393" lon="11.486115194857121">
        <ele>570.6796875</ele>
        <time>2013-06-15T07:14:16Z</time>
      </trkpt>
      <trkpt lat="48.015308696776628" lon="11.485813865438104">
        <ele>569.718505859375</ele>
        <time>2013-06-15T07:14:21Z</time>
      </trkpt>
      <trkpt lat="48.015042655169964" lon="11.485766340047121">
        <ele>568.757080078125</ele>
        <time>2013-06-15T07:14:25Z</time>
      </trkpt>
      <trkpt lat="48.014779295772314" lon="11.485585542395711">
        <ele>568.2763671875</ele>
        <time>2013-06-15T07:14:30Z</time>
      </trkpt>
      <trkpt lat="48.014480648562312" lon="11.485144067555666">
        <ele>567.795654296875</ele>
        <time>2013-06-15T07:14:37Z</time>
      </trkpt>
      <trkpt lat="48.014242015779018" lon="11.48487257771194">
        <ele>568.757080078125</ele>
        <time>2013-06-15T07:14:43Z</time>
      </trkpt>
      <trkpt lat="48.014074796810746" lon="11.484717512503266">
        <ele>569.718505859375</ele>
        <time>2013-06-15T07:14:48Z</time>
      </trkpt>
      <trkpt lat="48.014037581160665" lon="11.484685074537992">
        <ele>569.23779296875</ele>
        <time>2013-06-15T07:14:49Z</time>
      </trkpt>
      <trkpt lat="48.013707669451833" lon="11.484405873343349">
        <ele>569.23779296875</ele>
        <time>2013-06-15T07:14:56Z</time>
      </trkpt>
      <trkpt lat="48.013672130182385" lon="11.484354911372066">
        <ele>569.23779296875</ele>
        <time>2013-06-15T07:14:57Z</time>
      </trkpt>
      <trkpt lat="48.013572217896581" lon="11.484164893627167">
        <ele>568.2763671875</ele>
        <time>2013-06-15T07:15:00Z</time>
      </trkpt>
      <trkpt lat="48.01332444883883" lon="11.483885105699301">
        <ele>568.2763671875</ele>
        <time>2013-06-15T07:15:06Z</time>
      </trkpt>
      <trkpt lat="48.013273738324642" lon="11.483851410448551">
        <ele>569.23779296875</ele>
        <time>2013-06-15T07:15:07Z</time>
      </trkpt>
      <trkpt lat="48.013164522126317" lon="11.483775302767754">
        <ele>569.23779296875</ele>
        <time>2013-06-15T07:15:09Z</time>
      </trkpt>
      <trkpt lat="48.012809045612812" lon="11.483619064092636">
        <ele>568.757080078125</ele>
        <time>2013-06-15T07:15:16Z</time>
      </trkpt>
      <trkpt lat="48.012588014826179" lon="11.483486378565431">
        <ele>569.23779296875</ele>
        <time>2013-06-15T07:15:21Z</time>
      </trkpt>
      <trkpt lat="48.012431692332029" lon="11.483363499864936">
        <ele>567.795654296875</ele>
        <time>2013-06-15T07:15:24Z</time>
      </trkpt>
      <trkpt lat="48.012371677905321" lon="11.483309855684638">
        <ele>566.83447265625</ele>
        <time>2013-06-15T07:15:25Z</time>
      </trkpt>
      <trkpt lat="48.012182917445898" lon="11.483144313097">
        <ele>565.873291015625</ele>
        <time>2013-06-15T07:15:28Z</time>
      </trkpt>
      <trkpt lat="48.011926095932722" lon="11.482740389183164">
        <ele>562.9892578125</ele>
        <time>2013-06-15T07:15:33Z</time>
      </trkpt>
      <trkpt lat="48.011582773178816" lon="11.482477029785514">
        <ele>562.9892578125</ele>
        <time>2013-06-15T07:15:38Z</time>
      </trkpt>
      <trkpt lat="48.011398036032915" lon="11.482299836352468">
        <ele>562.9892578125</ele>
        <time>2013-06-15T07:15:41Z</time>
      </trkpt>
      <trkpt lat="48.011187398806214" lon="11.482018539682031">
        <ele>562.508544921875</ele>
        <time>2013-06-15T07:15:45Z</time>
      </trkpt>
      <trkpt lat="48.010950526222587" lon="11.481792815029621">
        <ele>562.9892578125</ele>
        <time>2013-06-15T07:15:49Z</time>
      </trkpt>
      <trkpt lat="48.010809374973178" lon="11.481608245521784">
        <ele>563.469970703125</ele>
        <time>2013-06-15T07:15:52Z</time>
      </trkpt>
      <trkpt lat="48.010696889832616" lon="11.481403224170208">
        <ele>563.469970703125</ele>
        <time>2013-06-15T07:15:55Z</time>
      </trkpt>
      <trkpt lat="48.010609298944473" lon="11.481183534488082">
        <ele>562.508544921875</ele>
        <time>2013-06-15T07:15:58Z</time>
      </trkpt>
      <trkpt lat="48.010403690859675" lon="11.480956552550197">
        <ele>562.508544921875</ele>
        <time>2013-06-15T07:16:02Z</time>
      </trkpt>
      <trkpt lat="48.010246362537146" lon="11.480821520090103">
        <ele>562.508544921875</ele>
        <time>2013-06-15T07:16:05Z</time>
      </trkpt>
      <trkpt lat="48.010003957897425" lon="11.480514239519835">
        <ele>562.028076171875</ele>
        <time>2013-06-15T07:16:10Z</time>
      </trkpt>
      <trkpt lat="48.009919300675392" lon="11.48034056648612">
        <ele>562.508544921875</ele>
        <time>2013-06-15T07:16:12Z</time>
      </trkpt>
      <trkpt lat="48.009600453078747" lon="11.479995902627707">
        <ele>562.9892578125</ele>
        <time>2013-06-15T07:16:18Z</time>
      </trkpt>
      <trkpt lat="48.009541612118483" lon="11.47994770668447">
        <ele>562.9892578125</ele>
        <time>2013-06-15T07:16:19Z</time>
      </trkpt>
      <trkpt lat="48.0093939229846" lon="11.479862295091152">
        <ele>563.469970703125</ele>
        <time>2013-06-15T07:16:22Z</time>
      </trkpt>
      <trkpt lat="48.009217567741871" lon="11.479722736403346">
        <ele>563.469970703125</ele>
        <time>2013-06-15T07:16:26Z</time>
      </trkpt>
      <trkpt lat="48.009089827537537" lon="11.479596253484488">
        <ele>563.950439453125</ele>
        <time>2013-06-15T07:16:29Z</time>
      </trkpt>
      <trkpt lat="48.008945994079113" lon="11.479492150247097">
        <ele>563.950439453125</ele>
        <time>2013-06-15T07:16:32Z</time>
      </trkpt>
      <trkpt lat="48.008678695186973" lon="11.479278244078159">
        <ele>564.43115234375</ele>
        <time>2013-06-15T07:16:38Z</time>
      </trkpt>
      <trkpt lat="48.008556067943573" lon="11.479123765602708">
        <ele>564.43115234375</ele>
        <time>2013-06-15T07:16:41Z</time>
      </trkpt>
      <trkpt lat="48.008439894765615" lon="11.478999881073833">
        <ele>564.43115234375</ele>
        <time>2013-06-15T07:16:44Z</time>
      </trkpt>
      <trkpt lat="48.008210062980652" lon="11.478808522224426">
        <ele>565.392578125</ele>
        <time>2013-06-15T07:16:49Z</time>
      </trkpt>
      <trkpt lat="48.008111994713545" lon="11.478742472827435">
        <ele>564.911865234375</ele>
        <time>2013-06-15T07:16:51Z</time>
      </trkpt>
      <trkpt lat="48.007827680557966" lon="11.478571398183703">
        <ele>564.911865234375</ele>
        <time>2013-06-15T07:16:57Z</time>
      </trkpt>
      <trkpt lat="48.007741598412395" lon="11.478505097329617">
        <ele>563.950439453125</ele>
        <time>2013-06-15T07:16:59Z</time>
      </trkpt>
      <trkpt lat="48.00758795812726" lon="11.478376686573029">
        <ele>564.43115234375</ele>
        <time>2013-06-15T07:17:02Z</time>
      </trkpt>
      <trkpt lat="48.007477233186364" lon="11.478262022137642">
        <ele>563.950439453125</ele>
        <time>2013-06-15T07:17:04Z</time>
      </trkpt>
      <trkpt lat="48.007369441911578" lon="11.478180466219783">
        <ele>564.911865234375</ele>
        <time>2013-06-15T07:17:06Z</time>
      </trkpt>
      <trkpt lat="48.007067944854498" lon="11.478014588356018">
        <ele>564.911865234375</ele>
        <time>2013-06-15T07:17:12Z</time>
      </trkpt>
      <trkpt lat="48.006751276552677" lon="11.477787354961038">
        <ele>564.911865234375</ele>
        <time>2013-06-15T07:17:18Z</time>
      </trkpt>
      <trkpt lat="48.006705762818456" lon="11.477762376889586">
        <ele>564.911865234375</ele>
        <time>2013-06-15T07:17:19Z</time>
      </trkpt>
      <trkpt lat="48.006439805030823" lon="11.477566324174404">
        <ele>565.392578125</ele>
        <time>2013-06-15T07:17:25Z</time>
      </trkpt>
      <trkpt lat="48.006393956020474" lon="11.47752114571631">
        <ele>565.873291015625</ele>
        <time>2013-06-15T07:17:26Z</time>
      </trkpt>
      <trkpt lat="48.006315669044852" lon="11.47740731947124">
        <ele>564.911865234375</ele>
        <time>2013-06-15T07:17:28Z</time>
      </trkpt>
      <trkpt lat="48.006069408729672" lon="11.477116551250219">
        <ele>565.392578125</ele>
        <time>2013-06-15T07:17:34Z</time>
      </trkpt>
      <trkpt lat="48.005892802029848" lon="11.477029211819172">
        <ele>565.873291015625</ele>
        <time>2013-06-15T07:17:38Z</time>
      </trkpt>
      <trkpt lat="48.005604380741715" lon="11.476931227371097">
        <ele>565.392578125</ele>
        <time>2013-06-15T07:17:44Z</time>
      </trkpt>
      <trkpt lat="48.005560375750065" lon="11.476912954822183">
        <ele>565.392578125</ele>
        <time>2013-06-15T07:17:45Z</time>
      </trkpt>
      <trkpt lat="48.005350744351745" lon="11.476817233487964">
        <ele>566.83447265625</ele>
        <time>2013-06-15T07:17:51Z</time>
      </trkpt>
      <trkpt lat="48.005277570337057" lon="11.476777503266931">
        <ele>567.795654296875</ele>
        <time>2013-06-15T07:17:55Z</time>
      </trkpt>
      <trkpt lat="48.00528796389699" lon="11.476777754724026">
        <ele>568.757080078125</ele>
        <time>2013-06-15T07:18:30Z</time>
      </trkpt>
      <trkpt lat="48.005224512889981" lon="11.476701311767101">
        <ele>568.2763671875</ele>
        <time>2013-06-15T07:18:36Z</time>
      </trkpt>
      <trkpt lat="48.005121918395162" lon="11.476582791656256">
        <ele>568.757080078125</ele>
        <time>2013-06-15T07:18:42Z</time>
      </trkpt>
      <trkpt lat="48.004985963925719" lon="11.476423032581806">
        <ele>570.6796875</ele>
        <time>2013-06-15T07:18:49Z</time>
      </trkpt>
      <trkpt lat="48.004860319197178" lon="11.476346421986818">
        <ele>571.640869140625</ele>
        <time>2013-06-15T07:18:54Z</time>
      </trkpt>
      <trkpt lat="48.004732495173812" lon="11.476309960708022">
        <ele>572.121826171875</ele>
        <time>2013-06-15T07:18:59Z</time>
      </trkpt>
      <trkpt lat="48.004512637853622" lon="11.476206192746758">
        <ele>574.04443359375</ele>
        <time>2013-06-15T07:19:08Z</time>
      </trkpt>
      <trkpt lat="48.00441331230104" lon="11.476161014288664">
        <ele>574.04443359375</ele>
        <time>2013-06-15T07:19:12Z</time>
      </trkpt>
      <trkpt lat="48.004175014793873" lon="11.475973008200526">
        <ele>576.928466796875</ele>
        <time>2013-06-15T07:19:21Z</time>
      </trkpt>
      <trkpt lat="48.004050459712744" lon="11.475871587172151">
        <ele>577.4091796875</ele>
        <time>2013-06-15T07:19:27Z</time>
      </trkpt>
      <trkpt lat="48.003880809992552" lon="11.475769998505712">
        <ele>579.33154296875</ele>
        <time>2013-06-15T07:19:34Z</time>
      </trkpt>
      <trkpt lat="48.003771677613258" lon="11.47571861743927">
        <ele>579.33154296875</ele>
        <time>2013-06-15T07:19:40Z</time>
      </trkpt>
      <trkpt lat="48.003612253814936" lon="11.4756238181144">
        <ele>580.773681640625</ele>
        <time>2013-06-15T07:19:46Z</time>
      </trkpt>
      <trkpt lat="48.003549221903086" lon="11.475587524473667">
        <ele>581.73486328125</ele>
        <time>2013-06-15T07:19:49Z</time>
      </trkpt>
      <trkpt lat="48.003375800326467" lon="11.475530443713069">
        <ele>583.1767578125</ele>
        <time>2013-06-15T07:19:57Z</time>
      </trkpt>
      <trkpt lat="48.003245964646339" lon="11.475470010191202">
        <ele>584.618896484375</ele>
        <time>2013-06-15T07:20:02Z</time>
      </trkpt>
      <trkpt lat="48.003153093159199" lon="11.475472776219249">
        <ele>585.580078125</ele>
        <time>2013-06-15T07:20:06Z</time>
      </trkpt>
      <trkpt lat="48.002809016034007" lon="11.475330619141459">
        <ele>587.502685546875</ele>
        <time>2013-06-15T07:20:20Z</time>
      </trkpt>
      <trkpt lat="48.00262545235455" lon="11.475231125950813">
        <ele>587.9833984375</ele>
        <time>2013-06-15T07:20:28Z</time>
      </trkpt>
      <trkpt lat="48.002436105161905" lon="11.475103469565511">
        <ele>589.425537109375</ele>
        <time>2013-06-15T07:20:36Z</time>
      </trkpt>
      <trkpt lat="48.002046598121524" lon="11.474850671365857">
        <ele>591.828857421875</ele>
        <time>2013-06-15T07:20:52Z</time>
      </trkpt>
      <trkpt lat="48.001832691952586" lon="11.474727457389235">
        <ele>593.270751953125</ele>
        <time>2013-06-15T07:21:01Z</time>
      </trkpt>
      <trkpt lat="48.001612666994333" lon="11.474619330838323">
        <ele>595.193359375</ele>
        <time>2013-06-15T07:21:09Z</time>
      </trkpt>
      <trkpt lat="48.001390546560287" lon="11.474509611725807">
        <ele>596.635498046875</ele>
        <time>2013-06-15T07:21:18Z</time>
      </trkpt>
      <trkpt lat="48.001210419461131" lon="11.474414141848683">
        <ele>597.5966796875</ele>
        <time>2013-06-15T07:21:26Z</time>
      </trkpt>
      <trkpt lat="48.001060048118234" lon="11.474334681406617">
        <ele>598.557861328125</ele>
        <time>2013-06-15T07:21:32Z</time>
      </trkpt>
      <trkpt lat="48.000909592956305" lon="11.474256897345185">
        <ele>599.03857421875</ele>
        <time>2013-06-15T07:21:38Z</time>
      </trkpt>
      <trkpt lat="48.000785373151302" lon="11.474207863211632">
        <ele>600</ele>
        <time>2013-06-15T07:21:44Z</time>
      </trkpt>
      <trkpt lat="48.000591499730945" lon="11.474109459668398">
        <ele>601.44189453125</ele>
        <time>2013-06-15T07:21:51Z</time>
      </trkpt>
      <trkpt lat="48.000459233298898" lon="11.474031927064061">
        <ele>601.922607421875</ele>
        <time>2013-06-15T07:21:57Z</time>
      </trkpt>
      <trkpt lat="48.000320931896567" lon="11.473960680887103">
        <ele>602.8837890625</ele>
        <time>2013-06-15T07:22:02Z</time>
      </trkpt>
      <trkpt lat="48.000104511156678" lon="11.473907791078091">
        <ele>603.84521484375</ele>
        <time>2013-06-15T07:22:09Z</time>
      </trkpt>
      <trkpt lat="47.999870656058192" lon="11.473905108869076">
        <ele>605.287353515625</ele>
        <time>2013-06-15T07:22:18Z</time>
      </trkpt>
      <trkpt lat="47.999635543674231" lon="11.473883148282766">
        <ele>606.24853515625</ele>
        <time>2013-06-15T07:22:26Z</time>
      </trkpt>
      <trkpt lat="47.99949137493968" lon="11.473891278728843">
        <ele>607.690673828125</ele>
        <time>2013-06-15T07:22:31Z</time>
      </trkpt>
      <trkpt lat="47.999332873150706" lon="11.473877113312483">
        <ele>608.65185546875</ele>
        <time>2013-06-15T07:22:37Z</time>
      </trkpt>
      <trkpt lat="47.999190967530012" lon="11.473740069195628">
        <ele>609.61328125</ele>
        <time>2013-06-15T07:22:44Z</time>
      </trkpt>
      <trkpt lat="47.999138915911317" lon="11.473524570465088">
        <ele>609.61328125</ele>
        <time>2013-06-15T07:22:49Z</time>
      </trkpt>
      <trkpt lat="47.999071357771754" lon="11.473298175260425">
        <ele>611.535888671875</ele>
        <time>2013-06-15T07:22:56Z</time>
      </trkpt>
      <trkpt lat="47.999025005847216" lon="11.47312450222671">
        <ele>612.0166015625</ele>
        <time>2013-06-15T07:23:02Z</time>
      </trkpt>
      <trkpt lat="47.998947221785784" lon="11.472855946049094">
        <ele>613.45849609375</ele>
        <time>2013-06-15T07:23:10Z</time>
      </trkpt>
      <trkpt lat="47.998835491016507" lon="11.472496278584003">
        <ele>614.900390625</ele>
        <time>2013-06-15T07:23:18Z</time>
      </trkpt>
      <trkpt lat="47.998798778280616" lon="11.472199307754636">
        <ele>614.900390625</ele>
        <time>2013-06-15T07:23:26Z</time>
      </trkpt>
      <trkpt lat="47.99875158816576" lon="11.471928153187037">
        <ele>616.822998046875</ele>
        <time>2013-06-15T07:23:34Z</time>
      </trkpt>
      <trkpt lat="47.998727951198816" lon="11.47171969525516">
        <ele>617.7841796875</ele>
        <time>2013-06-15T07:23:40Z</time>
      </trkpt>
      <trkpt lat="47.998723676428199" lon="11.471494641155005">
        <ele>618.264892578125</ele>
        <time>2013-06-15T07:23:46Z</time>
      </trkpt>
      <trkpt lat="47.998732393607497" lon="11.471115024760365">
        <ele>618.74560546875</ele>
        <time>2013-06-15T07:23:54Z</time>
      </trkpt>
      <trkpt lat="47.99870272167027" lon="11.470770109444857">
        <ele>619.226318359375</ele>
        <time>2013-06-15T07:24:02Z</time>
      </trkpt>
      <trkpt lat="47.998677408322692" lon="11.470476323738694">
        <ele>620.187744140625</ele>
        <time>2013-06-15T07:24:09Z</time>
      </trkpt>
      <trkpt lat="47.998665841296315" lon="11.47018731571734">
        <ele>619.70703125</ele>
        <time>2013-06-15T07:24:15Z</time>
      </trkpt>
      <trkpt lat="47.998658716678619" lon="11.469823624938726">
        <ele>621.149169921875</ele>
        <time>2013-06-15T07:24:22Z</time>
      </trkpt>
      <trkpt lat="47.998600043356419" lon="11.469457587227225">
        <ele>622.1103515625</ele>
        <time>2013-06-15T07:24:29Z</time>
      </trkpt>
      <trkpt lat="47.998468112200499" lon="11.469134381040931">
        <ele>622.1103515625</ele>
        <time>2013-06-15T07:24:36Z</time>
      </trkpt>
      <trkpt lat="47.998280860483646" lon="11.468836404383183">
        <ele>623.552490234375</ele>
        <time>2013-06-15T07:24:44Z</time>
      </trkpt>
      <trkpt lat="47.998133255168796" lon="11.468577403575182">
        <ele>624.513671875</ele>
        <time>2013-06-15T07:24:51Z</time>
      </trkpt>
      <trkpt lat="47.998022362589836" lon="11.468355702236295">
        <ele>624.994384765625</ele>
        <time>2013-06-15T07:24:56Z</time>
      </trkpt>
      <trkpt lat="47.997791860252619" lon="11.468171468004584">
        <ele>624.994384765625</ele>
        <time>2013-06-15T07:25:02Z</time>
      </trkpt>
      <trkpt lat="47.997515676543117" lon="11.468020593747497">
        <ele>624.513671875</ele>
        <time>2013-06-15T07:25:09Z</time>
      </trkpt>
      <trkpt lat="47.997240833938122" lon="11.467924872413278">
        <ele>624.513671875</ele>
        <time>2013-06-15T07:25:16Z</time>
      </trkpt>
      <trkpt lat="47.99708342179656" lon="11.467910120263696">
        <ele>624.513671875</ele>
        <time>2013-06-15T07:25:20Z</time>
      </trkpt>
      <trkpt lat="47.996996585279703" lon="11.467907605692744">
        <ele>624.032958984375</ele>
        <time>2013-06-15T07:25:22Z</time>
      </trkpt>
      <trkpt lat="47.996807405725121" lon="11.467879777774215">
        <ele>623.552490234375</ele>
        <time>2013-06-15T07:25:26Z</time>
      </trkpt>
      <trkpt lat="47.996475147083402" lon="11.467850860208273">
        <ele>623.552490234375</ele>
        <time>2013-06-15T07:25:33Z</time>
      </trkpt>
      <trkpt lat="47.996346903964877" lon="11.467811381444335">
        <ele>624.032958984375</ele>
        <time>2013-06-15T07:25:36Z</time>
      </trkpt>
      <trkpt lat="47.996147498488426" lon="11.467537293210626">
        <ele>625.95556640625</ele>
        <time>2013-06-15T07:25:43Z</time>
      </trkpt>
      <trkpt lat="47.996165603399277" lon="11.467506112530828">
        <ele>625.95556640625</ele>
        <time>2013-06-15T07:25:49Z</time>
      </trkpt>
      <trkpt lat="47.996173733845353" lon="11.467525390908122">
        <ele>624.994384765625</ele>
        <time>2013-06-15T07:27:12Z</time>
      </trkpt>
      <trkpt lat="47.996138278394938" lon="11.467804089188576">
        <ele>624.513671875</ele>
        <time>2013-06-15T07:27:19Z</time>
      </trkpt>
      <trkpt lat="47.996072228997946" lon="11.468284539878368">
        <ele>623.552490234375</ele>
        <time>2013-06-15T07:27:26Z</time>
      </trkpt>
      <trkpt lat="47.996073570102453" lon="11.468337597325444">
        <ele>623.07177734375</ele>
        <time>2013-06-15T07:27:27Z</time>
      </trkpt>
      <trkpt lat="47.99607340246439" lon="11.468640854582191">
        <ele>623.07177734375</ele>
        <time>2013-06-15T07:27:31Z</time>
      </trkpt>
      <trkpt lat="47.996111623942852" lon="11.468902705237269">
        <ele>621.629638671875</ele>
        <time>2013-06-15T07:27:35Z</time>
      </trkpt>
      <trkpt lat="47.996267778798938" lon="11.468979567289352">
        <ele>621.149169921875</ele>
        <time>2013-06-15T07:27:38Z</time>
      </trkpt>
      <trkpt lat="47.996672708541155" lon="11.468849061056972">
        <ele>617.7841796875</ele>
        <time>2013-06-15T07:27:44Z</time>
      </trkpt>
      <trkpt lat="47.996732974424958" lon="11.468818299472332">
        <ele>617.7841796875</ele>
        <time>2013-06-15T07:27:45Z</time>
      </trkpt>
      <trkpt lat="47.997067496180534" lon="11.468808744102716">
        <ele>615.381103515625</ele>
        <time>2013-06-15T07:27:50Z</time>
      </trkpt>
      <trkpt lat="47.997230188921094" lon="11.469042766839266">
        <ele>613.93896484375</ele>
        <time>2013-06-15T07:27:55Z</time>
      </trkpt>
      <trkpt lat="47.997346362099051" lon="11.469351053237915">
        <ele>612.4970703125</ele>
        <time>2013-06-15T07:27:59Z</time>
      </trkpt>
      <trkpt lat="47.997440658509731" lon="11.469664536416531">
        <ele>611.05517578125</ele>
        <time>2013-06-15T07:28:02Z</time>
      </trkpt>
      <trkpt lat="47.997498493641615" lon="11.470151022076607">
        <ele>611.05517578125</ele>
        <time>2013-06-15T07:28:06Z</time>
      </trkpt>
      <trkpt lat="47.997519867494702" lon="11.470412872731686">
        <ele>608.17138671875</ele>
        <time>2013-06-15T07:28:08Z</time>
      </trkpt>
      <trkpt lat="47.997531183063984" lon="11.470545474439859">
        <ele>607.690673828125</ele>
        <time>2013-06-15T07:28:09Z</time>
      </trkpt>
      <trkpt lat="47.997611984610558" lon="11.471199681982398">
        <ele>604.806640625</ele>
        <time>2013-06-15T07:28:14Z</time>
      </trkpt>
      <trkpt lat="47.997594969347119" lon="11.471803430467844">
        <ele>602.403076171875</ele>
        <time>2013-06-15T07:28:19Z</time>
      </trkpt>
      <trkpt lat="47.997552389279008" lon="11.472126888111234">
        <ele>601.44189453125</ele>
        <time>2013-06-15T07:28:22Z</time>
      </trkpt>
      <trkpt lat="47.997554903849959" lon="11.47240231744945">
        <ele>600.480712890625</ele>
        <time>2013-06-15T07:28:25Z</time>
      </trkpt>
      <trkpt lat="47.997669484466314" lon="11.472826022654772">
        <ele>600</ele>
        <time>2013-06-15T07:28:29Z</time>
      </trkpt>
      <trkpt lat="47.997769312933087" lon="11.473109247162938">
        <ele>597.5966796875</ele>
        <time>2013-06-15T07:28:32Z</time>
      </trkpt>
      <trkpt lat="47.997893113642931" lon="11.473396411165595">
        <ele>596.635498046875</ele>
        <time>2013-06-15T07:28:35Z</time>
      </trkpt>
      <trkpt lat="47.997987158596516" lon="11.473573353141546">
        <ele>595.674072265625</ele>
        <time>2013-06-15T07:28:37Z</time>
      </trkpt>
      <trkpt lat="47.998031750321388" lon="11.473668152466416">
        <ele>594.712646484375</ele>
        <time>2013-06-15T07:28:38Z</time>
      </trkpt>
      <trkpt lat="47.998147672042251" lon="11.474240971729159">
        <ele>593.270751953125</ele>
        <time>2013-06-15T07:28:43Z</time>
      </trkpt>
      <trkpt lat="47.998205004259944" lon="11.474558729678392">
        <ele>592.3095703125</ele>
        <time>2013-06-15T07:28:46Z</time>
      </trkpt>
      <trkpt lat="47.998153707012534" lon="11.475074384361506">
        <ele>590.386962890625</ele>
        <time>2013-06-15T07:28:51Z</time>
      </trkpt>
      <trkpt lat="47.998105091974139" lon="11.475424915552139">
        <ele>588.945068359375</ele>
        <time>2013-06-15T07:28:54Z</time>
      </trkpt>
      <trkpt lat="47.998082125559449" lon="11.475642342120409">
        <ele>587.9833984375</ele>
        <time>2013-06-15T07:28:56Z</time>
      </trkpt>
      <trkpt lat="47.997933095321059" lon="11.476052217185497">
        <ele>584.13818359375</ele>
        <time>2013-06-15T07:29:01Z</time>
      </trkpt>
      <trkpt lat="47.997869560495019" lon="11.476094545796514">
        <ele>583.1767578125</ele>
        <time>2013-06-15T07:29:02Z</time>
      </trkpt>
      <trkpt lat="47.997619695961475" lon="11.476215245202184">
        <ele>579.812255859375</ele>
        <time>2013-06-15T07:29:05Z</time>
      </trkpt>
      <trkpt lat="47.997428588569164" lon="11.476345667615533">
        <ele>578.370361328125</ele>
        <time>2013-06-15T07:29:07Z</time>
      </trkpt>
      <trkpt lat="47.997097754850984" lon="11.476377099752426">
        <ele>576.928466796875</ele>
        <time>2013-06-15T07:29:11Z</time>
      </trkpt>
      <trkpt lat="47.996972529217601" lon="11.47625514306128">
        <ele>577.4091796875</ele>
        <time>2013-06-15T07:29:13Z</time>
      </trkpt>
      <trkpt lat="47.996592577546835" lon="11.476110303774476">
        <ele>575.967041015625</ele>
        <time>2013-06-15T07:29:19Z</time>
      </trkpt>
      <trkpt lat="47.996434411033988" lon="11.476095803081989">
        <ele>572.6025390625</ele>
        <time>2013-06-15T07:29:21Z</time>
      </trkpt>
      <trkpt lat="47.996157892048359" lon="11.476070322096348">
        <ele>570.6796875</ele>
        <time>2013-06-15T07:29:24Z</time>
      </trkpt>
      <trkpt lat="47.995728570967913" lon="11.475919699296355">
        <ele>571.640869140625</ele>
        <time>2013-06-15T07:29:29Z</time>
      </trkpt>
      <trkpt lat="47.995437132194638" lon="11.475713001564145">
        <ele>572.6025390625</ele>
        <time>2013-06-15T07:29:34Z</time>
      </trkpt>
      <trkpt lat="47.99525935202837" lon="11.475485768169165">
        <ele>571.640869140625</ele>
        <time>2013-06-15T07:29:38Z</time>
      </trkpt>
      <trkpt lat="47.995170503854752" lon="11.475363476201892">
        <ele>572.121826171875</ele>
        <time>2013-06-15T07:29:40Z</time>
      </trkpt>
      <trkpt lat="47.994859619066119" lon="11.475108079612255">
        <ele>572.6025390625</ele>
        <time>2013-06-15T07:29:47Z</time>
      </trkpt>
      <trkpt lat="47.994624841958284" lon="11.475001713261008">
        <ele>572.121826171875</ele>
        <time>2013-06-15T07:29:51Z</time>
      </trkpt>
      <trkpt lat="47.994489306584001" lon="11.474949661642313">
        <ele>570.6796875</ele>
        <time>2013-06-15T07:29:53Z</time>
      </trkpt>
      <trkpt lat="47.994182109832764" lon="11.474746400490403">
        <ele>567.315185546875</ele>
        <time>2013-06-15T07:29:57Z</time>
      </trkpt>
      <trkpt lat="47.994110696017742" lon="11.474654283374548">
        <ele>567.315185546875</ele>
        <time>2013-06-15T07:29:58Z</time>
      </trkpt>
      <trkpt lat="47.993920594453812" lon="11.474231835454702">
        <ele>566.83447265625</ele>
        <time>2013-06-15T07:30:02Z</time>
      </trkpt>
      <trkpt lat="47.993733007460833" lon="11.473664632067084">
        <ele>568.2763671875</ele>
        <time>2013-06-15T07:30:09Z</time>
      </trkpt>
      <trkpt lat="47.993495715782046" lon="11.47336196154356">
        <ele>567.315185546875</ele>
        <time>2013-06-15T07:30:14Z</time>
      </trkpt>
      <trkpt lat="47.993422457948327" lon="11.473330026492476">
        <ele>566.353759765625</ele>
        <time>2013-06-15T07:30:15Z</time>
      </trkpt>
      <trkpt lat="47.992809489369392" lon="11.473279232159257">
        <ele>562.9892578125</ele>
        <time>2013-06-15T07:30:23Z</time>
      </trkpt>
      <trkpt lat="47.992491396144032" lon="11.473031463101506">
        <ele>563.469970703125</ele>
        <time>2013-06-15T07:30:28Z</time>
      </trkpt>
      <trkpt lat="47.992396932095289" lon="11.47291830740869">
        <ele>563.950439453125</ele>
        <time>2013-06-15T07:30:30Z</time>
      </trkpt>
      <trkpt lat="47.992247398942709" lon="11.472790651023388">
        <ele>565.392578125</ele>
        <time>2013-06-15T07:30:34Z</time>
      </trkpt>
      <trkpt lat="47.992048831656575" lon="11.472628880292177">
        <ele>566.353759765625</ele>
        <time>2013-06-15T07:30:40Z</time>
      </trkpt>
      <trkpt lat="47.992009855806828" lon="11.472579929977655">
        <ele>566.83447265625</ele>
        <time>2013-06-15T07:30:41Z</time>
      </trkpt>
      <trkpt lat="47.991821514442563" lon="11.472370298579335">
        <ele>568.757080078125</ele>
        <time>2013-06-15T07:30:48Z</time>
      </trkpt>
      <trkpt lat="47.991678938269615" lon="11.472322270274162">
        <ele>568.757080078125</ele>
        <time>2013-06-15T07:30:53Z</time>
      </trkpt>
      <trkpt lat="47.991353385150433" lon="11.472183465957642">
        <ele>569.23779296875</ele>
        <time>2013-06-15T07:31:01Z</time>
      </trkpt>
      <trkpt lat="47.991126989945769" lon="11.472151027992368">
        <ele>569.23779296875</ele>
        <time>2013-06-15T07:31:07Z</time>
      </trkpt>
      <trkpt lat="47.991090947762132" lon="11.47213744930923">
        <ele>569.23779296875</ele>
        <time>2013-06-15T07:31:08Z</time>
      </trkpt>
      <trkpt lat="47.99088173545897" lon="11.472003171220422">
        <ele>569.23779296875</ele>
        <time>2013-06-15T07:31:13Z</time>
      </trkpt>
      <trkpt lat="47.990674115717411" lon="11.47171089425683">
        <ele>568.2763671875</ele>
        <time>2013-06-15T07:31:19Z</time>
      </trkpt>
      <trkpt lat="47.990603372454643" lon="11.471607210114598">
        <ele>568.2763671875</ele>
        <time>2013-06-15T07:31:21Z</time>
      </trkpt>
      <trkpt lat="47.990504465997219" lon="11.47147829644382">
        <ele>567.795654296875</ele>
        <time>2013-06-15T07:31:24Z</time>
      </trkpt>
      <trkpt lat="47.990335989743471" lon="11.471337983384728">
        <ele>567.795654296875</ele>
        <time>2013-06-15T07:31:28Z</time>
      </trkpt>
      <trkpt lat="47.990228198468685" lon="11.471319040283561">
        <ele>567.315185546875</ele>
        <time>2013-06-15T07:31:30Z</time>
      </trkpt>
      <trkpt lat="47.989999959245324" lon="11.471257349476218">
        <ele>567.315185546875</ele>
        <time>2013-06-15T07:31:34Z</time>
      </trkpt>
      <trkpt lat="47.989721596240997" lon="11.471324404701591">
        <ele>566.353759765625</ele>
        <time>2013-06-15T07:31:39Z</time>
      </trkpt>
      <trkpt lat="47.989483634009957" lon="11.471400344744325">
        <ele>563.950439453125</ele>
        <time>2013-06-15T07:31:43Z</time>
      </trkpt>
      <trkpt lat="47.989283222705126" lon="11.471342761069536">
        <ele>562.508544921875</ele>
        <time>2013-06-15T07:31:46Z</time>
      </trkpt>
      <trkpt lat="47.989092702046037" lon="11.47113673388958">
        <ele>560.5859375</ele>
        <time>2013-06-15T07:31:49Z</time>
      </trkpt>
      <trkpt lat="47.988955155014992" lon="11.470977477729321">
        <ele>559.624755859375</ele>
        <time>2013-06-15T07:31:51Z</time>
      </trkpt>
      <trkpt lat="47.988642007112503" lon="11.470669694244862">
        <ele>560.5859375</ele>
        <time>2013-06-15T07:31:56Z</time>
      </trkpt>
      <trkpt lat="47.988539161160588" lon="11.470598364248872">
        <ele>560.5859375</ele>
        <time>2013-06-15T07:31:58Z</time>
      </trkpt>
      <trkpt lat="47.988456767052412" lon="11.47054404951632">
        <ele>561.066650390625</ele>
        <time>2013-06-15T07:32:00Z</time>
      </trkpt>
      <trkpt lat="47.988269263878465" lon="11.470314217731357">
        <ele>563.950439453125</ele>
        <time>2013-06-15T07:32:07Z</time>
      </trkpt>
      <trkpt lat="47.988143367692828" lon="11.470136689022183">
        <ele>564.911865234375</ele>
        <time>2013-06-15T07:32:13Z</time>
      </trkpt>
      <trkpt lat="47.988000875338912" lon="11.47001288831234">
        <ele>567.315185546875</ele>
        <time>2013-06-15T07:32:20Z</time>
      </trkpt>
      <trkpt lat="47.987851426005363" lon="11.469831084832549">
        <ele>567.795654296875</ele>
        <time>2013-06-15T07:32:27Z</time>
      </trkpt>
      <trkpt lat="47.987823514267802" lon="11.469799149781466">
        <ele>568.2763671875</ele>
        <time>2013-06-15T07:32:28Z</time>
      </trkpt>
      <trkpt lat="47.987729972228408" lon="11.469693621620536">
        <ele>570.198974609375</ele>
        <time>2013-06-15T07:32:36Z</time>
      </trkpt>
      <trkpt lat="47.987713543698192" lon="11.469649616628885">
        <ele>570.6796875</ele>
        <time>2013-06-15T07:32:38Z</time>
      </trkpt>
      <trkpt lat="47.987700719386339" lon="11.469584321603179">
        <ele>571.640869140625</ele>
        <time>2013-06-15T07:32:40Z</time>
      </trkpt>
      <trkpt lat="47.987632239237428" lon="11.469305036589503">
        <ele>573.083251953125</ele>
        <time>2013-06-15T07:32:49Z</time>
      </trkpt>
      <trkpt lat="47.987523777410388" lon="11.469078976660967">
        <ele>573.56396484375</ele>
        <time>2013-06-15T07:32:55Z</time>
      </trkpt>
      <trkpt lat="47.987386314198375" lon="11.468858951702714">
        <ele>574.525146484375</ele>
        <time>2013-06-15T07:33:02Z</time>
      </trkpt>
      <trkpt lat="47.987207695841789" lon="11.468707239255309">
        <ele>575.005859375</ele>
        <time>2013-06-15T07:33:10Z</time>
      </trkpt>
      <trkpt lat="47.987020360305905" lon="11.468575894832611">
        <ele>574.04443359375</ele>
        <time>2013-06-15T07:33:17Z</time>
      </trkpt>
      <trkpt lat="47.986788265407085" lon="11.468304991722107">
        <ele>574.525146484375</ele>
        <time>2013-06-15T07:33:25Z</time>
      </trkpt>
      <trkpt lat="47.98671375028789" lon="11.468247827142477">
        <ele>575.486328125</ele>
        <time>2013-06-15T07:33:28Z</time>
      </trkpt>
      <trkpt lat="47.98657787963748" lon="11.468058982864022">
        <ele>577.8896484375</ele>
        <time>2013-06-15T07:33:37Z</time>
      </trkpt>
      <trkpt lat="47.986456342041492" lon="11.467872736975551">
        <ele>579.33154296875</ele>
        <time>2013-06-15T07:33:45Z</time>
      </trkpt>
      <trkpt lat="47.986329942941666" lon="11.467739967629313">
        <ele>582.6962890625</ele>
        <time>2013-06-15T07:33:54Z</time>
      </trkpt>
      <trkpt lat="47.986296331509948" lon="11.467668218538165">
        <ele>583.657470703125</ele>
        <time>2013-06-15T07:33:58Z</time>
      </trkpt>
      <trkpt lat="47.986204968765378" lon="11.467468561604619">
        <ele>583.657470703125</ele>
        <time>2013-06-15T07:34:06Z</time>
      </trkpt>
      <trkpt lat="47.986108493059874" lon="11.467241076752543">
        <ele>583.1767578125</ele>
        <time>2013-06-15T07:34:13Z</time>
      </trkpt>
      <trkpt lat="47.985981926321983" lon="11.46705818362534">
        <ele>583.657470703125</ele>
        <time>2013-06-15T07:34:20Z</time>
      </trkpt>
      <trkpt lat="47.985816216096282" lon="11.466950811445713">
        <ele>583.1767578125</ele>
        <time>2013-06-15T07:34:27Z</time>
      </trkpt>
      <trkpt lat="47.985638938844204" lon="11.466863639652729">
        <ele>583.657470703125</ele>
        <time>2013-06-15T07:34:33Z</time>
      </trkpt>
      <trkpt lat="47.985537936910987" lon="11.466834722086787">
        <ele>584.13818359375</ele>
        <time>2013-06-15T07:34:37Z</time>
      </trkpt>
      <trkpt lat="47.98539686948061" lon="11.46675425581634">
        <ele>584.618896484375</ele>
        <time>2013-06-15T07:34:42Z</time>
      </trkpt>
      <trkpt lat="47.985257478430867" lon="11.466614110395312">
        <ele>585.580078125</ele>
        <time>2013-06-15T07:34:47Z</time>
      </trkpt>
      <trkpt lat="47.985052121803164" lon="11.466454016044736">
        <ele>585.580078125</ele>
        <time>2013-06-15T07:34:55Z</time>
      </trkpt>
      <trkpt lat="47.984969979152083" lon="11.466373046860099">
        <ele>585.580078125</ele>
        <time>2013-06-15T07:34:58Z</time>
      </trkpt>
      <trkpt lat="47.984812231734395" lon="11.46614832803607">
        <ele>585.099609375</ele>
        <time>2013-06-15T07:35:03Z</time>
      </trkpt>
      <trkpt lat="47.984643671661615" lon="11.465930733829737">
        <ele>585.580078125</ele>
        <time>2013-06-15T07:35:07Z</time>
      </trkpt>
      <trkpt lat="47.984578628093004" lon="11.465809028595686">
        <ele>586.060791015625</ele>
        <time>2013-06-15T07:35:10Z</time>
      </trkpt>
      <trkpt lat="47.984519032761455" lon="11.465458832681179">
        <ele>587.02197265625</ele>
        <time>2013-06-15T07:35:17Z</time>
      </trkpt>
      <trkpt lat="47.984463628381491" lon="11.465133614838123">
        <ele>588.46435546875</ele>
        <time>2013-06-15T07:35:24Z</time>
      </trkpt>
      <trkpt lat="47.984433369711041" lon="11.464966395869851">
        <ele>588.46435546875</ele>
        <time>2013-06-15T07:35:28Z</time>
      </trkpt>
      <trkpt lat="47.984362374991179" lon="11.464786352589726">
        <ele>588.945068359375</ele>
        <time>2013-06-15T07:35:34Z</time>
      </trkpt>
      <trkpt lat="47.984363548457623" lon="11.464797332882881">
        <ele>589.425537109375</ele>
        <time>2013-06-15T07:36:55Z</time>
      </trkpt>
      <trkpt lat="47.984334714710712" lon="11.464776461943984">
        <ele>588.945068359375</ele>
        <time>2013-06-15T07:38:10Z</time>
      </trkpt>
      <trkpt lat="47.984332703053951" lon="11.464774869382381">
        <ele>588.945068359375</ele>
        <time>2013-06-15T07:38:11Z</time>
      </trkpt>
      <trkpt lat="47.984253913164139" lon="11.464833961799741">
        <ele>587.9833984375</ele>
        <time>2013-06-15T07:38:16Z</time>
      </trkpt>
      <trkpt lat="47.984192809090018" lon="11.465009646490216">
        <ele>586.54150390625</ele>
        <time>2013-06-15T07:38:19Z</time>
      </trkpt>
      <trkpt lat="47.983991224318743" lon="11.465124478563666">
        <ele>585.099609375</ele>
        <time>2013-06-15T07:38:23Z</time>
      </trkpt>
      <trkpt lat="47.983794249594212" lon="11.464975029230118">
        <ele>583.657470703125</ele>
        <time>2013-06-15T07:38:26Z</time>
      </trkpt>
      <trkpt lat="47.983665922656655" lon="11.464821640402079">
        <ele>581.73486328125</ele>
        <time>2013-06-15T07:38:28Z</time>
      </trkpt>
      <trkpt lat="47.98324104398489" lon="11.464854665100574">
        <ele>580.773681640625</ele>
        <time>2013-06-15T07:38:33Z</time>
      </trkpt>
      <trkpt lat="47.983056139200926" lon="11.464884839951992">
        <ele>577.4091796875</ele>
        <time>2013-06-15T07:38:35Z</time>
      </trkpt>
      <trkpt lat="47.982602594420314" lon="11.464804289862514">
        <ele>575.005859375</ele>
        <time>2013-06-15T07:38:40Z</time>
      </trkpt>
      <trkpt lat="47.982224235311151" lon="11.464749723672867">
        <ele>575.486328125</ele>
        <time>2013-06-15T07:38:44Z</time>
      </trkpt>
      <trkpt lat="47.982037235051394" lon="11.464795656502247">
        <ele>574.525146484375</ele>
        <time>2013-06-15T07:38:46Z</time>
      </trkpt>
      <trkpt lat="47.981685446575284" lon="11.465003527700901">
        <ele>572.121826171875</ele>
        <time>2013-06-15T07:38:50Z</time>
      </trkpt>
      <trkpt lat="47.981286719441414" lon="11.465076114982367">
        <ele>570.198974609375</ele>
        <time>2013-06-15T07:38:54Z</time>
      </trkpt>
      <trkpt lat="47.980984803289175" lon="11.465055076405406">
        <ele>568.2763671875</ele>
        <time>2013-06-15T07:38:57Z</time>
      </trkpt>
      <trkpt lat="47.980582723394036" lon="11.465265713632107">
        <ele>564.911865234375</ele>
        <time>2013-06-15T07:39:01Z</time>
      </trkpt>
      <trkpt lat="47.980209896340966" lon="11.465659327805042">
        <ele>562.028076171875</ele>
        <time>2013-06-15T07:39:05Z</time>
      </trkpt>
      <trkpt lat="47.97950305044651" lon="11.466259555891156">
        <ele>556.74072265625</ele>
        <time>2013-06-15T07:39:12Z</time>
      </trkpt>
      <trkpt lat="47.978981360793114" lon="11.466441191732883">
        <ele>558.182861328125</ele>
        <time>2013-06-15T07:39:17Z</time>
      </trkpt>
      <trkpt lat="47.978586489334702" lon="11.466428032144904">
        <ele>556.74072265625</ele>
        <time>2013-06-15T07:39:21Z</time>
      </trkpt>
      <trkpt lat="47.97824333421886" lon="11.466540182009339">
        <ele>556.74072265625</ele>
        <time>2013-06-15T07:39:25Z</time>
      </trkpt>
      <trkpt lat="47.977814432233572" lon="11.46677034907043">
        <ele>554.33740234375</ele>
        <time>2013-06-15T07:39:30Z</time>
      </trkpt>
      <trkpt lat="47.977073723450303" lon="11.467023314908147">
        <ele>554.81787109375</ele>
        <time>2013-06-15T07:39:39Z</time>
      </trkpt>
      <trkpt lat="47.977000130340457" lon="11.467042677104473">
        <ele>552.895263671875</ele>
        <time>2013-06-15T07:39:40Z</time>
      </trkpt>
      <trkpt lat="47.976733753457665" lon="11.467189863324165">
        <ele>551.93408203125</ele>
        <time>2013-06-15T07:39:44Z</time>
      </trkpt>
      <trkpt lat="47.976631997153163" lon="11.467465627938509">
        <ele>552.41455078125</ele>
        <time>2013-06-15T07:39:47Z</time>
      </trkpt>
      <trkpt lat="47.976482128724456" lon="11.468037441372871">
        <ele>553.856689453125</ele>
        <time>2013-06-15T07:39:53Z</time>
      </trkpt>
      <trkpt lat="47.976152887567878" lon="11.468537924811244">
        <ele>553.3759765625</ele>
        <time>2013-06-15T07:40:00Z</time>
      </trkpt>
      <trkpt lat="47.976002767682076" lon="11.468743616715074">
        <ele>552.895263671875</ele>
        <time>2013-06-15T07:40:03Z</time>
      </trkpt>
      <trkpt lat="47.975921127945185" lon="11.468888791278005">
        <ele>553.856689453125</ele>
        <time>2013-06-15T07:40:05Z</time>
      </trkpt>
      <trkpt lat="47.975752903148532" lon="11.469386508688331">
        <ele>553.856689453125</ele>
        <time>2013-06-15T07:40:11Z</time>
      </trkpt>
      <trkpt lat="47.975550480186939" lon="11.469811722636223">
        <ele>553.856689453125</ele>
        <time>2013-06-15T07:40:17Z</time>
      </trkpt>
      <trkpt lat="47.975242780521512" lon="11.470389319583774">
        <ele>554.33740234375</ele>
        <time>2013-06-15T07:40:25Z</time>
      </trkpt>
      <trkpt lat="47.974983192980289" lon="11.470870859920979">
        <ele>553.3759765625</ele>
        <time>2013-06-15T07:40:32Z</time>
      </trkpt>
      <trkpt lat="47.974783619865775" lon="11.471172524616122">
        <ele>554.81787109375</ele>
        <time>2013-06-15T07:40:37Z</time>
      </trkpt>
      <trkpt lat="47.974579688161612" lon="11.471450384706259">
        <ele>554.33740234375</ele>
        <time>2013-06-15T07:40:42Z</time>
      </trkpt>
      <trkpt lat="47.974277017638087" lon="11.471853386610746">
        <ele>552.895263671875</ele>
        <time>2013-06-15T07:40:49Z</time>
      </trkpt>
      <trkpt lat="47.973927156999707" lon="11.472393767908216">
        <ele>554.81787109375</ele>
        <time>2013-06-15T07:40:57Z</time>
      </trkpt>
      <trkpt lat="47.97378265298903" lon="11.472592586651444">
        <ele>554.33740234375</ele>
        <time>2013-06-15T07:41:01Z</time>
      </trkpt>
      <trkpt lat="47.973638903349638" lon="11.472768019884825">
        <ele>554.81787109375</ele>
        <time>2013-06-15T07:41:05Z</time>
      </trkpt>
      <trkpt lat="47.973293568938971" lon="11.473157359287143">
        <ele>555.779296875</ele>
        <time>2013-06-15T07:41:13Z</time>
      </trkpt>
      <trkpt lat="47.973196003586054" lon="11.473245117813349">
        <ele>555.779296875</ele>
        <time>2013-06-15T07:41:15Z</time>
      </trkpt>
      <trkpt lat="47.972841449081898" lon="11.473549967631698">
        <ele>556.74072265625</ele>
        <time>2013-06-15T07:41:23Z</time>
      </trkpt>
      <trkpt lat="47.972726197913289" lon="11.473716432228684">
        <ele>556.74072265625</ele>
        <time>2013-06-15T07:41:26Z</time>
      </trkpt>
      <trkpt lat="47.972567863762379" lon="11.474116751924157">
        <ele>556.74072265625</ele>
        <time>2013-06-15T07:41:32Z</time>
      </trkpt>
      <trkpt lat="47.972468286752701" lon="11.474581612274051">
        <ele>557.221435546875</ele>
        <time>2013-06-15T07:41:38Z</time>
      </trkpt>
      <trkpt lat="47.972451439127326" lon="11.475388454273343">
        <ele>557.7021484375</ele>
        <time>2013-06-15T07:41:46Z</time>
      </trkpt>
      <trkpt lat="47.972548417747021" lon="11.476279031485319">
        <ele>558.182861328125</ele>
        <time>2013-06-15T07:41:59Z</time>
      </trkpt>
      <trkpt lat="47.972556129097939" lon="11.476330496370792">
        <ele>557.7021484375</ele>
        <time>2013-06-15T07:42:00Z</time>
      </trkpt>
      <trkpt lat="47.972483625635505" lon="11.476459242403507">
        <ele>557.7021484375</ele>
        <time>2013-06-15T07:42:05Z</time>
      </trkpt>
      <trkpt lat="47.972448756918311" lon="11.476439377292991">
        <ele>558.182861328125</ele>
        <time>2013-06-15T07:42:10Z</time>
      </trkpt>
      <trkpt lat="47.972433334216475" lon="11.476433593779802">
        <ele>558.182861328125</ele>
        <time>2013-06-15T07:42:21Z</time>
      </trkpt>
      <trkpt lat="47.972392681986094" lon="11.476417584344745">
        <ele>557.7021484375</ele>
        <time>2013-06-15T07:42:49Z</time>
      </trkpt>
      <trkpt lat="47.972160335630178" lon="11.476419596001506">
        <ele>557.221435546875</ele>
        <time>2013-06-15T07:42:55Z</time>
      </trkpt>
      <trkpt lat="47.972115827724338" lon="11.476411800831556">
        <ele>557.221435546875</ele>
        <time>2013-06-15T07:42:56Z</time>
      </trkpt>
      <trkpt lat="47.971953889355063" lon="11.476348014548421">
        <ele>557.221435546875</ele>
        <time>2013-06-15T07:43:00Z</time>
      </trkpt>
      <trkpt lat="47.971585169434547" lon="11.476445998996496">
        <ele>557.221435546875</ele>
        <time>2013-06-15T07:43:09Z</time>
      </trkpt>
      <trkpt lat="47.97095350921154" lon="11.476667448878288">
        <ele>556.74072265625</ele>
        <time>2013-06-15T07:43:24Z</time>
      </trkpt>
      <trkpt lat="47.970409775152802" lon="11.476869452744722">
        <ele>556.74072265625</ele>
        <time>2013-06-15T07:43:36Z</time>
      </trkpt>
      <trkpt lat="47.969879116863012" lon="11.477121077477932">
        <ele>556.260009765625</ele>
        <time>2013-06-15T07:43:48Z</time>
      </trkpt>
      <trkpt lat="47.969190962612629" lon="11.477403128519654">
        <ele>556.74072265625</ele>
        <time>2013-06-15T07:44:04Z</time>
      </trkpt>
      <trkpt lat="47.968601882457733" lon="11.477703787386417">
        <ele>556.74072265625</ele>
        <time>2013-06-15T07:44:17Z</time>
      </trkpt>
      <trkpt lat="47.968039456754923" lon="11.477956250309944">
        <ele>557.221435546875</ele>
        <time>2013-06-15T07:44:30Z</time>
      </trkpt>
      <trkpt lat="47.967480551451445" lon="11.478145094588399">
        <ele>556.74072265625</ele>
        <time>2013-06-15T07:44:42Z</time>
      </trkpt>
      <trkpt lat="47.966763647273183" lon="11.478248108178377">
        <ele>557.221435546875</ele>
        <time>2013-06-15T07:44:57Z</time>
      </trkpt>
      <trkpt lat="47.96618496067822" lon="11.478261183947325">
        <ele>557.7021484375</ele>
        <time>2013-06-15T07:45:09Z</time>
      </trkpt>
      <trkpt lat="47.96565287746489" lon="11.478092120960355">
        <ele>557.7021484375</ele>
        <time>2013-06-15T07:45:20Z</time>
      </trkpt>
      <trkpt lat="47.964916443452239" lon="11.477731028571725">
        <ele>556.74072265625</ele>
        <time>2013-06-15T07:45:35Z</time>
      </trkpt>
      <trkpt lat="47.964315377175808" lon="11.477663302794099">
        <ele>557.7021484375</ele>
        <time>2013-06-15T07:45:47Z</time>
      </trkpt>
      <trkpt lat="47.963692434132099" lon="11.477651819586754">
        <ele>558.663330078125</ele>
        <time>2013-06-15T07:46:00Z</time>
      </trkpt>
      <trkpt lat="47.963151298463345" lon="11.477488623932004">
        <ele>557.7021484375</ele>
        <time>2013-06-15T07:46:11Z</time>
      </trkpt>
      <trkpt lat="47.962506394833326" lon="11.4772245939821">
        <ele>556.74072265625</ele>
        <time>2013-06-15T07:46:23Z</time>
      </trkpt>
      <trkpt lat="47.961669377982616" lon="11.476929886266589">
        <ele>556.74072265625</ele>
        <time>2013-06-15T07:46:39Z</time>
      </trkpt>
      <trkpt lat="47.96095322817564" lon="11.476638950407505">
        <ele>557.221435546875</ele>
        <time>2013-06-15T07:46:53Z</time>
      </trkpt>
      <trkpt lat="47.960212854668498" lon="11.476280456408858">
        <ele>558.182861328125</ele>
        <time>2013-06-15T07:47:08Z</time>
      </trkpt>
      <trkpt lat="47.959595527499914" lon="11.475906874984503">
        <ele>558.182861328125</ele>
        <time>2013-06-15T07:47:21Z</time>
      </trkpt>
      <trkpt lat="47.959365444257855" lon="11.475752899423242">
        <ele>557.7021484375</ele>
        <time>2013-06-15T07:47:26Z</time>
      </trkpt>
      <trkpt lat="47.959225634112954" lon="11.475681150332093">
        <ele>558.182861328125</ele>
        <time>2013-06-15T07:47:29Z</time>
      </trkpt>
      <trkpt lat="47.958937715739012" lon="11.475439416244626">
        <ele>559.14404296875</ele>
        <time>2013-06-15T07:47:36Z</time>
      </trkpt>
      <trkpt lat="47.958738142624497" lon="11.475238669663668">
        <ele>559.624755859375</ele>
        <time>2013-06-15T07:47:42Z</time>
      </trkpt>
      <trkpt lat="47.958511160686612" lon="11.474823262542486">
        <ele>560.105224609375</ele>
        <time>2013-06-15T07:47:50Z</time>
      </trkpt>
      <trkpt lat="47.958354754373431" lon="11.474455296993256">
        <ele>558.663330078125</ele>
        <time>2013-06-15T07:47:56Z</time>
      </trkpt>
      <trkpt lat="47.958304798230529" lon="11.474236445501447">
        <ele>558.663330078125</ele>
        <time>2013-06-15T07:47:59Z</time>
      </trkpt>
      <trkpt lat="47.958135148510337" lon="11.473787762224674">
        <ele>558.182861328125</ele>
        <time>2013-06-15T07:48:05Z</time>
      </trkpt>
      <trkpt lat="47.958002714440227" lon="11.473512751981616">
        <ele>557.221435546875</ele>
        <time>2013-06-15T07:48:09Z</time>
      </trkpt>
      <trkpt lat="47.957860138267279" lon="11.473294654861093">
        <ele>557.221435546875</ele>
        <time>2013-06-15T07:48:13Z</time>
      </trkpt>
      <trkpt lat="47.957829292863607" lon="11.47324176505208">
        <ele>556.74072265625</ele>
        <time>2013-06-15T07:48:14Z</time>
      </trkpt>
      <trkpt lat="47.957704653963447" lon="11.473052334040403">
        <ele>557.221435546875</ele>
        <time>2013-06-15T07:48:18Z</time>
      </trkpt>
      <trkpt lat="47.957586133852601" lon="11.47287187166512">
        <ele>556.74072265625</ele>
        <time>2013-06-15T07:48:21Z</time>
      </trkpt>
      <trkpt lat="47.95732562430203" lon="11.472506253048778">
        <ele>557.221435546875</ele>
        <time>2013-06-15T07:48:27Z</time>
      </trkpt>
      <trkpt lat="47.957098474726081" lon="11.472094785422087">
        <ele>556.74072265625</ele>
        <time>2013-06-15T07:48:33Z</time>
      </trkpt>
      <trkpt lat="47.956808041781187" lon="11.471518948674202">
        <ele>557.7021484375</ele>
        <time>2013-06-15T07:48:42Z</time>
      </trkpt>
      <trkpt lat="47.956590363755822" lon="11.471091555431485">
        <ele>557.7021484375</ele>
        <time>2013-06-15T07:48:49Z</time>
      </trkpt>
      <trkpt lat="47.956530768424273" lon="11.470913775265217">
        <ele>557.221435546875</ele>
        <time>2013-06-15T07:48:52Z</time>
      </trkpt>
      <trkpt lat="47.956401603296399" lon="11.470630634576082">
        <ele>557.221435546875</ele>
        <time>2013-06-15T07:48:57Z</time>
      </trkpt>
      <trkpt lat="47.956341337412596" lon="11.470513204112649">
        <ele>557.221435546875</ele>
        <time>2013-06-15T07:48:59Z</time>
      </trkpt>
      <trkpt lat="47.956117456778884" lon="11.470100395381451">
        <ele>557.7021484375</ele>
        <time>2013-06-15T07:49:06Z</time>
      </trkpt>
      <trkpt lat="47.95594378374517" lon="11.469657076522708">
        <ele>557.7021484375</ele>
        <time>2013-06-15T07:49:13Z</time>
      </trkpt>
      <trkpt lat="47.955720825120807" lon="11.469270000234246">
        <ele>558.182861328125</ele>
        <time>2013-06-15T07:49:20Z</time>
      </trkpt>
      <trkpt lat="47.955498537048697" lon="11.468875128775835">
        <ele>558.182861328125</ele>
        <time>2013-06-15T07:49:27Z</time>
      </trkpt>
      <trkpt lat="47.955284714698792" lon="11.468448238447309">
        <ele>557.7021484375</ele>
        <time>2013-06-15T07:49:34Z</time>
      </trkpt>
      <trkpt lat="47.955150185152888" lon="11.468239696696401">
        <ele>558.182861328125</ele>
        <time>2013-06-15T07:49:38Z</time>
      </trkpt>
      <trkpt lat="47.954965028911829" lon="11.467917747795582">
        <ele>558.663330078125</ele>
        <time>2013-06-15T07:49:44Z</time>
      </trkpt>
      <trkpt lat="47.954782471060753" lon="11.467575682327151">
        <ele>558.663330078125</ele>
        <time>2013-06-15T07:49:50Z</time>
      </trkpt>
      <trkpt lat="47.95451014302671" lon="11.467113001272082">
        <ele>559.624755859375</ele>
        <time>2013-06-15T07:49:59Z</time>
      </trkpt>
      <trkpt lat="47.954186433926225" lon="11.46654118783772">
        <ele>560.5859375</ele>
        <time>2013-06-15T07:50:10Z</time>
      </trkpt>
      <trkpt lat="47.953847721219063" lon="11.465856805443764">
        <ele>560.5859375</ele>
        <time>2013-06-15T07:50:22Z</time>
      </trkpt>
      <trkpt lat="47.953410604968667" lon="11.464926246553659">
        <ele>560.5859375</ele>
        <time>2013-06-15T07:50:37Z</time>
      </trkpt>
      <trkpt lat="47.952943984419107" lon="11.463971715420485">
        <ele>560.5859375</ele>
        <time>2013-06-15T07:50:52Z</time>
      </trkpt>
      <trkpt lat="47.952573923394084" lon="11.463218601420522">
        <ele>561.54736328125</ele>
        <time>2013-06-15T07:51:04Z</time>
      </trkpt>
      <trkpt lat="47.952342415228486" lon="11.462623653933406">
        <ele>560.5859375</ele>
        <time>2013-06-15T07:51:13Z</time>
      </trkpt>
      <trkpt lat="47.952126413583755" lon="11.462028454989195">
        <ele>560.5859375</ele>
        <time>2013-06-15T07:51:22Z</time>
      </trkpt>
      <trkpt lat="47.951931869611144" lon="11.46161581389606">
        <ele>560.5859375</ele>
        <time>2013-06-15T07:51:29Z</time>
      </trkpt>
      <trkpt lat="47.951749563217163" lon="11.46128405816853">
        <ele>560.5859375</ele>
        <time>2013-06-15T07:51:35Z</time>
      </trkpt>
      <trkpt lat="47.951606567949057" lon="11.460986835882068">
        <ele>561.066650390625</ele>
        <time>2013-06-15T07:51:40Z</time>
      </trkpt>
      <trkpt lat="47.951462315395474" lon="11.460661366581917">
        <ele>560.105224609375</ele>
        <time>2013-06-15T07:51:45Z</time>
      </trkpt>
      <trkpt lat="47.951394254341722" lon="11.460375962778926">
        <ele>560.5859375</ele>
        <time>2013-06-15T07:51:49Z</time>
      </trkpt>
      <trkpt lat="47.951407833024859" lon="11.459834072738886">
        <ele>560.105224609375</ele>
        <time>2013-06-15T07:51:56Z</time>
      </trkpt>
      <trkpt lat="47.951435660943389" lon="11.459384802728891">
        <ele>560.5859375</ele>
        <time>2013-06-15T07:52:03Z</time>
      </trkpt>
      <trkpt lat="47.951413113623857" lon="11.459262259304523">
        <ele>560.105224609375</ele>
        <time>2013-06-15T07:52:05Z</time>
      </trkpt>
      <trkpt lat="47.951294593513012" lon="11.45895866677165">
        <ele>560.5859375</ele>
        <time>2013-06-15T07:52:11Z</time>
      </trkpt>
      <trkpt lat="47.951273303478956" lon="11.45890443585813">
        <ele>560.105224609375</ele>
        <time>2013-06-15T07:52:12Z</time>
      </trkpt>
      <trkpt lat="47.951150424778461" lon="11.458606626838446">
        <ele>560.5859375</ele>
        <time>2013-06-15T07:52:17Z</time>
      </trkpt>
      <trkpt lat="47.951052691787481" lon="11.458294065669179">
        <ele>560.5859375</ele>
        <time>2013-06-15T07:52:23Z</time>
      </trkpt>
      <trkpt lat="47.950992258265615" lon="11.458085272461176">
        <ele>560.5859375</ele>
        <time>2013-06-15T07:52:28Z</time>
      </trkpt>
      <trkpt lat="47.950827302411199" lon="11.457412037998438">
        <ele>560.5859375</ele>
        <time>2013-06-15T07:52:39Z</time>
      </trkpt>
      <trkpt lat="47.95072328299284" lon="11.456990428268909">
        <ele>560.5859375</ele>
        <time>2013-06-15T07:52:47Z</time>
      </trkpt>
      <trkpt lat="47.950611552223563" lon="11.456480473279953">
        <ele>561.066650390625</ele>
        <time>2013-06-15T07:52:55Z</time>
      </trkpt>
      <trkpt lat="47.950451793149114" lon="11.455739010125399">
        <ele>561.066650390625</ele>
        <time>2013-06-15T07:53:06Z</time>
      </trkpt>
      <trkpt lat="47.950386917218566" lon="11.455460814759135">
        <ele>560.5859375</ele>
        <time>2013-06-15T07:53:10Z</time>
      </trkpt>
      <trkpt lat="47.950323885306716" lon="11.45502763800323">
        <ele>560.5859375</ele>
        <time>2013-06-15T07:53:16Z</time>
      </trkpt>
      <trkpt lat="47.950300415977836" lon="11.454743156209588">
        <ele>560.5859375</ele>
        <time>2013-06-15T07:53:20Z</time>
      </trkpt>
      <trkpt lat="47.950277952477336" lon="11.454514497891068">
        <ele>560.105224609375</ele>
        <time>2013-06-15T07:53:23Z</time>
      </trkpt>
      <trkpt lat="47.950240317732096" lon="11.453960873186588">
        <ele>560.5859375</ele>
        <time>2013-06-15T07:53:31Z</time>
      </trkpt>
      <trkpt lat="47.950183739885688" lon="11.453232569620013">
        <ele>561.54736328125</ele>
        <time>2013-06-15T07:53:41Z</time>
      </trkpt>
      <trkpt lat="47.950146021321416" lon="11.452409802004695">
        <ele>560.5859375</ele>
        <time>2013-06-15T07:53:52Z</time>
      </trkpt>
      <trkpt lat="47.950142249464989" lon="11.451597595587373">
        <ele>561.066650390625</ele>
        <time>2013-06-15T07:54:03Z</time>
      </trkpt>
      <trkpt lat="47.950130514800549" lon="11.45144403912127">
        <ele>561.066650390625</ele>
        <time>2013-06-15T07:54:05Z</time>
      </trkpt>
      <trkpt lat="47.950082821771502" lon="11.450838781893253">
        <ele>561.54736328125</ele>
        <time>2013-06-15T07:54:13Z</time>
      </trkpt>
      <trkpt lat="47.950039152055979" lon="11.449927585199475">
        <ele>562.028076171875</ele>
        <time>2013-06-15T07:54:25Z</time>
      </trkpt>
      <trkpt lat="47.949939491227269" lon="11.449068440124393">
        <ele>561.54736328125</ele>
        <time>2013-06-15T07:54:36Z</time>
      </trkpt>
      <trkpt lat="47.949732290580869" lon="11.448444658890367">
        <ele>562.028076171875</ele>
        <time>2013-06-15T07:54:45Z</time>
      </trkpt>
      <trkpt lat="47.94970840215683" lon="11.448380118235946">
        <ele>561.54736328125</ele>
        <time>2013-06-15T07:54:46Z</time>
      </trkpt>
      <trkpt lat="47.94956280849874" lon="11.447972087189555">
        <ele>562.508544921875</ele>
        <time>2013-06-15T07:54:52Z</time>
      </trkpt>
      <trkpt lat="47.949436325579882" lon="11.447654161602259">
        <ele>562.508544921875</ele>
        <time>2013-06-15T07:54:57Z</time>
      </trkpt>
      <trkpt lat="47.949281930923462" lon="11.447339756414294">
        <ele>562.508544921875</ele>
        <time>2013-06-15T07:55:02Z</time>
      </trkpt>
      <trkpt lat="47.949024271219969" lon="11.446889145299792">
        <ele>562.028076171875</ele>
        <time>2013-06-15T07:55:10Z</time>
      </trkpt>
      <trkpt lat="47.948806844651699" lon="11.446599382907152">
        <ele>562.9892578125</ele>
        <time>2013-06-15T07:55:16Z</time>
      </trkpt>
      <trkpt lat="47.948493529111147" lon="11.446121111512184">
        <ele>562.9892578125</ele>
        <time>2013-06-15T07:55:25Z</time>
      </trkpt>
      <trkpt lat="47.948395041748881" lon="11.4459562394768">
        <ele>562.508544921875</ele>
        <time>2013-06-15T07:55:28Z</time>
      </trkpt>
      <trkpt lat="47.948296302929521" lon="11.445773178711534">
        <ele>562.9892578125</ele>
        <time>2013-06-15T07:55:31Z</time>
      </trkpt>
      <trkpt lat="47.947948202490807" lon="11.445404542610049">
        <ele>562.508544921875</ele>
        <time>2013-06-15T07:55:40Z</time>
      </trkpt>
      <trkpt lat="47.947866227477789" lon="11.445341343060136">
        <ele>562.9892578125</ele>
        <time>2013-06-15T07:55:42Z</time>
      </trkpt>
      <trkpt lat="47.947607059031725" lon="11.445162640884519">
        <ele>563.469970703125</ele>
        <time>2013-06-15T07:55:48Z</time>
      </trkpt>
      <trkpt lat="47.947275973856449" lon="11.444896599277854">
        <ele>564.43115234375</ele>
        <time>2013-06-15T07:55:56Z</time>
      </trkpt>
      <trkpt lat="47.947195172309875" lon="11.444828454405069">
        <ele>563.950439453125</ele>
        <time>2013-06-15T07:55:58Z</time>
      </trkpt>
      <trkpt lat="47.946850340813398" lon="11.444531064480543">
        <ele>563.950439453125</ele>
        <time>2013-06-15T07:56:06Z</time>
      </trkpt>
      <trkpt lat="47.946529733017087" lon="11.444212971255183">
        <ele>564.43115234375</ele>
        <time>2013-06-15T07:56:14Z</time>
      </trkpt>
      <trkpt lat="47.946281041949987" lon="11.444075256586075">
        <ele>565.392578125</ele>
        <time>2013-06-15T07:56:20Z</time>
      </trkpt>
      <trkpt lat="47.94607937335968" lon="11.44402320496738">
        <ele>565.392578125</ele>
        <time>2013-06-15T07:56:27Z</time>
      </trkpt>
      <trkpt lat="47.945893965661526" lon="11.443703016266227">
        <ele>565.392578125</ele>
        <time>2013-06-15T07:56:36Z</time>
      </trkpt>
      <trkpt lat="47.94575591571629" lon="11.443535126745701">
        <ele>566.353759765625</ele>
        <time>2013-06-15T07:56:43Z</time>
      </trkpt>
      <trkpt lat="47.945567490532994" lon="11.443561362102628">
        <ele>566.353759765625</ele>
        <time>2013-06-15T07:56:49Z</time>
      </trkpt>
      <trkpt lat="47.945217546075583" lon="11.443591453135014">
        <ele>566.353759765625</ele>
        <time>2013-06-15T07:56:58Z</time>
      </trkpt>
      <trkpt lat="47.945002550259233" lon="11.443526996299624">
        <ele>566.353759765625</ele>
        <time>2013-06-15T07:57:05Z</time>
      </trkpt>
      <trkpt lat="47.944766934961081" lon="11.443266486749053">
        <ele>566.83447265625</ele>
        <time>2013-06-15T07:57:13Z</time>
      </trkpt>
      <trkpt lat="47.944632153958082" lon="11.443381821736693">
        <ele>566.83447265625</ele>
        <time>2013-06-15T07:57:18Z</time>
      </trkpt>
      <trkpt lat="47.9446174018085" lon="11.443420881405473">
        <ele>566.83447265625</ele>
        <time>2013-06-15T07:57:24Z</time>
      </trkpt>
      <trkpt lat="47.944606253877282" lon="11.443429263308644">
        <ele>566.83447265625</ele>
        <time>2013-06-15T07:58:10Z</time>
      </trkpt>
      <trkpt lat="47.944478429853916" lon="11.443330105394125">
        <ele>566.83447265625</ele>
        <time>2013-06-15T07:58:16Z</time>
      </trkpt>
      <trkpt lat="47.94427877292037" lon="11.44316422753036">
        <ele>567.795654296875</ele>
        <time>2013-06-15T07:58:24Z</time>
      </trkpt>
      <trkpt lat="47.944118930026889" lon="11.443021567538381">
        <ele>567.795654296875</ele>
        <time>2013-06-15T07:58:31Z</time>
      </trkpt>
      <trkpt lat="47.943871160969138" lon="11.442855186760426">
        <ele>567.795654296875</ele>
        <time>2013-06-15T07:58:38Z</time>
      </trkpt>
      <trkpt lat="47.943679131567478" lon="11.442745802924037">
        <ele>567.795654296875</ele>
        <time>2013-06-15T07:58:43Z</time>
      </trkpt>
      <trkpt lat="47.943480396643281" lon="11.442638682201505">
        <ele>567.795654296875</ele>
        <time>2013-06-15T07:58:48Z</time>
      </trkpt>
      <trkpt lat="47.943240338936448" lon="11.442474815994501">
        <ele>567.795654296875</ele>
        <time>2013-06-15T07:58:54Z</time>
      </trkpt>
      <trkpt lat="47.942911935970187" lon="11.44235797226429">
        <ele>568.2763671875</ele>
        <time>2013-06-15T07:59:01Z</time>
      </trkpt>
      <trkpt lat="47.942775646224618" lon="11.442287480458617">
        <ele>568.2763671875</ele>
        <time>2013-06-15T07:59:04Z</time>
      </trkpt>
      <trkpt lat="47.942577581852674" lon="11.442190250381827">
        <ele>567.795654296875</ele>
        <time>2013-06-15T07:59:08Z</time>
      </trkpt>
      <trkpt lat="47.942187655717134" lon="11.442043734714389">
        <ele>568.2763671875</ele>
        <time>2013-06-15T07:59:15Z</time>
      </trkpt>
      <trkpt lat="47.941568400710821" lon="11.441855225712061">
        <ele>567.315185546875</ele>
        <time>2013-06-15T07:59:25Z</time>
      </trkpt>
      <trkpt lat="47.941208649426699" lon="11.44175891764462">
        <ele>566.83447265625</ele>
        <time>2013-06-15T07:59:31Z</time>
      </trkpt>
      <trkpt lat="47.940645385533571" lon="11.441593626514077">
        <ele>567.315185546875</ele>
        <time>2013-06-15T07:59:41Z</time>
      </trkpt>
      <trkpt lat="47.940529631450772" lon="11.441552052274346">
        <ele>567.795654296875</ele>
        <time>2013-06-15T07:59:43Z</time>
      </trkpt>
      <trkpt lat="47.940121684223413" lon="11.441543335095048">
        <ele>568.757080078125</ele>
        <time>2013-06-15T07:59:50Z</time>
      </trkpt>
      <trkpt lat="47.939528748393059" lon="11.441479632630944">
        <ele>567.795654296875</ele>
        <time>2013-06-15T08:00:00Z</time>
      </trkpt>
      <trkpt lat="47.939257258549333" lon="11.44141199067235">
        <ele>568.2763671875</ele>
        <time>2013-06-15T08:00:05Z</time>
      </trkpt>
      <trkpt lat="47.938717044889927" lon="11.441362537443638">
        <ele>568.2763671875</ele>
        <time>2013-06-15T08:00:14Z</time>
      </trkpt>
      <trkpt lat="47.938653090968728" lon="11.441359519958496">
        <ele>568.757080078125</ele>
        <time>2013-06-15T08:00:15Z</time>
      </trkpt>
      <trkpt lat="47.938368357717991" lon="11.441329093649983">
        <ele>569.23779296875</ele>
        <time>2013-06-15T08:00:20Z</time>
      </trkpt>
      <trkpt lat="47.938249334692955" lon="11.44132842309773">
        <ele>568.2763671875</ele>
        <time>2013-06-15T08:00:22Z</time>
      </trkpt>
      <trkpt lat="47.938017575070262" lon="11.441286094486713">
        <ele>568.757080078125</ele>
        <time>2013-06-15T08:00:26Z</time>
      </trkpt>
      <trkpt lat="47.937421286478639" lon="11.44131182692945">
        <ele>568.2763671875</ele>
        <time>2013-06-15T08:00:36Z</time>
      </trkpt>
      <trkpt lat="47.93725817464292" lon="11.441322723403573">
        <ele>569.718505859375</ele>
        <time>2013-06-15T08:00:39Z</time>
      </trkpt>
      <trkpt lat="47.937110150232911" lon="11.441285340115428">
        <ele>568.757080078125</ele>
        <time>2013-06-15T08:00:42Z</time>
      </trkpt>
      <trkpt lat="47.936736149713397" lon="11.441388772800565">
        <ele>568.757080078125</ele>
        <time>2013-06-15T08:00:48Z</time>
      </trkpt>
      <trkpt lat="47.936563063412905" lon="11.441452894359827">
        <ele>568.757080078125</ele>
        <time>2013-06-15T08:00:51Z</time>
      </trkpt>
      <trkpt lat="47.936295261606574" lon="11.441474352031946">
        <ele>567.795654296875</ele>
        <time>2013-06-15T08:00:56Z</time>
      </trkpt>
      <trkpt lat="47.936238180845976" lon="11.441487092524767">
        <ele>568.2763671875</ele>
        <time>2013-06-15T08:00:57Z</time>
      </trkpt>
      <trkpt lat="47.935868119820952" lon="11.441565463319421">
        <ele>568.2763671875</ele>
        <time>2013-06-15T08:01:03Z</time>
      </trkpt>
      <trkpt lat="47.9358034953475" lon="11.441592704504728">
        <ele>567.795654296875</ele>
        <time>2013-06-15T08:01:04Z</time>
      </trkpt>
      <trkpt lat="47.935236124321818" lon="11.441759755834937">
        <ele>567.315185546875</ele>
        <time>2013-06-15T08:01:13Z</time>
      </trkpt>
      <trkpt lat="47.935115676373243" lon="11.441829157993197">
        <ele>567.315185546875</ele>
        <time>2013-06-15T08:01:15Z</time>
      </trkpt>
      <trkpt lat="47.934878133237362" lon="11.441935943439603">
        <ele>566.83447265625</ele>
        <time>2013-06-15T08:01:19Z</time>
      </trkpt>
      <trkpt lat="47.93452424928546" lon="11.442123781889677">
        <ele>566.83447265625</ele>
        <time>2013-06-15T08:01:25Z</time>
      </trkpt>
      <trkpt lat="47.934036590158939" lon="11.442442294210196">
        <ele>567.795654296875</ele>
        <time>2013-06-15T08:01:33Z</time>
      </trkpt>
      <trkpt lat="47.933511631563306" lon="11.442840686067939">
        <ele>567.795654296875</ele>
        <time>2013-06-15T08:01:42Z</time>
      </trkpt>
      <trkpt lat="47.932988265529275" lon="11.44316028803587">
        <ele>568.2763671875</ele>
        <time>2013-06-15T08:01:51Z</time>
      </trkpt>
      <trkpt lat="47.932367417961359" lon="11.443518195301294">
        <ele>569.23779296875</ele>
        <time>2013-06-15T08:02:02Z</time>
      </trkpt>
      <trkpt lat="47.931880010291934" lon="11.443889681249857">
        <ele>568.757080078125</ele>
        <time>2013-06-15T08:02:11Z</time>
      </trkpt>
      <trkpt lat="47.931448677554727" lon="11.444148262962699">
        <ele>569.23779296875</ele>
        <time>2013-06-15T08:02:19Z</time>
      </trkpt>
      <trkpt lat="47.931341892108321" lon="11.444201404228806">
        <ele>568.757080078125</ele>
        <time>2013-06-15T08:02:21Z</time>
      </trkpt>
      <trkpt lat="47.930924389511347" lon="11.444427380338311">
        <ele>569.718505859375</ele>
        <time>2013-06-15T08:02:29Z</time>
      </trkpt>
      <trkpt lat="47.930379565805197" lon="11.444742288440466">
        <ele>569.718505859375</ele>
        <time>2013-06-15T08:02:39Z</time>
      </trkpt>
      <trkpt lat="47.930218633264303" lon="11.44483189098537">
        <ele>570.6796875</ele>
        <time>2013-06-15T08:02:42Z</time>
      </trkpt>
      <trkpt lat="47.929852763190866" lon="11.445044875144958">
        <ele>570.198974609375</ele>
        <time>2013-06-15T08:02:49Z</time>
      </trkpt>
      <trkpt lat="47.929698536172509" lon="11.445168759673834">
        <ele>570.198974609375</ele>
        <time>2013-06-15T08:02:52Z</time>
      </trkpt>
      <trkpt lat="47.929262006655335" lon="11.445429688319564">
        <ele>569.718505859375</ele>
        <time>2013-06-15T08:03:00Z</time>
      </trkpt>
      <trkpt lat="47.928889766335487" lon="11.44566941075027">
        <ele>570.198974609375</ele>
        <time>2013-06-15T08:03:07Z</time>
      </trkpt>
      <trkpt lat="47.928237235173583" lon="11.446053301915526">
        <ele>570.198974609375</ele>
        <time>2013-06-15T08:03:19Z</time>
      </trkpt>
      <trkpt lat="47.928085187450051" lon="11.446191687136889">
        <ele>569.718505859375</ele>
        <time>2013-06-15T08:03:22Z</time>
      </trkpt>
      <trkpt lat="47.927757287397981" lon="11.446376089006662">
        <ele>570.198974609375</ele>
        <time>2013-06-15T08:03:28Z</time>
      </trkpt>
      <trkpt lat="47.927275411784649" lon="11.446676664054394">
        <ele>571.160400390625</ele>
        <time>2013-06-15T08:03:37Z</time>
      </trkpt>
      <trkpt lat="47.926829578354955" lon="11.446909764781594">
        <ele>571.160400390625</ele>
        <time>2013-06-15T08:03:45Z</time>
      </trkpt>
      <trkpt lat="47.926349882036448" lon="11.447215871885419">
        <ele>571.160400390625</ele>
        <time>2013-06-15T08:03:54Z</time>
      </trkpt>
      <trkpt lat="47.925912262871861" lon="11.447475962340832">
        <ele>570.6796875</ele>
        <time>2013-06-15T08:04:02Z</time>
      </trkpt>
      <trkpt lat="47.925349920988083" lon="11.447790283709764">
        <ele>571.160400390625</ele>
        <time>2013-06-15T08:04:12Z</time>
      </trkpt>
      <trkpt lat="47.925181612372398" lon="11.447879131883383">
        <ele>572.121826171875</ele>
        <time>2013-06-15T08:04:15Z</time>
      </trkpt>
      <trkpt lat="47.924815155565739" lon="11.44807493314147">
        <ele>571.640869140625</ele>
        <time>2013-06-15T08:04:22Z</time>
      </trkpt>
      <trkpt lat="47.924419110640883" lon="11.448280960321426">
        <ele>572.121826171875</ele>
        <time>2013-06-15T08:04:30Z</time>
      </trkpt>
      <trkpt lat="47.923981407657266" lon="11.44854499027133">
        <ele>572.121826171875</ele>
        <time>2013-06-15T08:04:38Z</time>
      </trkpt>
      <trkpt lat="47.923877807334065" lon="11.448620343580842">
        <ele>572.6025390625</ele>
        <time>2013-06-15T08:04:40Z</time>
      </trkpt>
      <trkpt lat="47.923694998025894" lon="11.448710197582841">
        <ele>572.6025390625</ele>
        <time>2013-06-15T08:04:44Z</time>
      </trkpt>
      <trkpt lat="47.923366511240602" lon="11.448949333280325">
        <ele>573.083251953125</ele>
        <time>2013-06-15T08:04:50Z</time>
      </trkpt>
      <trkpt lat="47.922932580113411" lon="11.449232138693333">
        <ele>573.083251953125</ele>
        <time>2013-06-15T08:04:58Z</time>
      </trkpt>
      <trkpt lat="47.921985341235995" lon="11.449786350131035">
        <ele>574.04443359375</ele>
        <time>2013-06-15T08:05:15Z</time>
      </trkpt>
      <trkpt lat="47.921767579391599" lon="11.44991216249764">
        <ele>574.525146484375</ele>
        <time>2013-06-15T08:05:19Z</time>
      </trkpt>
      <trkpt lat="47.921521821990609" lon="11.449943510815501">
        <ele>573.083251953125</ele>
        <time>2013-06-15T08:05:23Z</time>
      </trkpt>
      <trkpt lat="47.920745490118861" lon="11.449797665700316">
        <ele>573.56396484375</ele>
        <time>2013-06-15T08:05:36Z</time>
      </trkpt>
      <trkpt lat="47.920223968103528" lon="11.449894225224853">
        <ele>572.6025390625</ele>
        <time>2013-06-15T08:05:45Z</time>
      </trkpt>
      <trkpt lat="47.919903108850121" lon="11.449707057327032">
        <ele>574.04443359375</ele>
        <time>2013-06-15T08:05:51Z</time>
      </trkpt>
      <trkpt lat="47.919352082535625" lon="11.449072463437915">
        <ele>574.525146484375</ele>
        <time>2013-06-15T08:06:03Z</time>
      </trkpt>
      <trkpt lat="47.919077407568693" lon="11.448935503140092">
        <ele>574.525146484375</ele>
        <time>2013-06-15T08:06:09Z</time>
      </trkpt>
      <trkpt lat="47.918978417292237" lon="11.448885044082999">
        <ele>574.04443359375</ele>
        <time>2013-06-15T08:06:11Z</time>
      </trkpt>
      <trkpt lat="47.918824777007103" lon="11.448832992464304">
        <ele>575.005859375</ele>
        <time>2013-06-15T08:06:14Z</time>
      </trkpt>
      <trkpt lat="47.918523866683245" lon="11.448948830366135">
        <ele>575.486328125</ele>
        <time>2013-06-15T08:06:20Z</time>
      </trkpt>
      <trkpt lat="47.918168222531676" lon="11.449210261926055">
        <ele>575.967041015625</ele>
        <time>2013-06-15T08:06:28Z</time>
      </trkpt>
      <trkpt lat="47.91805942542851" lon="11.449249321594834">
        <ele>576.44775390625</ele>
        <time>2013-06-15T08:06:33Z</time>
      </trkpt>
      <trkpt lat="47.918056827038527" lon="11.449231635779142">
        <ele>575.967041015625</ele>
        <time>2013-06-15T08:06:47Z</time>
      </trkpt>
      <trkpt lat="47.918056240305305" lon="11.449234066531062">
        <ele>576.44775390625</ele>
        <time>2013-06-15T08:07:43Z</time>
      </trkpt>
      <trkpt lat="47.91794853284955" lon="11.449032481759787">
        <ele>575.005859375</ele>
        <time>2013-06-15T08:07:49Z</time>
      </trkpt>
      <trkpt lat="47.917674276977777" lon="11.448512552306056">
        <ele>575.005859375</ele>
        <time>2013-06-15T08:07:57Z</time>
      </trkpt>
      <trkpt lat="47.917487444356084" lon="11.448170738294721">
        <ele>575.486328125</ele>
        <time>2013-06-15T08:08:02Z</time>
      </trkpt>
      <trkpt lat="47.917130878195167" lon="11.447396082803607">
        <ele>575.967041015625</ele>
        <time>2013-06-15T08:08:13Z</time>
      </trkpt>
      <trkpt lat="47.916928874328732" lon="11.446753609925508">
        <ele>576.928466796875</ele>
        <time>2013-06-15T08:08:22Z</time>
      </trkpt>
      <trkpt lat="47.91663458570838" lon="11.445763958618045">
        <ele>577.8896484375</ele>
        <time>2013-06-15T08:08:36Z</time>
      </trkpt>
      <trkpt lat="47.916517071425915" lon="11.44537185318768">
        <ele>576.928466796875</ele>
        <time>2013-06-15T08:08:42Z</time>
      </trkpt>
      <trkpt lat="47.916427133604884" lon="11.445072870701551">
        <ele>576.44775390625</ele>
        <time>2013-06-15T08:08:47Z</time>
      </trkpt>
      <trkpt lat="47.916147764772177" lon="11.444534752517939">
        <ele>575.005859375</ele>
        <time>2013-06-15T08:08:56Z</time>
      </trkpt>
      <trkpt lat="47.915818523615599" lon="11.444196458905935">
        <ele>575.005859375</ele>
        <time>2013-06-15T08:09:03Z</time>
      </trkpt>
      <trkpt lat="47.915776697918773" lon="11.444168966263533">
        <ele>575.486328125</ele>
        <time>2013-06-15T08:09:04Z</time>
      </trkpt>
      <trkpt lat="47.915763622149825" lon="11.444052206352353">
        <ele>575.967041015625</ele>
        <time>2013-06-15T08:09:08Z</time>
      </trkpt>
      <trkpt lat="47.915920531377196" lon="11.444059498608112">
        <ele>575.005859375</ele>
        <time>2013-06-15T08:09:12Z</time>
      </trkpt>
      <trkpt lat="47.916066711768508" lon="11.444151615723968">
        <ele>575.486328125</ele>
        <time>2013-06-15T08:09:16Z</time>
      </trkpt>
      <trkpt lat="47.916227728128433" lon="11.444275416433811">
        <ele>575.486328125</ele>
        <time>2013-06-15T08:09:20Z</time>
      </trkpt>
      <trkpt lat="47.916524363681674" lon="11.444742372259498">
        <ele>575.005859375</ele>
        <time>2013-06-15T08:09:29Z</time>
      </trkpt>
      <trkpt lat="47.916552443057299" lon="11.444807248190045">
        <ele>576.44775390625</ele>
        <time>2013-06-15T08:09:30Z</time>
      </trkpt>
      <trkpt lat="47.916696695610881" lon="11.44528585486114">
        <ele>573.083251953125</ele>
        <time>2013-06-15T08:09:36Z</time>
      </trkpt>
      <trkpt lat="47.916645985096693" lon="11.445541502907872">
        <ele>573.083251953125</ele>
        <time>2013-06-15T08:09:40Z</time>
      </trkpt>
      <trkpt lat="47.916597118601203" lon="11.445562457665801">
        <ele>571.640869140625</ele>
        <time>2013-06-15T08:09:41Z</time>
      </trkpt>
      <trkpt lat="47.916366197168827" lon="11.445577880367637">
        <ele>571.640869140625</ele>
        <time>2013-06-15T08:09:46Z</time>
      </trkpt>
      <trkpt lat="47.916313894093037" lon="11.445408146828413">
        <ele>573.56396484375</ele>
        <time>2013-06-15T08:09:49Z</time>
      </trkpt>
      <trkpt lat="47.916267290711403" lon="11.445204466581345">
        <ele>573.56396484375</ele>
        <time>2013-06-15T08:09:54Z</time>
      </trkpt>
      <trkpt lat="47.916170144453645" lon="11.445209244266152">
        <ele>574.04443359375</ele>
        <time>2013-06-15T08:09:58Z</time>
      </trkpt>
      <trkpt lat="47.916078362613916" lon="11.445278478786349">
        <ele>572.6025390625</ele>
        <time>2013-06-15T08:10:02Z</time>
      </trkpt>
      <trkpt lat="47.915884740650654" lon="11.445339415222406">
        <ele>573.083251953125</ele>
        <time>2013-06-15T08:10:08Z</time>
      </trkpt>
      <trkpt lat="47.915717102587223" lon="11.445457683876157">
        <ele>573.56396484375</ele>
        <time>2013-06-15T08:10:13Z</time>
      </trkpt>
      <trkpt lat="47.915463382378221" lon="11.445623310282826">
        <ele>574.04443359375</ele>
        <time>2013-06-15T08:10:20Z</time>
      </trkpt>
      <trkpt lat="47.915184181183577" lon="11.445706123486161">
        <ele>573.56396484375</ele>
        <time>2013-06-15T08:10:26Z</time>
      </trkpt>
      <trkpt lat="47.915048059076071" lon="11.445746691897511">
        <ele>574.04443359375</ele>
        <time>2013-06-15T08:10:29Z</time>
      </trkpt>
      <trkpt lat="47.9148168861866" lon="11.445767898112535">
        <ele>575.005859375</ele>
        <time>2013-06-15T08:10:35Z</time>
      </trkpt>
      <trkpt lat="47.914626281708479" lon="11.445857081562281">
        <ele>574.04443359375</ele>
        <time>2013-06-15T08:10:40Z</time>
      </trkpt>
      <trkpt lat="47.914456883445382" lon="11.44590494222939">
        <ele>574.04443359375</ele>
        <time>2013-06-15T08:10:44Z</time>
      </trkpt>
      <trkpt lat="47.914274074137211" lon="11.445997897535563">
        <ele>574.04443359375</ele>
        <time>2013-06-15T08:10:49Z</time>
      </trkpt>
      <trkpt lat="47.913858080282807" lon="11.446287408471107">
        <ele>574.04443359375</ele>
        <time>2013-06-15T08:10:57Z</time>
      </trkpt>
      <trkpt lat="47.913649706169963" lon="11.44637499935925">
        <ele>574.525146484375</ele>
        <time>2013-06-15T08:11:02Z</time>
      </trkpt>
      <trkpt lat="47.913514338433743" lon="11.446385895833373">
        <ele>574.04443359375</ele>
        <time>2013-06-15T08:11:05Z</time>
      </trkpt>
      <trkpt lat="47.913384335115552" lon="11.446406431496143">
        <ele>573.56396484375</ele>
        <time>2013-06-15T08:11:08Z</time>
      </trkpt>
      <trkpt lat="47.9133041203022" lon="11.446430571377277">
        <ele>574.04443359375</ele>
        <time>2013-06-15T08:11:10Z</time>
      </trkpt>
      <trkpt lat="47.913102619349957" lon="11.446512462571263">
        <ele>574.04443359375</ele>
        <time>2013-06-15T08:11:15Z</time>
      </trkpt>
      <trkpt lat="47.91298845782876" lon="11.446574740111828">
        <ele>575.005859375</ele>
        <time>2013-06-15T08:11:18Z</time>
      </trkpt>
      <trkpt lat="47.912836326286197" lon="11.446645399555564">
        <ele>574.525146484375</ele>
        <time>2013-06-15T08:11:21Z</time>
      </trkpt>
      <trkpt lat="47.912606494501233" lon="11.446789568290114">
        <ele>574.04443359375</ele>
        <time>2013-06-15T08:11:25Z</time>
      </trkpt>
      <trkpt lat="47.912172982469201" lon="11.446986710652709">
        <ele>574.525146484375</ele>
        <time>2013-06-15T08:11:33Z</time>
      </trkpt>
      <trkpt lat="47.911899229511619" lon="11.44708008505404">
        <ele>574.525146484375</ele>
        <time>2013-06-15T08:11:39Z</time>
      </trkpt>
      <trkpt lat="47.911808453500271" lon="11.447129035368562">
        <ele>575.005859375</ele>
        <time>2013-06-15T08:11:41Z</time>
      </trkpt>
      <trkpt lat="47.911504190415144" lon="11.447256607934833">
        <ele>575.005859375</ele>
        <time>2013-06-15T08:11:48Z</time>
      </trkpt>
      <trkpt lat="47.911300007253885" lon="11.447345204651356">
        <ele>575.005859375</ele>
        <time>2013-06-15T08:11:53Z</time>
      </trkpt>
      <trkpt lat="47.911216272041202" lon="11.447395496070385">
        <ele>575.005859375</ele>
        <time>2013-06-15T08:11:55Z</time>
      </trkpt>
      <trkpt lat="47.911104373633862" lon="11.447677630931139">
        <ele>575.486328125</ele>
        <time>2013-06-15T08:12:00Z</time>
      </trkpt>
      <trkpt lat="47.911031702533364" lon="11.447974517941475">
        <ele>575.486328125</ele>
        <time>2013-06-15T08:12:04Z</time>
      </trkpt>
      <trkpt lat="47.910845372825861" lon="11.448238715529442">
        <ele>574.525146484375</ele>
        <time>2013-06-15T08:12:09Z</time>
      </trkpt>
      <trkpt lat="47.910615624859929" lon="11.448368886485696">
        <ele>574.525146484375</ele>
        <time>2013-06-15T08:12:14Z</time>
      </trkpt>
      <trkpt lat="47.910431558266282" lon="11.448414400219917">
        <ele>573.56396484375</ele>
        <time>2013-06-15T08:12:20Z</time>
      </trkpt>
      <trkpt lat="47.910346481949091" lon="11.448462260887027">
        <ele>573.083251953125</ele>
        <time>2013-06-15T08:12:22Z</time>
      </trkpt>
      <trkpt lat="47.91004884056747" lon="11.448603831231594">
        <ele>573.083251953125</ele>
        <time>2013-06-15T08:12:29Z</time>
      </trkpt>
      <trkpt lat="47.90996334515512" lon="11.448666695505381">
        <ele>573.083251953125</ele>
        <time>2013-06-15T08:12:31Z</time>
      </trkpt>
      <trkpt lat="47.909788582473993" lon="11.448724530637264">
        <ele>573.56396484375</ele>
        <time>2013-06-15T08:12:35Z</time>
      </trkpt>
      <trkpt lat="47.909417264163494" lon="11.448900131508708">
        <ele>574.04443359375</ele>
        <time>2013-06-15T08:12:44Z</time>
      </trkpt>
      <trkpt lat="47.909200508147478" lon="11.448958553373814">
        <ele>573.56396484375</ele>
        <time>2013-06-15T08:12:49Z</time>
      </trkpt>
      <trkpt lat="47.909112414345145" lon="11.449007587507367">
        <ele>573.56396484375</ele>
        <time>2013-06-15T08:12:51Z</time>
      </trkpt>
      <trkpt lat="47.908999677747488" lon="11.449101213365793">
        <ele>574.04443359375</ele>
        <time>2013-06-15T08:12:54Z</time>
      </trkpt>
      <trkpt lat="47.908853832632303" lon="11.449290392920375">
        <ele>575.005859375</ele>
        <time>2013-06-15T08:12:58Z</time>
      </trkpt>
      <trkpt lat="47.90859080851078" lon="11.449389383196831">
        <ele>575.486328125</ele>
        <time>2013-06-15T08:13:05Z</time>
      </trkpt>
      <trkpt lat="47.908385368064046" lon="11.449403967708349">
        <ele>575.005859375</ele>
        <time>2013-06-15T08:13:10Z</time>
      </trkpt>
      <trkpt lat="47.908296100795269" lon="11.449384354054928">
        <ele>575.486328125</ele>
        <time>2013-06-15T08:13:12Z</time>
      </trkpt>
      <trkpt lat="47.908112118020654" lon="11.449315790086985">
        <ele>575.486328125</ele>
        <time>2013-06-15T08:13:16Z</time>
      </trkpt>
      <trkpt lat="47.907930817455053" lon="11.449166592210531">
        <ele>574.525146484375</ele>
        <time>2013-06-15T08:13:21Z</time>
      </trkpt>
      <trkpt lat="47.907803831622005" lon="11.449004150927067">
        <ele>575.486328125</ele>
        <time>2013-06-15T08:13:25Z</time>
      </trkpt>
      <trkpt lat="47.907577101141214" lon="11.44879418425262">
        <ele>575.967041015625</ele>
        <time>2013-06-15T08:13:31Z</time>
      </trkpt>
      <trkpt lat="47.907372079789639" lon="11.448551779612899">
        <ele>576.928466796875</ele>
        <time>2013-06-15T08:13:37Z</time>
      </trkpt>
      <trkpt lat="47.907150965183973" lon="11.448157327249646">
        <ele>575.486328125</ele>
        <time>2013-06-15T08:13:44Z</time>
      </trkpt>
      <trkpt lat="47.906968239694834" lon="11.447750553488731">
        <ele>575.486328125</ele>
        <time>2013-06-15T08:13:51Z</time>
      </trkpt>
      <trkpt lat="47.906944435089827" lon="11.447699004784226">
        <ele>575.486328125</ele>
        <time>2013-06-15T08:13:52Z</time>
      </trkpt>
      <trkpt lat="47.906748969107866" lon="11.447305139154196">
        <ele>576.44775390625</ele>
        <time>2013-06-15T08:13:59Z</time>
      </trkpt>
      <trkpt lat="47.906640339642763" lon="11.447006911039352">
        <ele>576.44775390625</ele>
        <time>2013-06-15T08:14:04Z</time>
      </trkpt>
      <trkpt lat="47.906584516167641" lon="11.446772888302803">
        <ele>576.928466796875</ele>
        <time>2013-06-15T08:14:08Z</time>
      </trkpt>
      <trkpt lat="47.906492650508881" lon="11.446581445634365">
        <ele>577.8896484375</ele>
        <time>2013-06-15T08:14:12Z</time>
      </trkpt>
      <trkpt lat="47.906411597505212" lon="11.446588989347219">
        <ele>578.370361328125</ele>
        <time>2013-06-15T08:14:17Z</time>
      </trkpt>
      <trkpt lat="47.906200373545289" lon="11.446758052334189">
        <ele>578.370361328125</ele>
        <time>2013-06-15T08:14:24Z</time>
      </trkpt>
      <trkpt lat="47.90612468495965" lon="11.446763500571251">
        <ele>578.85107421875</ele>
        <time>2013-06-15T08:14:28Z</time>
      </trkpt>
      <trkpt lat="47.906149411574006" lon="11.446780767291784">
        <ele>578.85107421875</ele>
        <time>2013-06-15T08:14:38Z</time>
      </trkpt>
      <trkpt lat="47.906134575605392" lon="11.44678981974721">
        <ele>579.33154296875</ele>
        <time>2013-06-15T08:16:09Z</time>
      </trkpt>
      <trkpt lat="47.906043380498886" lon="11.446847906336188">
        <ele>578.85107421875</ele>
        <time>2013-06-15T08:16:14Z</time>
      </trkpt>
      <trkpt lat="47.905755797401071" lon="11.447004731744528">
        <ele>577.8896484375</ele>
        <time>2013-06-15T08:16:22Z</time>
      </trkpt>
      <trkpt lat="47.905622189864516" lon="11.447071703150868">
        <ele>577.4091796875</ele>
        <time>2013-06-15T08:16:27Z</time>
      </trkpt>
      <trkpt lat="47.905502412468195" lon="11.447181841358542">
        <ele>577.4091796875</ele>
        <time>2013-06-15T08:16:31Z</time>
      </trkpt>
      <trkpt lat="47.905382551252842" lon="11.447289884090424">
        <ele>577.4091796875</ele>
        <time>2013-06-15T08:16:37Z</time>
      </trkpt>
      <trkpt lat="47.905185576528311" lon="11.447462467476726">
        <ele>577.4091796875</ele>
        <time>2013-06-15T08:16:42Z</time>
      </trkpt>
      <trkpt lat="47.905029589310288" lon="11.447671093046665">
        <ele>577.4091796875</ele>
        <time>2013-06-15T08:16:48Z</time>
      </trkpt>
      <trkpt lat="47.904845103621483" lon="11.447799587622285">
        <ele>578.85107421875</ele>
        <time>2013-06-15T08:16:53Z</time>
      </trkpt>
      <trkpt lat="47.904475210234523" lon="11.44812430255115">
        <ele>577.8896484375</ele>
        <time>2013-06-15T08:17:01Z</time>
      </trkpt>
      <trkpt lat="47.904437743127346" lon="11.448165457695723">
        <ele>578.370361328125</ele>
        <time>2013-06-15T08:17:02Z</time>
      </trkpt>
      <trkpt lat="47.904309500008821" lon="11.448361761868">
        <ele>577.8896484375</ele>
        <time>2013-06-15T08:17:06Z</time>
      </trkpt>
      <trkpt lat="47.904219729825854" lon="11.448450777679682">
        <ele>578.370361328125</ele>
        <time>2013-06-15T08:17:08Z</time>
      </trkpt>
      <trkpt lat="47.904135407879949" lon="11.448507523164153">
        <ele>577.8896484375</ele>
        <time>2013-06-15T08:17:10Z</time>
      </trkpt>
      <trkpt lat="47.903994591906667" lon="11.448616655543447">
        <ele>578.370361328125</ele>
        <time>2013-06-15T08:17:13Z</time>
      </trkpt>
      <trkpt lat="47.90376509539783" lon="11.448852103203535">
        <ele>578.370361328125</ele>
        <time>2013-06-15T08:17:20Z</time>
      </trkpt>
      <trkpt lat="47.903682952746749" lon="11.44888554699719">
        <ele>579.33154296875</ele>
        <time>2013-06-15T08:17:22Z</time>
      </trkpt>
      <trkpt lat="47.903559654951096" lon="11.448818240314722">
        <ele>578.85107421875</ele>
        <time>2013-06-15T08:17:26Z</time>
      </trkpt>
      <trkpt lat="47.903408696874976" lon="11.448925193399191">
        <ele>579.812255859375</ele>
        <time>2013-06-15T08:17:31Z</time>
      </trkpt>
      <trkpt lat="47.90316897444427" lon="11.449111104011536">
        <ele>578.85107421875</ele>
        <time>2013-06-15T08:17:36Z</time>
      </trkpt>
      <trkpt lat="47.903059590607882" lon="11.449274383485317">
        <ele>579.33154296875</ele>
        <time>2013-06-15T08:17:39Z</time>
      </trkpt>
      <trkpt lat="47.902940483763814" lon="11.449428861960769">
        <ele>578.85107421875</ele>
        <time>2013-06-15T08:17:42Z</time>
      </trkpt>
      <trkpt lat="47.902843253687024" lon="11.449499605223536">
        <ele>578.85107421875</ele>
        <time>2013-06-15T08:17:44Z</time>
      </trkpt>
      <trkpt lat="47.902544187381864" lon="11.449544280767441">
        <ele>578.85107421875</ele>
        <time>2013-06-15T08:17:50Z</time>
      </trkpt>
      <trkpt lat="47.902441676706076" lon="11.4494704362005">
        <ele>579.33154296875</ele>
        <time>2013-06-15T08:17:53Z</time>
      </trkpt>
      <trkpt lat="47.902290467172861" lon="11.44946557469666">
        <ele>578.85107421875</ele>
        <time>2013-06-15T08:17:56Z</time>
      </trkpt>
      <trkpt lat="47.902190135791898" lon="11.44941913895309">
        <ele>579.812255859375</ele>
        <time>2013-06-15T08:17:58Z</time>
      </trkpt>
      <trkpt lat="47.902036160230637" lon="11.449271701276302">
        <ele>579.33154296875</ele>
        <time>2013-06-15T08:18:03Z</time>
      </trkpt>
      <trkpt lat="47.901790319010615" lon="11.449180925264955">
        <ele>579.33154296875</ele>
        <time>2013-06-15T08:18:09Z</time>
      </trkpt>
      <trkpt lat="47.901639360934496" lon="11.449077911674976">
        <ele>578.85107421875</ele>
        <time>2013-06-15T08:18:14Z</time>
      </trkpt>
      <trkpt lat="47.901557134464383" lon="11.44903214648366">
        <ele>579.33154296875</ele>
        <time>2013-06-15T08:18:16Z</time>
      </trkpt>
      <trkpt lat="47.901333421468735" lon="11.449029548093677">
        <ele>579.33154296875</ele>
        <time>2013-06-15T08:18:21Z</time>
      </trkpt>
      <trkpt lat="47.901034774258733" lon="11.449104649946094">
        <ele>579.812255859375</ele>
        <time>2013-06-15T08:18:28Z</time>
      </trkpt>
      <trkpt lat="47.900838134810328" lon="11.449208837002516">
        <ele>579.812255859375</ele>
        <time>2013-06-15T08:18:34Z</time>
      </trkpt>
      <trkpt lat="47.900669239461422" lon="11.449241107329726">
        <ele>579.33154296875</ele>
        <time>2013-06-15T08:18:39Z</time>
      </trkpt>
      <trkpt lat="47.900426164269447" lon="11.449359292164445">
        <ele>578.85107421875</ele>
        <time>2013-06-15T08:18:45Z</time>
      </trkpt>
      <trkpt lat="47.900306973606348" lon="11.449411008507013">
        <ele>579.812255859375</ele>
        <time>2013-06-15T08:18:48Z</time>
      </trkpt>
      <trkpt lat="47.900134809315205" lon="11.449501113966107">
        <ele>578.85107421875</ele>
        <time>2013-06-15T08:18:52Z</time>
      </trkpt>
      <trkpt lat="47.899894416332245" lon="11.449642684310675">
        <ele>578.85107421875</ele>
        <time>2013-06-15T08:18:57Z</time>
      </trkpt>
      <trkpt lat="47.899702219292521" lon="11.449703620746732">
        <ele>579.33154296875</ele>
        <time>2013-06-15T08:19:01Z</time>
      </trkpt>
      <trkpt lat="47.899281363934278" lon="11.449912497773767">
        <ele>578.85107421875</ele>
        <time>2013-06-15T08:19:09Z</time>
      </trkpt>
      <trkpt lat="47.898984141647816" lon="11.450100168585777">
        <ele>579.33154296875</ele>
        <time>2013-06-15T08:19:15Z</time>
      </trkpt>
      <trkpt lat="47.898779204115272" lon="11.450169822201133">
        <ele>578.85107421875</ele>
        <time>2013-06-15T08:19:19Z</time>
      </trkpt>
      <trkpt lat="47.898348290473223" lon="11.45037392154336">
        <ele>579.33154296875</ele>
        <time>2013-06-15T08:19:28Z</time>
      </trkpt>
      <trkpt lat="47.898005554452538" lon="11.450453633442521">
        <ele>579.812255859375</ele>
        <time>2013-06-15T08:19:35Z</time>
      </trkpt>
      <trkpt lat="47.897766167297959" lon="11.450580535456538">
        <ele>579.33154296875</ele>
        <time>2013-06-15T08:19:40Z</time>
      </trkpt>
      <trkpt lat="47.897594589740038" lon="11.450797459110618">
        <ele>578.85107421875</ele>
        <time>2013-06-15T08:19:45Z</time>
      </trkpt>
      <trkpt lat="47.897458886727691" lon="11.450928971171379">
        <ele>578.85107421875</ele>
        <time>2013-06-15T08:19:48Z</time>
      </trkpt>
      <trkpt lat="47.897278927266598" lon="11.451055034995079">
        <ele>579.812255859375</ele>
        <time>2013-06-15T08:19:53Z</time>
      </trkpt>
      <trkpt lat="47.897105338051915" lon="11.451139189302921">
        <ele>579.812255859375</ele>
        <time>2013-06-15T08:19:57Z</time>
      </trkpt>
      <trkpt lat="47.896927306428552" lon="11.451269863173366">
        <ele>579.812255859375</ele>
        <time>2013-06-15T08:20:01Z</time>
      </trkpt>
      <trkpt lat="47.896547438576818" lon="11.451538922265172">
        <ele>579.812255859375</ele>
        <time>2013-06-15T08:20:09Z</time>
      </trkpt>
      <trkpt lat="47.896326407790184" lon="11.451799599453807">
        <ele>580.29296875</ele>
        <time>2013-06-15T08:20:15Z</time>
      </trkpt>
      <trkpt lat="47.896283911541104" lon="11.451855842024088">
        <ele>580.29296875</ele>
        <time>2013-06-15T08:20:16Z</time>
      </trkpt>
      <trkpt lat="47.896067155525088" lon="11.452042674645782">
        <ele>579.812255859375</ele>
        <time>2013-06-15T08:20:21Z</time>
      </trkpt>
      <trkpt lat="47.895942432805896" lon="11.452140156179667">
        <ele>580.773681640625</ele>
        <time>2013-06-15T08:20:24Z</time>
      </trkpt>
      <trkpt lat="47.895857356488705" lon="11.452238811179996">
        <ele>579.33154296875</ele>
        <time>2013-06-15T08:20:26Z</time>
      </trkpt>
      <trkpt lat="47.895689886063337" lon="11.452566627413034">
        <ele>579.33154296875</ele>
        <time>2013-06-15T08:20:31Z</time>
      </trkpt>
      <trkpt lat="47.895632553845644" lon="11.452646087855101">
        <ele>580.29296875</ele>
        <time>2013-06-15T08:20:33Z</time>
      </trkpt>
      <trkpt lat="47.895535072311759" lon="11.452798554673791">
        <ele>580.29296875</ele>
        <time>2013-06-15T08:20:36Z</time>
      </trkpt>
      <trkpt lat="47.895393334329128" lon="11.453188564628363">
        <ele>580.29296875</ele>
        <time>2013-06-15T08:20:42Z</time>
      </trkpt>
      <trkpt lat="47.895309682935476" lon="11.453308677300811">
        <ele>580.773681640625</ele>
        <time>2013-06-15T08:20:44Z</time>
      </trkpt>
      <trkpt lat="47.895111618563533" lon="11.453757025301456">
        <ele>580.29296875</ele>
        <time>2013-06-15T08:20:51Z</time>
      </trkpt>
      <trkpt lat="47.895084545016289" lon="11.453820141032338">
        <ele>580.29296875</ele>
        <time>2013-06-15T08:20:52Z</time>
      </trkpt>
      <trkpt lat="47.895011622458696" lon="11.45390136167407">
        <ele>580.29296875</ele>
        <time>2013-06-15T08:20:54Z</time>
      </trkpt>
      <trkpt lat="47.89488966576755" lon="11.454001273959875">
        <ele>580.773681640625</ele>
        <time>2013-06-15T08:20:57Z</time>
      </trkpt>
      <trkpt lat="47.894755303859711" lon="11.454270081594586">
        <ele>580.773681640625</ele>
        <time>2013-06-15T08:21:02Z</time>
      </trkpt>
      <trkpt lat="47.894722362980247" lon="11.454401845112443">
        <ele>580.773681640625</ele>
        <time>2013-06-15T08:21:04Z</time>
      </trkpt>
      <trkpt lat="47.894628066569567" lon="11.454599155113101">
        <ele>580.29296875</ele>
        <time>2013-06-15T08:21:07Z</time>
      </trkpt>
      <trkpt lat="47.894572159275413" lon="11.454731673002243">
        <ele>580.29296875</ele>
        <time>2013-06-15T08:21:09Z</time>
      </trkpt>
      <trkpt lat="47.894457494840026" lon="11.455025374889374">
        <ele>580.29296875</ele>
        <time>2013-06-15T08:21:14Z</time>
      </trkpt>
      <trkpt lat="47.894375687465072" lon="11.455290829762816">
        <ele>578.85107421875</ele>
        <time>2013-06-15T08:21:17Z</time>
      </trkpt>
      <trkpt lat="47.894324474036694" lon="11.455446146428585">
        <ele>578.85107421875</ele>
        <time>2013-06-15T08:21:19Z</time>
      </trkpt>
      <trkpt lat="47.894297149032354" lon="11.455575143918395">
        <ele>579.812255859375</ele>
        <time>2013-06-15T08:21:21Z</time>
      </trkpt>
      <trkpt lat="47.894220873713493" lon="11.455758037045598">
        <ele>581.25439453125</ele>
        <time>2013-06-15T08:21:24Z</time>
      </trkpt>
      <trkpt lat="47.894191034138203" lon="11.455802042037249">
        <ele>581.25439453125</ele>
        <time>2013-06-15T08:21:25Z</time>
      </trkpt>
      <trkpt lat="47.894008392468095" lon="11.456153243780136">
        <ele>580.773681640625</ele>
        <time>2013-06-15T08:21:32Z</time>
      </trkpt>
      <trkpt lat="47.893930273130536" lon="11.456366898491979">
        <ele>581.25439453125</ele>
        <time>2013-06-15T08:21:36Z</time>
      </trkpt>
      <trkpt lat="47.893917532637715" lon="11.456418447196484">
        <ele>581.73486328125</ele>
        <time>2013-06-15T08:21:37Z</time>
      </trkpt>
      <trkpt lat="47.893720138818026" lon="11.456684488803148">
        <ele>580.773681640625</ele>
        <time>2013-06-15T08:21:43Z</time>
      </trkpt>
      <trkpt lat="47.893689880147576" lon="11.4567163400352">
        <ele>581.25439453125</ele>
        <time>2013-06-15T08:21:44Z</time>
      </trkpt>
      <trkpt lat="47.893611006438732" lon="11.45682480186224">
        <ele>580.773681640625</ele>
        <time>2013-06-15T08:21:46Z</time>
      </trkpt>
      <trkpt lat="47.893468849360943" lon="11.457082210108638">
        <ele>581.25439453125</ele>
        <time>2013-06-15T08:21:50Z</time>
      </trkpt>
      <trkpt lat="47.893278747797012" lon="11.457337187603116">
        <ele>581.73486328125</ele>
        <time>2013-06-15T08:21:56Z</time>
      </trkpt>
      <trkpt lat="47.893238430842757" lon="11.457365602254868">
        <ele>581.73486328125</ele>
        <time>2013-06-15T08:21:57Z</time>
      </trkpt>
      <trkpt lat="47.893111780285835" lon="11.457572719082236">
        <ele>580.773681640625</ele>
        <time>2013-06-15T08:22:01Z</time>
      </trkpt>
      <trkpt lat="47.892945231869817" lon="11.457854434847832">
        <ele>581.25439453125</ele>
        <time>2013-06-15T08:22:05Z</time>
      </trkpt>
      <trkpt lat="47.892760327085853" lon="11.458246456459165">
        <ele>580.773681640625</ele>
        <time>2013-06-15T08:22:11Z</time>
      </trkpt>
      <trkpt lat="47.892734259366989" lon="11.458316780626774">
        <ele>581.25439453125</ele>
        <time>2013-06-15T08:22:12Z</time>
      </trkpt>
      <trkpt lat="47.89257500320673" lon="11.458594221621752">
        <ele>581.25439453125</ele>
        <time>2013-06-15T08:22:17Z</time>
      </trkpt>
      <trkpt lat="47.892326982691884" lon="11.459098476916552">
        <ele>581.73486328125</ele>
        <time>2013-06-15T08:22:24Z</time>
      </trkpt>
      <trkpt lat="47.892255820333958" lon="11.459275837987661">
        <ele>582.215576171875</ele>
        <time>2013-06-15T08:22:27Z</time>
      </trkpt>
      <trkpt lat="47.892130259424448" lon="11.459730723872781">
        <ele>582.215576171875</ele>
        <time>2013-06-15T08:22:33Z</time>
      </trkpt>
      <trkpt lat="47.892089774832129" lon="11.459885118529201">
        <ele>581.25439453125</ele>
        <time>2013-06-15T08:22:35Z</time>
      </trkpt>
      <trkpt lat="47.892023893073201" lon="11.460129618644714">
        <ele>581.73486328125</ele>
        <time>2013-06-15T08:22:38Z</time>
      </trkpt>
      <trkpt lat="47.891914006322622" lon="11.460416363552213">
        <ele>580.773681640625</ele>
        <time>2013-06-15T08:22:42Z</time>
      </trkpt>
      <trkpt lat="47.891856422647834" lon="11.460623564198613">
        <ele>580.773681640625</ele>
        <time>2013-06-15T08:22:45Z</time>
      </trkpt>
      <trkpt lat="47.891744188964367" lon="11.460799416527152">
        <ele>581.73486328125</ele>
        <time>2013-06-15T08:22:49Z</time>
      </trkpt>
      <trkpt lat="47.891582082957029" lon="11.460817605257034">
        <ele>582.6962890625</ele>
        <time>2013-06-15T08:22:55Z</time>
      </trkpt>
      <trkpt lat="47.891555596143007" lon="11.46083009429276">
        <ele>582.6962890625</ele>
        <time>2013-06-15T08:22:56Z</time>
      </trkpt>
      <trkpt lat="47.891495749354362" lon="11.460896646603942">
        <ele>581.73486328125</ele>
        <time>2013-06-15T08:22:58Z</time>
      </trkpt>
      <trkpt lat="47.89143112488091" lon="11.460951548069715">
        <ele>582.6962890625</ele>
        <time>2013-06-15T08:23:01Z</time>
      </trkpt>
      <trkpt lat="47.891323585063219" lon="11.460896814242005">
        <ele>582.215576171875</ele>
        <time>2013-06-15T08:23:08Z</time>
      </trkpt>
      <trkpt lat="47.891306988894939" lon="11.461005778983235">
        <ele>582.6962890625</ele>
        <time>2013-06-15T08:23:17Z</time>
      </trkpt>
      <trkpt lat="47.891311682760715" lon="11.461073756217957">
        <ele>581.73486328125</ele>
        <time>2013-06-15T08:24:22Z</time>
      </trkpt>
      <trkpt lat="47.891345378011465" lon="11.461301324889064">
        <ele>581.73486328125</ele>
        <time>2013-06-15T08:24:29Z</time>
      </trkpt>
      <trkpt lat="47.891358286142349" lon="11.461566276848316">
        <ele>582.215576171875</ele>
        <time>2013-06-15T08:24:34Z</time>
      </trkpt>
      <trkpt lat="47.891312688589096" lon="11.461947150528431">
        <ele>582.215576171875</ele>
        <time>2013-06-15T08:24:41Z</time>
      </trkpt>
      <trkpt lat="47.891252087429166" lon="11.462174467742443">
        <ele>582.6962890625</ele>
        <time>2013-06-15T08:24:45Z</time>
      </trkpt>
      <trkpt lat="47.891090651974082" lon="11.462498512119055">
        <ele>582.6962890625</ele>
        <time>2013-06-15T08:24:51Z</time>
      </trkpt>
      <trkpt lat="47.891025776043534" lon="11.462521981447935">
        <ele>582.215576171875</ele>
        <time>2013-06-15T08:24:53Z</time>
      </trkpt>
      <trkpt lat="47.89088286459446" lon="11.462797662243247">
        <ele>581.73486328125</ele>
        <time>2013-06-15T08:24:58Z</time>
      </trkpt>
      <trkpt lat="47.890871381387115" lon="11.462919702753425">
        <ele>582.215576171875</ele>
        <time>2013-06-15T08:25:00Z</time>
      </trkpt>
      <trkpt lat="47.890783622860909" lon="11.463405434042215">
        <ele>581.73486328125</ele>
        <time>2013-06-15T08:25:07Z</time>
      </trkpt>
      <trkpt lat="47.890586480498314" lon="11.463804077357054">
        <ele>582.215576171875</ele>
        <time>2013-06-15T08:25:13Z</time>
      </trkpt>
      <trkpt lat="47.890454465523362" lon="11.463979762047529">
        <ele>581.73486328125</ele>
        <time>2013-06-15T08:25:16Z</time>
      </trkpt>
      <trkpt lat="47.890365868806839" lon="11.464204983785748">
        <ele>582.6962890625</ele>
        <time>2013-06-15T08:25:20Z</time>
      </trkpt>
      <trkpt lat="47.890265872702003" lon="11.464484184980392">
        <ele>582.6962890625</ele>
        <time>2013-06-15T08:25:24Z</time>
      </trkpt>
      <trkpt lat="47.890165792778134" lon="11.464780317619443">
        <ele>582.6962890625</ele>
        <time>2013-06-15T08:25:30Z</time>
      </trkpt>
      <trkpt lat="47.890130337327719" lon="11.464890874922276">
        <ele>582.6962890625</ele>
        <time>2013-06-15T08:25:32Z</time>
      </trkpt>
      <trkpt lat="47.890086751431227" lon="11.465030601248145">
        <ele>582.6962890625</ele>
        <time>2013-06-15T08:25:34Z</time>
      </trkpt>
      <trkpt lat="47.890054900199175" lon="11.465172423049808">
        <ele>582.6962890625</ele>
        <time>2013-06-15T08:25:36Z</time>
      </trkpt>
      <trkpt lat="47.889828337356448" lon="11.465782793238759">
        <ele>582.6962890625</ele>
        <time>2013-06-15T08:25:46Z</time>
      </trkpt>
      <trkpt lat="47.889705877751112" lon="11.466022431850433">
        <ele>582.6962890625</ele>
        <time>2013-06-15T08:25:51Z</time>
      </trkpt>
      <trkpt lat="47.88957143202424" lon="11.466406071558595">
        <ele>583.1767578125</ele>
        <time>2013-06-15T08:25:58Z</time>
      </trkpt>
      <trkpt lat="47.889445787295699" lon="11.466706646606326">
        <ele>582.6962890625</ele>
        <time>2013-06-15T08:26:05Z</time>
      </trkpt>
      <trkpt lat="47.889317711815238" lon="11.467319950461388">
        <ele>582.6962890625</ele>
        <time>2013-06-15T08:26:13Z</time>
      </trkpt>
      <trkpt lat="47.889249064028263" lon="11.467541819438338">
        <ele>583.1767578125</ele>
        <time>2013-06-15T08:26:16Z</time>
      </trkpt>
      <trkpt lat="47.889045551419258" lon="11.46821228787303">
        <ele>583.657470703125</ele>
        <time>2013-06-15T08:26:25Z</time>
      </trkpt>
      <trkpt lat="47.888942454010248" lon="11.468567093834281">
        <ele>584.13818359375</ele>
        <time>2013-06-15T08:26:30Z</time>
      </trkpt>
      <trkpt lat="47.888695439323783" lon="11.468979567289352">
        <ele>584.618896484375</ele>
        <time>2013-06-15T08:26:38Z</time>
      </trkpt>
      <trkpt lat="47.888619918376207" lon="11.469099428504705">
        <ele>584.13818359375</ele>
        <time>2013-06-15T08:26:40Z</time>
      </trkpt>
      <trkpt lat="47.888358319178224" lon="11.46964056417346">
        <ele>584.13818359375</ele>
        <time>2013-06-15T08:26:48Z</time>
      </trkpt>
      <trkpt lat="47.88805615156889" lon="11.470154039561749">
        <ele>584.618896484375</ele>
        <time>2013-06-15T08:26:56Z</time>
      </trkpt>
      <trkpt lat="47.88798431865871" lon="11.470292005687952">
        <ele>584.618896484375</ele>
        <time>2013-06-15T08:26:58Z</time>
      </trkpt>
      <trkpt lat="47.887867977842689" lon="11.470477832481265">
        <ele>583.657470703125</ele>
        <time>2013-06-15T08:27:01Z</time>
      </trkpt>
      <trkpt lat="47.887767981737852" lon="11.470674639567733">
        <ele>584.13818359375</ele>
        <time>2013-06-15T08:27:04Z</time>
      </trkpt>
      <trkpt lat="47.88768382743001" lon="11.470894748345017">
        <ele>584.13818359375</ele>
        <time>2013-06-15T08:27:07Z</time>
      </trkpt>
      <trkpt lat="47.887235730886459" lon="11.471645263954997">
        <ele>585.099609375</ele>
        <time>2013-06-15T08:27:19Z</time>
      </trkpt>
      <trkpt lat="47.886779252439737" lon="11.47232067771256">
        <ele>585.099609375</ele>
        <time>2013-06-15T08:27:31Z</time>
      </trkpt>
      <trkpt lat="47.886641621589661" lon="11.472575655207038">
        <ele>585.099609375</ele>
        <time>2013-06-15T08:27:35Z</time>
      </trkpt>
      <trkpt lat="47.886528298258781" lon="11.472873631864786">
        <ele>585.099609375</ele>
        <time>2013-06-15T08:27:39Z</time>
      </trkpt>
      <trkpt lat="47.886445485055447" lon="11.473094746470451">
        <ele>585.580078125</ele>
        <time>2013-06-15T08:27:42Z</time>
      </trkpt>
      <trkpt lat="47.88621841929853" lon="11.473337402567267">
        <ele>584.13818359375</ele>
        <time>2013-06-15T08:27:47Z</time>
      </trkpt>
      <trkpt lat="47.885675942525268" lon="11.473464975133538">
        <ele>584.618896484375</ele>
        <time>2013-06-15T08:27:57Z</time>
      </trkpt>
      <trkpt lat="47.885248800739646" lon="11.473600929602981">
        <ele>585.580078125</ele>
        <time>2013-06-15T08:28:05Z</time>
      </trkpt>
      <trkpt lat="47.885087616741657" lon="11.473652645945549">
        <ele>585.580078125</ele>
        <time>2013-06-15T08:28:08Z</time>
      </trkpt>
      <trkpt lat="47.88494654931128" lon="11.47366002202034">
        <ele>587.02197265625</ele>
        <time>2013-06-15T08:28:11Z</time>
      </trkpt>
      <trkpt lat="47.884793998673558" lon="11.473694639280438">
        <ele>586.54150390625</ele>
        <time>2013-06-15T08:28:15Z</time>
      </trkpt>
      <trkpt lat="47.884674808010459" lon="11.47379538975656">
        <ele>586.54150390625</ele>
        <time>2013-06-15T08:28:18Z</time>
      </trkpt>
      <trkpt lat="47.884373646229506" lon="11.474080123007298">
        <ele>587.02197265625</ele>
        <time>2013-06-15T08:28:25Z</time>
      </trkpt>
      <trkpt lat="47.8840665332973" lon="11.474131504073739">
        <ele>587.02197265625</ele>
        <time>2013-06-15T08:28:31Z</time>
      </trkpt>
      <trkpt lat="47.88392823189497" lon="11.474022539332509">
        <ele>587.02197265625</ele>
        <time>2013-06-15T08:28:34Z</time>
      </trkpt>
      <trkpt lat="47.883828151971102" lon="11.473901085555553">
        <ele>587.9833984375</ele>
        <time>2013-06-15T08:28:37Z</time>
      </trkpt>
      <trkpt lat="47.883719271048903" lon="11.473774267360568">
        <ele>587.02197265625</ele>
        <time>2013-06-15T08:28:40Z</time>
      </trkpt>
      <trkpt lat="47.883633356541395" lon="11.473697572946548">
        <ele>587.02197265625</ele>
        <time>2013-06-15T08:28:42Z</time>
      </trkpt>
      <trkpt lat="47.883317274972796" lon="11.473355004563928">
        <ele>587.02197265625</ele>
        <time>2013-06-15T08:28:50Z</time>
      </trkpt>
      <trkpt lat="47.883134800940752" lon="11.473180074244738">
        <ele>587.02197265625</ele>
        <time>2013-06-15T08:28:56Z</time>
      </trkpt>
      <trkpt lat="47.882748059928417" lon="11.472849911078811">
        <ele>587.9833984375</ele>
        <time>2013-06-15T08:29:05Z</time>
      </trkpt>
      <trkpt lat="47.882242714986205" lon="11.472599795088172">
        <ele>588.945068359375</ele>
        <time>2013-06-15T08:29:16Z</time>
      </trkpt>
      <trkpt lat="47.881881706416607" lon="11.472521089017391">
        <ele>588.46435546875</ele>
        <time>2013-06-15T08:29:25Z</time>
      </trkpt>
      <trkpt lat="47.881784979254007" lon="11.472598956897855">
        <ele>589.425537109375</ele>
        <time>2013-06-15T08:29:30Z</time>
      </trkpt>
      <trkpt lat="47.881783973425627" lon="11.472621001303196">
        <ele>588.945068359375</ele>
        <time>2013-06-15T08:29:34Z</time>
      </trkpt>
      <trkpt lat="47.881771232932806" lon="11.472825855016708">
        <ele>588.46435546875</ele>
        <time>2013-06-15T08:29:40Z</time>
      </trkpt>
      <trkpt lat="47.881643157452345" lon="11.473296917974949">
        <ele>588.945068359375</ele>
        <time>2013-06-15T08:29:47Z</time>
      </trkpt>
      <trkpt lat="47.881305702030659" lon="11.474218759685755">
        <ele>587.502685546875</ele>
        <time>2013-06-15T08:30:00Z</time>
      </trkpt>
      <trkpt lat="47.880996996536851" lon="11.474910015240312">
        <ele>587.02197265625</ele>
        <time>2013-06-15T08:30:10Z</time>
      </trkpt>
      <trkpt lat="47.880962882190943" lon="11.474975477904081">
        <ele>586.060791015625</ele>
        <time>2013-06-15T08:30:11Z</time>
      </trkpt>
      <trkpt lat="47.880847547203302" lon="11.475146971642971">
        <ele>587.502685546875</ele>
        <time>2013-06-15T08:30:14Z</time>
      </trkpt>
      <trkpt lat="47.880535824224353" lon="11.475421898066998">
        <ele>587.9833984375</ele>
        <time>2013-06-15T08:30:21Z</time>
      </trkpt>
      <trkpt lat="47.879990665242076" lon="11.47567268460989">
        <ele>587.9833984375</ele>
        <time>2013-06-15T08:30:32Z</time>
      </trkpt>
      <trkpt lat="47.87956134416163" lon="11.475789612159133">
        <ele>588.46435546875</ele>
        <time>2013-06-15T08:30:40Z</time>
      </trkpt>
      <trkpt lat="47.879462772980332" lon="11.475815596058965">
        <ele>587.9833984375</ele>
        <time>2013-06-15T08:30:42Z</time>
      </trkpt>
      <trkpt lat="47.879147361963987" lon="11.47587695159018">
        <ele>588.46435546875</ele>
        <time>2013-06-15T08:30:49Z</time>
      </trkpt>
      <trkpt lat="47.87901065312326" lon="11.475905366241932">
        <ele>588.46435546875</ele>
        <time>2013-06-15T08:30:52Z</time>
      </trkpt>
      <trkpt lat="47.878680154681206" lon="11.475986838340759">
        <ele>589.90625</ele>
        <time>2013-06-15T08:30:59Z</time>
      </trkpt>
      <trkpt lat="47.878505056723952" lon="11.476114075630903">
        <ele>590.867431640625</ele>
        <time>2013-06-15T08:31:03Z</time>
      </trkpt>
      <trkpt lat="47.878345716744661" lon="11.476223124191165">
        <ele>589.90625</ele>
        <time>2013-06-15T08:31:07Z</time>
      </trkpt>
      <trkpt lat="47.87807984277606" lon="11.47639243863523">
        <ele>590.386962890625</ele>
        <time>2013-06-15T08:31:13Z</time>
      </trkpt>
      <trkpt lat="47.877952270209789" lon="11.476422613486648">
        <ele>590.386962890625</ele>
        <time>2013-06-15T08:31:16Z</time>
      </trkpt>
      <trkpt lat="47.877575755119324" lon="11.476639956235886">
        <ele>589.90625</ele>
        <time>2013-06-15T08:31:24Z</time>
      </trkpt>
      <trkpt lat="47.877168310806155" lon="11.476846570149064">
        <ele>588.46435546875</ele>
        <time>2013-06-15T08:31:31Z</time>
      </trkpt>
      <trkpt lat="47.876640250906348" lon="11.477033318951726">
        <ele>589.425537109375</ele>
        <time>2013-06-15T08:31:40Z</time>
      </trkpt>
      <trkpt lat="47.87658903747797" lon="11.477041868492961">
        <ele>589.425537109375</ele>
        <time>2013-06-15T08:31:41Z</time>
      </trkpt>
      <trkpt lat="47.876301119104028" lon="11.477014878764749">
        <ele>590.867431640625</ele>
        <time>2013-06-15T08:31:47Z</time>
      </trkpt>
      <trkpt lat="47.87603298202157" lon="11.477117892354727">
        <ele>591.34814453125</ele>
        <time>2013-06-15T08:31:52Z</time>
      </trkpt>
      <trkpt lat="47.875880850479007" lon="11.477224174886942">
        <ele>591.34814453125</ele>
        <time>2013-06-15T08:31:55Z</time>
      </trkpt>
      <trkpt lat="47.875436274334788" lon="11.477417964488268">
        <ele>591.34814453125</ele>
        <time>2013-06-15T08:32:04Z</time>
      </trkpt>
      <trkpt lat="47.875335942953825" lon="11.477470519021153">
        <ele>591.828857421875</ele>
        <time>2013-06-15T08:32:06Z</time>
      </trkpt>
      <trkpt lat="47.875081216916442" lon="11.477469764649868">
        <ele>591.828857421875</ele>
        <time>2013-06-15T08:32:11Z</time>
      </trkpt>
      <trkpt lat="47.874643849208951" lon="11.477588368579745">
        <ele>591.828857421875</ele>
        <time>2013-06-15T08:32:19Z</time>
      </trkpt>
      <trkpt lat="47.874264400452375" lon="11.477957088500261">
        <ele>592.3095703125</ele>
        <time>2013-06-15T08:32:27Z</time>
      </trkpt>
      <trkpt lat="47.87407111376524" lon="11.478108130395412">
        <ele>591.828857421875</ele>
        <time>2013-06-15T08:32:31Z</time>
      </trkpt>
      <trkpt lat="47.873661993071437" lon="11.478359252214432">
        <ele>592.3095703125</ele>
        <time>2013-06-15T08:32:39Z</time>
      </trkpt>
      <trkpt lat="47.873256644234061" lon="11.478424128144979">
        <ele>592.790283203125</ele>
        <time>2013-06-15T08:32:46Z</time>
      </trkpt>
      <trkpt lat="47.873085485771298" lon="11.478393115103245">
        <ele>593.270751953125</ele>
        <time>2013-06-15T08:32:50Z</time>
      </trkpt>
      <trkpt lat="47.872922960668802" lon="11.478226482868195">
        <ele>593.270751953125</ele>
        <time>2013-06-15T08:32:54Z</time>
      </trkpt>
      <trkpt lat="47.872819611802697" lon="11.47814366966486">
        <ele>592.790283203125</ele>
        <time>2013-06-15T08:32:56Z</time>
      </trkpt>
      <trkpt lat="47.872591791674495" lon="11.478182980790734">
        <ele>593.270751953125</ele>
        <time>2013-06-15T08:33:00Z</time>
      </trkpt>
      <trkpt lat="47.87237411364913" lon="11.478220531716943">
        <ele>593.270751953125</ele>
        <time>2013-06-15T08:33:04Z</time>
      </trkpt>
      <trkpt lat="47.872204799205065" lon="11.478263949975371">
        <ele>593.270751953125</ele>
        <time>2013-06-15T08:33:07Z</time>
      </trkpt>
      <trkpt lat="47.871876312419772" lon="11.478475173935294">
        <ele>593.270751953125</ele>
        <time>2013-06-15T08:33:13Z</time>
      </trkpt>
      <trkpt lat="47.871531145647168" lon="11.478921845555305">
        <ele>593.75146484375</ele>
        <time>2013-06-15T08:33:21Z</time>
      </trkpt>
      <trkpt lat="47.87135973572731" lon="11.479233484715223">
        <ele>592.790283203125</ele>
        <time>2013-06-15T08:33:26Z</time>
      </trkpt>
      <trkpt lat="47.8712048381567" lon="11.479561803862453">
        <ele>593.270751953125</ele>
        <time>2013-06-15T08:33:31Z</time>
      </trkpt>
      <trkpt lat="47.871016329154372" lon="11.479872269555926">
        <ele>593.75146484375</ele>
        <time>2013-06-15T08:33:36Z</time>
      </trkpt>
      <trkpt lat="47.870637131854892" lon="11.480269571766257">
        <ele>593.270751953125</ele>
        <time>2013-06-15T08:33:46Z</time>
      </trkpt>
      <trkpt lat="47.870608046650887" lon="11.480308044701815">
        <ele>593.75146484375</ele>
        <time>2013-06-15T08:33:47Z</time>
      </trkpt>
      <trkpt lat="47.870327001437545" lon="11.480570398271084">
        <ele>593.270751953125</ele>
        <time>2013-06-15T08:33:54Z</time>
      </trkpt>
      <trkpt lat="47.870193058624864" lon="11.480706436559558">
        <ele>594.232177734375</ele>
        <time>2013-06-15T08:33:57Z</time>
      </trkpt>
      <trkpt lat="47.86999549716711" lon="11.480814730748534">
        <ele>594.232177734375</ele>
        <time>2013-06-15T08:34:01Z</time>
      </trkpt>
      <trkpt lat="47.869695341214538" lon="11.480933586135507">
        <ele>594.712646484375</ele>
        <time>2013-06-15T08:34:07Z</time>
      </trkpt>
      <trkpt lat="47.869600877165794" lon="11.481007430702448">
        <ele>594.232177734375</ele>
        <time>2013-06-15T08:34:09Z</time>
      </trkpt>
      <trkpt lat="47.869285466149449" lon="11.481385789811611">
        <ele>594.712646484375</ele>
        <time>2013-06-15T08:34:16Z</time>
      </trkpt>
      <trkpt lat="47.86895421333611" lon="11.48184796795249">
        <ele>594.712646484375</ele>
        <time>2013-06-15T08:34:24Z</time>
      </trkpt>
      <trkpt lat="47.868921104818583" lon="11.481903875246644">
        <ele>594.232177734375</ele>
        <time>2013-06-15T08:34:25Z</time>
      </trkpt>
      <trkpt lat="47.868766291067004" lon="11.482253652065992">
        <ele>594.712646484375</ele>
        <time>2013-06-15T08:34:30Z</time>
      </trkpt>
      <trkpt lat="47.868697056546807" lon="11.48238642141223">
        <ele>594.712646484375</ele>
        <time>2013-06-15T08:34:32Z</time>
      </trkpt>
      <trkpt lat="47.868460267782211" lon="11.482839798554778">
        <ele>594.232177734375</ele>
        <time>2013-06-15T08:34:39Z</time>
      </trkpt>
      <trkpt lat="47.868358511477709" lon="11.483043394982815">
        <ele>593.75146484375</ele>
        <time>2013-06-15T08:34:42Z</time>
      </trkpt>
      <trkpt lat="47.868109988048673" lon="11.483551589772105">
        <ele>595.193359375</ele>
        <time>2013-06-15T08:34:50Z</time>
      </trkpt>
      <trkpt lat="47.868030359968543" lon="11.483678407967091">
        <ele>595.674072265625</ele>
        <time>2013-06-15T08:34:52Z</time>
      </trkpt>
      <trkpt lat="47.867898512631655" lon="11.483870437368751">
        <ele>595.193359375</ele>
        <time>2013-06-15T08:34:55Z</time>
      </trkpt>
      <trkpt lat="47.86780497059226" lon="11.483973786234856">
        <ele>595.193359375</ele>
        <time>2013-06-15T08:34:57Z</time>
      </trkpt>
      <trkpt lat="47.867709752172232" lon="11.484040170907974">
        <ele>594.712646484375</ele>
        <time>2013-06-15T08:34:59Z</time>
      </trkpt>
      <trkpt lat="47.867450919002295" lon="11.484142933040857">
        <ele>595.193359375</ele>
        <time>2013-06-15T08:35:04Z</time>
      </trkpt>
      <trkpt lat="47.867228128015995" lon="11.48436832241714">
        <ele>594.232177734375</ele>
        <time>2013-06-15T08:35:09Z</time>
      </trkpt>
      <trkpt lat="47.867029393091798" lon="11.484669903293252">
        <ele>594.232177734375</ele>
        <time>2013-06-15T08:35:14Z</time>
      </trkpt>
      <trkpt lat="47.866802830249071" lon="11.48494390770793">
        <ele>594.712646484375</ele>
        <time>2013-06-15T08:35:19Z</time>
      </trkpt>
      <trkpt lat="47.866673246026039" lon="11.485106684267521">
        <ele>594.712646484375</ele>
        <time>2013-06-15T08:35:22Z</time>
      </trkpt>
      <trkpt lat="47.866374682635069" lon="11.485467776656151">
        <ele>595.193359375</ele>
        <time>2013-06-15T08:35:29Z</time>
      </trkpt>
      <trkpt lat="47.866261610761285" lon="11.485623512417078">
        <ele>595.674072265625</ele>
        <time>2013-06-15T08:35:32Z</time>
      </trkpt>
      <trkpt lat="47.865961287170649" lon="11.485782600939274">
        <ele>594.712646484375</ele>
        <time>2013-06-15T08:35:38Z</time>
      </trkpt>
      <trkpt lat="47.865754589438438" lon="11.485994160175323">
        <ele>594.712646484375</ele>
        <time>2013-06-15T08:35:42Z</time>
      </trkpt>
      <trkpt lat="47.865669345483184" lon="11.486141094937921">
        <ele>595.193359375</ele>
        <time>2013-06-15T08:35:44Z</time>
      </trkpt>
      <trkpt lat="47.865532385185361" lon="11.486492212861776">
        <ele>595.193359375</ele>
        <time>2013-06-15T08:35:49Z</time>
      </trkpt>
      <trkpt lat="47.865454098209739" lon="11.486694300547242">
        <ele>595.193359375</ele>
        <time>2013-06-15T08:35:52Z</time>
      </trkpt>
      <trkpt lat="47.865362484008074" lon="11.486966796219349">
        <ele>595.674072265625</ele>
        <time>2013-06-15T08:35:56Z</time>
      </trkpt>
      <trkpt lat="47.865304145962" lon="11.487176762893796">
        <ele>594.712646484375</ele>
        <time>2013-06-15T08:35:59Z</time>
      </trkpt>
      <trkpt lat="47.865179004147649" lon="11.487395195290446">
        <ele>595.193359375</ele>
        <time>2013-06-15T08:36:03Z</time>
      </trkpt>
      <trkpt lat="47.865060567855835" lon="11.48754539899528">
        <ele>595.674072265625</ele>
        <time>2013-06-15T08:36:06Z</time>
      </trkpt>
      <trkpt lat="47.86494255065918" lon="11.487781433388591">
        <ele>595.674072265625</ele>
        <time>2013-06-15T08:36:10Z</time>
      </trkpt>
      <trkpt lat="47.864878261461854" lon="11.487921997904778">
        <ele>595.674072265625</ele>
        <time>2013-06-15T08:36:12Z</time>
      </trkpt>
      <trkpt lat="47.864713724702597" lon="11.488459361717105">
        <ele>595.674072265625</ele>
        <time>2013-06-15T08:36:19Z</time>
      </trkpt>
      <trkpt lat="47.864625547081232" lon="11.488758847117424">
        <ele>595.674072265625</ele>
        <time>2013-06-15T08:36:23Z</time>
      </trkpt>
      <trkpt lat="47.864559330046177" lon="11.489046262577176">
        <ele>596.15478515625</ele>
        <time>2013-06-15T08:36:27Z</time>
      </trkpt>
      <trkpt lat="47.864454388618469" lon="11.489672726020217">
        <ele>596.15478515625</ele>
        <time>2013-06-15T08:36:35Z</time>
      </trkpt>
      <trkpt lat="47.864322876557708" lon="11.490247473120689">
        <ele>595.674072265625</ele>
        <time>2013-06-15T08:36:42Z</time>
      </trkpt>
      <trkpt lat="47.864210642874241" lon="11.490482669323683">
        <ele>596.15478515625</ele>
        <time>2013-06-15T08:36:46Z</time>
      </trkpt>
      <trkpt lat="47.864175857976079" lon="11.490621976554394">
        <ele>595.674072265625</ele>
        <time>2013-06-15T08:36:48Z</time>
      </trkpt>
      <trkpt lat="47.864098493009806" lon="11.490998826920986">
        <ele>596.635498046875</ele>
        <time>2013-06-15T08:36:53Z</time>
      </trkpt>
      <trkpt lat="47.86405230872333" lon="11.491135535761714">
        <ele>596.635498046875</ele>
        <time>2013-06-15T08:36:55Z</time>
      </trkpt>
      <trkpt lat="47.863993216305971" lon="11.491269813850522">
        <ele>597.115966796875</ele>
        <time>2013-06-15T08:36:57Z</time>
      </trkpt>
      <trkpt lat="47.863719714805484" lon="11.491558654233813">
        <ele>597.115966796875</ele>
        <time>2013-06-15T08:37:03Z</time>
      </trkpt>
      <trkpt lat="47.86366431042552" lon="11.491593439131975">
        <ele>596.635498046875</ele>
        <time>2013-06-15T08:37:04Z</time>
      </trkpt>
      <trkpt lat="47.86334915086627" lon="11.491841375827789">
        <ele>597.5966796875</ele>
        <time>2013-06-15T08:37:11Z</time>
      </trkpt>
      <trkpt lat="47.863305984064937" lon="11.491875154897571">
        <ele>596.635498046875</ele>
        <time>2013-06-15T08:37:12Z</time>
      </trkpt>
      <trkpt lat="47.863078331574798" lon="11.492035249248147">
        <ele>597.115966796875</ele>
        <time>2013-06-15T08:37:17Z</time>
      </trkpt>
      <trkpt lat="47.862985879182816" lon="11.492086295038462">
        <ele>597.115966796875</ele>
        <time>2013-06-15T08:37:19Z</time>
      </trkpt>
      <trkpt lat="47.862892923876643" lon="11.492098867893219">
        <ele>598.077392578125</ele>
        <time>2013-06-15T08:37:21Z</time>
      </trkpt>
      <trkpt lat="47.862669713795185" lon="11.492017228156328">
        <ele>597.115966796875</ele>
        <time>2013-06-15T08:37:26Z</time>
      </trkpt>
      <trkpt lat="47.862495286390185" lon="11.492030806839466">
        <ele>596.635498046875</ele>
        <time>2013-06-15T08:37:30Z</time>
      </trkpt>
      <trkpt lat="47.8623425681144" lon="11.492046480998397">
        <ele>596.635498046875</ele>
        <time>2013-06-15T08:37:33Z</time>
      </trkpt>
      <trkpt lat="47.862224634736776" lon="11.492105238139629">
        <ele>596.15478515625</ele>
        <time>2013-06-15T08:37:35Z</time>
      </trkpt>
      <trkpt lat="47.862051967531443" lon="11.492155361920595">
        <ele>596.635498046875</ele>
        <time>2013-06-15T08:37:39Z</time>
      </trkpt>
      <trkpt lat="47.861901009455323" lon="11.49226457811892">
        <ele>597.115966796875</ele>
        <time>2013-06-15T08:37:42Z</time>
      </trkpt>
      <trkpt lat="47.861792296171188" lon="11.492380080744624">
        <ele>597.115966796875</ele>
        <time>2013-06-15T08:37:44Z</time>
      </trkpt>
      <trkpt lat="47.86158031783998" lon="11.492776293307543">
        <ele>597.115966796875</ele>
        <time>2013-06-15T08:37:50Z</time>
      </trkpt>
      <trkpt lat="47.861388539895415" lon="11.493158843368292">
        <ele>597.115966796875</ele>
        <time>2013-06-15T08:37:55Z</time>
      </trkpt>
      <trkpt lat="47.861189804971218" lon="11.493456400930882">
        <ele>598.077392578125</ele>
        <time>2013-06-15T08:38:00Z</time>
      </trkpt>
      <trkpt lat="47.860905826091766" lon="11.493934001773596">
        <ele>598.077392578125</ele>
        <time>2013-06-15T08:38:07Z</time>
      </trkpt>
      <trkpt lat="47.860717065632343" lon="11.494289394468069">
        <ele>598.557861328125</ele>
        <time>2013-06-15T08:38:12Z</time>
      </trkpt>
      <trkpt lat="47.860532412305474" lon="11.494518890976906">
        <ele>598.077392578125</ele>
        <time>2013-06-15T08:38:17Z</time>
      </trkpt>
      <trkpt lat="47.860422525554895" lon="11.494611091911793">
        <ele>598.077392578125</ele>
        <time>2013-06-15T08:38:20Z</time>
      </trkpt>
      <trkpt lat="47.860200656577945" lon="11.494705053046346">
        <ele>598.557861328125</ele>
        <time>2013-06-15T08:38:25Z</time>
      </trkpt>
      <trkpt lat="47.860073838382959" lon="11.494558788836002">
        <ele>599.519287109375</ele>
        <time>2013-06-15T08:38:28Z</time>
      </trkpt>
      <trkpt lat="47.859900500625372" lon="11.494246395304799">
        <ele>600</ele>
        <time>2013-06-15T08:38:35Z</time>
      </trkpt>
      <trkpt lat="47.859740657731891" lon="11.494019748643041">
        <ele>599.519287109375</ele>
        <time>2013-06-15T08:38:42Z</time>
      </trkpt>
      <trkpt lat="47.859646780416369" lon="11.493810955435038">
        <ele>599.519287109375</ele>
        <time>2013-06-15T08:38:49Z</time>
      </trkpt>
      <trkpt lat="47.859551226720214" lon="11.493627140298486">
        <ele>599.03857421875</ele>
        <time>2013-06-15T08:38:55Z</time>
      </trkpt>
      <trkpt lat="47.859480399638414" lon="11.493542566895485">
        <ele>599.03857421875</ele>
        <time>2013-06-15T08:38:58Z</time>
      </trkpt>
      <trkpt lat="47.859438406303525" lon="11.493452126160264">
        <ele>599.03857421875</ele>
        <time>2013-06-15T08:39:02Z</time>
      </trkpt>
      <trkpt lat="47.859300272539258" lon="11.493199914693832">
        <ele>599.03857421875</ele>
        <time>2013-06-15T08:39:11Z</time>
      </trkpt>
      <trkpt lat="47.859275126829743" lon="11.493182396516204">
        <ele>599.03857421875</ele>
        <time>2013-06-15T08:39:13Z</time>
      </trkpt>
      <trkpt lat="47.859255261719227" lon="11.493280632421374">
        <ele>598.557861328125</ele>
        <time>2013-06-15T08:39:19Z</time>
      </trkpt>
      <trkpt lat="47.859226427972317" lon="11.493252050131559">
        <ele>598.557861328125</ele>
        <time>2013-06-15T08:39:22Z</time>
      </trkpt>
      <trkpt lat="47.859185189008713" lon="11.4933190215379">
        <ele>598.557861328125</ele>
        <time>2013-06-15T08:39:29Z</time>
      </trkpt>
      <trkpt lat="47.859168257564306" lon="11.493411809206009">
        <ele>598.557861328125</ele>
        <time>2013-06-15T08:40:08Z</time>
      </trkpt>
      <trkpt lat="47.858963403850794" lon="11.493940288200974">
        <ele>599.03857421875</ele>
        <time>2013-06-15T08:40:20Z</time>
      </trkpt>
      <trkpt lat="47.858902299776673" lon="11.494091749191284">
        <ele>598.557861328125</ele>
        <time>2013-06-15T08:40:23Z</time>
      </trkpt>
      <trkpt lat="47.858849158510566" lon="11.494270954281092">
        <ele>599.03857421875</ele>
        <time>2013-06-15T08:40:26Z</time>
      </trkpt>
      <trkpt lat="47.858668528497219" lon="11.494698850437999">
        <ele>599.03857421875</ele>
        <time>2013-06-15T08:40:33Z</time>
      </trkpt>
      <trkpt lat="47.858503824099898" lon="11.49510738439858">
        <ele>599.519287109375</ele>
        <time>2013-06-15T08:40:39Z</time>
      </trkpt>
      <trkpt lat="47.858437020331621" lon="11.495420197024941">
        <ele>599.03857421875</ele>
        <time>2013-06-15T08:40:43Z</time>
      </trkpt>
      <trkpt lat="47.858432326465845" lon="11.495584901422262">
        <ele>598.077392578125</ele>
        <time>2013-06-15T08:40:45Z</time>
      </trkpt>
      <trkpt lat="47.858482534065843" lon="11.495973821729422">
        <ele>600.480712890625</ele>
        <time>2013-06-15T08:40:50Z</time>
      </trkpt>
      <trkpt lat="47.858470128849149" lon="11.496299710124731">
        <ele>600</ele>
        <time>2013-06-15T08:40:54Z</time>
      </trkpt>
      <trkpt lat="47.858443222939968" lon="11.496549239382148">
        <ele>600.480712890625</ele>
        <time>2013-06-15T08:40:57Z</time>
      </trkpt>
      <trkpt lat="47.8583724796772" lon="11.496874121949077">
        <ele>600</ele>
        <time>2013-06-15T08:41:01Z</time>
      </trkpt>
      <trkpt lat="47.858336186036468" lon="11.497138906270266">
        <ele>600</ele>
        <time>2013-06-15T08:41:04Z</time>
      </trkpt>
      <trkpt lat="47.858344567939639" lon="11.497330935671926">
        <ele>600</ele>
        <time>2013-06-15T08:41:06Z</time>
      </trkpt>
      <trkpt lat="47.858393015339971" lon="11.497594965621829">
        <ele>600</ele>
        <time>2013-06-15T08:41:09Z</time>
      </trkpt>
      <trkpt lat="47.858485132455826" lon="11.497819684445858">
        <ele>600</ele>
        <time>2013-06-15T08:41:12Z</time>
      </trkpt>
      <trkpt lat="47.858530394732952" lon="11.498056305572391">
        <ele>600</ele>
        <time>2013-06-15T08:41:15Z</time>
      </trkpt>
      <trkpt lat="47.858375916257501" lon="11.49841002188623">
        <ele>600.480712890625</ele>
        <time>2013-06-15T08:41:19Z</time>
      </trkpt>
      <trkpt lat="47.858280027285218" lon="11.498507838696241">
        <ele>600.480712890625</ele>
        <time>2013-06-15T08:41:21Z</time>
      </trkpt>
      <trkpt lat="47.858079615980387" lon="11.498824758455157">
        <ele>600.480712890625</ele>
        <time>2013-06-15T08:41:26Z</time>
      </trkpt>
      <trkpt lat="47.857881048694253" lon="11.499371258541942">
        <ele>600.961181640625</ele>
        <time>2013-06-15T08:41:33Z</time>
      </trkpt>
      <trkpt lat="47.85777535289526" lon="11.499756993725896">
        <ele>600</ele>
        <time>2013-06-15T08:41:37Z</time>
      </trkpt>
      <trkpt lat="47.857763115316629" lon="11.500143148005009">
        <ele>599.519287109375</ele>
        <time>2013-06-15T08:41:41Z</time>
      </trkpt>
      <trkpt lat="47.857723888009787" lon="11.500397035852075">
        <ele>600.480712890625</ele>
        <time>2013-06-15T08:41:44Z</time>
      </trkpt>
      <trkpt lat="47.857716763392091" lon="11.5008101798594">
        <ele>600.480712890625</ele>
        <time>2013-06-15T08:41:49Z</time>
      </trkpt>
      <trkpt lat="47.857719110324979" lon="11.50100220926106">
        <ele>600.480712890625</ele>
        <time>2013-06-15T08:41:51Z</time>
      </trkpt>
      <trkpt lat="47.857689689844847" lon="11.501359613612294">
        <ele>600.961181640625</ele>
        <time>2013-06-15T08:41:55Z</time>
      </trkpt>
      <trkpt lat="47.857721373438835" lon="11.50165063329041">
        <ele>599.519287109375</ele>
        <time>2013-06-15T08:41:58Z</time>
      </trkpt>
      <trkpt lat="47.857674770057201" lon="11.502103758975863">
        <ele>598.557861328125</ele>
        <time>2013-06-15T08:42:02Z</time>
      </trkpt>
      <trkpt lat="47.857569577172399" lon="11.502427216619253">
        <ele>599.03857421875</ele>
        <time>2013-06-15T08:42:05Z</time>
      </trkpt>
      <trkpt lat="47.857346953824162" lon="11.503097098320723">
        <ele>599.03857421875</ele>
        <time>2013-06-15T08:42:12Z</time>
      </trkpt>
      <trkpt lat="47.857267744839191" lon="11.503386860713363">
        <ele>599.03857421875</ele>
        <time>2013-06-15T08:42:15Z</time>
      </trkpt>
      <trkpt lat="47.857213262468576" lon="11.503802519291639">
        <ele>598.077392578125</ele>
        <time>2013-06-15T08:42:19Z</time>
      </trkpt>
      <trkpt lat="47.857291800901294" lon="11.504497462883592">
        <ele>598.557861328125</ele>
        <time>2013-06-15T08:42:26Z</time>
      </trkpt>
      <trkpt lat="47.857394060119987" lon="11.50497623719275">
        <ele>599.03857421875</ele>
        <time>2013-06-15T08:42:31Z</time>
      </trkpt>
      <trkpt lat="47.857465222477913" lon="11.505229957401752">
        <ele>599.519287109375</ele>
        <time>2013-06-15T08:42:34Z</time>
      </trkpt>
      <trkpt lat="47.857468407601118" lon="11.505534136667848">
        <ele>600</ele>
        <time>2013-06-15T08:42:39Z</time>
      </trkpt>
      <trkpt lat="47.857522973790765" lon="11.505615022033453">
        <ele>600</ele>
        <time>2013-06-15T08:42:48Z</time>
      </trkpt>
      <trkpt lat="47.85754568874836" lon="11.505618626251817">
        <ele>600</ele>
        <time>2013-06-15T08:43:34Z</time>
      </trkpt>
      <trkpt lat="47.857506377622485" lon="11.505878549069166">
        <ele>599.03857421875</ele>
        <time>2013-06-15T08:43:41Z</time>
      </trkpt>
      <trkpt lat="47.857493050396442" lon="11.505934875458479">
        <ele>599.03857421875</ele>
        <time>2013-06-15T08:43:42Z</time>
      </trkpt>
      <trkpt lat="47.857405710965395" lon="11.506191194057465">
        <ele>601.44189453125</ele>
        <time>2013-06-15T08:43:47Z</time>
      </trkpt>
      <trkpt lat="47.857356257736683" lon="11.506303427740932">
        <ele>601.922607421875</ele>
        <time>2013-06-15T08:43:49Z</time>
      </trkpt>
      <trkpt lat="47.857323065400124" lon="11.50645631365478">
        <ele>601.922607421875</ele>
        <time>2013-06-15T08:43:51Z</time>
      </trkpt>
      <trkpt lat="47.857213094830513" lon="11.506658485159278">
        <ele>599.519287109375</ele>
        <time>2013-06-15T08:43:55Z</time>
      </trkpt>
      <trkpt lat="47.857017796486616" lon="11.50690340436995">
        <ele>600</ele>
        <time>2013-06-15T08:43:59Z</time>
      </trkpt>
      <trkpt lat="47.856760555878282" lon="11.50749851949513">
        <ele>600</ele>
        <time>2013-06-15T08:44:05Z</time>
      </trkpt>
      <trkpt lat="47.856651255860925" lon="11.507782833650708">
        <ele>600</ele>
        <time>2013-06-15T08:44:08Z</time>
      </trkpt>
      <trkpt lat="47.856407426297665" lon="11.508173514157534">
        <ele>599.519287109375</ele>
        <time>2013-06-15T08:44:13Z</time>
      </trkpt>
      <trkpt lat="47.856217240914702" lon="11.508484566584229">
        <ele>600</ele>
        <time>2013-06-15T08:44:17Z</time>
      </trkpt>
      <trkpt lat="47.85610475577414" lon="11.508599566295743">
        <ele>600</ele>
        <time>2013-06-15T08:44:19Z</time>
      </trkpt>
      <trkpt lat="47.855934603139758" lon="11.508761756122112">
        <ele>600.480712890625</ele>
        <time>2013-06-15T08:44:22Z</time>
      </trkpt>
      <trkpt lat="47.855707705020905" lon="11.508911037817597">
        <ele>601.922607421875</ele>
        <time>2013-06-15T08:44:27Z</time>
      </trkpt>
      <trkpt lat="47.855656994506717" lon="11.508761337026954">
        <ele>601.44189453125</ele>
        <time>2013-06-15T08:44:32Z</time>
      </trkpt>
      <trkpt lat="47.855631513521075" lon="11.508773490786552">
        <ele>601.44189453125</ele>
        <time>2013-06-15T08:44:47Z</time>
      </trkpt>
      <trkpt lat="47.855582814663649" lon="11.50870400480926">
        <ele>601.44189453125</ele>
        <time>2013-06-15T08:45:07Z</time>
      </trkpt>
      <trkpt lat="47.855424815788865" lon="11.50845623575151">
        <ele>601.44189453125</ele>
        <time>2013-06-15T08:45:13Z</time>
      </trkpt>
      <trkpt lat="47.855231864377856" lon="11.508197737857699">
        <ele>601.44189453125</ele>
        <time>2013-06-15T08:45:20Z</time>
      </trkpt>
      <trkpt lat="47.855203785002232" lon="11.508147278800607">
        <ele>601.44189453125</ele>
        <time>2013-06-15T08:45:21Z</time>
      </trkpt>
      <trkpt lat="47.854973953217268" lon="11.507821558043361">
        <ele>601.922607421875</ele>
        <time>2013-06-15T08:45:28Z</time>
      </trkpt>
      <trkpt lat="47.854846548289061" lon="11.507615363225341">
        <ele>602.403076171875</ele>
        <time>2013-06-15T08:45:32Z</time>
      </trkpt>
      <trkpt lat="47.854691399261355" lon="11.507325265556574">
        <ele>601.922607421875</ele>
        <time>2013-06-15T08:45:37Z</time>
      </trkpt>
      <trkpt lat="47.854628199711442" lon="11.507220240309834">
        <ele>601.44189453125</ele>
        <time>2013-06-15T08:45:39Z</time>
      </trkpt>
      <trkpt lat="47.854441031813622" lon="11.506865685805678">
        <ele>601.922607421875</ele>
        <time>2013-06-15T08:45:45Z</time>
      </trkpt>
      <trkpt lat="47.854256797581911" lon="11.506549771875143">
        <ele>601.922607421875</ele>
        <time>2013-06-15T08:45:50Z</time>
      </trkpt>
      <trkpt lat="47.85415411926806" lon="11.506348522379994">
        <ele>602.403076171875</ele>
        <time>2013-06-15T08:45:53Z</time>
      </trkpt>
      <trkpt lat="47.853994527831674" lon="11.506024729460478">
        <ele>603.364501953125</ele>
        <time>2013-06-15T08:45:58Z</time>
      </trkpt>
      <trkpt lat="47.853806186467409" lon="11.50574192404747">
        <ele>602.8837890625</ele>
        <time>2013-06-15T08:46:03Z</time>
      </trkpt>
      <trkpt lat="47.853705603629351" lon="11.505518378689885">
        <ele>602.403076171875</ele>
        <time>2013-06-15T08:46:06Z</time>
      </trkpt>
      <trkpt lat="47.853628071025014" lon="11.505325343459845">
        <ele>602.8837890625</ele>
        <time>2013-06-15T08:46:09Z</time>
      </trkpt>
      <trkpt lat="47.853519106283784" lon="11.504810443148017">
        <ele>601.922607421875</ele>
        <time>2013-06-15T08:46:15Z</time>
      </trkpt>
      <trkpt lat="47.853425061330199" lon="11.504579354077578">
        <ele>602.8837890625</ele>
        <time>2013-06-15T08:46:19Z</time>
      </trkpt>
      <trkpt lat="47.853189026936889" lon="11.504533169791102">
        <ele>602.403076171875</ele>
        <time>2013-06-15T08:46:24Z</time>
      </trkpt>
      <trkpt lat="47.853158432990313" lon="11.504469802603126">
        <ele>602.8837890625</ele>
        <time>2013-06-15T08:46:25Z</time>
      </trkpt>
      <trkpt lat="47.852908316999674" lon="11.503937048837543">
        <ele>602.403076171875</ele>
        <time>2013-06-15T08:46:33Z</time>
      </trkpt>
      <trkpt lat="47.852872526273131" lon="11.503862114623189">
        <ele>603.364501953125</ele>
        <time>2013-06-15T08:46:34Z</time>
      </trkpt>
      <trkpt lat="47.852763142436743" lon="11.503848452121019">
        <ele>602.8837890625</ele>
        <time>2013-06-15T08:46:38Z</time>
      </trkpt>
      <trkpt lat="47.852735398337245" lon="11.503947023302317">
        <ele>602.403076171875</ele>
        <time>2013-06-15T08:46:39Z</time>
      </trkpt>
      <trkpt lat="47.852547811344266" lon="11.504457145929337">
        <ele>602.403076171875</ele>
        <time>2013-06-15T08:46:44Z</time>
      </trkpt>
      <trkpt lat="47.852442702278495" lon="11.504601733759046">
        <ele>602.8837890625</ele>
        <time>2013-06-15T08:46:46Z</time>
      </trkpt>
      <trkpt lat="47.852219576016068" lon="11.505039352923632">
        <ele>601.922607421875</ele>
        <time>2013-06-15T08:46:51Z</time>
      </trkpt>
      <trkpt lat="47.852138020098209" lon="11.50521763600409">
        <ele>602.8837890625</ele>
        <time>2013-06-15T08:46:53Z</time>
      </trkpt>
      <trkpt lat="47.852099379524589" lon="11.505298353731632">
        <ele>602.403076171875</ele>
        <time>2013-06-15T08:46:54Z</time>
      </trkpt>
      <trkpt lat="47.851942554116249" lon="11.505756257101893">
        <ele>602.403076171875</ele>
        <time>2013-06-15T08:46:59Z</time>
      </trkpt>
      <trkpt lat="47.851904164999723" lon="11.505934875458479">
        <ele>603.84521484375</ele>
        <time>2013-06-15T08:47:01Z</time>
      </trkpt>
      <trkpt lat="47.851754883304238" lon="11.50613671168685">
        <ele>602.403076171875</ele>
        <time>2013-06-15T08:47:05Z</time>
      </trkpt>
      <trkpt lat="47.851242749020457" lon="11.506127072498202">
        <ele>602.8837890625</ele>
        <time>2013-06-15T08:47:14Z</time>
      </trkpt>
      <trkpt lat="47.851117942482233" lon="11.506125815212727">
        <ele>603.364501953125</ele>
        <time>2013-06-15T08:47:16Z</time>
      </trkpt>
      <trkpt lat="47.850824659690261" lon="11.506193876266479">
        <ele>604.326171875</ele>
        <time>2013-06-15T08:47:21Z</time>
      </trkpt>
      <trkpt lat="47.850655596703291" lon="11.506240228191018">
        <ele>603.84521484375</ele>
        <time>2013-06-15T08:47:24Z</time>
      </trkpt>
      <trkpt lat="47.850362146273255" lon="11.50621977634728">
        <ele>604.326171875</ele>
        <time>2013-06-15T08:47:29Z</time>
      </trkpt>
      <trkpt lat="47.850187886506319" lon="11.506173340603709">
        <ele>604.326171875</ele>
        <time>2013-06-15T08:47:32Z</time>
      </trkpt>
      <trkpt lat="47.850006418302655" lon="11.505991201847792">
        <ele>604.806640625</ele>
        <time>2013-06-15T08:47:36Z</time>
      </trkpt>
      <trkpt lat="47.849906673654914" lon="11.505666989833117">
        <ele>603.84521484375</ele>
        <time>2013-06-15T08:47:40Z</time>
      </trkpt>
      <trkpt lat="47.849842887371778" lon="11.505436822772026">
        <ele>604.326171875</ele>
        <time>2013-06-15T08:47:43Z</time>
      </trkpt>
      <trkpt lat="47.849795781075954" lon="11.505199866369367">
        <ele>604.326171875</ele>
        <time>2013-06-15T08:47:46Z</time>
      </trkpt>
      <trkpt lat="47.849692683666945" lon="11.504847658798099">
        <ele>604.326171875</ele>
        <time>2013-06-15T08:47:50Z</time>
      </trkpt>
      <trkpt lat="47.849516663700342" lon="11.504680858924985">
        <ele>604.326171875</ele>
        <time>2013-06-15T08:47:53Z</time>
      </trkpt>
      <trkpt lat="47.849354306235909" lon="11.504410458728671">
        <ele>604.326171875</ele>
        <time>2013-06-15T08:47:57Z</time>
      </trkpt>
      <trkpt lat="47.849323125556111" lon="11.504256064072251">
        <ele>605.287353515625</ele>
        <time>2013-06-15T08:48:01Z</time>
      </trkpt>
      <trkpt lat="47.849346762523055" lon="11.50421692058444">
        <ele>605.76806640625</ele>
        <time>2013-06-15T08:48:07Z</time>
      </trkpt>
      <trkpt lat="47.849404765293002" lon="11.504108794033527">
        <ele>604.806640625</ele>
        <time>2013-06-15T08:48:59Z</time>
      </trkpt>
      <trkpt lat="47.849564105272293" lon="11.503811320289969">
        <ele>603.84521484375</ele>
        <time>2013-06-15T08:49:05Z</time>
      </trkpt>
      <trkpt lat="47.849760074168444" lon="11.503311842679977">
        <ele>603.84521484375</ele>
        <time>2013-06-15T08:49:12Z</time>
      </trkpt>
      <trkpt lat="47.849911116063595" lon="11.502974387258291">
        <ele>603.84521484375</ele>
        <time>2013-06-15T08:49:17Z</time>
      </trkpt>
      <trkpt lat="47.850178414955735" lon="11.502402825281024">
        <ele>604.326171875</ele>
        <time>2013-06-15T08:49:26Z</time>
      </trkpt>
      <trkpt lat="47.850394332781434" lon="11.502048019319773">
        <ele>603.364501953125</ele>
        <time>2013-06-15T08:49:34Z</time>
      </trkpt>
      <trkpt lat="47.850436242297292" lon="11.501982640475035">
        <ele>602.8837890625</ele>
        <time>2013-06-15T08:49:36Z</time>
      </trkpt>
      <trkpt lat="47.850410677492619" lon="11.50181089527905">
        <ele>603.364501953125</ele>
        <time>2013-06-15T08:49:40Z</time>
      </trkpt>
      <trkpt lat="47.85027539357543" lon="11.501692710444331">
        <ele>602.8837890625</ele>
        <time>2013-06-15T08:49:44Z</time>
      </trkpt>
      <trkpt lat="47.850105911493301" lon="11.501569161191583">
        <ele>602.8837890625</ele>
        <time>2013-06-15T08:49:48Z</time>
      </trkpt>
      <trkpt lat="47.849978590384126" lon="11.5014404989779">
        <ele>602.403076171875</ele>
        <time>2013-06-15T08:49:51Z</time>
      </trkpt>
      <trkpt lat="47.84974180161953" lon="11.501178480684757">
        <ele>602.403076171875</ele>
        <time>2013-06-15T08:49:57Z</time>
      </trkpt>
      <trkpt lat="47.849461510777473" lon="11.50091327726841">
        <ele>602.8837890625</ele>
        <time>2013-06-15T08:50:04Z</time>
      </trkpt>
      <trkpt lat="47.849344415590167" lon="11.500868182629347">
        <ele>602.8837890625</ele>
        <time>2013-06-15T08:50:07Z</time>
      </trkpt>
      <trkpt lat="47.84897024743259" lon="11.50077941827476">
        <ele>602.8837890625</ele>
        <time>2013-06-15T08:50:15Z</time>
      </trkpt>
      <trkpt lat="47.848836639896035" lon="11.500853011384606">
        <ele>603.84521484375</ele>
        <time>2013-06-15T08:50:20Z</time>
      </trkpt>
      <trkpt lat="47.848691884428263" lon="11.500924760475755">
        <ele>606.24853515625</ele>
        <time>2013-06-15T08:50:26Z</time>
      </trkpt>
      <trkpt lat="47.84850706346333" lon="11.500951331108809">
        <ele>607.690673828125</ele>
        <time>2013-06-15T08:50:31Z</time>
      </trkpt>
      <trkpt lat="47.848478648811579" lon="11.501072365790606">
        <ele>609.132568359375</ele>
        <time>2013-06-15T08:50:38Z</time>
      </trkpt>
      <trkpt lat="47.848415533080697" lon="11.501112012192607">
        <ele>610.574462890625</ele>
        <time>2013-06-15T08:50:43Z</time>
      </trkpt>
      <trkpt lat="47.84840689972043" lon="11.501121064648032">
        <ele>610.574462890625</ele>
        <time>2013-06-15T08:50:44Z</time>
      </trkpt>
      <trkpt lat="47.848376976326108" lon="11.501124752685428">
        <ele>611.05517578125</ele>
        <time>2013-06-15T08:50:47Z</time>
      </trkpt>
      <trkpt lat="47.848320314660668" lon="11.501143863424659">
        <ele>611.535888671875</ele>
        <time>2013-06-15T08:50:50Z</time>
      </trkpt>
      <trkpt lat="47.848292235285044" lon="11.501142103224993">
        <ele>612.4970703125</ele>
        <time>2013-06-15T08:50:52Z</time>
      </trkpt>
      <trkpt lat="47.848189976066351" lon="11.501174457371235">
        <ele>613.45849609375</ele>
        <time>2013-06-15T08:51:00Z</time>
      </trkpt>
      <trkpt lat="47.848041951656342" lon="11.501208487898111">
        <ele>614.419677734375</ele>
        <time>2013-06-15T08:51:06Z</time>
      </trkpt>
      <trkpt lat="47.847974812611938" lon="11.501180492341518">
        <ele>614.900390625</ele>
        <time>2013-06-15T08:51:11Z</time>
      </trkpt>
      <trkpt lat="47.847816059365869" lon="11.501268083229661">
        <ele>616.34228515625</ele>
        <time>2013-06-15T08:51:18Z</time>
      </trkpt>
      <trkpt lat="47.847671387717128" lon="11.501501938328147">
        <ele>616.822998046875</ele>
        <time>2013-06-15T08:51:25Z</time>
      </trkpt>
      <trkpt lat="47.847516322508454" lon="11.501979706808925">
        <ele>617.7841796875</ele>
        <time>2013-06-15T08:51:35Z</time>
      </trkpt>
      <trkpt lat="47.847486734390259" lon="11.502112727612257">
        <ele>616.822998046875</ele>
        <time>2013-06-15T08:51:38Z</time>
      </trkpt>
      <trkpt lat="47.847314989194274" lon="11.502487901598215">
        <ele>619.226318359375</ele>
        <time>2013-06-15T08:51:45Z</time>
      </trkpt>
      <trkpt lat="47.847169982269406" lon="11.502688061445951">
        <ele>620.66845703125</ele>
        <time>2013-06-15T08:51:51Z</time>
      </trkpt>
      <trkpt lat="47.847079792991281" lon="11.502897944301367">
        <ele>622.1103515625</ele>
        <time>2013-06-15T08:51:57Z</time>
      </trkpt>
      <trkpt lat="47.846983401104808" lon="11.503134146332741">
        <ele>622.1103515625</ele>
        <time>2013-06-15T08:52:02Z</time>
      </trkpt>
      <trkpt lat="47.846906622871757" lon="11.503339586779475">
        <ele>622.591064453125</ele>
        <time>2013-06-15T08:52:07Z</time>
      </trkpt>
      <trkpt lat="47.846804196015" lon="11.503596743568778">
        <ele>623.552490234375</ele>
        <time>2013-06-15T08:52:13Z</time>
      </trkpt>
      <trkpt lat="47.846719957888126" lon="11.503859013319016">
        <ele>625.474853515625</ele>
        <time>2013-06-15T08:52:18Z</time>
      </trkpt>
      <trkpt lat="47.846605544909835" lon="11.50415095500648">
        <ele>625.474853515625</ele>
        <time>2013-06-15T08:52:24Z</time>
      </trkpt>
      <trkpt lat="47.846541088074446" lon="11.504442393779755">
        <ele>626.9169921875</ele>
        <time>2013-06-15T08:52:30Z</time>
      </trkpt>
      <trkpt lat="47.846451485529542" lon="11.504941619932652">
        <ele>627.397705078125</ele>
        <time>2013-06-15T08:52:38Z</time>
      </trkpt>
      <trkpt lat="47.846363894641399" lon="11.505382172763348">
        <ele>630.281494140625</ele>
        <time>2013-06-15T08:52:47Z</time>
      </trkpt>
      <trkpt lat="47.846333300694823" lon="11.50559775531292">
        <ele>630.76220703125</ele>
        <time>2013-06-15T08:52:52Z</time>
      </trkpt>
      <trkpt lat="47.846235819160938" lon="11.505778636783361">
        <ele>632.684814453125</ele>
        <time>2013-06-15T08:52:59Z</time>
      </trkpt>
      <trkpt lat="47.846186449751258" lon="11.50595155544579">
        <ele>632.684814453125</ele>
        <time>2013-06-15T08:53:05Z</time>
      </trkpt>
      <trkpt lat="47.846084693446755" lon="11.506234779953957">
        <ele>630.76220703125</ele>
        <time>2013-06-15T08:53:10Z</time>
      </trkpt>
      <trkpt lat="47.845868356525898" lon="11.506608026102185">
        <ele>628.839599609375</ele>
        <time>2013-06-15T08:53:15Z</time>
      </trkpt>
      <trkpt lat="47.845759307965636" lon="11.506868787109852">
        <ele>629.320068359375</ele>
        <time>2013-06-15T08:53:18Z</time>
      </trkpt>
      <trkpt lat="47.845681942999363" lon="11.507083866745234">
        <ele>629.80078125</ele>
        <time>2013-06-15T08:53:21Z</time>
      </trkpt>
      <trkpt lat="47.84556744620204" lon="11.507392404600978">
        <ele>630.76220703125</ele>
        <time>2013-06-15T08:53:25Z</time>
      </trkpt>
      <trkpt lat="47.845484130084515" lon="11.507661379873753">
        <ele>631.242919921875</ele>
        <time>2013-06-15T08:53:29Z</time>
      </trkpt>
      <trkpt lat="47.845296626910567" lon="11.507897246629">
        <ele>631.723388671875</ele>
        <time>2013-06-15T08:53:34Z</time>
      </trkpt>
      <trkpt lat="47.845060676336288" lon="11.508094221353531">
        <ele>632.2041015625</ele>
        <time>2013-06-15T08:53:38Z</time>
      </trkpt>
      <trkpt lat="47.8450065292418" lon="11.508143674582243">
        <ele>632.684814453125</ele>
        <time>2013-06-15T08:53:39Z</time>
      </trkpt>
      <trkpt lat="47.844880549237132" lon="11.508306451141834">
        <ele>633.165283203125</ele>
        <time>2013-06-15T08:53:43Z</time>
      </trkpt>
      <trkpt lat="47.844628170132637" lon="11.508585903793573">
        <ele>632.2041015625</ele>
        <time>2013-06-15T08:53:50Z</time>
      </trkpt>
      <trkpt lat="47.844257773831487" lon="11.508821519091725">
        <ele>635.088134765625</ele>
        <time>2013-06-15T08:53:57Z</time>
      </trkpt>
      <trkpt lat="47.844107318669558" lon="11.508761756122112">
        <ele>636.049560546875</ele>
        <time>2013-06-15T08:54:02Z</time>
      </trkpt>
      <trkpt lat="47.843919731676579" lon="11.508763013407588">
        <ele>637.0107421875</ele>
        <time>2013-06-15T08:54:08Z</time>
      </trkpt>
      <trkpt lat="47.84385678358376" lon="11.508739292621613">
        <ele>638.452880859375</ele>
        <time>2013-06-15T08:54:11Z</time>
      </trkpt>
      <trkpt lat="47.843742119148374" lon="11.508677266538143">
        <ele>638.93359375</ele>
        <time>2013-06-15T08:54:16Z</time>
      </trkpt>
      <trkpt lat="47.84357188269496" lon="11.508608367294073">
        <ele>639.894775390625</ele>
        <time>2013-06-15T08:54:23Z</time>
      </trkpt>
      <trkpt lat="47.843445986509323" lon="11.508622281253338">
        <ele>641.336669921875</ele>
        <time>2013-06-15T08:54:29Z</time>
      </trkpt>
      <trkpt lat="47.843246078118682" lon="11.508762845769525">
        <ele>642.298095703125</ele>
        <time>2013-06-15T08:54:34Z</time>
      </trkpt>
      <trkpt lat="47.843046253547072" lon="11.508913552388549">
        <ele>643.739990234375</ele>
        <time>2013-06-15T08:54:40Z</time>
      </trkpt>
      <trkpt lat="47.84291666932404" lon="11.508943643420935">
        <ele>644.220703125</ele>
        <time>2013-06-15T08:54:45Z</time>
      </trkpt>
      <trkpt lat="47.842693040147424" lon="11.509091919288039">
        <ele>645.181884765625</ele>
        <time>2013-06-15T08:54:51Z</time>
      </trkpt>
      <trkpt lat="47.842463627457619" lon="11.509168697521091">
        <ele>645.66259765625</ele>
        <time>2013-06-15T08:54:56Z</time>
      </trkpt>
      <trkpt lat="47.842263551428914" lon="11.509208679199219">
        <ele>645.66259765625</ele>
        <time>2013-06-15T08:55:00Z</time>
      </trkpt>
      <trkpt lat="47.841872284188867" lon="11.509260730817914">
        <ele>645.181884765625</ele>
        <time>2013-06-15T08:55:07Z</time>
      </trkpt>
      <trkpt lat="47.841445980593562" lon="11.509321415796876">
        <ele>647.1044921875</ele>
        <time>2013-06-15T08:55:15Z</time>
      </trkpt>
      <trkpt lat="47.8414077591151" lon="11.509326444938779">
        <ele>647.585205078125</ele>
        <time>2013-06-15T08:55:16Z</time>
      </trkpt>
      <trkpt lat="47.841229308396578" lon="11.5093201585114">
        <ele>647.585205078125</ele>
        <time>2013-06-15T08:55:21Z</time>
      </trkpt>
      <trkpt lat="47.841000650078058" lon="11.509321164339781">
        <ele>647.1044921875</ele>
        <time>2013-06-15T08:55:25Z</time>
      </trkpt>
      <trkpt lat="47.84073343500495" lon="11.509304149076343">
        <ele>645.181884765625</ele>
        <time>2013-06-15T08:55:29Z</time>
      </trkpt>
      <trkpt lat="47.840496730059385" lon="11.50934211909771">
        <ele>642.77880859375</ele>
        <time>2013-06-15T08:55:32Z</time>
      </trkpt>
      <trkpt lat="47.84020084887743" lon="11.509502297267318">
        <ele>642.298095703125</ele>
        <time>2013-06-15T08:55:36Z</time>
      </trkpt>
      <trkpt lat="47.839994989335537" lon="11.509506572037935">
        <ele>642.298095703125</ele>
        <time>2013-06-15T08:55:39Z</time>
      </trkpt>
      <trkpt lat="47.839802289381623" lon="11.509489892050624">
        <ele>643.739990234375</ele>
        <time>2013-06-15T08:55:42Z</time>
      </trkpt>
      <trkpt lat="47.839694833382964" lon="11.509436164051294">
        <ele>645.181884765625</ele>
        <time>2013-06-15T08:55:44Z</time>
      </trkpt>
      <trkpt lat="47.839521411806345" lon="11.509249834343791">
        <ele>644.701171875</ele>
        <time>2013-06-15T08:55:48Z</time>
      </trkpt>
      <trkpt lat="47.839355114847422" lon="11.509141540154815">
        <ele>644.701171875</ele>
        <time>2013-06-15T08:55:52Z</time>
      </trkpt>
      <trkpt lat="47.839216561987996" lon="11.509136511012912">
        <ele>646.143310546875</ele>
        <time>2013-06-15T08:55:55Z</time>
      </trkpt>
      <trkpt lat="47.839064262807369" lon="11.509096613153815">
        <ele>645.66259765625</ele>
        <time>2013-06-15T08:55:58Z</time>
      </trkpt>
      <trkpt lat="47.838921518996358" lon="11.509035928174853">
        <ele>645.66259765625</ele>
        <time>2013-06-15T08:56:01Z</time>
      </trkpt>
      <trkpt lat="47.838837532326579" lon="11.508995275944471">
        <ele>646.143310546875</ele>
        <time>2013-06-15T08:56:03Z</time>
      </trkpt>
      <trkpt lat="47.838622620329261" lon="11.508814478293061">
        <ele>647.585205078125</ele>
        <time>2013-06-15T08:56:08Z</time>
      </trkpt>
      <trkpt lat="47.838384155184031" lon="11.508679445832968">
        <ele>649.027099609375</ele>
        <time>2013-06-15T08:56:14Z</time>
      </trkpt>
      <trkpt lat="47.838349286466837" lon="11.508649103343487">
        <ele>649.027099609375</ele>
        <time>2013-06-15T08:56:16Z</time>
      </trkpt>
      <trkpt lat="47.83832891844213" lon="11.508628567680717">
        <ele>649.027099609375</ele>
        <time>2013-06-15T08:56:18Z</time>
      </trkpt>
      <trkpt lat="47.838404774665833" lon="11.508535528555512">
        <ele>648.54638671875</ele>
        <time>2013-06-15T08:56:23Z</time>
      </trkpt>
      <trkpt lat="47.838388010859489" lon="11.508654216304421">
        <ele>649.5078125</ele>
        <time>2013-06-15T08:56:29Z</time>
      </trkpt>
      <trkpt lat="47.838369319215417" lon="11.508695874363184">
        <ele>649.5078125</ele>
        <time>2013-06-15T08:56:31Z</time>
      </trkpt>
      <trkpt lat="47.838306035846472" lon="11.508827805519104">
        <ele>650.94970703125</ele>
        <time>2013-06-15T08:56:36Z</time>
      </trkpt>
      <trkpt lat="47.838198076933622" lon="11.508934171870351">
        <ele>650.94970703125</ele>
        <time>2013-06-15T08:56:41Z</time>
      </trkpt>
      <trkpt lat="47.838180307298899" lon="11.508946660906076">
        <ele>650.46923828125</ele>
        <time>2013-06-15T08:56:51Z</time>
      </trkpt>
      <trkpt lat="47.838185001164675" lon="11.508971806615591">
        <ele>650.94970703125</ele>
        <time>2013-06-15T08:56:59Z</time>
      </trkpt>
      <trkpt lat="47.838206961750984" lon="11.508931489661336">
        <ele>650.46923828125</ele>
        <time>2013-06-15T08:57:11Z</time>
      </trkpt>
      <trkpt lat="47.838187851011753" lon="11.508934758603573">
        <ele>650.46923828125</ele>
        <time>2013-06-15T08:57:18Z</time>
      </trkpt>
      <trkpt lat="47.838198328390718" lon="11.508934842422605">
        <ele>649.988525390625</ele>
        <time>2013-06-15T08:57:36Z</time>
      </trkpt>
      <trkpt lat="47.838198244571686" lon="11.508968621492386">
        <ele>646.6240234375</ele>
        <time>2013-06-15T09:02:58Z</time>
      </trkpt>
      <trkpt lat="47.838198076933622" lon="11.508969878777862">
        <ele>647.1044921875</ele>
        <time>2013-06-15T09:12:04Z</time>
      </trkpt>
      <trkpt lat="47.838197238743305" lon="11.508957557380199">
        <ele>647.1044921875</ele>
        <time>2013-06-15T09:12:05Z</time>
      </trkpt>
      <trkpt lat="47.838192461058497" lon="11.508890502154827">
        <ele>645.66259765625</ele>
        <time>2013-06-15T09:12:09Z</time>
      </trkpt>
      <trkpt lat="47.838191371411085" lon="11.50882663205266">
        <ele>644.701171875</ele>
        <time>2013-06-15T09:12:12Z</time>
      </trkpt>
      <trkpt lat="47.838183240965009" lon="11.508759744465351">
        <ele>644.701171875</ele>
        <time>2013-06-15T09:12:15Z</time>
      </trkpt>
      <trkpt lat="47.838085256516933" lon="11.50869176723063">
        <ele>645.181884765625</ele>
        <time>2013-06-15T09:12:21Z</time>
      </trkpt>
      <trkpt lat="47.837979895994067" lon="11.508604427799582">
        <ele>646.143310546875</ele>
        <time>2013-06-15T09:12:27Z</time>
      </trkpt>
      <trkpt lat="47.837956426665187" lon="11.508596716448665">
        <ele>646.143310546875</ele>
        <time>2013-06-15T09:12:28Z</time>
      </trkpt>
      <trkpt lat="47.837826758623123" lon="11.508620856329799">
        <ele>645.66259765625</ele>
        <time>2013-06-15T09:12:32Z</time>
      </trkpt>
      <trkpt lat="47.837637746706605" lon="11.508583053946495">
        <ele>646.6240234375</ele>
        <time>2013-06-15T09:12:40Z</time>
      </trkpt>
      <trkpt lat="47.837513526901603" lon="11.508495463058352">
        <ele>647.1044921875</ele>
        <time>2013-06-15T09:12:46Z</time>
      </trkpt>
      <trkpt lat="47.837419649586082" lon="11.508454391732812">
        <ele>647.1044921875</ele>
        <time>2013-06-15T09:12:50Z</time>
      </trkpt>
      <trkpt lat="47.837321413680911" lon="11.508395802229643">
        <ele>647.585205078125</ele>
        <time>2013-06-15T09:12:54Z</time>
      </trkpt>
      <trkpt lat="47.837014803662896" lon="11.508270492777228">
        <ele>647.1044921875</ele>
        <time>2013-06-15T09:13:03Z</time>
      </trkpt>
      <trkpt lat="47.836790587753057" lon="11.508183907717466">
        <ele>646.6240234375</ele>
        <time>2013-06-15T09:13:10Z</time>
      </trkpt>
      <trkpt lat="47.836718000471592" lon="11.508151385933161">
        <ele>645.66259765625</ele>
        <time>2013-06-15T09:13:12Z</time>
      </trkpt>
      <trkpt lat="47.836390184238553" lon="11.507901269942522">
        <ele>641.8173828125</ele>
        <time>2013-06-15T09:13:18Z</time>
      </trkpt>
      <trkpt lat="47.836272250860929" lon="11.507785767316818">
        <ele>641.336669921875</ele>
        <time>2013-06-15T09:13:20Z</time>
      </trkpt>
      <trkpt lat="47.836077371612191" lon="11.507590217515826">
        <ele>637.0107421875</ele>
        <time>2013-06-15T09:13:23Z</time>
      </trkpt>
      <trkpt lat="47.835818454623222" lon="11.507270615547895">
        <ele>637.0107421875</ele>
        <time>2013-06-15T09:13:27Z</time>
      </trkpt>
      <trkpt lat="47.835515113547444" lon="11.507141450420022">
        <ele>637.0107421875</ele>
        <time>2013-06-15T09:13:32Z</time>
      </trkpt>
      <trkpt lat="47.835454009473324" lon="11.507138349115849">
        <ele>637.491455078125</ele>
        <time>2013-06-15T09:13:33Z</time>
      </trkpt>
      <trkpt lat="47.835228117182851" lon="11.506838444620371">
        <ele>635.568603515625</ele>
        <time>2013-06-15T09:13:38Z</time>
      </trkpt>
      <trkpt lat="47.835214454680681" lon="11.506737023591995">
        <ele>635.568603515625</ele>
        <time>2013-06-15T09:13:39Z</time>
      </trkpt>
      <trkpt lat="47.835208922624588" lon="11.506536360830069">
        <ele>636.049560546875</ele>
        <time>2013-06-15T09:13:41Z</time>
      </trkpt>
      <trkpt lat="47.835002895444632" lon="11.506131934002042">
        <ele>636.049560546875</ele>
        <time>2013-06-15T09:13:47Z</time>
      </trkpt>
      <trkpt lat="47.834733668714762" lon="11.505704373121262">
        <ele>636.5302734375</ele>
        <time>2013-06-15T09:13:54Z</time>
      </trkpt>
      <trkpt lat="47.834602156654" lon="11.505474289879203">
        <ele>637.97216796875</ele>
        <time>2013-06-15T09:13:59Z</time>
      </trkpt>
      <trkpt lat="47.834456479176879" lon="11.505281757563353">
        <ele>636.5302734375</ele>
        <time>2013-06-15T09:14:03Z</time>
      </trkpt>
      <trkpt lat="47.834319351240993" lon="11.505065001547337">
        <ele>632.684814453125</ele>
        <time>2013-06-15T09:14:06Z</time>
      </trkpt>
      <trkpt lat="47.834211057052016" lon="11.504880599677563">
        <ele>628.35888671875</ele>
        <time>2013-06-15T09:14:08Z</time>
      </trkpt>
      <trkpt lat="47.834156071767211" lon="11.504778591915965">
        <ele>629.320068359375</ele>
        <time>2013-06-15T09:14:09Z</time>
      </trkpt>
      <trkpt lat="47.834105780348182" lon="11.504678260535002">
        <ele>628.839599609375</ele>
        <time>2013-06-15T09:14:10Z</time>
      </trkpt>
      <trkpt lat="47.834007795900106" lon="11.504547083750367">
        <ele>628.35888671875</ele>
        <time>2013-06-15T09:14:12Z</time>
      </trkpt>
      <trkpt lat="47.833759859204292" lon="11.5043605864048">
        <ele>625.95556640625</ele>
        <time>2013-06-15T09:14:16Z</time>
      </trkpt>
      <trkpt lat="47.833670927211642" lon="11.504168221727014">
        <ele>624.513671875</ele>
        <time>2013-06-15T09:14:21Z</time>
      </trkpt>
      <trkpt lat="47.833695570006967" lon="11.504195630550385">
        <ele>624.513671875</ele>
        <time>2013-06-15T09:14:31Z</time>
      </trkpt>
      <trkpt lat="47.833749800920486" lon="11.504230750724673">
        <ele>625.474853515625</ele>
        <time>2013-06-15T09:14:38Z</time>
      </trkpt>
      <trkpt lat="47.833761535584927" lon="11.504258494824171">
        <ele>625.474853515625</ele>
        <time>2013-06-15T09:14:45Z</time>
      </trkpt>
      <trkpt lat="47.833761032670736" lon="11.504354886710644">
        <ele>626.436279296875</ele>
        <time>2013-06-15T09:15:19Z</time>
      </trkpt>
      <trkpt lat="47.833748795092106" lon="11.504697958007455">
        <ele>625.95556640625</ele>
        <time>2013-06-15T09:15:26Z</time>
      </trkpt>
      <trkpt lat="47.83374116756022" lon="11.504756379872561">
        <ele>625.474853515625</ele>
        <time>2013-06-15T09:15:27Z</time>
      </trkpt>
      <trkpt lat="47.833692636340857" lon="11.504865931347013">
        <ele>626.436279296875</ele>
        <time>2013-06-15T09:15:30Z</time>
      </trkpt>
      <trkpt lat="47.833682494238019" lon="11.504914378747344">
        <ele>625.95556640625</ele>
        <time>2013-06-15T09:15:32Z</time>
      </trkpt>
      <trkpt lat="47.833711076527834" lon="11.505003394559026">
        <ele>626.9169921875</ele>
        <time>2013-06-15T09:15:35Z</time>
      </trkpt>
      <trkpt lat="47.833713172003627" lon="11.505153514444828">
        <ele>625.95556640625</ele>
        <time>2013-06-15T09:15:41Z</time>
      </trkpt>
      <trkpt lat="47.833680314943194" lon="11.505410838872194">
        <ele>627.397705078125</ele>
        <time>2013-06-15T09:15:48Z</time>
      </trkpt>
      <trkpt lat="47.833616528660059" lon="11.505634635686874">
        <ele>628.839599609375</ele>
        <time>2013-06-15T09:15:53Z</time>
      </trkpt>
      <trkpt lat="47.833502450957894" lon="11.505910148844123">
        <ele>629.320068359375</ele>
        <time>2013-06-15T09:15:59Z</time>
      </trkpt>
      <trkpt lat="47.83344654366374" lon="11.506266295909882">
        <ele>629.320068359375</ele>
        <time>2013-06-15T09:16:06Z</time>
      </trkpt>
      <trkpt lat="47.833443693816662" lon="11.506389677524567">
        <ele>627.397705078125</ele>
        <time>2013-06-15T09:16:08Z</time>
      </trkpt>
      <trkpt lat="47.833393067121506" lon="11.506798127666116">
        <ele>625.474853515625</ele>
        <time>2013-06-15T09:16:12Z</time>
      </trkpt>
      <trkpt lat="47.833103723824024" lon="11.507230130955577">
        <ele>626.436279296875</ele>
        <time>2013-06-15T09:16:16Z</time>
      </trkpt>
      <trkpt lat="47.832853691652417" lon="11.507481755688787">
        <ele>626.436279296875</ele>
        <time>2013-06-15T09:16:22Z</time>
      </trkpt>
      <trkpt lat="47.832792839035392" lon="11.507564065977931">
        <ele>625.95556640625</ele>
        <time>2013-06-15T09:16:24Z</time>
      </trkpt>
      <trkpt lat="47.832613047212362" lon="11.507790125906467">
        <ele>625.474853515625</ele>
        <time>2013-06-15T09:16:30Z</time>
      </trkpt>
      <trkpt lat="47.832515984773636" lon="11.507920799776912">
        <ele>626.9169921875</ele>
        <time>2013-06-15T09:16:33Z</time>
      </trkpt>
      <trkpt lat="47.832378018647432" lon="11.508023645728827">
        <ele>627.397705078125</ele>
        <time>2013-06-15T09:16:37Z</time>
      </trkpt>
      <trkpt lat="47.832335270941257" lon="11.508011491969228">
        <ele>627.397705078125</ele>
        <time>2013-06-15T09:16:38Z</time>
      </trkpt>
      <trkpt lat="47.83197577111423" lon="11.507986262440681">
        <ele>629.80078125</ele>
        <time>2013-06-15T09:16:44Z</time>
      </trkpt>
      <trkpt lat="47.831750884652138" lon="11.507982322946191">
        <ele>630.281494140625</ele>
        <time>2013-06-15T09:16:49Z</time>
      </trkpt>
      <trkpt lat="47.83155893906951" lon="11.507930271327496">
        <ele>630.76220703125</ele>
        <time>2013-06-15T09:16:54Z</time>
      </trkpt>
      <trkpt lat="47.831211425364017" lon="11.507887691259384">
        <ele>632.684814453125</ele>
        <time>2013-06-15T09:17:01Z</time>
      </trkpt>
      <trkpt lat="47.830969439819455" lon="11.507904622703791">
        <ele>633.165283203125</ele>
        <time>2013-06-15T09:17:07Z</time>
      </trkpt>
      <trkpt lat="47.830826360732317" lon="11.507771518081427">
        <ele>634.607421875</ele>
        <time>2013-06-15T09:17:12Z</time>
      </trkpt>
      <trkpt lat="47.830725442618132" lon="11.507766991853714">
        <ele>634.126708984375</ele>
        <time>2013-06-15T09:17:15Z</time>
      </trkpt>
      <trkpt lat="47.830560905858874" lon="11.507774200290442">
        <ele>633.165283203125</ele>
        <time>2013-06-15T09:17:19Z</time>
      </trkpt>
      <trkpt lat="47.830343479290605" lon="11.507981568574905">
        <ele>631.242919921875</ele>
        <time>2013-06-15T09:17:24Z</time>
      </trkpt>
      <trkpt lat="47.83015220426023" lon="11.508107464760542">
        <ele>629.80078125</ele>
        <time>2013-06-15T09:17:27Z</time>
      </trkpt>
      <trkpt lat="47.829858083277941" lon="11.508605601266026">
        <ele>626.436279296875</ele>
        <time>2013-06-15T09:17:31Z</time>
      </trkpt>
      <trkpt lat="47.829711148515344" lon="11.508839540183544">
        <ele>622.591064453125</ele>
        <time>2013-06-15T09:17:33Z</time>
      </trkpt>
      <trkpt lat="47.829479975625873" lon="11.509103570133448">
        <ele>619.226318359375</ele>
        <time>2013-06-15T09:17:36Z</time>
      </trkpt>
      <trkpt lat="47.829391714185476" lon="11.50913936085999">
        <ele>619.70703125</ele>
        <time>2013-06-15T09:17:37Z</time>
      </trkpt>
      <trkpt lat="47.829231871291995" lon="11.509172888472676">
        <ele>621.149169921875</ele>
        <time>2013-06-15T09:17:39Z</time>
      </trkpt>
      <trkpt lat="47.829089714214206" lon="11.509184455499053">
        <ele>622.1103515625</ele>
        <time>2013-06-15T09:17:41Z</time>
      </trkpt>
      <trkpt lat="47.828600630164146" lon="11.509381933137774">
        <ele>623.07177734375</ele>
        <time>2013-06-15T09:17:48Z</time>
      </trkpt>
      <trkpt lat="47.828329391777515" lon="11.509500285610557">
        <ele>622.591064453125</ele>
        <time>2013-06-15T09:17:51Z</time>
      </trkpt>
      <trkpt lat="47.828135769814253" lon="11.509555606171489">
        <ele>621.629638671875</ele>
        <time>2013-06-15T09:17:53Z</time>
      </trkpt>
      <trkpt lat="47.827936112880707" lon="11.509570525959134">
        <ele>620.66845703125</ele>
        <time>2013-06-15T09:17:55Z</time>
      </trkpt>
      <trkpt lat="47.827408807352185" lon="11.509583853185177">
        <ele>616.822998046875</ele>
        <time>2013-06-15T09:18:00Z</time>
      </trkpt>
      <trkpt lat="47.827101275324821" lon="11.509527694433928">
        <ele>613.45849609375</ele>
        <time>2013-06-15T09:18:03Z</time>
      </trkpt>
      <trkpt lat="47.827008236199617" lon="11.509504476562142">
        <ele>612.0166015625</ele>
        <time>2013-06-15T09:18:04Z</time>
      </trkpt>
      <trkpt lat="47.826844705268741" lon="11.50947161950171">
        <ele>611.05517578125</ele>
        <time>2013-06-15T09:18:06Z</time>
      </trkpt>
      <trkpt lat="47.826575059443712" lon="11.509543787688017">
        <ele>611.05517578125</ele>
        <time>2013-06-15T09:18:10Z</time>
      </trkpt>
      <trkpt lat="47.826538933441043" lon="11.509589301422238">
        <ele>611.05517578125</ele>
        <time>2013-06-15T09:18:11Z</time>
      </trkpt>
      <trkpt lat="47.826495096087456" lon="11.509728105738759">
        <ele>610.574462890625</ele>
        <time>2013-06-15T09:18:13Z</time>
      </trkpt>
      <trkpt lat="47.826408091932535" lon="11.510076289996505">
        <ele>611.05517578125</ele>
        <time>2013-06-15T09:18:17Z</time>
      </trkpt>
      <trkpt lat="47.82633357681334" lon="11.510324561968446">
        <ele>609.61328125</ele>
        <time>2013-06-15T09:18:20Z</time>
      </trkpt>
      <trkpt lat="47.826162753626704" lon="11.510618599131703">
        <ele>609.61328125</ele>
        <time>2013-06-15T09:18:24Z</time>
      </trkpt>
      <trkpt lat="47.82568565569818" lon="11.511139115318656">
        <ele>610.09375</ele>
        <time>2013-06-15T09:18:33Z</time>
      </trkpt>
      <trkpt lat="47.82558985054493" lon="11.511268112808466">
        <ele>609.61328125</ele>
        <time>2013-06-15T09:18:35Z</time>
      </trkpt>
      <trkpt lat="47.825458506122231" lon="11.51145352050662">
        <ele>609.61328125</ele>
        <time>2013-06-15T09:18:38Z</time>
      </trkpt>
      <trkpt lat="47.825210150331259" lon="11.511694919317961">
        <ele>610.09375</ele>
        <time>2013-06-15T09:18:43Z</time>
      </trkpt>
      <trkpt lat="47.825059527531266" lon="11.511901617050171">
        <ele>608.17138671875</ele>
        <time>2013-06-15T09:18:48Z</time>
      </trkpt>
      <trkpt lat="47.825074698776007" lon="11.511988285928965">
        <ele>608.65185546875</ele>
        <time>2013-06-15T09:18:49Z</time>
      </trkpt>
      <trkpt lat="47.825167151167989" lon="11.512213088572025">
        <ele>607.690673828125</ele>
        <time>2013-06-15T09:18:52Z</time>
      </trkpt>
      <trkpt lat="47.825330682098866" lon="11.512399921193719">
        <ele>607.2099609375</ele>
        <time>2013-06-15T09:18:56Z</time>
      </trkpt>
      <trkpt lat="47.825865196064115" lon="11.51281775906682">
        <ele>605.287353515625</ele>
        <time>2013-06-15T09:19:07Z</time>
      </trkpt>
      <trkpt lat="47.82656860537827" lon="11.513351770117879">
        <ele>605.76806640625</ele>
        <time>2013-06-15T09:19:20Z</time>
      </trkpt>
      <trkpt lat="47.827288946136832" lon="11.513808500021696">
        <ele>606.24853515625</ele>
        <time>2013-06-15T09:19:33Z</time>
      </trkpt>
      <trkpt lat="47.827339237555861" lon="11.513843704015017">
        <ele>607.2099609375</ele>
        <time>2013-06-15T09:19:34Z</time>
      </trkpt>
      <trkpt lat="47.827486842870712" lon="11.51411309838295">
        <ele>606.24853515625</ele>
        <time>2013-06-15T09:19:39Z</time>
      </trkpt>
      <trkpt lat="47.827517688274384" lon="11.514347707852721">
        <ele>606.24853515625</ele>
        <time>2013-06-15T09:19:42Z</time>
      </trkpt>
      <trkpt lat="47.827564040198922" lon="11.514545017853379">
        <ele>606.24853515625</ele>
        <time>2013-06-15T09:19:45Z</time>
      </trkpt>
      <trkpt lat="47.827525148168206" lon="11.514868978410959">
        <ele>605.76806640625</ele>
        <time>2013-06-15T09:19:50Z</time>
      </trkpt>
      <trkpt lat="47.82723605632782" lon="11.515230573713779">
        <ele>606.729248046875</ele>
        <time>2013-06-15T09:19:58Z</time>
      </trkpt>
      <trkpt lat="47.827031537890434" lon="11.515451688319445">
        <ele>606.729248046875</ele>
        <time>2013-06-15T09:20:03Z</time>
      </trkpt>
      <trkpt lat="47.826896840706468" lon="11.515710353851318">
        <ele>605.287353515625</ele>
        <time>2013-06-15T09:20:07Z</time>
      </trkpt>
      <trkpt lat="47.826882088556886" lon="11.51581646874547">
        <ele>604.806640625</ele>
        <time>2013-06-15T09:20:08Z</time>
      </trkpt>
      <trkpt lat="47.826679414138198" lon="11.516324747353792">
        <ele>602.403076171875</ele>
        <time>2013-06-15T09:20:13Z</time>
      </trkpt>
      <trkpt lat="47.826684527099133" lon="11.516654491424561">
        <ele>602.403076171875</ele>
        <time>2013-06-15T09:20:16Z</time>
      </trkpt>
      <trkpt lat="47.826813776046038" lon="11.517296629026532">
        <ele>601.922607421875</ele>
        <time>2013-06-15T09:20:22Z</time>
      </trkpt>
      <trkpt lat="47.826821990311146" lon="11.517877327278256">
        <ele>600.961181640625</ele>
        <time>2013-06-15T09:20:27Z</time>
      </trkpt>
      <trkpt lat="47.82679189927876" lon="11.518074972555041">
        <ele>600.480712890625</ele>
        <time>2013-06-15T09:20:29Z</time>
      </trkpt>
      <trkpt lat="47.826747475191951" lon="11.518454840406775">
        <ele>600.480712890625</ele>
        <time>2013-06-15T09:20:33Z</time>
      </trkpt>
      <trkpt lat="47.826675726100802" lon="11.519032688811421">
        <ele>601.44189453125</ele>
        <time>2013-06-15T09:20:39Z</time>
      </trkpt>
      <trkpt lat="47.826681425794959" lon="11.519518587738276">
        <ele>600.480712890625</ele>
        <time>2013-06-15T09:20:44Z</time>
      </trkpt>
      <trkpt lat="47.826666589826345" lon="11.519990153610706">
        <ele>599.03857421875</ele>
        <time>2013-06-15T09:20:49Z</time>
      </trkpt>
      <trkpt lat="47.826555110514164" lon="11.520185535773635">
        <ele>599.03857421875</ele>
        <time>2013-06-15T09:20:51Z</time>
      </trkpt>
      <trkpt lat="47.825871398672462" lon="11.521101677790284">
        <ele>598.557861328125</ele>
        <time>2013-06-15T09:21:03Z</time>
      </trkpt>
      <trkpt lat="47.825505109503865" lon="11.521833669394255">
        <ele>599.03857421875</ele>
        <time>2013-06-15T09:21:12Z</time>
      </trkpt>
      <trkpt lat="47.825439227744937" lon="11.522007342427969">
        <ele>599.519287109375</ele>
        <time>2013-06-15T09:21:14Z</time>
      </trkpt>
      <trkpt lat="47.825135048478842" lon="11.522366171702743">
        <ele>600.480712890625</ele>
        <time>2013-06-15T09:21:20Z</time>
      </trkpt>
      <trkpt lat="47.824798515066504" lon="11.522423587739468">
        <ele>601.44189453125</ele>
        <time>2013-06-15T09:21:25Z</time>
      </trkpt>
      <trkpt lat="47.824660129845142" lon="11.522375140339136">
        <ele>601.922607421875</ele>
        <time>2013-06-15T09:21:27Z</time>
      </trkpt>
      <trkpt lat="47.824151096865535" lon="11.522055706009269">
        <ele>601.44189453125</ele>
        <time>2013-06-15T09:21:36Z</time>
      </trkpt>
      <trkpt lat="47.824012292549014" lon="11.521972389891744">
        <ele>604.806640625</ele>
        <time>2013-06-15T09:21:40Z</time>
      </trkpt>
      <trkpt lat="47.82398278824985" lon="11.521956464275718">
        <ele>604.806640625</ele>
        <time>2013-06-15T09:21:41Z</time>
      </trkpt>
      <trkpt lat="47.823875164613128" lon="11.521802907809615">
        <ele>607.2099609375</ele>
        <time>2013-06-15T09:21:46Z</time>
      </trkpt>
      <trkpt lat="47.823793441057205" lon="11.521721519529819">
        <ele>608.65185546875</ele>
        <time>2013-06-15T09:21:49Z</time>
      </trkpt>
      <trkpt lat="47.823689756914973" lon="11.521666198968887">
        <ele>609.132568359375</ele>
        <time>2013-06-15T09:21:51Z</time>
      </trkpt>
      <trkpt lat="47.823483645915985" lon="11.521550863981247">
        <ele>608.65185546875</ele>
        <time>2013-06-15T09:21:55Z</time>
      </trkpt>
      <trkpt lat="47.823331849649549" lon="11.521449442952871">
        <ele>609.132568359375</ele>
        <time>2013-06-15T09:21:59Z</time>
      </trkpt>
      <trkpt lat="47.823236715048552" lon="11.521454891189933">
        <ele>608.65185546875</ele>
        <time>2013-06-15T09:22:01Z</time>
      </trkpt>
      <trkpt lat="47.823041584342718" lon="11.52150409296155">
        <ele>609.132568359375</ele>
        <time>2013-06-15T09:22:05Z</time>
      </trkpt>
      <trkpt lat="47.822688370943069" lon="11.521464614197612">
        <ele>609.61328125</ele>
        <time>2013-06-15T09:22:12Z</time>
      </trkpt>
      <trkpt lat="47.822580328211188" lon="11.521457070484757">
        <ele>609.61328125</ele>
        <time>2013-06-15T09:22:14Z</time>
      </trkpt>
      <trkpt lat="47.822365080937743" lon="11.5214635245502">
        <ele>607.690673828125</ele>
        <time>2013-06-15T09:22:18Z</time>
      </trkpt>
      <trkpt lat="47.821960570290685" lon="11.521499734371901">
        <ele>610.09375</ele>
        <time>2013-06-15T09:22:25Z</time>
      </trkpt>
      <trkpt lat="47.82155035994947" lon="11.521793520078063">
        <ele>610.574462890625</ele>
        <time>2013-06-15T09:22:33Z</time>
      </trkpt>
      <trkpt lat="47.821447094902396" lon="11.521869292482734">
        <ele>611.535888671875</ele>
        <time>2013-06-15T09:22:35Z</time>
      </trkpt>
      <trkpt lat="47.821002267301083" lon="11.522111529484391">
        <ele>611.05517578125</ele>
        <time>2013-06-15T09:22:43Z</time>
      </trkpt>
      <trkpt lat="47.820494156330824" lon="11.522313198074698">
        <ele>612.0166015625</ele>
        <time>2013-06-15T09:22:52Z</time>
      </trkpt>
      <trkpt lat="47.820314280688763" lon="11.522370195016265">
        <ele>612.4970703125</ele>
        <time>2013-06-15T09:22:55Z</time>
      </trkpt>
      <trkpt lat="47.820038180798292" lon="11.522373212501407">
        <ele>612.0166015625</ele>
        <time>2013-06-15T09:23:00Z</time>
      </trkpt>
      <trkpt lat="47.819871045649052" lon="11.522350665181875">
        <ele>611.535888671875</ele>
        <time>2013-06-15T09:23:03Z</time>
      </trkpt>
      <trkpt lat="47.819592347368598" lon="11.522291405126452">
        <ele>612.0166015625</ele>
        <time>2013-06-15T09:23:09Z</time>
      </trkpt>
      <trkpt lat="47.819424206390977" lon="11.522275228053331">
        <ele>613.45849609375</ele>
        <time>2013-06-15T09:23:12Z</time>
      </trkpt>
      <trkpt lat="47.819159589707851" lon="11.522124018520117">
        <ele>615.381103515625</ele>
        <time>2013-06-15T09:23:17Z</time>
      </trkpt>
      <trkpt lat="47.81902028247714" lon="11.521978173404932">
        <ele>613.93896484375</ele>
        <time>2013-06-15T09:23:20Z</time>
      </trkpt>
      <trkpt lat="47.818817775696516" lon="11.521859653294086">
        <ele>613.93896484375</ele>
        <time>2013-06-15T09:23:24Z</time>
      </trkpt>
      <trkpt lat="47.81865181401372" lon="11.521798716858029">
        <ele>614.419677734375</ele>
        <time>2013-06-15T09:23:27Z</time>
      </trkpt>
      <trkpt lat="47.818538574501872" lon="11.521557234227657">
        <ele>613.93896484375</ele>
        <time>2013-06-15T09:23:30Z</time>
      </trkpt>
      <trkpt lat="47.818349311128259" lon="11.521377610042691">
        <ele>613.93896484375</ele>
        <time>2013-06-15T09:23:34Z</time>
      </trkpt>
      <trkpt lat="47.817715387791395" lon="11.521081561222672">
        <ele>614.900390625</ele>
        <time>2013-06-15T09:23:44Z</time>
      </trkpt>
      <trkpt lat="47.816825732588768" lon="11.520587783306837">
        <ele>614.900390625</ele>
        <time>2013-06-15T09:24:00Z</time>
      </trkpt>
      <trkpt lat="47.81636212952435" lon="11.52038611471653">
        <ele>616.822998046875</ele>
        <time>2013-06-15T09:24:09Z</time>
      </trkpt>
      <trkpt lat="47.816167920827866" lon="11.520290812477469">
        <ele>616.822998046875</ele>
        <time>2013-06-15T09:24:15Z</time>
      </trkpt>
      <trkpt lat="47.816151827573776" lon="11.520258290693164">
        <ele>617.3037109375</ele>
        <time>2013-06-15T09:24:21Z</time>
      </trkpt>
      <trkpt lat="47.816157359629869" lon="11.520262565463781">
        <ele>620.187744140625</ele>
        <time>2013-06-15T09:28:07Z</time>
      </trkpt>
      <trkpt lat="47.816170267760754" lon="11.52023951523006">
        <ele>619.70703125</ele>
        <time>2013-06-15T09:28:17Z</time>
      </trkpt>
      <trkpt lat="47.816154342144728" lon="11.52022635564208">
        <ele>619.70703125</ele>
        <time>2013-06-15T09:28:31Z</time>
      </trkpt>
      <trkpt lat="47.816072031855583" lon="11.519972300156951">
        <ele>619.226318359375</ele>
        <time>2013-06-15T09:28:39Z</time>
      </trkpt>
      <trkpt lat="47.816032217815518" lon="11.519370060414076">
        <ele>619.70703125</ele>
        <time>2013-06-15T09:28:50Z</time>
      </trkpt>
      <trkpt lat="47.816017717123032" lon="11.518403962254524">
        <ele>620.187744140625</ele>
        <time>2013-06-15T09:29:05Z</time>
      </trkpt>
      <trkpt lat="47.816107738763094" lon="11.517299814149737">
        <ele>620.187744140625</ele>
        <time>2013-06-15T09:29:19Z</time>
      </trkpt>
      <trkpt lat="47.816297672688961" lon="11.516213351860642">
        <ele>621.629638671875</ele>
        <time>2013-06-15T09:29:34Z</time>
      </trkpt>
      <trkpt lat="47.816305216401815" lon="11.516004810109735">
        <ele>620.66845703125</ele>
        <time>2013-06-15T09:29:37Z</time>
      </trkpt>
      <trkpt lat="47.816199017688632" lon="11.51576416566968">
        <ele>620.187744140625</ele>
        <time>2013-06-15T09:29:41Z</time>
      </trkpt>
      <trkpt lat="47.81605870462954" lon="11.515731392428279">
        <ele>619.70703125</ele>
        <time>2013-06-15T09:29:43Z</time>
      </trkpt>
      <trkpt lat="47.815200481563807" lon="11.515458393841982">
        <ele>621.149169921875</ele>
        <time>2013-06-15T09:29:58Z</time>
      </trkpt>
      <trkpt lat="47.814377378672361" lon="11.515213055536151">
        <ele>621.149169921875</ele>
        <time>2013-06-15T09:30:12Z</time>
      </trkpt>
      <trkpt lat="47.813692493364215" lon="11.515180701389909">
        <ele>621.149169921875</ele>
        <time>2013-06-15T09:30:23Z</time>
      </trkpt>
      <trkpt lat="47.813131911680102" lon="11.515211127698421">
        <ele>619.70703125</ele>
        <time>2013-06-15T09:30:32Z</time>
      </trkpt>
      <trkpt lat="47.812555152922869" lon="11.51518221013248">
        <ele>621.149169921875</ele>
        <time>2013-06-15T09:30:42Z</time>
      </trkpt>
      <trkpt lat="47.812338229268789" lon="11.515152454376221">
        <ele>620.66845703125</ele>
        <time>2013-06-15T09:30:46Z</time>
      </trkpt>
      <trkpt lat="47.8121183719486" lon="11.515091601759195">
        <ele>620.66845703125</ele>
        <time>2013-06-15T09:30:50Z</time>
      </trkpt>
      <trkpt lat="47.811800613999367" lon="11.515091517940164">
        <ele>620.66845703125</ele>
        <time>2013-06-15T09:30:55Z</time>
      </trkpt>
      <trkpt lat="47.811526441946626" lon="11.514987917616963">
        <ele>620.66845703125</ele>
        <time>2013-06-15T09:31:00Z</time>
      </trkpt>
      <trkpt lat="47.811152022331953" lon="11.515034604817629">
        <ele>620.66845703125</ele>
        <time>2013-06-15T09:31:06Z</time>
      </trkpt>
      <trkpt lat="47.8108318336308" lon="11.515266951173544">
        <ele>620.66845703125</ele>
        <time>2013-06-15T09:31:11Z</time>
      </trkpt>
      <trkpt lat="47.810724629089236" lon="11.515361582860351">
        <ele>620.66845703125</ele>
        <time>2013-06-15T09:31:13Z</time>
      </trkpt>
      <trkpt lat="47.810555566102266" lon="11.515498124063015">
        <ele>620.66845703125</ele>
        <time>2013-06-15T09:31:17Z</time>
      </trkpt>
      <trkpt lat="47.810308802872896" lon="11.515642963349819">
        <ele>621.149169921875</ele>
        <time>2013-06-15T09:31:23Z</time>
      </trkpt>
      <trkpt lat="47.810071259737015" lon="11.515803057700396">
        <ele>621.629638671875</ele>
        <time>2013-06-15T09:31:27Z</time>
      </trkpt>
      <trkpt lat="47.809543870389462" lon="11.51592593640089">
        <ele>623.07177734375</ele>
        <time>2013-06-15T09:31:36Z</time>
      </trkpt>
      <trkpt lat="47.809434235095978" lon="11.515942281112075">
        <ele>623.552490234375</ele>
        <time>2013-06-15T09:31:38Z</time>
      </trkpt>
      <trkpt lat="47.809265339747071" lon="11.515977485105395">
        <ele>624.994384765625</ele>
        <time>2013-06-15T09:31:41Z</time>
      </trkpt>
      <trkpt lat="47.80886217020452" lon="11.516075301915407">
        <ele>625.95556640625</ele>
        <time>2013-06-15T09:31:48Z</time>
      </trkpt>
      <trkpt lat="47.808334026485682" lon="11.516231456771493">
        <ele>626.436279296875</ele>
        <time>2013-06-15T09:31:57Z</time>
      </trkpt>
      <trkpt lat="47.807847624644637" lon="11.516583831980824">
        <ele>626.436279296875</ele>
        <time>2013-06-15T09:32:06Z</time>
      </trkpt>
      <trkpt lat="47.807283019647002" lon="11.517088757827878">
        <ele>628.839599609375</ele>
        <time>2013-06-15T09:32:17Z</time>
      </trkpt>
      <trkpt lat="47.807171205058694" lon="11.517161261290312">
        <ele>627.397705078125</ele>
        <time>2013-06-15T09:32:19Z</time>
      </trkpt>
      <trkpt lat="47.806833917275071" lon="11.5172119718045">
        <ele>629.320068359375</ele>
        <time>2013-06-15T09:32:26Z</time>
      </trkpt>
      <trkpt lat="47.80673760920763" lon="11.517217252403498">
        <ele>630.281494140625</ele>
        <time>2013-06-15T09:32:28Z</time>
      </trkpt>
      <trkpt lat="47.806268893182278" lon="11.517133936285973">
        <ele>633.64599609375</ele>
        <time>2013-06-15T09:32:39Z</time>
      </trkpt>
      <trkpt lat="47.805823059752584" lon="11.517005944624543">
        <ele>636.049560546875</ele>
        <time>2013-06-15T09:32:50Z</time>
      </trkpt>
      <trkpt lat="47.805282678455114" lon="11.516884574666619">
        <ele>639.4140625</ele>
        <time>2013-06-15T09:33:03Z</time>
      </trkpt>
      <trkpt lat="47.804697621613741" lon="11.516772508621216">
        <ele>642.77880859375</ele>
        <time>2013-06-15T09:33:17Z</time>
      </trkpt>
      <trkpt lat="47.804237958043814" lon="11.516710063442588">
        <ele>645.181884765625</ele>
        <time>2013-06-15T09:33:28Z</time>
      </trkpt>
      <trkpt lat="47.80364896170795" lon="11.516612414270639">
        <ele>647.585205078125</ele>
        <time>2013-06-15T09:33:42Z</time>
      </trkpt>
      <trkpt lat="47.803093576803803" lon="11.516498923301697">
        <ele>649.988525390625</ele>
        <time>2013-06-15T09:33:55Z</time>
      </trkpt>
      <trkpt lat="47.802382288500667" lon="11.51630898937583">
        <ele>652.391845703125</ele>
        <time>2013-06-15T09:34:12Z</time>
      </trkpt>
      <trkpt lat="47.801916673779488" lon="11.516146464273334">
        <ele>653.353271484375</ele>
        <time>2013-06-15T09:34:23Z</time>
      </trkpt>
      <trkpt lat="47.801436558365822" lon="11.515917051583529">
        <ele>656.237060546875</ele>
        <time>2013-06-15T09:34:35Z</time>
      </trkpt>
      <trkpt lat="47.801001286134124" lon="11.515740025788546">
        <ele>659.12109375</ele>
        <time>2013-06-15T09:34:46Z</time>
      </trkpt>
      <trkpt lat="47.800918892025948" lon="11.515702642500401">
        <ele>660.082275390625</ele>
        <time>2013-06-15T09:34:48Z</time>
      </trkpt>
      <trkpt lat="47.800530306994915" lon="11.515539195388556">
        <ele>659.12109375</ele>
        <time>2013-06-15T09:34:59Z</time>
      </trkpt>
      <trkpt lat="47.800140213221312" lon="11.515488987788558">
        <ele>658.640380859375</ele>
        <time>2013-06-15T09:35:09Z</time>
      </trkpt>
      <trkpt lat="47.799717262387276" lon="11.515479013323784">
        <ele>657.198486328125</ele>
        <time>2013-06-15T09:35:18Z</time>
      </trkpt>
      <trkpt lat="47.799085266888142" lon="11.515469625592232">
        <ele>658.159912109375</ele>
        <time>2013-06-15T09:35:30Z</time>
      </trkpt>
      <trkpt lat="47.799035897478461" lon="11.515460573136806">
        <ele>658.640380859375</ele>
        <time>2013-06-15T09:35:31Z</time>
      </trkpt>
      <trkpt lat="47.7985520940274" lon="11.515299556776881">
        <ele>658.640380859375</ele>
        <time>2013-06-15T09:35:41Z</time>
      </trkpt>
      <trkpt lat="47.797984890639782" lon="11.514914408326149">
        <ele>658.159912109375</ele>
        <time>2013-06-15T09:35:53Z</time>
      </trkpt>
      <trkpt lat="47.797284163534641" lon="11.514197336509824">
        <ele>658.159912109375</ele>
        <time>2013-06-15T09:36:10Z</time>
      </trkpt>
      <trkpt lat="47.797122476622462" lon="11.514048641547561">
        <ele>657.198486328125</ele>
        <time>2013-06-15T09:36:14Z</time>
      </trkpt>
      <trkpt lat="47.796853836625814" lon="11.51384093798697">
        <ele>654.795166015625</ele>
        <time>2013-06-15T09:36:20Z</time>
      </trkpt>
      <trkpt lat="47.796298954635859" lon="11.513503566384315">
        <ele>653.833984375</ele>
        <time>2013-06-15T09:36:30Z</time>
      </trkpt>
      <trkpt lat="47.795956134796143" lon="11.513406923040748">
        <ele>650.46923828125</ele>
        <time>2013-06-15T09:36:35Z</time>
      </trkpt>
      <trkpt lat="47.79579964466393" lon="11.513387309387326">
        <ele>649.5078125</ele>
        <time>2013-06-15T09:36:37Z</time>
      </trkpt>
      <trkpt lat="47.795487167313695" lon="11.513373730704188">
        <ele>646.143310546875</ele>
        <time>2013-06-15T09:36:41Z</time>
      </trkpt>
      <trkpt lat="47.795414915308356" lon="11.513373730704188">
        <ele>646.6240234375</ele>
        <time>2013-06-15T09:36:42Z</time>
      </trkpt>
      <trkpt lat="47.795092547312379" lon="11.513388315215707">
        <ele>643.25927734375</ele>
        <time>2013-06-15T09:36:47Z</time>
      </trkpt>
      <trkpt lat="47.795036137104034" lon="11.513391919434071">
        <ele>642.77880859375</ele>
        <time>2013-06-15T09:36:48Z</time>
      </trkpt>
      <trkpt lat="47.794871181249619" lon="11.513389572501183">
        <ele>641.336669921875</ele>
        <time>2013-06-15T09:36:52Z</time>
      </trkpt>
      <trkpt lat="47.794873779639602" lon="11.513268370181322">
        <ele>641.8173828125</ele>
        <time>2013-06-15T09:36:57Z</time>
      </trkpt>
      <trkpt lat="47.794892555102706" lon="11.513281697407365">
        <ele>641.8173828125</ele>
        <time>2013-06-15T09:36:58Z</time>
      </trkpt>
      <trkpt lat="47.794916527345777" lon="11.513349087908864">
        <ele>641.8173828125</ele>
        <time>2013-06-15T09:37:04Z</time>
      </trkpt>
      <trkpt lat="47.794914096593857" lon="11.513352859765291">
        <ele>642.298095703125</ele>
        <time>2013-06-15T09:37:55Z</time>
      </trkpt>
      <trkpt lat="47.794914180412889" lon="11.51336207985878">
        <ele>642.298095703125</ele>
        <time>2013-06-15T09:38:56Z</time>
      </trkpt>
      <trkpt lat="47.794808149337769" lon="11.513405414298177">
        <ele>640.85595703125</ele>
        <time>2013-06-15T09:39:01Z</time>
      </trkpt>
      <trkpt lat="47.794502880424261" lon="11.513446653261781">
        <ele>638.93359375</ele>
        <time>2013-06-15T09:39:06Z</time>
      </trkpt>
      <trkpt lat="47.794425683096051" lon="11.513460902497172">
        <ele>638.452880859375</ele>
        <time>2013-06-15T09:39:07Z</time>
      </trkpt>
      <trkpt lat="47.794263325631618" lon="11.513502895832062">
        <ele>637.491455078125</ele>
        <time>2013-06-15T09:39:09Z</time>
      </trkpt>
      <trkpt lat="47.79400440864265" lon="11.513612447306514">
        <ele>635.568603515625</ele>
        <time>2013-06-15T09:39:12Z</time>
      </trkpt>
      <trkpt lat="47.79382411390543" lon="11.5137236751616">
        <ele>632.684814453125</ele>
        <time>2013-06-15T09:39:14Z</time>
      </trkpt>
      <trkpt lat="47.793548097833991" lon="11.513940682634711">
        <ele>630.76220703125</ele>
        <time>2013-06-15T09:39:17Z</time>
      </trkpt>
      <trkpt lat="47.792973099276423" lon="11.514471508562565">
        <ele>626.9169921875</ele>
        <time>2013-06-15T09:39:23Z</time>
      </trkpt>
      <trkpt lat="47.792478566989303" lon="11.514888256788254">
        <ele>623.552490234375</ele>
        <time>2013-06-15T09:39:28Z</time>
      </trkpt>
      <trkpt lat="47.791882948949933" lon="11.515408772975206">
        <ele>624.994384765625</ele>
        <time>2013-06-15T09:39:35Z</time>
      </trkpt>
      <trkpt lat="47.791432337835431" lon="11.515889475122094">
        <ele>624.994384765625</ele>
        <time>2013-06-15T09:39:42Z</time>
      </trkpt>
      <trkpt lat="47.790934620425105" lon="11.516557931900024">
        <ele>624.513671875</ele>
        <time>2013-06-15T09:39:52Z</time>
      </trkpt>
      <trkpt lat="47.790716188028455" lon="11.516904272139072">
        <ele>625.95556640625</ele>
        <time>2013-06-15T09:39:57Z</time>
      </trkpt>
      <trkpt lat="47.790301200002432" lon="11.517704240977764">
        <ele>627.397705078125</ele>
        <time>2013-06-15T09:40:08Z</time>
      </trkpt>
      <trkpt lat="47.789976904168725" lon="11.5183793194592">
        <ele>627.397705078125</ele>
        <time>2013-06-15T09:40:19Z</time>
      </trkpt>
      <trkpt lat="47.789491591975093" lon="11.51937517337501">
        <ele>629.320068359375</ele>
        <time>2013-06-15T09:40:34Z</time>
      </trkpt>
      <trkpt lat="47.788762114942074" lon="11.520881149917841">
        <ele>629.80078125</ele>
        <time>2013-06-15T09:40:55Z</time>
      </trkpt>
      <trkpt lat="47.788115786388516" lon="11.522209094837308">
        <ele>630.76220703125</ele>
        <time>2013-06-15T09:41:13Z</time>
      </trkpt>
      <trkpt lat="47.787533411756158" lon="11.52327636256814">
        <ele>633.64599609375</ele>
        <time>2013-06-15T09:41:29Z</time>
      </trkpt>
      <trkpt lat="47.787228645756841" lon="11.523766200989485">
        <ele>635.088134765625</ele>
        <time>2013-06-15T09:41:38Z</time>
      </trkpt>
      <trkpt lat="47.787202326580882" lon="11.523808026686311">
        <ele>635.568603515625</ele>
        <time>2013-06-15T09:41:39Z</time>
      </trkpt>
      <trkpt lat="47.78694860637188" lon="11.524193929508328">
        <ele>638.93359375</ele>
        <time>2013-06-15T09:41:49Z</time>
      </trkpt>
      <trkpt lat="47.786675356328487" lon="11.52466407045722">
        <ele>642.298095703125</ele>
        <time>2013-06-15T09:42:03Z</time>
      </trkpt>
      <trkpt lat="47.786497324705124" lon="11.524924663826823">
        <ele>644.220703125</ele>
        <time>2013-06-15T09:42:11Z</time>
      </trkpt>
      <trkpt lat="47.78629875741899" lon="11.52518249116838">
        <ele>646.6240234375</ele>
        <time>2013-06-15T09:42:19Z</time>
      </trkpt>
      <trkpt lat="47.786245532333851" lon="11.525243176147342">
        <ele>647.585205078125</ele>
        <time>2013-06-15T09:42:21Z</time>
      </trkpt>
      <trkpt lat="47.785897767171264" lon="11.525656152516603">
        <ele>650.94970703125</ele>
        <time>2013-06-15T09:42:35Z</time>
      </trkpt>
      <trkpt lat="47.78587413020432" lon="11.525684902444482">
        <ele>650.94970703125</ele>
        <time>2013-06-15T09:42:36Z</time>
      </trkpt>
      <trkpt lat="47.785571040585637" lon="11.526068625971675">
        <ele>654.314697265625</ele>
        <time>2013-06-15T09:42:49Z</time>
      </trkpt>
      <trkpt lat="47.785440115258098" lon="11.526258559897542">
        <ele>655.756591796875</ele>
        <time>2013-06-15T09:42:55Z</time>
      </trkpt>
      <trkpt lat="47.785166697576642" lon="11.52663566172123">
        <ele>658.640380859375</ele>
        <time>2013-06-15T09:43:07Z</time>
      </trkpt>
      <trkpt lat="47.78495061211288" lon="11.526913018897176">
        <ele>661.5244140625</ele>
        <time>2013-06-15T09:43:16Z</time>
      </trkpt>
      <trkpt lat="47.784774340689182" lon="11.52711795642972">
        <ele>662.96630859375</ele>
        <time>2013-06-15T09:43:23Z</time>
      </trkpt>
      <trkpt lat="47.784464294090867" lon="11.527460776269436">
        <ele>666.330810546875</ele>
        <time>2013-06-15T09:43:35Z</time>
      </trkpt>
      <trkpt lat="47.784166568890214" lon="11.527872579172254">
        <ele>667.772705078125</ele>
        <time>2013-06-15T09:43:47Z</time>
      </trkpt>
      <trkpt lat="47.783877812325954" lon="11.528446907177567">
        <ele>667.292236328125</ele>
        <time>2013-06-15T09:43:57Z</time>
      </trkpt>
      <trkpt lat="47.783644376322627" lon="11.528965411707759">
        <ele>666.8115234375</ele>
        <time>2013-06-15T09:44:06Z</time>
      </trkpt>
      <trkpt lat="47.783655105158687" lon="11.529282331466675">
        <ele>666.330810546875</ele>
        <time>2013-06-15T09:44:11Z</time>
      </trkpt>
      <trkpt lat="47.783809248358011" lon="11.529652560129762">
        <ele>667.292236328125</ele>
        <time>2013-06-15T09:44:19Z</time>
      </trkpt>
      <trkpt lat="47.783758454024792" lon="11.530328812077641">
        <ele>669.69580078125</ele>
        <time>2013-06-15T09:44:30Z</time>
      </trkpt>
      <trkpt lat="47.783703301101923" lon="11.531101875007153">
        <ele>668.253662109375</ele>
        <time>2013-06-15T09:44:40Z</time>
      </trkpt>
      <trkpt lat="47.783681340515614" lon="11.531308321282268">
        <ele>667.292236328125</ele>
        <time>2013-06-15T09:44:42Z</time>
      </trkpt>
      <trkpt lat="47.783641861751676" lon="11.531541924923658">
        <ele>664.888916015625</ele>
        <time>2013-06-15T09:44:44Z</time>
      </trkpt>
      <trkpt lat="47.783591402694583" lon="11.531796734780073">
        <ele>663.927490234375</ele>
        <time>2013-06-15T09:44:46Z</time>
      </trkpt>
      <trkpt lat="47.783470619469881" lon="11.532142236828804">
        <ele>662.485595703125</ele>
        <time>2013-06-15T09:44:49Z</time>
      </trkpt>
      <trkpt lat="47.782975248992443" lon="11.532857799902558">
        <ele>660.56298828125</ele>
        <time>2013-06-15T09:44:56Z</time>
      </trkpt>
      <trkpt lat="47.782847173511982" lon="11.533088637515903">
        <ele>660.082275390625</ele>
        <time>2013-06-15T09:44:58Z</time>
      </trkpt>
      <trkpt lat="47.782701328396797" lon="11.533480994403362">
        <ele>659.12109375</ele>
        <time>2013-06-15T09:45:01Z</time>
      </trkpt>
      <trkpt lat="47.782666124403477" lon="11.534209046512842">
        <ele>658.159912109375</ele>
        <time>2013-06-15T09:45:06Z</time>
      </trkpt>
      <trkpt lat="47.782695880159736" lon="11.534354137256742">
        <ele>657.198486328125</ele>
        <time>2013-06-15T09:45:07Z</time>
      </trkpt>
      <trkpt lat="47.782771652564406" lon="11.534640295431018">
        <ele>656.237060546875</ele>
        <time>2013-06-15T09:45:09Z</time>
      </trkpt>
      <trkpt lat="47.782883299514651" lon="11.535060480237007">
        <ele>654.795166015625</ele>
        <time>2013-06-15T09:45:12Z</time>
      </trkpt>
      <trkpt lat="47.782920934259892" lon="11.535198614001274">
        <ele>654.795166015625</ele>
        <time>2013-06-15T09:45:13Z</time>
      </trkpt>
      <trkpt lat="47.783013973385096" lon="11.535818623378873">
        <ele>651.430419921875</ele>
        <time>2013-06-15T09:45:17Z</time>
      </trkpt>
      <trkpt lat="47.783001735806465" lon="11.53598609380424">
        <ele>650.46923828125</ele>
        <time>2013-06-15T09:45:18Z</time>
      </trkpt>
      <trkpt lat="47.782927304506302" lon="11.536479284986854">
        <ele>649.027099609375</ele>
        <time>2013-06-15T09:45:21Z</time>
      </trkpt>
      <trkpt lat="47.782967034727335" lon="11.537309680134058">
        <ele>646.143310546875</ele>
        <time>2013-06-15T09:45:26Z</time>
      </trkpt>
      <trkpt lat="47.783030401915312" lon="11.53779155574739">
        <ele>645.181884765625</ele>
        <time>2013-06-15T09:45:29Z</time>
      </trkpt>
      <trkpt lat="47.783048758283257" lon="11.538118701428175">
        <ele>644.220703125</ele>
        <time>2013-06-15T09:45:31Z</time>
      </trkpt>
      <trkpt lat="47.783080525696278" lon="11.538620358332992">
        <ele>642.77880859375</ele>
        <time>2013-06-15T09:45:34Z</time>
      </trkpt>
      <trkpt lat="47.783054793253541" lon="11.539075411856174">
        <ele>644.220703125</ele>
        <time>2013-06-15T09:45:38Z</time>
      </trkpt>
      <trkpt lat="47.783027468249202" lon="11.539115142077208">
        <ele>644.220703125</ele>
        <time>2013-06-15T09:45:42Z</time>
      </trkpt>
      <trkpt lat="47.783039202913642" lon="11.539083290845156">
        <ele>644.220703125</ele>
        <time>2013-06-15T09:46:14Z</time>
      </trkpt>
      <trkpt lat="47.783035263419151" lon="11.539161326363683">
        <ele>644.220703125</ele>
        <time>2013-06-15T09:46:17Z</time>
      </trkpt>
      <trkpt lat="47.783007435500622" lon="11.539255371317267">
        <ele>643.739990234375</ele>
        <time>2013-06-15T09:46:22Z</time>
      </trkpt>
      <trkpt lat="47.782950941473246" lon="11.539258556440473">
        <ele>644.701171875</ele>
        <time>2013-06-15T09:49:02Z</time>
      </trkpt>
      <trkpt lat="47.782657826319337" lon="11.539339357987046">
        <ele>645.66259765625</ele>
        <time>2013-06-15T09:49:10Z</time>
      </trkpt>
      <trkpt lat="47.782026333734393" lon="11.539569022133946">
        <ele>647.1044921875</ele>
        <time>2013-06-15T09:49:25Z</time>
      </trkpt>
      <trkpt lat="47.781413784250617" lon="11.539680501446128">
        <ele>649.027099609375</ele>
        <time>2013-06-15T09:49:39Z</time>
      </trkpt>
      <trkpt lat="47.780876252800226" lon="11.539598442614079">
        <ele>651.430419921875</ele>
        <time>2013-06-15T09:49:52Z</time>
      </trkpt>
      <trkpt lat="47.780616246163845" lon="11.539472965523601">
        <ele>651.9111328125</ele>
        <time>2013-06-15T09:49:59Z</time>
      </trkpt>
      <trkpt lat="47.780552124604583" lon="11.539434408769011">
        <ele>651.430419921875</ele>
        <time>2013-06-15T09:50:01Z</time>
      </trkpt>
      <trkpt lat="47.78024073690176" lon="11.539244139567018">
        <ele>652.87255859375</ele>
        <time>2013-06-15T09:50:09Z</time>
      </trkpt>
      <trkpt lat="47.780204778537154" lon="11.539219245314598">
        <ele>652.391845703125</ele>
        <time>2013-06-15T09:50:10Z</time>
      </trkpt>
      <trkpt lat="47.779924822971225" lon="11.539038447663188">
        <ele>652.391845703125</ele>
        <time>2013-06-15T09:50:16Z</time>
      </trkpt>
      <trkpt lat="47.77962408028543" lon="11.538798054680228">
        <ele>651.9111328125</ele>
        <time>2013-06-15T09:50:21Z</time>
      </trkpt>
      <trkpt lat="47.779143545776606" lon="11.538572330027819">
        <ele>649.988525390625</ele>
        <time>2013-06-15T09:50:28Z</time>
      </trkpt>
      <trkpt lat="47.778525212779641" lon="11.538316011428833">
        <ele>646.6240234375</ele>
        <time>2013-06-15T09:50:35Z</time>
      </trkpt>
      <trkpt lat="47.778427731245756" lon="11.538293799385428">
        <ele>646.6240234375</ele>
        <time>2013-06-15T09:50:36Z</time>
      </trkpt>
      <trkpt lat="47.777774026617408" lon="11.538071343675256">
        <ele>644.220703125</ele>
        <time>2013-06-15T09:50:43Z</time>
      </trkpt>
      <trkpt lat="47.77745895087719" lon="11.538001857697964">
        <ele>642.77880859375</ele>
        <time>2013-06-15T09:50:46Z</time>
      </trkpt>
      <trkpt lat="47.776604164391756" lon="11.53773682191968">
        <ele>639.4140625</ele>
        <time>2013-06-15T09:50:55Z</time>
      </trkpt>
      <trkpt lat="47.775912908837199" lon="11.537537919357419">
        <ele>637.97216796875</ele>
        <time>2013-06-15T09:51:03Z</time>
      </trkpt>
      <trkpt lat="47.775449557229877" lon="11.537590473890305">
        <ele>637.491455078125</ele>
        <time>2013-06-15T09:51:09Z</time>
      </trkpt>
      <trkpt lat="47.775253839790821" lon="11.537613356485963">
        <ele>636.049560546875</ele>
        <time>2013-06-15T09:51:12Z</time>
      </trkpt>
      <trkpt lat="47.77463274076581" lon="11.537854000926018">
        <ele>636.049560546875</ele>
        <time>2013-06-15T09:51:21Z</time>
      </trkpt>
      <trkpt lat="47.773972330614924" lon="11.538023147732019">
        <ele>636.049560546875</ele>
        <time>2013-06-15T09:51:30Z</time>
      </trkpt>
      <trkpt lat="47.773434212431312" lon="11.538154995068908">
        <ele>636.049560546875</ele>
        <time>2013-06-15T09:51:38Z</time>
      </trkpt>
      <trkpt lat="47.772902799770236" lon="11.538396310061216">
        <ele>636.5302734375</ele>
        <time>2013-06-15T09:51:46Z</time>
      </trkpt>
      <trkpt lat="47.7724314853549" lon="11.538557158783078">
        <ele>636.049560546875</ele>
        <time>2013-06-15T09:51:53Z</time>
      </trkpt>
      <trkpt lat="47.771821282804012" lon="11.538751451298594">
        <ele>636.5302734375</ele>
        <time>2013-06-15T09:52:02Z</time>
      </trkpt>
      <trkpt lat="47.771330270916224" lon="11.538990838453174">
        <ele>637.491455078125</ele>
        <time>2013-06-15T09:52:10Z</time>
      </trkpt>
      <trkpt lat="47.771195573732257" lon="11.539023946970701">
        <ele>636.5302734375</ele>
        <time>2013-06-15T09:52:12Z</time>
      </trkpt>
      <trkpt lat="47.771001365035772" lon="11.539046745747328">
        <ele>636.5302734375</ele>
        <time>2013-06-15T09:52:15Z</time>
      </trkpt>
      <trkpt lat="47.770507084205747" lon="11.539215892553329">
        <ele>637.491455078125</ele>
        <time>2013-06-15T09:52:23Z</time>
      </trkpt>
      <trkpt lat="47.77002789080143" lon="11.539373220875859">
        <ele>637.491455078125</ele>
        <time>2013-06-15T09:52:31Z</time>
      </trkpt>
      <trkpt lat="47.769545176997781" lon="11.539534153416753">
        <ele>638.452880859375</ele>
        <time>2013-06-15T09:52:39Z</time>
      </trkpt>
      <trkpt lat="47.769069168716669" lon="11.539642531424761">
        <ele>640.37548828125</ele>
        <time>2013-06-15T09:52:47Z</time>
      </trkpt>
      <trkpt lat="47.768549239262938" lon="11.539596514776349">
        <ele>640.85595703125</ele>
        <time>2013-06-15T09:52:56Z</time>
      </trkpt>
      <trkpt lat="47.768320748582482" lon="11.539541445672512">
        <ele>640.85595703125</ele>
        <time>2013-06-15T09:53:00Z</time>
      </trkpt>
      <trkpt lat="47.767921015620232" lon="11.539571285247803">
        <ele>642.298095703125</ele>
        <time>2013-06-15T09:53:07Z</time>
      </trkpt>
      <trkpt lat="47.76775429956615" lon="11.539593581110239">
        <ele>641.8173828125</ele>
        <time>2013-06-15T09:53:10Z</time>
      </trkpt>
      <trkpt lat="47.767530335113406" lon="11.539605064317584">
        <ele>642.298095703125</ele>
        <time>2013-06-15T09:53:14Z</time>
      </trkpt>
      <trkpt lat="47.767117861658335" lon="11.539636915549636">
        <ele>641.336669921875</ele>
        <time>2013-06-15T09:53:20Z</time>
      </trkpt>
      <trkpt lat="47.766933795064688" lon="11.539593413472176">
        <ele>641.336669921875</ele>
        <time>2013-06-15T09:53:23Z</time>
      </trkpt>
      <trkpt lat="47.766779568046331" lon="11.539589306339622">
        <ele>641.336669921875</ele>
        <time>2013-06-15T09:53:26Z</time>
      </trkpt>
      <trkpt lat="47.766696503385901" lon="11.539704306051135">
        <ele>638.93359375</ele>
        <time>2013-06-15T09:53:28Z</time>
      </trkpt>
      <trkpt lat="47.766241198405623" lon="11.539932964369655">
        <ele>635.568603515625</ele>
        <time>2013-06-15T09:53:33Z</time>
      </trkpt>
      <trkpt lat="47.765718502923846" lon="11.540151061490178">
        <ele>636.049560546875</ele>
        <time>2013-06-15T09:53:40Z</time>
      </trkpt>
      <trkpt lat="47.765305442735553" lon="11.540479296818376">
        <ele>635.568603515625</ele>
        <time>2013-06-15T09:53:47Z</time>
      </trkpt>
      <trkpt lat="47.764957342296839" lon="11.540908617898822">
        <ele>636.049560546875</ele>
        <time>2013-06-15T09:53:54Z</time>
      </trkpt>
      <trkpt lat="47.764614606276155" lon="11.541428547352552">
        <ele>636.5302734375</ele>
        <time>2013-06-15T09:54:02Z</time>
      </trkpt>
      <trkpt lat="47.764384355396032" lon="11.541975550353527">
        <ele>637.0107421875</ele>
        <time>2013-06-15T09:54:09Z</time>
      </trkpt>
      <trkpt lat="47.764224093407393" lon="11.542571922764182">
        <ele>635.568603515625</ele>
        <time>2013-06-15T09:54:16Z</time>
      </trkpt>
      <trkpt lat="47.764136334881186" lon="11.543393097817898">
        <ele>636.049560546875</ele>
        <time>2013-06-15T09:54:25Z</time>
      </trkpt>
      <trkpt lat="47.763952352106571" lon="11.544274119660258">
        <ele>635.568603515625</ele>
        <time>2013-06-15T09:54:35Z</time>
      </trkpt>
      <trkpt lat="47.763899881392717" lon="11.544677205383778">
        <ele>636.5302734375</ele>
        <time>2013-06-15T09:54:41Z</time>
      </trkpt>
      <trkpt lat="47.763766692951322" lon="11.545266788452864">
        <ele>637.0107421875</ele>
        <time>2013-06-15T09:54:49Z</time>
      </trkpt>
      <trkpt lat="47.763600563630462" lon="11.546071115881205">
        <ele>637.97216796875</ele>
        <time>2013-06-15T09:54:59Z</time>
      </trkpt>
      <trkpt lat="47.763578686863184" lon="11.546732280403376">
        <ele>637.0107421875</ele>
        <time>2013-06-15T09:55:06Z</time>
      </trkpt>
      <trkpt lat="47.763571310788393" lon="11.547133438289165">
        <ele>637.491455078125</ele>
        <time>2013-06-15T09:55:11Z</time>
      </trkpt>
      <trkpt lat="47.7635657787323" lon="11.547296298667789">
        <ele>637.97216796875</ele>
        <time>2013-06-15T09:55:18Z</time>
      </trkpt>
      <trkpt lat="47.763584386557341" lon="11.547339130192995">
        <ele>637.0107421875</ele>
        <time>2013-06-15T09:55:19Z</time>
      </trkpt>
      <trkpt lat="47.763625709339976" lon="11.547662252560258">
        <ele>637.0107421875</ele>
        <time>2013-06-15T09:55:24Z</time>
      </trkpt>
      <trkpt lat="47.763658566400409" lon="11.548142535611987">
        <ele>637.0107421875</ele>
        <time>2013-06-15T09:55:31Z</time>
      </trkpt>
      <trkpt lat="47.763657309114933" lon="11.548455096781254">
        <ele>637.97216796875</ele>
        <time>2013-06-15T09:55:37Z</time>
      </trkpt>
      <trkpt lat="47.763676503673196" lon="11.548409247770905">
        <ele>637.97216796875</ele>
        <time>2013-06-15T09:55:50Z</time>
      </trkpt>
      <trkpt lat="47.763678263872862" lon="11.548401117324829">
        <ele>637.97216796875</ele>
        <time>2013-06-15T09:56:03Z</time>
      </trkpt>
      <trkpt lat="47.763672061264515" lon="11.548394747078419">
        <ele>637.491455078125</ele>
        <time>2013-06-15T09:57:04Z</time>
      </trkpt>
      <trkpt lat="47.763656051829457" lon="11.548390975221992">
        <ele>637.97216796875</ele>
        <time>2013-06-15T09:57:06Z</time>
      </trkpt>
      <trkpt lat="47.763508697971702" lon="11.548307575285435">
        <ele>638.452880859375</ele>
        <time>2013-06-15T09:57:12Z</time>
      </trkpt>
      <trkpt lat="47.763479528948665" lon="11.548283854499459">
        <ele>639.4140625</ele>
        <time>2013-06-15T09:57:13Z</time>
      </trkpt>
      <trkpt lat="47.763473158702254" lon="11.548080509528518">
        <ele>638.93359375</ele>
        <time>2013-06-15T09:57:18Z</time>
      </trkpt>
      <trkpt lat="47.763518756255507" lon="11.54782360419631">
        <ele>640.37548828125</ele>
        <time>2013-06-15T09:57:22Z</time>
      </trkpt>
      <trkpt lat="47.763658985495567" lon="11.547771384939551">
        <ele>640.85595703125</ele>
        <time>2013-06-15T09:57:28Z</time>
      </trkpt>
      <trkpt lat="47.76388973928988" lon="11.547777587547898">
        <ele>640.85595703125</ele>
        <time>2013-06-15T09:57:40Z</time>
      </trkpt>
      <trkpt lat="47.76406466960907" lon="11.547771217301488">
        <ele>641.336669921875</ele>
        <time>2013-06-15T09:57:48Z</time>
      </trkpt>
      <trkpt lat="47.764393910765648" lon="11.54777473770082">
        <ele>641.336669921875</ele>
        <time>2013-06-15T09:57:56Z</time>
      </trkpt>
      <trkpt lat="47.764553166925907" lon="11.547778258100152">
        <ele>640.37548828125</ele>
        <time>2013-06-15T09:58:00Z</time>
      </trkpt>
      <trkpt lat="47.764724576845765" lon="11.547805834561586">
        <ele>640.37548828125</ele>
        <time>2013-06-15T09:58:04Z</time>
      </trkpt>
      <trkpt lat="47.76484988629818" lon="11.548128789290786">
        <ele>638.93359375</ele>
        <time>2013-06-15T09:58:10Z</time>
      </trkpt>
      <trkpt lat="47.764887437224388" lon="11.548261139541864">
        <ele>639.4140625</ele>
        <time>2013-06-15T09:58:12Z</time>
      </trkpt>
      <trkpt lat="47.764889867976308" lon="11.548551321029663">
        <ele>639.894775390625</ele>
        <time>2013-06-15T09:58:17Z</time>
      </trkpt>
      <trkpt lat="47.764846449717879" lon="11.54863472096622">
        <ele>640.37548828125</ele>
        <time>2013-06-15T09:58:19Z</time>
      </trkpt>
      <trkpt lat="47.764656264334917" lon="11.54889271594584">
        <ele>640.85595703125</ele>
        <time>2013-06-15T09:58:27Z</time>
      </trkpt>
      <trkpt lat="47.764511927962303" lon="11.548819541931152">
        <ele>639.894775390625</ele>
        <time>2013-06-15T09:58:32Z</time>
      </trkpt>
      <trkpt lat="47.764468174427748" lon="11.548806801438332">
        <ele>640.37548828125</ele>
        <time>2013-06-15T09:58:33Z</time>
      </trkpt>
      <trkpt lat="47.764330040663481" lon="11.548882406204939">
        <ele>639.894775390625</ele>
        <time>2013-06-15T09:58:37Z</time>
      </trkpt>
      <trkpt lat="47.764275893568993" lon="11.549003189429641">
        <ele>639.894775390625</ele>
        <time>2013-06-15T09:58:42Z</time>
      </trkpt>
      <trkpt lat="47.76427136734128" lon="11.549003021791577">
        <ele>639.894775390625</ele>
        <time>2013-06-15T09:58:50Z</time>
      </trkpt>
      <trkpt lat="47.764295171946287" lon="11.5489880181849">
        <ele>639.894775390625</ele>
        <time>2013-06-15T09:58:59Z</time>
      </trkpt>
      <trkpt lat="47.764290561899543" lon="11.549058007076383">
        <ele>640.37548828125</ele>
        <time>2013-06-15T09:59:05Z</time>
      </trkpt>
      <trkpt lat="47.764272876083851" lon="11.549089187756181">
        <ele>640.37548828125</ele>
        <time>2013-06-15T09:59:16Z</time>
      </trkpt>
      <trkpt lat="47.76427136734128" lon="11.549106622114778">
        <ele>640.37548828125</ele>
        <time>2013-06-15T09:59:44Z</time>
      </trkpt>
      <trkpt lat="47.76426206342876" lon="11.549030262976885">
        <ele>640.37548828125</ele>
        <time>2013-06-15T10:00:34Z</time>
      </trkpt>
      <trkpt lat="47.764259465038776" lon="11.54902515001595">
        <ele>641.336669921875</ele>
        <time>2013-06-15T10:00:47Z</time>
      </trkpt>
      <trkpt lat="47.764238258823752" lon="11.549054738134146">
        <ele>640.37548828125</ele>
        <time>2013-06-15T10:01:05Z</time>
      </trkpt>
      <trkpt lat="47.764256028458476" lon="11.549042332917452">
        <ele>640.37548828125</ele>
        <time>2013-06-15T10:01:28Z</time>
      </trkpt>
      <trkpt lat="47.764261728152633" lon="11.549038225784898">
        <ele>640.85595703125</ele>
        <time>2013-06-15T10:01:30Z</time>
      </trkpt>
      <trkpt lat="47.764356695115566" lon="11.548979803919792">
        <ele>640.37548828125</ele>
        <time>2013-06-15T10:01:35Z</time>
      </trkpt>
      <trkpt lat="47.764533050358295" lon="11.548954239115119">
        <ele>641.336669921875</ele>
        <time>2013-06-15T10:01:42Z</time>
      </trkpt>
      <trkpt lat="47.764611169695854" lon="11.548986090347171">
        <ele>641.8173828125</ele>
        <time>2013-06-15T10:01:44Z</time>
      </trkpt>
      <trkpt lat="47.764820214360952" lon="11.548854913562536">
        <ele>642.77880859375</ele>
        <time>2013-06-15T10:01:51Z</time>
      </trkpt>
      <trkpt lat="47.764836056157947" lon="11.548806298524141">
        <ele>642.77880859375</ele>
        <time>2013-06-15T10:01:52Z</time>
      </trkpt>
      <trkpt lat="47.764922641217709" lon="11.548473704606295">
        <ele>641.336669921875</ele>
        <time>2013-06-15T10:01:58Z</time>
      </trkpt>
      <trkpt lat="47.764844354242086" lon="11.548154354095459">
        <ele>640.37548828125</ele>
        <time>2013-06-15T10:02:04Z</time>
      </trkpt>
      <trkpt lat="47.764802696183324" lon="11.547971628606319">
        <ele>640.85595703125</ele>
        <time>2013-06-15T10:02:07Z</time>
      </trkpt>
      <trkpt lat="47.764582252129912" lon="11.547797452658415">
        <ele>641.336669921875</ele>
        <time>2013-06-15T10:02:13Z</time>
      </trkpt>
      <trkpt lat="47.764542354270816" lon="11.547796698287129">
        <ele>641.336669921875</ele>
        <time>2013-06-15T10:02:14Z</time>
      </trkpt>
      <trkpt lat="47.764051090925932" lon="11.547797117382288">
        <ele>642.298095703125</ele>
        <time>2013-06-15T10:02:25Z</time>
      </trkpt>
      <trkpt lat="47.763526467606425" lon="11.547790579497814">
        <ele>641.336669921875</ele>
        <time>2013-06-15T10:02:36Z</time>
      </trkpt>
      <trkpt lat="47.763458490371704" lon="11.547960229218006">
        <ele>640.85595703125</ele>
        <time>2013-06-15T10:02:41Z</time>
      </trkpt>
      <trkpt lat="47.763370648026466" lon="11.548348311334848">
        <ele>641.8173828125</ele>
        <time>2013-06-15T10:02:47Z</time>
      </trkpt>
      <trkpt lat="47.763254391029477" lon="11.548622818663716">
        <ele>640.85595703125</ele>
        <time>2013-06-15T10:02:52Z</time>
      </trkpt>
      <trkpt lat="47.763236705213785" lon="11.548849297687411">
        <ele>639.4140625</ele>
        <time>2013-06-15T10:02:56Z</time>
      </trkpt>
      <trkpt lat="47.763321110978723" lon="11.548892967402935">
        <ele>638.93359375</ele>
        <time>2013-06-15T10:02:58Z</time>
      </trkpt>
      <trkpt lat="47.763421777635813" lon="11.548894979059696">
        <ele>638.93359375</ele>
        <time>2013-06-15T10:03:00Z</time>
      </trkpt>
      <trkpt lat="47.763511380180717" lon="11.548894895240664">
        <ele>638.452880859375</ele>
        <time>2013-06-15T10:03:02Z</time>
      </trkpt>
      <trkpt lat="47.763571310788393" lon="11.549065131694078">
        <ele>639.4140625</ele>
        <time>2013-06-15T10:03:07Z</time>
      </trkpt>
      <trkpt lat="47.763403924182057" lon="11.549752950668335">
        <ele>639.4140625</ele>
        <time>2013-06-15T10:03:17Z</time>
      </trkpt>
      <trkpt lat="47.763392105698586" lon="11.549817994236946">
        <ele>639.4140625</ele>
        <time>2013-06-15T10:03:18Z</time>
      </trkpt>
      <trkpt lat="47.763361595571041" lon="11.549939448013902">
        <ele>639.894775390625</ele>
        <time>2013-06-15T10:03:20Z</time>
      </trkpt>
      <trkpt lat="47.763316500931978" lon="11.550151091068983">
        <ele>638.452880859375</ele>
        <time>2013-06-15T10:03:23Z</time>
      </trkpt>
      <trkpt lat="47.763281967490911" lon="11.550392406061292">
        <ele>639.4140625</ele>
        <time>2013-06-15T10:03:26Z</time>
      </trkpt>
      <trkpt lat="47.763081723824143" lon="11.551150213927031">
        <ele>638.93359375</ele>
        <time>2013-06-15T10:03:35Z</time>
      </trkpt>
      <trkpt lat="47.762803779914975" lon="11.551971724256873">
        <ele>638.93359375</ele>
        <time>2013-06-15T10:03:45Z</time>
      </trkpt>
      <trkpt lat="47.762551819905639" lon="11.552503472194076">
        <ele>639.894775390625</ele>
        <time>2013-06-15T10:03:52Z</time>
      </trkpt>
      <trkpt lat="47.762187458574772" lon="11.553277540951967">
        <ele>639.894775390625</ele>
        <time>2013-06-15T10:04:02Z</time>
      </trkpt>
      <trkpt lat="47.761860648170114" lon="11.554029062390327">
        <ele>639.894775390625</ele>
        <time>2013-06-15T10:04:12Z</time>
      </trkpt>
      <trkpt lat="47.761710360646248" lon="11.554429130628705">
        <ele>639.894775390625</ele>
        <time>2013-06-15T10:04:17Z</time>
      </trkpt>
      <trkpt lat="47.761556468904018" lon="11.554951323196292">
        <ele>639.894775390625</ele>
        <time>2013-06-15T10:04:23Z</time>
      </trkpt>
      <trkpt lat="47.761246087029576" lon="11.555462367832661">
        <ele>640.85595703125</ele>
        <time>2013-06-15T10:04:31Z</time>
      </trkpt>
      <trkpt lat="47.761126896366477" lon="11.555611817166209">
        <ele>641.336669921875</ele>
        <time>2013-06-15T10:04:34Z</time>
      </trkpt>
      <trkpt lat="47.760901087895036" lon="11.555568063631654">
        <ele>641.8173828125</ele>
        <time>2013-06-15T10:04:41Z</time>
      </trkpt>
      <trkpt lat="47.760851634666324" lon="11.555600836873055">
        <ele>641.336669921875</ele>
        <time>2013-06-15T10:04:45Z</time>
      </trkpt>
      <trkpt lat="47.760853646323085" lon="11.55561282299459">
        <ele>641.336669921875</ele>
        <time>2013-06-15T10:04:53Z</time>
      </trkpt>
      <trkpt lat="47.760853562504053" lon="11.555628497153521">
        <ele>640.37548828125</ele>
        <time>2013-06-15T10:05:11Z</time>
      </trkpt>
      <trkpt lat="47.760838307440281" lon="11.555630844086409">
        <ele>641.8173828125</ele>
        <time>2013-06-15T10:05:13Z</time>
      </trkpt>
      <trkpt lat="47.760781897231936" lon="11.555591532960534">
        <ele>643.25927734375</ele>
        <time>2013-06-15T10:05:21Z</time>
      </trkpt>
      <trkpt lat="47.760759266093373" lon="11.555579211562872">
        <ele>642.77880859375</ele>
        <time>2013-06-15T10:05:29Z</time>
      </trkpt>
      <trkpt lat="47.760734036564827" lon="11.555522382259369">
        <ele>641.8173828125</ele>
        <time>2013-06-15T10:05:32Z</time>
      </trkpt>
      <trkpt lat="47.76067310012877" lon="11.555438479408622">
        <ele>643.25927734375</ele>
        <time>2013-06-15T10:05:35Z</time>
      </trkpt>
      <trkpt lat="47.760594142600894" lon="11.555316522717476">
        <ele>643.25927734375</ele>
        <time>2013-06-15T10:05:39Z</time>
      </trkpt>
      <trkpt lat="47.760552484542131" lon="11.555362036451697">
        <ele>643.739990234375</ele>
        <time>2013-06-15T10:05:43Z</time>
      </trkpt>
      <trkpt lat="47.760463636368513" lon="11.55546915717423">
        <ele>643.25927734375</ele>
        <time>2013-06-15T10:05:47Z</time>
      </trkpt>
      <trkpt lat="47.760498588904738" lon="11.555584827437997">
        <ele>643.25927734375</ele>
        <time>2013-06-15T10:05:52Z</time>
      </trkpt>
      <trkpt lat="47.760663963854313" lon="11.555690439417958">
        <ele>644.220703125</ele>
        <time>2013-06-15T10:05:57Z</time>
      </trkpt>
      <trkpt lat="47.760680308565497" lon="11.555665628984571">
        <ele>643.25927734375</ele>
        <time>2013-06-15T10:06:01Z</time>
      </trkpt>
      <trkpt lat="47.760525830090046" lon="11.55556102283299">
        <ele>643.25927734375</ele>
        <time>2013-06-15T10:06:08Z</time>
      </trkpt>
      <trkpt lat="47.76050353422761" lon="11.555535206571221">
        <ele>644.220703125</ele>
        <time>2013-06-15T10:06:12Z</time>
      </trkpt>
      <trkpt lat="47.760448129847646" lon="11.555473012849689">
        <ele>643.25927734375</ele>
        <time>2013-06-15T10:06:17Z</time>
      </trkpt>
      <trkpt lat="47.760436814278364" lon="11.555473767220974">
        <ele>643.739990234375</ele>
        <time>2013-06-15T10:06:31Z</time>
      </trkpt>
      <trkpt lat="47.760370764881372" lon="11.555477036163211">
        <ele>643.739990234375</ele>
        <time>2013-06-15T10:06:36Z</time>
      </trkpt>
      <trkpt lat="47.760311672464013" lon="11.555438311770558">
        <ele>643.739990234375</ele>
        <time>2013-06-15T10:06:41Z</time>
      </trkpt>
      <trkpt lat="47.760227434337139" lon="11.555632436648011">
        <ele>643.739990234375</ele>
        <time>2013-06-15T10:06:47Z</time>
      </trkpt>
      <trkpt lat="47.760292645543814" lon="11.555803008377552">
        <ele>643.739990234375</ele>
        <time>2013-06-15T10:06:53Z</time>
      </trkpt>
      <trkpt lat="47.760341260582209" lon="11.555806947872043">
        <ele>643.25927734375</ele>
        <time>2013-06-15T10:06:56Z</time>
      </trkpt>
      <trkpt lat="47.760362299159169" lon="11.555820610374212">
        <ele>642.77880859375</ele>
        <time>2013-06-15T10:07:03Z</time>
      </trkpt>
      <trkpt lat="47.760368334129453" lon="11.555814240127802">
        <ele>642.77880859375</ele>
        <time>2013-06-15T10:07:14Z</time>
      </trkpt>
      <trkpt lat="47.760368082672358" lon="11.555806528776884">
        <ele>642.77880859375</ele>
        <time>2013-06-15T10:07:24Z</time>
      </trkpt>
      <trkpt lat="47.76032860390842" lon="11.555726565420628">
        <ele>644.220703125</ele>
        <time>2013-06-15T10:07:29Z</time>
      </trkpt>
      <trkpt lat="47.760263979434967" lon="11.555797979235649">
        <ele>644.220703125</ele>
        <time>2013-06-15T10:07:37Z</time>
      </trkpt>
      <trkpt lat="47.76026263833046" lon="11.555790016427636">
        <ele>644.220703125</ele>
        <time>2013-06-15T10:08:05Z</time>
      </trkpt>
      <trkpt lat="47.760279653593898" lon="11.55576872639358">
        <ele>644.701171875</ele>
        <time>2013-06-15T10:08:32Z</time>
      </trkpt>
      <trkpt lat="47.760274289175868" lon="11.555763697251678">
        <ele>643.25927734375</ele>
        <time>2013-06-15T10:08:37Z</time>
      </trkpt>
      <trkpt lat="47.760248556733131" lon="11.555760931223631">
        <ele>643.739990234375</ele>
        <time>2013-06-15T10:08:45Z</time>
      </trkpt>
      <trkpt lat="47.760267667472363" lon="11.555762020871043">
        <ele>644.701171875</ele>
        <time>2013-06-15T10:08:53Z</time>
      </trkpt>
      <trkpt lat="47.760269930586219" lon="11.555758751928806">
        <ele>644.701171875</ele>
        <time>2013-06-15T10:09:05Z</time>
      </trkpt>
      <trkpt lat="47.760267751291394" lon="11.555757662281394">
        <ele>644.701171875</ele>
        <time>2013-06-15T10:09:19Z</time>
      </trkpt>
      <trkpt lat="47.760270601138473" lon="11.555746514350176">
        <ele>645.181884765625</ele>
        <time>2013-06-15T10:09:28Z</time>
      </trkpt>
      <trkpt lat="47.760291891172528" lon="11.55566805973649">
        <ele>644.701171875</ele>
        <time>2013-06-15T10:09:33Z</time>
      </trkpt>
      <trkpt lat="47.760339751839638" lon="11.555496733635664">
        <ele>645.181884765625</ele>
        <time>2013-06-15T10:09:40Z</time>
      </trkpt>
      <trkpt lat="47.760337153449655" lon="11.555425906553864">
        <ele>645.66259765625</ele>
        <time>2013-06-15T10:09:44Z</time>
      </trkpt>
      <trkpt lat="47.760330028831959" lon="11.555344266816974">
        <ele>645.181884765625</ele>
        <time>2013-06-15T10:09:50Z</time>
      </trkpt>
      <trkpt lat="47.760328100994229" lon="11.5553187020123">
        <ele>644.701171875</ele>
        <time>2013-06-15T10:09:59Z</time>
      </trkpt>
      <trkpt lat="47.760373866185546" lon="11.55511099845171">
        <ele>645.181884765625</ele>
        <time>2013-06-15T10:10:06Z</time>
      </trkpt>
      <trkpt lat="47.760396245867014" lon="11.554840682074428">
        <ele>645.66259765625</ele>
        <time>2013-06-15T10:10:12Z</time>
      </trkpt>
      <trkpt lat="47.760424576699734" lon="11.554706739261746">
        <ele>646.143310546875</ele>
        <time>2013-06-15T10:10:17Z</time>
      </trkpt>
      <trkpt lat="47.760444274172187" lon="11.554712355136871">
        <ele>645.66259765625</ele>
        <time>2013-06-15T10:10:23Z</time>
      </trkpt>
      <trkpt lat="47.760458858683705" lon="11.554682934656739">
        <ele>647.1044921875</ele>
        <time>2013-06-15T10:10:31Z</time>
      </trkpt>
      <trkpt lat="47.760459026321769" lon="11.554682347923517">
        <ele>645.181884765625</ele>
        <time>2013-06-15T10:10:55Z</time>
      </trkpt>
      <trkpt lat="47.760451901704073" lon="11.554712438955903">
        <ele>647.585205078125</ele>
        <time>2013-06-15T10:14:06Z</time>
      </trkpt>
      <trkpt lat="47.760456260293722" lon="11.554717132821679">
        <ele>647.585205078125</ele>
        <time>2013-06-15T10:14:10Z</time>
      </trkpt>
      <trkpt lat="47.760423067957163" lon="11.554789803922176">
        <ele>646.6240234375</ele>
        <time>2013-06-15T10:14:18Z</time>
      </trkpt>
      <trkpt lat="47.760422984138131" lon="11.554788798093796">
        <ele>646.6240234375</ele>
        <time>2013-06-15T10:14:34Z</time>
      </trkpt>
      <trkpt lat="47.76041753590107" lon="11.55478754080832">
        <ele>647.585205078125</ele>
        <time>2013-06-15T10:16:11Z</time>
      </trkpt>
      <trkpt lat="47.760418206453323" lon="11.554788462817669">
        <ele>647.1044921875</ele>
        <time>2013-06-15T10:16:35Z</time>
      </trkpt>
      <trkpt lat="47.760417116805911" lon="11.554789636284113">
        <ele>647.585205078125</ele>
        <time>2013-06-15T10:19:10Z</time>
      </trkpt>
      <trkpt lat="47.760417116805911" lon="11.554789887741208">
        <ele>646.6240234375</ele>
        <time>2013-06-15T10:19:23Z</time>
      </trkpt>
      <trkpt lat="47.760417452082038" lon="11.554789803922176">
        <ele>648.06591796875</ele>
        <time>2013-06-15T10:19:35Z</time>
      </trkpt>
      <trkpt lat="47.760418457910419" lon="11.554790055379272">
        <ele>649.027099609375</ele>
        <time>2013-06-15T10:19:51Z</time>
      </trkpt>
      <trkpt lat="47.760419715195894" lon="11.554789803922176">
        <ele>648.06591796875</ele>
        <time>2013-06-15T10:21:29Z</time>
      </trkpt>
      <trkpt lat="47.760419463738799" lon="11.554790642112494">
        <ele>649.027099609375</ele>
        <time>2013-06-15T10:22:38Z</time>
      </trkpt>
      <trkpt lat="47.760420804843307" lon="11.554789217188954">
        <ele>649.988525390625</ele>
        <time>2013-06-15T10:23:38Z</time>
      </trkpt>
      <trkpt lat="47.760420721024275" lon="11.554789217188954">
        <ele>648.06591796875</ele>
        <time>2013-06-15T10:23:40Z</time>
      </trkpt>
      <trkpt lat="47.760420553386211" lon="11.554789384827018">
        <ele>648.54638671875</ele>
        <time>2013-06-15T10:25:19Z</time>
      </trkpt>
      <trkpt lat="47.76042147539556" lon="11.554790055379272">
        <ele>648.54638671875</ele>
        <time>2013-06-15T10:27:33Z</time>
      </trkpt>
      <trkpt lat="47.76042147539556" lon="11.55479097738862">
        <ele>648.54638671875</ele>
        <time>2013-06-15T10:29:07Z</time>
      </trkpt>
      <trkpt lat="47.760424744337797" lon="11.554794833064079">
        <ele>649.988525390625</ele>
        <time>2013-06-15T10:32:17Z</time>
      </trkpt>
      <trkpt lat="47.760424073785543" lon="11.554798018187284">
        <ele>651.430419921875</ele>
        <time>2013-06-15T10:34:12Z</time>
      </trkpt>
      <trkpt lat="47.760421726852655" lon="11.554800113663077">
        <ele>649.988525390625</ele>
        <time>2013-06-15T10:35:37Z</time>
      </trkpt>
      <trkpt lat="47.760421978309751" lon="11.554800029844046">
        <ele>650.46923828125</ele>
        <time>2013-06-15T10:36:15Z</time>
      </trkpt>
      <trkpt lat="47.76042147539556" lon="11.554800448939204">
        <ele>650.46923828125</ele>
        <time>2013-06-15T10:36:36Z</time>
      </trkpt>
      <trkpt lat="47.760433964431286" lon="11.554814614355564">
        <ele>653.833984375</ele>
        <time>2013-06-15T10:45:09Z</time>
      </trkpt>
      <trkpt lat="47.760427594184875" lon="11.554798437282443">
        <ele>653.353271484375</ele>
        <time>2013-06-15T10:45:22Z</time>
      </trkpt>
      <trkpt lat="47.76043027639389" lon="11.554790223017335">
        <ele>653.833984375</ele>
        <time>2013-06-15T10:45:38Z</time>
      </trkpt>
      <trkpt lat="47.760455589741468" lon="11.554729789495468">
        <ele>653.353271484375</ele>
        <time>2013-06-15T10:45:54Z</time>
      </trkpt>
      <trkpt lat="47.760438909754157" lon="11.554696513339877">
        <ele>653.353271484375</ele>
        <time>2013-06-15T10:46:04Z</time>
      </trkpt>
      <trkpt lat="47.76043614372611" lon="11.554702715948224">
        <ele>653.353271484375</ele>
        <time>2013-06-15T10:46:13Z</time>
      </trkpt>
      <trkpt lat="47.760427929461002" lon="11.554708331823349">
        <ele>652.87255859375</ele>
        <time>2013-06-15T10:46:26Z</time>
      </trkpt>
      <trkpt lat="47.760433461517096" lon="11.554719982668757">
        <ele>652.87255859375</ele>
        <time>2013-06-15T10:46:40Z</time>
      </trkpt>
      <trkpt lat="47.760428097099066" lon="11.554719982668757">
        <ele>651.9111328125</ele>
        <time>2013-06-15T10:46:44Z</time>
      </trkpt>
      <trkpt lat="47.760405382141471" lon="11.554705146700144">
        <ele>653.833984375</ele>
        <time>2013-06-15T10:48:02Z</time>
      </trkpt>
      <trkpt lat="47.760409489274025" lon="11.554698944091797">
        <ele>654.314697265625</ele>
        <time>2013-06-15T10:48:23Z</time>
      </trkpt>
      <trkpt lat="47.760398760437965" lon="11.55471864156425">
        <ele>654.314697265625</ele>
        <time>2013-06-15T10:48:40Z</time>
      </trkpt>
      <trkpt lat="47.760367831215262" lon="11.554805394262075">
        <ele>653.833984375</ele>
        <time>2013-06-15T10:48:47Z</time>
      </trkpt>
      <trkpt lat="47.760343691334128" lon="11.554996250197291">
        <ele>652.87255859375</ele>
        <time>2013-06-15T10:48:52Z</time>
      </trkpt>
      <trkpt lat="47.760323993861675" lon="11.555148381739855">
        <ele>653.353271484375</ele>
        <time>2013-06-15T10:48:55Z</time>
      </trkpt>
      <trkpt lat="47.76025434024632" lon="11.555433282628655">
        <ele>651.9111328125</ele>
        <time>2013-06-15T10:49:00Z</time>
      </trkpt>
      <trkpt lat="47.760196002200246" lon="11.555669400840998">
        <ele>651.9111328125</ele>
        <time>2013-06-15T10:49:04Z</time>
      </trkpt>
      <trkpt lat="47.76011654175818" lon="11.555903842672706">
        <ele>651.9111328125</ele>
        <time>2013-06-15T10:49:08Z</time>
      </trkpt>
      <trkpt lat="47.759791826829314" lon="11.556247249245644">
        <ele>650.94970703125</ele>
        <time>2013-06-15T10:49:16Z</time>
      </trkpt>
      <trkpt lat="47.759458981454372" lon="11.556500298902392">
        <ele>652.391845703125</ele>
        <time>2013-06-15T10:49:22Z</time>
      </trkpt>
      <trkpt lat="47.759088752791286" lon="11.556587051600218">
        <ele>653.353271484375</ele>
        <time>2013-06-15T10:49:29Z</time>
      </trkpt>
      <trkpt lat="47.758985990658402" lon="11.556598534807563">
        <ele>652.87255859375</ele>
        <time>2013-06-15T10:49:31Z</time>
      </trkpt>
      <trkpt lat="47.758851293474436" lon="11.556653520092368">
        <ele>652.391845703125</ele>
        <time>2013-06-15T10:49:34Z</time>
      </trkpt>
      <trkpt lat="47.758635710924864" lon="11.556715881451964">
        <ele>652.87255859375</ele>
        <time>2013-06-15T10:49:39Z</time>
      </trkpt>
      <trkpt lat="47.758584916591644" lon="11.556716803461313">
        <ele>652.391845703125</ele>
        <time>2013-06-15T10:49:40Z</time>
      </trkpt>
      <trkpt lat="47.7584317792207" lon="11.556718982756138">
        <ele>652.391845703125</ele>
        <time>2013-06-15T10:49:43Z</time>
      </trkpt>
      <trkpt lat="47.758126258850098" lon="11.556715546175838">
        <ele>651.9111328125</ele>
        <time>2013-06-15T10:49:49Z</time>
      </trkpt>
      <trkpt lat="47.758019305765629" lon="11.556725855916739">
        <ele>651.9111328125</ele>
        <time>2013-06-15T10:49:51Z</time>
      </trkpt>
      <trkpt lat="47.757617561146617" lon="11.556676989421248">
        <ele>651.430419921875</ele>
        <time>2013-06-15T10:49:58Z</time>
      </trkpt>
      <trkpt lat="47.757496442645788" lon="11.556651005521417">
        <ele>651.430419921875</ele>
        <time>2013-06-15T10:50:00Z</time>
      </trkpt>
      <trkpt lat="47.757276417687535" lon="11.556594679132104">
        <ele>651.9111328125</ele>
        <time>2013-06-15T10:50:04Z</time>
      </trkpt>
      <trkpt lat="47.756816754117608" lon="11.556511027738452">
        <ele>651.9111328125</ele>
        <time>2013-06-15T10:50:13Z</time>
      </trkpt>
      <trkpt lat="47.756657497957349" lon="11.556488564237952">
        <ele>652.87255859375</ele>
        <time>2013-06-15T10:50:16Z</time>
      </trkpt>
      <trkpt lat="47.756246868520975" lon="11.556293433532119">
        <ele>652.391845703125</ele>
        <time>2013-06-15T10:50:24Z</time>
      </trkpt>
      <trkpt lat="47.755644377321005" lon="11.55595731921494">
        <ele>652.87255859375</ele>
        <time>2013-06-15T10:50:36Z</time>
      </trkpt>
      <trkpt lat="47.755212122574449" lon="11.555852461606264">
        <ele>653.353271484375</ele>
        <time>2013-06-15T10:50:44Z</time>
      </trkpt>
      <trkpt lat="47.754875253885984" lon="11.555828237906098">
        <ele>653.833984375</ele>
        <time>2013-06-15T10:50:50Z</time>
      </trkpt>
      <trkpt lat="47.75475581176579" lon="11.555834440514445">
        <ele>653.353271484375</ele>
        <time>2013-06-15T10:50:52Z</time>
      </trkpt>
      <trkpt lat="47.754534864798188" lon="11.555859921500087">
        <ele>654.314697265625</ele>
        <time>2013-06-15T10:50:56Z</time>
      </trkpt>
      <trkpt lat="47.754253903403878" lon="11.555974250659347">
        <ele>652.391845703125</ele>
        <time>2013-06-15T10:51:01Z</time>
      </trkpt>
      <trkpt lat="47.753968667238951" lon="11.556073324754834">
        <ele>651.9111328125</ele>
        <time>2013-06-15T10:51:06Z</time>
      </trkpt>
      <trkpt lat="47.753455275669694" lon="11.556319752708077">
        <ele>653.353271484375</ele>
        <time>2013-06-15T10:51:15Z</time>
      </trkpt>
      <trkpt lat="47.752974322065711" lon="11.556617226451635">
        <ele>652.87255859375</ele>
        <time>2013-06-15T10:51:24Z</time>
      </trkpt>
      <trkpt lat="47.752626221626997" lon="11.556925429031253">
        <ele>652.391845703125</ele>
        <time>2013-06-15T10:51:31Z</time>
      </trkpt>
      <trkpt lat="47.752306452021003" lon="11.557255676016212">
        <ele>652.391845703125</ele>
        <time>2013-06-15T10:51:38Z</time>
      </trkpt>
      <trkpt lat="47.751898756250739" lon="11.557850455865264">
        <ele>652.87255859375</ele>
        <time>2013-06-15T10:51:49Z</time>
      </trkpt>
      <trkpt lat="47.751675546169281" lon="11.558138625696301">
        <ele>652.87255859375</ele>
        <time>2013-06-15T10:51:56Z</time>
      </trkpt>
      <trkpt lat="47.751468345522881" lon="11.558442888781428">
        <ele>653.353271484375</ele>
        <time>2013-06-15T10:52:02Z</time>
      </trkpt>
      <trkpt lat="47.751385197043419" lon="11.558619746938348">
        <ele>652.87255859375</ele>
        <time>2013-06-15T10:52:05Z</time>
      </trkpt>
      <trkpt lat="47.751248655840755" lon="11.558831054717302">
        <ele>653.353271484375</ele>
        <time>2013-06-15T10:52:09Z</time>
      </trkpt>
      <trkpt lat="47.751065595075488" lon="11.559145962819457">
        <ele>653.833984375</ele>
        <time>2013-06-15T10:52:14Z</time>
      </trkpt>
      <trkpt lat="47.75074565783143" lon="11.559525243937969">
        <ele>653.353271484375</ele>
        <time>2013-06-15T10:52:21Z</time>
      </trkpt>
      <trkpt lat="47.750647589564323" lon="11.559601603075862">
        <ele>654.314697265625</ele>
        <time>2013-06-15T10:52:23Z</time>
      </trkpt>
      <trkpt lat="47.750438628718257" lon="11.55979547649622">
        <ele>653.353271484375</ele>
        <time>2013-06-15T10:52:27Z</time>
      </trkpt>
      <trkpt lat="47.750201504677534" lon="11.5597153455019">
        <ele>652.87255859375</ele>
        <time>2013-06-15T10:52:31Z</time>
      </trkpt>
      <trkpt lat="47.749898163601756" lon="11.559579139575362">
        <ele>654.795166015625</ele>
        <time>2013-06-15T10:52:39Z</time>
      </trkpt>
      <trkpt lat="47.749698841944337" lon="11.559708891436458">
        <ele>654.314697265625</ele>
        <time>2013-06-15T10:52:44Z</time>
      </trkpt>
      <trkpt lat="47.749538412317634" lon="11.559850461781025">
        <ele>653.833984375</ele>
        <time>2013-06-15T10:52:48Z</time>
      </trkpt>
      <trkpt lat="47.749466244131327" lon="11.559975687414408">
        <ele>653.353271484375</ele>
        <time>2013-06-15T10:52:50Z</time>
      </trkpt>
      <trkpt lat="47.749304724857211" lon="11.560115162283182">
        <ele>653.353271484375</ele>
        <time>2013-06-15T10:52:53Z</time>
      </trkpt>
      <trkpt lat="47.749122334644198" lon="11.56037206761539">
        <ele>653.833984375</ele>
        <time>2013-06-15T10:52:57Z</time>
      </trkpt>
      <trkpt lat="47.749045304954052" lon="11.560619585216045">
        <ele>654.314697265625</ele>
        <time>2013-06-15T10:53:00Z</time>
      </trkpt>
      <trkpt lat="47.748827794566751" lon="11.560835586860776">
        <ele>654.314697265625</ele>
        <time>2013-06-15T10:53:05Z</time>
      </trkpt>
      <trkpt lat="47.748769959434867" lon="11.560834916308522">
        <ele>653.353271484375</ele>
        <time>2013-06-15T10:53:06Z</time>
      </trkpt>
      <trkpt lat="47.748487992212176" lon="11.560931978747249">
        <ele>654.314697265625</ele>
        <time>2013-06-15T10:53:11Z</time>
      </trkpt>
      <trkpt lat="47.748309038579464" lon="11.561156781390309">
        <ele>655.27587890625</ele>
        <time>2013-06-15T10:53:15Z</time>
      </trkpt>
      <trkpt lat="47.748000919818878" lon="11.561368256807327">
        <ele>654.314697265625</ele>
        <time>2013-06-15T10:53:21Z</time>
      </trkpt>
      <trkpt lat="47.747809058055282" lon="11.561456182971597">
        <ele>655.27587890625</ele>
        <time>2013-06-15T10:53:25Z</time>
      </trkpt>
      <trkpt lat="47.747423825785518" lon="11.561590880155563">
        <ele>654.795166015625</ele>
        <time>2013-06-15T10:53:32Z</time>
      </trkpt>
      <trkpt lat="47.747218133881688" lon="11.561625832691789">
        <ele>653.353271484375</ele>
        <time>2013-06-15T10:53:36Z</time>
      </trkpt>
      <trkpt lat="47.747118137776852" lon="11.561589287593961">
        <ele>653.353271484375</ele>
        <time>2013-06-15T10:53:38Z</time>
      </trkpt>
      <trkpt lat="47.746951505541801" lon="11.561586186289787">
        <ele>655.27587890625</ele>
        <time>2013-06-15T10:53:41Z</time>
      </trkpt>
      <trkpt lat="47.746604662388563" lon="11.561876283958554">
        <ele>654.795166015625</ele>
        <time>2013-06-15T10:53:49Z</time>
      </trkpt>
      <trkpt lat="47.74651556275785" lon="11.561929006129503">
        <ele>654.795166015625</ele>
        <time>2013-06-15T10:53:51Z</time>
      </trkpt>
      <trkpt lat="47.746276427060366" lon="11.562043838202953">
        <ele>654.795166015625</ele>
        <time>2013-06-15T10:53:56Z</time>
      </trkpt>
      <trkpt lat="47.746060509234667" lon="11.562037216499448">
        <ele>654.314697265625</ele>
        <time>2013-06-15T10:54:00Z</time>
      </trkpt>
      <trkpt lat="47.745942994952202" lon="11.562018021941185">
        <ele>654.314697265625</ele>
        <time>2013-06-15T10:54:02Z</time>
      </trkpt>
      <trkpt lat="47.745778458192945" lon="11.562076108530164">
        <ele>654.314697265625</ele>
        <time>2013-06-15T10:54:05Z</time>
      </trkpt>
      <trkpt lat="47.745409402996302" lon="11.56220929697156">
        <ele>655.27587890625</ele>
        <time>2013-06-15T10:54:12Z</time>
      </trkpt>
      <trkpt lat="47.745236651971936" lon="11.562225809320807">
        <ele>653.833984375</ele>
        <time>2013-06-15T10:54:15Z</time>
      </trkpt>
      <trkpt lat="47.745004892349243" lon="11.562304431572556">
        <ele>654.314697265625</ele>
        <time>2013-06-15T10:54:19Z</time>
      </trkpt>
      <trkpt lat="47.744911015033722" lon="11.562380455434322">
        <ele>654.795166015625</ele>
        <time>2013-06-15T10:54:21Z</time>
      </trkpt>
      <trkpt lat="47.744754189625382" lon="11.562625207006931">
        <ele>655.27587890625</ele>
        <time>2013-06-15T10:54:26Z</time>
      </trkpt>
      <trkpt lat="47.744750333949924" lon="11.562764095142484">
        <ele>656.237060546875</ele>
        <time>2013-06-15T10:54:28Z</time>
      </trkpt>
      <trkpt lat="47.744723847135901" lon="11.562918908894062">
        <ele>654.795166015625</ele>
        <time>2013-06-15T10:54:30Z</time>
      </trkpt>
      <trkpt lat="47.744663916528225" lon="11.563067520037293">
        <ele>654.795166015625</ele>
        <time>2013-06-15T10:54:32Z</time>
      </trkpt>
      <trkpt lat="47.744229733943939" lon="11.563855670392513">
        <ele>653.353271484375</ele>
        <time>2013-06-15T10:54:43Z</time>
      </trkpt>
      <trkpt lat="47.744186483323574" lon="11.563917612656951">
        <ele>654.314697265625</ele>
        <time>2013-06-15T10:54:44Z</time>
      </trkpt>
      <trkpt lat="47.743931673467159" lon="11.564068822190166">
        <ele>654.314697265625</ele>
        <time>2013-06-15T10:54:49Z</time>
      </trkpt>
      <trkpt lat="47.743451138958335" lon="11.564203267917037">
        <ele>654.795166015625</ele>
        <time>2013-06-15T10:54:58Z</time>
      </trkpt>
      <trkpt lat="47.743300516158342" lon="11.5643226262182">
        <ele>654.795166015625</ele>
        <time>2013-06-15T10:55:01Z</time>
      </trkpt>
      <trkpt lat="47.742810761556029" lon="11.56454592011869">
        <ele>655.27587890625</ele>
        <time>2013-06-15T10:55:10Z</time>
      </trkpt>
      <trkpt lat="47.742176000028849" lon="11.564714564010501">
        <ele>654.795166015625</ele>
        <time>2013-06-15T10:55:21Z</time>
      </trkpt>
      <trkpt lat="47.74199821986258" lon="11.564728645607829">
        <ele>655.27587890625</ele>
        <time>2013-06-15T10:55:24Z</time>
      </trkpt>
      <trkpt lat="47.741778865456581" lon="11.564634600654244">
        <ele>655.27587890625</ele>
        <time>2013-06-15T10:55:28Z</time>
      </trkpt>
      <trkpt lat="47.741652633994818" lon="11.564480038359761">
        <ele>657.198486328125</ele>
        <time>2013-06-15T10:55:31Z</time>
      </trkpt>
      <trkpt lat="47.741610975936055" lon="11.564433770254254">
        <ele>657.198486328125</ele>
        <time>2013-06-15T10:55:32Z</time>
      </trkpt>
      <trkpt lat="47.741063805297017" lon="11.5641188621521">
        <ele>656.7177734375</ele>
        <time>2013-06-15T10:55:43Z</time>
      </trkpt>
      <trkpt lat="47.740903794765472" lon="11.564027164131403">
        <ele>656.7177734375</ele>
        <time>2013-06-15T10:55:46Z</time>
      </trkpt>
      <trkpt lat="47.74047615006566" lon="11.563596837222576">
        <ele>658.159912109375</ele>
        <time>2013-06-15T10:55:55Z</time>
      </trkpt>
      <trkpt lat="47.740164678543806" lon="11.563233314082026">
        <ele>658.159912109375</ele>
        <time>2013-06-15T10:56:02Z</time>
      </trkpt>
      <trkpt lat="47.739902576431632" lon="11.563097946345806">
        <ele>657.198486328125</ele>
        <time>2013-06-15T10:56:07Z</time>
      </trkpt>
      <trkpt lat="47.739588506519794" lon="11.562892757356167">
        <ele>657.67919921875</ele>
        <time>2013-06-15T10:56:13Z</time>
      </trkpt>
      <trkpt lat="47.739252476021647" lon="11.562307951971889">
        <ele>657.67919921875</ele>
        <time>2013-06-15T10:56:22Z</time>
      </trkpt>
      <trkpt lat="47.738842517137527" lon="11.561581492424011">
        <ele>657.67919921875</ele>
        <time>2013-06-15T10:56:33Z</time>
      </trkpt>
      <trkpt lat="47.738400036469102" lon="11.561024934053421">
        <ele>657.67919921875</ele>
        <time>2013-06-15T10:56:43Z</time>
      </trkpt>
      <trkpt lat="47.73788639344275" lon="11.560647999867797">
        <ele>658.640380859375</ele>
        <time>2013-06-15T10:56:53Z</time>
      </trkpt>
      <trkpt lat="47.737439638003707" lon="11.560410708189011">
        <ele>658.159912109375</ele>
        <time>2013-06-15T10:57:01Z</time>
      </trkpt>
      <trkpt lat="47.737274011597037" lon="11.560349687933922">
        <ele>658.159912109375</ele>
        <time>2013-06-15T10:57:04Z</time>
      </trkpt>
      <trkpt lat="47.736771013587713" lon="11.5603007376194">
        <ele>658.640380859375</ele>
        <time>2013-06-15T10:57:13Z</time>
      </trkpt>
      <trkpt lat="47.736531794071198" lon="11.560294115915895">
        <ele>659.12109375</ele>
        <time>2013-06-15T10:57:17Z</time>
      </trkpt>
      <trkpt lat="47.735940534621477" lon="11.56044633127749">
        <ele>659.12109375</ele>
        <time>2013-06-15T10:57:27Z</time>
      </trkpt>
      <trkpt lat="47.735542394220829" lon="11.560634756460786">
        <ele>660.56298828125</ele>
        <time>2013-06-15T10:57:34Z</time>
      </trkpt>
      <trkpt lat="47.735430663451552" lon="11.560700973495841">
        <ele>659.12109375</ele>
        <time>2013-06-15T10:57:36Z</time>
      </trkpt>
      <trkpt lat="47.735319603234529" lon="11.560771381482482">
        <ele>659.601806640625</ele>
        <time>2013-06-15T10:57:38Z</time>
      </trkpt>
      <trkpt lat="47.734804200008512" lon="11.561142867431045">
        <ele>659.601806640625</ele>
        <time>2013-06-15T10:57:48Z</time>
      </trkpt>
      <trkpt lat="47.734341770410538" lon="11.561636393889785">
        <ele>659.12109375</ele>
        <time>2013-06-15T10:57:58Z</time>
      </trkpt>
      <trkpt lat="47.733983360230923" lon="11.562111396342516">
        <ele>659.601806640625</ele>
        <time>2013-06-15T10:58:07Z</time>
      </trkpt>
      <trkpt lat="47.733618328347802" lon="11.562647502869368">
        <ele>659.601806640625</ele>
        <time>2013-06-15T10:58:16Z</time>
      </trkpt>
      <trkpt lat="47.733392855152488" lon="11.563014881685376">
        <ele>660.56298828125</ele>
        <time>2013-06-15T10:58:22Z</time>
      </trkpt>
      <trkpt lat="47.733115246519446" lon="11.56321344897151">
        <ele>660.082275390625</ele>
        <time>2013-06-15T10:58:28Z</time>
      </trkpt>
      <trkpt lat="47.73263999260962" lon="11.563521651551127">
        <ele>660.56298828125</ele>
        <time>2013-06-15T10:58:38Z</time>
      </trkpt>
      <trkpt lat="47.73227353580296" lon="11.563644865527749">
        <ele>660.56298828125</ele>
        <time>2013-06-15T10:58:46Z</time>
      </trkpt>
      <trkpt lat="47.731876149773598" lon="11.563986260443926">
        <ele>660.56298828125</ele>
        <time>2013-06-15T10:58:55Z</time>
      </trkpt>
      <trkpt lat="47.731406427919865" lon="11.56438322737813">
        <ele>661.043701171875</ele>
        <time>2013-06-15T10:59:05Z</time>
      </trkpt>
      <trkpt lat="47.730936454609036" lon="11.564464783295989">
        <ele>660.082275390625</ele>
        <time>2013-06-15T10:59:14Z</time>
      </trkpt>
      <trkpt lat="47.730484921485186" lon="11.56467785127461">
        <ele>662.005126953125</ele>
        <time>2013-06-15T10:59:23Z</time>
      </trkpt>
      <trkpt lat="47.730271853506565" lon="11.564681874588132">
        <ele>662.005126953125</ele>
        <time>2013-06-15T10:59:27Z</time>
      </trkpt>
      <trkpt lat="47.729481272399426" lon="11.564439721405506">
        <ele>662.005126953125</ele>
        <time>2013-06-15T10:59:42Z</time>
      </trkpt>
      <trkpt lat="47.729323105886579" lon="11.564417760819197">
        <ele>661.5244140625</ele>
        <time>2013-06-15T10:59:45Z</time>
      </trkpt>
      <trkpt lat="47.728775851428509" lon="11.564123975113034">
        <ele>662.485595703125</ele>
        <time>2013-06-15T10:59:56Z</time>
      </trkpt>
      <trkpt lat="47.728589186444879" lon="11.563968826085329">
        <ele>662.485595703125</ele>
        <time>2013-06-15T11:00:00Z</time>
      </trkpt>
      <trkpt lat="47.728352230042219" lon="11.563606560230255">
        <ele>662.485595703125</ele>
        <time>2013-06-15T11:00:06Z</time>
      </trkpt>
      <trkpt lat="47.72817000746727" lon="11.56341478228569">
        <ele>662.485595703125</ele>
        <time>2013-06-15T11:00:10Z</time>
      </trkpt>
      <trkpt lat="47.72806447930634" lon="11.563384020701051">
        <ele>662.96630859375</ele>
        <time>2013-06-15T11:00:12Z</time>
      </trkpt>
      <trkpt lat="47.727871611714363" lon="11.563256867229939">
        <ele>662.005126953125</ele>
        <time>2013-06-15T11:00:16Z</time>
      </trkpt>
      <trkpt lat="47.727485122159123" lon="11.562453377991915">
        <ele>662.485595703125</ele>
        <time>2013-06-15T11:00:28Z</time>
      </trkpt>
      <trkpt lat="47.727091927081347" lon="11.561829848214984">
        <ele>662.005126953125</ele>
        <time>2013-06-15T11:00:38Z</time>
      </trkpt>
      <trkpt lat="47.726817335933447" lon="11.561505384743214">
        <ele>662.005126953125</ele>
        <time>2013-06-15T11:00:44Z</time>
      </trkpt>
      <trkpt lat="47.726464373990893" lon="11.561195505782962">
        <ele>662.005126953125</ele>
        <time>2013-06-15T11:00:51Z</time>
      </trkpt>
      <trkpt lat="47.726011918857694" lon="11.560930134728551">
        <ele>663.447021484375</ele>
        <time>2013-06-15T11:01:00Z</time>
      </trkpt>
      <trkpt lat="47.725849812850356" lon="11.560855284333229">
        <ele>662.96630859375</ele>
        <time>2013-06-15T11:01:03Z</time>
      </trkpt>
      <trkpt lat="47.725658621639013" lon="11.560685383155942">
        <ele>662.96630859375</ele>
        <time>2013-06-15T11:01:07Z</time>
      </trkpt>
      <trkpt lat="47.725521828979254" lon="11.560554625466466">
        <ele>663.447021484375</ele>
        <time>2013-06-15T11:01:10Z</time>
      </trkpt>
      <trkpt lat="47.725315131247044" lon="11.560491174459457">
        <ele>663.447021484375</ele>
        <time>2013-06-15T11:01:14Z</time>
      </trkpt>
      <trkpt lat="47.725055040791631" lon="11.560575244948268">
        <ele>663.927490234375</ele>
        <time>2013-06-15T11:01:19Z</time>
      </trkpt>
      <trkpt lat="47.724783634766936" lon="11.560638025403023">
        <ele>663.447021484375</ele>
        <time>2013-06-15T11:01:24Z</time>
      </trkpt>
      <trkpt lat="47.724673496559262" lon="11.560679180547595">
        <ele>663.447021484375</ele>
        <time>2013-06-15T11:01:26Z</time>
      </trkpt>
      <trkpt lat="47.724463026970625" lon="11.560902306810021">
        <ele>664.408203125</ele>
        <time>2013-06-15T11:01:31Z</time>
      </trkpt>
      <trkpt lat="47.724422793835402" lon="11.560950418934226">
        <ele>663.927490234375</ele>
        <time>2013-06-15T11:01:32Z</time>
      </trkpt>
      <trkpt lat="47.724210564047098" lon="11.561050331220031">
        <ele>663.927490234375</ele>
        <time>2013-06-15T11:01:36Z</time>
      </trkpt>
      <trkpt lat="47.723760958760977" lon="11.561419554054737">
        <ele>663.927490234375</ele>
        <time>2013-06-15T11:01:45Z</time>
      </trkpt>
      <trkpt lat="47.723300540819764" lon="11.561926994472742">
        <ele>662.96630859375</ele>
        <time>2013-06-15T11:01:55Z</time>
      </trkpt>
      <trkpt lat="47.723158383741975" lon="11.562091112136841">
        <ele>663.927490234375</ele>
        <time>2013-06-15T11:01:58Z</time>
      </trkpt>
      <trkpt lat="47.722879182547331" lon="11.562186665832996">
        <ele>663.447021484375</ele>
        <time>2013-06-15T11:02:03Z</time>
      </trkpt>
      <trkpt lat="47.722611380741" lon="11.562227150425315">
        <ele>663.927490234375</ele>
        <time>2013-06-15T11:02:08Z</time>
      </trkpt>
      <trkpt lat="47.722541140392423" lon="11.562397805973887">
        <ele>663.447021484375</ele>
        <time>2013-06-15T11:02:10Z</time>
      </trkpt>
      <trkpt lat="47.722483556717634" lon="11.56257776543498">
        <ele>662.96630859375</ele>
        <time>2013-06-15T11:02:12Z</time>
      </trkpt>
      <trkpt lat="47.722239810973406" lon="11.56278882175684">
        <ele>663.447021484375</ele>
        <time>2013-06-15T11:02:17Z</time>
      </trkpt>
      <trkpt lat="47.72218432277441" lon="11.562784546986222">
        <ele>663.927490234375</ele>
        <time>2013-06-15T11:02:18Z</time>
      </trkpt>
      <trkpt lat="47.722075022757053" lon="11.562758479267359">
        <ele>664.888916015625</ele>
        <time>2013-06-15T11:02:20Z</time>
      </trkpt>
      <trkpt lat="47.721909396350384" lon="11.562773482874036">
        <ele>664.888916015625</ele>
        <time>2013-06-15T11:02:23Z</time>
      </trkpt>
      <trkpt lat="47.721583843231201" lon="11.562716402113438">
        <ele>663.927490234375</ele>
        <time>2013-06-15T11:02:29Z</time>
      </trkpt>
      <trkpt lat="47.721432717517018" lon="11.562610371038318">
        <ele>664.408203125</ele>
        <time>2013-06-15T11:02:32Z</time>
      </trkpt>
      <trkpt lat="47.72115183994174" lon="11.562577849254012">
        <ele>664.888916015625</ele>
        <time>2013-06-15T11:02:37Z</time>
      </trkpt>
      <trkpt lat="47.721096854656935" lon="11.562609868124127">
        <ele>664.408203125</ele>
        <time>2013-06-15T11:02:38Z</time>
      </trkpt>
      <trkpt lat="47.720890492200851" lon="11.56276635825634">
        <ele>664.888916015625</ele>
        <time>2013-06-15T11:02:42Z</time>
      </trkpt>
      <trkpt lat="47.720638029277325" lon="11.562984874472022">
        <ele>664.888916015625</ele>
        <time>2013-06-15T11:02:47Z</time>
      </trkpt>
      <trkpt lat="47.720414400100708" lon="11.563029130920768">
        <ele>664.888916015625</ele>
        <time>2013-06-15T11:02:51Z</time>
      </trkpt>
      <trkpt lat="47.719545280560851" lon="11.562877250835299">
        <ele>665.850341796875</ele>
        <time>2013-06-15T11:03:06Z</time>
      </trkpt>
      <trkpt lat="47.719428101554513" lon="11.562873814254999">
        <ele>665.850341796875</ele>
        <time>2013-06-15T11:03:08Z</time>
      </trkpt>
      <trkpt lat="47.718988554552197" lon="11.562755964696407">
        <ele>666.8115234375</ele>
        <time>2013-06-15T11:03:15Z</time>
      </trkpt>
      <trkpt lat="47.718736845999956" lon="11.562707601115108">
        <ele>665.850341796875</ele>
        <time>2013-06-15T11:03:19Z</time>
      </trkpt>
      <trkpt lat="47.718463009223342" lon="11.56250836327672">
        <ele>665.36962890625</ele>
        <time>2013-06-15T11:03:24Z</time>
      </trkpt>
      <trkpt lat="47.71837642416358" lon="11.562390262261033">
        <ele>664.888916015625</ele>
        <time>2013-06-15T11:03:26Z</time>
      </trkpt>
      <trkpt lat="47.718154136091471" lon="11.562098320573568">
        <ele>665.36962890625</ele>
        <time>2013-06-15T11:03:31Z</time>
      </trkpt>
      <trkpt lat="47.717977864667773" lon="11.561951553449035">
        <ele>665.850341796875</ele>
        <time>2013-06-15T11:03:35Z</time>
      </trkpt>
      <trkpt lat="47.717810310423374" lon="11.561841750517488">
        <ele>666.8115234375</ele>
        <time>2013-06-15T11:03:39Z</time>
      </trkpt>
      <trkpt lat="47.717668823897839" lon="11.561689116060734">
        <ele>666.330810546875</ele>
        <time>2013-06-15T11:03:42Z</time>
      </trkpt>
      <trkpt lat="47.717509483918548" lon="11.561393653973937">
        <ele>666.330810546875</ele>
        <time>2013-06-15T11:03:46Z</time>
      </trkpt>
      <trkpt lat="47.717274622991681" lon="11.560945557430387">
        <ele>666.330810546875</ele>
        <time>2013-06-15T11:03:52Z</time>
      </trkpt>
      <trkpt lat="47.717096339911222" lon="11.560563342645764">
        <ele>666.330810546875</ele>
        <time>2013-06-15T11:03:57Z</time>
      </trkpt>
      <trkpt lat="47.717046299949288" lon="11.56032370403409">
        <ele>666.330810546875</ele>
        <time>2013-06-15T11:04:00Z</time>
      </trkpt>
      <trkpt lat="47.716966001316905" lon="11.559961438179016">
        <ele>667.292236328125</ele>
        <time>2013-06-15T11:04:05Z</time>
      </trkpt>
      <trkpt lat="47.716713454574347" lon="11.559446370229125">
        <ele>666.8115234375</ele>
        <time>2013-06-15T11:04:12Z</time>
      </trkpt>
      <trkpt lat="47.71667649038136" lon="11.559369591996074">
        <ele>666.8115234375</ele>
        <time>2013-06-15T11:04:13Z</time>
      </trkpt>
      <trkpt lat="47.716291174292564" lon="11.558916633948684">
        <ele>666.330810546875</ele>
        <time>2013-06-15T11:04:21Z</time>
      </trkpt>
      <trkpt lat="47.715905020013452" lon="11.558683952316642">
        <ele>667.292236328125</ele>
        <time>2013-06-15T11:04:28Z</time>
      </trkpt>
      <trkpt lat="47.715651718899608" lon="11.558544645085931">
        <ele>666.8115234375</ele>
        <time>2013-06-15T11:04:33Z</time>
      </trkpt>
      <trkpt lat="47.715604361146688" lon="11.558500220999122">
        <ele>666.8115234375</ele>
        <time>2013-06-15T11:04:34Z</time>
      </trkpt>
      <trkpt lat="47.715425323694944" lon="11.558259325101972">
        <ele>665.850341796875</ele>
        <time>2013-06-15T11:04:38Z</time>
      </trkpt>
      <trkpt lat="47.715307222679257" lon="11.558131584897637">
        <ele>667.292236328125</ele>
        <time>2013-06-15T11:04:41Z</time>
      </trkpt>
      <trkpt lat="47.715071858838201" lon="11.558213559910655">
        <ele>667.772705078125</ele>
        <time>2013-06-15T11:04:46Z</time>
      </trkpt>
      <trkpt lat="47.714945208281279" lon="11.558371726423502">
        <ele>668.253662109375</ele>
        <time>2013-06-15T11:04:50Z</time>
      </trkpt>
      <trkpt lat="47.714936155825853" lon="11.558363847434521">
        <ele>668.734375</ele>
        <time>2013-06-15T11:04:55Z</time>
      </trkpt>
      <trkpt lat="47.714935904368758" lon="11.558364517986774">
        <ele>668.734375</ele>
        <time>2013-06-15T11:05:07Z</time>
      </trkpt>
      <trkpt lat="47.714822748675942" lon="11.558479182422161">
        <ele>668.734375</ele>
        <time>2013-06-15T11:05:13Z</time>
      </trkpt>
      <trkpt lat="47.714732140302658" lon="11.558510111644864">
        <ele>668.253662109375</ele>
        <time>2013-06-15T11:05:16Z</time>
      </trkpt>
      <trkpt lat="47.714622421190143" lon="11.558600552380085">
        <ele>668.734375</ele>
        <time>2013-06-15T11:05:21Z</time>
      </trkpt>
      <trkpt lat="47.714625103399158" lon="11.558602899312973">
        <ele>668.253662109375</ele>
        <time>2013-06-15T11:05:30Z</time>
      </trkpt>
      <trkpt lat="47.714654188603163" lon="11.558599881827831">
        <ele>668.253662109375</ele>
        <time>2013-06-15T11:05:35Z</time>
      </trkpt>
      <trkpt lat="47.714654440060258" lon="11.558603988960385">
        <ele>668.734375</ele>
        <time>2013-06-15T11:05:44Z</time>
      </trkpt>
      <trkpt lat="47.714712275192142" lon="11.55861496925354">
        <ele>668.253662109375</ele>
        <time>2013-06-15T11:05:50Z</time>
      </trkpt>
      <trkpt lat="47.714744545519352" lon="11.558665093034506">
        <ele>667.292236328125</ele>
        <time>2013-06-15T11:05:58Z</time>
      </trkpt>
      <trkpt lat="47.714754436165094" lon="11.558693088591099">
        <ele>666.330810546875</ele>
        <time>2013-06-15T11:06:07Z</time>
      </trkpt>
      <trkpt lat="47.714734487235546" lon="11.558669535443187">
        <ele>667.292236328125</ele>
        <time>2013-06-15T11:06:18Z</time>
      </trkpt>
      <trkpt lat="47.71469509229064" lon="11.55864036642015">
        <ele>667.772705078125</ele>
        <time>2013-06-15T11:06:27Z</time>
      </trkpt>
      <trkpt lat="47.714726775884628" lon="11.558642294257879">
        <ele>668.253662109375</ele>
        <time>2013-06-15T11:06:33Z</time>
      </trkpt>
      <trkpt lat="47.714724931865931" lon="11.558635169640183">
        <ele>668.253662109375</ele>
        <time>2013-06-15T11:06:57Z</time>
      </trkpt>
      <trkpt lat="47.714685201644897" lon="11.558619746938348">
        <ele>668.253662109375</ele>
        <time>2013-06-15T11:07:15Z</time>
      </trkpt>
      <trkpt lat="47.71459249779582" lon="11.558613628149033">
        <ele>668.734375</ele>
        <time>2013-06-15T11:07:23Z</time>
      </trkpt>
      <trkpt lat="47.714601466432214" lon="11.558615388348699">
        <ele>668.734375</ele>
        <time>2013-06-15T11:07:28Z</time>
      </trkpt>
      <trkpt lat="47.714606411755085" lon="11.558614633977413">
        <ele>668.253662109375</ele>
        <time>2013-06-15T11:07:29Z</time>
      </trkpt>
      <trkpt lat="47.714705150574446" lon="11.55851723626256">
        <ele>668.253662109375</ele>
        <time>2013-06-15T11:07:36Z</time>
      </trkpt>
      <trkpt lat="47.714902963489294" lon="11.558425622060895">
        <ele>668.253662109375</ele>
        <time>2013-06-15T11:07:42Z</time>
      </trkpt>
      <trkpt lat="47.714976640418172" lon="11.55832763761282">
        <ele>668.734375</ele>
        <time>2013-06-15T11:07:47Z</time>
      </trkpt>
      <trkpt lat="47.714976388961077" lon="11.558322021737695">
        <ele>668.734375</ele>
        <time>2013-06-15T11:08:00Z</time>
      </trkpt>
      <trkpt lat="47.714965408667922" lon="11.558316992595792">
        <ele>668.734375</ele>
        <time>2013-06-15T11:08:35Z</time>
      </trkpt>
      <trkpt lat="47.714925510808825" lon="11.558292014524341">
        <ele>668.734375</ele>
        <time>2013-06-15T11:08:39Z</time>
      </trkpt>
      <trkpt lat="47.714786622673273" lon="11.558292349800467">
        <ele>668.253662109375</ele>
        <time>2013-06-15T11:08:45Z</time>
      </trkpt>
      <trkpt lat="47.714712107554078" lon="11.558279944583774">
        <ele>667.772705078125</ele>
        <time>2013-06-15T11:08:47Z</time>
      </trkpt>
      <trkpt lat="47.714414047077298" lon="11.558301066979766">
        <ele>667.772705078125</ele>
        <time>2013-06-15T11:08:55Z</time>
      </trkpt>
      <trkpt lat="47.714199805632234" lon="11.558307101950049">
        <ele>668.734375</ele>
        <time>2013-06-15T11:09:00Z</time>
      </trkpt>
      <trkpt lat="47.713903756812215" lon="11.558170728385448">
        <ele>667.772705078125</ele>
        <time>2013-06-15T11:09:05Z</time>
      </trkpt>
      <trkpt lat="47.713574599474669" lon="11.557268667966127">
        <ele>669.215087890625</ele>
        <time>2013-06-15T11:09:18Z</time>
      </trkpt>
      <trkpt lat="47.713375696912408" lon="11.556279016658664">
        <ele>670.656982421875</ele>
        <time>2013-06-15T11:09:31Z</time>
      </trkpt>
      <trkpt lat="47.71333672106266" lon="11.556030577048659">
        <ele>670.656982421875</ele>
        <time>2013-06-15T11:09:35Z</time>
      </trkpt>
      <trkpt lat="47.713211663067341" lon="11.55600031837821">
        <ele>670.656982421875</ele>
        <time>2013-06-15T11:09:40Z</time>
      </trkpt>
      <trkpt lat="47.713136058300734" lon="11.556060500442982">
        <ele>670.656982421875</ele>
        <time>2013-06-15T11:09:42Z</time>
      </trkpt>
      <trkpt lat="47.713013766333461" lon="11.556179607287049">
        <ele>670.656982421875</ele>
        <time>2013-06-15T11:09:45Z</time>
      </trkpt>
      <trkpt lat="47.712714951485395" lon="11.556243728846312">
        <ele>669.69580078125</ele>
        <time>2013-06-15T11:09:51Z</time>
      </trkpt>
      <trkpt lat="47.712610261514783" lon="11.556194694712758">
        <ele>670.17626953125</ele>
        <time>2013-06-15T11:09:53Z</time>
      </trkpt>
      <trkpt lat="47.712112460285425" lon="11.555969640612602">
        <ele>671.6181640625</ele>
        <time>2013-06-15T11:10:03Z</time>
      </trkpt>
      <trkpt lat="47.711355993524194" lon="11.555921528488398">
        <ele>674.021484375</ele>
        <time>2013-06-15T11:10:18Z</time>
      </trkpt>
      <trkpt lat="47.711163880303502" lon="11.555910129100084">
        <ele>674.021484375</ele>
        <time>2013-06-15T11:10:22Z</time>
      </trkpt>
      <trkpt lat="47.710873279720545" lon="11.555752716958523">
        <ele>675.46337890625</ele>
        <time>2013-06-15T11:10:29Z</time>
      </trkpt>
      <trkpt lat="47.710780911147594" lon="11.555690607056022">
        <ele>676.905517578125</ele>
        <time>2013-06-15T11:10:32Z</time>
      </trkpt>
      <trkpt lat="47.710779486224055" lon="11.555358935147524">
        <ele>678.347412109375</ele>
        <time>2013-06-15T11:10:39Z</time>
      </trkpt>
      <trkpt lat="47.710767164826393" lon="11.554918801411986">
        <ele>680.27001953125</ele>
        <time>2013-06-15T11:10:50Z</time>
      </trkpt>
      <trkpt lat="47.710756938904524" lon="11.554680755361915">
        <ele>681.7119140625</ele>
        <time>2013-06-15T11:10:57Z</time>
      </trkpt>
      <trkpt lat="47.710705474019051" lon="11.554334834218025">
        <ele>683.15380859375</ele>
        <time>2013-06-15T11:11:06Z</time>
      </trkpt>
      <trkpt lat="47.710582260042429" lon="11.553933676332235">
        <ele>684.59619140625</ele>
        <time>2013-06-15T11:11:16Z</time>
      </trkpt>
      <trkpt lat="47.710543116554618" lon="11.553617427125573">
        <ele>685.076904296875</ele>
        <time>2013-06-15T11:11:23Z</time>
      </trkpt>
      <trkpt lat="47.710567256435752" lon="11.553441407158971">
        <ele>686.518798828125</ele>
        <time>2013-06-15T11:11:27Z</time>
      </trkpt>
      <trkpt lat="47.710590474307537" lon="11.55298157595098">
        <ele>686.999267578125</ele>
        <time>2013-06-15T11:11:37Z</time>
      </trkpt>
      <trkpt lat="47.710498524829745" lon="11.552571533247828">
        <ele>687.47998046875</ele>
        <time>2013-06-15T11:11:45Z</time>
      </trkpt>
      <trkpt lat="47.710407245904207" lon="11.552438512444496">
        <ele>687.47998046875</ele>
        <time>2013-06-15T11:11:48Z</time>
      </trkpt>
      <trkpt lat="47.710168194025755" lon="11.551850019022822">
        <ele>688.922119140625</ele>
        <time>2013-06-15T11:11:59Z</time>
      </trkpt>
      <trkpt lat="47.710038190707564" lon="11.551105286926031">
        <ele>689.88330078125</ele>
        <time>2013-06-15T11:12:11Z</time>
      </trkpt>
      <trkpt lat="47.709895363077521" lon="11.550171039998531">
        <ele>691.3251953125</ele>
        <time>2013-06-15T11:12:26Z</time>
      </trkpt>
      <trkpt lat="47.709682881832123" lon="11.549303848296404">
        <ele>692.767333984375</ele>
        <time>2013-06-15T11:12:40Z</time>
      </trkpt>
      <trkpt lat="47.709568133577704" lon="11.548476302996278">
        <ele>694.209228515625</ele>
        <time>2013-06-15T11:12:52Z</time>
      </trkpt>
      <trkpt lat="47.709498647600412" lon="11.547974562272429">
        <ele>694.689697265625</ele>
        <time>2013-06-15T11:12:59Z</time>
      </trkpt>
      <trkpt lat="47.709392700344324" lon="11.547391600906849">
        <ele>695.651123046875</ele>
        <time>2013-06-15T11:13:07Z</time>
      </trkpt>
      <trkpt lat="47.709378870204091" lon="11.547311637550592">
        <ele>696.1318359375</ele>
        <time>2013-06-15T11:13:08Z</time>
      </trkpt>
      <trkpt lat="47.709309468045831" lon="11.547019109129906">
        <ele>695.651123046875</ele>
        <time>2013-06-15T11:13:12Z</time>
      </trkpt>
      <trkpt lat="47.709248112514615" lon="11.546570342034101">
        <ele>696.612548828125</ele>
        <time>2013-06-15T11:13:18Z</time>
      </trkpt>
      <trkpt lat="47.709227493032813" lon="11.546180918812752">
        <ele>696.612548828125</ele>
        <time>2013-06-15T11:13:23Z</time>
      </trkpt>
      <trkpt lat="47.70920729264617" lon="11.545875817537308">
        <ele>697.57373046875</ele>
        <time>2013-06-15T11:13:27Z</time>
      </trkpt>
      <trkpt lat="47.709209388121963" lon="11.545653864741325">
        <ele>698.054443359375</ele>
        <time>2013-06-15T11:13:30Z</time>
      </trkpt>
      <trkpt lat="47.709177620708942" lon="11.544869570061564">
        <ele>699.015625</ele>
        <time>2013-06-15T11:13:40Z</time>
      </trkpt>
      <trkpt lat="47.709174435585737" lon="11.544563127681613">
        <ele>699.97705078125</ele>
        <time>2013-06-15T11:13:44Z</time>
      </trkpt>
      <trkpt lat="47.709127580747008" lon="11.543716974556446">
        <ele>701.89990234375</ele>
        <time>2013-06-15T11:13:55Z</time>
      </trkpt>
      <trkpt lat="47.709052311256528" lon="11.542843580245972">
        <ele>700.9384765625</ele>
        <time>2013-06-15T11:14:06Z</time>
      </trkpt>
      <trkpt lat="47.708903113380075" lon="11.541617391631007">
        <ele>704.30322265625</ele>
        <time>2013-06-15T11:14:22Z</time>
      </trkpt>
      <trkpt lat="47.708743438124657" lon="11.540724383667111">
        <ele>706.2255859375</ele>
        <time>2013-06-15T11:14:35Z</time>
      </trkpt>
      <trkpt lat="47.708707228302956" lon="11.540521709248424">
        <ele>706.706298828125</ele>
        <time>2013-06-15T11:14:38Z</time>
      </trkpt>
      <trkpt lat="47.708544787019491" lon="11.540203448385">
        <ele>706.706298828125</ele>
        <time>2013-06-15T11:14:44Z</time>
      </trkpt>
      <trkpt lat="47.708415538072586" lon="11.540118288248777">
        <ele>708.62890625</ele>
        <time>2013-06-15T11:14:47Z</time>
      </trkpt>
      <trkpt lat="47.708238679915667" lon="11.540031200274825">
        <ele>709.59033203125</ele>
        <time>2013-06-15T11:14:51Z</time>
      </trkpt>
      <trkpt lat="47.708197440952063" lon="11.540007563307881">
        <ele>709.59033203125</ele>
        <time>2013-06-15T11:14:52Z</time>
      </trkpt>
      <trkpt lat="47.708121165633202" lon="11.539949811995029">
        <ele>709.59033203125</ele>
        <time>2013-06-15T11:14:54Z</time>
      </trkpt>
      <trkpt lat="47.707935003563762" lon="11.539686368778348">
        <ele>710.07080078125</ele>
        <time>2013-06-15T11:15:00Z</time>
      </trkpt>
      <trkpt lat="47.707840455695987" lon="11.53926333412528">
        <ele>710.07080078125</ele>
        <time>2013-06-15T11:15:07Z</time>
      </trkpt>
      <trkpt lat="47.707767281681299" lon="11.538799479603767">
        <ele>710.07080078125</ele>
        <time>2013-06-15T11:15:15Z</time>
      </trkpt>
      <trkpt lat="47.707696538418531" lon="11.538401758298278">
        <ele>710.551513671875</ele>
        <time>2013-06-15T11:15:22Z</time>
      </trkpt>
      <trkpt lat="47.707564439624548" lon="11.537859700620174">
        <ele>711.512939453125</ele>
        <time>2013-06-15T11:15:31Z</time>
      </trkpt>
      <trkpt lat="47.707397220656276" lon="11.537285624071956">
        <ele>712.47412109375</ele>
        <time>2013-06-15T11:15:40Z</time>
      </trkpt>
      <trkpt lat="47.707321951165795" lon="11.537003656849265">
        <ele>714.396728515625</ele>
        <time>2013-06-15T11:15:45Z</time>
      </trkpt>
      <trkpt lat="47.707163449376822" lon="11.536386832594872">
        <ele>714.87744140625</ele>
        <time>2013-06-15T11:15:55Z</time>
      </trkpt>
      <trkpt lat="47.707141740247607" lon="11.536263702437282">
        <ele>714.87744140625</ele>
        <time>2013-06-15T11:15:57Z</time>
      </trkpt>
      <trkpt lat="47.707047276198864" lon="11.535754920914769">
        <ele>715.358154296875</ele>
        <time>2013-06-15T11:16:05Z</time>
      </trkpt>
      <trkpt lat="47.707032607868314" lon="11.535689039155841">
        <ele>714.87744140625</ele>
        <time>2013-06-15T11:16:06Z</time>
      </trkpt>
      <trkpt lat="47.706994051113725" lon="11.535497764125466">
        <ele>716.319580078125</ele>
        <time>2013-06-15T11:16:09Z</time>
      </trkpt>
      <trkpt lat="47.706822976469994" lon="11.534864008426666">
        <ele>716.319580078125</ele>
        <time>2013-06-15T11:16:19Z</time>
      </trkpt>
      <trkpt lat="47.706666989251971" lon="11.534328404814005">
        <ele>715.8388671875</ele>
        <time>2013-06-15T11:16:27Z</time>
      </trkpt>
      <trkpt lat="47.706506056711078" lon="11.533513432368636">
        <ele>714.87744140625</ele>
        <time>2013-06-15T11:16:39Z</time>
      </trkpt>
      <trkpt lat="47.706493819132447" lon="11.533255856484175">
        <ele>717.281005859375</ele>
        <time>2013-06-15T11:16:43Z</time>
      </trkpt>
      <trkpt lat="47.706459872424603" lon="11.532824859023094">
        <ele>716.80029296875</ele>
        <time>2013-06-15T11:16:50Z</time>
      </trkpt>
      <trkpt lat="47.706417627632618" lon="11.532160257920623">
        <ele>719.684326171875</ele>
        <time>2013-06-15T11:17:01Z</time>
      </trkpt>
      <trkpt lat="47.70636985078454" lon="11.531823975965381">
        <ele>720.164794921875</ele>
        <time>2013-06-15T11:17:10Z</time>
      </trkpt>
      <trkpt lat="47.706378484144807" lon="11.531531615182757">
        <ele>721.126220703125</ele>
        <time>2013-06-15T11:17:18Z</time>
      </trkpt>
      <trkpt lat="47.706353673711419" lon="11.531058037653565">
        <ele>722.08740234375</ele>
        <time>2013-06-15T11:17:26Z</time>
      </trkpt>
      <trkpt lat="47.706308327615261" lon="11.530828205868602">
        <ele>722.08740234375</ele>
        <time>2013-06-15T11:17:30Z</time>
      </trkpt>
      <trkpt lat="47.705994425341487" lon="11.530332416296005">
        <ele>724.49072265625</ele>
        <time>2013-06-15T11:17:41Z</time>
      </trkpt>
      <trkpt lat="47.705670800060034" lon="11.530097555369139">
        <ele>725.9326171875</ele>
        <time>2013-06-15T11:17:50Z</time>
      </trkpt>
      <trkpt lat="47.705182218924165" lon="11.529966965317726">
        <ele>725.9326171875</ele>
        <time>2013-06-15T11:18:02Z</time>
      </trkpt>
      <trkpt lat="47.705005863681436" lon="11.529918685555458">
        <ele>727.374755859375</ele>
        <time>2013-06-15T11:18:08Z</time>
      </trkpt>
      <trkpt lat="47.704774606972933" lon="11.529880883172154">
        <ele>728.3359375</ele>
        <time>2013-06-15T11:18:14Z</time>
      </trkpt>
      <trkpt lat="47.704633288085461" lon="11.529870321974158">
        <ele>728.816650390625</ele>
        <time>2013-06-15T11:18:17Z</time>
      </trkpt>
      <trkpt lat="47.704493645578623" lon="11.529839895665646">
        <ele>728.816650390625</ele>
        <time>2013-06-15T11:18:20Z</time>
      </trkpt>
      <trkpt lat="47.704325588420033" lon="11.52973554097116">
        <ele>729.297119140625</ele>
        <time>2013-06-15T11:18:24Z</time>
      </trkpt>
      <trkpt lat="47.703924346715212" lon="11.529264310374856">
        <ele>729.77783203125</ele>
        <time>2013-06-15T11:18:36Z</time>
      </trkpt>
      <trkpt lat="47.703674985095859" lon="11.528975972905755">
        <ele>731.700439453125</ele>
        <time>2013-06-15T11:18:44Z</time>
      </trkpt>
      <trkpt lat="47.703307019546628" lon="11.528551178053021">
        <ele>733.142578125</ele>
        <time>2013-06-15T11:18:56Z</time>
      </trkpt>
      <trkpt lat="47.703161844983697" lon="11.528487810865045">
        <ele>733.142578125</ele>
        <time>2013-06-15T11:19:01Z</time>
      </trkpt>
      <trkpt lat="47.70299437455833" lon="11.528452774509788">
        <ele>735.0654296875</ele>
        <time>2013-06-15T11:19:09Z</time>
      </trkpt>
      <trkpt lat="47.702938718721271" lon="11.528442464768887">
        <ele>734.584716796875</ele>
        <time>2013-06-15T11:19:11Z</time>
      </trkpt>
      <trkpt lat="47.702704025432467" lon="11.5284314006567">
        <ele>735.5458984375</ele>
        <time>2013-06-15T11:19:17Z</time>
      </trkpt>
      <trkpt lat="47.70249305292964" lon="11.528394771739841">
        <ele>736.50732421875</ele>
        <time>2013-06-15T11:19:23Z</time>
      </trkpt>
      <trkpt lat="47.702261293306947" lon="11.5282569732517">
        <ele>736.98779296875</ele>
        <time>2013-06-15T11:19:29Z</time>
      </trkpt>
      <trkpt lat="47.702072532847524" lon="11.528037870302796">
        <ele>737.94921875</ele>
        <time>2013-06-15T11:19:36Z</time>
      </trkpt>
      <trkpt lat="47.701970189809799" lon="11.527866460382938">
        <ele>738.91064453125</ele>
        <time>2013-06-15T11:19:40Z</time>
      </trkpt>
      <trkpt lat="47.701773131266236" lon="11.527599664404988">
        <ele>737.94921875</ele>
        <time>2013-06-15T11:19:46Z</time>
      </trkpt>
      <trkpt lat="47.701712362468243" lon="11.527500590309501">
        <ele>738.91064453125</ele>
        <time>2013-06-15T11:19:48Z</time>
      </trkpt>
      <trkpt lat="47.701591327786446" lon="11.527325743809342">
        <ele>737.468505859375</ele>
        <time>2013-06-15T11:19:53Z</time>
      </trkpt>
      <trkpt lat="47.701554279774427" lon="11.527286600321531">
        <ele>737.94921875</ele>
        <time>2013-06-15T11:19:54Z</time>
      </trkpt>
      <trkpt lat="47.70121187902987" lon="11.527113849297166">
        <ele>736.98779296875</ele>
        <time>2013-06-15T11:19:59Z</time>
      </trkpt>
      <trkpt lat="47.701068380847573" lon="11.527141844853759">
        <ele>736.98779296875</ele>
        <time>2013-06-15T11:20:01Z</time>
      </trkpt>
      <trkpt lat="47.700871238484979" lon="11.52702558785677">
        <ele>736.026611328125</ele>
        <time>2013-06-15T11:20:05Z</time>
      </trkpt>
      <trkpt lat="47.700847517699003" lon="11.526966579258442">
        <ele>736.50732421875</ele>
        <time>2013-06-15T11:20:06Z</time>
      </trkpt>
      <trkpt lat="47.700790856033564" lon="11.52681210078299">
        <ele>737.468505859375</ele>
        <time>2013-06-15T11:20:09Z</time>
      </trkpt>
      <trkpt lat="47.700731512159109" lon="11.52662149630487">
        <ele>737.468505859375</ele>
        <time>2013-06-15T11:20:12Z</time>
      </trkpt>
      <trkpt lat="47.700689435005188" lon="11.526481686159968">
        <ele>737.468505859375</ele>
        <time>2013-06-15T11:20:14Z</time>
      </trkpt>
      <trkpt lat="47.700613746419549" lon="11.526281274855137">
        <ele>736.98779296875</ele>
        <time>2013-06-15T11:20:17Z</time>
      </trkpt>
      <trkpt lat="47.700534705072641" lon="11.525870645418763">
        <ele>737.94921875</ele>
        <time>2013-06-15T11:20:24Z</time>
      </trkpt>
      <trkpt lat="47.700439486652613" lon="11.525625307112932">
        <ele>738.429931640625</ele>
        <time>2013-06-15T11:20:27Z</time>
      </trkpt>
      <trkpt lat="47.700302442535758" lon="11.525459848344326">
        <ele>737.94921875</ele>
        <time>2013-06-15T11:20:30Z</time>
      </trkpt>
      <trkpt lat="47.700196662917733" lon="11.525397403165698">
        <ele>737.94921875</ele>
        <time>2013-06-15T11:20:32Z</time>
      </trkpt>
      <trkpt lat="47.699937913566828" lon="11.525111915543675">
        <ele>740.3525390625</ele>
        <time>2013-06-15T11:20:40Z</time>
      </trkpt>
      <trkpt lat="47.699827020987868" lon="11.525041004642844">
        <ele>740.8330078125</ele>
        <time>2013-06-15T11:20:45Z</time>
      </trkpt>
      <trkpt lat="47.699634488672018" lon="11.524740094318986">
        <ele>741.79443359375</ele>
        <time>2013-06-15T11:20:52Z</time>
      </trkpt>
      <trkpt lat="47.699414882808924" lon="11.524442201480269">
        <ele>741.79443359375</ele>
        <time>2013-06-15T11:20:58Z</time>
      </trkpt>
      <trkpt lat="47.699177842587233" lon="11.524093011394143">
        <ele>743.717041015625</ele>
        <time>2013-06-15T11:21:05Z</time>
      </trkpt>
      <trkpt lat="47.698832675814629" lon="11.523569812998176">
        <ele>744.67822265625</ele>
        <time>2013-06-15T11:21:14Z</time>
      </trkpt>
      <trkpt lat="47.698789844289422" lon="11.523450035601854">
        <ele>744.67822265625</ele>
        <time>2013-06-15T11:21:16Z</time>
      </trkpt>
      <trkpt lat="47.698595384135842" lon="11.523215929046273">
        <ele>745.6396484375</ele>
        <time>2013-06-15T11:21:21Z</time>
      </trkpt>
      <trkpt lat="47.69851072691381" lon="11.523102521896362">
        <ele>746.120361328125</ele>
        <time>2013-06-15T11:21:24Z</time>
      </trkpt>
      <trkpt lat="47.698409557342529" lon="11.52304326184094">
        <ele>746.60107421875</ele>
        <time>2013-06-15T11:21:28Z</time>
      </trkpt>
      <trkpt lat="47.698361780494452" lon="11.522977044805884">
        <ele>748.043212890625</ele>
        <time>2013-06-15T11:21:31Z</time>
      </trkpt>
      <trkpt lat="47.698247199878097" lon="11.523019373416901">
        <ele>748.043212890625</ele>
        <time>2013-06-15T11:21:36Z</time>
      </trkpt>
      <trkpt lat="47.698142426088452" lon="11.523065473884344">
        <ele>749.00439453125</ele>
        <time>2013-06-15T11:21:40Z</time>
      </trkpt>
      <trkpt lat="47.698022732511163" lon="11.523027000948787">
        <ele>749.485107421875</ele>
        <time>2013-06-15T11:21:44Z</time>
      </trkpt>
      <trkpt lat="47.697963137179613" lon="11.522939577698708">
        <ele>749.9658203125</ele>
        <time>2013-06-15T11:21:47Z</time>
      </trkpt>
      <trkpt lat="47.697842186316848" lon="11.522768083959818">
        <ele>750.446533203125</ele>
        <time>2013-06-15T11:21:52Z</time>
      </trkpt>
      <trkpt lat="47.697612605988979" lon="11.522438758984208">
        <ele>751.40771484375</ele>
        <time>2013-06-15T11:21:59Z</time>
      </trkpt>
      <trkpt lat="47.697353856638074" lon="11.522258296608925">
        <ele>751.888427734375</ele>
        <time>2013-06-15T11:22:05Z</time>
      </trkpt>
      <trkpt lat="47.697068536654115" lon="11.521910196170211">
        <ele>752.849609375</ele>
        <time>2013-06-15T11:22:15Z</time>
      </trkpt>
      <trkpt lat="47.696831999346614" lon="11.521666785702109">
        <ele>754.291748046875</ele>
        <time>2013-06-15T11:22:21Z</time>
      </trkpt>
      <trkpt lat="47.696689171716571" lon="11.521534183993936">
        <ele>755.733642578125</ele>
        <time>2013-06-15T11:22:26Z</time>
      </trkpt>
      <trkpt lat="47.696591354906559" lon="11.521413819864392">
        <ele>756.214111328125</ele>
        <time>2013-06-15T11:22:31Z</time>
      </trkpt>
      <trkpt lat="47.696579117327929" lon="11.521307285875082">
        <ele>756.69482421875</ele>
        <time>2013-06-15T11:22:33Z</time>
      </trkpt>
      <trkpt lat="47.696560593321919" lon="11.521103354170918">
        <ele>757.65625</ele>
        <time>2013-06-15T11:22:37Z</time>
      </trkpt>
      <trkpt lat="47.69657040014863" lon="11.520749721676111">
        <ele>760.059326171875</ele>
        <time>2013-06-15T11:22:46Z</time>
      </trkpt>
      <trkpt lat="47.696525808423758" lon="11.520694568753242">
        <ele>761.020751953125</ele>
        <time>2013-06-15T11:22:50Z</time>
      </trkpt>
      <trkpt lat="47.696353895589709" lon="11.52081560343504">
        <ele>761.50146484375</ele>
        <time>2013-06-15T11:22:57Z</time>
      </trkpt>
      <trkpt lat="47.696182988584042" lon="11.520937392488122">
        <ele>761.982177734375</ele>
        <time>2013-06-15T11:23:03Z</time>
      </trkpt>
      <trkpt lat="47.696006465703249" lon="11.521031772717834">
        <ele>762.943359375</ele>
        <time>2013-06-15T11:23:08Z</time>
      </trkpt>
      <trkpt lat="47.695810161530972" lon="11.52082490734756">
        <ele>763.904541015625</ele>
        <time>2013-06-15T11:23:14Z</time>
      </trkpt>
      <trkpt lat="47.695730030536652" lon="11.520560793578625">
        <ele>763.904541015625</ele>
        <time>2013-06-15T11:23:19Z</time>
      </trkpt>
      <trkpt lat="47.695690048858523" lon="11.520432382822037">
        <ele>763.904541015625</ele>
        <time>2013-06-15T11:23:21Z</time>
      </trkpt>
      <trkpt lat="47.695582592859864" lon="11.520087467506528">
        <ele>764.8662109375</ele>
        <time>2013-06-15T11:23:29Z</time>
      </trkpt>
      <trkpt lat="47.695506233721972" lon="11.519782952964306">
        <ele>766.30810546875</ele>
        <time>2013-06-15T11:23:36Z</time>
      </trkpt>
      <trkpt lat="47.695277826860547" lon="11.519404342398047">
        <ele>767.26953125</ele>
        <time>2013-06-15T11:23:45Z</time>
      </trkpt>
      <trkpt lat="47.695023603737354" lon="11.519065210595727">
        <ele>768.230712890625</ele>
        <time>2013-06-15T11:23:54Z</time>
      </trkpt>
      <trkpt lat="47.694943808019161" lon="11.518871420994401">
        <ele>770.1533203125</ele>
        <time>2013-06-15T11:24:00Z</time>
      </trkpt>
      <trkpt lat="47.694914638996124" lon="11.518663046881557">
        <ele>769.6728515625</ele>
        <time>2013-06-15T11:24:07Z</time>
      </trkpt>
      <trkpt lat="47.694726465269923" lon="11.518557937815785">
        <ele>772.556640625</ele>
        <time>2013-06-15T11:24:13Z</time>
      </trkpt>
      <trkpt lat="47.694633677601814" lon="11.518404465168715">
        <ele>772.075927734375</ele>
        <time>2013-06-15T11:24:18Z</time>
      </trkpt>
      <trkpt lat="47.694564443081617" lon="11.518265409395099">
        <ele>773.037353515625</ele>
        <time>2013-06-15T11:24:24Z</time>
      </trkpt>
      <trkpt lat="47.694377610459924" lon="11.518077319487929">
        <ele>773.51806640625</ele>
        <time>2013-06-15T11:24:32Z</time>
      </trkpt>
      <trkpt lat="47.694251798093319" lon="11.517848744988441">
        <ele>776.40185546875</ele>
        <time>2013-06-15T11:24:39Z</time>
      </trkpt>
      <trkpt lat="47.693940661847591" lon="11.517416657879949">
        <ele>776.882568359375</ele>
        <time>2013-06-15T11:24:49Z</time>
      </trkpt>
      <trkpt lat="47.693618796765804" lon="11.516988258808851">
        <ele>778.80517578125</ele>
        <time>2013-06-15T11:25:01Z</time>
      </trkpt>
      <trkpt lat="47.693308582529426" lon="11.516593722626567">
        <ele>778.80517578125</ele>
        <time>2013-06-15T11:25:11Z</time>
      </trkpt>
      <trkpt lat="47.693168772384524" lon="11.516429521143436">
        <ele>779.766357421875</ele>
        <time>2013-06-15T11:25:16Z</time>
      </trkpt>
      <trkpt lat="47.693028962239623" lon="11.516235144808888">
        <ele>780.247314453125</ele>
        <time>2013-06-15T11:25:22Z</time>
      </trkpt>
      <trkpt lat="47.692994344979525" lon="11.51603490114212">
        <ele>781.208740234375</ele>
        <time>2013-06-15T11:25:27Z</time>
      </trkpt>
      <trkpt lat="47.692981101572514" lon="11.516031548380852">
        <ele>780.72802734375</ele>
        <time>2013-06-15T11:25:32Z</time>
      </trkpt>
      <trkpt lat="47.692983699962497" lon="11.51604269631207">
        <ele>784.092529296875</ele>
        <time>2013-06-15T11:26:49Z</time>
      </trkpt>
      <trkpt lat="47.692992752417922" lon="11.516006654128432">
        <ele>784.5732421875</ele>
        <time>2013-06-15T11:28:34Z</time>
      </trkpt>
      <trkpt lat="47.692995434626937" lon="11.516019478440285">
        <ele>784.5732421875</ele>
        <time>2013-06-15T11:28:45Z</time>
      </trkpt>
      <trkpt lat="47.693000296130776" lon="11.516035404056311">
        <ele>785.534423828125</ele>
        <time>2013-06-15T11:28:59Z</time>
      </trkpt>
      <trkpt lat="47.692997194826603" lon="11.516028363257647">
        <ele>785.053955078125</ele>
        <time>2013-06-15T11:29:08Z</time>
      </trkpt>
      <trkpt lat="47.69299509935081" lon="11.516028782352805">
        <ele>785.534423828125</ele>
        <time>2013-06-15T11:29:26Z</time>
      </trkpt>
      <trkpt lat="47.692994177341461" lon="11.51603733189404">
        <ele>786.01513671875</ele>
        <time>2013-06-15T11:30:02Z</time>
      </trkpt>
      <trkpt lat="47.693006917834282" lon="11.516089970245957">
        <ele>786.01513671875</ele>
        <time>2013-06-15T11:30:10Z</time>
      </trkpt>
      <trkpt lat="47.693012617528439" lon="11.516113439574838">
        <ele>786.495849609375</ele>
        <time>2013-06-15T11:30:21Z</time>
      </trkpt>
      <trkpt lat="47.69300582818687" lon="11.516110505908728">
        <ele>786.976318359375</ele>
        <time>2013-06-15T11:30:46Z</time>
      </trkpt>
      <trkpt lat="47.69300146959722" lon="11.516090556979179">
        <ele>786.01513671875</ele>
        <time>2013-06-15T11:30:58Z</time>
      </trkpt>
      <trkpt lat="47.693008929491043" lon="11.516097513958812">
        <ele>787.45703125</ele>
        <time>2013-06-15T11:31:30Z</time>
      </trkpt>
      <trkpt lat="47.69303172826767" lon="11.516109583899379">
        <ele>786.976318359375</ele>
        <time>2013-06-15T11:31:41Z</time>
      </trkpt>
      <trkpt lat="47.693027537316084" lon="11.516107488423586">
        <ele>786.976318359375</ele>
        <time>2013-06-15T11:31:50Z</time>
      </trkpt>
      <trkpt lat="47.693019825965166" lon="11.516109416261315">
        <ele>787.45703125</ele>
        <time>2013-06-15T11:32:00Z</time>
      </trkpt>
      <trkpt lat="47.693017814308405" lon="11.51611109264195">
        <ele>787.937744140625</ele>
        <time>2013-06-15T11:32:12Z</time>
      </trkpt>
      <trkpt lat="47.693018233403563" lon="11.516109583899379">
        <ele>787.45703125</ele>
        <time>2013-06-15T11:32:34Z</time>
      </trkpt>
      <trkpt lat="47.69301856867969" lon="11.516106314957142">
        <ele>787.45703125</ele>
        <time>2013-06-15T11:33:20Z</time>
      </trkpt>
      <trkpt lat="47.693013958632946" lon="11.516103716567159">
        <ele>787.45703125</ele>
        <time>2013-06-15T11:34:40Z</time>
      </trkpt>
      <trkpt lat="47.693011192604899" lon="11.516100950539112">
        <ele>787.937744140625</ele>
        <time>2013-06-15T11:35:05Z</time>
      </trkpt>
      <trkpt lat="47.693008594214916" lon="11.516101537272334">
        <ele>788.41845703125</ele>
        <time>2013-06-15T11:35:22Z</time>
      </trkpt>
      <trkpt lat="47.693005409091711" lon="11.516097849234939">
        <ele>787.45703125</ele>
        <time>2013-06-15T11:36:14Z</time>
      </trkpt>
      <trkpt lat="47.693005241453648" lon="11.516094664111733">
        <ele>787.937744140625</ele>
        <time>2013-06-15T11:37:04Z</time>
      </trkpt>
      <trkpt lat="47.693007420748472" lon="11.51609499938786">
        <ele>787.45703125</ele>
        <time>2013-06-15T11:37:15Z</time>
      </trkpt>
      <trkpt lat="47.692976491525769" lon="11.515981843695045">
        <ele>787.45703125</ele>
        <time>2013-06-15T11:37:29Z</time>
      </trkpt>
      <trkpt lat="47.692972216755152" lon="11.515978993847966">
        <ele>786.976318359375</ele>
        <time>2013-06-15T11:37:36Z</time>
      </trkpt>
      <trkpt lat="47.692909268662333" lon="11.515937335789204">
        <ele>788.41845703125</ele>
        <time>2013-06-15T11:37:45Z</time>
      </trkpt>
      <trkpt lat="47.692758897319436" lon="11.515751257538795">
        <ele>789.379638671875</ele>
        <time>2013-06-15T11:38:03Z</time>
      </trkpt>
      <trkpt lat="47.692738277837634" lon="11.515708509832621">
        <ele>789.379638671875</ele>
        <time>2013-06-15T11:38:12Z</time>
      </trkpt>
      <trkpt lat="47.692730398848653" lon="11.515684872865677">
        <ele>789.8603515625</ele>
        <time>2013-06-15T11:38:20Z</time>
      </trkpt>
      <trkpt lat="47.692735344171524" lon="11.515669450163841">
        <ele>789.379638671875</ele>
        <time>2013-06-15T11:38:26Z</time>
      </trkpt>
      <trkpt lat="47.692727046087384" lon="11.515672048553824">
        <ele>789.8603515625</ele>
        <time>2013-06-15T11:38:35Z</time>
      </trkpt>
      <trkpt lat="47.692726291716099" lon="11.515672551468015">
        <ele>789.8603515625</ele>
        <time>2013-06-15T11:38:49Z</time>
      </trkpt>
      <trkpt lat="47.692729057744145" lon="11.515681687742472">
        <ele>789.8603515625</ele>
        <time>2013-06-15T11:39:18Z</time>
      </trkpt>
      <trkpt lat="47.692732494324446" lon="11.515682525932789">
        <ele>789.8603515625</ele>
        <time>2013-06-15T11:39:34Z</time>
      </trkpt>
      <trkpt lat="47.692734254524112" lon="11.515680514276028">
        <ele>789.8603515625</ele>
        <time>2013-06-15T11:39:53Z</time>
      </trkpt>
      <trkpt lat="47.692733919247985" lon="11.515679340809584">
        <ele>789.8603515625</ele>
        <time>2013-06-15T11:40:19Z</time>
      </trkpt>
      <trkpt lat="47.692724028602242" lon="11.515659391880035">
        <ele>789.379638671875</ele>
        <time>2013-06-15T11:40:44Z</time>
      </trkpt>
      <trkpt lat="47.692723609507084" lon="11.515662241727114">
        <ele>788.899169921875</ele>
        <time>2013-06-15T11:40:55Z</time>
      </trkpt>
      <trkpt lat="47.69273710437119" lon="11.515683364123106">
        <ele>788.899169921875</ele>
        <time>2013-06-15T11:42:02Z</time>
      </trkpt>
      <trkpt lat="47.69269997254014" lon="11.515735667198896">
        <ele>789.8603515625</ele>
        <time>2013-06-15T11:42:10Z</time>
      </trkpt>
      <trkpt lat="47.69267750903964" lon="11.515626451000571">
        <ele>789.8603515625</ele>
        <time>2013-06-15T11:42:45Z</time>
      </trkpt>
      <trkpt lat="47.69267893396318" lon="11.515606921166182">
        <ele>789.8603515625</ele>
        <time>2013-06-15T11:43:19Z</time>
      </trkpt>
      <trkpt lat="47.692693015560508" lon="11.515701049938798">
        <ele>789.379638671875</ele>
        <time>2013-06-15T11:43:26Z</time>
      </trkpt>
      <trkpt lat="47.692703492939472" lon="11.515739941969514">
        <ele>789.8603515625</ele>
        <time>2013-06-15T11:43:50Z</time>
      </trkpt>
      <trkpt lat="47.692696116864681" lon="11.515748156234622">
        <ele>789.8603515625</ele>
        <time>2013-06-15T11:44:19Z</time>
      </trkpt>
      <trkpt lat="47.692699050530791" lon="11.515751425176859">
        <ele>790.341064453125</ele>
        <time>2013-06-15T11:44:42Z</time>
      </trkpt>
      <trkpt lat="47.692675413563848" lon="11.515737343579531">
        <ele>790.821533203125</ele>
        <time>2013-06-15T11:45:45Z</time>
      </trkpt>
      <trkpt lat="47.692653285339475" lon="11.515739941969514">
        <ele>790.821533203125</ele>
        <time>2013-06-15T11:45:56Z</time>
      </trkpt>
      <trkpt lat="47.69266770221293" lon="11.515721920877695">
        <ele>790.821533203125</ele>
        <time>2013-06-15T11:46:03Z</time>
      </trkpt>
      <trkpt lat="47.692687232047319" lon="11.515706246718764">
        <ele>790.341064453125</ele>
        <time>2013-06-15T11:46:16Z</time>
      </trkpt>
      <trkpt lat="47.692687483504415" lon="11.515708258375525">
        <ele>790.341064453125</ele>
        <time>2013-06-15T11:46:33Z</time>
      </trkpt>
      <trkpt lat="47.692684717476368" lon="11.51566106826067">
        <ele>791.30224609375</ele>
        <time>2013-06-15T11:51:32Z</time>
      </trkpt>
      <trkpt lat="47.692714389413595" lon="11.515680011361837">
        <ele>789.379638671875</ele>
        <time>2013-06-15T11:52:38Z</time>
      </trkpt>
      <trkpt lat="47.69274489954114" lon="11.515716472640634">
        <ele>789.8603515625</ele>
        <time>2013-06-15T11:52:52Z</time>
      </trkpt>
      <trkpt lat="47.692706258967519" lon="11.515735499560833">
        <ele>790.341064453125</ele>
        <time>2013-06-15T11:53:02Z</time>
      </trkpt>
      <trkpt lat="47.692718915641308" lon="11.515722088515759">
        <ele>790.821533203125</ele>
        <time>2013-06-15T11:53:22Z</time>
      </trkpt>
      <trkpt lat="47.692708941176534" lon="11.51571974158287">
        <ele>789.8603515625</ele>
        <time>2013-06-15T11:54:20Z</time>
      </trkpt>
      <trkpt lat="47.692543733865023" lon="11.515621338039637">
        <ele>790.341064453125</ele>
        <time>2013-06-15T11:54:30Z</time>
      </trkpt>
      <trkpt lat="47.692415239289403" lon="11.515415478497744">
        <ele>792.263671875</ele>
        <time>2013-06-15T11:54:38Z</time>
      </trkpt>
      <trkpt lat="47.692437451332808" lon="11.515276506543159">
        <ele>792.744384765625</ele>
        <time>2013-06-15T11:54:44Z</time>
      </trkpt>
      <trkpt lat="47.692427141591907" lon="11.515195118263364">
        <ele>793.224853515625</ele>
        <time>2013-06-15T11:54:51Z</time>
      </trkpt>
      <trkpt lat="47.692418759688735" lon="11.515159998089075">
        <ele>792.744384765625</ele>
        <time>2013-06-15T11:54:58Z</time>
      </trkpt>
      <trkpt lat="47.692402666434646" lon="11.514981295913458">
        <ele>792.744384765625</ele>
        <time>2013-06-15T11:55:06Z</time>
      </trkpt>
      <trkpt lat="47.692391099408269" lon="11.51493301615119">
        <ele>793.224853515625</ele>
        <time>2013-06-15T11:55:08Z</time>
      </trkpt>
      <trkpt lat="47.692391183227301" lon="11.514896051958203">
        <ele>793.70556640625</ele>
        <time>2013-06-15T11:55:16Z</time>
      </trkpt>
      <trkpt lat="47.692402666434646" lon="11.514842575415969">
        <ele>793.224853515625</ele>
        <time>2013-06-15T11:55:34Z</time>
      </trkpt>
      <trkpt lat="47.692403588443995" lon="11.514835618436337">
        <ele>793.70556640625</ele>
        <time>2013-06-15T11:55:37Z</time>
      </trkpt>
      <trkpt lat="47.692376179620624" lon="11.51477619074285">
        <ele>793.70556640625</ele>
        <time>2013-06-15T11:55:42Z</time>
      </trkpt>
      <trkpt lat="47.692294623702765" lon="11.514669489115477">
        <ele>794.186279296875</ele>
        <time>2013-06-15T11:55:48Z</time>
      </trkpt>
      <trkpt lat="47.692295294255018" lon="11.514534875750542">
        <ele>795.628173828125</ele>
        <time>2013-06-15T11:55:53Z</time>
      </trkpt>
      <trkpt lat="47.692389087751508" lon="11.514228768646717">
        <ele>797.0703125</ele>
        <time>2013-06-15T11:56:01Z</time>
      </trkpt>
      <trkpt lat="47.692381124943495" lon="11.51400220580399">
        <ele>799.4736328125</ele>
        <time>2013-06-15T11:56:09Z</time>
      </trkpt>
      <trkpt lat="47.692331587895751" lon="11.513901622965932">
        <ele>800.91552734375</ele>
        <time>2013-06-15T11:56:15Z</time>
      </trkpt>
      <trkpt lat="47.692322032526135" lon="11.513766506686807">
        <ele>802.357421875</ele>
        <time>2013-06-15T11:56:22Z</time>
      </trkpt>
      <trkpt lat="47.692319015040994" lon="11.513638347387314">
        <ele>803.799560546875</ele>
        <time>2013-06-15T11:56:27Z</time>
      </trkpt>
      <trkpt lat="47.692299485206604" lon="11.513409856706858">
        <ele>806.683349609375</ele>
        <time>2013-06-15T11:56:39Z</time>
      </trkpt>
      <trkpt lat="47.692453460767865" lon="11.513100145384669">
        <ele>808.12548828125</ele>
        <time>2013-06-15T11:56:46Z</time>
      </trkpt>
      <trkpt lat="47.692396966740489" lon="11.512896297499537">
        <ele>811.489990234375</ele>
        <time>2013-06-15T11:56:58Z</time>
      </trkpt>
      <trkpt lat="47.692370060831308" lon="11.512770904228091">
        <ele>812.451416015625</ele>
        <time>2013-06-15T11:57:05Z</time>
      </trkpt>
      <trkpt lat="47.692308621481061" lon="11.512571163475513">
        <ele>814.854736328125</ele>
        <time>2013-06-15T11:57:15Z</time>
      </trkpt>
      <trkpt lat="47.692281547933817" lon="11.512420708313584">
        <ele>816.77734375</ele>
        <time>2013-06-15T11:57:24Z</time>
      </trkpt>
      <trkpt lat="47.692258330062032" lon="11.512279808521271">
        <ele>818.699951171875</ele>
        <time>2013-06-15T11:57:34Z</time>
      </trkpt>
      <trkpt lat="47.692268639802933" lon="11.512084593996406">
        <ele>821.583740234375</ele>
        <time>2013-06-15T11:57:45Z</time>
      </trkpt>
      <trkpt lat="47.692280542105436" lon="11.511935228481889">
        <ele>822.064453125</ele>
        <time>2013-06-15T11:57:52Z</time>
      </trkpt>
      <trkpt lat="47.692251456901431" lon="11.511816456913948">
        <ele>823.987060546875</ele>
        <time>2013-06-15T11:58:03Z</time>
      </trkpt>
      <trkpt lat="47.692214660346508" lon="11.511662313714623">
        <ele>826.390380859375</ele>
        <time>2013-06-15T11:58:15Z</time>
      </trkpt>
      <trkpt lat="47.692210469394922" lon="11.51150724850595">
        <ele>828.313232421875</ele>
        <time>2013-06-15T11:58:26Z</time>
      </trkpt>
      <trkpt lat="47.692187251523137" lon="11.511309016495943">
        <ele>830.716552734375</ele>
        <time>2013-06-15T11:58:39Z</time>
      </trkpt>
      <trkpt lat="47.692159255966544" lon="11.511196782812476">
        <ele>832.158447265625</ele>
        <time>2013-06-15T11:58:47Z</time>
      </trkpt>
      <trkpt lat="47.692130841314793" lon="11.511155124753714">
        <ele>833.11962890625</ele>
        <time>2013-06-15T11:58:51Z</time>
      </trkpt>
      <trkpt lat="47.692006034776568" lon="11.51108019053936">
        <ele>835.04248046875</ele>
        <time>2013-06-15T11:59:02Z</time>
      </trkpt>
      <trkpt lat="47.69190838560462" lon="11.510972483083606">
        <ele>836.484375</ele>
        <time>2013-06-15T11:59:13Z</time>
      </trkpt>
      <trkpt lat="47.691870499402285" lon="11.510819680988789">
        <ele>837.92626953125</ele>
        <time>2013-06-15T11:59:21Z</time>
      </trkpt>
      <trkpt lat="47.69191475585103" lon="11.510706357657909">
        <ele>839.3681640625</ele>
        <time>2013-06-15T11:59:31Z</time>
      </trkpt>
      <trkpt lat="47.691984074190259" lon="11.510633938014507">
        <ele>841.290771484375</ele>
        <time>2013-06-15T11:59:41Z</time>
      </trkpt>
      <trkpt lat="47.692087087780237" lon="11.510482812300324">
        <ele>842.73291015625</ele>
        <time>2013-06-15T11:59:54Z</time>
      </trkpt>
      <trkpt lat="47.692169733345509" lon="11.5102026052773">
        <ele>845.616943359375</ele>
        <time>2013-06-15T12:00:10Z</time>
      </trkpt>
      <trkpt lat="47.692244667559862" lon="11.51001401245594">
        <ele>847.53955078125</ele>
        <time>2013-06-15T12:00:22Z</time>
      </trkpt>
      <trkpt lat="47.692298982292414" lon="11.509882248938084">
        <ele>849.462158203125</ele>
        <time>2013-06-15T12:00:31Z</time>
      </trkpt>
      <trkpt lat="47.69234667532146" lon="11.509727938100696">
        <ele>850.423583984375</ele>
        <time>2013-06-15T12:00:40Z</time>
      </trkpt>
      <trkpt lat="47.692345334216952" lon="11.509616961702704">
        <ele>853.307373046875</ele>
        <time>2013-06-15T12:00:48Z</time>
      </trkpt>
      <trkpt lat="47.692320859059691" lon="11.509582931175828">
        <ele>852.82666015625</ele>
        <time>2013-06-15T12:00:51Z</time>
      </trkpt>
      <trkpt lat="47.692278530448675" lon="11.509437002241611">
        <ele>854.749267578125</ele>
        <time>2013-06-15T12:01:00Z</time>
      </trkpt>
      <trkpt lat="47.692310465499759" lon="11.509294845163822">
        <ele>855.710693359375</ele>
        <time>2013-06-15T12:01:06Z</time>
      </trkpt>
      <trkpt lat="47.692323792725801" lon="11.509210020303726">
        <ele>856.191162109375</ele>
        <time>2013-06-15T12:01:10Z</time>
      </trkpt>
      <trkpt lat="47.692334689199924" lon="11.509095523506403">
        <ele>857.63330078125</ele>
        <time>2013-06-15T12:01:15Z</time>
      </trkpt>
      <trkpt lat="47.692340388894081" lon="11.50904799811542">
        <ele>857.63330078125</ele>
        <time>2013-06-15T12:01:17Z</time>
      </trkpt>
      <trkpt lat="47.692357236519456" lon="11.508942469954491">
        <ele>858.114013671875</ele>
        <time>2013-06-15T12:01:21Z</time>
      </trkpt>
      <trkpt lat="47.692319601774216" lon="11.508844401687384">
        <ele>859.0751953125</ele>
        <time>2013-06-15T12:01:27Z</time>
      </trkpt>
      <trkpt lat="47.692301999777555" lon="11.508820094168186">
        <ele>859.0751953125</ele>
        <time>2013-06-15T12:01:29Z</time>
      </trkpt>
      <trkpt lat="47.692246343940496" lon="11.508613731712103">
        <ele>860.998046875</ele>
        <time>2013-06-15T12:01:41Z</time>
      </trkpt>
      <trkpt lat="47.692197393625975" lon="11.508558997884393">
        <ele>861.95947265625</ele>
        <time>2013-06-15T12:01:46Z</time>
      </trkpt>
      <trkpt lat="47.692150371149182" lon="11.508482387289405">
        <ele>862.920654296875</ele>
        <time>2013-06-15T12:01:52Z</time>
      </trkpt>
      <trkpt lat="47.692044842988253" lon="11.508464785292745">
        <ele>864.84326171875</ele>
        <time>2013-06-15T12:02:00Z</time>
      </trkpt>
      <trkpt lat="47.691972339525819" lon="11.508471993729472">
        <ele>865.323974609375</ele>
        <time>2013-06-15T12:02:06Z</time>
      </trkpt>
      <trkpt lat="47.691925903782248" lon="11.508491355925798">
        <ele>865.8046875</ele>
        <time>2013-06-15T12:02:09Z</time>
      </trkpt>
      <trkpt lat="47.691827332600951" lon="11.508568050339818">
        <ele>867.72705078125</ele>
        <time>2013-06-15T12:02:17Z</time>
      </trkpt>
      <trkpt lat="47.691694647073746" lon="11.508622784167528">
        <ele>868.6884765625</ele>
        <time>2013-06-15T12:02:27Z</time>
      </trkpt>
      <trkpt lat="47.691585011780262" lon="11.50870400480926">
        <ele>870.13037109375</ele>
        <time>2013-06-15T12:02:34Z</time>
      </trkpt>
      <trkpt lat="47.691473783925176" lon="11.508656898513436">
        <ele>871.091796875</ele>
        <time>2013-06-15T12:02:42Z</time>
      </trkpt>
      <trkpt lat="47.691388707607985" lon="11.508580707013607">
        <ele>872.052978515625</ele>
        <time>2013-06-15T12:02:50Z</time>
      </trkpt>
      <trkpt lat="47.69126582890749" lon="11.508492697030306">
        <ele>875.898193359375</ele>
        <time>2013-06-15T12:03:03Z</time>
      </trkpt>
      <trkpt lat="47.691224757581949" lon="11.50845623575151">
        <ele>875.41748046875</ele>
        <time>2013-06-15T12:03:06Z</time>
      </trkpt>
      <trkpt lat="47.691148482263088" lon="11.508399909362197">
        <ele>876.85986328125</ele>
        <time>2013-06-15T12:03:13Z</time>
      </trkpt>
      <trkpt lat="47.691124426200986" lon="11.50838783942163">
        <ele>877.821044921875</ele>
        <time>2013-06-15T12:03:15Z</time>
      </trkpt>
      <trkpt lat="47.691029878333211" lon="11.508345426991582">
        <ele>877.821044921875</ele>
        <time>2013-06-15T12:03:22Z</time>
      </trkpt>
      <trkpt lat="47.690984448418021" lon="11.508293794468045">
        <ele>878.782470703125</ele>
        <time>2013-06-15T12:03:26Z</time>
      </trkpt>
      <trkpt lat="47.690873052924871" lon="11.508177118375897">
        <ele>880.224365234375</ele>
        <time>2013-06-15T12:03:34Z</time>
      </trkpt>
      <trkpt lat="47.690763920545578" lon="11.508172424510121">
        <ele>881.666259765625</ele>
        <time>2013-06-15T12:03:43Z</time>
      </trkpt>
      <trkpt lat="47.690774397924542" lon="11.508311396464705">
        <ele>883.5888671875</ele>
        <time>2013-06-15T12:03:52Z</time>
      </trkpt>
      <trkpt lat="47.690784288570285" lon="11.508350539952517">
        <ele>884.55029296875</ele>
        <time>2013-06-15T12:03:54Z</time>
      </trkpt>
      <trkpt lat="47.69082753919065" lon="11.508445171639323">
        <ele>885.031005859375</ele>
        <time>2013-06-15T12:04:01Z</time>
      </trkpt>
      <trkpt lat="47.690849332138896" lon="11.508481297641993">
        <ele>885.511474609375</ele>
        <time>2013-06-15T12:04:04Z</time>
      </trkpt>
      <trkpt lat="47.690904317423701" lon="11.508594369515777">
        <ele>886.953369140625</ele>
        <time>2013-06-15T12:04:12Z</time>
      </trkpt>
      <trkpt lat="47.690926780924201" lon="11.508675673976541">
        <ele>888.3955078125</ele>
        <time>2013-06-15T12:04:18Z</time>
      </trkpt>
      <trkpt lat="47.690980592742562" lon="11.508809616789222">
        <ele>890.318115234375</ele>
        <time>2013-06-15T12:04:29Z</time>
      </trkpt>
      <trkpt lat="47.690992830321193" lon="11.508817160502076">
        <ele>890.318115234375</ele>
        <time>2013-06-15T12:04:30Z</time>
      </trkpt>
      <trkpt lat="47.691083773970604" lon="11.5088901668787">
        <ele>892.240966796875</ele>
        <time>2013-06-15T12:04:40Z</time>
      </trkpt>
      <trkpt lat="47.691109338775277" lon="11.508974572643638">
        <ele>894.16357421875</ele>
        <time>2013-06-15T12:04:49Z</time>
      </trkpt>
      <trkpt lat="47.691045384854078" lon="11.509087476879358">
        <ele>894.64404296875</ele>
        <time>2013-06-15T12:04:57Z</time>
      </trkpt>
      <trkpt lat="47.690997859463096" lon="11.509167524054646">
        <ele>894.64404296875</ele>
        <time>2013-06-15T12:05:08Z</time>
      </trkpt>
      <trkpt lat="47.690992243587971" lon="11.509175235405564">
        <ele>894.64404296875</ele>
        <time>2013-06-15T12:05:09Z</time>
      </trkpt>
      <trkpt lat="47.690911777317524" lon="11.509196776896715">
        <ele>895.124755859375</ele>
        <time>2013-06-15T12:05:14Z</time>
      </trkpt>
      <trkpt lat="47.6908387709409" lon="11.509188646450639">
        <ele>895.124755859375</ele>
        <time>2013-06-15T12:05:20Z</time>
      </trkpt>
      <trkpt lat="47.690820917487144" lon="11.509157717227936">
        <ele>895.124755859375</ele>
        <time>2013-06-15T12:05:23Z</time>
      </trkpt>
      <trkpt lat="47.690768195316195" lon="11.509076161310077">
        <ele>894.64404296875</ele>
        <time>2013-06-15T12:05:27Z</time>
      </trkpt>
      <trkpt lat="47.690663672983646" lon="11.508811544626951">
        <ele>895.124755859375</ele>
        <time>2013-06-15T12:05:35Z</time>
      </trkpt>
      <trkpt lat="47.690562084317207" lon="11.508653881028295">
        <ele>896.56689453125</ele>
        <time>2013-06-15T12:05:43Z</time>
      </trkpt>
      <trkpt lat="47.690480528399348" lon="11.508501917123795">
        <ele>897.528076171875</ele>
        <time>2013-06-15T12:05:51Z</time>
      </trkpt>
      <trkpt lat="47.690409701317549" lon="11.508418433368206">
        <ele>898.969970703125</ele>
        <time>2013-06-15T12:05:58Z</time>
      </trkpt>
      <trkpt lat="47.690391764044762" lon="11.508389599621296">
        <ele>898.969970703125</ele>
        <time>2013-06-15T12:06:00Z</time>
      </trkpt>
      <trkpt lat="47.690372904762626" lon="11.508364789187908">
        <ele>900.412109375</ele>
        <time>2013-06-15T12:06:02Z</time>
      </trkpt>
      <trkpt lat="47.690340299159288" lon="11.508306032046676">
        <ele>901.373291015625</ele>
        <time>2013-06-15T12:06:06Z</time>
      </trkpt>
      <trkpt lat="47.690310291945934" lon="11.508261356502771">
        <ele>901.85400390625</ele>
        <time>2013-06-15T12:06:09Z</time>
      </trkpt>
      <trkpt lat="47.690207194536924" lon="11.508280886337161">
        <ele>904.25732421875</ele>
        <time>2013-06-15T12:06:17Z</time>
      </trkpt>
      <trkpt lat="47.690184814855456" lon="11.508386498317122">
        <ele>906.1796875</ele>
        <time>2013-06-15T12:06:24Z</time>
      </trkpt>
      <trkpt lat="47.690162435173988" lon="11.508458415046334">
        <ele>906.1796875</ele>
        <time>2013-06-15T12:06:31Z</time>
      </trkpt>
      <trkpt lat="47.690243655815721" lon="11.508494121953845">
        <ele>908.583251953125</ele>
        <time>2013-06-15T12:06:42Z</time>
      </trkpt>
      <trkpt lat="47.690267879515886" lon="11.508646085858345">
        <ele>910.505859375</ele>
        <time>2013-06-15T12:06:55Z</time>
      </trkpt>
      <trkpt lat="47.690233178436756" lon="11.508789667859674">
        <ele>911.947998046875</ele>
        <time>2013-06-15T12:07:06Z</time>
      </trkpt>
      <trkpt lat="47.690272908657789" lon="11.508845491334796">
        <ele>912.428466796875</ele>
        <time>2013-06-15T12:07:16Z</time>
      </trkpt>
      <trkpt lat="47.690257905051112" lon="11.508943475782871">
        <ele>913.389892578125</ele>
        <time>2013-06-15T12:07:22Z</time>
      </trkpt>
      <trkpt lat="47.690239632502198" lon="11.50903089903295">
        <ele>914.831787109375</ele>
        <time>2013-06-15T12:07:29Z</time>
      </trkpt>
      <trkpt lat="47.690148521214724" lon="11.509176241233945">
        <ele>917.235107421875</ele>
        <time>2013-06-15T12:07:41Z</time>
      </trkpt>
      <trkpt lat="47.690034108236432" lon="11.509192921221256">
        <ele>918.1962890625</ele>
        <time>2013-06-15T12:07:50Z</time>
      </trkpt>
      <trkpt lat="47.689968813210726" lon="11.509103737771511">
        <ele>920.118896484375</ele>
        <time>2013-06-15T12:07:57Z</time>
      </trkpt>
      <trkpt lat="47.689898824319243" lon="11.508983206003904">
        <ele>920.118896484375</ele>
        <time>2013-06-15T12:08:06Z</time>
      </trkpt>
      <trkpt lat="47.689890023320913" lon="11.508864602074027">
        <ele>921.560791015625</ele>
        <time>2013-06-15T12:08:13Z</time>
      </trkpt>
      <trkpt lat="47.689868146553636" lon="11.508753709495068">
        <ele>922.04150390625</ele>
        <time>2013-06-15T12:08:21Z</time>
      </trkpt>
      <trkpt lat="47.689860938116908" lon="11.508750356733799">
        <ele>922.04150390625</ele>
        <time>2013-06-15T12:08:41Z</time>
      </trkpt>
      <trkpt lat="47.689806455746293" lon="11.508667962625623">
        <ele>922.04150390625</ele>
        <time>2013-06-15T12:08:47Z</time>
      </trkpt>
      <trkpt lat="47.689595064148307" lon="11.508667711168528">
        <ele>923.483642578125</ele>
        <time>2013-06-15T12:08:57Z</time>
      </trkpt>
      <trkpt lat="47.68951166421175" lon="11.50867810472846">
        <ele>923.964111328125</ele>
        <time>2013-06-15T12:09:01Z</time>
      </trkpt>
      <trkpt lat="47.689468078315258" lon="11.508675087243319">
        <ele>925.40625</ele>
        <time>2013-06-15T12:09:04Z</time>
      </trkpt>
      <trkpt lat="47.689354503527284" lon="11.508672321215272">
        <ele>926.36767578125</ele>
        <time>2013-06-15T12:09:12Z</time>
      </trkpt>
      <trkpt lat="47.689180998131633" lon="11.508808359503746">
        <ele>927.3291015625</ele>
        <time>2013-06-15T12:09:21Z</time>
      </trkpt>
      <trkpt lat="47.688974216580391" lon="11.508998880162835">
        <ele>928.290283203125</ele>
        <time>2013-06-15T12:09:31Z</time>
      </trkpt>
      <trkpt lat="47.688740612939" lon="11.509130308404565">
        <ele>928.290283203125</ele>
        <time>2013-06-15T12:09:41Z</time>
      </trkpt>
      <trkpt lat="47.688664589077234" lon="11.50915302336216">
        <ele>928.290283203125</ele>
        <time>2013-06-15T12:09:44Z</time>
      </trkpt>
      <trkpt lat="47.688551098108292" lon="11.509210607036948">
        <ele>929.25146484375</ele>
        <time>2013-06-15T12:09:49Z</time>
      </trkpt>
      <trkpt lat="47.688534585759044" lon="11.509224018082023">
        <ele>929.25146484375</ele>
        <time>2013-06-15T12:09:50Z</time>
      </trkpt>
      <trkpt lat="47.688428051769733" lon="11.509367013350129">
        <ele>930.212890625</ele>
        <time>2013-06-15T12:09:57Z</time>
      </trkpt>
      <trkpt lat="47.688281452283263" lon="11.509482180699706">
        <ele>931.65478515625</ele>
        <time>2013-06-15T12:10:05Z</time>
      </trkpt>
      <trkpt lat="47.688182713463902" lon="11.509535573422909">
        <ele>932.6162109375</ele>
        <time>2013-06-15T12:10:10Z</time>
      </trkpt>
      <trkpt lat="47.688058996573091" lon="11.509660799056292">
        <ele>932.135498046875</ele>
        <time>2013-06-15T12:10:16Z</time>
      </trkpt>
      <trkpt lat="47.687983894720674" lon="11.509739505127072">
        <ele>933.0966796875</ele>
        <time>2013-06-15T12:10:20Z</time>
      </trkpt>
      <trkpt lat="47.687902254983783" lon="11.509791724383831">
        <ele>934.538818359375</ele>
        <time>2013-06-15T12:10:27Z</time>
      </trkpt>
      <trkpt lat="47.687729252502322" lon="11.510024992749095">
        <ele>936.46142578125</ele>
        <time>2013-06-15T12:10:40Z</time>
      </trkpt>
      <trkpt lat="47.687542671337724" lon="11.510119289159775">
        <ele>937.9033203125</ele>
        <time>2013-06-15T12:10:49Z</time>
      </trkpt>
      <trkpt lat="47.68747846595943" lon="11.510266307741404">
        <ele>938.86474609375</ele>
        <time>2013-06-15T12:10:57Z</time>
      </trkpt>
      <trkpt lat="47.687438149005175" lon="11.510405447334051">
        <ele>940.306884765625</ele>
        <time>2013-06-15T12:11:05Z</time>
      </trkpt>
      <trkpt lat="47.68736413680017" lon="11.510586999356747">
        <ele>941.26806640625</ele>
        <time>2013-06-15T12:11:13Z</time>
      </trkpt>
      <trkpt lat="47.687308313325047" lon="11.510702166706324">
        <ele>941.748779296875</ele>
        <time>2013-06-15T12:11:18Z</time>
      </trkpt>
      <trkpt lat="47.687292555347085" lon="11.510751703754067">
        <ele>942.2294921875</ele>
        <time>2013-06-15T12:11:20Z</time>
      </trkpt>
      <trkpt lat="47.687260201200843" lon="11.510864021256566">
        <ele>943.190673828125</ele>
        <time>2013-06-15T12:11:26Z</time>
      </trkpt>
      <trkpt lat="47.687256932258606" lon="11.510896878316998">
        <ele>942.710205078125</ele>
        <time>2013-06-15T12:11:28Z</time>
      </trkpt>
      <trkpt lat="47.687215358018875" lon="11.511080609634519">
        <ele>943.67138671875</ele>
        <time>2013-06-15T12:11:36Z</time>
      </trkpt>
      <trkpt lat="47.687167581170797" lon="11.511336006224155">
        <ele>943.190673828125</ele>
        <time>2013-06-15T12:11:43Z</time>
      </trkpt>
      <trkpt lat="47.687096083536744" lon="11.511641778051853">
        <ele>943.190673828125</ele>
        <time>2013-06-15T12:11:50Z</time>
      </trkpt>
      <trkpt lat="47.687067165970802" lon="11.51180530898273">
        <ele>944.152099609375</ele>
        <time>2013-06-15T12:11:55Z</time>
      </trkpt>
      <trkpt lat="47.687041768804193" lon="11.512010917067528">
        <ele>943.190673828125</ele>
        <time>2013-06-15T12:12:01Z</time>
      </trkpt>
      <trkpt lat="47.686969600617886" lon="11.512200683355331">
        <ele>943.67138671875</ele>
        <time>2013-06-15T12:12:07Z</time>
      </trkpt>
      <trkpt lat="47.686937917023897" lon="11.512251393869519">
        <ele>943.67138671875</ele>
        <time>2013-06-15T12:12:09Z</time>
      </trkpt>
      <trkpt lat="47.686738343909383" lon="11.512337727472186">
        <ele>944.632568359375</ele>
        <time>2013-06-15T12:12:17Z</time>
      </trkpt>
      <trkpt lat="47.686292259022593" lon="11.512396316975355">
        <ele>945.593994140625</ele>
        <time>2013-06-15T12:12:28Z</time>
      </trkpt>
      <trkpt lat="47.685938458889723" lon="11.512299170717597">
        <ele>948.95849609375</ele>
        <time>2013-06-15T12:12:42Z</time>
      </trkpt>
      <trkpt lat="47.685851119458675" lon="11.512262038886547">
        <ele>950.400634765625</ele>
        <time>2013-06-15T12:12:46Z</time>
      </trkpt>
      <trkpt lat="47.685608463361859" lon="11.512073362246156">
        <ele>949.919921875</ele>
        <time>2013-06-15T12:12:57Z</time>
      </trkpt>
      <trkpt lat="47.685236809775233" lon="11.511729871854186">
        <ele>949.439208984375</ele>
        <time>2013-06-15T12:13:09Z</time>
      </trkpt>
      <trkpt lat="47.684861803427339" lon="11.51137875393033">
        <ele>951.36181640625</ele>
        <time>2013-06-15T12:13:22Z</time>
      </trkpt>
      <trkpt lat="47.684610933065414" lon="11.511130146682262">
        <ele>952.322998046875</ele>
        <time>2013-06-15T12:13:32Z</time>
      </trkpt>
      <trkpt lat="47.684468859806657" lon="11.5109848883003">
        <ele>953.76513671875</ele>
        <time>2013-06-15T12:13:41Z</time>
      </trkpt>
      <trkpt lat="47.684302143752575" lon="11.510865362361073">
        <ele>955.687744140625</ele>
        <time>2013-06-15T12:13:51Z</time>
      </trkpt>
      <trkpt lat="47.684126710519195" lon="11.51070786640048">
        <ele>958.57177734375</ele>
        <time>2013-06-15T12:14:02Z</time>
      </trkpt>
      <trkpt lat="47.683928394690156" lon="11.51055539958179">
        <ele>961.9365234375</ele>
        <time>2013-06-15T12:14:15Z</time>
      </trkpt>
      <trkpt lat="47.683760924264789" lon="11.510466635227203">
        <ele>964.8203125</ele>
        <time>2013-06-15T12:14:26Z</time>
      </trkpt>
      <trkpt lat="47.68358314409852" lon="11.510397819802165">
        <ele>966.26220703125</ele>
        <time>2013-06-15T12:14:37Z</time>
      </trkpt>
      <trkpt lat="47.683389186859131" lon="11.510230433195829">
        <ele>966.742919921875</ele>
        <time>2013-06-15T12:14:49Z</time>
      </trkpt>
      <trkpt lat="47.683152565732598" lon="11.509900186210871">
        <ele>967.7041015625</ele>
        <time>2013-06-15T12:15:02Z</time>
      </trkpt>
      <trkpt lat="47.683034548535943" lon="11.509619811549783">
        <ele>970.107421875</ele>
        <time>2013-06-15T12:15:12Z</time>
      </trkpt>
      <trkpt lat="47.682922147214413" lon="11.509390817955136">
        <ele>972.0302734375</ele>
        <time>2013-06-15T12:15:22Z</time>
      </trkpt>
      <trkpt lat="47.682732883840799" lon="11.509280763566494">
        <ele>972.99169921875</ele>
        <time>2013-06-15T12:15:32Z</time>
      </trkpt>
      <trkpt lat="47.682496095076203" lon="11.509334240108728">
        <ele>975.394775390625</ele>
        <time>2013-06-15T12:15:44Z</time>
      </trkpt>
      <trkpt lat="47.682243715971708" lon="11.509397020563483">
        <ele>978.27880859375</ele>
        <time>2013-06-15T12:15:57Z</time>
      </trkpt>
      <trkpt lat="47.682016398757696" lon="11.509394505992532">
        <ele>979.720703125</ele>
        <time>2013-06-15T12:16:09Z</time>
      </trkpt>
      <trkpt lat="47.681789835914969" lon="11.509279841557145">
        <ele>981.162841796875</ele>
        <time>2013-06-15T12:16:21Z</time>
      </trkpt>
      <trkpt lat="47.681609960272908" lon="11.509145395830274">
        <ele>982.1240234375</ele>
        <time>2013-06-15T12:16:31Z</time>
      </trkpt>
      <trkpt lat="47.681338302791119" lon="11.508956635370851">
        <ele>984.046630859375</ele>
        <time>2013-06-15T12:16:46Z</time>
      </trkpt>
      <trkpt lat="47.68112238496542" lon="11.508850855752826">
        <ele>986.449951171875</ele>
        <time>2013-06-15T12:16:58Z</time>
      </trkpt>
      <trkpt lat="47.680966481566429" lon="11.508773658424616">
        <ele>989.333984375</ele>
        <time>2013-06-15T12:17:08Z</time>
      </trkpt>
      <trkpt lat="47.680823402479291" lon="11.508672740310431">
        <ele>991.256591796875</ele>
        <time>2013-06-15T12:17:18Z</time>
      </trkpt>
      <trkpt lat="47.680716700851917" lon="11.508533013984561">
        <ele>993.17919921875</ele>
        <time>2013-06-15T12:17:28Z</time>
      </trkpt>
      <trkpt lat="47.680692477151752" lon="11.508446680381894">
        <ele>993.659912109375</ele>
        <time>2013-06-15T12:17:37Z</time>
      </trkpt>
      <trkpt lat="47.680607903748751" lon="11.508284155279398">
        <ele>994.62109375</ele>
        <time>2013-06-15T12:17:44Z</time>
      </trkpt>
      <trkpt lat="47.680550906807184" lon="11.508184997364879">
        <ele>995.101806640625</ele>
        <time>2013-06-15T12:17:50Z</time>
      </trkpt>
      <trkpt lat="47.680545290932059" lon="11.508159348741174">
        <ele>995.101806640625</ele>
        <time>2013-06-15T12:17:52Z</time>
      </trkpt>
      <trkpt lat="47.680511428043246" lon="11.508104614913464">
        <ele>994.62109375</ele>
        <time>2013-06-15T12:17:56Z</time>
      </trkpt>
      <trkpt lat="47.680417550727725" lon="11.508062202483416">
        <ele>994.62109375</ele>
        <time>2013-06-15T12:18:00Z</time>
      </trkpt>
      <trkpt lat="47.680156789720058" lon="11.507917195558548">
        <ele>995.101806640625</ele>
        <time>2013-06-15T12:18:08Z</time>
      </trkpt>
      <trkpt lat="47.680086884647608" lon="11.507793394848704">
        <ele>994.62109375</ele>
        <time>2013-06-15T12:18:13Z</time>
      </trkpt>
      <trkpt lat="47.68007674254477" lon="11.507778642699122">
        <ele>995.101806640625</ele>
        <time>2013-06-15T12:18:19Z</time>
      </trkpt>
      <trkpt lat="47.680082526057959" lon="11.507793311029673">
        <ele>995.101806640625</ele>
        <time>2013-06-15T12:18:26Z</time>
      </trkpt>
      <trkpt lat="47.680128375068307" lon="11.507830275222659">
        <ele>996.063232421875</ele>
        <time>2013-06-15T12:18:37Z</time>
      </trkpt>
      <trkpt lat="47.680150251835585" lon="11.507796663790941">
        <ele>996.063232421875</ele>
        <time>2013-06-15T12:18:41Z</time>
      </trkpt>
      <trkpt lat="47.680272962898016" lon="11.507538333535194">
        <ele>996.5439453125</ele>
        <time>2013-06-15T12:18:58Z</time>
      </trkpt>
      <trkpt lat="47.680386789143085" lon="11.507291989400983">
        <ele>996.063232421875</ele>
        <time>2013-06-15T12:19:15Z</time>
      </trkpt>
      <trkpt lat="47.680174307897687" lon="11.507922727614641">
        <ele>996.5439453125</ele>
        <time>2013-06-15T12:19:37Z</time>
      </trkpt>
      <trkpt lat="47.680057212710381" lon="11.507960446178913">
        <ele>996.063232421875</ele>
        <time>2013-06-15T12:19:46Z</time>
      </trkpt>
      <trkpt lat="47.679989654570818" lon="11.507964720949531">
        <ele>996.5439453125</ele>
        <time>2013-06-15T12:19:58Z</time>
      </trkpt>
      <trkpt lat="47.679821848869324" lon="11.508093718439341">
        <ele>996.5439453125</ele>
        <time>2013-06-15T12:20:36Z</time>
      </trkpt>
      <trkpt lat="47.679852526634932" lon="11.508139232173562">
        <ele>999.427734375</ele>
        <time>2013-06-15T12:30:23Z</time>
      </trkpt>
      <trkpt lat="47.67986367456615" lon="11.508130179718137">
        <ele>1002.792236328125</ele>
        <time>2013-06-15T12:36:38Z</time>
      </trkpt>
      <trkpt lat="47.679884545505047" lon="11.508111236616969">
        <ele>1005.19580078125</ele>
        <time>2013-06-15T12:42:27Z</time>
      </trkpt>
      <trkpt lat="47.679816987365484" lon="11.508376523852348">
        <ele>1005.676513671875</ele>
        <time>2013-06-15T12:47:07Z</time>
      </trkpt>
      <trkpt lat="47.679853951558471" lon="11.508467383682728">
        <ele>1005.19580078125</ele>
        <time>2013-06-15T12:47:18Z</time>
      </trkpt>
      <trkpt lat="47.679843222722411" lon="11.508392449468374">
        <ele>1005.676513671875</ele>
        <time>2013-06-15T12:47:33Z</time>
      </trkpt>
      <trkpt lat="47.67979335039854" lon="11.508413404226303">
        <ele>1005.676513671875</ele>
        <time>2013-06-15T12:47:59Z</time>
      </trkpt>
      <trkpt lat="47.679908769205213" lon="11.508238390088081">
        <ele>1006.156982421875</ele>
        <time>2013-06-15T12:48:24Z</time>
      </trkpt>
      <trkpt lat="47.679956881329417" lon="11.50807905010879">
        <ele>1006.156982421875</ele>
        <time>2013-06-15T12:48:49Z</time>
      </trkpt>
      <trkpt lat="47.679941458627582" lon="11.508013922721148">
        <ele>1006.6376953125</ele>
        <time>2013-06-15T12:49:07Z</time>
      </trkpt>
      <trkpt lat="47.679872056469321" lon="11.508060609921813">
        <ele>1007.118408203125</ele>
        <time>2013-06-15T12:49:35Z</time>
      </trkpt>
      <trkpt lat="47.679835762828588" lon="11.508193546906114">
        <ele>1006.156982421875</ele>
        <time>2013-06-15T12:49:53Z</time>
      </trkpt>
      <trkpt lat="47.679834170266986" lon="11.508195223286748">
        <ele>1007.118408203125</ele>
        <time>2013-06-15T12:49:55Z</time>
      </trkpt>
      <trkpt lat="47.679759236052632" lon="11.508181896060705">
        <ele>1006.6376953125</ele>
        <time>2013-06-15T12:50:15Z</time>
      </trkpt>
      <trkpt lat="47.679699808359146" lon="11.508120037615299">
        <ele>1007.118408203125</ele>
        <time>2013-06-15T12:50:44Z</time>
      </trkpt>
      <trkpt lat="47.679838025942445" lon="11.508107800036669">
        <ele>1007.59912109375</ele>
        <time>2013-06-15T12:51:17Z</time>
      </trkpt>
      <trkpt lat="47.679861076176167" lon="11.508078211918473">
        <ele>1007.118408203125</ele>
        <time>2013-06-15T12:51:39Z</time>
      </trkpt>
      <trkpt lat="47.679875493049622" lon="11.508134119212627">
        <ele>1008.079833984375</ele>
        <time>2013-06-15T12:52:34Z</time>
      </trkpt>
      <trkpt lat="47.679785303771496" lon="11.508127497509122">
        <ele>1007.59912109375</ele>
        <time>2013-06-15T12:53:14Z</time>
      </trkpt>
      <trkpt lat="47.679777508601546" lon="11.50804040953517">
        <ele>1008.079833984375</ele>
        <time>2013-06-15T12:53:30Z</time>
      </trkpt>
      <trkpt lat="47.679756386205554" lon="11.5079783834517">
        <ele>1008.560302734375</ele>
        <time>2013-06-15T12:53:58Z</time>
      </trkpt>
      <trkpt lat="47.679888987913728" lon="11.508067734539509">
        <ele>1009.041015625</ele>
        <time>2013-06-15T12:54:22Z</time>
      </trkpt>
      <trkpt lat="47.67971514724195" lon="11.508080307394266">
        <ele>1009.041015625</ele>
        <time>2013-06-15T12:54:58Z</time>
      </trkpt>
      <trkpt lat="47.67972101457417" lon="11.508090198040009">
        <ele>1009.521728515625</ele>
        <time>2013-06-15T12:55:15Z</time>
      </trkpt>
      <trkpt lat="47.679866524413228" lon="11.508130766451359">
        <ele>1009.521728515625</ele>
        <time>2013-06-15T12:55:49Z</time>
      </trkpt>
      <trkpt lat="47.680004155263305" lon="11.507965642958879">
        <ele>1009.521728515625</ele>
        <time>2013-06-15T12:56:11Z</time>
      </trkpt>
      <trkpt lat="47.680014632642269" lon="11.507917111739516">
        <ele>1010.002197265625</ele>
        <time>2013-06-15T12:56:35Z</time>
      </trkpt>
      <trkpt lat="47.680075485259295" lon="11.507889200001955">
        <ele>1010.002197265625</ele>
        <time>2013-06-15T12:57:36Z</time>
      </trkpt>
      <trkpt lat="47.680065846070647" lon="11.507875202223659">
        <ele>1010.002197265625</ele>
        <time>2013-06-15T12:57:59Z</time>
      </trkpt>
      <trkpt lat="47.679908266291022" lon="11.507943766191602">
        <ele>1010.002197265625</ele>
        <time>2013-06-15T12:58:16Z</time>
      </trkpt>
      <trkpt lat="47.679929221048951" lon="11.507986597716808">
        <ele>1009.521728515625</ele>
        <time>2013-06-15T12:58:36Z</time>
      </trkpt>
      <trkpt lat="47.679963419213891" lon="11.508007636293769">
        <ele>1008.560302734375</ele>
        <time>2013-06-15T12:59:46Z</time>
      </trkpt>
      <trkpt lat="47.679955456405878" lon="11.507953405380249">
        <ele>1008.560302734375</ele>
        <time>2013-06-15T13:00:06Z</time>
      </trkpt>
      <trkpt lat="47.679970460012555" lon="11.507919710129499">
        <ele>1009.041015625</ele>
        <time>2013-06-15T13:00:18Z</time>
      </trkpt>
      <trkpt lat="47.679974818602204" lon="11.507892301306129">
        <ele>1009.041015625</ele>
        <time>2013-06-15T13:02:10Z</time>
      </trkpt>
      <trkpt lat="47.679974734783173" lon="11.507889283820987">
        <ele>1008.560302734375</ele>
        <time>2013-06-15T13:02:20Z</time>
      </trkpt>
      <trkpt lat="47.680005496367812" lon="11.507889200001955">
        <ele>1010.002197265625</ele>
        <time>2013-06-15T13:02:55Z</time>
      </trkpt>
      <trkpt lat="47.680020499974489" lon="11.507675210013986">
        <ele>1010.002197265625</ele>
        <time>2013-06-15T13:03:05Z</time>
      </trkpt>
      <trkpt lat="47.679997030645609" lon="11.507457867264748">
        <ele>1010.48291015625</ele>
        <time>2013-06-15T13:03:14Z</time>
      </trkpt>
      <trkpt lat="47.679991582408547" lon="11.507431715726852">
        <ele>1010.002197265625</ele>
        <time>2013-06-15T13:03:15Z</time>
      </trkpt>
      <trkpt lat="47.679923353716731" lon="11.50731336325407">
        <ele>1010.002197265625</ele>
        <time>2013-06-15T13:03:20Z</time>
      </trkpt>
      <trkpt lat="47.679835930466652" lon="11.507306741550565">
        <ele>1009.041015625</ele>
        <time>2013-06-15T13:03:23Z</time>
      </trkpt>
      <trkpt lat="47.679790835827589" lon="11.507327193394303">
        <ele>1009.041015625</ele>
        <time>2013-06-15T13:03:31Z</time>
      </trkpt>
      <trkpt lat="47.679763259366155" lon="11.507326103746891">
        <ele>1008.560302734375</ele>
        <time>2013-06-15T13:03:39Z</time>
      </trkpt>
      <trkpt lat="47.67975814640522" lon="11.507325936108828">
        <ele>1009.041015625</ele>
        <time>2013-06-15T13:03:50Z</time>
      </trkpt>
      <trkpt lat="47.679760912433267" lon="11.507308417931199">
        <ele>1008.560302734375</ele>
        <time>2013-06-15T13:04:04Z</time>
      </trkpt>
      <trkpt lat="47.679749261587858" lon="11.507303221151233">
        <ele>1009.041015625</ele>
        <time>2013-06-15T13:04:18Z</time>
      </trkpt>
      <trkpt lat="47.679751692339778" lon="11.507307328283787">
        <ele>1009.041015625</ele>
        <time>2013-06-15T13:04:30Z</time>
      </trkpt>
      <trkpt lat="47.679688660427928" lon="11.507446635514498">
        <ele>1009.041015625</ele>
        <time>2013-06-15T13:04:36Z</time>
      </trkpt>
      <trkpt lat="47.679546251893044" lon="11.507589966058731">
        <ele>1009.521728515625</ele>
        <time>2013-06-15T13:04:42Z</time>
      </trkpt>
      <trkpt lat="47.679461929947138" lon="11.507699266076088">
        <ele>1009.521728515625</ele>
        <time>2013-06-15T13:04:48Z</time>
      </trkpt>
      <trkpt lat="47.679451704025269" lon="11.507717203348875">
        <ele>1009.041015625</ele>
        <time>2013-06-15T13:04:49Z</time>
      </trkpt>
      <trkpt lat="47.679412811994553" lon="11.507779229432344">
        <ele>1008.560302734375</ele>
        <time>2013-06-15T13:04:52Z</time>
      </trkpt>
      <trkpt lat="47.679250286892056" lon="11.507858773693442">
        <ele>1008.560302734375</ele>
        <time>2013-06-15T13:04:59Z</time>
      </trkpt>
      <trkpt lat="47.679248275235295" lon="11.50783815421164">
        <ele>1007.59912109375</ele>
        <time>2013-06-15T13:05:14Z</time>
      </trkpt>
      <trkpt lat="47.679218016564846" lon="11.507809069007635">
        <ele>1008.560302734375</ele>
        <time>2013-06-15T13:05:51Z</time>
      </trkpt>
      <trkpt lat="47.679032441228628" lon="11.507563311606646">
        <ele>1007.118408203125</ele>
        <time>2013-06-15T13:05:58Z</time>
      </trkpt>
      <trkpt lat="47.678801184520125" lon="11.507204985246062">
        <ele>1004.715087890625</ele>
        <time>2013-06-15T13:06:05Z</time>
      </trkpt>
      <trkpt lat="47.678379658609629" lon="11.506844395771623">
        <ele>1006.6376953125</ele>
        <time>2013-06-15T13:06:14Z</time>
      </trkpt>
      <trkpt lat="47.678335821256042" lon="11.506822183728218">
        <ele>1006.156982421875</ele>
        <time>2013-06-15T13:06:15Z</time>
      </trkpt>
      <trkpt lat="47.678243452683091" lon="11.506766444072127">
        <ele>1005.19580078125</ele>
        <time>2013-06-15T13:06:17Z</time>
      </trkpt>
      <trkpt lat="47.678059889003634" lon="11.506625963374972">
        <ele>1007.118408203125</ele>
        <time>2013-06-15T13:06:23Z</time>
      </trkpt>
      <trkpt lat="47.67779384739697" lon="11.506548682227731">
        <ele>1009.041015625</ele>
        <time>2013-06-15T13:06:33Z</time>
      </trkpt>
      <trkpt lat="47.677515400573611" lon="11.506591765210032">
        <ele>1010.963623046875</ele>
        <time>2013-06-15T13:06:45Z</time>
      </trkpt>
      <trkpt lat="47.677268050611019" lon="11.506625544279814">
        <ele>1011.925048828125</ele>
        <time>2013-06-15T13:06:55Z</time>
      </trkpt>
      <trkpt lat="47.677103597670794" lon="11.506610289216042">
        <ele>1011.925048828125</ele>
        <time>2013-06-15T13:07:01Z</time>
      </trkpt>
      <trkpt lat="47.676861193031073" lon="11.506485650315881">
        <ele>1011.925048828125</ele>
        <time>2013-06-15T13:07:09Z</time>
      </trkpt>
      <trkpt lat="47.6766421739012" lon="11.50615775026381">
        <ele>1011.925048828125</ele>
        <time>2013-06-15T13:07:17Z</time>
      </trkpt>
      <trkpt lat="47.676374455913901" lon="11.505725746974349">
        <ele>1011.4443359375</ele>
        <time>2013-06-15T13:07:28Z</time>
      </trkpt>
      <trkpt lat="47.676165578886867" lon="11.50546096265316">
        <ele>1007.118408203125</ele>
        <time>2013-06-15T13:07:33Z</time>
      </trkpt>
      <trkpt lat="47.675660150125623" lon="11.505013620480895">
        <ele>1005.676513671875</ele>
        <time>2013-06-15T13:07:42Z</time>
      </trkpt>
      <trkpt lat="47.675273912027478" lon="11.504897698760033">
        <ele>1007.118408203125</ele>
        <time>2013-06-15T13:07:48Z</time>
      </trkpt>
      <trkpt lat="47.674725903198123" lon="11.504800636321306">
        <ele>1006.6376953125</ele>
        <time>2013-06-15T13:07:58Z</time>
      </trkpt>
      <trkpt lat="47.674224078655243" lon="11.504767443984747">
        <ele>1006.6376953125</ele>
        <time>2013-06-15T13:08:07Z</time>
      </trkpt>
      <trkpt lat="47.673669615760446" lon="11.504648923873901">
        <ele>1007.59912109375</ele>
        <time>2013-06-15T13:08:19Z</time>
      </trkpt>
      <trkpt lat="47.673149183392525" lon="11.50451548397541">
        <ele>1009.521728515625</ele>
        <time>2013-06-15T13:08:32Z</time>
      </trkpt>
      <trkpt lat="47.672872664406896" lon="11.504441723227501">
        <ele>1010.002197265625</ele>
        <time>2013-06-15T13:08:40Z</time>
      </trkpt>
      <trkpt lat="47.672435967251658" lon="11.504343738779426">
        <ele>1010.963623046875</ele>
        <time>2013-06-15T13:08:52Z</time>
      </trkpt>
      <trkpt lat="47.672031205147505" lon="11.504117427393794">
        <ele>1011.925048828125</ele>
        <time>2013-06-15T13:09:05Z</time>
      </trkpt>
      <trkpt lat="47.671745382249355" lon="11.503868820145726">
        <ele>1014.328125</ele>
        <time>2013-06-15T13:09:16Z</time>
      </trkpt>
      <trkpt lat="47.671505073085427" lon="11.503576124086976">
        <ele>1016.7314453125</ele>
        <time>2013-06-15T13:09:29Z</time>
      </trkpt>
      <trkpt lat="47.671405579894781" lon="11.503389040008187">
        <ele>1017.212158203125</ele>
        <time>2013-06-15T13:09:36Z</time>
      </trkpt>
      <trkpt lat="47.671294184401631" lon="11.503035742789507">
        <ele>1019.615478515625</ele>
        <time>2013-06-15T13:09:49Z</time>
      </trkpt>
      <trkpt lat="47.671188907697797" lon="11.502682026475668">
        <ele>1022.49951171875</ele>
        <time>2013-06-15T13:10:03Z</time>
      </trkpt>
      <trkpt lat="47.671048510819674" lon="11.502414643764496">
        <ele>1024.422119140625</ele>
        <time>2013-06-15T13:10:15Z</time>
      </trkpt>
      <trkpt lat="47.670759586617351" lon="11.502011138945818">
        <ele>1025.864013671875</ele>
        <time>2013-06-15T13:10:35Z</time>
      </trkpt>
      <trkpt lat="47.670546183362603" lon="11.501757418736815">
        <ele>1027.78662109375</ele>
        <time>2013-06-15T13:10:49Z</time>
      </trkpt>
      <trkpt lat="47.670329930260777" lon="11.501508140936494">
        <ele>1030.670654296875</ele>
        <time>2013-06-15T13:11:04Z</time>
      </trkpt>
      <trkpt lat="47.670160951092839" lon="11.501259114593267">
        <ele>1031.1513671875</ele>
        <time>2013-06-15T13:11:16Z</time>
      </trkpt>
      <trkpt lat="47.670085011050105" lon="11.501156352460384">
        <ele>1031.6318359375</ele>
        <time>2013-06-15T13:11:25Z</time>
      </trkpt>
      <trkpt lat="47.670047208666801" lon="11.501118633896112">
        <ele>1032.59326171875</ele>
        <time>2013-06-15T13:12:03Z</time>
      </trkpt>
      <trkpt lat="47.669897507876158" lon="11.500924341380596">
        <ele>1032.112548828125</ele>
        <time>2013-06-15T13:12:12Z</time>
      </trkpt>
      <trkpt lat="47.669668095186353" lon="11.50066458620131">
        <ele>1032.112548828125</ele>
        <time>2013-06-15T13:12:23Z</time>
      </trkpt>
      <trkpt lat="47.669434491544962" lon="11.500547574833035">
        <ele>1034.99658203125</ele>
        <time>2013-06-15T13:12:34Z</time>
      </trkpt>
      <trkpt lat="47.669188063591719" lon="11.500376835465431">
        <ele>1036.438720703125</ele>
        <time>2013-06-15T13:12:45Z</time>
      </trkpt>
      <trkpt lat="47.669052109122276" lon="11.500077433884144">
        <ele>1035.47705078125</ele>
        <time>2013-06-15T13:12:53Z</time>
      </trkpt>
      <trkpt lat="47.668984215706587" lon="11.499714329838753">
        <ele>1037.880615234375</ele>
        <time>2013-06-15T13:13:02Z</time>
      </trkpt>
      <trkpt lat="47.668864857405424" lon="11.499400176107883">
        <ele>1038.361328125</ele>
        <time>2013-06-15T13:13:11Z</time>
      </trkpt>
      <trkpt lat="47.668705014511943" lon="11.499167662113905">
        <ele>1039.80322265625</ele>
        <time>2013-06-15T13:13:20Z</time>
      </trkpt>
      <trkpt lat="47.6684913598001" lon="11.498763486742973">
        <ele>1041.2451171875</ele>
        <time>2013-06-15T13:13:34Z</time>
      </trkpt>
      <trkpt lat="47.668333696201444" lon="11.498394683003426">
        <ele>1043.167724609375</ele>
        <time>2013-06-15T13:13:46Z</time>
      </trkpt>
      <trkpt lat="47.668259935453534" lon="11.498259147629142">
        <ele>1044.609619140625</ele>
        <time>2013-06-15T13:13:52Z</time>
      </trkpt>
      <trkpt lat="47.668239399790764" lon="11.498207598924637">
        <ele>1044.609619140625</ele>
        <time>2013-06-15T13:13:55Z</time>
      </trkpt>
      <trkpt lat="47.668181732296944" lon="11.498083127662539">
        <ele>1045.571044921875</ele>
        <time>2013-06-15T13:14:01Z</time>
      </trkpt>
      <trkpt lat="47.668144851922989" lon="11.498010875657201">
        <ele>1046.532470703125</ele>
        <time>2013-06-15T13:14:04Z</time>
      </trkpt>
      <trkpt lat="47.668042592704296" lon="11.497756568714976">
        <ele>1047.012939453125</ele>
        <time>2013-06-15T13:14:13Z</time>
      </trkpt>
      <trkpt lat="47.667951984331012" lon="11.497535621747375">
        <ele>1048.935546875</ele>
        <time>2013-06-15T13:14:21Z</time>
      </trkpt>
      <trkpt lat="47.667869422584772" lon="11.497236974537373">
        <ele>1050.377685546875</ele>
        <time>2013-06-15T13:14:33Z</time>
      </trkpt>
      <trkpt lat="47.667775126174092" lon="11.497036814689636">
        <ele>1050.858154296875</ele>
        <time>2013-06-15T13:14:41Z</time>
      </trkpt>
      <trkpt lat="47.667754590511322" lon="11.496989205479622">
        <ele>1052.30029296875</ele>
        <time>2013-06-15T13:14:44Z</time>
      </trkpt>
      <trkpt lat="47.667684433981776" lon="11.496864063665271">
        <ele>1052.30029296875</ele>
        <time>2013-06-15T13:14:52Z</time>
      </trkpt>
      <trkpt lat="47.667646883055568" lon="11.496784100309014">
        <ele>1052.781005859375</ele>
        <time>2013-06-15T13:14:55Z</time>
      </trkpt>
      <trkpt lat="47.667546384036541" lon="11.496657114475965">
        <ele>1053.742431640625</ele>
        <time>2013-06-15T13:15:01Z</time>
      </trkpt>
      <trkpt lat="47.667411603033543" lon="11.496554771438241">
        <ele>1055.184326171875</ele>
        <time>2013-06-15T13:15:07Z</time>
      </trkpt>
      <trkpt lat="47.667265171185136" lon="11.4964066632092">
        <ele>1057.10693359375</ele>
        <time>2013-06-15T13:15:16Z</time>
      </trkpt>
      <trkpt lat="47.667138017714024" lon="11.496315132826567">
        <ele>1058.548828125</ele>
        <time>2013-06-15T13:15:25Z</time>
      </trkpt>
      <trkpt lat="47.667000973597169" lon="11.496283281594515">
        <ele>1060.471435546875</ele>
        <time>2013-06-15T13:15:35Z</time>
      </trkpt>
      <trkpt lat="47.66686862334609" lon="11.496164426207542">
        <ele>1062.39404296875</ele>
        <time>2013-06-15T13:15:49Z</time>
      </trkpt>
      <trkpt lat="47.666726466268301" lon="11.496071219444275">
        <ele>1064.79736328125</ele>
        <time>2013-06-15T13:16:00Z</time>
      </trkpt>
      <trkpt lat="47.666574586182833" lon="11.496056048199534">
        <ele>1066.719970703125</ele>
        <time>2013-06-15T13:16:11Z</time>
      </trkpt>
      <trkpt lat="47.666403511539102" lon="11.496013216674328">
        <ele>1068.162109375</ele>
        <time>2013-06-15T13:16:23Z</time>
      </trkpt>
      <trkpt lat="47.666256157681346" lon="11.495990920811892">
        <ele>1070.084716796875</ele>
        <time>2013-06-15T13:16:34Z</time>
      </trkpt>
      <trkpt lat="47.666179044172168" lon="11.495964685454965">
        <ele>1071.046142578125</ele>
        <time>2013-06-15T13:16:40Z</time>
      </trkpt>
      <trkpt lat="47.666148617863655" lon="11.49595370516181">
        <ele>1071.046142578125</ele>
        <time>2013-06-15T13:16:42Z</time>
      </trkpt>
      <trkpt lat="47.666032863780856" lon="11.495883380994201">
        <ele>1073.449462890625</ele>
        <time>2013-06-15T13:16:51Z</time>
      </trkpt>
      <trkpt lat="47.666017524898052" lon="11.495828647166491">
        <ele>1072.96875</ele>
        <time>2013-06-15T13:17:00Z</time>
      </trkpt>
      <trkpt lat="47.665996318683028" lon="11.4957953710109">
        <ele>1073.449462890625</ele>
        <time>2013-06-15T13:17:04Z</time>
      </trkpt>
      <trkpt lat="47.665885929018259" lon="11.495693027973175">
        <ele>1076.81396484375</ele>
        <time>2013-06-15T13:17:19Z</time>
      </trkpt>
      <trkpt lat="47.665788698941469" lon="11.49562630802393">
        <ele>1079.217041015625</ele>
        <time>2013-06-15T13:17:31Z</time>
      </trkpt>
      <trkpt lat="47.665735138580203" lon="11.495575932785869">
        <ele>1080.6591796875</ele>
        <time>2013-06-15T13:17:40Z</time>
      </trkpt>
      <trkpt lat="47.665662886574864" lon="11.495476020500064">
        <ele>1082.581787109375</ele>
        <time>2013-06-15T13:17:52Z</time>
      </trkpt>
      <trkpt lat="47.665586275979877" lon="11.495422795414925">
        <ele>1085.946533203125</ele>
        <time>2013-06-15T13:18:05Z</time>
      </trkpt>
      <trkpt lat="47.665481418371201" lon="11.495321877300739">
        <ele>1087.388427734375</ele>
        <time>2013-06-15T13:18:16Z</time>
      </trkpt>
      <trkpt lat="47.665415201336145" lon="11.495184330269694">
        <ele>1089.31103515625</ele>
        <time>2013-06-15T13:18:24Z</time>
      </trkpt>
      <trkpt lat="47.665336159989238" lon="11.495001437142491">
        <ele>1091.71435546875</ele>
        <time>2013-06-15T13:18:38Z</time>
      </trkpt>
      <trkpt lat="47.665286874398589" lon="11.49493832141161">
        <ele>1093.636962890625</ele>
        <time>2013-06-15T13:18:48Z</time>
      </trkpt>
      <trkpt lat="47.665241612121463" lon="11.494899177923799">
        <ele>1096.52099609375</ele>
        <time>2013-06-15T13:19:00Z</time>
      </trkpt>
      <trkpt lat="47.665128707885742" lon="11.494774119928479">
        <ele>1098.924072265625</ele>
        <time>2013-06-15T13:19:15Z</time>
      </trkpt>
      <trkpt lat="47.665072465315461" lon="11.494698096066713">
        <ele>1100.366455078125</ele>
        <time>2013-06-15T13:19:25Z</time>
      </trkpt>
      <trkpt lat="47.665031561627984" lon="11.494635064154863">
        <ele>1101.32763671875</ele>
        <time>2013-06-15T13:20:28Z</time>
      </trkpt>
      <trkpt lat="47.665021670982242" lon="11.494599943980575">
        <ele>1101.32763671875</ele>
        <time>2013-06-15T13:20:31Z</time>
      </trkpt>
      <trkpt lat="47.66498789191246" lon="11.494502630084753">
        <ele>1102.76953125</ele>
        <time>2013-06-15T13:20:39Z</time>
      </trkpt>
      <trkpt lat="47.664929050952196" lon="11.49440917186439">
        <ele>1104.211669921875</ele>
        <time>2013-06-15T13:20:48Z</time>
      </trkpt>
      <trkpt lat="47.664866019040346" lon="11.494311019778252">
        <ele>1105.653564453125</ele>
        <time>2013-06-15T13:20:57Z</time>
      </trkpt>
      <trkpt lat="47.66478069126606" lon="11.494231894612312">
        <ele>1107.576171875</ele>
        <time>2013-06-15T13:21:07Z</time>
      </trkpt>
      <trkpt lat="47.664677258580923" lon="11.494107088074088">
        <ele>1108.537353515625</ele>
        <time>2013-06-15T13:21:18Z</time>
      </trkpt>
      <trkpt lat="47.664634175598621" lon="11.494049420580268">
        <ele>1109.498779296875</ele>
        <time>2013-06-15T13:21:25Z</time>
      </trkpt>
      <trkpt lat="47.6645661983639" lon="11.493905168026686">
        <ele>1112.86328125</ele>
        <time>2013-06-15T13:21:39Z</time>
      </trkpt>
      <trkpt lat="47.664519594982266" lon="11.493793604895473">
        <ele>1113.824462890625</ele>
        <time>2013-06-15T13:21:46Z</time>
      </trkpt>
      <trkpt lat="47.664463771507144" lon="11.493578022345901">
        <ele>1115.2666015625</ele>
        <time>2013-06-15T13:21:59Z</time>
      </trkpt>
      <trkpt lat="47.664432842284441" lon="11.493438463658094">
        <ele>1116.22802734375</ele>
        <time>2013-06-15T13:22:08Z</time>
      </trkpt>
      <trkpt lat="47.664401661604643" lon="11.493343077600002">
        <ele>1116.708740234375</ele>
        <time>2013-06-15T13:22:16Z</time>
      </trkpt>
      <trkpt lat="47.664357488974929" lon="11.493243249133229">
        <ele>1119.112060546875</ele>
        <time>2013-06-15T13:22:25Z</time>
      </trkpt>
      <trkpt lat="47.664320105686784" lon="11.493135876953602">
        <ele>1120.553955078125</ele>
        <time>2013-06-15T13:22:36Z</time>
      </trkpt>
      <trkpt lat="47.664238465949893" lon="11.492981733754277">
        <ele>1122.957275390625</ele>
        <time>2013-06-15T13:22:48Z</time>
      </trkpt>
      <trkpt lat="47.664174260571599" lon="11.492856927216053">
        <ele>1123.91845703125</ele>
        <time>2013-06-15T13:23:01Z</time>
      </trkpt>
      <trkpt lat="47.664154646918178" lon="11.492816777899861">
        <ele>1124.8798828125</ele>
        <time>2013-06-15T13:23:09Z</time>
      </trkpt>
      <trkpt lat="47.664120616391301" lon="11.492733126506209">
        <ele>1125.3603515625</ele>
        <time>2013-06-15T13:23:18Z</time>
      </trkpt>
      <trkpt lat="47.664089854806662" lon="11.492694485932589">
        <ele>1124.8798828125</ele>
        <time>2013-06-15T13:23:25Z</time>
      </trkpt>
      <trkpt lat="47.663938896730542" lon="11.492544198408723">
        <ele>1124.399169921875</ele>
        <time>2013-06-15T13:23:34Z</time>
      </trkpt>
      <trkpt lat="47.663725158199668" lon="11.49236180819571">
        <ele>1123.91845703125</ele>
        <time>2013-06-15T13:23:41Z</time>
      </trkpt>
      <trkpt lat="47.66369791701436" lon="11.492334147915244">
        <ele>1124.399169921875</ele>
        <time>2013-06-15T13:23:49Z</time>
      </trkpt>
      <trkpt lat="47.663701605051756" lon="11.492344625294209">
        <ele>1124.399169921875</ele>
        <time>2013-06-15T13:25:11Z</time>
      </trkpt>
      <trkpt lat="47.663643267005682" lon="11.492310930043459">
        <ele>1125.3603515625</ele>
        <time>2013-06-15T13:25:18Z</time>
      </trkpt>
      <trkpt lat="47.663477892056108" lon="11.492232475429773">
        <ele>1126.32177734375</ele>
        <time>2013-06-15T13:25:29Z</time>
      </trkpt>
      <trkpt lat="47.663298100233078" lon="11.492172796279192">
        <ele>1128.244384765625</ele>
        <time>2013-06-15T13:25:41Z</time>
      </trkpt>
      <trkpt lat="47.663186872377992" lon="11.492143459618092">
        <ele>1128.72509765625</ele>
        <time>2013-06-15T13:25:47Z</time>
      </trkpt>
      <trkpt lat="47.663065418601036" lon="11.492187548428774">
        <ele>1130.647705078125</ele>
        <time>2013-06-15T13:25:56Z</time>
      </trkpt>
      <trkpt lat="47.66297422349453" lon="11.492179501801729">
        <ele>1132.570556640625</ele>
        <time>2013-06-15T13:26:02Z</time>
      </trkpt>
      <trkpt lat="47.662926781922579" lon="11.492159720510244">
        <ele>1133.53173828125</ele>
        <time>2013-06-15T13:26:06Z</time>
      </trkpt>
      <trkpt lat="47.662857212126255" lon="11.492009935900569">
        <ele>1134.4931640625</ele>
        <time>2013-06-15T13:26:14Z</time>
      </trkpt>
      <trkpt lat="47.66283743083477" lon="11.491968194022775">
        <ele>1134.973876953125</ele>
        <time>2013-06-15T13:26:19Z</time>
      </trkpt>
      <trkpt lat="47.662772890180349" lon="11.491916896775365">
        <ele>1136.415771484375</ele>
        <time>2013-06-15T13:26:33Z</time>
      </trkpt>
      <trkpt lat="47.662707595154643" lon="11.491840034723282">
        <ele>1137.857666015625</ele>
        <time>2013-06-15T13:26:51Z</time>
      </trkpt>
      <trkpt lat="47.662672726437449" lon="11.491836933419108">
        <ele>1137.857666015625</ele>
        <time>2013-06-15T13:27:02Z</time>
      </trkpt>
      <trkpt lat="47.662679683417082" lon="11.491831569001079">
        <ele>1137.376953125</ele>
        <time>2013-06-15T13:27:13Z</time>
      </trkpt>
      <trkpt lat="47.662620255723596" lon="11.491731740534306">
        <ele>1137.857666015625</ele>
        <time>2013-06-15T13:27:23Z</time>
      </trkpt>
      <trkpt lat="47.662613382562995" lon="11.491661332547665">
        <ele>1137.376953125</ele>
        <time>2013-06-15T13:27:27Z</time>
      </trkpt>
      <trkpt lat="47.662601731717587" lon="11.491510877385736">
        <ele>1138.33837890625</ele>
        <time>2013-06-15T13:27:39Z</time>
      </trkpt>
      <trkpt lat="47.662590919062495" lon="11.491496628150344">
        <ele>1138.33837890625</ele>
        <time>2013-06-15T13:27:55Z</time>
      </trkpt>
      <trkpt lat="47.662561247125268" lon="11.491382047533989">
        <ele>1138.819091796875</ele>
        <time>2013-06-15T13:28:03Z</time>
      </trkpt>
      <trkpt lat="47.662537023425102" lon="11.491370564326644">
        <ele>1139.7802734375</ele>
        <time>2013-06-15T13:28:13Z</time>
      </trkpt>
      <trkpt lat="47.662513386458158" lon="11.491334773600101">
        <ele>1140.260986328125</ele>
        <time>2013-06-15T13:28:22Z</time>
      </trkpt>
      <trkpt lat="47.662491509690881" lon="11.49127702228725">
        <ele>1140.741455078125</ele>
        <time>2013-06-15T13:28:29Z</time>
      </trkpt>
      <trkpt lat="47.662466196343303" lon="11.491211224347353">
        <ele>1141.702880859375</ele>
        <time>2013-06-15T13:28:38Z</time>
      </trkpt>
      <trkpt lat="47.66242939978838" lon="11.491105947643518">
        <ele>1142.664306640625</ele>
        <time>2013-06-15T13:28:47Z</time>
      </trkpt>
      <trkpt lat="47.662429148331285" lon="11.490967981517315">
        <ele>1143.144775390625</ele>
        <time>2013-06-15T13:28:56Z</time>
      </trkpt>
      <trkpt lat="47.662394950166345" lon="11.490872176364064">
        <ele>1144.106201171875</ele>
        <time>2013-06-15T13:29:05Z</time>
      </trkpt>
      <trkpt lat="47.66236636787653" lon="11.49075566790998">
        <ele>1145.548095703125</ele>
        <time>2013-06-15T13:29:16Z</time>
      </trkpt>
      <trkpt lat="47.662307107821107" lon="11.490654414519668">
        <ele>1145.548095703125</ele>
        <time>2013-06-15T13:29:28Z</time>
      </trkpt>
      <trkpt lat="47.662293277680874" lon="11.490611918270588">
        <ele>1146.989990234375</ele>
        <time>2013-06-15T13:29:37Z</time>
      </trkpt>
      <trkpt lat="47.662305012345314" lon="11.490553915500641">
        <ele>1146.989990234375</ele>
        <time>2013-06-15T13:29:46Z</time>
      </trkpt>
      <trkpt lat="47.662341138347983" lon="11.490491135045886">
        <ele>1147.470703125</ele>
        <time>2013-06-15T13:29:55Z</time>
      </trkpt>
      <trkpt lat="47.662334768101573" lon="11.490447632968426">
        <ele>1147.951416015625</ele>
        <time>2013-06-15T13:30:04Z</time>
      </trkpt>
      <trkpt lat="47.662327894940972" lon="11.490412009879947">
        <ele>1149.874267578125</ele>
        <time>2013-06-15T13:30:15Z</time>
      </trkpt>
      <trkpt lat="47.662355890497565" lon="11.490327101200819">
        <ele>1151.796875</ele>
        <time>2013-06-15T13:30:38Z</time>
      </trkpt>
      <trkpt lat="47.662358656525612" lon="11.490255100652575">
        <ele>1153.23876953125</ele>
        <time>2013-06-15T13:30:51Z</time>
      </trkpt>
      <trkpt lat="47.662380784749985" lon="11.490162899717689">
        <ele>1156.603271484375</ele>
        <time>2013-06-15T13:31:07Z</time>
      </trkpt>
      <trkpt lat="47.662406098097563" lon="11.49009307846427">
        <ele>1158.04541015625</ele>
        <time>2013-06-15T13:31:22Z</time>
      </trkpt>
      <trkpt lat="47.662403751164675" lon="11.490078577771783">
        <ele>1160.448486328125</ele>
        <time>2013-06-15T13:31:39Z</time>
      </trkpt>
      <trkpt lat="47.662422023713589" lon="11.490030717104673">
        <ele>1160.448486328125</ele>
        <time>2013-06-15T13:31:49Z</time>
      </trkpt>
      <trkpt lat="47.662442224100232" lon="11.489950502291322">
        <ele>1162.851806640625</ele>
        <time>2013-06-15T13:32:02Z</time>
      </trkpt>
      <trkpt lat="47.662437697872519" lon="11.489925775676966">
        <ele>1164.2939453125</ele>
        <time>2013-06-15T13:32:09Z</time>
      </trkpt>
      <trkpt lat="47.662424119189382" lon="11.489891326054931">
        <ele>1164.774658203125</ele>
        <time>2013-06-15T13:32:19Z</time>
      </trkpt>
      <trkpt lat="47.662418503314257" lon="11.489887973293662">
        <ele>1164.774658203125</ele>
        <time>2013-06-15T13:32:35Z</time>
      </trkpt>
      <trkpt lat="47.662385813891888" lon="11.489936923608184">
        <ele>1165.736083984375</ele>
        <time>2013-06-15T13:32:44Z</time>
      </trkpt>
      <trkpt lat="47.662413641810417" lon="11.489954106509686">
        <ele>1167.177978515625</ele>
        <time>2013-06-15T13:33:04Z</time>
      </trkpt>
      <trkpt lat="47.662384808063507" lon="11.48991521447897">
        <ele>1167.658447265625</ele>
        <time>2013-06-15T13:33:16Z</time>
      </trkpt>
      <trkpt lat="47.662370139732957" lon="11.489799125120044">
        <ele>1168.619873046875</ele>
        <time>2013-06-15T13:33:32Z</time>
      </trkpt>
      <trkpt lat="47.662375839427114" lon="11.489766938611865">
        <ele>1169.581298828125</ele>
        <time>2013-06-15T13:33:40Z</time>
      </trkpt>
      <trkpt lat="47.662374833598733" lon="11.489753779023886">
        <ele>1170.061767578125</ele>
        <time>2013-06-15T13:33:52Z</time>
      </trkpt>
      <trkpt lat="47.662410037592053" lon="11.489715976640582">
        <ele>1171.023193359375</ele>
        <time>2013-06-15T13:34:00Z</time>
      </trkpt>
      <trkpt lat="47.662412552163005" lon="11.489662248641253">
        <ele>1171.984375</ele>
        <time>2013-06-15T13:34:09Z</time>
      </trkpt>
      <trkpt lat="47.66240693628788" lon="11.489628721028566">
        <ele>1172.94580078125</ele>
        <time>2013-06-15T13:34:27Z</time>
      </trkpt>
      <trkpt lat="47.662406852468848" lon="11.489613801240921">
        <ele>1173.426513671875</ele>
        <time>2013-06-15T13:34:38Z</time>
      </trkpt>
      <trkpt lat="47.662395788356662" lon="11.489615812897682">
        <ele>1174.3876953125</ele>
        <time>2013-06-15T13:34:52Z</time>
      </trkpt>
      <trkpt lat="47.66239520162344" lon="11.489621512591839">
        <ele>1175.82958984375</ele>
        <time>2013-06-15T13:35:21Z</time>
      </trkpt>
      <trkpt lat="47.662374498322606" lon="11.489603910595179">
        <ele>1177.271728515625</ele>
        <time>2013-06-15T13:35:33Z</time>
      </trkpt>
      <trkpt lat="47.662346670404077" lon="11.489581363275647">
        <ele>1177.271728515625</ele>
        <time>2013-06-15T13:35:43Z</time>
      </trkpt>
      <trkpt lat="47.662337869405746" lon="11.489530401304364">
        <ele>1180.15576171875</ele>
        <time>2013-06-15T13:36:35Z</time>
      </trkpt>
      <trkpt lat="47.662347424775362" lon="11.489484468474984">
        <ele>1181.1171875</ele>
        <time>2013-06-15T13:36:45Z</time>
      </trkpt>
      <trkpt lat="47.66232730820775" lon="11.489448677748442">
        <ele>1182.55908203125</ele>
        <time>2013-06-15T13:36:59Z</time>
      </trkpt>
      <trkpt lat="47.662315405905247" lon="11.489425459876657">
        <ele>1183.03955078125</ele>
        <time>2013-06-15T13:37:11Z</time>
      </trkpt>
      <trkpt lat="47.662303084507585" lon="11.489398051053286">
        <ele>1184.481689453125</ele>
        <time>2013-06-15T13:37:58Z</time>
      </trkpt>
      <trkpt lat="47.662296295166016" lon="11.489355051890016">
        <ele>1186.404296875</ele>
        <time>2013-06-15T13:38:21Z</time>
      </trkpt>
      <trkpt lat="47.662305431440473" lon="11.489315992221236">
        <ele>1187.365478515625</ele>
        <time>2013-06-15T13:38:44Z</time>
      </trkpt>
      <trkpt lat="47.662313310429454" lon="11.489300485700369">
        <ele>1187.84619140625</ele>
        <time>2013-06-15T13:38:56Z</time>
      </trkpt>
      <trkpt lat="47.662315657362342" lon="11.489286152645946">
        <ele>1187.84619140625</ele>
        <time>2013-06-15T13:39:07Z</time>
      </trkpt>
      <trkpt lat="47.662315825000405" lon="11.489288415759802">
        <ele>1190.24951171875</ele>
        <time>2013-06-15T13:39:12Z</time>
      </trkpt>
      <trkpt lat="47.662316914647818" lon="11.489286823198199">
        <ele>1188.326904296875</ele>
        <time>2013-06-15T13:39:15Z</time>
      </trkpt>
      <trkpt lat="47.662320602685213" lon="11.489283386617899">
        <ele>1189.2880859375</ele>
        <time>2013-06-15T13:39:28Z</time>
      </trkpt>
      <trkpt lat="47.662327978760004" lon="11.489268131554127">
        <ele>1189.768798828125</ele>
        <time>2013-06-15T13:39:39Z</time>
      </trkpt>
      <trkpt lat="47.662316244095564" lon="11.489249607548118">
        <ele>1193.13330078125</ele>
        <time>2013-06-15T13:40:36Z</time>
      </trkpt>
      <trkpt lat="47.662317836657166" lon="11.489236699417233">
        <ele>1193.13330078125</ele>
        <time>2013-06-15T13:40:56Z</time>
      </trkpt>
      <trkpt lat="47.662328230217099" lon="11.489197472110391">
        <ele>1193.614013671875</ele>
        <time>2013-06-15T13:41:05Z</time>
      </trkpt>
      <trkpt lat="47.662328314036131" lon="11.489166207611561">
        <ele>1195.53662109375</ele>
        <time>2013-06-15T13:41:21Z</time>
      </trkpt>
      <trkpt lat="47.662319513037801" lon="11.489157825708389">
        <ele>1195.53662109375</ele>
        <time>2013-06-15T13:41:36Z</time>
      </trkpt>
      <trkpt lat="47.662317333742976" lon="11.489151455461979">
        <ele>1196.498291015625</ele>
        <time>2013-06-15T13:41:53Z</time>
      </trkpt>
      <trkpt lat="47.662306940183043" lon="11.489083478227258">
        <ele>1197.940185546875</ele>
        <time>2013-06-15T13:42:05Z</time>
      </trkpt>
      <trkpt lat="47.66230333596468" lon="11.489074341952801">
        <ele>1197.940185546875</ele>
        <time>2013-06-15T13:42:13Z</time>
      </trkpt>
      <trkpt lat="47.66228917054832" lon="11.489079874008894">
        <ele>1198.9013671875</ele>
        <time>2013-06-15T13:42:30Z</time>
      </trkpt>
      <trkpt lat="47.662273496389389" lon="11.48913242854178">
        <ele>1199.86279296875</ele>
        <time>2013-06-15T13:42:38Z</time>
      </trkpt>
      <trkpt lat="47.662271820008755" lon="11.489122537896037">
        <ele>1199.86279296875</ele>
        <time>2013-06-15T13:42:45Z</time>
      </trkpt>
      <trkpt lat="47.662255559116602" lon="11.489097140729427">
        <ele>1200.823974609375</ele>
        <time>2013-06-15T13:42:59Z</time>
      </trkpt>
      <trkpt lat="47.662252876907587" lon="11.489049615338445">
        <ele>1200.823974609375</ele>
        <time>2013-06-15T13:43:11Z</time>
      </trkpt>
      <trkpt lat="47.662252373993397" lon="11.489052465185523">
        <ele>1200.823974609375</ele>
        <time>2013-06-15T13:43:32Z</time>
      </trkpt>
      <trkpt lat="47.662261761724949" lon="11.489025475457311">
        <ele>1201.785400390625</ele>
        <time>2013-06-15T13:43:46Z</time>
      </trkpt>
      <trkpt lat="47.662273161113262" lon="11.488990522921085">
        <ele>1202.74658203125</ele>
        <time>2013-06-15T13:43:58Z</time>
      </trkpt>
      <trkpt lat="47.662290930747986" lon="11.488967388868332">
        <ele>1203.7080078125</ele>
        <time>2013-06-15T13:44:14Z</time>
      </trkpt>
      <trkpt lat="47.662266790866852" lon="11.488936208188534">
        <ele>1204.669189453125</ele>
        <time>2013-06-15T13:44:37Z</time>
      </trkpt>
      <trkpt lat="47.662273747846484" lon="11.488923719152808">
        <ele>1205.14990234375</ele>
        <time>2013-06-15T13:44:49Z</time>
      </trkpt>
      <trkpt lat="47.662281123921275" lon="11.488918019458652">
        <ele>1205.14990234375</ele>
        <time>2013-06-15T13:45:08Z</time>
      </trkpt>
      <trkpt lat="47.662296881899238" lon="11.488903434947133">
        <ele>1207.072509765625</ele>
        <time>2013-06-15T13:46:17Z</time>
      </trkpt>
      <trkpt lat="47.662318255752325" lon="11.488890191540122">
        <ele>1208.9951171875</ele>
        <time>2013-06-15T13:46:29Z</time>
      </trkpt>
      <trkpt lat="47.662321524694562" lon="11.488879462704062">
        <ele>1208.514404296875</ele>
        <time>2013-06-15T13:47:00Z</time>
      </trkpt>
      <trkpt lat="47.66234097070992" lon="11.488829255104065">
        <ele>1209.475830078125</ele>
        <time>2013-06-15T13:47:28Z</time>
      </trkpt>
      <trkpt lat="47.662351028993726" lon="11.488794134929776">
        <ele>1209.475830078125</ele>
        <time>2013-06-15T13:47:40Z</time>
      </trkpt>
      <trkpt lat="47.662364020943642" lon="11.488768318668008">
        <ele>1210.917724609375</ele>
        <time>2013-06-15T13:48:01Z</time>
      </trkpt>
      <trkpt lat="47.662384724244475" lon="11.488760439679027">
        <ele>1211.3984375</ele>
        <time>2013-06-15T13:48:12Z</time>
      </trkpt>
      <trkpt lat="47.662400398403406" lon="11.488721547648311">
        <ele>1212.35986328125</ele>
        <time>2013-06-15T13:48:24Z</time>
      </trkpt>
      <trkpt lat="47.662399811670184" lon="11.488741328939795">
        <ele>1212.840576171875</ele>
        <time>2013-06-15T13:48:48Z</time>
      </trkpt>
      <trkpt lat="47.662405427545309" lon="11.488739149644971">
        <ele>1214.282470703125</ele>
        <time>2013-06-15T13:49:04Z</time>
      </trkpt>
      <trkpt lat="47.662389418110251" lon="11.48871467448771">
        <ele>1215.243896484375</ele>
        <time>2013-06-15T13:49:13Z</time>
      </trkpt>
      <trkpt lat="47.66236687079072" lon="11.488710651174188">
        <ele>1214.76318359375</ele>
        <time>2013-06-15T13:49:29Z</time>
      </trkpt>
      <trkpt lat="47.662351531907916" lon="11.488696653395891">
        <ele>1216.205078125</ele>
        <time>2013-06-15T13:49:46Z</time>
      </trkpt>
      <trkpt lat="47.66236393712461" lon="11.488766642287374">
        <ele>1216.685791015625</ele>
        <time>2013-06-15T13:50:18Z</time>
      </trkpt>
      <trkpt lat="47.66234440729022" lon="11.488795559853315">
        <ele>1216.205078125</ele>
        <time>2013-06-15T13:50:38Z</time>
      </trkpt>
      <trkpt lat="47.662346083670855" lon="11.48880654014647">
        <ele>1214.282470703125</ele>
        <time>2013-06-15T13:50:58Z</time>
      </trkpt>
      <trkpt lat="47.6623126398772" lon="11.488769492134452">
        <ele>1215.724609375</ele>
        <time>2013-06-15T13:55:06Z</time>
      </trkpt>
      <trkpt lat="47.662267964333296" lon="11.488647451624274">
        <ele>1217.64697265625</ele>
        <time>2013-06-15T13:55:19Z</time>
      </trkpt>
      <trkpt lat="47.662210632115602" lon="11.488595064729452">
        <ele>1219.56982421875</ele>
        <time>2013-06-15T13:55:31Z</time>
      </trkpt>
      <trkpt lat="47.662146762013435" lon="11.488652396947145">
        <ele>1220.05029296875</ele>
        <time>2013-06-15T13:55:41Z</time>
      </trkpt>
      <trkpt lat="47.66212010756135" lon="11.488649882376194">
        <ele>1220.531005859375</ele>
        <time>2013-06-15T13:56:21Z</time>
      </trkpt>
      <trkpt lat="47.662086831405759" lon="11.488665137439966">
        <ele>1221.01171875</ele>
        <time>2013-06-15T13:56:25Z</time>
      </trkpt>
      <trkpt lat="47.661984404549003" lon="11.488748285919428">
        <ele>1221.4921875</ele>
        <time>2013-06-15T13:56:37Z</time>
      </trkpt>
      <trkpt lat="47.661866554990411" lon="11.488744430243969">
        <ele>1224.376220703125</ele>
        <time>2013-06-15T13:56:52Z</time>
      </trkpt>
      <trkpt lat="47.661769241094589" lon="11.488789357244968">
        <ele>1223.4150390625</ele>
        <time>2013-06-15T13:57:03Z</time>
      </trkpt>
      <trkpt lat="47.66172138042748" lon="11.488794637843966">
        <ele>1224.85693359375</ele>
        <time>2013-06-15T13:57:10Z</time>
      </trkpt>
      <trkpt lat="47.661690535023808" lon="11.4888119045645">
        <ele>1225.33740234375</ele>
        <time>2013-06-15T13:57:19Z</time>
      </trkpt>
      <trkpt lat="47.661672346293926" lon="11.488827913999557">
        <ele>1226.298828125</ele>
        <time>2013-06-15T13:57:27Z</time>
      </trkpt>
      <trkpt lat="47.661649128422141" lon="11.488816514611244">
        <ele>1228.2216796875</ele>
        <time>2013-06-15T13:57:35Z</time>
      </trkpt>
      <trkpt lat="47.661618618294597" lon="11.48885440081358">
        <ele>1228.702392578125</ele>
        <time>2013-06-15T13:57:44Z</time>
      </trkpt>
      <trkpt lat="47.661548294126987" lon="11.488927574828267">
        <ele>1230.625</ele>
        <time>2013-06-15T13:57:54Z</time>
      </trkpt>
      <trkpt lat="47.661520466208458" lon="11.488961856812239">
        <ele>1232.06689453125</ele>
        <time>2013-06-15T13:58:04Z</time>
      </trkpt>
      <trkpt lat="47.66152105294168" lon="11.488991277292371">
        <ele>1232.06689453125</ele>
        <time>2013-06-15T13:58:26Z</time>
      </trkpt>
      <trkpt lat="47.661549299955368" lon="11.489012818783522">
        <ele>1233.5087890625</ele>
        <time>2013-06-15T13:58:46Z</time>
      </trkpt>
      <trkpt lat="47.661561537533998" lon="11.489078029990196">
        <ele>1236.392822265625</ele>
        <time>2013-06-15T13:58:57Z</time>
      </trkpt>
      <trkpt lat="47.661593640223145" lon="11.489138212054968">
        <ele>1238.3154296875</ele>
        <time>2013-06-15T13:59:08Z</time>
      </trkpt>
      <trkpt lat="47.661526501178741" lon="11.489182217046618">
        <ele>1241.679931640625</ele>
        <time>2013-06-15T13:59:35Z</time>
      </trkpt>
      <trkpt lat="47.661527758464217" lon="11.489187078550458">
        <ele>1241.679931640625</ele>
        <time>2013-06-15T13:59:36Z</time>
      </trkpt>
      <trkpt lat="47.66153278760612" lon="11.489167883992195">
        <ele>1242.641357421875</ele>
        <time>2013-06-15T13:59:48Z</time>
      </trkpt>
      <trkpt lat="47.661514766514301" lon="11.489132512360811">
        <ele>1244.08349609375</ele>
        <time>2013-06-15T14:00:08Z</time>
      </trkpt>
      <trkpt lat="47.661504540592432" lon="11.489141313359141">
        <ele>1246.96728515625</ele>
        <time>2013-06-15T14:00:23Z</time>
      </trkpt>
      <trkpt lat="47.661511916667223" lon="11.489072497934103">
        <ele>1248.889892578125</ele>
        <time>2013-06-15T14:00:34Z</time>
      </trkpt>
      <trkpt lat="47.661540498957038" lon="11.489064367488027">
        <ele>1250.33203125</ele>
        <time>2013-06-15T14:00:49Z</time>
      </trkpt>
      <trkpt lat="47.661528093740344" lon="11.489128991961479">
        <ele>1250.8125</ele>
        <time>2013-06-15T14:00:58Z</time>
      </trkpt>
      <trkpt lat="47.661485429853201" lon="11.489211386069655">
        <ele>1253.696533203125</ele>
        <time>2013-06-15T14:01:13Z</time>
      </trkpt>
      <trkpt lat="47.661435473710299" lon="11.489171152934432">
        <ele>1256.099609375</ele>
        <time>2013-06-15T14:01:26Z</time>
      </trkpt>
      <trkpt lat="47.661402365192771" lon="11.489178529009223">
        <ele>1259.46435546875</ele>
        <time>2013-06-15T14:01:43Z</time>
      </trkpt>
      <trkpt lat="47.661223663017154" lon="11.489182552322745">
        <ele>1262.348388671875</ele>
        <time>2013-06-15T14:01:57Z</time>
      </trkpt>
      <trkpt lat="47.661155182868242" lon="11.489152293652296">
        <ele>1264.27099609375</ele>
        <time>2013-06-15T14:02:10Z</time>
      </trkpt>
      <trkpt lat="47.661069016903639" lon="11.489074928686023">
        <ele>1267.155029296875</ele>
        <time>2013-06-15T14:02:24Z</time>
      </trkpt>
      <trkpt lat="47.660964159294963" lon="11.489087417721748">
        <ele>1270.038818359375</ele>
        <time>2013-06-15T14:02:36Z</time>
      </trkpt>
      <trkpt lat="47.660985616967082" lon="11.489057159051299">
        <ele>1272.9228515625</ele>
        <time>2013-06-15T14:02:57Z</time>
      </trkpt>
      <trkpt lat="47.660885453224182" lon="11.48888323456049">
        <ele>1274.845458984375</ele>
        <time>2013-06-15T14:03:18Z</time>
      </trkpt>
      <trkpt lat="47.660671379417181" lon="11.488797068595886">
        <ele>1275.806640625</ele>
        <time>2013-06-15T14:03:28Z</time>
      </trkpt>
      <trkpt lat="47.660499885678291" lon="11.488829255104065">
        <ele>1277.7294921875</ele>
        <time>2013-06-15T14:03:38Z</time>
      </trkpt>
      <trkpt lat="47.660471890121698" lon="11.488821459934115">
        <ele>1278.210205078125</ele>
        <time>2013-06-15T14:03:42Z</time>
      </trkpt>
      <trkpt lat="47.660391088575125" lon="11.488759685307741">
        <ele>1280.1328125</ele>
        <time>2013-06-15T14:03:55Z</time>
      </trkpt>
      <trkpt lat="47.660318417474627" lon="11.48870537057519">
        <ele>1282.5361328125</ele>
        <time>2013-06-15T14:04:05Z</time>
      </trkpt>
      <trkpt lat="47.660268042236567" lon="11.488685421645641">
        <ele>1284.458740234375</ele>
        <time>2013-06-15T14:04:20Z</time>
      </trkpt>
      <trkpt lat="47.660277597606182" lon="11.488579642027617">
        <ele>1284.939453125</ele>
        <time>2013-06-15T14:04:29Z</time>
      </trkpt>
      <trkpt lat="47.660274244844913" lon="11.48848744109273">
        <ele>1286.38134765625</ele>
        <time>2013-06-15T14:04:41Z</time>
      </trkpt>
      <trkpt lat="47.660191431641579" lon="11.488516023382545">
        <ele>1288.78466796875</ele>
        <time>2013-06-15T14:04:54Z</time>
      </trkpt>
      <trkpt lat="47.660052962601185" lon="11.488562794402242">
        <ele>1290.2265625</ele>
        <time>2013-06-15T14:05:05Z</time>
      </trkpt>
      <trkpt lat="47.659995881840587" lon="11.488462798297405">
        <ele>1291.66845703125</ele>
        <time>2013-06-15T14:05:17Z</time>
      </trkpt>
      <trkpt lat="47.660049609839916" lon="11.488242605701089">
        <ele>1293.110595703125</ele>
        <time>2013-06-15T14:05:28Z</time>
      </trkpt>
      <trkpt lat="47.660071570426226" lon="11.488097598776221">
        <ele>1293.59130859375</ele>
        <time>2013-06-15T14:05:40Z</time>
      </trkpt>
      <trkpt lat="47.660049442201853" lon="11.488020066171885">
        <ele>1294.552490234375</ele>
        <time>2013-06-15T14:05:50Z</time>
      </trkpt>
      <trkpt lat="47.660058997571468" lon="11.487999698147178">
        <ele>1295.033203125</ele>
        <time>2013-06-15T14:06:12Z</time>
      </trkpt>
      <trkpt lat="47.660070648416877" lon="11.488005481660366">
        <ele>1294.552490234375</ele>
        <time>2013-06-15T14:06:35Z</time>
      </trkpt>
      <trkpt lat="47.66007618047297" lon="11.487950161099434">
        <ele>1295.99462890625</ele>
        <time>2013-06-15T14:06:45Z</time>
      </trkpt>
      <trkpt lat="47.660065032541752" lon="11.487899199128151">
        <ele>1296.475341796875</ele>
        <time>2013-06-15T14:06:52Z</time>
      </trkpt>
      <trkpt lat="47.6600331813097" lon="11.487836167216301">
        <ele>1297.917236328125</ele>
        <time>2013-06-15T14:07:01Z</time>
      </trkpt>
      <trkpt lat="47.660051202401519" lon="11.487720077857375">
        <ele>1299.359130859375</ele>
        <time>2013-06-15T14:07:10Z</time>
      </trkpt>
      <trkpt lat="47.660043742507696" lon="11.487614633515477">
        <ele>1301.28173828125</ele>
        <time>2013-06-15T14:07:20Z</time>
      </trkpt>
      <trkpt lat="47.66003267839551" lon="11.487531485036016">
        <ele>1302.7236328125</ele>
        <time>2013-06-15T14:07:29Z</time>
      </trkpt>
      <trkpt lat="47.660034019500017" lon="11.487501813098788">
        <ele>1303.68505859375</ele>
        <time>2013-06-15T14:07:32Z</time>
      </trkpt>
      <trkpt lat="47.660041395574808" lon="11.487456802278757">
        <ele>1304.646240234375</ele>
        <time>2013-06-15T14:07:39Z</time>
      </trkpt>
      <trkpt lat="47.660018429160118" lon="11.487397206947207">
        <ele>1306.088134765625</ele>
        <time>2013-06-15T14:07:47Z</time>
      </trkpt>
      <trkpt lat="47.66001314856112" lon="11.487361583858728">
        <ele>1306.56884765625</ele>
        <time>2013-06-15T14:07:51Z</time>
      </trkpt>
      <trkpt lat="47.660017674788833" lon="11.487262090668082">
        <ele>1308.972412109375</ele>
        <time>2013-06-15T14:08:01Z</time>
      </trkpt>
      <trkpt lat="47.660037539899349" lon="11.487188162282109">
        <ele>1309.453125</ele>
        <time>2013-06-15T14:08:10Z</time>
      </trkpt>
      <trkpt lat="47.660042736679316" lon="11.487122448161244">
        <ele>1310.89501953125</ele>
        <time>2013-06-15T14:08:17Z</time>
      </trkpt>
      <trkpt lat="47.660107025876641" lon="11.487041227519512">
        <ele>1313.29833984375</ele>
        <time>2013-06-15T14:08:27Z</time>
      </trkpt>
      <trkpt lat="47.660108702257276" lon="11.486986242234707">
        <ele>1314.259521484375</ele>
        <time>2013-06-15T14:08:35Z</time>
      </trkpt>
      <trkpt lat="47.660047682002187" lon="11.486901501193643">
        <ele>1315.70166015625</ele>
        <time>2013-06-15T14:08:44Z</time>
      </trkpt>
      <trkpt lat="47.660015914589167" lon="11.486841151490808">
        <ele>1316.18212890625</ele>
        <time>2013-06-15T14:08:52Z</time>
      </trkpt>
      <trkpt lat="47.65999311581254" lon="11.48674157448113">
        <ele>1317.6240234375</ele>
        <time>2013-06-15T14:09:01Z</time>
      </trkpt>
      <trkpt lat="47.659941986203194" lon="11.486624730750918">
        <ele>1319.066162109375</ele>
        <time>2013-06-15T14:09:09Z</time>
      </trkpt>
      <trkpt lat="47.659910973161459" lon="11.486545354127884">
        <ele>1320.02734375</ele>
        <time>2013-06-15T14:09:17Z</time>
      </trkpt>
      <trkpt lat="47.659893287345767" lon="11.486430438235402">
        <ele>1321.949951171875</ele>
        <time>2013-06-15T14:09:27Z</time>
      </trkpt>
      <trkpt lat="47.659866129979491" lon="11.486289538443089">
        <ele>1323.87255859375</ele>
        <time>2013-06-15T14:09:38Z</time>
      </trkpt>
      <trkpt lat="47.659854562953115" lon="11.486172024160624">
        <ele>1325.314697265625</ele>
        <time>2013-06-15T14:09:47Z</time>
      </trkpt>
      <trkpt lat="47.65980745665729" lon="11.486104382202029">
        <ele>1325.79541015625</ele>
        <time>2013-06-15T14:09:55Z</time>
      </trkpt>
      <trkpt lat="47.659750292077661" lon="11.486029364168644">
        <ele>1326.7568359375</ele>
        <time>2013-06-15T14:10:03Z</time>
      </trkpt>
      <trkpt lat="47.659649457782507" lon="11.485897433012724">
        <ele>1328.19873046875</ele>
        <time>2013-06-15T14:10:17Z</time>
      </trkpt>
      <trkpt lat="47.659579301252961" lon="11.485783271491528">
        <ele>1331.082763671875</ele>
        <time>2013-06-15T14:10:28Z</time>
      </trkpt>
      <trkpt lat="47.659523896872997" lon="11.485708002001047">
        <ele>1332.524658203125</ele>
        <time>2013-06-15T14:10:37Z</time>
      </trkpt>
      <trkpt lat="47.659517610445619" lon="11.485699201002717">
        <ele>1332.524658203125</ele>
        <time>2013-06-15T14:10:38Z</time>
      </trkpt>
      <trkpt lat="47.659400766715407" lon="11.485629379749298">
        <ele>1333.005126953125</ele>
        <time>2013-06-15T14:10:50Z</time>
      </trkpt>
      <trkpt lat="47.659358102828264" lon="11.485536089166999">
        <ele>1334.447265625</ele>
        <time>2013-06-15T14:10:59Z</time>
      </trkpt>
      <trkpt lat="47.659328263252974" lon="11.485509015619755">
        <ele>1334.447265625</ele>
        <time>2013-06-15T14:11:03Z</time>
      </trkpt>
      <trkpt lat="47.659282246604562" lon="11.485419245436788">
        <ele>1334.447265625</ele>
        <time>2013-06-15T14:11:11Z</time>
      </trkpt>
      <trkpt lat="47.659206474199891" lon="11.485324781388044">
        <ele>1335.88916015625</ele>
        <time>2013-06-15T14:11:21Z</time>
      </trkpt>
      <trkpt lat="47.659127600491047" lon="11.485398123040795">
        <ele>1336.369873046875</ele>
        <time>2013-06-15T14:11:31Z</time>
      </trkpt>
      <trkpt lat="47.659076135605574" lon="11.485408013686538">
        <ele>1335.88916015625</ele>
        <time>2013-06-15T14:11:37Z</time>
      </trkpt>
      <trkpt lat="47.659041183069348" lon="11.485439110547304">
        <ele>1337.3310546875</ele>
        <time>2013-06-15T14:11:41Z</time>
      </trkpt>
      <trkpt lat="47.658922914415598" lon="11.485522175207734">
        <ele>1338.29248046875</ele>
        <time>2013-06-15T14:11:53Z</time>
      </trkpt>
      <trkpt lat="47.658880334347486" lon="11.485524103045464">
        <ele>1336.850341796875</ele>
        <time>2013-06-15T14:11:57Z</time>
      </trkpt>
      <trkpt lat="47.65874513424933" lon="11.485430728644133">
        <ele>1337.811767578125</ele>
        <time>2013-06-15T14:12:09Z</time>
      </trkpt>
      <trkpt lat="47.658687215298414" lon="11.485427711158991">
        <ele>1339.253662109375</ele>
        <time>2013-06-15T14:12:16Z</time>
      </trkpt>
      <trkpt lat="47.658642875030637" lon="11.485493509098887">
        <ele>1341.176513671875</ele>
        <time>2013-06-15T14:12:24Z</time>
      </trkpt>
      <trkpt lat="47.658631559461355" lon="11.485603982582688">
        <ele>1341.176513671875</ele>
        <time>2013-06-15T14:12:32Z</time>
      </trkpt>
      <trkpt lat="47.658587722107768" lon="11.48572476580739">
        <ele>1341.6572265625</ele>
        <time>2013-06-15T14:12:42Z</time>
      </trkpt>
      <trkpt lat="47.658578669652343" lon="11.485840100795031">
        <ele>1343.09912109375</ele>
        <time>2013-06-15T14:12:51Z</time>
      </trkpt>
      <trkpt lat="47.658544387668371" lon="11.485932637006044">
        <ele>1344.541015625</ele>
        <time>2013-06-15T14:13:00Z</time>
      </trkpt>
      <trkpt lat="47.658507842570543" lon="11.485993573442101">
        <ele>1344.541015625</ele>
        <time>2013-06-15T14:13:07Z</time>
      </trkpt>
      <trkpt lat="47.658493760973215" lon="11.48601888678968">
        <ele>1344.541015625</ele>
        <time>2013-06-15T14:13:15Z</time>
      </trkpt>
      <trkpt lat="47.658502142876387" lon="11.486025676131248">
        <ele>1344.060546875</ele>
        <time>2013-06-15T14:13:17Z</time>
      </trkpt>
      <trkpt lat="47.65855411067605" lon="11.486107148230076">
        <ele>1345.50244140625</ele>
        <time>2013-06-15T14:13:27Z</time>
      </trkpt>
      <trkpt lat="47.658572634682059" lon="11.486173532903194">
        <ele>1346.9443359375</ele>
        <time>2013-06-15T14:13:35Z</time>
      </trkpt>
      <trkpt lat="47.658591577783227" lon="11.486262045800686">
        <ele>1347.90576171875</ele>
        <time>2013-06-15T14:13:44Z</time>
      </trkpt>
      <trkpt lat="47.658621333539486" lon="11.486265901476145">
        <ele>1348.38623046875</ele>
        <time>2013-06-15T14:13:53Z</time>
      </trkpt>
      <trkpt lat="47.658616220578551" lon="11.486333627253771">
        <ele>1350.78955078125</ele>
        <time>2013-06-15T14:14:02Z</time>
      </trkpt>
      <trkpt lat="47.658581184223294" lon="11.48640738800168">
        <ele>1351.270263671875</ele>
        <time>2013-06-15T14:14:12Z</time>
      </trkpt>
      <trkpt lat="47.658549835905433" lon="11.486477879807353">
        <ele>1352.712158203125</ele>
        <time>2013-06-15T14:14:22Z</time>
      </trkpt>
      <trkpt lat="47.658500215038657" lon="11.486529177054763">
        <ele>1354.634765625</ele>
        <time>2013-06-15T14:14:31Z</time>
      </trkpt>
      <trkpt lat="47.658484876155853" lon="11.486590029671788">
        <ele>1355.59619140625</ele>
        <time>2013-06-15T14:14:43Z</time>
      </trkpt>
      <trkpt lat="47.658451683819294" lon="11.486615678295493">
        <ele>1357.51904296875</ele>
        <time>2013-06-15T14:14:52Z</time>
      </trkpt>
      <trkpt lat="47.658377084881067" lon="11.486645098775625">
        <ele>1358.480224609375</ele>
        <time>2013-06-15T14:15:02Z</time>
      </trkpt>
      <trkpt lat="47.658300390467048" lon="11.486676782369614">
        <ele>1358.9609375</ele>
        <time>2013-06-15T14:15:12Z</time>
      </trkpt>
      <trkpt lat="47.658287985250354" lon="11.486746435984969">
        <ele>1360.883544921875</ele>
        <time>2013-06-15T14:15:22Z</time>
      </trkpt>
      <trkpt lat="47.658235933631659" lon="11.486817765980959">
        <ele>1362.325439453125</ele>
        <time>2013-06-15T14:15:32Z</time>
      </trkpt>
      <trkpt lat="47.658181535080075" lon="11.486889347434044">
        <ele>1363.767333984375</ele>
        <time>2013-06-15T14:15:43Z</time>
      </trkpt>
      <trkpt lat="47.658148510381579" lon="11.486991606652737">
        <ele>1364.728759765625</ele>
        <time>2013-06-15T14:15:55Z</time>
      </trkpt>
      <trkpt lat="47.658085394650698" lon="11.487094787880778">
        <ele>1367.132080078125</ele>
        <time>2013-06-15T14:16:09Z</time>
      </trkpt>
      <trkpt lat="47.658111797645688" lon="11.487211296334863">
        <ele>1369.0546875</ele>
        <time>2013-06-15T14:16:23Z</time>
      </trkpt>
      <trkpt lat="47.658105930313468" lon="11.487255804240704">
        <ele>1370.015869140625</ele>
        <time>2013-06-15T14:16:28Z</time>
      </trkpt>
      <trkpt lat="47.658032923936844" lon="11.487308358773589">
        <ele>1370.49658203125</ele>
        <time>2013-06-15T14:16:40Z</time>
      </trkpt>
      <trkpt lat="47.658056812360883" lon="11.487412210553885">
        <ele>1372.900146484375</ele>
        <time>2013-06-15T14:16:52Z</time>
      </trkpt>
      <trkpt lat="47.658059326931834" lon="11.487440960481763">
        <ele>1372.41943359375</ele>
        <time>2013-06-15T14:16:59Z</time>
      </trkpt>
      <trkpt lat="47.65806402079761" lon="11.487492341548204">
        <ele>1372.900146484375</ele>
        <time>2013-06-15T14:17:09Z</time>
      </trkpt>
      <trkpt lat="47.658063182607293" lon="11.487491838634014">
        <ele>1372.900146484375</ele>
        <time>2013-06-15T14:18:06Z</time>
      </trkpt>
      <trkpt lat="47.658064356073737" lon="11.487493515014648">
        <ele>1371.9384765625</ele>
        <time>2013-06-15T14:19:01Z</time>
      </trkpt>
      <trkpt lat="47.658065026625991" lon="11.48749410174787">
        <ele>1371.457763671875</ele>
        <time>2013-06-15T14:19:08Z</time>
      </trkpt>
      <trkpt lat="47.658063601702452" lon="11.487492509186268">
        <ele>1355.59619140625</ele>
        <time>2013-06-16T06:24:30Z</time>
      </trkpt>
      <trkpt lat="47.6580801140517" lon="11.487527964636683">
        <ele>1333.966552734375</ele>
        <time>2013-06-16T06:25:04Z</time>
      </trkpt>
      <trkpt lat="47.658133506774902" lon="11.487440122291446">
        <ele>1337.811767578125</ele>
        <time>2013-06-16T06:25:15Z</time>
      </trkpt>
      <trkpt lat="47.658135937526822" lon="11.487438278272748">
        <ele>1337.811767578125</ele>
        <time>2013-06-16T06:25:16Z</time>
      </trkpt>
      <trkpt lat="47.658144906163216" lon="11.487439787015319">
        <ele>1341.176513671875</ele>
        <time>2013-06-16T06:25:20Z</time>
      </trkpt>
      <trkpt lat="47.658149180933833" lon="11.487439535558224">
        <ele>1343.09912109375</ele>
        <time>2013-06-16T06:25:22Z</time>
      </trkpt>
      <trkpt lat="47.658150102943182" lon="11.487442133948207">
        <ele>1345.50244140625</ele>
        <time>2013-06-16T06:25:25Z</time>
      </trkpt>
      <trkpt lat="47.658114060759544" lon="11.487472141161561">
        <ele>1348.38623046875</ele>
        <time>2013-06-16T06:25:29Z</time>
      </trkpt>
      <trkpt lat="47.658092519268394" lon="11.487490413710475">
        <ele>1350.30908203125</ele>
        <time>2013-06-16T06:25:32Z</time>
      </trkpt>
      <trkpt lat="47.658071061596274" lon="11.487509021535516">
        <ele>1352.2314453125</ele>
        <time>2013-06-16T06:25:35Z</time>
      </trkpt>
      <trkpt lat="47.658060248941183" lon="11.487514972686768">
        <ele>1353.673583984375</ele>
        <time>2013-06-16T06:25:38Z</time>
      </trkpt>
      <trkpt lat="47.658053208142519" lon="11.48752142675221">
        <ele>1357.51904296875</ele>
        <time>2013-06-16T06:25:43Z</time>
      </trkpt>
      <trkpt lat="47.658051867038012" lon="11.487521845847368">
        <ele>1357.51904296875</ele>
        <time>2013-06-16T06:25:44Z</time>
      </trkpt>
      <trkpt lat="47.658051531761885" lon="11.487522767856717">
        <ele>1360.883544921875</ele>
        <time>2013-06-16T06:25:53Z</time>
      </trkpt>
      <trkpt lat="47.658062428236008" lon="11.487522516399622">
        <ele>1364.248046875</ele>
        <time>2013-06-16T06:26:05Z</time>
      </trkpt>
      <trkpt lat="47.658060332760215" lon="11.487521594390273">
        <ele>1367.612548828125</ele>
        <time>2013-06-16T06:26:24Z</time>
      </trkpt>
      <trkpt lat="47.658059829846025" lon="11.487519331276417">
        <ele>1370.49658203125</ele>
        <time>2013-06-16T06:26:56Z</time>
      </trkpt>
      <trkpt lat="47.658045832067728" lon="11.487482618540525">
        <ele>1370.49658203125</ele>
        <time>2013-06-16T06:28:53Z</time>
      </trkpt>
      <trkpt lat="47.65798095613718" lon="11.487379102036357">
        <ele>1370.49658203125</ele>
        <time>2013-06-16T06:29:03Z</time>
      </trkpt>
      <trkpt lat="47.65792865306139" lon="11.487368457019329">
        <ele>1372.41943359375</ele>
        <time>2013-06-16T06:29:15Z</time>
      </trkpt>
      <trkpt lat="47.657927814871073" lon="11.487335935235023">
        <ele>1372.900146484375</ele>
        <time>2013-06-16T06:29:20Z</time>
      </trkpt>
      <trkpt lat="47.657853802666068" lon="11.487309113144875">
        <ele>1374.82275390625</ele>
        <time>2013-06-16T06:29:29Z</time>
      </trkpt>
      <trkpt lat="47.657832931727171" lon="11.487292097881436">
        <ele>1373.861328125</ele>
        <time>2013-06-16T06:29:39Z</time>
      </trkpt>
      <trkpt lat="47.657793033868074" lon="11.487262425944209">
        <ele>1375.783935546875</ele>
        <time>2013-06-16T06:31:28Z</time>
      </trkpt>
      <trkpt lat="47.657738970592618" lon="11.48727223277092">
        <ele>1377.70654296875</ele>
        <time>2013-06-16T06:31:37Z</time>
      </trkpt>
      <trkpt lat="47.657704940065742" lon="11.487249098718166">
        <ele>1379.1484375</ele>
        <time>2013-06-16T06:31:43Z</time>
      </trkpt>
      <trkpt lat="47.657683817669749" lon="11.487331073731184">
        <ele>1381.5517578125</ele>
        <time>2013-06-16T06:31:52Z</time>
      </trkpt>
      <trkpt lat="47.657637801021338" lon="11.487404918298125">
        <ele>1383.474365234375</ele>
        <time>2013-06-16T06:32:02Z</time>
      </trkpt>
      <trkpt lat="47.657628580927849" lon="11.487405756488442">
        <ele>1383.474365234375</ele>
        <time>2013-06-16T06:32:03Z</time>
      </trkpt>
      <trkpt lat="47.657548533752561" lon="11.487376755103469">
        <ele>1384.91650390625</ele>
        <time>2013-06-16T06:32:11Z</time>
      </trkpt>
      <trkpt lat="47.65749916434288" lon="11.487368624657393">
        <ele>1386.8388671875</ele>
        <time>2013-06-16T06:32:18Z</time>
      </trkpt>
      <trkpt lat="47.657486340031028" lon="11.487413048744202">
        <ele>1387.80029296875</ele>
        <time>2013-06-16T06:32:25Z</time>
      </trkpt>
      <trkpt lat="47.657466977834702" lon="11.487459233030677">
        <ele>1389.72314453125</ele>
        <time>2013-06-16T06:32:33Z</time>
      </trkpt>
      <trkpt lat="47.657458512112498" lon="11.487519331276417">
        <ele>1391.1650390625</ele>
        <time>2013-06-16T06:32:43Z</time>
      </trkpt>
      <trkpt lat="47.65748105943203" lon="11.487555373460054">
        <ele>1391.645751953125</ele>
        <time>2013-06-16T06:32:48Z</time>
      </trkpt>
      <trkpt lat="47.657479718327522" lon="11.487633995711803">
        <ele>1393.087646484375</ele>
        <time>2013-06-16T06:32:57Z</time>
      </trkpt>
      <trkpt lat="47.657437892630696" lon="11.487684957683086">
        <ele>1395.01025390625</ele>
        <time>2013-06-16T06:33:04Z</time>
      </trkpt>
      <trkpt lat="47.657344937324524" lon="11.487760646268725">
        <ele>1396.932861328125</ele>
        <time>2013-06-16T06:33:16Z</time>
      </trkpt>
      <trkpt lat="47.657271679490805" lon="11.487801214680076">
        <ele>1396.932861328125</ele>
        <time>2013-06-16T06:33:24Z</time>
      </trkpt>
      <trkpt lat="47.657243432477117" lon="11.487806160002947">
        <ele>1398.374755859375</ele>
        <time>2013-06-16T06:33:28Z</time>
      </trkpt>
      <trkpt lat="47.657155673950911" lon="11.487772213295102">
        <ele>1399.336181640625</ele>
        <time>2013-06-16T06:33:39Z</time>
      </trkpt>
      <trkpt lat="47.657059114426374" lon="11.487748911604285">
        <ele>1401.2587890625</ele>
        <time>2013-06-16T06:33:49Z</time>
      </trkpt>
      <trkpt lat="47.656963560730219" lon="11.487726783379912">
        <ele>1404.14306640625</ele>
        <time>2013-06-16T06:34:00Z</time>
      </trkpt>
      <trkpt lat="47.656829785555601" lon="11.487729297950864">
        <ele>1405.5849609375</ele>
        <time>2013-06-16T06:34:12Z</time>
      </trkpt>
      <trkpt lat="47.656707912683487" lon="11.487753102555871">
        <ele>1406.546142578125</ele>
        <time>2013-06-16T06:34:23Z</time>
      </trkpt>
      <trkpt lat="47.656655944883823" lon="11.487767435610294">
        <ele>1406.546142578125</ele>
        <time>2013-06-16T06:34:31Z</time>
      </trkpt>
      <trkpt lat="47.65657321549952" lon="11.487766010686755">
        <ele>1407.02685546875</ele>
        <time>2013-06-16T06:34:40Z</time>
      </trkpt>
      <trkpt lat="47.656548572704196" lon="11.487763915210962">
        <ele>1407.507568359375</ele>
        <time>2013-06-16T06:34:42Z</time>
      </trkpt>
      <trkpt lat="47.656502556055784" lon="11.487779086455703">
        <ele>1407.98828125</ele>
        <time>2013-06-16T06:34:46Z</time>
      </trkpt>
      <trkpt lat="47.656401554122567" lon="11.487915879115462">
        <ele>1410.391357421875</ele>
        <time>2013-06-16T06:34:57Z</time>
      </trkpt>
      <trkpt lat="47.656312370672822" lon="11.487897941842675">
        <ele>1410.8720703125</ele>
        <time>2013-06-16T06:35:05Z</time>
      </trkpt>
      <trkpt lat="47.656222516670823" lon="11.487907497212291">
        <ele>1411.83349609375</ele>
        <time>2013-06-16T06:35:13Z</time>
      </trkpt>
      <trkpt lat="47.656077761203051" lon="11.487894086167216">
        <ele>1412.794677734375</ele>
        <time>2013-06-16T06:35:24Z</time>
      </trkpt>
      <trkpt lat="47.655997630208731" lon="11.487896097823977">
        <ele>1414.236572265625</ele>
        <time>2013-06-16T06:35:32Z</time>
      </trkpt>
      <trkpt lat="47.655949685722589" lon="11.487839268520474">
        <ele>1416.1591796875</ele>
        <time>2013-06-16T06:35:43Z</time>
      </trkpt>
      <trkpt lat="47.655910542234778" lon="11.487800041213632">
        <ele>1418.081787109375</ele>
        <time>2013-06-16T06:35:53Z</time>
      </trkpt>
      <trkpt lat="47.655862178653479" lon="11.487778751179576">
        <ele>1420.004638671875</ele>
        <time>2013-06-16T06:36:05Z</time>
      </trkpt>
      <trkpt lat="47.655814988538623" lon="11.487697279080749">
        <ele>1423.369384765625</ele>
        <time>2013-06-16T06:36:17Z</time>
      </trkpt>
      <trkpt lat="47.655792525038123" lon="11.487693507224321">
        <ele>1424.33056640625</ele>
        <time>2013-06-16T06:36:27Z</time>
      </trkpt>
      <trkpt lat="47.655771905556321" lon="11.48771052248776">
        <ele>1425.7724609375</ele>
        <time>2013-06-16T06:36:37Z</time>
      </trkpt>
      <trkpt lat="47.655730498954654" lon="11.487745894119143">
        <ele>1428.17578125</ele>
        <time>2013-06-16T06:36:48Z</time>
      </trkpt>
      <trkpt lat="47.655675262212753" lon="11.487756706774235">
        <ele>1430.098388671875</ele>
        <time>2013-06-16T06:36:58Z</time>
      </trkpt>
      <trkpt lat="47.65563209541142" lon="11.487776655703783">
        <ele>1431.540283203125</ele>
        <time>2013-06-16T06:37:10Z</time>
      </trkpt>
      <trkpt lat="47.655615080147982" lon="11.487774644047022">
        <ele>1432.982177734375</ele>
        <time>2013-06-16T06:37:13Z</time>
      </trkpt>
      <trkpt lat="47.655577613040805" lon="11.487784702330828">
        <ele>1434.42431640625</ele>
        <time>2013-06-16T06:37:22Z</time>
      </trkpt>
      <trkpt lat="47.655545175075531" lon="11.487784702330828">
        <ele>1436.34716796875</ele>
        <time>2013-06-16T06:37:32Z</time>
      </trkpt>
      <trkpt lat="47.65551726333797" lon="11.4878033939749">
        <ele>1436.82763671875</ele>
        <time>2013-06-16T06:37:40Z</time>
      </trkpt>
      <trkpt lat="47.65547719784081" lon="11.487833149731159">
        <ele>1438.75048828125</ele>
        <time>2013-06-16T06:37:48Z</time>
      </trkpt>
      <trkpt lat="47.655449705198407" lon="11.487839939072728">
        <ele>1439.711669921875</ele>
        <time>2013-06-16T06:37:56Z</time>
      </trkpt>
      <trkpt lat="47.655427493155003" lon="11.487835999578238">
        <ele>1440.6728515625</ele>
        <time>2013-06-16T06:38:05Z</time>
      </trkpt>
      <trkpt lat="47.655410310253501" lon="11.487831389531493">
        <ele>1440.6728515625</ele>
        <time>2013-06-16T06:38:13Z</time>
      </trkpt>
      <trkpt lat="47.655377117916942" lon="11.487843375653028">
        <ele>1443.556884765625</ele>
        <time>2013-06-16T06:38:22Z</time>
      </trkpt>
      <trkpt lat="47.655341075733304" lon="11.487824935466051">
        <ele>1444.998779296875</ele>
        <time>2013-06-16T06:38:31Z</time>
      </trkpt>
      <trkpt lat="47.655318863689899" lon="11.487783612683415">
        <ele>1447.402099609375</ele>
        <time>2013-06-16T06:38:42Z</time>
      </trkpt>
      <trkpt lat="47.655303943902254" lon="11.487780176103115">
        <ele>1448.843994140625</ele>
        <time>2013-06-16T06:38:51Z</time>
      </trkpt>
      <trkpt lat="47.655300507321954" lon="11.487691830843687">
        <ele>1450.2861328125</ele>
        <time>2013-06-16T06:39:03Z</time>
      </trkpt>
      <trkpt lat="47.655324228107929" lon="11.48758789524436">
        <ele>1452.208740234375</ele>
        <time>2013-06-16T06:39:16Z</time>
      </trkpt>
      <trkpt lat="47.655277037993073" lon="11.487592337653041">
        <ele>1453.65087890625</ele>
        <time>2013-06-16T06:39:27Z</time>
      </trkpt>
      <trkpt lat="47.655236888676882" lon="11.487609017640352">
        <ele>1455.0927734375</ele>
        <time>2013-06-16T06:39:38Z</time>
      </trkpt>
      <trkpt lat="47.655216101557016" lon="11.48761086165905">
        <ele>1456.53466796875</ele>
        <time>2013-06-16T06:39:46Z</time>
      </trkpt>
      <trkpt lat="47.65522850677371" lon="11.487536765635014">
        <ele>1457.976806640625</ele>
        <time>2013-06-16T06:39:56Z</time>
      </trkpt>
      <trkpt lat="47.655227668583393" lon="11.487510027363896">
        <ele>1458.93798828125</ele>
        <time>2013-06-16T06:40:00Z</time>
      </trkpt>
      <trkpt lat="47.655195398256183" lon="11.487526791170239">
        <ele>1460.3798828125</ele>
        <time>2013-06-16T06:40:12Z</time>
      </trkpt>
      <trkpt lat="47.655202439054847" lon="11.487475158646703">
        <ele>1461.822021484375</ele>
        <time>2013-06-16T06:40:21Z</time>
      </trkpt>
      <trkpt lat="47.655232278630137" lon="11.487374659627676">
        <ele>1464.22509765625</ele>
        <time>2013-06-16T06:40:33Z</time>
      </trkpt>
      <trkpt lat="47.655201433226466" lon="11.487364266067743">
        <ele>1465.1865234375</ele>
        <time>2013-06-16T06:40:42Z</time>
      </trkpt>
      <trkpt lat="47.655215179547668" lon="11.487307772040367">
        <ele>1466.62841796875</ele>
        <time>2013-06-16T06:40:50Z</time>
      </trkpt>
      <trkpt lat="47.655189111828804" lon="11.487287068739533">
        <ele>1468.55126953125</ele>
        <time>2013-06-16T06:40:59Z</time>
      </trkpt>
      <trkpt lat="47.655207552015781" lon="11.487204423174262">
        <ele>1469.031982421875</ele>
        <time>2013-06-16T06:41:09Z</time>
      </trkpt>
      <trkpt lat="47.655220879241824" lon="11.487137787044048">
        <ele>1471.43505859375</ele>
        <time>2013-06-16T06:41:22Z</time>
      </trkpt>
      <trkpt lat="47.655231188982725" lon="11.487084645777941">
        <ele>1473.35791015625</ele>
        <time>2013-06-16T06:41:32Z</time>
      </trkpt>
      <trkpt lat="47.655227920040488" lon="11.487039215862751">
        <ele>1474.319091796875</ele>
        <time>2013-06-16T06:41:44Z</time>
      </trkpt>
      <trkpt lat="47.655165977776051" lon="11.487046340480447">
        <ele>1475.760986328125</ele>
        <time>2013-06-16T06:41:56Z</time>
      </trkpt>
      <trkpt lat="47.655090875923634" lon="11.487059080973268">
        <ele>1477.68359375</ele>
        <time>2013-06-16T06:42:07Z</time>
      </trkpt>
      <trkpt lat="47.655022814869881" lon="11.487088836729527">
        <ele>1479.12548828125</ele>
        <time>2013-06-16T06:42:19Z</time>
      </trkpt>
      <trkpt lat="47.655016947537661" lon="11.486965119838715">
        <ele>1482.009521484375</ele>
        <time>2013-06-16T06:42:29Z</time>
      </trkpt>
      <trkpt lat="47.655110405758023" lon="11.486819861456752">
        <ele>1482.009521484375</ele>
        <time>2013-06-16T06:42:38Z</time>
      </trkpt>
      <trkpt lat="47.655138401314616" lon="11.486694300547242">
        <ele>1482.490234375</ele>
        <time>2013-06-16T06:42:49Z</time>
      </trkpt>
      <trkpt lat="47.655126918107271" lon="11.486643254756927">
        <ele>1483.451416015625</ele>
        <time>2013-06-16T06:43:01Z</time>
      </trkpt>
      <trkpt lat="47.655100515112281" lon="11.486541582271457">
        <ele>1485.85498046875</ele>
        <time>2013-06-16T06:43:13Z</time>
      </trkpt>
      <trkpt lat="47.655067909508944" lon="11.486534876748919">
        <ele>1487.296875</ele>
        <time>2013-06-16T06:43:26Z</time>
      </trkpt>
      <trkpt lat="47.6550701726228" lon="11.486469162628055">
        <ele>1487.296875</ele>
        <time>2013-06-16T06:43:56Z</time>
      </trkpt>
      <trkpt lat="47.655066903680563" lon="11.486380146816373">
        <ele>1488.739013671875</ele>
        <time>2013-06-16T06:44:05Z</time>
      </trkpt>
      <trkpt lat="47.655066149309278" lon="11.48637025617063">
        <ele>1489.219482421875</ele>
        <time>2013-06-16T06:44:06Z</time>
      </trkpt>
      <trkpt lat="47.655088193714619" lon="11.486191134899855">
        <ele>1490.180908203125</ele>
        <time>2013-06-16T06:44:21Z</time>
      </trkpt>
      <trkpt lat="47.655110573396087" lon="11.486124247312546">
        <ele>1491.622802734375</ele>
        <time>2013-06-16T06:44:31Z</time>
      </trkpt>
      <trkpt lat="47.655110992491245" lon="11.485967840999365">
        <ele>1491.622802734375</ele>
        <time>2013-06-16T06:44:43Z</time>
      </trkpt>
      <trkpt lat="47.655092049390078" lon="11.485831635072827">
        <ele>1492.584228515625</ele>
        <time>2013-06-16T06:44:56Z</time>
      </trkpt>
      <trkpt lat="47.655050223693252" lon="11.485749743878841">
        <ele>1494.026123046875</ele>
        <time>2013-06-16T06:45:08Z</time>
      </trkpt>
      <trkpt lat="47.655046032741666" lon="11.485750330612063">
        <ele>1494.026123046875</ele>
        <time>2013-06-16T06:45:23Z</time>
      </trkpt>
      <trkpt lat="47.655037315562367" lon="11.485731471329927">
        <ele>1494.026123046875</ele>
        <time>2013-06-16T06:45:31Z</time>
      </trkpt>
      <trkpt lat="47.655017366632819" lon="11.485727448016405">
        <ele>1494.506591796875</ele>
        <time>2013-06-16T06:45:36Z</time>
      </trkpt>
      <trkpt lat="47.654930362477899" lon="11.485652262344956">
        <ele>1496.429443359375</ele>
        <time>2013-06-16T06:45:48Z</time>
      </trkpt>
      <trkpt lat="47.654949305579066" lon="11.485525444149971">
        <ele>1494.506591796875</ele>
        <time>2013-06-16T06:45:58Z</time>
      </trkpt>
      <trkpt lat="47.654968919232488" lon="11.485462160781026">
        <ele>1494.026123046875</ele>
        <time>2013-06-16T06:46:04Z</time>
      </trkpt>
      <trkpt lat="47.654936229810119" lon="11.485340539366007">
        <ele>1494.026123046875</ele>
        <time>2013-06-16T06:46:15Z</time>
      </trkpt>
      <trkpt lat="47.654882501810789" lon="11.485159574076533">
        <ele>1495.468017578125</ele>
        <time>2013-06-16T06:46:31Z</time>
      </trkpt>
      <trkpt lat="47.654899768531322" lon="11.484981626272202">
        <ele>1494.506591796875</ele>
        <time>2013-06-16T06:46:44Z</time>
      </trkpt>
      <trkpt lat="47.654901947826147" lon="11.484966790303588">
        <ele>1494.026123046875</ele>
        <time>2013-06-16T06:46:45Z</time>
      </trkpt>
      <trkpt lat="47.654929859563708" lon="11.484779790043831">
        <ele>1493.54541015625</ele>
        <time>2013-06-16T06:47:00Z</time>
      </trkpt>
      <trkpt lat="47.654958022758365" lon="11.484696390107274">
        <ele>1496.909912109375</ele>
        <time>2013-06-16T06:47:12Z</time>
      </trkpt>
      <trkpt lat="47.654961878433824" lon="11.484687505289912">
        <ele>1496.909912109375</ele>
        <time>2013-06-16T06:47:13Z</time>
      </trkpt>
      <trkpt lat="47.654953161254525" lon="11.484579127281904">
        <ele>1500.27490234375</ele>
        <time>2013-06-16T06:47:28Z</time>
      </trkpt>
      <trkpt lat="47.654918879270554" lon="11.484597064554691">
        <ele>1502.677978515625</ele>
        <time>2013-06-16T06:47:38Z</time>
      </trkpt>
      <trkpt lat="47.654905132949352" lon="11.484531937167048">
        <ele>1504.6005859375</ele>
        <time>2013-06-16T06:47:47Z</time>
      </trkpt>
      <trkpt lat="47.654912509024143" lon="11.484439400956035">
        <ele>1507.00390625</ele>
        <time>2013-06-16T06:47:59Z</time>
      </trkpt>
      <trkpt lat="47.654892057180405" lon="11.484423726797104">
        <ele>1508.926513671875</ele>
        <time>2013-06-16T06:48:06Z</time>
      </trkpt>
      <trkpt lat="47.654887782409787" lon="11.484367065131664">
        <ele>1510.368408203125</ele>
        <time>2013-06-16T06:48:15Z</time>
      </trkpt>
      <trkpt lat="47.654891302809119" lon="11.48425055667758">
        <ele>1511.810546875</ele>
        <time>2013-06-16T06:48:27Z</time>
      </trkpt>
      <trkpt lat="47.65485467389226" lon="11.484153075143695">
        <ele>1514.213623046875</ele>
        <time>2013-06-16T06:48:39Z</time>
      </trkpt>
      <trkpt lat="47.654862971976399" lon="11.48411963135004">
        <ele>1512.771728515625</ele>
        <time>2013-06-16T06:48:48Z</time>
      </trkpt>
      <trkpt lat="47.654864061623812" lon="11.484104041010141">
        <ele>1512.771728515625</ele>
        <time>2013-06-16T06:48:52Z</time>
      </trkpt>
      <trkpt lat="47.654770268127322" lon="11.48401846177876">
        <ele>1512.771728515625</ele>
        <time>2013-06-16T06:49:06Z</time>
      </trkpt>
      <trkpt lat="47.654760964214802" lon="11.483989879488945">
        <ele>1514.213623046875</ele>
        <time>2013-06-16T06:49:09Z</time>
      </trkpt>
      <trkpt lat="47.654781499877572" lon="11.48389189504087">
        <ele>1515.175048828125</ele>
        <time>2013-06-16T06:49:19Z</time>
      </trkpt>
      <trkpt lat="47.654693489894271" lon="11.48386599496007">
        <ele>1518.05908203125</ele>
        <time>2013-06-16T06:49:31Z</time>
      </trkpt>
      <trkpt lat="47.654689634218812" lon="11.483856439590454">
        <ele>1518.05908203125</ele>
        <time>2013-06-16T06:49:32Z</time>
      </trkpt>
      <trkpt lat="47.654657196253538" lon="11.483814949169755">
        <ele>1519.0205078125</ele>
        <time>2013-06-16T06:49:43Z</time>
      </trkpt>
      <trkpt lat="47.654617130756378" lon="11.483725178986788">
        <ele>1520.943115234375</ele>
        <time>2013-06-16T06:49:54Z</time>
      </trkpt>
      <trkpt lat="47.65456834807992" lon="11.483687628060579">
        <ele>1523.346435546875</ele>
        <time>2013-06-16T06:50:05Z</time>
      </trkpt>
      <trkpt lat="47.654508585110307" lon="11.483658878132701">
        <ele>1524.788330078125</ele>
        <time>2013-06-16T06:50:17Z</time>
      </trkpt>
      <trkpt lat="47.65445938333869" lon="11.483658039942384">
        <ele>1527.191650390625</ele>
        <time>2013-06-16T06:50:27Z</time>
      </trkpt>
      <trkpt lat="47.654434069991112" lon="11.483675641939044">
        <ele>1529.114013671875</ele>
        <time>2013-06-16T06:50:36Z</time>
      </trkpt>
      <trkpt lat="47.65441881492734" lon="11.483696764335036">
        <ele>1530.075439453125</ele>
        <time>2013-06-16T06:50:45Z</time>
      </trkpt>
      <trkpt lat="47.654415965080261" lon="11.483745044097304">
        <ele>1531.036865234375</ele>
        <time>2013-06-16T06:50:54Z</time>
      </trkpt>
      <trkpt lat="47.654397608712316" lon="11.483734650537372">
        <ele>1531.517333984375</ele>
        <time>2013-06-16T06:51:02Z</time>
      </trkpt>
      <trkpt lat="47.654391909018159" lon="11.483716880902648">
        <ele>1532.95947265625</ele>
        <time>2013-06-16T06:51:05Z</time>
      </trkpt>
      <trkpt lat="47.654354944825172" lon="11.483626523986459">
        <ele>1535.36279296875</ele>
        <time>2013-06-16T06:51:18Z</time>
      </trkpt>
      <trkpt lat="47.654329799115658" lon="11.483559552580118">
        <ele>1536.32421875</ele>
        <time>2013-06-16T06:51:27Z</time>
      </trkpt>
      <trkpt lat="47.654309263452888" lon="11.483423095196486">
        <ele>1537.76611328125</ele>
        <time>2013-06-16T06:51:40Z</time>
      </trkpt>
      <trkpt lat="47.654297864064574" lon="11.483363164588809">
        <ele>1539.2080078125</ele>
        <time>2013-06-16T06:51:49Z</time>
      </trkpt>
      <trkpt lat="47.65428738668561" lon="11.483236933127046">
        <ele>1539.688720703125</ele>
        <time>2013-06-16T06:52:01Z</time>
      </trkpt>
      <trkpt lat="47.654258469119668" lon="11.483164094388485">
        <ele>1541.130615234375</ele>
        <time>2013-06-16T06:52:12Z</time>
      </trkpt>
      <trkpt lat="47.654257798567414" lon="11.483042892068624">
        <ele>1542.092041015625</ele>
        <time>2013-06-16T06:52:23Z</time>
      </trkpt>
      <trkpt lat="47.654235837981105" lon="11.482962174341083">
        <ele>1544.4951171875</ele>
        <time>2013-06-16T06:52:34Z</time>
      </trkpt>
      <trkpt lat="47.654261989519" lon="11.482855724170804">
        <ele>1544.975830078125</ele>
        <time>2013-06-16T06:52:42Z</time>
      </trkpt>
      <trkpt lat="47.654264001175761" lon="11.482711806893349">
        <ele>1546.8984375</ele>
        <time>2013-06-16T06:52:56Z</time>
      </trkpt>
      <trkpt lat="47.654257211834192" lon="11.482618097215891">
        <ele>1550.743896484375</ele>
        <time>2013-06-16T06:53:08Z</time>
      </trkpt>
      <trkpt lat="47.654268695041537" lon="11.482462864369154">
        <ele>1553.6279296875</ele>
        <time>2013-06-16T06:53:23Z</time>
      </trkpt>
      <trkpt lat="47.65426785685122" lon="11.482364209368825">
        <ele>1556.031005859375</ele>
        <time>2013-06-16T06:53:35Z</time>
      </trkpt>
      <trkpt lat="47.654283363372087" lon="11.482251388952136">
        <ele>1558.434326171875</ele>
        <time>2013-06-16T06:53:46Z</time>
      </trkpt>
      <trkpt lat="47.654266515746713" lon="11.48217586800456">
        <ele>1560.837646484375</ele>
        <time>2013-06-16T06:53:58Z</time>
      </trkpt>
      <trkpt lat="47.654270622879267" lon="11.482065143063664">
        <ele>1562.279541015625</ele>
        <time>2013-06-16T06:54:11Z</time>
      </trkpt>
      <trkpt lat="47.654256206005812" lon="11.482032788917422">
        <ele>1565.163818359375</ele>
        <time>2013-06-16T06:54:22Z</time>
      </trkpt>
      <trkpt lat="47.654257798567414" lon="11.481985682621598">
        <ele>1565.64453125</ele>
        <time>2013-06-16T06:54:31Z</time>
      </trkpt>
      <trkpt lat="47.654260480776429" lon="11.481893984600902">
        <ele>1569.009033203125</ele>
        <time>2013-06-16T06:54:42Z</time>
      </trkpt>
      <trkpt lat="47.654269952327013" lon="11.481791138648987">
        <ele>1570.931640625</ele>
        <time>2013-06-16T06:54:54Z</time>
      </trkpt>
      <trkpt lat="47.654256792739034" lon="11.48174143396318">
        <ele>1572.854248046875</ele>
        <time>2013-06-16T06:55:03Z</time>
      </trkpt>
      <trkpt lat="47.654270036146045" lon="11.48167110979557">
        <ele>1574.296142578125</ele>
        <time>2013-06-16T06:55:13Z</time>
      </trkpt>
      <trkpt lat="47.65426685102284" lon="11.48165350779891">
        <ele>1574.296142578125</ele>
        <time>2013-06-16T06:55:29Z</time>
      </trkpt>
      <trkpt lat="47.65427129343152" lon="11.481607742607594">
        <ele>1574.77685546875</ele>
        <time>2013-06-16T06:56:26Z</time>
      </trkpt>
      <trkpt lat="47.654277244582772" lon="11.481538088992238">
        <ele>1576.699462890625</ele>
        <time>2013-06-16T06:56:33Z</time>
      </trkpt>
      <trkpt lat="47.654306832700968" lon="11.481428537517786">
        <ele>1578.141357421875</ele>
        <time>2013-06-16T06:56:45Z</time>
      </trkpt>
      <trkpt lat="47.654320159927011" lon="11.48137304931879">
        <ele>1579.1025390625</ele>
        <time>2013-06-16T06:56:58Z</time>
      </trkpt>
      <trkpt lat="47.65434748493135" lon="11.481333570554852">
        <ele>1580.544921875</ele>
        <time>2013-06-16T06:57:24Z</time>
      </trkpt>
      <trkpt lat="47.654351675882936" lon="11.481239777058363">
        <ele>1582.467529296875</ele>
        <time>2013-06-16T06:57:35Z</time>
      </trkpt>
      <trkpt lat="47.654355196282268" lon="11.481236256659031">
        <ele>1582.947998046875</ele>
        <time>2013-06-16T06:57:50Z</time>
      </trkpt>
      <trkpt lat="47.654342371970415" lon="11.481198957189918">
        <ele>1583.4287109375</ele>
        <time>2013-06-16T06:58:36Z</time>
      </trkpt>
      <trkpt lat="47.654331475496292" lon="11.481113713234663">
        <ele>1586.312744140625</ele>
        <time>2013-06-16T06:58:46Z</time>
      </trkpt>
      <trkpt lat="47.654329547658563" lon="11.481017405167222">
        <ele>1588.716064453125</ele>
        <time>2013-06-16T06:58:59Z</time>
      </trkpt>
      <trkpt lat="47.654328541830182" lon="11.480915145948529">
        <ele>1590.638427734375</ele>
        <time>2013-06-16T06:59:12Z</time>
      </trkpt>
      <trkpt lat="47.654282609000802" lon="11.480822023004293">
        <ele>1593.5224609375</ele>
        <time>2013-06-16T06:59:26Z</time>
      </trkpt>
      <trkpt lat="47.654241202399135" lon="11.480698809027672">
        <ele>1595.445068359375</ele>
        <time>2013-06-16T06:59:41Z</time>
      </trkpt>
      <trkpt lat="47.654224522411823" lon="11.480583222582936">
        <ele>1598.3291015625</ele>
        <time>2013-06-16T06:59:53Z</time>
      </trkpt>
      <trkpt lat="47.654207926243544" lon="11.480528991669416">
        <ele>1599.771240234375</ele>
        <time>2013-06-16T07:00:00Z</time>
      </trkpt>
      <trkpt lat="47.654191413894296" lon="11.480409214273095">
        <ele>1602.17431640625</ele>
        <time>2013-06-16T07:00:14Z</time>
      </trkpt>
      <trkpt lat="47.654191330075264" lon="11.480298824608326">
        <ele>1604.09716796875</ele>
        <time>2013-06-16T07:00:27Z</time>
      </trkpt>
      <trkpt lat="47.654191749170423" lon="11.480141999199986">
        <ele>1607.461669921875</ele>
        <time>2013-06-16T07:00:41Z</time>
      </trkpt>
      <trkpt lat="47.654184708371758" lon="11.480050217360258">
        <ele>1608.903564453125</ele>
        <time>2013-06-16T07:00:54Z</time>
      </trkpt>
      <trkpt lat="47.654179092496634" lon="11.48002976551652">
        <ele>1610.826171875</ele>
        <time>2013-06-16T07:00:58Z</time>
      </trkpt>
      <trkpt lat="47.654168615117669" lon="11.479983665049076">
        <ele>1611.306884765625</ele>
        <time>2013-06-16T07:01:07Z</time>
      </trkpt>
      <trkpt lat="47.654129136353731" lon="11.479937564581633">
        <ele>1613.710205078125</ele>
        <time>2013-06-16T07:01:17Z</time>
      </trkpt>
      <trkpt lat="47.654078425839543" lon="11.479881657287478">
        <ele>1614.19091796875</ele>
        <time>2013-06-16T07:01:26Z</time>
      </trkpt>
      <trkpt lat="47.654054034501314" lon="11.47983287461102">
        <ele>1615.15234375</ele>
        <time>2013-06-16T07:01:35Z</time>
      </trkpt>
      <trkpt lat="47.654065936803818" lon="11.479716449975967">
        <ele>1616.113525390625</ele>
        <time>2013-06-16T07:01:47Z</time>
      </trkpt>
      <trkpt lat="47.654123604297638" lon="11.479570185765624">
        <ele>1618.0361328125</ele>
        <time>2013-06-16T07:02:02Z</time>
      </trkpt>
      <trkpt lat="47.65414958819747" lon="11.479456443339586">
        <ele>1620.439453125</ele>
        <time>2013-06-16T07:02:15Z</time>
      </trkpt>
      <trkpt lat="47.654166184365749" lon="11.479337504133582">
        <ele>1622.362060546875</ele>
        <time>2013-06-16T07:02:28Z</time>
      </trkpt>
      <trkpt lat="47.654172806069255" lon="11.479244884103537">
        <ele>1624.765380859375</ele>
        <time>2013-06-16T07:02:40Z</time>
      </trkpt>
      <trkpt lat="47.654196107760072" lon="11.479192078113556">
        <ele>1626.68798828125</ele>
        <time>2013-06-16T07:02:49Z</time>
      </trkpt>
      <trkpt lat="47.654211195185781" lon="11.479130471125245">
        <ele>1626.68798828125</ele>
        <time>2013-06-16T07:02:58Z</time>
      </trkpt>
      <trkpt lat="47.654256038367748" lon="11.479048412293196">
        <ele>1628.130126953125</ele>
        <time>2013-06-16T07:03:08Z</time>
      </trkpt>
      <trkpt lat="47.654265761375427" lon="11.478994600474834">
        <ele>1630.533447265625</ele>
        <time>2013-06-16T07:03:16Z</time>
      </trkpt>
      <trkpt lat="47.65425561927259" lon="11.478900471702218">
        <ele>1634.378662109375</ele>
        <time>2013-06-16T07:03:32Z</time>
      </trkpt>
      <trkpt lat="47.654243465512991" lon="11.478840205818415">
        <ele>1636.30126953125</ele>
        <time>2013-06-16T07:03:45Z</time>
      </trkpt>
      <trkpt lat="47.654264671728015" lon="11.47877398878336">
        <ele>1639.18505859375</ele>
        <time>2013-06-16T07:03:58Z</time>
      </trkpt>
      <trkpt lat="47.654259474948049" lon="11.478718081489205">
        <ele>1642.069091796875</ele>
        <time>2013-06-16T07:04:08Z</time>
      </trkpt>
      <trkpt lat="47.654269030317664" lon="11.478633843362331">
        <ele>1643.99169921875</ele>
        <time>2013-06-16T07:04:21Z</time>
      </trkpt>
      <trkpt lat="47.654269197955728" lon="11.478627473115921">
        <ele>1643.99169921875</ele>
        <time>2013-06-16T07:04:22Z</time>
      </trkpt>
      <trkpt lat="47.654282609000802" lon="11.478520017117262">
        <ele>1647.3564453125</ele>
        <time>2013-06-16T07:04:37Z</time>
      </trkpt>
      <trkpt lat="47.654291493818164" lon="11.478489423170686">
        <ele>1648.79833984375</ele>
        <time>2013-06-16T07:04:42Z</time>
      </trkpt>
      <trkpt lat="47.654274394735694" lon="11.478444999083877">
        <ele>1649.759765625</ele>
        <time>2013-06-16T07:04:54Z</time>
      </trkpt>
      <trkpt lat="47.65427028760314" lon="11.478418596088886">
        <ele>1650.240478515625</ele>
        <time>2013-06-16T07:04:58Z</time>
      </trkpt>
      <trkpt lat="47.654283614829183" lon="11.47835673764348">
        <ele>1653.124267578125</ele>
        <time>2013-06-16T07:05:08Z</time>
      </trkpt>
      <trkpt lat="47.654291158542037" lon="11.478292029350996">
        <ele>1655.527587890625</ele>
        <time>2013-06-16T07:05:18Z</time>
      </trkpt>
      <trkpt lat="47.654276238754392" lon="11.478273421525955">
        <ele>1656.48876953125</ele>
        <time>2013-06-16T07:05:26Z</time>
      </trkpt>
      <trkpt lat="47.65430691652" lon="11.478246599435806">
        <ele>1657.930908203125</ele>
        <time>2013-06-16T07:05:33Z</time>
      </trkpt>
      <trkpt lat="47.654325356706977" lon="11.478156745433807">
        <ele>1659.372802734375</ele>
        <time>2013-06-16T07:05:43Z</time>
      </trkpt>
      <trkpt lat="47.6543396897614" lon="11.478088181465864">
        <ele>1659.853271484375</ele>
        <time>2013-06-16T07:05:50Z</time>
      </trkpt>
      <trkpt lat="47.654310101643205" lon="11.478036129847169">
        <ele>1662.2568359375</ele>
        <time>2013-06-16T07:05:58Z</time>
      </trkpt>
      <trkpt lat="47.654254110530019" lon="11.478021293878555">
        <ele>1663.21826171875</ele>
        <time>2013-06-16T07:06:07Z</time>
      </trkpt>
      <trkpt lat="47.654221504926682" lon="11.477945102378726">
        <ele>1664.66015625</ele>
        <time>2013-06-16T07:06:17Z</time>
      </trkpt>
      <trkpt lat="47.654200214892626" lon="11.477925488725305">
        <ele>1665.140869140625</ele>
        <time>2013-06-16T07:06:25Z</time>
      </trkpt>
      <trkpt lat="47.654193257912993" lon="11.477933367714286">
        <ele>1665.62158203125</ele>
        <time>2013-06-16T07:06:36Z</time>
      </trkpt>
      <trkpt lat="47.654182696714997" lon="11.477910652756691">
        <ele>1664.66015625</ele>
        <time>2013-06-16T07:07:08Z</time>
      </trkpt>
      <trkpt lat="47.654118910431862" lon="11.477812835946679">
        <ele>1666.10205078125</ele>
        <time>2013-06-16T07:07:21Z</time>
      </trkpt>
      <trkpt lat="47.654067110270262" lon="11.477739410474896">
        <ele>1665.62158203125</ele>
        <time>2013-06-16T07:07:31Z</time>
      </trkpt>
      <trkpt lat="47.654023943468928" lon="11.477713342756033">
        <ele>1667.0634765625</ele>
        <time>2013-06-16T07:07:40Z</time>
      </trkpt>
      <trkpt lat="47.654008017852902" lon="11.477672271430492">
        <ele>1667.0634765625</ele>
        <time>2013-06-16T07:07:51Z</time>
      </trkpt>
      <trkpt lat="47.653996869921684" lon="11.477656345814466">
        <ele>1668.024658203125</ele>
        <time>2013-06-16T07:08:10Z</time>
      </trkpt>
      <trkpt lat="47.653967784717679" lon="11.477619549259543">
        <ele>1669.947265625</ele>
        <time>2013-06-16T07:08:22Z</time>
      </trkpt>
      <trkpt lat="47.653928976505995" lon="11.477606892585754">
        <ele>1672.3505859375</ele>
        <time>2013-06-16T07:08:35Z</time>
      </trkpt>
      <trkpt lat="47.653935262933373" lon="11.47762281820178">
        <ele>1674.273193359375</ele>
        <time>2013-06-16T07:08:42Z</time>
      </trkpt>
      <trkpt lat="47.653928054496646" lon="11.477637318894267">
        <ele>1675.715087890625</ele>
        <time>2013-06-16T07:08:51Z</time>
      </trkpt>
      <trkpt lat="47.653917912393808" lon="11.477670427411795">
        <ele>1678.599365234375</ele>
        <time>2013-06-16T07:09:05Z</time>
      </trkpt>
      <trkpt lat="47.65389209613204" lon="11.477711666375399">
        <ele>1680.52197265625</ele>
        <time>2013-06-16T07:09:12Z</time>
      </trkpt>
      <trkpt lat="47.653849683701992" lon="11.477727424353361">
        <ele>1682.444580078125</ele>
        <time>2013-06-16T07:09:23Z</time>
      </trkpt>
      <trkpt lat="47.653837949037552" lon="11.477718120440841">
        <ele>1684.3671875</ele>
        <time>2013-06-16T07:09:36Z</time>
      </trkpt>
      <trkpt lat="47.653820095583797" lon="11.477695908397436">
        <ele>1685.80908203125</ele>
        <time>2013-06-16T07:09:47Z</time>
      </trkpt>
      <trkpt lat="47.653802577406168" lon="11.477693477645516">
        <ele>1687.731689453125</ele>
        <time>2013-06-16T07:09:55Z</time>
      </trkpt>
      <trkpt lat="47.653782041743398" lon="11.477668499574065">
        <ele>1689.173583984375</ele>
        <time>2013-06-16T07:10:03Z</time>
      </trkpt>
      <trkpt lat="47.653785310685635" lon="11.477603036910295">
        <ele>1690.135009765625</ele>
        <time>2013-06-16T07:10:11Z</time>
      </trkpt>
      <trkpt lat="47.653763769194484" lon="11.477578142657876">
        <ele>1691.09619140625</ele>
        <time>2013-06-16T07:10:18Z</time>
      </trkpt>
      <trkpt lat="47.653740886598825" lon="11.477549560368061">
        <ele>1691.576904296875</ele>
        <time>2013-06-16T07:10:25Z</time>
      </trkpt>
      <trkpt lat="47.653741473332047" lon="11.477521983906627">
        <ele>1692.057861328125</ele>
        <time>2013-06-16T07:10:31Z</time>
      </trkpt>
      <trkpt lat="47.65375236980617" lon="11.477490300312638">
        <ele>1693.499755859375</ele>
        <time>2013-06-16T07:10:40Z</time>
      </trkpt>
      <trkpt lat="47.653767289593816" lon="11.477460041642189">
        <ele>1695.903076171875</ele>
        <time>2013-06-16T07:10:53Z</time>
      </trkpt>
      <trkpt lat="47.653788914903998" lon="11.477372786030173">
        <ele>1697.344970703125</ele>
        <time>2013-06-16T07:11:05Z</time>
      </trkpt>
      <trkpt lat="47.653785226866603" lon="11.477323919534683">
        <ele>1698.786865234375</ele>
        <time>2013-06-16T07:11:16Z</time>
      </trkpt>
      <trkpt lat="47.653779024258256" lon="11.477304892614484">
        <ele>1700.22900390625</ele>
        <time>2013-06-16T07:11:25Z</time>
      </trkpt>
      <trkpt lat="47.653757315129042" lon="11.477281842380762">
        <ele>1702.632080078125</ele>
        <time>2013-06-16T07:11:38Z</time>
      </trkpt>
      <trkpt lat="47.653741640970111" lon="11.477301120758057">
        <ele>1704.5546875</ele>
        <time>2013-06-16T07:11:45Z</time>
      </trkpt>
      <trkpt lat="47.65371423214674" lon="11.477307323366404">
        <ele>1704.5546875</ele>
        <time>2013-06-16T07:11:55Z</time>
      </trkpt>
      <trkpt lat="47.653688164427876" lon="11.477310257032514">
        <ele>1707.438720703125</ele>
        <time>2013-06-16T07:12:04Z</time>
      </trkpt>
      <trkpt lat="47.653671065345407" lon="11.47727002389729">
        <ele>1709.361572265625</ele>
        <time>2013-06-16T07:12:15Z</time>
      </trkpt>
      <trkpt lat="47.653660671785474" lon="11.477256780490279">
        <ele>1710.32275390625</ele>
        <time>2013-06-16T07:12:24Z</time>
      </trkpt>
      <trkpt lat="47.653639633208513" lon="11.477255187928677">
        <ele>1712.245361328125</ele>
        <time>2013-06-16T07:12:35Z</time>
      </trkpt>
      <trkpt lat="47.653633011505008" lon="11.477240100502968">
        <ele>1713.206787109375</ele>
        <time>2013-06-16T07:12:47Z</time>
      </trkpt>
      <trkpt lat="47.653621947392821" lon="11.477216714993119">
        <ele>1714.648681640625</ele>
        <time>2013-06-16T07:12:55Z</time>
      </trkpt>
      <trkpt lat="47.653603674843907" lon="11.477194335311651">
        <ele>1715.610107421875</ele>
        <time>2013-06-16T07:13:04Z</time>
      </trkpt>
      <trkpt lat="47.653574673458934" lon="11.477199532091618">
        <ele>1718.01318359375</ele>
        <time>2013-06-16T07:13:17Z</time>
      </trkpt>
      <trkpt lat="47.653550282120705" lon="11.477200705558062">
        <ele>1719.455322265625</ele>
        <time>2013-06-16T07:13:26Z</time>
      </trkpt>
      <trkpt lat="47.653537290170789" lon="11.477186707779765">
        <ele>1719.935791015625</ele>
        <time>2013-06-16T07:13:36Z</time>
      </trkpt>
      <trkpt lat="47.653538379818201" lon="11.477149073034525">
        <ele>1721.8583984375</ele>
        <time>2013-06-16T07:13:44Z</time>
      </trkpt>
      <trkpt lat="47.653543576598167" lon="11.477134572342038">
        <ele>1722.339111328125</ele>
        <time>2013-06-16T07:13:51Z</time>
      </trkpt>
      <trkpt lat="47.653543492779136" lon="11.477103475481272">
        <ele>1723.781005859375</ele>
        <time>2013-06-16T07:14:06Z</time>
      </trkpt>
      <trkpt lat="47.653535278514028" lon="11.477082101628184">
        <ele>1725.703857421875</ele>
        <time>2013-06-16T07:14:14Z</time>
      </trkpt>
      <trkpt lat="47.65353687107563" lon="11.477053938433528">
        <ele>1726.665283203125</ele>
        <time>2013-06-16T07:14:24Z</time>
      </trkpt>
      <trkpt lat="47.653541062027216" lon="11.477031391113997">
        <ele>1728.107177734375</ele>
        <time>2013-06-16T07:14:34Z</time>
      </trkpt>
      <trkpt lat="47.653520861640573" lon="11.477005071938038">
        <ele>1730.02978515625</ele>
        <time>2013-06-16T07:14:45Z</time>
      </trkpt>
      <trkpt lat="47.653504684567451" lon="11.477000629529357">
        <ele>1731.952392578125</ele>
        <time>2013-06-16T07:14:54Z</time>
      </trkpt>
      <trkpt lat="47.65348507091403" lon="11.477014124393463">
        <ele>1732.91357421875</ele>
        <time>2013-06-16T07:15:01Z</time>
      </trkpt>
      <trkpt lat="47.653471156954765" lon="11.476961653679609">
        <ele>1733.875</ele>
        <time>2013-06-16T07:15:10Z</time>
      </trkpt>
      <trkpt lat="47.653453387320042" lon="11.476916978135705">
        <ele>1735.797607421875</ele>
        <time>2013-06-16T07:15:19Z</time>
      </trkpt>
      <trkpt lat="47.653450705111027" lon="11.476895520463586">
        <ele>1734.83642578125</ele>
        <time>2013-06-16T07:15:28Z</time>
      </trkpt>
      <trkpt lat="47.65343913808465" lon="11.476872805505991">
        <ele>1734.355712890625</ele>
        <time>2013-06-16T07:15:38Z</time>
      </trkpt>
      <trkpt lat="47.653429331257939" lon="11.476872470229864">
        <ele>1733.875</ele>
        <time>2013-06-16T07:15:47Z</time>
      </trkpt>
      <trkpt lat="47.653406281024218" lon="11.476858891546726">
        <ele>1732.43310546875</ele>
        <time>2013-06-16T07:16:01Z</time>
      </trkpt>
      <trkpt lat="47.653400916606188" lon="11.476823687553406">
        <ele>1732.43310546875</ele>
        <time>2013-06-16T07:16:09Z</time>
      </trkpt>
      <trkpt lat="47.653380548581481" lon="11.476838020607829">
        <ele>1730.9912109375</ele>
        <time>2013-06-16T07:16:19Z</time>
      </trkpt>
      <trkpt lat="47.653342159464955" lon="11.476801810786128">
        <ele>1731.952392578125</ele>
        <time>2013-06-16T07:16:28Z</time>
      </trkpt>
      <trkpt lat="47.653333023190498" lon="11.476789740845561">
        <ele>1733.394287109375</ele>
        <time>2013-06-16T07:16:30Z</time>
      </trkpt>
      <trkpt lat="47.653317684307694" lon="11.476700222119689">
        <ele>1733.394287109375</ele>
        <time>2013-06-16T07:16:39Z</time>
      </trkpt>
      <trkpt lat="47.653269656002522" lon="11.476617660373449">
        <ele>1734.355712890625</ele>
        <time>2013-06-16T07:16:50Z</time>
      </trkpt>
      <trkpt lat="47.653205115348101" lon="11.476438455283642">
        <ele>1737.72021484375</ele>
        <time>2013-06-16T07:17:06Z</time>
      </trkpt>
      <trkpt lat="47.653179550543427" lon="11.476369639858603">
        <ele>1738.200927734375</ele>
        <time>2013-06-16T07:17:18Z</time>
      </trkpt>
      <trkpt lat="47.65315867960453" lon="11.476356228813529">
        <ele>1740.123779296875</ele>
        <time>2013-06-16T07:17:27Z</time>
      </trkpt>
      <trkpt lat="47.653158595785499" lon="11.476304931566119">
        <ele>1741.565673828125</ele>
        <time>2013-06-16T07:17:36Z</time>
      </trkpt>
      <trkpt lat="47.653148034587502" lon="11.476225387305021">
        <ele>1742.527099609375</ele>
        <time>2013-06-16T07:17:47Z</time>
      </trkpt>
      <trkpt lat="47.653086595237255" lon="11.476170066744089">
        <ele>1744.449462890625</ele>
        <time>2013-06-16T07:17:59Z</time>
      </trkpt>
      <trkpt lat="47.653046529740095" lon="11.476075351238251">
        <ele>1743.968994140625</ele>
        <time>2013-06-16T07:18:09Z</time>
      </trkpt>
      <trkpt lat="47.65301208011806" lon="11.476005529984832">
        <ele>1743.968994140625</ele>
        <time>2013-06-16T07:18:19Z</time>
      </trkpt>
      <trkpt lat="47.653017863631248" lon="11.475864797830582">
        <ele>1745.410888671875</ele>
        <time>2013-06-16T07:18:32Z</time>
      </trkpt>
      <trkpt lat="47.652973020449281" lon="11.475672433152795">
        <ele>1746.372314453125</ele>
        <time>2013-06-16T07:18:48Z</time>
      </trkpt>
      <trkpt lat="47.652979642152786" lon="11.475599762052298">
        <ele>1748.294677734375</ele>
        <time>2013-06-16T07:18:57Z</time>
      </trkpt>
      <trkpt lat="47.652963045984507" lon="11.475522816181183">
        <ele>1749.256103515625</ele>
        <time>2013-06-16T07:19:05Z</time>
      </trkpt>
      <trkpt lat="47.652952317148447" lon="11.475417707115412">
        <ele>1750.697998046875</ele>
        <time>2013-06-16T07:19:18Z</time>
      </trkpt>
      <trkpt lat="47.652912586927414" lon="11.475342102348804">
        <ele>1753.101318359375</ele>
        <time>2013-06-16T07:19:31Z</time>
      </trkpt>
      <trkpt lat="47.652937397360802" lon="11.47527982480824">
        <ele>1754.062744140625</ele>
        <time>2013-06-16T07:19:42Z</time>
      </trkpt>
      <trkpt lat="47.652912419289351" lon="11.475245542824268">
        <ele>1755.504638671875</ele>
        <time>2013-06-16T07:19:54Z</time>
      </trkpt>
      <trkpt lat="47.652908731251955" lon="11.475259037688375">
        <ele>1755.985107421875</ele>
        <time>2013-06-16T07:20:02Z</time>
      </trkpt>
      <trkpt lat="47.652908563613892" lon="11.475211596116424">
        <ele>1757.908203125</ele>
        <time>2013-06-16T07:20:11Z</time>
      </trkpt>
      <trkpt lat="47.652926919981837" lon="11.47518795914948">
        <ele>1757.908203125</ele>
        <time>2013-06-16T07:20:17Z</time>
      </trkpt>
      <trkpt lat="47.652919376268983" lon="11.475143451243639">
        <ele>1758.869384765625</ele>
        <time>2013-06-16T07:20:28Z</time>
      </trkpt>
      <trkpt lat="47.652908144518733" lon="11.475116042420268">
        <ele>1760.7919921875</ele>
        <time>2013-06-16T07:20:38Z</time>
      </trkpt>
      <trkpt lat="47.65290068462491" lon="11.475088968873024">
        <ele>1762.714599609375</ele>
        <time>2013-06-16T07:20:49Z</time>
      </trkpt>
      <trkpt lat="47.652888782322407" lon="11.475063990801573">
        <ele>1763.67578125</ele>
        <time>2013-06-16T07:20:55Z</time>
      </trkpt>
      <trkpt lat="47.652883166447282" lon="11.475048568099737">
        <ele>1764.63720703125</ele>
        <time>2013-06-16T07:21:04Z</time>
      </trkpt>
      <trkpt lat="47.652877634391189" lon="11.475045466795564">
        <ele>1767.04052734375</ele>
        <time>2013-06-16T07:21:13Z</time>
      </trkpt>
      <trkpt lat="47.652863385155797" lon="11.475050076842308">
        <ele>1768.001708984375</ele>
        <time>2013-06-16T07:21:18Z</time>
      </trkpt>
      <trkpt lat="47.652841089293361" lon="11.475038509815931">
        <ele>1769.44384765625</ele>
        <time>2013-06-16T07:21:29Z</time>
      </trkpt>
      <trkpt lat="47.652849974110723" lon="11.474972628057003">
        <ele>1770.405029296875</ele>
        <time>2013-06-16T07:21:39Z</time>
      </trkpt>
      <trkpt lat="47.652854332700372" lon="11.474944967776537">
        <ele>1772.327880859375</ele>
        <time>2013-06-16T07:21:47Z</time>
      </trkpt>
      <trkpt lat="47.652861457318068" lon="11.474910769611597">
        <ele>1773.289306640625</ele>
        <time>2013-06-16T07:21:54Z</time>
      </trkpt>
      <trkpt lat="47.652861708775163" lon="11.47490356117487">
        <ele>1773.289306640625</ele>
        <time>2013-06-16T07:21:55Z</time>
      </trkpt>
      <trkpt lat="47.652828767895699" lon="11.474799374118447">
        <ele>1775.211669921875</ele>
        <time>2013-06-16T07:22:05Z</time>
      </trkpt>
      <trkpt lat="47.652827762067318" lon="11.474733408540487">
        <ele>1775.211669921875</ele>
        <time>2013-06-16T07:22:11Z</time>
      </trkpt>
      <trkpt lat="47.652809740975499" lon="11.474597956985235">
        <ele>1775.211669921875</ele>
        <time>2013-06-16T07:22:21Z</time>
      </trkpt>
      <trkpt lat="47.652769340202212" lon="11.474466109648347">
        <ele>1775.211669921875</ele>
        <time>2013-06-16T07:22:32Z</time>
      </trkpt>
      <trkpt lat="47.652762718498707" lon="11.474436270073056">
        <ele>1777.134521484375</ele>
        <time>2013-06-16T07:22:35Z</time>
      </trkpt>
      <trkpt lat="47.652762299403548" lon="11.474346248432994">
        <ele>1776.173095703125</ele>
        <time>2013-06-16T07:22:46Z</time>
      </trkpt>
      <trkpt lat="47.652787528932095" lon="11.474285647273064">
        <ele>1776.173095703125</ele>
        <time>2013-06-16T07:22:55Z</time>
      </trkpt>
      <trkpt lat="47.652770765125751" lon="11.474307775497437">
        <ele>1776.173095703125</ele>
        <time>2013-06-16T07:23:02Z</time>
      </trkpt>
      <trkpt lat="47.652760623022914" lon="11.474314145743847">
        <ele>1777.134521484375</ele>
        <time>2013-06-16T07:23:12Z</time>
      </trkpt>
      <trkpt lat="47.652776129543781" lon="11.474276510998607">
        <ele>1775.6923828125</ele>
        <time>2013-06-16T07:23:51Z</time>
      </trkpt>
      <trkpt lat="47.652757102623582" lon="11.474167462438345">
        <ele>1776.65380859375</ele>
        <time>2013-06-16T07:24:01Z</time>
      </trkpt>
      <trkpt lat="47.652733214199543" lon="11.474039470776916">
        <ele>1777.614990234375</ele>
        <time>2013-06-16T07:24:13Z</time>
      </trkpt>
      <trkpt lat="47.652701949700713" lon="11.473895134404302">
        <ele>1777.614990234375</ele>
        <time>2013-06-16T07:24:26Z</time>
      </trkpt>
      <trkpt lat="47.652703206986189" lon="11.473859511315823">
        <ele>1776.65380859375</ele>
        <time>2013-06-16T07:24:30Z</time>
      </trkpt>
      <trkpt lat="47.652710918337107" lon="11.473832605406642">
        <ele>1776.65380859375</ele>
        <time>2013-06-16T07:24:42Z</time>
      </trkpt>
      <trkpt lat="47.652712929993868" lon="11.473819361999631">
        <ele>1776.173095703125</ele>
        <time>2013-06-16T07:24:50Z</time>
      </trkpt>
      <trkpt lat="47.652716701850295" lon="11.473780972883105">
        <ele>1775.211669921875</ele>
        <time>2013-06-16T07:24:58Z</time>
      </trkpt>
      <trkpt lat="47.652731286361814" lon="11.473730513826013">
        <ele>1773.289306640625</ele>
        <time>2013-06-16T07:25:10Z</time>
      </trkpt>
      <trkpt lat="47.652755593881011" lon="11.473588105291128">
        <ele>1772.327880859375</ele>
        <time>2013-06-16T07:25:20Z</time>
      </trkpt>
      <trkpt lat="47.652766741812229" lon="11.473495233803988">
        <ele>1770.8857421875</ele>
        <time>2013-06-16T07:25:30Z</time>
      </trkpt>
      <trkpt lat="47.652786606922746" lon="11.473440080881119">
        <ele>1770.405029296875</ele>
        <time>2013-06-16T07:25:38Z</time>
      </trkpt>
      <trkpt lat="47.652802197262645" lon="11.473323907703161">
        <ele>1768.482421875</ele>
        <time>2013-06-16T07:25:50Z</time>
      </trkpt>
      <trkpt lat="47.652811333537102" lon="11.473302114754915">
        <ele>1767.52099609375</ele>
        <time>2013-06-16T07:25:54Z</time>
      </trkpt>
      <trkpt lat="47.652814015746117" lon="11.473280321806669">
        <ele>1767.04052734375</ele>
        <time>2013-06-16T07:25:57Z</time>
      </trkpt>
      <trkpt lat="47.652811668813229" lon="11.473202956840396">
        <ele>1765.5986328125</ele>
        <time>2013-06-16T07:26:07Z</time>
      </trkpt>
      <trkpt lat="47.652801023796201" lon="11.473151743412018">
        <ele>1764.156494140625</ele>
        <time>2013-06-16T07:26:15Z</time>
      </trkpt>
      <trkpt lat="47.652788702398539" lon="11.473056524991989">
        <ele>1762.714599609375</ele>
        <time>2013-06-16T07:26:25Z</time>
      </trkpt>
      <trkpt lat="47.652804292738438" lon="11.472943956032395">
        <ele>1760.311279296875</ele>
        <time>2013-06-16T07:26:36Z</time>
      </trkpt>
      <trkpt lat="47.65280194580555" lon="11.472882516682148">
        <ele>1759.35009765625</ele>
        <time>2013-06-16T07:26:41Z</time>
      </trkpt>
      <trkpt lat="47.652809908613563" lon="11.472793165594339">
        <ele>1757.427490234375</ele>
        <time>2013-06-16T07:26:48Z</time>
      </trkpt>
      <trkpt lat="47.652831198647618" lon="11.472686547785997">
        <ele>1756.94677734375</ele>
        <time>2013-06-16T07:26:56Z</time>
      </trkpt>
      <trkpt lat="47.65287771821022" lon="11.472565177828074">
        <ele>1758.869384765625</ele>
        <time>2013-06-16T07:27:06Z</time>
      </trkpt>
      <trkpt lat="47.652840251103044" lon="11.472498625516891">
        <ele>1759.83056640625</ele>
        <time>2013-06-16T07:27:18Z</time>
      </trkpt>
      <trkpt lat="47.652864893898368" lon="11.472433162853122">
        <ele>1762.23388671875</ele>
        <time>2013-06-16T07:27:28Z</time>
      </trkpt>
      <trkpt lat="47.652895236387849" lon="11.472368035465479">
        <ele>1761.75341796875</ele>
        <time>2013-06-16T07:27:39Z</time>
      </trkpt>
      <trkpt lat="47.6529236510396" lon="11.472333585843444">
        <ele>1762.714599609375</ele>
        <time>2013-06-16T07:27:48Z</time>
      </trkpt>
      <trkpt lat="47.652940666303039" lon="11.472293771803379">
        <ele>1762.23388671875</ele>
        <time>2013-06-16T07:27:59Z</time>
      </trkpt>
      <trkpt lat="47.652966314926744" lon="11.472204923629761">
        <ele>1762.23388671875</ele>
        <time>2013-06-16T07:28:08Z</time>
      </trkpt>
      <trkpt lat="47.652977211400867" lon="11.472170641645789">
        <ele>1760.7919921875</ele>
        <time>2013-06-16T07:28:17Z</time>
      </trkpt>
      <trkpt lat="47.652976205572486" lon="11.472126971930265">
        <ele>1759.35009765625</ele>
        <time>2013-06-16T07:28:27Z</time>
      </trkpt>
      <trkpt lat="47.6529944781214" lon="11.472069472074509">
        <ele>1758.869384765625</ele>
        <time>2013-06-16T07:28:32Z</time>
      </trkpt>
      <trkpt lat="47.653088187798858" lon="11.472004428505898">
        <ele>1759.35009765625</ele>
        <time>2013-06-16T07:28:42Z</time>
      </trkpt>
      <trkpt lat="47.653114423155785" lon="11.471977019682527">
        <ele>1757.427490234375</ele>
        <time>2013-06-16T07:28:53Z</time>
      </trkpt>
      <trkpt lat="47.653116183355451" lon="11.471965871751308">
        <ele>1757.427490234375</ele>
        <time>2013-06-16T07:28:54Z</time>
      </trkpt>
      <trkpt lat="47.653136132284999" lon="11.471903510391712">
        <ele>1760.311279296875</ele>
        <time>2013-06-16T07:29:04Z</time>
      </trkpt>
      <trkpt lat="47.653144346550107" lon="11.471902672201395">
        <ele>1760.7919921875</ele>
        <time>2013-06-16T07:29:08Z</time>
      </trkpt>
      <trkpt lat="47.653160775080323" lon="11.471900912001729">
        <ele>1761.75341796875</ele>
        <time>2013-06-16T07:29:16Z</time>
      </trkpt>
      <trkpt lat="47.653168654069304" lon="11.471875179558992">
        <ele>1762.23388671875</ele>
        <time>2013-06-16T07:29:22Z</time>
      </trkpt>
      <trkpt lat="47.653161948546767" lon="11.471841987222433">
        <ele>1763.1953125</ele>
        <time>2013-06-16T07:29:26Z</time>
      </trkpt>
      <trkpt lat="47.653160188347101" lon="11.471764873713255">
        <ele>1764.156494140625</ele>
        <time>2013-06-16T07:29:32Z</time>
      </trkpt>
      <trkpt lat="47.653200337663293" lon="11.471698321402073">
        <ele>1764.63720703125</ele>
        <time>2013-06-16T07:29:40Z</time>
      </trkpt>
      <trkpt lat="47.653207713738084" lon="11.471673846244812">
        <ele>1766.0791015625</ele>
        <time>2013-06-16T07:29:48Z</time>
      </trkpt>
      <trkpt lat="47.653183657675982" lon="11.471607964485884">
        <ele>1766.559814453125</ele>
        <time>2013-06-16T07:29:58Z</time>
      </trkpt>
      <trkpt lat="47.653180891647935" lon="11.471528587862849">
        <ele>1767.04052734375</ele>
        <time>2013-06-16T07:30:07Z</time>
      </trkpt>
      <trkpt lat="47.653173264116049" lon="11.471476200968027">
        <ele>1768.001708984375</ele>
        <time>2013-06-16T07:30:13Z</time>
      </trkpt>
      <trkpt lat="47.653175108134747" lon="11.471397830173373">
        <ele>1770.8857421875</ele>
        <time>2013-06-16T07:30:23Z</time>
      </trkpt>
      <trkpt lat="47.653197152540088" lon="11.471371594816446">
        <ele>1772.327880859375</ele>
        <time>2013-06-16T07:30:33Z</time>
      </trkpt>
      <trkpt lat="47.653209054842591" lon="11.471328930929303">
        <ele>1774.25048828125</ele>
        <time>2013-06-16T07:30:45Z</time>
      </trkpt>
      <trkpt lat="47.65321240760386" lon="11.471254667267203">
        <ele>1775.6923828125</ele>
        <time>2013-06-16T07:30:55Z</time>
      </trkpt>
      <trkpt lat="47.653202014043927" lon="11.471147881820798">
        <ele>1776.65380859375</ele>
        <time>2013-06-16T07:31:05Z</time>
      </trkpt>
      <trkpt lat="47.653191285207868" lon="11.471006479114294">
        <ele>1779.056884765625</ele>
        <time>2013-06-16T07:31:16Z</time>
      </trkpt>
      <trkpt lat="47.6531948056072" lon="11.470962725579739">
        <ele>1779.056884765625</ele>
        <time>2013-06-16T07:31:25Z</time>
      </trkpt>
      <trkpt lat="47.653187764808536" lon="11.470964150503278">
        <ele>1779.056884765625</ele>
        <time>2013-06-16T07:33:17Z</time>
      </trkpt>
      <trkpt lat="47.653181813657284" lon="11.470941687002778">
        <ele>1779.53759765625</ele>
        <time>2013-06-16T07:33:58Z</time>
      </trkpt>
      <trkpt lat="47.653147699311376" lon="11.470848312601447">
        <ele>1780.018310546875</ele>
        <time>2013-06-16T07:34:07Z</time>
      </trkpt>
      <trkpt lat="47.653109980747104" lon="11.470734905451536">
        <ele>1782.421630859375</ele>
        <time>2013-06-16T07:34:18Z</time>
      </trkpt>
      <trkpt lat="47.653068071231246" lon="11.470625270158052">
        <ele>1783.863525390625</ele>
        <time>2013-06-16T07:34:27Z</time>
      </trkpt>
      <trkpt lat="47.653066394850612" lon="11.470571542158723">
        <ele>1785.305419921875</ele>
        <time>2013-06-16T07:34:38Z</time>
      </trkpt>
      <trkpt lat="47.653060276061296" lon="11.470553856343031">
        <ele>1786.747314453125</ele>
        <time>2013-06-16T07:34:43Z</time>
      </trkpt>
      <trkpt lat="47.653047787025571" lon="11.470489064231515">
        <ele>1787.22802734375</ele>
        <time>2013-06-16T07:34:53Z</time>
      </trkpt>
      <trkpt lat="47.653029011562467" lon="11.470457464456558">
        <ele>1788.67041015625</ele>
        <time>2013-06-16T07:35:01Z</time>
      </trkpt>
      <trkpt lat="47.653013924136758" lon="11.470374818891287">
        <ele>1789.631591796875</ele>
        <time>2013-06-16T07:35:10Z</time>
      </trkpt>
      <trkpt lat="47.653051558881998" lon="11.470359563827515">
        <ele>1792.034912109375</ele>
        <time>2013-06-16T07:35:19Z</time>
      </trkpt>
      <trkpt lat="47.653081147000194" lon="11.470355456694961">
        <ele>1793.95751953125</ele>
        <time>2013-06-16T07:35:27Z</time>
      </trkpt>
      <trkpt lat="47.653153147548437" lon="11.470380770042539">
        <ele>1796.36083984375</ele>
        <time>2013-06-16T07:35:39Z</time>
      </trkpt>
      <trkpt lat="47.653172677382827" lon="11.470316564664245">
        <ele>1798.763916015625</ele>
        <time>2013-06-16T07:35:50Z</time>
      </trkpt>
      <trkpt lat="47.653186926618218" lon="11.470249174162745">
        <ele>1798.763916015625</ele>
        <time>2013-06-16T07:35:58Z</time>
      </trkpt>
      <trkpt lat="47.653222382068634" lon="11.470137359574437">
        <ele>1799.725341796875</ele>
        <time>2013-06-16T07:36:09Z</time>
      </trkpt>
      <trkpt lat="47.653234452009201" lon="11.470114476978779">
        <ele>1798.283203125</ele>
        <time>2013-06-16T07:36:14Z</time>
      </trkpt>
      <trkpt lat="47.653272338211536" lon="11.470017163082957">
        <ele>1797.322021484375</ele>
        <time>2013-06-16T07:36:24Z</time>
      </trkpt>
      <trkpt lat="47.653271332383156" lon="11.470009032636881">
        <ele>1797.322021484375</ele>
        <time>2013-06-16T07:36:25Z</time>
      </trkpt>
      <trkpt lat="47.653256496414542" lon="11.469950694590807">
        <ele>1794.43798828125</ele>
        <time>2013-06-16T07:36:30Z</time>
      </trkpt>
      <trkpt lat="47.653262950479984" lon="11.469902833923697">
        <ele>1796.36083984375</ele>
        <time>2013-06-16T07:36:40Z</time>
      </trkpt>
      <trkpt lat="47.653267309069633" lon="11.469857320189476">
        <ele>1795.3994140625</ele>
        <time>2013-06-16T07:37:09Z</time>
      </trkpt>
      <trkpt lat="47.653262699022889" lon="11.469777440652251">
        <ele>1794.43798828125</ele>
        <time>2013-06-16T07:37:21Z</time>
      </trkpt>
      <trkpt lat="47.653257586061954" lon="11.469693621620536">
        <ele>1792.515625</ele>
        <time>2013-06-16T07:37:30Z</time>
      </trkpt>
      <trkpt lat="47.653247946873307" lon="11.4696039352566">
        <ele>1790.1123046875</ele>
        <time>2013-06-16T07:37:40Z</time>
      </trkpt>
      <trkpt lat="47.653282647952437" lon="11.46954920142889">
        <ele>1788.67041015625</ele>
        <time>2013-06-16T07:37:49Z</time>
      </trkpt>
      <trkpt lat="47.653265129774809" lon="11.469470579177141">
        <ele>1787.708740234375</ele>
        <time>2013-06-16T07:37:59Z</time>
      </trkpt>
      <trkpt lat="47.653278457000852" lon="11.469374354928732">
        <ele>1786.266845703125</ele>
        <time>2013-06-16T07:38:07Z</time>
      </trkpt>
      <trkpt lat="47.653280217200518" lon="11.469286680221558">
        <ele>1786.747314453125</ele>
        <time>2013-06-16T07:38:17Z</time>
      </trkpt>
      <trkpt lat="47.653250880539417" lon="11.46920126862824">
        <ele>1784.824951171875</ele>
        <time>2013-06-16T07:38:27Z</time>
      </trkpt>
      <trkpt lat="47.653262782841921" lon="11.469134967774153">
        <ele>1783.863525390625</ele>
        <time>2013-06-16T07:38:33Z</time>
      </trkpt>
      <trkpt lat="47.653284575790167" lon="11.469070175662637">
        <ele>1782.902099609375</ele>
        <time>2013-06-16T07:38:41Z</time>
      </trkpt>
      <trkpt lat="47.65327837318182" lon="11.468995828181505">
        <ele>1783.863525390625</ele>
        <time>2013-06-16T07:38:49Z</time>
      </trkpt>
      <trkpt lat="47.653276110067964" lon="11.468886025249958">
        <ele>1782.902099609375</ele>
        <time>2013-06-16T07:38:59Z</time>
      </trkpt>
      <trkpt lat="47.653311230242252" lon="11.468770857900381">
        <ele>1781.94091796875</ele>
        <time>2013-06-16T07:39:09Z</time>
      </trkpt>
      <trkpt lat="47.653305446729064" lon="11.468746550381184">
        <ele>1781.460205078125</ele>
        <time>2013-06-16T07:39:11Z</time>
      </trkpt>
      <trkpt lat="47.653245432302356" lon="11.468639764934778">
        <ele>1781.460205078125</ele>
        <time>2013-06-16T07:39:20Z</time>
      </trkpt>
      <trkpt lat="47.653197655454278" lon="11.468556532636285">
        <ele>1780.979736328125</ele>
        <time>2013-06-16T07:39:30Z</time>
      </trkpt>
      <trkpt lat="47.653203355148435" lon="11.468490734696388">
        <ele>1780.018310546875</ele>
        <time>2013-06-16T07:39:40Z</time>
      </trkpt>
      <trkpt lat="47.653193296864629" lon="11.46839308552444">
        <ele>1778.576416015625</ele>
        <time>2013-06-16T07:39:50Z</time>
      </trkpt>
      <trkpt lat="47.653192123398185" lon="11.468350170180202">
        <ele>1778.576416015625</ele>
        <time>2013-06-16T07:39:56Z</time>
      </trkpt>
      <trkpt lat="47.653232607990503" lon="11.468193428590894">
        <ele>1779.056884765625</ele>
        <time>2013-06-16T07:40:09Z</time>
      </trkpt>
      <trkpt lat="47.653217939659953" lon="11.468114051967859">
        <ele>1778.576416015625</ele>
        <time>2013-06-16T07:40:19Z</time>
      </trkpt>
      <trkpt lat="47.65318164601922" lon="11.468023946508765">
        <ele>1776.65380859375</ele>
        <time>2013-06-16T07:40:28Z</time>
      </trkpt>
      <trkpt lat="47.65316303819418" lon="11.468015061691403">
        <ele>1776.65380859375</ele>
        <time>2013-06-16T07:40:31Z</time>
      </trkpt>
      <trkpt lat="47.653101347386837" lon="11.467907354235649">
        <ele>1775.6923828125</ele>
        <time>2013-06-16T07:40:40Z</time>
      </trkpt>
      <trkpt lat="47.653112160041928" lon="11.467818086966872">
        <ele>1777.134521484375</ele>
        <time>2013-06-16T07:40:47Z</time>
      </trkpt>
      <trkpt lat="47.653071843087673" lon="11.467715827748179">
        <ele>1776.65380859375</ele>
        <time>2013-06-16T07:40:58Z</time>
      </trkpt>
      <trkpt lat="47.653056168928742" lon="11.467591691762209">
        <ele>1777.614990234375</ele>
        <time>2013-06-16T07:41:08Z</time>
      </trkpt>
      <trkpt lat="47.653047619387507" lon="11.467489851638675">
        <ele>1777.614990234375</ele>
        <time>2013-06-16T07:41:16Z</time>
      </trkpt>
      <trkpt lat="47.65305994078517" lon="11.467459760606289">
        <ele>1778.576416015625</ele>
        <time>2013-06-16T07:41:24Z</time>
      </trkpt>
      <trkpt lat="47.653044015169144" lon="11.467410391196609">
        <ele>1778.095703125</ele>
        <time>2013-06-16T07:41:30Z</time>
      </trkpt>
      <trkpt lat="47.653027502819896" lon="11.467337133362889">
        <ele>1778.095703125</ele>
        <time>2013-06-16T07:41:41Z</time>
      </trkpt>
      <trkpt lat="47.652988275513053" lon="11.467205537483096">
        <ele>1778.095703125</ele>
        <time>2013-06-16T07:41:54Z</time>
      </trkpt>
      <trkpt lat="47.652999423444271" lon="11.46712264046073">
        <ele>1779.53759765625</ele>
        <time>2013-06-16T07:42:04Z</time>
      </trkpt>
      <trkpt lat="47.652965895831585" lon="11.467027924954891">
        <ele>1779.53759765625</ele>
        <time>2013-06-16T07:42:14Z</time>
      </trkpt>
      <trkpt lat="47.652976540848613" lon="11.466890629380941">
        <ele>1780.4990234375</ele>
        <time>2013-06-16T07:42:26Z</time>
      </trkpt>
      <trkpt lat="47.65296078287065" lon="11.46678795106709">
        <ele>1783.3828125</ele>
        <time>2013-06-16T07:42:38Z</time>
      </trkpt>
      <trkpt lat="47.652915185317397" lon="11.466692816466093">
        <ele>1782.421630859375</ele>
        <time>2013-06-16T07:42:49Z</time>
      </trkpt>
      <trkpt lat="47.652895152568817" lon="11.466607069596648">
        <ele>1781.460205078125</ele>
        <time>2013-06-16T07:42:57Z</time>
      </trkpt>
      <trkpt lat="47.652900014072657" lon="11.46645275875926">
        <ele>1782.902099609375</ele>
        <time>2013-06-16T07:43:06Z</time>
      </trkpt>
      <trkpt lat="47.652937397360802" lon="11.466388050466776">
        <ele>1784.824951171875</ele>
        <time>2013-06-16T07:43:16Z</time>
      </trkpt>
      <trkpt lat="47.652941001579165" lon="11.466303477063775">
        <ele>1785.7861328125</ele>
        <time>2013-06-16T07:43:26Z</time>
      </trkpt>
      <trkpt lat="47.652955669909716" lon="11.466203900054097">
        <ele>1788.189697265625</ele>
        <time>2013-06-16T07:43:36Z</time>
      </trkpt>
      <trkpt lat="47.652978217229247" lon="11.466148244217038">
        <ele>1789.631591796875</ele>
        <time>2013-06-16T07:43:46Z</time>
      </trkpt>
      <trkpt lat="47.652985928580165" lon="11.466092001646757">
        <ele>1791.073486328125</ele>
        <time>2013-06-16T07:43:53Z</time>
      </trkpt>
      <trkpt lat="47.652998333796859" lon="11.466049589216709">
        <ele>1792.515625</ele>
        <time>2013-06-16T07:43:59Z</time>
      </trkpt>
      <trkpt lat="47.653021886944771" lon="11.466015223413706">
        <ele>1792.515625</ele>
        <time>2013-06-16T07:44:07Z</time>
      </trkpt>
      <trkpt lat="47.653069663792849" lon="11.465972643345594">
        <ele>1791.073486328125</ele>
        <time>2013-06-16T07:44:15Z</time>
      </trkpt>
      <trkpt lat="47.653106125071645" lon="11.465904582291842">
        <ele>1791.55419921875</ele>
        <time>2013-06-16T07:44:22Z</time>
      </trkpt>
      <trkpt lat="47.653097324073315" lon="11.465781787410378">
        <ele>1795.3994140625</ele>
        <time>2013-06-16T07:44:35Z</time>
      </trkpt>
      <trkpt lat="47.65310981310904" lon="11.465712049975991">
        <ele>1798.763916015625</ele>
        <time>2013-06-16T07:44:44Z</time>
      </trkpt>
      <trkpt lat="47.653156667947769" lon="11.465636780485511">
        <ele>1801.167236328125</ele>
        <time>2013-06-16T07:44:56Z</time>
      </trkpt>
      <trkpt lat="47.653165720403194" lon="11.46561180241406">
        <ele>1801.167236328125</ele>
        <time>2013-06-16T07:45:07Z</time>
      </trkpt>
      <trkpt lat="47.653137557208538" lon="11.465609623119235">
        <ele>1800.6865234375</ele>
        <time>2013-06-16T07:45:35Z</time>
      </trkpt>
      <trkpt lat="47.653118027374148" lon="11.465628314763308">
        <ele>1798.763916015625</ele>
        <time>2013-06-16T07:45:44Z</time>
      </trkpt>
      <trkpt lat="47.653096485882998" lon="11.465644156560302">
        <ele>1798.283203125</ele>
        <time>2013-06-16T07:45:58Z</time>
      </trkpt>
      <trkpt lat="47.653078716248274" lon="11.465647341683507">
        <ele>1797.322021484375</ele>
        <time>2013-06-16T07:46:06Z</time>
      </trkpt>
      <trkpt lat="47.653077458962798" lon="11.465700231492519">
        <ele>1796.36083984375</ele>
        <time>2013-06-16T07:46:17Z</time>
      </trkpt>
      <trkpt lat="47.653080392628908" lon="11.465751780197024">
        <ele>1795.880126953125</ele>
        <time>2013-06-16T07:46:27Z</time>
      </trkpt>
      <trkpt lat="47.653093887493014" lon="11.465774662792683">
        <ele>1794.918701171875</ele>
        <time>2013-06-16T07:46:39Z</time>
      </trkpt>
      <trkpt lat="47.653106627985835" lon="11.465757396072149">
        <ele>1794.43798828125</ele>
        <time>2013-06-16T07:49:12Z</time>
      </trkpt>
      <trkpt lat="47.653092630207539" lon="11.465763011947274">
        <ele>1795.3994140625</ele>
        <time>2013-06-16T08:16:47Z</time>
      </trkpt>
      <trkpt lat="47.653087265789509" lon="11.465765191242099">
        <ele>1794.918701171875</ele>
        <time>2013-06-16T08:18:07Z</time>
      </trkpt>
      <trkpt lat="47.653070921078324" lon="11.465757312253118">
        <ele>1794.918701171875</ele>
        <time>2013-06-16T08:18:16Z</time>
      </trkpt>
      <trkpt lat="47.653062371537089" lon="11.465762173756957">
        <ele>1793.95751953125</ele>
        <time>2013-06-16T08:18:25Z</time>
      </trkpt>
      <trkpt lat="47.653011409565806" lon="11.465764353051782">
        <ele>1792.515625</ele>
        <time>2013-06-16T08:18:36Z</time>
      </trkpt>
      <trkpt lat="47.652960112318397" lon="11.465825289487839">
        <ele>1790.5927734375</ele>
        <time>2013-06-16T08:18:47Z</time>
      </trkpt>
      <trkpt lat="47.65294318087399" lon="11.465887064114213">
        <ele>1789.15087890625</ele>
        <time>2013-06-16T08:18:57Z</time>
      </trkpt>
      <trkpt lat="47.652925495058298" lon="11.465956214815378">
        <ele>1788.189697265625</ele>
        <time>2013-06-16T08:19:03Z</time>
      </trkpt>
      <trkpt lat="47.652950305491686" lon="11.46606819704175">
        <ele>1788.189697265625</ele>
        <time>2013-06-16T08:19:14Z</time>
      </trkpt>
      <trkpt lat="47.652946868911386" lon="11.466180430725217">
        <ele>1788.189697265625</ele>
        <time>2013-06-16T08:19:24Z</time>
      </trkpt>
      <trkpt lat="47.652944019064307" lon="11.466303644701838">
        <ele>1786.747314453125</ele>
        <time>2013-06-16T08:19:35Z</time>
      </trkpt>
      <trkpt lat="47.652949467301369" lon="11.466373885050416">
        <ele>1785.305419921875</ele>
        <time>2013-06-16T08:19:45Z</time>
      </trkpt>
      <trkpt lat="47.652950724586844" lon="11.46641562692821">
        <ele>1785.305419921875</ele>
        <time>2013-06-16T08:19:55Z</time>
      </trkpt>
      <trkpt lat="47.652924153953791" lon="11.466431636363268">
        <ele>1782.902099609375</ele>
        <time>2013-06-16T08:20:04Z</time>
      </trkpt>
      <trkpt lat="47.652907893061638" lon="11.466490561142564">
        <ele>1781.460205078125</ele>
        <time>2013-06-16T08:20:09Z</time>
      </trkpt>
      <trkpt lat="47.652912251651287" lon="11.466629197821021">
        <ele>1781.94091796875</ele>
        <time>2013-06-16T08:20:18Z</time>
      </trkpt>
      <trkpt lat="47.652953155338764" lon="11.466732630506158">
        <ele>1783.3828125</ele>
        <time>2013-06-16T08:20:30Z</time>
      </trkpt>
      <trkpt lat="47.652958603575826" lon="11.466776132583618">
        <ele>1782.421630859375</ele>
        <time>2013-06-16T08:20:40Z</time>
      </trkpt>
      <trkpt lat="47.65297494828701" lon="11.466819299384952">
        <ele>1782.902099609375</ele>
        <time>2013-06-16T08:20:49Z</time>
      </trkpt>
      <trkpt lat="47.652971427887678" lon="11.466836901381612">
        <ele>1781.94091796875</ele>
        <time>2013-06-16T08:21:00Z</time>
      </trkpt>
      <trkpt lat="47.652977127581835" lon="11.466945866122842">
        <ele>1780.018310546875</ele>
        <time>2013-06-16T08:21:10Z</time>
      </trkpt>
      <trkpt lat="47.652974613010883" lon="11.467066565528512">
        <ele>1779.53759765625</ele>
        <time>2013-06-16T08:21:21Z</time>
      </trkpt>
      <trkpt lat="47.652993891388178" lon="11.467113839462399">
        <ele>1780.018310546875</ele>
        <time>2013-06-16T08:21:29Z</time>
      </trkpt>
      <trkpt lat="47.652992969378829" lon="11.467193802818656">
        <ele>1778.576416015625</ele>
        <time>2013-06-16T08:21:38Z</time>
      </trkpt>
      <trkpt lat="47.653004284948111" lon="11.467239232733846">
        <ele>1778.095703125</ele>
        <time>2013-06-16T08:21:44Z</time>
      </trkpt>
      <trkpt lat="47.653027251362801" lon="11.46732154302299">
        <ele>1777.614990234375</ele>
        <time>2013-06-16T08:21:55Z</time>
      </trkpt>
      <trkpt lat="47.653028424829245" lon="11.467325314879417">
        <ele>1778.576416015625</ele>
        <time>2013-06-16T08:21:58Z</time>
      </trkpt>
      <trkpt lat="47.653047367930412" lon="11.467418940737844">
        <ele>1778.576416015625</ele>
        <time>2013-06-16T08:22:09Z</time>
      </trkpt>
      <trkpt lat="47.653053738176823" lon="11.467495299875736">
        <ele>1778.095703125</ele>
        <time>2013-06-16T08:22:19Z</time>
      </trkpt>
      <trkpt lat="47.653062958270311" lon="11.467623878270388">
        <ele>1778.095703125</ele>
        <time>2013-06-16T08:22:30Z</time>
      </trkpt>
      <trkpt lat="47.653070753440261" lon="11.467710547149181">
        <ele>1778.095703125</ele>
        <time>2013-06-16T08:22:38Z</time>
      </trkpt>
      <trkpt lat="47.653086762875319" lon="11.467825630679727">
        <ele>1776.65380859375</ele>
        <time>2013-06-16T08:22:47Z</time>
      </trkpt>
      <trkpt lat="47.653104951605201" lon="11.467872569337487">
        <ele>1776.65380859375</ele>
        <time>2013-06-16T08:22:50Z</time>
      </trkpt>
      <trkpt lat="47.653118195012212" lon="11.467920346185565">
        <ele>1776.65380859375</ele>
        <time>2013-06-16T08:22:53Z</time>
      </trkpt>
      <trkpt lat="47.653185166418552" lon="11.467995699495077">
        <ele>1777.614990234375</ele>
        <time>2013-06-16T08:23:04Z</time>
      </trkpt>
      <trkpt lat="47.653200840577483" lon="11.468067113310099">
        <ele>1778.576416015625</ele>
        <time>2013-06-16T08:23:14Z</time>
      </trkpt>
      <trkpt lat="47.653219029307365" lon="11.468134000897408">
        <ele>1778.576416015625</ele>
        <time>2013-06-16T08:23:23Z</time>
      </trkpt>
      <trkpt lat="47.653225231915712" lon="11.468170210719109">
        <ele>1779.056884765625</ele>
        <time>2013-06-16T08:23:30Z</time>
      </trkpt>
      <trkpt lat="47.653225986286998" lon="11.468178844079375">
        <ele>1779.056884765625</ele>
        <time>2013-06-16T08:23:31Z</time>
      </trkpt>
      <trkpt lat="47.653198158368468" lon="11.468332232907414">
        <ele>1779.53759765625</ele>
        <time>2013-06-16T08:23:42Z</time>
      </trkpt>
      <trkpt lat="47.653204193338752" lon="11.468417560681701">
        <ele>1779.53759765625</ele>
        <time>2013-06-16T08:23:51Z</time>
      </trkpt>
      <trkpt lat="47.653206791728735" lon="11.468468019738793">
        <ele>1781.460205078125</ele>
        <time>2013-06-16T08:23:59Z</time>
      </trkpt>
      <trkpt lat="47.653218191117048" lon="11.468576062470675">
        <ele>1781.460205078125</ele>
        <time>2013-06-16T08:24:10Z</time>
      </trkpt>
      <trkpt lat="47.653265632688999" lon="11.468688966706395">
        <ele>1782.902099609375</ele>
        <time>2013-06-16T08:24:20Z</time>
      </trkpt>
      <trkpt lat="47.653289102017879" lon="11.468771863728762">
        <ele>1782.902099609375</ele>
        <time>2013-06-16T08:24:29Z</time>
      </trkpt>
      <trkpt lat="47.653294214978814" lon="11.468806648626924">
        <ele>1782.902099609375</ele>
        <time>2013-06-16T08:24:32Z</time>
      </trkpt>
      <trkpt lat="47.653271751478314" lon="11.468944530934095">
        <ele>1783.3828125</ele>
        <time>2013-06-16T08:24:43Z</time>
      </trkpt>
      <trkpt lat="47.653282564133406" lon="11.469015860930085">
        <ele>1784.824951171875</ele>
        <time>2013-06-16T08:24:51Z</time>
      </trkpt>
      <trkpt lat="47.653288012370467" lon="11.469036564230919">
        <ele>1784.34423828125</ele>
        <time>2013-06-16T08:24:53Z</time>
      </trkpt>
      <trkpt lat="47.653259178623557" lon="11.46913823671639">
        <ele>1785.7861328125</ele>
        <time>2013-06-16T08:25:04Z</time>
      </trkpt>
      <trkpt lat="47.653254149481654" lon="11.469229012727737">
        <ele>1786.266845703125</ele>
        <time>2013-06-16T08:25:14Z</time>
      </trkpt>
      <trkpt lat="47.653284072875977" lon="11.469277795404196">
        <ele>1787.708740234375</ele>
        <time>2013-06-16T08:25:25Z</time>
      </trkpt>
      <trkpt lat="47.653271667659283" lon="11.469402015209198">
        <ele>1788.67041015625</ele>
        <time>2013-06-16T08:25:35Z</time>
      </trkpt>
      <trkpt lat="47.653270494192839" lon="11.469512572512031">
        <ele>1790.5927734375</ele>
        <time>2013-06-16T08:25:46Z</time>
      </trkpt>
      <trkpt lat="47.653246857225895" lon="11.469581639394164">
        <ele>1791.55419921875</ele>
        <time>2013-06-16T08:25:56Z</time>
      </trkpt>
      <trkpt lat="47.653259430080652" lon="11.469654310494661">
        <ele>1793.476806640625</ele>
        <time>2013-06-16T08:26:06Z</time>
      </trkpt>
      <trkpt lat="47.65325297601521" lon="11.469746008515358">
        <ele>1794.918701171875</ele>
        <time>2013-06-16T08:26:17Z</time>
      </trkpt>
      <trkpt lat="47.653252724558115" lon="11.469856565818191">
        <ele>1796.84130859375</ele>
        <time>2013-06-16T08:26:31Z</time>
      </trkpt>
      <trkpt lat="47.653245599940419" lon="11.469983300194144">
        <ele>1797.802734375</ele>
        <time>2013-06-16T08:26:41Z</time>
      </trkpt>
      <trkpt lat="47.653263453394175" lon="11.470021102577448">
        <ele>1799.24462890625</ele>
        <time>2013-06-16T08:26:52Z</time>
      </trkpt>
      <trkpt lat="47.653268650174141" lon="11.470023700967431">
        <ele>1799.24462890625</ele>
        <time>2013-06-16T08:27:07Z</time>
      </trkpt>
      <trkpt lat="47.653253059834242" lon="11.4700857270509">
        <ele>1799.725341796875</ele>
        <time>2013-06-16T08:27:45Z</time>
      </trkpt>
      <trkpt lat="47.65320897102356" lon="11.470231991261244">
        <ele>1799.725341796875</ele>
        <time>2013-06-16T08:27:56Z</time>
      </trkpt>
      <trkpt lat="47.653175946325064" lon="11.470335172489285">
        <ele>1798.763916015625</ele>
        <time>2013-06-16T08:28:06Z</time>
      </trkpt>
      <trkpt lat="47.65312104485929" lon="11.470381775870919">
        <ele>1796.36083984375</ele>
        <time>2013-06-16T08:28:17Z</time>
      </trkpt>
      <trkpt lat="47.65305457636714" lon="11.470340033993125">
        <ele>1794.43798828125</ele>
        <time>2013-06-16T08:28:27Z</time>
      </trkpt>
      <trkpt lat="47.653042925521731" lon="11.47034908644855">
        <ele>1793.476806640625</ele>
        <time>2013-06-16T08:28:31Z</time>
      </trkpt>
      <trkpt lat="47.653018115088344" lon="11.470367358997464">
        <ele>1792.034912109375</ele>
        <time>2013-06-16T08:28:38Z</time>
      </trkpt>
      <trkpt lat="47.652990203350782" lon="11.470413208007812">
        <ele>1790.5927734375</ele>
        <time>2013-06-16T08:28:47Z</time>
      </trkpt>
      <trkpt lat="47.653028424829245" lon="11.470467606559396">
        <ele>1790.1123046875</ele>
        <time>2013-06-16T08:28:56Z</time>
      </trkpt>
      <trkpt lat="47.653019540011883" lon="11.470504822209477">
        <ele>1788.67041015625</ele>
        <time>2013-06-16T08:29:04Z</time>
      </trkpt>
      <trkpt lat="47.653035800904036" lon="11.470553604885936">
        <ele>1787.708740234375</ele>
        <time>2013-06-16T08:29:12Z</time>
      </trkpt>
      <trkpt lat="47.653042087331414" lon="11.47058461792767">
        <ele>1787.22802734375</ele>
        <time>2013-06-16T08:29:21Z</time>
      </trkpt>
      <trkpt lat="47.653050217777491" lon="11.470592664554715">
        <ele>1785.7861328125</ele>
        <time>2013-06-16T08:29:24Z</time>
      </trkpt>
      <trkpt lat="47.653062706813216" lon="11.470655612647533">
        <ele>1785.305419921875</ele>
        <time>2013-06-16T08:29:31Z</time>
      </trkpt>
      <trkpt lat="47.653101766481996" lon="11.470747226849198">
        <ele>1784.34423828125</ele>
        <time>2013-06-16T08:29:39Z</time>
      </trkpt>
      <trkpt lat="47.653125654906034" lon="11.470831381157041">
        <ele>1782.902099609375</ele>
        <time>2013-06-16T08:29:48Z</time>
      </trkpt>
      <trkpt lat="47.653157254680991" lon="11.470910757780075">
        <ele>1782.421630859375</ele>
        <time>2013-06-16T08:29:56Z</time>
      </trkpt>
      <trkpt lat="47.653168570250273" lon="11.471011843532324">
        <ele>1780.4990234375</ele>
        <time>2013-06-16T08:30:07Z</time>
      </trkpt>
      <trkpt lat="47.653168737888336" lon="11.471021650359035">
        <ele>1780.018310546875</ele>
        <time>2013-06-16T08:30:08Z</time>
      </trkpt>
      <trkpt lat="47.653188351541758" lon="11.471154587343335">
        <ele>1778.576416015625</ele>
        <time>2013-06-16T08:30:18Z</time>
      </trkpt>
      <trkpt lat="47.653186423704028" lon="11.471251649782062">
        <ele>1778.095703125</ele>
        <time>2013-06-16T08:30:27Z</time>
      </trkpt>
      <trkpt lat="47.653186926618218" lon="11.471318202093244">
        <ele>1777.134521484375</ele>
        <time>2013-06-16T08:30:37Z</time>
      </trkpt>
      <trkpt lat="47.653177203610539" lon="11.471354831010103">
        <ele>1774.731201171875</ele>
        <time>2013-06-16T08:30:48Z</time>
      </trkpt>
      <trkpt lat="47.65316161327064" lon="11.471388777717948">
        <ele>1772.327880859375</ele>
        <time>2013-06-16T08:31:03Z</time>
      </trkpt>
      <trkpt lat="47.653149794787169" lon="11.471466477960348">
        <ele>1770.8857421875</ele>
        <time>2013-06-16T08:31:12Z</time>
      </trkpt>
      <trkpt lat="47.653160355985165" lon="11.471541998907924">
        <ele>1769.92431640625</ele>
        <time>2013-06-16T08:31:23Z</time>
      </trkpt>
      <trkpt lat="47.653170581907034" lon="11.47163512185216">
        <ele>1768.482421875</ele>
        <time>2013-06-16T08:31:32Z</time>
      </trkpt>
      <trkpt lat="47.653177287429571" lon="11.471696812659502">
        <ele>1767.52099609375</ele>
        <time>2013-06-16T08:31:41Z</time>
      </trkpt>
      <trkpt lat="47.653173934668303" lon="11.471714079380035">
        <ele>1766.559814453125</ele>
        <time>2013-06-16T08:31:44Z</time>
      </trkpt>
      <trkpt lat="47.653144765645266" lon="11.471776943653822">
        <ele>1765.117919921875</ele>
        <time>2013-06-16T08:31:50Z</time>
      </trkpt>
      <trkpt lat="47.653147699311376" lon="11.471898565068841">
        <ele>1764.63720703125</ele>
        <time>2013-06-16T08:32:00Z</time>
      </trkpt>
      <trkpt lat="47.653119284659624" lon="11.471904097124934">
        <ele>1762.23388671875</ele>
        <time>2013-06-16T08:32:11Z</time>
      </trkpt>
      <trkpt lat="47.653097156435251" lon="11.471930583938956">
        <ele>1761.272705078125</ele>
        <time>2013-06-16T08:32:19Z</time>
      </trkpt>
      <trkpt lat="47.653090283274651" lon="11.471994034945965">
        <ele>1761.75341796875</ele>
        <time>2013-06-16T08:32:26Z</time>
      </trkpt>
      <trkpt lat="47.65304577536881" lon="11.472010966390371">
        <ele>1760.7919921875</ele>
        <time>2013-06-16T08:32:36Z</time>
      </trkpt>
      <trkpt lat="47.652960615232587" lon="11.472089756280184">
        <ele>1760.7919921875</ele>
        <time>2013-06-16T08:32:46Z</time>
      </trkpt>
      <trkpt lat="47.652947120368481" lon="11.472151866182685">
        <ele>1762.23388671875</ele>
        <time>2013-06-16T08:32:52Z</time>
      </trkpt>
      <trkpt lat="47.652949132025242" lon="11.472226046025753">
        <ele>1763.67578125</ele>
        <time>2013-06-16T08:33:02Z</time>
      </trkpt>
      <trkpt lat="47.65294024720788" lon="11.47225035354495">
        <ele>1763.67578125</ele>
        <time>2013-06-16T08:33:05Z</time>
      </trkpt>
      <trkpt lat="47.652911245822906" lon="11.472333334386349">
        <ele>1764.156494140625</ele>
        <time>2013-06-16T08:33:15Z</time>
      </trkpt>
      <trkpt lat="47.652890291064978" lon="11.472393684089184">
        <ele>1764.63720703125</ele>
        <time>2013-06-16T08:33:25Z</time>
      </trkpt>
      <trkpt lat="47.652882244437933" lon="11.472423439845443">
        <ele>1764.156494140625</ele>
        <time>2013-06-16T08:33:33Z</time>
      </trkpt>
      <trkpt lat="47.652869671583176" lon="11.472456129267812">
        <ele>1763.1953125</ele>
        <time>2013-06-16T08:33:42Z</time>
      </trkpt>
      <trkpt lat="47.652873024344444" lon="11.47250197827816">
        <ele>1761.75341796875</ele>
        <time>2013-06-16T08:33:50Z</time>
      </trkpt>
      <trkpt lat="47.652840921655297" lon="11.472606752067804">
        <ele>1758.869384765625</ele>
        <time>2013-06-16T08:33:59Z</time>
      </trkpt>
      <trkpt lat="47.652810411527753" lon="11.472656121477485">
        <ele>1758.388671875</ele>
        <time>2013-06-16T08:34:03Z</time>
      </trkpt>
      <trkpt lat="47.65277897939086" lon="11.472772462293506">
        <ele>1759.83056640625</ele>
        <time>2013-06-16T08:34:12Z</time>
      </trkpt>
      <trkpt lat="47.652767077088356" lon="11.472938004881144">
        <ele>1762.714599609375</ele>
        <time>2013-06-16T08:34:26Z</time>
      </trkpt>
      <trkpt lat="47.652762802317739" lon="11.473076557740569">
        <ele>1765.5986328125</ele>
        <time>2013-06-16T08:34:38Z</time>
      </trkpt>
      <trkpt lat="47.652796916663647" lon="11.473245285451412">
        <ele>1768.963134765625</ele>
        <time>2013-06-16T08:34:52Z</time>
      </trkpt>
      <trkpt lat="47.652774704620242" lon="11.473357351496816">
        <ele>1770.8857421875</ele>
        <time>2013-06-16T08:35:03Z</time>
      </trkpt>
      <trkpt lat="47.652754336595535" lon="11.473506130278111">
        <ele>1772.80859375</ele>
        <time>2013-06-16T08:35:16Z</time>
      </trkpt>
      <trkpt lat="47.65273941680789" lon="11.473621716722846">
        <ele>1774.731201171875</ele>
        <time>2013-06-16T08:35:29Z</time>
      </trkpt>
      <trkpt lat="47.652712510898709" lon="11.473740069195628">
        <ele>1776.173095703125</ele>
        <time>2013-06-16T08:35:40Z</time>
      </trkpt>
      <trkpt lat="47.652699099853635" lon="11.473789690062404">
        <ele>1777.614990234375</ele>
        <time>2013-06-16T08:35:50Z</time>
      </trkpt>
      <trkpt lat="47.652689125388861" lon="11.473869066685438">
        <ele>1780.018310546875</ele>
        <time>2013-06-16T08:36:02Z</time>
      </trkpt>
      <trkpt lat="47.652712259441614" lon="11.473979456350207">
        <ele>1779.53759765625</ele>
        <time>2013-06-16T08:36:13Z</time>
      </trkpt>
      <trkpt lat="47.652720976620913" lon="11.474032681435347">
        <ele>1779.53759765625</ele>
        <time>2013-06-16T08:36:18Z</time>
      </trkpt>
      <trkpt lat="47.652748385444283" lon="11.474177772179246">
        <ele>1778.576416015625</ele>
        <time>2013-06-16T08:36:30Z</time>
      </trkpt>
      <trkpt lat="47.652767496183515" lon="11.474260166287422">
        <ele>1778.576416015625</ele>
        <time>2013-06-16T08:36:37Z</time>
      </trkpt>
      <trkpt lat="47.652753833681345" lon="11.47438027895987">
        <ele>1778.576416015625</ele>
        <time>2013-06-16T08:36:48Z</time>
      </trkpt>
      <trkpt lat="47.652761293575168" lon="11.474401904270053">
        <ele>1777.614990234375</ele>
        <time>2013-06-16T08:36:50Z</time>
      </trkpt>
      <trkpt lat="47.652778811752796" lon="11.474453033879399">
        <ele>1777.614990234375</ele>
        <time>2013-06-16T08:36:54Z</time>
      </trkpt>
      <trkpt lat="47.652790211141109" lon="11.474572559818625">
        <ele>1777.614990234375</ele>
        <time>2013-06-16T08:37:01Z</time>
      </trkpt>
      <trkpt lat="47.65282784588635" lon="11.474719829857349">
        <ele>1777.134521484375</ele>
        <time>2013-06-16T08:37:10Z</time>
      </trkpt>
      <trkpt lat="47.652827007696033" lon="11.474843798205256">
        <ele>1776.173095703125</ele>
        <time>2013-06-16T08:37:17Z</time>
      </trkpt>
      <trkpt lat="47.652807645499706" lon="11.474922839552164">
        <ele>1775.211669921875</ele>
        <time>2013-06-16T08:37:25Z</time>
      </trkpt>
      <trkpt lat="47.652822397649288" lon="11.474976819008589">
        <ele>1772.80859375</ele>
        <time>2013-06-16T08:37:36Z</time>
      </trkpt>
      <trkpt lat="47.652822816744447" lon="11.475012190639973">
        <ele>1772.327880859375</ele>
        <time>2013-06-16T08:37:44Z</time>
      </trkpt>
      <trkpt lat="47.652841089293361" lon="11.475020907819271">
        <ele>1770.405029296875</ele>
        <time>2013-06-16T08:37:51Z</time>
      </trkpt>
      <trkpt lat="47.652869084849954" lon="11.475047897547483">
        <ele>1768.001708984375</ele>
        <time>2013-06-16T08:38:05Z</time>
      </trkpt>
      <trkpt lat="47.652877299115062" lon="11.475030379369855">
        <ele>1766.559814453125</ele>
        <time>2013-06-16T08:38:12Z</time>
      </trkpt>
      <trkpt lat="47.652890542522073" lon="11.475043874233961">
        <ele>1765.5986328125</ele>
        <time>2013-06-16T08:38:21Z</time>
      </trkpt>
      <trkpt lat="47.652897834777832" lon="11.475078742951155">
        <ele>1764.63720703125</ele>
        <time>2013-06-16T08:38:30Z</time>
      </trkpt>
      <trkpt lat="47.652898924425244" lon="11.475127022713423">
        <ele>1762.23388671875</ele>
        <time>2013-06-16T08:38:42Z</time>
      </trkpt>
      <trkpt lat="47.652877466753125" lon="11.47518603131175">
        <ele>1761.272705078125</ele>
        <time>2013-06-16T08:38:52Z</time>
      </trkpt>
      <trkpt lat="47.652889955788851" lon="11.475214529782534">
        <ele>1759.83056640625</ele>
        <time>2013-06-16T08:38:59Z</time>
      </trkpt>
      <trkpt lat="47.652944941073656" lon="11.475200615823269">
        <ele>1758.869384765625</ele>
        <time>2013-06-16T08:39:07Z</time>
      </trkpt>
      <trkpt lat="47.652943767607212" lon="11.475249901413918">
        <ele>1756.94677734375</ele>
        <time>2013-06-16T08:39:14Z</time>
      </trkpt>
      <trkpt lat="47.652947204187512" lon="11.47526909597218">
        <ele>1755.985107421875</ele>
        <time>2013-06-16T08:39:16Z</time>
      </trkpt>
      <trkpt lat="47.652954077348113" lon="11.47536632604897">
        <ele>1754.062744140625</ele>
        <time>2013-06-16T08:39:27Z</time>
      </trkpt>
      <trkpt lat="47.652961537241936" lon="11.475409744307399">
        <ele>1753.101318359375</ele>
        <time>2013-06-16T08:39:33Z</time>
      </trkpt>
      <trkpt lat="47.652970757335424" lon="11.47552122361958">
        <ele>1750.697998046875</ele>
        <time>2013-06-16T08:39:42Z</time>
      </trkpt>
      <trkpt lat="47.652971930801868" lon="11.475532874464989">
        <ele>1750.697998046875</ele>
        <time>2013-06-16T08:39:43Z</time>
      </trkpt>
      <trkpt lat="47.652979893609881" lon="11.475633624941111">
        <ele>1749.73681640625</ele>
        <time>2013-06-16T08:39:51Z</time>
      </trkpt>
      <trkpt lat="47.652982072904706" lon="11.475668409839272">
        <ele>1748.775390625</ele>
        <time>2013-06-16T08:39:53Z</time>
      </trkpt>
      <trkpt lat="47.653026077896357" lon="11.475884914398193">
        <ele>1748.294677734375</ele>
        <time>2013-06-16T08:40:06Z</time>
      </trkpt>
      <trkpt lat="47.653053905814886" lon="11.475998489186168">
        <ele>1747.33349609375</ele>
        <time>2013-06-16T08:40:16Z</time>
      </trkpt>
      <trkpt lat="47.653052816167474" lon="11.476002847775817">
        <ele>1746.852783203125</ele>
        <time>2013-06-16T08:40:46Z</time>
      </trkpt>
      <trkpt lat="47.653051810339093" lon="11.476011900231242">
        <ele>1746.372314453125</ele>
        <time>2013-06-16T08:40:48Z</time>
      </trkpt>
      <trkpt lat="47.653049798682332" lon="11.476036878302693">
        <ele>1746.852783203125</ele>
        <time>2013-06-16T08:40:51Z</time>
      </trkpt>
      <trkpt lat="47.653081649914384" lon="11.476165289059281">
        <ele>1746.852783203125</ele>
        <time>2013-06-16T08:41:03Z</time>
      </trkpt>
      <trkpt lat="47.653124816715717" lon="11.476224884390831">
        <ele>1744.93017578125</ele>
        <time>2013-06-16T08:41:13Z</time>
      </trkpt>
      <trkpt lat="47.653134372085333" lon="11.476296298205853">
        <ele>1743.48828125</ele>
        <time>2013-06-16T08:41:26Z</time>
      </trkpt>
      <trkpt lat="47.653160523623228" lon="11.476325886324048">
        <ele>1742.527099609375</ele>
        <time>2013-06-16T08:41:38Z</time>
      </trkpt>
      <trkpt lat="47.653173264116049" lon="11.476376513019204">
        <ele>1740.604248046875</ele>
        <time>2013-06-16T08:41:48Z</time>
      </trkpt>
      <trkpt lat="47.65318944118917" lon="11.476405095309019">
        <ele>1739.642822265625</ele>
        <time>2013-06-16T08:41:53Z</time>
      </trkpt>
      <trkpt lat="47.653265884146094" lon="11.47654389962554">
        <ele>1737.239501953125</ele>
        <time>2013-06-16T08:42:04Z</time>
      </trkpt>
      <trkpt lat="47.653301507234573" lon="11.476615145802498">
        <ele>1736.7587890625</ele>
        <time>2013-06-16T08:42:11Z</time>
      </trkpt>
      <trkpt lat="47.653323132544756" lon="11.476726373657584">
        <ele>1736.2783203125</ele>
        <time>2013-06-16T08:42:20Z</time>
      </trkpt>
      <trkpt lat="47.653339393436909" lon="11.476768534630537">
        <ele>1734.83642578125</ele>
        <time>2013-06-16T08:42:28Z</time>
      </trkpt>
      <trkpt lat="47.653370909392834" lon="11.476790579035878">
        <ele>1734.83642578125</ele>
        <time>2013-06-16T08:42:36Z</time>
      </trkpt>
      <trkpt lat="47.653399743139744" lon="11.476805666461587">
        <ele>1736.2783203125</ele>
        <time>2013-06-16T08:42:45Z</time>
      </trkpt>
      <trkpt lat="47.653422625735402" lon="11.476828716695309">
        <ele>1737.72021484375</ele>
        <time>2013-06-16T08:42:54Z</time>
      </trkpt>
      <trkpt lat="47.653442826122046" lon="11.476870374754071">
        <ele>1738.681640625</ele>
        <time>2013-06-16T08:43:02Z</time>
      </trkpt>
      <trkpt lat="47.653475431725383" lon="11.476920498535037">
        <ele>1736.7587890625</ele>
        <time>2013-06-16T08:43:12Z</time>
      </trkpt>
      <trkpt lat="47.653480125591159" lon="11.476959809660912">
        <ele>1735.31689453125</ele>
        <time>2013-06-16T08:43:21Z</time>
      </trkpt>
      <trkpt lat="47.653490686789155" lon="11.476969784125686">
        <ele>1735.31689453125</ele>
        <time>2013-06-16T08:43:28Z</time>
      </trkpt>
      <trkpt lat="47.653502421453595" lon="11.476962240412831">
        <ele>1732.91357421875</ele>
        <time>2013-06-16T08:43:39Z</time>
      </trkpt>
      <trkpt lat="47.653523376211524" lon="11.476991828531027">
        <ele>1731.952392578125</ele>
        <time>2013-06-16T08:43:50Z</time>
      </trkpt>
      <trkpt lat="47.653527315706015" lon="11.476991744711995">
        <ele>1730.9912109375</ele>
        <time>2013-06-16T08:43:52Z</time>
      </trkpt>
      <trkpt lat="47.653537206351757" lon="11.477016722783446">
        <ele>1730.02978515625</ele>
        <time>2013-06-16T08:44:00Z</time>
      </trkpt>
      <trkpt lat="47.65352756716311" lon="11.477041784673929">
        <ele>1728.587890625</ele>
        <time>2013-06-16T08:44:09Z</time>
      </trkpt>
      <trkpt lat="47.653535362333059" lon="11.477064583450556">
        <ele>1727.62646484375</ele>
        <time>2013-06-16T08:44:17Z</time>
      </trkpt>
      <trkpt lat="47.653538882732391" lon="11.477092830464244">
        <ele>1724.74267578125</ele>
        <time>2013-06-16T08:44:30Z</time>
      </trkpt>
      <trkpt lat="47.653532596305013" lon="11.477127363905311">
        <ele>1723.781005859375</ele>
        <time>2013-06-16T08:44:47Z</time>
      </trkpt>
      <trkpt lat="47.653545252978802" lon="11.477164076641202">
        <ele>1722.339111328125</ele>
        <time>2013-06-16T08:44:57Z</time>
      </trkpt>
      <trkpt lat="47.653561094775796" lon="11.47714396007359">
        <ele>1721.8583984375</ele>
        <time>2013-06-16T08:45:07Z</time>
      </trkpt>
      <trkpt lat="47.653576098382473" lon="11.477172123268247">
        <ele>1719.455322265625</ele>
        <time>2013-06-16T08:45:16Z</time>
      </trkpt>
      <trkpt lat="47.65358816832304" lon="11.477168351411819">
        <ele>1718.974609375</ele>
        <time>2013-06-16T08:45:24Z</time>
      </trkpt>
      <trkpt lat="47.653608787804842" lon="11.47720355540514">
        <ele>1716.5712890625</ele>
        <time>2013-06-16T08:45:38Z</time>
      </trkpt>
      <trkpt lat="47.65361649915576" lon="11.477212943136692">
        <ele>1716.090576171875</ele>
        <time>2013-06-16T08:45:47Z</time>
      </trkpt>
      <trkpt lat="47.653630496934056" lon="11.47723825648427">
        <ele>1713.687255859375</ele>
        <time>2013-06-16T08:45:57Z</time>
      </trkpt>
      <trkpt lat="47.65364290215075" lon="11.477234652265906">
        <ele>1712.245361328125</ele>
        <time>2013-06-16T08:46:06Z</time>
      </trkpt>
      <trkpt lat="47.653644997626543" lon="11.477234484627843">
        <ele>1712.72607421875</ele>
        <time>2013-06-16T08:46:07Z</time>
      </trkpt>
      <trkpt lat="47.653668047860265" lon="11.477255607023835">
        <ele>1711.2841796875</ele>
        <time>2013-06-16T08:46:17Z</time>
      </trkpt>
      <trkpt lat="47.653690259903669" lon="11.477269856259227">
        <ele>1709.842041015625</ele>
        <time>2013-06-16T08:46:26Z</time>
      </trkpt>
      <trkpt lat="47.653701407834888" lon="11.477261139079928">
        <ele>1707.91943359375</ele>
        <time>2013-06-16T08:46:35Z</time>
      </trkpt>
      <trkpt lat="47.653726050630212" lon="11.477255774661899">
        <ele>1706.9580078125</ele>
        <time>2013-06-16T08:46:47Z</time>
      </trkpt>
      <trkpt lat="47.653749603778124" lon="11.477247141301632">
        <ele>1704.5546875</ele>
        <time>2013-06-16T08:46:55Z</time>
      </trkpt>
      <trkpt lat="47.653765110298991" lon="11.477277735248208">
        <ele>1704.07421875</ele>
        <time>2013-06-16T08:47:04Z</time>
      </trkpt>
      <trkpt lat="47.653775755316019" lon="11.477308748289943">
        <ele>1703.11279296875</ele>
        <time>2013-06-16T08:47:15Z</time>
      </trkpt>
      <trkpt lat="47.653788328170776" lon="11.477371193468571">
        <ele>1700.22900390625</ele>
        <time>2013-06-16T08:47:23Z</time>
      </trkpt>
      <trkpt lat="47.653755974024534" lon="11.477469680830836">
        <ele>1699.267578125</ele>
        <time>2013-06-16T08:47:33Z</time>
      </trkpt>
      <trkpt lat="47.65374599955976" lon="11.477501280605793">
        <ele>1696.8642578125</ele>
        <time>2013-06-16T08:47:44Z</time>
      </trkpt>
      <trkpt lat="47.653727140277624" lon="11.477529862895608">
        <ele>1695.42236328125</ele>
        <time>2013-06-16T08:47:53Z</time>
      </trkpt>
      <trkpt lat="47.653729151934385" lon="11.477548386901617">
        <ele>1694.941650390625</ele>
        <time>2013-06-16T08:47:56Z</time>
      </trkpt>
      <trkpt lat="47.653772821649909" lon="11.477584429085255">
        <ele>1694.941650390625</ele>
        <time>2013-06-16T08:48:04Z</time>
      </trkpt>
      <trkpt lat="47.653775000944734" lon="11.477603120729327">
        <ele>1693.98046875</ele>
        <time>2013-06-16T08:48:06Z</time>
      </trkpt>
      <trkpt lat="47.653760751709342" lon="11.47763354703784">
        <ele>1692.53857421875</ele>
        <time>2013-06-16T08:48:14Z</time>
      </trkpt>
      <trkpt lat="47.653767541050911" lon="11.477653998881578">
        <ele>1692.057861328125</ele>
        <time>2013-06-16T08:48:21Z</time>
      </trkpt>
      <trkpt lat="47.653797129169106" lon="11.477645030245185">
        <ele>1691.576904296875</ele>
        <time>2013-06-16T08:48:29Z</time>
      </trkpt>
      <trkpt lat="47.653810456395149" lon="11.477642264217138">
        <ele>1689.654296875</ele>
        <time>2013-06-16T08:48:39Z</time>
      </trkpt>
      <trkpt lat="47.653824118897319" lon="11.477664727717638">
        <ele>1688.21240234375</ele>
        <time>2013-06-16T08:48:50Z</time>
      </trkpt>
      <trkpt lat="47.653837613761425" lon="11.477683419361711">
        <ele>1685.328369140625</ele>
        <time>2013-06-16T08:49:07Z</time>
      </trkpt>
      <trkpt lat="47.653866112232208" lon="11.47770001552999">
        <ele>1684.3671875</ele>
        <time>2013-06-16T08:49:16Z</time>
      </trkpt>
      <trkpt lat="47.653872650116682" lon="11.477670595049858">
        <ele>1683.886474609375</ele>
        <time>2013-06-16T08:49:23Z</time>
      </trkpt>
      <trkpt lat="47.653870219364762" lon="11.477646790444851">
        <ele>1682.444580078125</ele>
        <time>2013-06-16T08:49:30Z</time>
      </trkpt>
      <trkpt lat="47.653869716450572" lon="11.477631032466888">
        <ele>1681.9638671875</ele>
        <time>2013-06-16T08:49:36Z</time>
      </trkpt>
      <trkpt lat="47.653871057555079" lon="11.477595074102283">
        <ele>1680.041259765625</ele>
        <time>2013-06-16T08:49:45Z</time>
      </trkpt>
      <trkpt lat="47.653883378952742" lon="11.477559199556708">
        <ele>1678.599365234375</ele>
        <time>2013-06-16T08:49:56Z</time>
      </trkpt>
      <trkpt lat="47.653927551582456" lon="11.477535981684923">
        <ele>1676.196044921875</ele>
        <time>2013-06-16T08:50:07Z</time>
      </trkpt>
      <trkpt lat="47.65396686270833" lon="11.477568000555038">
        <ele>1672.831298828125</ele>
        <time>2013-06-16T08:50:17Z</time>
      </trkpt>
      <trkpt lat="47.653974574059248" lon="11.477577807381749">
        <ele>1672.3505859375</ele>
        <time>2013-06-16T08:50:19Z</time>
      </trkpt>
      <trkpt lat="47.654021428897977" lon="11.477644694969058">
        <ele>1671.38916015625</ele>
        <time>2013-06-16T08:50:29Z</time>
      </trkpt>
      <trkpt lat="47.65401765704155" lon="11.477642767131329">
        <ele>1670.90869140625</ele>
        <time>2013-06-16T08:50:55Z</time>
      </trkpt>
      <trkpt lat="47.654050597921014" lon="11.477674283087254">
        <ele>1669.947265625</ele>
        <time>2013-06-16T08:51:10Z</time>
      </trkpt>
      <trkpt lat="47.654060404747725" lon="11.477683335542679">
        <ele>1670.90869140625</ele>
        <time>2013-06-16T08:51:11Z</time>
      </trkpt>
      <trkpt lat="47.65413542278111" lon="11.477815685793757">
        <ele>1670.427978515625</ele>
        <time>2013-06-16T08:51:21Z</time>
      </trkpt>
      <trkpt lat="47.654205830767751" lon="11.477867402136326">
        <ele>1670.90869140625</ele>
        <time>2013-06-16T08:51:31Z</time>
      </trkpt>
      <trkpt lat="47.654257798567414" lon="11.477963542565703">
        <ele>1667.5439453125</ele>
        <time>2013-06-16T08:51:42Z</time>
      </trkpt>
      <trkpt lat="47.654318064451218" lon="11.478015091270208">
        <ele>1666.10205078125</ele>
        <time>2013-06-16T08:51:52Z</time>
      </trkpt>
      <trkpt lat="47.654316890984774" lon="11.478094048798084">
        <ele>1664.66015625</ele>
        <time>2013-06-16T08:51:59Z</time>
      </trkpt>
      <trkpt lat="47.654303899034858" lon="11.478182477876544">
        <ele>1661.7763671875</ele>
        <time>2013-06-16T08:52:08Z</time>
      </trkpt>
      <trkpt lat="47.654259977862239" lon="11.478276858106256">
        <ele>1659.853271484375</ele>
        <time>2013-06-16T08:52:18Z</time>
      </trkpt>
      <trkpt lat="47.654244638979435" lon="11.4783816318959">
        <ele>1656.008056640625</ele>
        <time>2013-06-16T08:52:26Z</time>
      </trkpt>
      <trkpt lat="47.654274646192789" lon="11.478405855596066">
        <ele>1653.60498046875</ele>
        <time>2013-06-16T08:52:32Z</time>
      </trkpt>
      <trkpt lat="47.654272466897964" lon="11.478417087346315">
        <ele>1653.60498046875</ele>
        <time>2013-06-16T08:52:39Z</time>
      </trkpt>
      <trkpt lat="47.654255283996463" lon="11.478458996862173">
        <ele>1652.6435546875</ele>
        <time>2013-06-16T08:52:44Z</time>
      </trkpt>
      <trkpt lat="47.654259307309985" lon="11.478481460362673">
        <ele>1652.162841796875</ele>
        <time>2013-06-16T08:52:46Z</time>
      </trkpt>
      <trkpt lat="47.654268108308315" lon="11.478504091501236">
        <ele>1651.682373046875</ele>
        <time>2013-06-16T08:52:48Z</time>
      </trkpt>
      <trkpt lat="47.654269952327013" lon="11.478590006008744">
        <ele>1648.79833984375</ele>
        <time>2013-06-16T08:52:58Z</time>
      </trkpt>
      <trkpt lat="47.654252350330353" lon="11.478676339611411">
        <ele>1646.395263671875</ele>
        <time>2013-06-16T08:53:09Z</time>
      </trkpt>
      <trkpt lat="47.654248410835862" lon="11.47869729436934">
        <ele>1645.433837890625</ele>
        <time>2013-06-16T08:53:11Z</time>
      </trkpt>
      <trkpt lat="47.654236676171422" lon="11.478787567466497">
        <ele>1642.069091796875</ele>
        <time>2013-06-16T08:53:24Z</time>
      </trkpt>
      <trkpt lat="47.654231814667583" lon="11.478856382891536">
        <ele>1639.665771484375</ele>
        <time>2013-06-16T08:53:34Z</time>
      </trkpt>
      <trkpt lat="47.654256792739034" lon="11.478927293792367">
        <ele>1636.78173828125</ele>
        <time>2013-06-16T08:53:44Z</time>
      </trkpt>
      <trkpt lat="47.654238017275929" lon="11.478979345411062">
        <ele>1635.820556640625</ele>
        <time>2013-06-16T08:53:54Z</time>
      </trkpt>
      <trkpt lat="47.654238101094961" lon="11.478992840275168">
        <ele>1634.378662109375</ele>
        <time>2013-06-16T08:53:56Z</time>
      </trkpt>
      <trkpt lat="47.654205914586782" lon="11.479095015674829">
        <ele>1632.9365234375</ele>
        <time>2013-06-16T08:54:05Z</time>
      </trkpt>
      <trkpt lat="47.654179595410824" lon="11.479180511087179">
        <ele>1630.533447265625</ele>
        <time>2013-06-16T08:54:15Z</time>
      </trkpt>
      <trkpt lat="47.654179595410824" lon="11.479244632646441">
        <ele>1628.130126953125</ele>
        <time>2013-06-16T08:54:24Z</time>
      </trkpt>
      <trkpt lat="47.6541618257761" lon="11.479347981512547">
        <ele>1626.68798828125</ele>
        <time>2013-06-16T08:54:33Z</time>
      </trkpt>
      <trkpt lat="47.654162747785449" lon="11.479362566024065">
        <ele>1625.7265625</ele>
        <time>2013-06-16T08:54:34Z</time>
      </trkpt>
      <trkpt lat="47.654150426387787" lon="11.479464825242758">
        <ele>1624.765380859375</ele>
        <time>2013-06-16T08:54:40Z</time>
      </trkpt>
      <trkpt lat="47.654091250151396" lon="11.479603881016374">
        <ele>1621.88134765625</ele>
        <time>2013-06-16T08:54:51Z</time>
      </trkpt>
      <trkpt lat="47.65404699370265" lon="11.479743020609021">
        <ele>1620.439453125</ele>
        <time>2013-06-16T08:55:00Z</time>
      </trkpt>
      <trkpt lat="47.654048586264253" lon="11.4798235706985">
        <ele>1619.478271484375</ele>
        <time>2013-06-16T08:55:10Z</time>
      </trkpt>
      <trkpt lat="47.654051436111331" lon="11.479831198230386">
        <ele>1619.478271484375</ele>
        <time>2013-06-16T08:55:11Z</time>
      </trkpt>
      <trkpt lat="47.654080353677273" lon="11.479879980906844">
        <ele>1618.0361328125</ele>
        <time>2013-06-16T08:55:17Z</time>
      </trkpt>
      <trkpt lat="47.654126789420843" lon="11.479929015040398">
        <ele>1617.074951171875</ele>
        <time>2013-06-16T08:55:26Z</time>
      </trkpt>
      <trkpt lat="47.654140116646886" lon="11.479961536824703">
        <ele>1616.59423828125</ele>
        <time>2013-06-16T08:55:36Z</time>
      </trkpt>
      <trkpt lat="47.654157970100641" lon="11.480024317279458">
        <ele>1614.671630859375</ele>
        <time>2013-06-16T08:55:46Z</time>
      </trkpt>
      <trkpt lat="47.654160652309656" lon="11.480033537372947">
        <ele>1613.710205078125</ele>
        <time>2013-06-16T08:55:48Z</time>
      </trkpt>
      <trkpt lat="47.65417012386024" lon="11.480063963681459">
        <ele>1613.229736328125</ele>
        <time>2013-06-16T08:55:53Z</time>
      </trkpt>
      <trkpt lat="47.654169453307986" lon="11.48009623400867">
        <ele>1611.78759765625</ele>
        <time>2013-06-16T08:55:56Z</time>
      </trkpt>
      <trkpt lat="47.654154030606151" lon="11.480272337794304">
        <ele>1608.903564453125</ele>
        <time>2013-06-16T08:56:07Z</time>
      </trkpt>
      <trkpt lat="47.654166184365749" lon="11.480341153219342">
        <ele>1607.461669921875</ele>
        <time>2013-06-16T08:56:13Z</time>
      </trkpt>
      <trkpt lat="47.65422242693603" lon="11.48039773106575">
        <ele>1605.5390625</ele>
        <time>2013-06-16T08:56:19Z</time>
      </trkpt>
      <trkpt lat="47.654204573482275" lon="11.480489009991288">
        <ele>1603.616455078125</ele>
        <time>2013-06-16T08:56:27Z</time>
      </trkpt>
      <trkpt lat="47.654228964820504" lon="11.480570314452052">
        <ele>1601.69384765625</ele>
        <time>2013-06-16T08:56:38Z</time>
      </trkpt>
      <trkpt lat="47.654262324795127" lon="11.480713980272412">
        <ele>1598.809814453125</ele>
        <time>2013-06-16T08:56:50Z</time>
      </trkpt>
      <trkpt lat="47.654273137450218" lon="11.480760583654046">
        <ele>1597.367919921875</ele>
        <time>2013-06-16T08:56:54Z</time>
      </trkpt>
      <trkpt lat="47.654290655627847" lon="11.480784388259053">
        <ele>1597.367919921875</ele>
        <time>2013-06-16T08:56:58Z</time>
      </trkpt>
      <trkpt lat="47.654327619820833" lon="11.480939788743854">
        <ele>1594.003173828125</ele>
        <time>2013-06-16T08:57:10Z</time>
      </trkpt>
      <trkpt lat="47.654326865449548" lon="11.481022853404284">
        <ele>1592.08056640625</ele>
        <time>2013-06-16T08:57:18Z</time>
      </trkpt>
      <trkpt lat="47.654310101643205" lon="11.481072222813964">
        <ele>1590.638427734375</ele>
        <time>2013-06-16T08:57:28Z</time>
      </trkpt>
      <trkpt lat="47.654308592900634" lon="11.48115168325603">
        <ele>1589.196533203125</ele>
        <time>2013-06-16T08:57:38Z</time>
      </trkpt>
      <trkpt lat="47.654364416375756" lon="11.481232820078731">
        <ele>1587.27392578125</ele>
        <time>2013-06-16T08:57:48Z</time>
      </trkpt>
      <trkpt lat="47.654358549043536" lon="11.481245392933488">
        <ele>1586.312744140625</ele>
        <time>2013-06-16T08:58:04Z</time>
      </trkpt>
      <trkpt lat="47.654349664226174" lon="11.481255115941167">
        <ele>1585.83203125</ele>
        <time>2013-06-16T08:58:06Z</time>
      </trkpt>
      <trkpt lat="47.65434991568327" lon="11.48128068074584">
        <ele>1585.351318359375</ele>
        <time>2013-06-16T08:58:16Z</time>
      </trkpt>
      <trkpt lat="47.654392914846539" lon="11.481300042942166">
        <ele>1583.4287109375</ele>
        <time>2013-06-16T08:58:26Z</time>
      </trkpt>
      <trkpt lat="47.654397105798125" lon="11.481318902224302">
        <ele>1581.98681640625</ele>
        <time>2013-06-16T08:58:29Z</time>
      </trkpt>
      <trkpt lat="47.654358884319663" lon="11.481368355453014">
        <ele>1580.064208984375</ele>
        <time>2013-06-16T08:58:38Z</time>
      </trkpt>
      <trkpt lat="47.654345724731684" lon="11.481424011290073">
        <ele>1579.1025390625</ele>
        <time>2013-06-16T08:58:47Z</time>
      </trkpt>
      <trkpt lat="47.654379000887275" lon="11.481438176706433">
        <ele>1577.18017578125</ele>
        <time>2013-06-16T08:58:53Z</time>
      </trkpt>
      <trkpt lat="47.654417809098959" lon="11.481449576094747">
        <ele>1575.738037109375</ele>
        <time>2013-06-16T08:59:03Z</time>
      </trkpt>
      <trkpt lat="47.654391489923" lon="11.481546638533473">
        <ele>1572.854248046875</ele>
        <time>2013-06-16T08:59:13Z</time>
      </trkpt>
      <trkpt lat="47.654372546821833" lon="11.481596929952502">
        <ele>1570.931640625</ele>
        <time>2013-06-16T08:59:24Z</time>
      </trkpt>
      <trkpt lat="47.654412109404802" lon="11.481588296592236">
        <ele>1569.48974609375</ele>
        <time>2013-06-16T08:59:33Z</time>
      </trkpt>
      <trkpt lat="47.654424598440528" lon="11.481615118682384">
        <ele>1567.08642578125</ele>
        <time>2013-06-16T08:59:44Z</time>
      </trkpt>
      <trkpt lat="47.654445301741362" lon="11.481637163087726">
        <ele>1565.163818359375</ele>
        <time>2013-06-16T08:59:54Z</time>
      </trkpt>
      <trkpt lat="47.65445158816874" lon="11.48165887221694">
        <ele>1564.202392578125</ele>
        <time>2013-06-16T09:00:03Z</time>
      </trkpt>
      <trkpt lat="47.654459215700626" lon="11.481676055118442">
        <ele>1562.76025390625</ele>
        <time>2013-06-16T09:00:11Z</time>
      </trkpt>
      <trkpt lat="47.654502131044865" lon="11.48165644146502">
        <ele>1560.837646484375</ele>
        <time>2013-06-16T09:00:23Z</time>
      </trkpt>
      <trkpt lat="47.65450187958777" lon="11.48167890496552">
        <ele>1560.35693359375</ele>
        <time>2013-06-16T09:00:31Z</time>
      </trkpt>
      <trkpt lat="47.654527612030506" lon="11.481686364859343">
        <ele>1557.953857421875</ele>
        <time>2013-06-16T09:00:41Z</time>
      </trkpt>
      <trkpt lat="47.654535239562392" lon="11.481703463941813">
        <ele>1557.47314453125</ele>
        <time>2013-06-16T09:00:48Z</time>
      </trkpt>
      <trkpt lat="47.654546806588769" lon="11.48175023496151">
        <ele>1555.550537109375</ele>
        <time>2013-06-16T09:00:54Z</time>
      </trkpt>
      <trkpt lat="47.654572203755379" lon="11.481837490573525">
        <ele>1553.6279296875</ele>
        <time>2013-06-16T09:01:04Z</time>
      </trkpt>
      <trkpt lat="47.654601288959384" lon="11.481824917718768">
        <ele>1552.185791015625</ele>
        <time>2013-06-16T09:01:10Z</time>
      </trkpt>
      <trkpt lat="47.65462651848793" lon="11.4818802382797">
        <ele>1549.302001953125</ele>
        <time>2013-06-16T09:01:20Z</time>
      </trkpt>
      <trkpt lat="47.654660046100616" lon="11.481928015127778">
        <ele>1546.8984375</ele>
        <time>2013-06-16T09:01:30Z</time>
      </trkpt>
      <trkpt lat="47.654671780765057" lon="11.48197646252811">
        <ele>1545.937255859375</ele>
        <time>2013-06-16T09:01:36Z</time>
      </trkpt>
      <trkpt lat="47.654696675017476" lon="11.482055922970176">
        <ele>1542.092041015625</ele>
        <time>2013-06-16T09:01:45Z</time>
      </trkpt>
      <trkpt lat="47.654695753008127" lon="11.482092216610909">
        <ele>1541.611328125</ele>
        <time>2013-06-16T09:01:49Z</time>
      </trkpt>
      <trkpt lat="47.654715199023485" lon="11.482135886326432">
        <ele>1539.688720703125</ele>
        <time>2013-06-16T09:02:00Z</time>
      </trkpt>
      <trkpt lat="47.654742859303951" lon="11.482179639860988">
        <ele>1537.76611328125</ele>
        <time>2013-06-16T09:02:09Z</time>
      </trkpt>
      <trkpt lat="47.654741602018476" lon="11.482227081432939">
        <ele>1537.285400390625</ele>
        <time>2013-06-16T09:02:17Z</time>
      </trkpt>
      <trkpt lat="47.654757695272565" lon="11.482233954593539">
        <ele>1535.36279296875</ele>
        <time>2013-06-16T09:02:25Z</time>
      </trkpt>
      <trkpt lat="47.654748978093266" lon="11.482320372015238">
        <ele>1532.95947265625</ele>
        <time>2013-06-16T09:02:35Z</time>
      </trkpt>
      <trkpt lat="47.654736572876573" lon="11.482358342036605">
        <ele>1531.036865234375</ele>
        <time>2013-06-16T09:02:45Z</time>
      </trkpt>
      <trkpt lat="47.654744870960712" lon="11.482392037287354">
        <ele>1529.5947265625</ele>
        <time>2013-06-16T09:02:54Z</time>
      </trkpt>
      <trkpt lat="47.654793402180076" lon="11.482403520494699">
        <ele>1527.672119140625</ele>
        <time>2013-06-16T09:03:03Z</time>
      </trkpt>
      <trkpt lat="47.654807064682245" lon="11.482436629012227">
        <ele>1525.74951171875</ele>
        <time>2013-06-16T09:03:13Z</time>
      </trkpt>
      <trkpt lat="47.654853081330657" lon="11.48242212831974">
        <ele>1523.346435546875</ele>
        <time>2013-06-16T09:03:22Z</time>
      </trkpt>
      <trkpt lat="47.654898427426815" lon="11.48244459182024">
        <ele>1520.943115234375</ele>
        <time>2013-06-16T09:03:32Z</time>
      </trkpt>
      <trkpt lat="47.6548957452178" lon="11.482486166059971">
        <ele>1519.0205078125</ele>
        <time>2013-06-16T09:03:40Z</time>
      </trkpt>
      <trkpt lat="47.654903791844845" lon="11.48251592181623">
        <ele>1518.05908203125</ele>
        <time>2013-06-16T09:03:46Z</time>
      </trkpt>
      <trkpt lat="47.654894320294261" lon="11.48256428539753">
        <ele>1515.65576171875</ele>
        <time>2013-06-16T09:03:54Z</time>
      </trkpt>
      <trkpt lat="47.654889710247517" lon="11.482616169378161">
        <ele>1514.6943359375</ele>
        <time>2013-06-16T09:04:04Z</time>
      </trkpt>
      <trkpt lat="47.654851237311959" lon="11.482703592628241">
        <ele>1511.810546875</ele>
        <time>2013-06-16T09:04:16Z</time>
      </trkpt>
      <trkpt lat="47.65485324896872" lon="11.482709208503366">
        <ele>1510.84912109375</ele>
        <time>2013-06-16T09:04:28Z</time>
      </trkpt>
      <trkpt lat="47.65487034805119" lon="11.48272848688066">
        <ele>1508.44580078125</ele>
        <time>2013-06-16T09:04:38Z</time>
      </trkpt>
      <trkpt lat="47.6548923086375" lon="11.482766792178154">
        <ele>1507.00390625</ele>
        <time>2013-06-16T09:04:46Z</time>
      </trkpt>
      <trkpt lat="47.654926171526313" lon="11.48275195620954">
        <ele>1505.081298828125</ele>
        <time>2013-06-16T09:04:56Z</time>
      </trkpt>
      <trkpt lat="47.65493044629693" lon="11.482805348932743">
        <ele>1504.1201171875</ele>
        <time>2013-06-16T09:05:04Z</time>
      </trkpt>
      <trkpt lat="47.654954586178064" lon="11.482800738885999">
        <ele>1502.197265625</ele>
        <time>2013-06-16T09:05:12Z</time>
      </trkpt>
      <trkpt lat="47.654964560642838" lon="11.482854885980487">
        <ele>1500.75537109375</ele>
        <time>2013-06-16T09:05:19Z</time>
      </trkpt>
      <trkpt lat="47.654982497915626" lon="11.482884725555778">
        <ele>1499.7939453125</ele>
        <time>2013-06-16T09:05:28Z</time>
      </trkpt>
      <trkpt lat="47.654993813484907" lon="11.482917917892337">
        <ele>1498.83251953125</ele>
        <time>2013-06-16T09:05:37Z</time>
      </trkpt>
      <trkpt lat="47.655027592554688" lon="11.482949936762452">
        <ele>1496.429443359375</ele>
        <time>2013-06-16T09:05:47Z</time>
      </trkpt>
      <trkpt lat="47.655041087418795" lon="11.482954630628228">
        <ele>1494.9873046875</ele>
        <time>2013-06-16T09:05:50Z</time>
      </trkpt>
      <trkpt lat="47.655099760740995" lon="11.483019841834903">
        <ele>1491.622802734375</ele>
        <time>2013-06-16T09:05:59Z</time>
      </trkpt>
      <trkpt lat="47.655107891187072" lon="11.483028810471296">
        <ele>1491.622802734375</ele>
        <time>2013-06-16T09:06:00Z</time>
      </trkpt>
      <trkpt lat="47.65516740269959" lon="11.483068624511361">
        <ele>1488.25830078125</ele>
        <time>2013-06-16T09:06:08Z</time>
      </trkpt>
      <trkpt lat="47.655191626399755" lon="11.483012046664953">
        <ele>1487.296875</ele>
        <time>2013-06-16T09:06:16Z</time>
      </trkpt>
      <trkpt lat="47.655232613906264" lon="11.483061583712697">
        <ele>1484.893798828125</ele>
        <time>2013-06-16T09:06:25Z</time>
      </trkpt>
      <trkpt lat="47.655250634998083" lon="11.483115814626217">
        <ele>1482.009521484375</ele>
        <time>2013-06-16T09:06:32Z</time>
      </trkpt>
      <trkpt lat="47.655275277793407" lon="11.483128052204847">
        <ele>1479.606201171875</ele>
        <time>2013-06-16T09:06:39Z</time>
      </trkpt>
      <trkpt lat="47.655302183702588" lon="11.483153700828552">
        <ele>1478.64501953125</ele>
        <time>2013-06-16T09:06:45Z</time>
      </trkpt>
      <trkpt lat="47.655305787920952" lon="11.483232825994492">
        <ele>1477.203125</ele>
        <time>2013-06-16T09:06:54Z</time>
      </trkpt>
      <trkpt lat="47.655347445979714" lon="11.483254116028547">
        <ele>1476.24169921875</ele>
        <time>2013-06-16T09:07:03Z</time>
      </trkpt>
      <trkpt lat="47.655367143452168" lon="11.483242381364107">
        <ele>1475.2802734375</ele>
        <time>2013-06-16T09:07:10Z</time>
      </trkpt>
      <trkpt lat="47.655375273898244" lon="11.483268197625875">
        <ele>1474.319091796875</ele>
        <time>2013-06-16T09:07:14Z</time>
      </trkpt>
      <trkpt lat="47.655382985249162" lon="11.483332319185138">
        <ele>1472.396484375</ele>
        <time>2013-06-16T09:07:22Z</time>
      </trkpt>
      <trkpt lat="47.655402515083551" lon="11.483384957537055">
        <ele>1470.95458984375</ele>
        <time>2013-06-16T09:07:31Z</time>
      </trkpt>
      <trkpt lat="47.655437551438808" lon="11.483363835141063">
        <ele>1468.55126953125</ele>
        <time>2013-06-16T09:07:43Z</time>
      </trkpt>
      <trkpt lat="47.655444759875536" lon="11.483372552320361">
        <ele>1468.070556640625</ele>
        <time>2013-06-16T09:07:45Z</time>
      </trkpt>
      <trkpt lat="47.655458087101579" lon="11.483395351096988">
        <ele>1466.147705078125</ele>
        <time>2013-06-16T09:07:49Z</time>
      </trkpt>
      <trkpt lat="47.655484993010759" lon="11.48343600332737">
        <ele>1464.705810546875</ele>
        <time>2013-06-16T09:07:57Z</time>
      </trkpt>
      <trkpt lat="47.655492452904582" lon="11.483503142371774">
        <ele>1464.22509765625</ele>
        <time>2013-06-16T09:08:07Z</time>
      </trkpt>
      <trkpt lat="47.655502343550324" lon="11.48352007381618">
        <ele>1464.22509765625</ele>
        <time>2013-06-16T09:08:17Z</time>
      </trkpt>
      <trkpt lat="47.655524220317602" lon="11.483541866764426">
        <ele>1461.34130859375</ele>
        <time>2013-06-16T09:08:29Z</time>
      </trkpt>
      <trkpt lat="47.655579540878534" lon="11.483608754351735">
        <ele>1459.899169921875</ele>
        <time>2013-06-16T09:08:42Z</time>
      </trkpt>
      <trkpt lat="47.655619187280536" lon="11.483655860647559">
        <ele>1457.015380859375</ele>
        <time>2013-06-16T09:08:52Z</time>
      </trkpt>
      <trkpt lat="47.655625808984041" lon="11.483657201752067">
        <ele>1456.053955078125</ele>
        <time>2013-06-16T09:08:57Z</time>
      </trkpt>
      <trkpt lat="47.65567266382277" lon="11.483722664415836">
        <ele>1453.170166015625</ele>
        <time>2013-06-16T09:09:06Z</time>
      </trkpt>
      <trkpt lat="47.655728319659829" lon="11.483837580308318">
        <ele>1450.2861328125</ele>
        <time>2013-06-16T09:09:17Z</time>
      </trkpt>
      <trkpt lat="47.655758075416088" lon="11.483905809000134">
        <ele>1448.843994140625</ele>
        <time>2013-06-16T09:09:27Z</time>
      </trkpt>
      <trkpt lat="47.655767882242799" lon="11.483925338834524">
        <ele>1446.92138671875</ele>
        <time>2013-06-16T09:09:31Z</time>
      </trkpt>
      <trkpt lat="47.655781377106905" lon="11.483945874497294">
        <ele>1445.960205078125</ele>
        <time>2013-06-16T09:09:40Z</time>
      </trkpt>
      <trkpt lat="47.655793614685535" lon="11.483942270278931">
        <ele>1444.998779296875</ele>
        <time>2013-06-16T09:09:45Z</time>
      </trkpt>
      <trkpt lat="47.655821861699224" lon="11.483920309692621">
        <ele>1443.556884765625</ele>
        <time>2013-06-16T09:09:52Z</time>
      </trkpt>
      <trkpt lat="47.655832590535283" lon="11.483914358541369">
        <ele>1442.595703125</ele>
        <time>2013-06-16T09:09:54Z</time>
      </trkpt>
      <trkpt lat="47.655878020450473" lon="11.483876975253224">
        <ele>1438.75048828125</ele>
        <time>2013-06-16T09:10:02Z</time>
      </trkpt>
      <trkpt lat="47.655923450365663" lon="11.483866414055228">
        <ele>1436.82763671875</ele>
        <time>2013-06-16T09:10:12Z</time>
      </trkpt>
      <trkpt lat="47.655934011563659" lon="11.483855936676264">
        <ele>1435.385498046875</ele>
        <time>2013-06-16T09:10:14Z</time>
      </trkpt>
      <trkpt lat="47.655947590246797" lon="11.483854930847883">
        <ele>1434.905029296875</ele>
        <time>2013-06-16T09:10:16Z</time>
      </trkpt>
      <trkpt lat="47.655980112031102" lon="11.483844788745046">
        <ele>1433.462890625</ele>
        <time>2013-06-16T09:10:20Z</time>
      </trkpt>
      <trkpt lat="47.65601078979671" lon="11.483882926404476">
        <ele>1432.02099609375</ele>
        <time>2013-06-16T09:10:27Z</time>
      </trkpt>
      <trkpt lat="47.656041383743286" lon="11.483949311077595">
        <ele>1430.5791015625</ele>
        <time>2013-06-16T09:10:37Z</time>
      </trkpt>
      <trkpt lat="47.656063511967659" lon="11.483994573354721">
        <ele>1428.17578125</ele>
        <time>2013-06-16T09:10:50Z</time>
      </trkpt>
      <trkpt lat="47.656074073165655" lon="11.48401846177876">
        <ele>1427.214599609375</ele>
        <time>2013-06-16T09:10:59Z</time>
      </trkpt>
      <trkpt lat="47.656119083985686" lon="11.48408149369061">
        <ele>1425.7724609375</ele>
        <time>2013-06-16T09:11:08Z</time>
      </trkpt>
      <trkpt lat="47.656161664053798" lon="11.484153997153044">
        <ele>1425.7724609375</ele>
        <time>2013-06-16T09:11:15Z</time>
      </trkpt>
      <trkpt lat="47.656207010149956" lon="11.484272265806794">
        <ele>1423.369384765625</ele>
        <time>2013-06-16T09:11:25Z</time>
      </trkpt>
      <trkpt lat="47.656220756471157" lon="11.484336471185088">
        <ele>1421.92724609375</ele>
        <time>2013-06-16T09:11:33Z</time>
      </trkpt>
      <trkpt lat="47.656270712614059" lon="11.484394306316972">
        <ele>1421.446533203125</ele>
        <time>2013-06-16T09:11:42Z</time>
      </trkpt>
      <trkpt lat="47.656288985162973" lon="11.484444346278906">
        <ele>1420.4853515625</ele>
        <time>2013-06-16T09:11:50Z</time>
      </trkpt>
      <trkpt lat="47.656338019296527" lon="11.484558172523975">
        <ele>1419.52392578125</ele>
        <time>2013-06-16T09:12:00Z</time>
      </trkpt>
      <trkpt lat="47.656356375664473" lon="11.484614918008447">
        <ele>1418.081787109375</ele>
        <time>2013-06-16T09:12:05Z</time>
      </trkpt>
      <trkpt lat="47.656366601586342" lon="11.484662694856524">
        <ele>1418.081787109375</ele>
        <time>2013-06-16T09:12:08Z</time>
      </trkpt>
      <trkpt lat="47.656428627669811" lon="11.484802840277553">
        <ele>1416.1591796875</ele>
        <time>2013-06-16T09:12:19Z</time>
      </trkpt>
      <trkpt lat="47.656442793086171" lon="11.484888838604093">
        <ele>1415.6787109375</ele>
        <time>2013-06-16T09:12:29Z</time>
      </trkpt>
      <trkpt lat="47.656444134190679" lon="11.484900573268533">
        <ele>1416.1591796875</ele>
        <time>2013-06-16T09:12:30Z</time>
      </trkpt>
      <trkpt lat="47.656451929360628" lon="11.485013896599412">
        <ele>1413.755859375</ele>
        <time>2013-06-16T09:12:39Z</time>
      </trkpt>
      <trkpt lat="47.65647254884243" lon="11.485061338171363">
        <ele>1411.83349609375</ele>
        <time>2013-06-16T09:12:49Z</time>
      </trkpt>
      <trkpt lat="47.656474728137255" lon="11.485064690932631">
        <ele>1411.83349609375</ele>
        <time>2013-06-16T09:12:50Z</time>
      </trkpt>
      <trkpt lat="47.656481601297855" lon="11.485069384798408">
        <ele>1411.83349609375</ele>
        <time>2013-06-16T09:12:53Z</time>
      </trkpt>
      <trkpt lat="47.65650624409318" lon="11.485092602670193">
        <ele>1408.949462890625</ele>
        <time>2013-06-16T09:12:57Z</time>
      </trkpt>
      <trkpt lat="47.656543627381325" lon="11.485176254063845">
        <ele>1408.46875</ele>
        <time>2013-06-16T09:13:04Z</time>
      </trkpt>
      <trkpt lat="47.65663331374526" lon="11.485210536047816">
        <ele>1406.0654296875</ele>
        <time>2013-06-16T09:13:14Z</time>
      </trkpt>
      <trkpt lat="47.656640354543924" lon="11.485216319561005">
        <ele>1406.0654296875</ele>
        <time>2013-06-16T09:13:15Z</time>
      </trkpt>
      <trkpt lat="47.656693831086159" lon="11.485309861600399">
        <ele>1405.104248046875</ele>
        <time>2013-06-16T09:13:23Z</time>
      </trkpt>
      <trkpt lat="47.65675594098866" lon="11.485460987314582">
        <ele>1403.662109375</ele>
        <time>2013-06-16T09:13:32Z</time>
      </trkpt>
      <trkpt lat="47.656769268214703" lon="11.48549216799438">
        <ele>1403.181396484375</ele>
        <time>2013-06-16T09:13:34Z</time>
      </trkpt>
      <trkpt lat="47.656790055334568" lon="11.485538268461823">
        <ele>1401.739501953125</ele>
        <time>2013-06-16T09:13:37Z</time>
      </trkpt>
      <trkpt lat="47.656834227964282" lon="11.48564413189888">
        <ele>1399.81689453125</ele>
        <time>2013-06-16T09:13:43Z</time>
      </trkpt>
      <trkpt lat="47.656832383945584" lon="11.485881255939603">
        <ele>1396.932861328125</ele>
        <time>2013-06-16T09:13:54Z</time>
      </trkpt>
      <trkpt lat="47.656849818304181" lon="11.486060377210379">
        <ele>1395.9716796875</ele>
        <time>2013-06-16T09:14:04Z</time>
      </trkpt>
      <trkpt lat="47.656865324825048" lon="11.486122738569975">
        <ele>1395.490966796875</ele>
        <time>2013-06-16T09:14:08Z</time>
      </trkpt>
      <trkpt lat="47.656911676749587" lon="11.486237067729235">
        <ele>1393.087646484375</ele>
        <time>2013-06-16T09:14:17Z</time>
      </trkpt>
      <trkpt lat="47.656955597922206" lon="11.486283084377646">
        <ele>1391.1650390625</ele>
        <time>2013-06-16T09:14:23Z</time>
      </trkpt>
      <trkpt lat="47.657018043100834" lon="11.48638634942472">
        <ele>1388.761962890625</ele>
        <time>2013-06-16T09:14:31Z</time>
      </trkpt>
      <trkpt lat="47.657027849927545" lon="11.486399173736572">
        <ele>1389.72314453125</ele>
        <time>2013-06-16T09:14:32Z</time>
      </trkpt>
      <trkpt lat="47.657066155225039" lon="11.486443681642413">
        <ele>1388.28125</ele>
        <time>2013-06-16T09:14:36Z</time>
      </trkpt>
      <trkpt lat="47.657069759443402" lon="11.486540157347918">
        <ele>1385.877685546875</ele>
        <time>2013-06-16T09:14:43Z</time>
      </trkpt>
      <trkpt lat="47.657097754999995" lon="11.486556166782975">
        <ele>1386.3583984375</ele>
        <time>2013-06-16T09:14:50Z</time>
      </trkpt>
      <trkpt lat="47.657181909307837" lon="11.486554322764277">
        <ele>1384.91650390625</ele>
        <time>2013-06-16T09:14:59Z</time>
      </trkpt>
      <trkpt lat="47.657256759703159" lon="11.486523812636733">
        <ele>1384.91650390625</ele>
        <time>2013-06-16T09:15:07Z</time>
      </trkpt>
      <trkpt lat="47.657279223203659" lon="11.48655348457396">
        <ele>1383.955078125</ele>
        <time>2013-06-16T09:15:15Z</time>
      </trkpt>
      <trkpt lat="47.657304285094142" lon="11.486589694395661">
        <ele>1385.39697265625</ele>
        <time>2013-06-16T09:15:21Z</time>
      </trkpt>
      <trkpt lat="47.657332196831703" lon="11.486684745177627">
        <ele>1385.877685546875</ele>
        <time>2013-06-16T09:15:31Z</time>
      </trkpt>
      <trkpt lat="47.657329346984625" lon="11.486726403236389">
        <ele>1386.3583984375</ele>
        <time>2013-06-16T09:15:35Z</time>
      </trkpt>
      <trkpt lat="47.6574014313519" lon="11.486869566142559">
        <ele>1385.877685546875</ele>
        <time>2013-06-16T09:15:47Z</time>
      </trkpt>
      <trkpt lat="47.657431270927191" lon="11.487011723220348">
        <ele>1388.28125</ele>
        <time>2013-06-16T09:15:57Z</time>
      </trkpt>
      <trkpt lat="47.657493632286787" lon="11.487141139805317">
        <ele>1388.28125</ele>
        <time>2013-06-16T09:16:07Z</time>
      </trkpt>
      <trkpt lat="47.657584324479103" lon="11.487201154232025">
        <ele>1384.91650390625</ele>
        <time>2013-06-16T09:16:18Z</time>
      </trkpt>
      <trkpt lat="47.657635118812323" lon="11.487240297719836">
        <ele>1383.474365234375</ele>
        <time>2013-06-16T09:16:26Z</time>
      </trkpt>
      <trkpt lat="47.657653726637363" lon="11.487268796190619">
        <ele>1382.032470703125</ele>
        <time>2013-06-16T09:16:30Z</time>
      </trkpt>
      <trkpt lat="47.65771416015923" lon="11.487342892214656">
        <ele>1382.032470703125</ele>
        <time>2013-06-16T09:16:37Z</time>
      </trkpt>
      <trkpt lat="47.657831842079759" lon="11.487382622435689">
        <ele>1379.629150390625</ele>
        <time>2013-06-16T09:16:46Z</time>
      </trkpt>
      <trkpt lat="47.657896969467402" lon="11.487354040145874">
        <ele>1378.66796875</ele>
        <time>2013-06-16T09:16:53Z</time>
      </trkpt>
      <trkpt lat="47.657933430746198" lon="11.487334342673421">
        <ele>1375.30322265625</ele>
        <time>2013-06-16T09:17:01Z</time>
      </trkpt>
      <trkpt lat="47.657987829297781" lon="11.487434674054384">
        <ele>1375.783935546875</ele>
        <time>2013-06-16T09:17:09Z</time>
      </trkpt>
      <trkpt lat="47.658041892573237" lon="11.487441128119826">
        <ele>1375.30322265625</ele>
        <time>2013-06-16T09:17:19Z</time>
      </trkpt>
      <trkpt lat="47.658040635287762" lon="11.487439032644033">
        <ele>1374.82275390625</ele>
        <time>2013-06-16T09:17:26Z</time>
      </trkpt>
      <trkpt lat="47.658038875088096" lon="11.487438697367907">
        <ele>1373.861328125</ele>
        <time>2013-06-16T09:17:38Z</time>
      </trkpt>
      <trkpt lat="47.658034767955542" lon="11.48744716309011">
        <ele>1339.734375</ele>
        <time>2013-06-16T10:21:56Z</time>
      </trkpt>
      <trkpt lat="47.659437227994204" lon="11.48669321089983">
        <ele>1336.369873046875</ele>
        <time>2013-06-16T10:22:11Z</time>
      </trkpt>
      <trkpt lat="47.659451058134437" lon="11.48707140237093">
        <ele>1334.927978515625</ele>
        <time>2013-06-16T10:22:13Z</time>
      </trkpt>
      <trkpt lat="47.659473018720746" lon="11.48712906986475">
        <ele>1334.447265625</ele>
        <time>2013-06-16T10:22:15Z</time>
      </trkpt>
      <trkpt lat="47.659532362595201" lon="11.487542884424329">
        <ele>1333.005126953125</ele>
        <time>2013-06-16T10:22:25Z</time>
      </trkpt>
      <trkpt lat="47.659599166363478" lon="11.48761329241097">
        <ele>1332.524658203125</ele>
        <time>2013-06-16T10:22:32Z</time>
      </trkpt>
      <trkpt lat="47.659666640684009" lon="11.487460993230343">
        <ele>1332.524658203125</ele>
        <time>2013-06-16T10:22:35Z</time>
      </trkpt>
      <trkpt lat="47.659703521057963" lon="11.487461747601628">
        <ele>1331.563232421875</ele>
        <time>2013-06-16T10:22:40Z</time>
      </trkpt>
      <trkpt lat="47.659763116389513" lon="11.487397877499461">
        <ele>1330.121337890625</ele>
        <time>2013-06-16T10:22:46Z</time>
      </trkpt>
      <trkpt lat="47.659885073080659" lon="11.487609520554543">
        <ele>1327.237548828125</ele>
        <time>2013-06-16T10:22:59Z</time>
      </trkpt>
      <trkpt lat="47.659975094720721" lon="11.487726448103786">
        <ele>1324.834228515625</ele>
        <time>2013-06-16T10:23:08Z</time>
      </trkpt>
      <trkpt lat="47.65999361872673" lon="11.487726280465722">
        <ele>1324.834228515625</ele>
        <time>2013-06-16T10:23:10Z</time>
      </trkpt>
      <trkpt lat="47.660039132460952" lon="11.487732650712132">
        <ele>1323.87255859375</ele>
        <time>2013-06-16T10:23:15Z</time>
      </trkpt>
      <trkpt lat="47.660054806619883" lon="11.487828874960542">
        <ele>1321.949951171875</ele>
        <time>2013-06-16T10:23:24Z</time>
      </trkpt>
      <trkpt lat="47.660104343667626" lon="11.487910682335496">
        <ele>1320.02734375</ele>
        <time>2013-06-16T10:23:31Z</time>
      </trkpt>
      <trkpt lat="47.660109456628561" lon="11.48792359046638">
        <ele>1320.02734375</ele>
        <time>2013-06-16T10:23:32Z</time>
      </trkpt>
      <trkpt lat="47.660124292597175" lon="11.4879778213799">
        <ele>1318.58544921875</ele>
        <time>2013-06-16T10:23:36Z</time>
      </trkpt>
      <trkpt lat="47.660157987847924" lon="11.4880779851228">
        <ele>1316.662841796875</ele>
        <time>2013-06-16T10:23:45Z</time>
      </trkpt>
      <trkpt lat="47.660163519904017" lon="11.488112099468708">
        <ele>1316.18212890625</ele>
        <time>2013-06-16T10:23:48Z</time>
      </trkpt>
      <trkpt lat="47.660207273438573" lon="11.488199355080724">
        <ele>1313.77880859375</ele>
        <time>2013-06-16T10:23:57Z</time>
      </trkpt>
      <trkpt lat="47.660214146599174" lon="11.488218968734145">
        <ele>1313.77880859375</ele>
        <time>2013-06-16T10:24:01Z</time>
      </trkpt>
      <trkpt lat="47.660275669768453" lon="11.488302871584892">
        <ele>1311.8564453125</ele>
        <time>2013-06-16T10:24:10Z</time>
      </trkpt>
      <trkpt lat="47.660284722223878" lon="11.488340506330132">
        <ele>1311.375732421875</ele>
        <time>2013-06-16T10:24:13Z</time>
      </trkpt>
      <trkpt lat="47.66024474054575" lon="11.488415440544486">
        <ele>1308.972412109375</ele>
        <time>2013-06-16T10:24:20Z</time>
      </trkpt>
      <trkpt lat="47.660230491310358" lon="11.488475957885385">
        <ele>1307.5302734375</ele>
        <time>2013-06-16T10:24:25Z</time>
      </trkpt>
      <trkpt lat="47.660219594836235" lon="11.488528093323112">
        <ele>1307.5302734375</ele>
        <time>2013-06-16T10:24:29Z</time>
      </trkpt>
      <trkpt lat="47.660153210163116" lon="11.48862230591476">
        <ele>1304.646240234375</ele>
        <time>2013-06-16T10:24:38Z</time>
      </trkpt>
      <trkpt lat="47.660168213769794" lon="11.488682739436626">
        <ele>1303.204345703125</ele>
        <time>2013-06-16T10:24:45Z</time>
      </trkpt>
      <trkpt lat="47.660205429419875" lon="11.488713165745139">
        <ele>1301.28173828125</ele>
        <time>2013-06-16T10:24:53Z</time>
      </trkpt>
      <trkpt lat="47.660200484097004" lon="11.488753147423267">
        <ele>1300.801025390625</ele>
        <time>2013-06-16T10:24:57Z</time>
      </trkpt>
      <trkpt lat="47.660193191841245" lon="11.48875767365098">
        <ele>1299.83984375</ele>
        <time>2013-06-16T10:25:05Z</time>
      </trkpt>
      <trkpt lat="47.660226132720709" lon="11.488823555409908">
        <ele>1297.917236328125</ele>
        <time>2013-06-16T10:25:11Z</time>
      </trkpt>
      <trkpt lat="47.660238454118371" lon="11.488937716931105">
        <ele>1296.475341796875</ele>
        <time>2013-06-16T10:25:19Z</time>
      </trkpt>
      <trkpt lat="47.66025890596211" lon="11.489027738571167">
        <ele>1295.513916015625</ele>
        <time>2013-06-16T10:25:28Z</time>
      </trkpt>
      <trkpt lat="47.660300647839904" lon="11.489106947556138">
        <ele>1293.59130859375</ele>
        <time>2013-06-16T10:25:37Z</time>
      </trkpt>
      <trkpt lat="47.660342641174793" lon="11.48917886428535">
        <ele>1292.1494140625</ele>
        <time>2013-06-16T10:25:44Z</time>
      </trkpt>
      <trkpt lat="47.660358566790819" lon="11.48921063169837">
        <ele>1292.630126953125</ele>
        <time>2013-06-16T10:25:47Z</time>
      </trkpt>
      <trkpt lat="47.660371642559767" lon="11.489226222038269">
        <ele>1291.66845703125</ele>
        <time>2013-06-16T10:25:49Z</time>
      </trkpt>
      <trkpt lat="47.660397039726377" lon="11.489255558699369">
        <ele>1291.66845703125</ele>
        <time>2013-06-16T10:25:53Z</time>
      </trkpt>
      <trkpt lat="47.660418832674623" lon="11.489285649731755">
        <ele>1290.2265625</ele>
        <time>2013-06-16T10:26:00Z</time>
      </trkpt>
      <trkpt lat="47.660431573167443" lon="11.489330241456628">
        <ele>1288.78466796875</ele>
        <time>2013-06-16T10:26:06Z</time>
      </trkpt>
      <trkpt lat="47.660472057759762" lon="11.489371815696359">
        <ele>1288.303955078125</ele>
        <time>2013-06-16T10:26:14Z</time>
      </trkpt>
      <trkpt lat="47.660514889284968" lon="11.489420933648944">
        <ele>1286.38134765625</ele>
        <time>2013-06-16T10:26:21Z</time>
      </trkpt>
      <trkpt lat="47.66053500585258" lon="11.489468375220895">
        <ele>1285.419921875</ele>
        <time>2013-06-16T10:26:29Z</time>
      </trkpt>
      <trkpt lat="47.660705745220184" lon="11.489321943372488">
        <ele>1285.900634765625</ele>
        <time>2013-06-16T10:26:37Z</time>
      </trkpt>
      <trkpt lat="47.660741955041885" lon="11.489283805713058">
        <ele>1284.458740234375</ele>
        <time>2013-06-16T10:26:45Z</time>
      </trkpt>
      <trkpt lat="47.660694932565093" lon="11.489189676940441">
        <ele>1283.97802734375</ele>
        <time>2013-06-16T10:26:54Z</time>
      </trkpt>
      <trkpt lat="47.660604659467936" lon="11.488816766068339">
        <ele>1283.97802734375</ele>
        <time>2013-06-16T10:27:03Z</time>
      </trkpt>
      <trkpt lat="47.660812446847558" lon="11.48861794732511">
        <ele>1283.497314453125</ele>
        <time>2013-06-16T10:27:12Z</time>
      </trkpt>
      <trkpt lat="47.66093616373837" lon="11.488596070557833">
        <ele>1282.5361328125</ele>
        <time>2013-06-16T10:27:21Z</time>
      </trkpt>
      <trkpt lat="47.660767436027527" lon="11.488756332546473">
        <ele>1280.613525390625</ele>
        <time>2013-06-16T10:27:32Z</time>
      </trkpt>
      <trkpt lat="47.660760981962085" lon="11.488807797431946">
        <ele>1279.652099609375</ele>
        <time>2013-06-16T10:27:40Z</time>
      </trkpt>
      <trkpt lat="47.660748744383454" lon="11.488824561238289">
        <ele>1278.69091796875</ele>
        <time>2013-06-16T10:27:41Z</time>
      </trkpt>
      <trkpt lat="47.660710522904992" lon="11.488892119377851">
        <ele>1277.7294921875</ele>
        <time>2013-06-16T10:27:45Z</time>
      </trkpt>
      <trkpt lat="47.660724520683289" lon="11.488990020006895">
        <ele>1276.28759765625</ele>
        <time>2013-06-16T10:27:55Z</time>
      </trkpt>
      <trkpt lat="47.660748325288296" lon="11.488930676132441">
        <ele>1274.36474609375</ele>
        <time>2013-06-16T10:28:07Z</time>
      </trkpt>
      <trkpt lat="47.660822756588459" lon="11.488961353898048">
        <ele>1273.884033203125</ele>
        <time>2013-06-16T10:28:19Z</time>
      </trkpt>
      <trkpt lat="47.660938175395131" lon="11.488962359726429">
        <ele>1271.96142578125</ele>
        <time>2013-06-16T10:28:31Z</time>
      </trkpt>
      <trkpt lat="47.66099282540381" lon="11.488986583426595">
        <ele>1270.038818359375</ele>
        <time>2013-06-16T10:28:40Z</time>
      </trkpt>
      <trkpt lat="47.661023335531354" lon="11.489019524306059">
        <ele>1268.596923828125</ele>
        <time>2013-06-16T10:28:48Z</time>
      </trkpt>
      <trkpt lat="47.661041859537363" lon="11.489041233435273">
        <ele>1266.67431640625</ele>
        <time>2013-06-16T10:29:04Z</time>
      </trkpt>
      <trkpt lat="47.661039512604475" lon="11.489055901765823">
        <ele>1264.751708984375</ele>
        <time>2013-06-16T10:29:09Z</time>
      </trkpt>
      <trkpt lat="47.66107982955873" lon="11.489155143499374">
        <ele>1262.8291015625</ele>
        <time>2013-06-16T10:29:19Z</time>
      </trkpt>
      <trkpt lat="47.661133138462901" lon="11.489242147654295">
        <ele>1260.906494140625</ele>
        <time>2013-06-16T10:29:29Z</time>
      </trkpt>
      <trkpt lat="47.661189381033182" lon="11.489287158474326">
        <ele>1259.46435546875</ele>
        <time>2013-06-16T10:29:38Z</time>
      </trkpt>
      <trkpt lat="47.661221064627171" lon="11.489329822361469">
        <ele>1256.099609375</ele>
        <time>2013-06-16T10:29:50Z</time>
      </trkpt>
      <trkpt lat="47.661268757656217" lon="11.489309035241604">
        <ele>1254.17724609375</ele>
        <time>2013-06-16T10:30:01Z</time>
      </trkpt>
      <trkpt lat="47.661262471228838" lon="11.489243153482676">
        <ele>1251.293212890625</ele>
        <time>2013-06-16T10:30:13Z</time>
      </trkpt>
      <trkpt lat="47.661287365481257" lon="11.489224210381508">
        <ele>1248.4091796875</ele>
        <time>2013-06-16T10:30:26Z</time>
      </trkpt>
      <trkpt lat="47.661318378522992" lon="11.489257654175162">
        <ele>1246.48681640625</ele>
        <time>2013-06-16T10:30:36Z</time>
      </trkpt>
      <trkpt lat="47.661295495927334" lon="11.489217756316066">
        <ele>1244.08349609375</ele>
        <time>2013-06-16T10:30:48Z</time>
      </trkpt>
      <trkpt lat="47.661313768476248" lon="11.489196382462978">
        <ele>1240.718505859375</ele>
        <time>2013-06-16T10:31:01Z</time>
      </trkpt>
      <trkpt lat="47.661415776237845" lon="11.489210296422243">
        <ele>1237.834716796875</ele>
        <time>2013-06-16T10:31:14Z</time>
      </trkpt>
      <trkpt lat="47.661432875320315" lon="11.48917542770505">
        <ele>1237.834716796875</ele>
        <time>2013-06-16T10:31:28Z</time>
      </trkpt>
      <trkpt lat="47.661420218646526" lon="11.48913393728435">
        <ele>1235.431396484375</ele>
        <time>2013-06-16T10:31:50Z</time>
      </trkpt>
      <trkpt lat="47.661439664661884" lon="11.489047100767493">
        <ele>1234.47021484375</ele>
        <time>2013-06-16T10:32:10Z</time>
      </trkpt>
      <trkpt lat="47.66149464994669" lon="11.488966047763824">
        <ele>1233.5087890625</ele>
        <time>2013-06-16T10:32:25Z</time>
      </trkpt>
      <trkpt lat="47.661529434844851" lon="11.488926066085696">
        <ele>1230.625</ele>
        <time>2013-06-16T10:32:37Z</time>
      </trkpt>
      <trkpt lat="47.661579055711627" lon="11.488904859870672">
        <ele>1230.144287109375</ele>
        <time>2013-06-16T10:32:47Z</time>
      </trkpt>
      <trkpt lat="47.661578468978405" lon="11.48893503472209">
        <ele>1228.702392578125</ele>
        <time>2013-06-16T10:33:02Z</time>
      </trkpt>
      <trkpt lat="47.661606967449188" lon="11.488956743851304">
        <ele>1227.74072265625</ele>
        <time>2013-06-16T10:33:07Z</time>
      </trkpt>
      <trkpt lat="47.661669496446848" lon="11.488983063027263">
        <ele>1224.85693359375</ele>
        <time>2013-06-16T10:33:11Z</time>
      </trkpt>
      <trkpt lat="47.661796398460865" lon="11.488975435495377">
        <ele>1226.298828125</ele>
        <time>2013-06-16T10:33:18Z</time>
      </trkpt>
      <trkpt lat="47.661817688494921" lon="11.488961102440953">
        <ele>1226.779541015625</ele>
        <time>2013-06-16T10:33:20Z</time>
      </trkpt>
      <trkpt lat="47.661886420100927" lon="11.488964790478349">
        <ele>1225.33740234375</ele>
        <time>2013-06-16T10:33:26Z</time>
      </trkpt>
      <trkpt lat="47.661980297416449" lon="11.489004185423255">
        <ele>1222.934326171875</ele>
        <time>2013-06-16T10:33:34Z</time>
      </trkpt>
      <trkpt lat="47.66201508231461" lon="11.488973088562489">
        <ele>1222.45361328125</ele>
        <time>2013-06-16T10:33:38Z</time>
      </trkpt>
      <trkpt lat="47.66207710839808" lon="11.488918690010905">
        <ele>1223.4150390625</ele>
        <time>2013-06-16T10:33:47Z</time>
      </trkpt>
      <trkpt lat="47.662168387323618" lon="11.48888180963695">
        <ele>1221.4921875</ele>
        <time>2013-06-16T10:33:57Z</time>
      </trkpt>
      <trkpt lat="47.662218930199742" lon="11.488921288400888">
        <ele>1219.56982421875</ele>
        <time>2013-06-16T10:34:05Z</time>
      </trkpt>
      <trkpt lat="47.662261845543981" lon="11.4890450052917">
        <ele>1218.6083984375</ele>
        <time>2013-06-16T10:34:18Z</time>
      </trkpt>
      <trkpt lat="47.662268551066518" lon="11.489132009446621">
        <ele>1216.685791015625</ele>
        <time>2013-06-16T10:34:33Z</time>
      </trkpt>
      <trkpt lat="47.662224629893899" lon="11.489202501252294">
        <ele>1216.205078125</ele>
        <time>2013-06-16T10:35:01Z</time>
      </trkpt>
      <trkpt lat="47.662205183878541" lon="11.489103091880679">
        <ele>1216.205078125</ele>
        <time>2013-06-16T10:35:14Z</time>
      </trkpt>
      <trkpt lat="47.662208704277873" lon="11.489105857908726">
        <ele>1218.127685546875</ele>
        <time>2013-06-16T10:35:42Z</time>
      </trkpt>
      <trkpt lat="47.662197053432465" lon="11.489069061353803">
        <ele>1218.127685546875</ele>
        <time>2013-06-16T10:35:54Z</time>
      </trkpt>
      <trkpt lat="47.662228234112263" lon="11.489077024161816">
        <ele>1219.089111328125</ele>
        <time>2013-06-16T10:36:02Z</time>
      </trkpt>
      <trkpt lat="47.662344239652157" lon="11.489069983363152">
        <ele>1216.685791015625</ele>
        <time>2013-06-16T10:36:14Z</time>
      </trkpt>
      <trkpt lat="47.662462508305907" lon="11.489100409671664">
        <ele>1214.282470703125</ele>
        <time>2013-06-16T10:36:27Z</time>
      </trkpt>
      <trkpt lat="47.662467872723937" lon="11.489141397178173">
        <ele>1212.840576171875</ele>
        <time>2013-06-16T10:36:34Z</time>
      </trkpt>
      <trkpt lat="47.662428310140967" lon="11.489163190126419">
        <ele>1212.35986328125</ele>
        <time>2013-06-16T10:36:45Z</time>
      </trkpt>
      <trkpt lat="47.662399895489216" lon="11.489148689433932">
        <ele>1211.3984375</ele>
        <time>2013-06-16T10:36:55Z</time>
      </trkpt>
      <trkpt lat="47.662351280450821" lon="11.489203339442611">
        <ele>1208.514404296875</ele>
        <time>2013-06-16T10:37:05Z</time>
      </trkpt>
      <trkpt lat="47.662296630442142" lon="11.489181965589523">
        <ele>1208.033935546875</ele>
        <time>2013-06-16T10:37:15Z</time>
      </trkpt>
      <trkpt lat="47.662276178598404" lon="11.489202165976167">
        <ele>1205.630615234375</ele>
        <time>2013-06-16T10:37:22Z</time>
      </trkpt>
      <trkpt lat="47.662255642935634" lon="11.489203004166484">
        <ele>1206.591796875</ele>
        <time>2013-06-16T10:37:31Z</time>
      </trkpt>
      <trkpt lat="47.662282129749656" lon="11.48919110186398">
        <ele>1203.7080078125</ele>
        <time>2013-06-16T10:38:05Z</time>
      </trkpt>
      <trkpt lat="47.662322865799069" lon="11.489148940891027">
        <ele>1204.188720703125</ele>
        <time>2013-06-16T10:38:16Z</time>
      </trkpt>
      <trkpt lat="47.662357315421104" lon="11.48915053345263">
        <ele>1201.785400390625</ele>
        <time>2013-06-16T10:38:55Z</time>
      </trkpt>
      <trkpt lat="47.662354214116931" lon="11.489178612828255">
        <ele>1200.823974609375</ele>
        <time>2013-06-16T10:39:04Z</time>
      </trkpt>
      <trkpt lat="47.662351699545979" lon="11.489229574799538">
        <ele>1198.9013671875</ele>
        <time>2013-06-16T10:39:14Z</time>
      </trkpt>
      <trkpt lat="47.662343317642808" lon="11.489246590062976">
        <ele>1197.940185546875</ele>
        <time>2013-06-16T10:39:24Z</time>
      </trkpt>
      <trkpt lat="47.662344910204411" lon="11.48925899527967">
        <ele>1198.420654296875</ele>
        <time>2013-06-16T10:39:32Z</time>
      </trkpt>
      <trkpt lat="47.662334349006414" lon="11.4892712328583">
        <ele>1196.978759765625</ele>
        <time>2013-06-16T10:39:43Z</time>
      </trkpt>
      <trkpt lat="47.662333762273192" lon="11.489297468215227">
        <ele>1196.017578125</ele>
        <time>2013-06-16T10:39:53Z</time>
      </trkpt>
      <trkpt lat="47.662335354834795" lon="11.48932253010571">
        <ele>1195.53662109375</ele>
        <time>2013-06-16T10:40:01Z</time>
      </trkpt>
      <trkpt lat="47.662317333742976" lon="11.489363433793187">
        <ele>1193.614013671875</ele>
        <time>2013-06-16T10:40:10Z</time>
      </trkpt>
      <trkpt lat="47.662328900769353" lon="11.489385394379497">
        <ele>1192.65283203125</ele>
        <time>2013-06-16T10:40:22Z</time>
      </trkpt>
      <trkpt lat="47.662328900769353" lon="11.489418419077992">
        <ele>1192.65283203125</ele>
        <time>2013-06-16T10:40:31Z</time>
      </trkpt>
      <trkpt lat="47.662342647090554" lon="11.489422777667642">
        <ele>1191.210693359375</ele>
        <time>2013-06-16T10:40:39Z</time>
      </trkpt>
      <trkpt lat="47.662377851083875" lon="11.489390255883336">
        <ele>1190.72998046875</ele>
        <time>2013-06-16T10:40:51Z</time>
      </trkpt>
      <trkpt lat="47.662405762821436" lon="11.489441888406873">
        <ele>1189.2880859375</ele>
        <time>2013-06-16T10:40:59Z</time>
      </trkpt>
      <trkpt lat="47.662439877167344" lon="11.489513218402863">
        <ele>1188.8076171875</ele>
        <time>2013-06-16T10:41:09Z</time>
      </trkpt>
      <trkpt lat="47.662432920187712" lon="11.489546494558454">
        <ele>1187.84619140625</ele>
        <time>2013-06-16T10:41:19Z</time>
      </trkpt>
      <trkpt lat="47.662430237978697" lon="11.489581950008869">
        <ele>1186.884765625</ele>
        <time>2013-06-16T10:41:31Z</time>
      </trkpt>
      <trkpt lat="47.662457982078195" lon="11.489644479006529">
        <ele>1184.96240234375</ele>
        <time>2013-06-16T10:41:39Z</time>
      </trkpt>
      <trkpt lat="47.662500645965338" lon="11.489668115973473">
        <ele>1182.078369140625</ele>
        <time>2013-06-16T10:41:55Z</time>
      </trkpt>
      <trkpt lat="47.662502657622099" lon="11.489689908921719">
        <ele>1182.078369140625</ele>
        <time>2013-06-16T10:42:03Z</time>
      </trkpt>
      <trkpt lat="47.662450186908245" lon="11.489825528115034">
        <ele>1179.194091796875</ele>
        <time>2013-06-16T10:42:16Z</time>
      </trkpt>
      <trkpt lat="47.662492180243134" lon="11.489892583340406">
        <ele>1175.82958984375</ele>
        <time>2013-06-16T10:42:31Z</time>
      </trkpt>
      <trkpt lat="47.662494275718927" lon="11.490021916106343">
        <ele>1175.348876953125</ele>
        <time>2013-06-16T10:42:49Z</time>
      </trkpt>
      <trkpt lat="47.662483882158995" lon="11.490044295787811">
        <ele>1173.906982421875</ele>
        <time>2013-06-16T10:42:51Z</time>
      </trkpt>
      <trkpt lat="47.662499221041799" lon="11.490111937746406">
        <ele>1172.94580078125</ele>
        <time>2013-06-16T10:43:01Z</time>
      </trkpt>
      <trkpt lat="47.662527803331614" lon="11.490158289670944">
        <ele>1171.503662109375</ele>
        <time>2013-06-16T10:43:11Z</time>
      </trkpt>
      <trkpt lat="47.662554541602731" lon="11.490232637152076">
        <ele>1170.061767578125</ele>
        <time>2013-06-16T10:43:19Z</time>
      </trkpt>
      <trkpt lat="47.66259259544313" lon="11.490298938006163">
        <ele>1168.13916015625</ele>
        <time>2013-06-16T10:43:30Z</time>
      </trkpt>
      <trkpt lat="47.662545992061496" lon="11.490384181961417">
        <ele>1168.13916015625</ele>
        <time>2013-06-16T10:43:42Z</time>
      </trkpt>
      <trkpt lat="47.662539202719927" lon="11.490442855283618">
        <ele>1166.216552734375</ele>
        <time>2013-06-16T10:43:49Z</time>
      </trkpt>
      <trkpt lat="47.662512129172683" lon="11.490542516112328">
        <ele>1165.25537109375</ele>
        <time>2013-06-16T10:44:01Z</time>
      </trkpt>
      <trkpt lat="47.662416324019432" lon="11.490603033453226">
        <ele>1163.33251953125</ele>
        <time>2013-06-16T10:44:17Z</time>
      </trkpt>
      <trkpt lat="47.662432417273521" lon="11.490637315437198">
        <ele>1163.33251953125</ele>
        <time>2013-06-16T10:44:24Z</time>
      </trkpt>
      <trkpt lat="47.662433171644807" lon="11.490659359842539">
        <ele>1161.409912109375</ele>
        <time>2013-06-16T10:44:27Z</time>
      </trkpt>
      <trkpt lat="47.66237223520875" lon="11.490756422281265">
        <ele>1160.92919921875</ele>
        <time>2013-06-16T10:44:38Z</time>
      </trkpt>
      <trkpt lat="47.662357902154326" lon="11.490771425887942">
        <ele>1161.409912109375</ele>
        <time>2013-06-16T10:44:40Z</time>
      </trkpt>
      <trkpt lat="47.662374246865511" lon="11.490818783640862">
        <ele>1160.448486328125</ele>
        <time>2013-06-16T10:44:49Z</time>
      </trkpt>
      <trkpt lat="47.66239226795733" lon="11.490831607952714">
        <ele>1160.92919921875</ele>
        <time>2013-06-16T10:44:53Z</time>
      </trkpt>
      <trkpt lat="47.662433506920934" lon="11.490909140557051">
        <ele>1159.9677734375</ele>
        <time>2013-06-16T10:45:05Z</time>
      </trkpt>
      <trkpt lat="47.662450270727277" lon="11.490987930446863">
        <ele>1159.4873046875</ele>
        <time>2013-06-16T10:45:13Z</time>
      </trkpt>
      <trkpt lat="47.662476925179362" lon="11.49103369563818">
        <ele>1159.006591796875</ele>
        <time>2013-06-16T10:45:18Z</time>
      </trkpt>
      <trkpt lat="47.662493688985705" lon="11.491153724491596">
        <ele>1157.083984375</ele>
        <time>2013-06-16T10:45:26Z</time>
      </trkpt>
      <trkpt lat="47.662489330396056" lon="11.491188257932663">
        <ele>1157.564697265625</ele>
        <time>2013-06-16T10:45:34Z</time>
      </trkpt>
      <trkpt lat="47.662492180243134" lon="11.491199657320976">
        <ele>1157.083984375</ele>
        <time>2013-06-16T10:45:41Z</time>
      </trkpt>
      <trkpt lat="47.662481451407075" lon="11.491261264309287">
        <ele>1157.083984375</ele>
        <time>2013-06-16T10:45:49Z</time>
      </trkpt>
      <trkpt lat="47.662512045353651" lon="11.491287583485246">
        <ele>1156.603271484375</ele>
        <time>2013-06-16T10:45:56Z</time>
      </trkpt>
      <trkpt lat="47.662539202719927" lon="11.49130149744451">
        <ele>1155.64208984375</ele>
        <time>2013-06-16T10:46:06Z</time>
      </trkpt>
      <trkpt lat="47.662544315680861" lon="11.491301245987415">
        <ele>1155.161376953125</ele>
        <time>2013-06-16T10:46:20Z</time>
      </trkpt>
      <trkpt lat="47.662550518289208" lon="11.49132982827723">
        <ele>1157.083984375</ele>
        <time>2013-06-16T10:53:31Z</time>
      </trkpt>
      <trkpt lat="47.662551524117589" lon="11.491335611790419">
        <ele>1157.083984375</ele>
        <time>2013-06-16T10:53:53Z</time>
      </trkpt>
      <trkpt lat="47.66256719827652" lon="11.491350028663874">
        <ele>1157.083984375</ele>
        <time>2013-06-16T10:54:04Z</time>
      </trkpt>
      <trkpt lat="47.662585135549307" lon="11.491404427215457">
        <ele>1156.12255859375</ele>
        <time>2013-06-16T10:54:12Z</time>
      </trkpt>
      <trkpt lat="47.66257943585515" lon="11.491398392245173">
        <ele>1156.12255859375</ele>
        <time>2013-06-16T10:55:26Z</time>
      </trkpt>
      <trkpt lat="47.662580106407404" lon="11.491374839097261">
        <ele>1156.12255859375</ele>
        <time>2013-06-16T10:55:36Z</time>
      </trkpt>
      <trkpt lat="47.662573652341962" lon="11.491380790248513">
        <ele>1156.603271484375</ele>
        <time>2013-06-16T10:55:53Z</time>
      </trkpt>
      <trkpt lat="47.662568623200059" lon="11.491365786641836">
        <ele>1157.083984375</ele>
        <time>2013-06-16T10:57:13Z</time>
      </trkpt>
      <trkpt lat="47.662563594058156" lon="11.491411132737994">
        <ele>1156.603271484375</ele>
        <time>2013-06-16T10:57:20Z</time>
      </trkpt>
      <trkpt lat="47.662559319287539" lon="11.491538370028138">
        <ele>1157.083984375</ele>
        <time>2013-06-16T10:57:30Z</time>
      </trkpt>
      <trkpt lat="47.662562672048807" lon="11.491548763588071">
        <ele>1157.083984375</ele>
        <time>2013-06-16T10:57:42Z</time>
      </trkpt>
      <trkpt lat="47.662568036466837" lon="11.491555804386735">
        <ele>1156.603271484375</ele>
        <time>2013-06-16T10:58:07Z</time>
      </trkpt>
      <trkpt lat="47.662539454177022" lon="11.491535436362028">
        <ele>1156.12255859375</ele>
        <time>2013-06-16T10:58:20Z</time>
      </trkpt>
      <trkpt lat="47.662513302639127" lon="11.491556391119957">
        <ele>1156.603271484375</ele>
        <time>2013-06-16T10:58:33Z</time>
      </trkpt>
      <trkpt lat="47.662468459457159" lon="11.491578435525298">
        <ele>1155.161376953125</ele>
        <time>2013-06-16T10:59:49Z</time>
      </trkpt>
      <trkpt lat="47.662467369809747" lon="11.491578435525298">
        <ele>1156.603271484375</ele>
        <time>2013-06-16T11:00:14Z</time>
      </trkpt>
      <trkpt lat="47.66247826628387" lon="11.491580195724964">
        <ele>1156.12255859375</ele>
        <time>2013-06-16T11:00:28Z</time>
      </trkpt>
      <trkpt lat="47.662476673722267" lon="11.491585308685899">
        <ele>1156.12255859375</ele>
        <time>2013-06-16T11:00:46Z</time>
      </trkpt>
      <trkpt lat="47.662483463063836" lon="11.491583045572042">
        <ele>1157.083984375</ele>
        <time>2013-06-16T11:01:04Z</time>
      </trkpt>
      <trkpt lat="47.662546159699559" lon="11.491625877097249">
        <ele>1155.161376953125</ele>
        <time>2013-06-16T11:01:23Z</time>
      </trkpt>
      <trkpt lat="47.662551440298557" lon="11.491743894293904">
        <ele>1155.64208984375</ele>
        <time>2013-06-16T11:01:29Z</time>
      </trkpt>
      <trkpt lat="47.662581028416753" lon="11.491813212633133">
        <ele>1155.64208984375</ele>
        <time>2013-06-16T11:01:33Z</time>
      </trkpt>
      <trkpt lat="47.662671133875847" lon="11.491916561499238">
        <ele>1154.2001953125</ele>
        <time>2013-06-16T11:01:43Z</time>
      </trkpt>
      <trkpt lat="47.662764675915241" lon="11.491983868181705">
        <ele>1152.758056640625</ele>
        <time>2013-06-16T11:01:51Z</time>
      </trkpt>
      <trkpt lat="47.662824774160981" lon="11.492055114358664">
        <ele>1152.27734375</ele>
        <time>2013-06-16T11:02:00Z</time>
      </trkpt>
      <trkpt lat="47.662845645099878" lon="11.492109261453152">
        <ele>1151.316162109375</ele>
        <time>2013-06-16T11:02:03Z</time>
      </trkpt>
      <trkpt lat="47.66290289349854" lon="11.492153266444802">
        <ele>1149.874267578125</ele>
        <time>2013-06-16T11:02:06Z</time>
      </trkpt>
      <trkpt lat="47.663101125508547" lon="11.49211848154664">
        <ele>1146.509521484375</ele>
        <time>2013-06-16T11:02:11Z</time>
      </trkpt>
      <trkpt lat="47.663339003920555" lon="11.492155529558659">
        <ele>1143.144775390625</ele>
        <time>2013-06-16T11:02:16Z</time>
      </trkpt>
      <trkpt lat="47.66368224285543" lon="11.492395587265491">
        <ele>1141.702880859375</ele>
        <time>2013-06-16T11:02:22Z</time>
      </trkpt>
      <trkpt lat="47.663911236450076" lon="11.492596669122577">
        <ele>1142.18359375</ele>
        <time>2013-06-16T11:02:27Z</time>
      </trkpt>
      <trkpt lat="47.66405263915658" lon="11.492786519229412">
        <ele>1142.18359375</ele>
        <time>2013-06-16T11:02:35Z</time>
      </trkpt>
      <trkpt lat="47.664096727967262" lon="11.492848796769977">
        <ele>1142.18359375</ele>
        <time>2013-06-16T11:02:37Z</time>
      </trkpt>
      <trkpt lat="47.664193119853735" lon="11.493087513372302">
        <ele>1137.857666015625</ele>
        <time>2013-06-16T11:02:41Z</time>
      </trkpt>
      <trkpt lat="47.664260175079107" lon="11.493257749825716">
        <ele>1135.93505859375</ele>
        <time>2013-06-16T11:02:43Z</time>
      </trkpt>
      <trkpt lat="47.664393866434693" lon="11.493553714826703">
        <ele>1133.051025390625</ele>
        <time>2013-06-16T11:02:46Z</time>
      </trkpt>
      <trkpt lat="47.664479278028011" lon="11.493747504428029">
        <ele>1131.12841796875</ele>
        <time>2013-06-16T11:02:48Z</time>
      </trkpt>
      <trkpt lat="47.664626128971577" lon="11.494017653167248">
        <ele>1128.244384765625</ele>
        <time>2013-06-16T11:02:51Z</time>
      </trkpt>
      <trkpt lat="47.664682539179921" lon="11.494103148579597">
        <ele>1124.8798828125</ele>
        <time>2013-06-16T11:02:52Z</time>
      </trkpt>
      <trkpt lat="47.664877418428659" lon="11.494339099153876">
        <ele>1121.03466796875</ele>
        <time>2013-06-16T11:02:55Z</time>
      </trkpt>
      <trkpt lat="47.665045140311122" lon="11.494584856554866">
        <ele>1117.189453125</ele>
        <time>2013-06-16T11:02:58Z</time>
      </trkpt>
      <trkpt lat="47.665128959342837" lon="11.494739167392254">
        <ele>1115.747314453125</ele>
        <time>2013-06-16T11:03:00Z</time>
      </trkpt>
      <trkpt lat="47.665210599079728" lon="11.49487235583365">
        <ele>1112.382568359375</ele>
        <time>2013-06-16T11:03:02Z</time>
      </trkpt>
      <trkpt lat="47.665341021493077" lon="11.49508005939424">
        <ele>1108.537353515625</ele>
        <time>2013-06-16T11:03:05Z</time>
      </trkpt>
      <trkpt lat="47.665429702028632" lon="11.495234202593565">
        <ele>1104.692138671875</ele>
        <time>2013-06-16T11:03:07Z</time>
      </trkpt>
      <trkpt lat="47.665613014250994" lon="11.495481552556157">
        <ele>1100.366455078125</ele>
        <time>2013-06-16T11:03:11Z</time>
      </trkpt>
      <trkpt lat="47.665773360058665" lon="11.495628152042627">
        <ele>1096.52099609375</ele>
        <time>2013-06-16T11:03:14Z</time>
      </trkpt>
      <trkpt lat="47.665820466354489" lon="11.495676012709737">
        <ele>1094.59814453125</ele>
        <time>2013-06-16T11:03:15Z</time>
      </trkpt>
      <trkpt lat="47.665970837697387" lon="11.495860833674669">
        <ele>1090.7529296875</ele>
        <time>2013-06-16T11:03:18Z</time>
      </trkpt>
      <trkpt lat="47.666195891797543" lon="11.495996033772826">
        <ele>1086.90771484375</ele>
        <time>2013-06-16T11:03:21Z</time>
      </trkpt>
      <trkpt lat="47.666552793234587" lon="11.496046241372824">
        <ele>1084.02392578125</ele>
        <time>2013-06-16T11:03:25Z</time>
      </trkpt>
      <trkpt lat="47.666631415486336" lon="11.496064262464643">
        <ele>1081.620361328125</ele>
        <time>2013-06-16T11:03:26Z</time>
      </trkpt>
      <trkpt lat="47.667028298601508" lon="11.49628889746964">
        <ele>1076.81396484375</ele>
        <time>2013-06-16T11:03:31Z</time>
      </trkpt>
      <trkpt lat="47.667183028534055" lon="11.496387720108032">
        <ele>1074.891357421875</ele>
        <time>2013-06-16T11:03:33Z</time>
      </trkpt>
      <trkpt lat="47.667405651882291" lon="11.496581928804517">
        <ele>1069.604248046875</ele>
        <time>2013-06-16T11:03:36Z</time>
      </trkpt>
      <trkpt lat="47.667562896385789" lon="11.496799690648913">
        <ele>1069.12353515625</ele>
        <time>2013-06-16T11:03:38Z</time>
      </trkpt>
      <trkpt lat="47.667759619653225" lon="11.497187102213502">
        <ele>1067.20068359375</ele>
        <time>2013-06-16T11:03:41Z</time>
      </trkpt>
      <trkpt lat="47.668107133358717" lon="11.497948262840509">
        <ele>1062.874755859375</ele>
        <time>2013-06-16T11:03:47Z</time>
      </trkpt>
      <trkpt lat="47.668235376477242" lon="11.498202737420797">
        <ele>1061.432861328125</ele>
        <time>2013-06-16T11:03:49Z</time>
      </trkpt>
      <trkpt lat="47.668604264035821" lon="11.49897831492126">
        <ele>1059.029541015625</ele>
        <time>2013-06-16T11:03:55Z</time>
      </trkpt>
      <trkpt lat="47.668838705867529" lon="11.499413251876831">
        <ele>1057.10693359375</ele>
        <time>2013-06-16T11:03:59Z</time>
      </trkpt>
      <trkpt lat="47.668929314240813" lon="11.499625397846103">
        <ele>1056.1455078125</ele>
        <time>2013-06-16T11:04:01Z</time>
      </trkpt>
      <trkpt lat="47.66900441609323" lon="11.500020017847419">
        <ele>1053.742431640625</ele>
        <time>2013-06-16T11:04:04Z</time>
      </trkpt>
      <trkpt lat="47.669168449938297" lon="11.500414470210671">
        <ele>1053.742431640625</ele>
        <time>2013-06-16T11:04:08Z</time>
      </trkpt>
      <trkpt lat="47.669235002249479" lon="11.50046375580132">
        <ele>1053.742431640625</ele>
        <time>2013-06-16T11:04:09Z</time>
      </trkpt>
      <trkpt lat="47.669516634196043" lon="11.500599542632699">
        <ele>1050.858154296875</ele>
        <time>2013-06-16T11:04:13Z</time>
      </trkpt>
      <trkpt lat="47.669653426855803" lon="11.500701466575265">
        <ele>1050.377685546875</ele>
        <time>2013-06-16T11:04:15Z</time>
      </trkpt>
      <trkpt lat="47.669756021350622" lon="11.500827865675092">
        <ele>1051.819580078125</ele>
        <time>2013-06-16T11:04:17Z</time>
      </trkpt>
      <trkpt lat="47.670011837035418" lon="11.501126429066062">
        <ele>1051.819580078125</ele>
        <time>2013-06-16T11:04:26Z</time>
      </trkpt>
      <trkpt lat="47.670023823156953" lon="11.501142270863056">
        <ele>1051.819580078125</ele>
        <time>2013-06-16T11:04:31Z</time>
      </trkpt>
      <trkpt lat="47.670009825378656" lon="11.5010950807482">
        <ele>1051.819580078125</ele>
        <time>2013-06-16T11:04:37Z</time>
      </trkpt>
      <trkpt lat="47.670006807893515" lon="11.501099187880754">
        <ele>1048.935546875</ele>
        <time>2013-06-16T11:04:53Z</time>
      </trkpt>
      <trkpt lat="47.670011501759291" lon="11.501101283356547">
        <ele>1052.30029296875</ele>
        <time>2013-06-16T11:04:56Z</time>
      </trkpt>
      <trkpt lat="47.670021560043097" lon="11.501082004979253">
        <ele>1050.377685546875</ele>
        <time>2013-06-16T11:04:58Z</time>
      </trkpt>
      <trkpt lat="47.670056847855449" lon="11.501050237566233">
        <ele>1049.89697265625</ele>
        <time>2013-06-16T11:05:19Z</time>
      </trkpt>
      <trkpt lat="47.670053411275148" lon="11.501062726601958">
        <ele>1046.532470703125</ele>
        <time>2013-06-16T11:09:51Z</time>
      </trkpt>
      <trkpt lat="47.670037737116218" lon="11.501313764601946">
        <ele>1045.09033203125</ele>
        <time>2013-06-16T11:13:24Z</time>
      </trkpt>
      <trkpt lat="47.670003203675151" lon="11.50123530998826">
        <ele>1045.09033203125</ele>
        <time>2013-06-16T11:14:02Z</time>
      </trkpt>
      <trkpt lat="47.670002365484834" lon="11.501169679686427">
        <ele>1045.09033203125</ele>
        <time>2013-06-16T11:14:28Z</time>
      </trkpt>
      <trkpt lat="47.669937741011381" lon="11.501154759898782">
        <ele>1042.20654296875</ele>
        <time>2013-06-16T11:17:21Z</time>
      </trkpt>
      <trkpt lat="47.669886611402035" lon="11.501172780990601">
        <ele>1039.322509765625</ele>
        <time>2013-06-16T11:20:34Z</time>
      </trkpt>
      <trkpt lat="47.669860040768981" lon="11.501340921968222">
        <ele>1037.880615234375</ele>
        <time>2013-06-16T11:22:13Z</time>
      </trkpt>
      <trkpt lat="47.669914271682501" lon="11.501449216157198">
        <ele>1037.880615234375</ele>
        <time>2013-06-16T11:22:32Z</time>
      </trkpt>
      <trkpt lat="47.670007310807705" lon="11.501329019665718">
        <ele>1037.880615234375</ele>
        <time>2013-06-16T11:23:07Z</time>
      </trkpt>
      <trkpt lat="47.670051231980324" lon="11.501188036054373">
        <ele>1037.880615234375</ele>
        <time>2013-06-16T11:23:35Z</time>
      </trkpt>
      <trkpt lat="47.669946039095521" lon="11.501233298331499">
        <ele>1037.880615234375</ele>
        <time>2013-06-16T11:24:55Z</time>
      </trkpt>
      <trkpt lat="47.669917372986674" lon="11.501245787367225">
        <ele>1037.39990234375</ele>
        <time>2013-06-16T11:25:25Z</time>
      </trkpt>
      <trkpt lat="47.669950732961297" lon="11.501240087673068">
        <ele>1036.919189453125</ele>
        <time>2013-06-16T11:27:48Z</time>
      </trkpt>
      <trkpt lat="47.670104876160622" lon="11.501386184245348">
        <ele>1036.438720703125</ele>
        <time>2013-06-16T11:27:56Z</time>
      </trkpt>
      <trkpt lat="47.670154580846429" lon="11.501463381573558">
        <ele>1035.47705078125</ele>
        <time>2013-06-16T11:27:58Z</time>
      </trkpt>
      <trkpt lat="47.670338479802012" lon="11.501691536977887">
        <ele>1034.03515625</ele>
        <time>2013-06-16T11:28:03Z</time>
      </trkpt>
      <trkpt lat="47.670728573575616" lon="11.502155810594559">
        <ele>1031.1513671875</ele>
        <time>2013-06-16T11:28:09Z</time>
      </trkpt>
      <trkpt lat="47.6709677092731" lon="11.502518244087696">
        <ele>1028.748046875</ele>
        <time>2013-06-16T11:28:13Z</time>
      </trkpt>
      <trkpt lat="47.671167701482773" lon="11.503007328137755">
        <ele>1024.422119140625</ele>
        <time>2013-06-16T11:28:17Z</time>
      </trkpt>
      <trkpt lat="47.671201145276427" lon="11.503153257071972">
        <ele>1024.422119140625</ele>
        <time>2013-06-16T11:28:18Z</time>
      </trkpt>
      <trkpt lat="47.671238109469414" lon="11.503298850730062">
        <ele>1022.018798828125</ele>
        <time>2013-06-16T11:28:19Z</time>
      </trkpt>
      <trkpt lat="47.671606577932835" lon="11.503883572295308">
        <ele>1016.250732421875</ele>
        <time>2013-06-16T11:28:24Z</time>
      </trkpt>
      <trkpt lat="47.671702718362212" lon="11.503963032737374">
        <ele>1016.250732421875</ele>
        <time>2013-06-16T11:28:25Z</time>
      </trkpt>
      <trkpt lat="47.672096500173211" lon="11.504263607785106">
        <ele>1015.770263671875</ele>
        <time>2013-06-16T11:28:29Z</time>
      </trkpt>
      <trkpt lat="47.672597989439964" lon="11.504444237798452">
        <ele>1013.847412109375</ele>
        <time>2013-06-16T11:28:34Z</time>
      </trkpt>
      <trkpt lat="47.673150859773159" lon="11.504525793716311">
        <ele>1013.847412109375</ele>
        <time>2013-06-16T11:28:40Z</time>
      </trkpt>
      <trkpt lat="47.673791069537401" lon="11.504677841439843">
        <ele>1010.002197265625</ele>
        <time>2013-06-16T11:28:48Z</time>
      </trkpt>
      <trkpt lat="47.674238160252571" lon="11.504774149507284">
        <ele>1010.963623046875</ele>
        <time>2013-06-16T11:28:54Z</time>
      </trkpt>
      <trkpt lat="47.674313513562083" lon="11.504786303266883">
        <ele>1010.963623046875</ele>
        <time>2013-06-16T11:28:55Z</time>
      </trkpt>
      <trkpt lat="47.674537394195795" lon="11.504788231104612">
        <ele>1010.48291015625</ele>
        <time>2013-06-16T11:28:58Z</time>
      </trkpt>
      <trkpt lat="47.674755323678255" lon="11.504810024052858">
        <ele>1010.002197265625</ele>
        <time>2013-06-16T11:29:01Z</time>
      </trkpt>
      <trkpt lat="47.675274331122637" lon="11.504909517243505">
        <ele>1010.002197265625</ele>
        <time>2013-06-16T11:29:09Z</time>
      </trkpt>
      <trkpt lat="47.675479101017118" lon="11.504963245242834">
        <ele>1009.041015625</ele>
        <time>2013-06-16T11:29:12Z</time>
      </trkpt>
      <trkpt lat="47.675869446247816" lon="11.505233477801085">
        <ele>1010.002197265625</ele>
        <time>2013-06-16T11:29:19Z</time>
      </trkpt>
      <trkpt lat="47.676121573895216" lon="11.505516702309251">
        <ele>1013.366943359375</ele>
        <time>2013-06-16T11:29:26Z</time>
      </trkpt>
      <trkpt lat="47.676150742918253" lon="11.50555232539773">
        <ele>1013.366943359375</ele>
        <time>2013-06-16T11:29:27Z</time>
      </trkpt>
      <trkpt lat="47.676391219720244" lon="11.50585139170289">
        <ele>1015.770263671875</ele>
        <time>2013-06-16T11:29:37Z</time>
      </trkpt>
      <trkpt lat="47.676553661003709" lon="11.506127323955297">
        <ele>1015.28955078125</ele>
        <time>2013-06-16T11:29:46Z</time>
      </trkpt>
      <trkpt lat="47.676598252728581" lon="11.506227906793356">
        <ele>1015.770263671875</ele>
        <time>2013-06-16T11:29:48Z</time>
      </trkpt>
      <trkpt lat="47.676812410354614" lon="11.506501827389002">
        <ele>1015.28955078125</ele>
        <time>2013-06-16T11:29:54Z</time>
      </trkpt>
      <trkpt lat="47.676978791132569" lon="11.506609534844756">
        <ele>1015.28955078125</ele>
        <time>2013-06-16T11:29:58Z</time>
      </trkpt>
      <trkpt lat="47.677166713401675" lon="11.506638871505857">
        <ele>1015.770263671875</ele>
        <time>2013-06-16T11:30:02Z</time>
      </trkpt>
      <trkpt lat="47.677757050842047" lon="11.506530409678817">
        <ele>1011.925048828125</ele>
        <time>2013-06-16T11:30:12Z</time>
      </trkpt>
      <trkpt lat="47.67782611772418" lon="11.506533930078149">
        <ele>1011.925048828125</ele>
        <time>2013-06-16T11:30:13Z</time>
      </trkpt>
      <trkpt lat="47.678428525105119" lon="11.506916647776961">
        <ele>1009.521728515625</ele>
        <time>2013-06-16T11:30:22Z</time>
      </trkpt>
      <trkpt lat="47.67877696081996" lon="11.507248654961586">
        <ele>1009.041015625</ele>
        <time>2013-06-16T11:30:29Z</time>
      </trkpt>
      <trkpt lat="47.6790217962116" lon="11.507711168378592">
        <ele>1010.48291015625</ele>
        <time>2013-06-16T11:30:37Z</time>
      </trkpt>
      <trkpt lat="47.679221872240305" lon="11.507861539721489">
        <ele>1011.4443359375</ele>
        <time>2013-06-16T11:30:42Z</time>
      </trkpt>
      <trkpt lat="47.679384145885706" lon="11.507713263854384">
        <ele>1011.925048828125</ele>
        <time>2013-06-16T11:30:46Z</time>
      </trkpt>
      <trkpt lat="47.679596794769168" lon="11.507361391559243">
        <ele>1011.925048828125</ele>
        <time>2013-06-16T11:30:54Z</time>
      </trkpt>
      <trkpt lat="47.679685056209564" lon="11.50730506516993">
        <ele>1012.405517578125</ele>
        <time>2013-06-16T11:30:58Z</time>
      </trkpt>
      <trkpt lat="47.679645577445626" lon="11.507332641631365">
        <ele>1011.4443359375</ele>
        <time>2013-06-16T11:31:14Z</time>
      </trkpt>
      <trkpt lat="47.679666029289365" lon="11.507357619702816">
        <ele>1012.405517578125</ele>
        <time>2013-06-16T11:31:29Z</time>
      </trkpt>
      <trkpt lat="47.679717242717743" lon="11.50734219700098">
        <ele>1012.88623046875</ele>
        <time>2013-06-16T11:31:32Z</time>
      </trkpt>
      <trkpt lat="47.679792596027255" lon="11.507440935820341">
        <ele>1013.366943359375</ele>
        <time>2013-06-16T11:31:36Z</time>
      </trkpt>
      <trkpt lat="47.679814975708723" lon="11.507478654384613">
        <ele>1012.88623046875</ele>
        <time>2013-06-16T11:31:37Z</time>
      </trkpt>
      <trkpt lat="47.679868871346116" lon="11.507628271356225">
        <ele>1013.366943359375</ele>
        <time>2013-06-16T11:31:40Z</time>
      </trkpt>
      <trkpt lat="47.67994673922658" lon="11.508046863600612">
        <ele>1012.405517578125</ele>
        <time>2013-06-16T11:31:47Z</time>
      </trkpt>
      <trkpt lat="47.680126614868641" lon="11.508264457806945">
        <ele>1011.4443359375</ele>
        <time>2013-06-16T11:31:53Z</time>
      </trkpt>
      <trkpt lat="47.680195849388838" lon="11.508386079221964">
        <ele>1011.925048828125</ele>
        <time>2013-06-16T11:31:57Z</time>
      </trkpt>
      <trkpt lat="47.680422579869628" lon="11.508657652884722">
        <ele>1009.521728515625</ele>
        <time>2013-06-16T11:32:02Z</time>
      </trkpt>
      <trkpt lat="47.680694069713354" lon="11.508941045030951">
        <ele>1007.59912109375</ele>
        <time>2013-06-16T11:32:07Z</time>
      </trkpt>
      <trkpt lat="47.680760202929378" lon="11.508973650634289">
        <ele>1006.6376953125</ele>
        <time>2013-06-16T11:32:08Z</time>
      </trkpt>
      <trkpt lat="47.681049210950732" lon="11.509069623425603">
        <ele>1003.27294921875</ele>
        <time>2013-06-16T11:32:14Z</time>
      </trkpt>
      <trkpt lat="47.681115847080946" lon="11.509102312847972">
        <ele>1001.350341796875</ele>
        <time>2013-06-16T11:32:15Z</time>
      </trkpt>
      <trkpt lat="47.681580875068903" lon="11.509412694722414">
        <ele>996.5439453125</ele>
        <time>2013-06-16T11:32:21Z</time>
      </trkpt>
      <trkpt lat="47.681913552805781" lon="11.509550493210554">
        <ele>996.5439453125</ele>
        <time>2013-06-16T11:32:25Z</time>
      </trkpt>
      <trkpt lat="47.682262156158686" lon="11.509534064680338">
        <ele>994.140625</ele>
        <time>2013-06-16T11:32:29Z</time>
      </trkpt>
      <trkpt lat="47.682503806427121" lon="11.509475475177169">
        <ele>991.256591796875</ele>
        <time>2013-06-16T11:32:32Z</time>
      </trkpt>
      <trkpt lat="47.682866659015417" lon="11.509584859013557">
        <ele>987.4111328125</ele>
        <time>2013-06-16T11:32:36Z</time>
      </trkpt>
      <trkpt lat="47.682935893535614" lon="11.509691225364804">
        <ele>987.4111328125</ele>
        <time>2013-06-16T11:32:37Z</time>
      </trkpt>
      <trkpt lat="47.683044690638781" lon="11.509959613904357">
        <ele>986.930419921875</ele>
        <time>2013-06-16T11:32:39Z</time>
      </trkpt>
      <trkpt lat="47.683240408077836" lon="11.510315677151084">
        <ele>983.56591796875</ele>
        <time>2013-06-16T11:32:42Z</time>
      </trkpt>
      <trkpt lat="47.683447021991014" lon="11.510496390983462">
        <ele>985.008056640625</ele>
        <time>2013-06-16T11:32:45Z</time>
      </trkpt>
      <trkpt lat="47.683658078312874" lon="11.510575599968433">
        <ele>982.604736328125</ele>
        <time>2013-06-16T11:32:48Z</time>
      </trkpt>
      <trkpt lat="47.683925377205014" lon="11.51070786640048">
        <ele>979.239990234375</ele>
        <time>2013-06-16T11:32:52Z</time>
      </trkpt>
      <trkpt lat="47.684186222031713" lon="11.510920850560069">
        <ele>973.472412109375</ele>
        <time>2013-06-16T11:32:56Z</time>
      </trkpt>
      <trkpt lat="47.684252271428704" lon="11.510990336537361">
        <ele>973.472412109375</ele>
        <time>2013-06-16T11:32:57Z</time>
      </trkpt>
      <trkpt lat="47.68452912569046" lon="11.511243470013142">
        <ele>970.107421875</ele>
        <time>2013-06-16T11:33:01Z</time>
      </trkpt>
      <trkpt lat="47.685125498101115" lon="11.51184587739408">
        <ele>966.742919921875</ele>
        <time>2013-06-16T11:33:09Z</time>
      </trkpt>
      <trkpt lat="47.685273941606283" lon="11.511992560699582">
        <ele>965.78173828125</ele>
        <time>2013-06-16T11:33:11Z</time>
      </trkpt>
      <trkpt lat="47.685767887160182" lon="11.512471921741962">
        <ele>966.26220703125</ele>
        <time>2013-06-16T11:33:18Z</time>
      </trkpt>
      <trkpt lat="47.686010207980871" lon="11.512585747987032">
        <ele>961.455810546875</ele>
        <time>2013-06-16T11:33:21Z</time>
      </trkpt>
      <trkpt lat="47.686406504362822" lon="11.512673674151301">
        <ele>960.494384765625</ele>
        <time>2013-06-16T11:33:25Z</time>
      </trkpt>
      <trkpt lat="47.686593253165483" lon="11.512700328603387">
        <ele>959.533203125</ele>
        <time>2013-06-16T11:33:27Z</time>
      </trkpt>
      <trkpt lat="47.686896761879325" lon="11.512599242851138">
        <ele>958.09130859375</ele>
        <time>2013-06-16T11:33:32Z</time>
      </trkpt>
      <trkpt lat="47.686921069398522" lon="11.512570660561323">
        <ele>958.57177734375</ele>
        <time>2013-06-16T11:33:33Z</time>
      </trkpt>
      <trkpt lat="47.687043780460954" lon="11.512267151847482">
        <ele>958.57177734375</ele>
        <time>2013-06-16T11:33:39Z</time>
      </trkpt>
      <trkpt lat="47.687051156535745" lon="11.512044360861182">
        <ele>958.09130859375</ele>
        <time>2013-06-16T11:33:42Z</time>
      </trkpt>
      <trkpt lat="47.687289034947753" lon="11.51153021492064">
        <ele>956.649169921875</ele>
        <time>2013-06-16T11:33:47Z</time>
      </trkpt>
      <trkpt lat="47.687455331906676" lon="11.51124145835638">
        <ele>955.687744140625</ele>
        <time>2013-06-16T11:33:50Z</time>
      </trkpt>
      <trkpt lat="47.687516855075955" lon="11.510962005704641">
        <ele>953.76513671875</ele>
        <time>2013-06-16T11:33:54Z</time>
      </trkpt>
      <trkpt lat="47.687538145110011" lon="11.510911379009485">
        <ele>952.8037109375</ele>
        <time>2013-06-16T11:33:55Z</time>
      </trkpt>
      <trkpt lat="47.687689438462257" lon="11.510813729837537">
        <ele>948.95849609375</ele>
        <time>2013-06-16T11:33:58Z</time>
      </trkpt>
      <trkpt lat="47.687875851988792" lon="11.51053830049932">
        <ele>947.035888671875</ele>
        <time>2013-06-16T11:34:01Z</time>
      </trkpt>
      <trkpt lat="47.687978278845549" lon="11.510408716276288">
        <ele>946.555419921875</ele>
        <time>2013-06-16T11:34:02Z</time>
      </trkpt>
      <trkpt lat="47.688155891373754" lon="11.510266391560435">
        <ele>945.11328125</ele>
        <time>2013-06-16T11:34:04Z</time>
      </trkpt>
      <trkpt lat="47.6884107850492" lon="11.510048126801848">
        <ele>942.710205078125</ele>
        <time>2013-06-16T11:34:07Z</time>
      </trkpt>
      <trkpt lat="47.688646148890257" lon="11.509784683585167">
        <ele>941.748779296875</ele>
        <time>2013-06-16T11:34:09Z</time>
      </trkpt>
      <trkpt lat="47.689022328704596" lon="11.50940515100956">
        <ele>938.86474609375</ele>
        <time>2013-06-16T11:34:13Z</time>
      </trkpt>
      <trkpt lat="47.689110087230802" lon="11.509309932589531">
        <ele>938.86474609375</ele>
        <time>2013-06-16T11:34:14Z</time>
      </trkpt>
      <trkpt lat="47.689196923747659" lon="11.50921898894012">
        <ele>938.384033203125</ele>
        <time>2013-06-16T11:34:15Z</time>
      </trkpt>
      <trkpt lat="47.689516693353653" lon="11.509015057235956">
        <ele>937.9033203125</ele>
        <time>2013-06-16T11:34:19Z</time>
      </trkpt>
      <trkpt lat="47.689735796302557" lon="11.50914128869772">
        <ele>936.46142578125</ele>
        <time>2013-06-16T11:34:22Z</time>
      </trkpt>
      <trkpt lat="47.689894717186689" lon="11.5094721224159">
        <ele>933.577392578125</ele>
        <time>2013-06-16T11:34:25Z</time>
      </trkpt>
      <trkpt lat="47.689929334446788" lon="11.509623918682337">
        <ele>932.6162109375</ele>
        <time>2013-06-16T11:34:27Z</time>
      </trkpt>
      <trkpt lat="47.690015500411391" lon="11.50962115265429">
        <ele>930.212890625</ele>
        <time>2013-06-16T11:34:31Z</time>
      </trkpt>
      <trkpt lat="47.690090099349618" lon="11.509411940351129">
        <ele>926.848388671875</ele>
        <time>2013-06-16T11:34:34Z</time>
      </trkpt>
      <trkpt lat="47.69021431915462" lon="11.509060403332114">
        <ele>921.560791015625</ele>
        <time>2013-06-16T11:34:38Z</time>
      </trkpt>
      <trkpt lat="47.690268633887172" lon="11.508822776377201">
        <ele>918.1962890625</ele>
        <time>2013-06-16T11:34:43Z</time>
      </trkpt>
      <trkpt lat="47.690371479839087" lon="11.508962670341134">
        <ele>915.3125</ele>
        <time>2013-06-16T11:34:47Z</time>
      </trkpt>
      <trkpt lat="47.690387405455112" lon="11.509017655625939">
        <ele>913.870361328125</ele>
        <time>2013-06-16T11:34:48Z</time>
      </trkpt>
      <trkpt lat="47.690513553097844" lon="11.509123519062996">
        <ele>909.06396484375</ele>
        <time>2013-06-16T11:34:52Z</time>
      </trkpt>
      <trkpt lat="47.69079677760601" lon="11.509395595639944">
        <ele>908.583251953125</ele>
        <time>2013-06-16T11:34:56Z</time>
      </trkpt>
      <trkpt lat="47.690918482840061" lon="11.509292498230934">
        <ele>906.660400390625</ele>
        <time>2013-06-16T11:34:59Z</time>
      </trkpt>
      <trkpt lat="47.690902221947908" lon="11.509083285927773">
        <ele>903.2958984375</ele>
        <time>2013-06-16T11:35:01Z</time>
      </trkpt>
      <trkpt lat="47.690860899165273" lon="11.508973063901067">
        <ele>899.45068359375</ele>
        <time>2013-06-16T11:35:02Z</time>
      </trkpt>
      <trkpt lat="47.690760483965278" lon="11.508776675909758">
        <ele>898.4892578125</ele>
        <time>2013-06-16T11:35:04Z</time>
      </trkpt>
      <trkpt lat="47.690703151747584" lon="11.508476687595248">
        <ele>896.086181640625</ele>
        <time>2013-06-16T11:35:07Z</time>
      </trkpt>
      <trkpt lat="47.690780097618699" lon="11.508379960432649">
        <ele>894.64404296875</ele>
        <time>2013-06-16T11:35:10Z</time>
      </trkpt>
      <trkpt lat="47.690888391807675" lon="11.508402423933148">
        <ele>892.7216796875</ele>
        <time>2013-06-16T11:35:12Z</time>
      </trkpt>
      <trkpt lat="47.691020574420691" lon="11.508437879383564">
        <ele>889.83740234375</ele>
        <time>2013-06-16T11:35:14Z</time>
      </trkpt>
      <trkpt lat="47.691259542480111" lon="11.50857349857688">
        <ele>887.914794921875</ele>
        <time>2013-06-16T11:35:17Z</time>
      </trkpt>
      <trkpt lat="47.691339505836368" lon="11.508619347587228">
        <ele>886.472900390625</ele>
        <time>2013-06-16T11:35:18Z</time>
      </trkpt>
      <trkpt lat="47.691666316241026" lon="11.508631333708763">
        <ele>882.14697265625</ele>
        <time>2013-06-16T11:35:22Z</time>
      </trkpt>
      <trkpt lat="47.691807132214308" lon="11.508493032306433">
        <ele>880.224365234375</ele>
        <time>2013-06-16T11:35:24Z</time>
      </trkpt>
      <trkpt lat="47.692070826888084" lon="11.508762929588556">
        <ele>874.456298828125</ele>
        <time>2013-06-16T11:35:28Z</time>
      </trkpt>
      <trkpt lat="47.692122040316463" lon="11.50888966396451">
        <ele>873.9755859375</ele>
        <time>2013-06-16T11:35:29Z</time>
      </trkpt>
      <trkpt lat="47.692156070843339" lon="11.509040370583534">
        <ele>872.052978515625</ele>
        <time>2013-06-16T11:35:30Z</time>
      </trkpt>
      <trkpt lat="47.692248858511448" lon="11.509324936196208">
        <ele>869.169189453125</ele>
        <time>2013-06-16T11:35:32Z</time>
      </trkpt>
      <trkpt lat="47.69231834448874" lon="11.509717460721731">
        <ele>864.84326171875</ele>
        <time>2013-06-16T11:35:36Z</time>
      </trkpt>
      <trkpt lat="47.692276015877724" lon="11.509840255603194">
        <ele>864.362548828125</ele>
        <time>2013-06-16T11:35:37Z</time>
      </trkpt>
      <trkpt lat="47.692073676735163" lon="11.510286005213857">
        <ele>856.191162109375</ele>
        <time>2013-06-16T11:35:40Z</time>
      </trkpt>
      <trkpt lat="47.692006286233664" lon="11.510535534471273">
        <ele>854.749267578125</ele>
        <time>2013-06-16T11:35:42Z</time>
      </trkpt>
      <trkpt lat="47.691745776683092" lon="11.510857651010156">
        <ele>851.384765625</ele>
        <time>2013-06-16T11:35:46Z</time>
      </trkpt>
      <trkpt lat="47.691645277664065" lon="11.511065354570746">
        <ele>848.9814453125</ele>
        <time>2013-06-16T11:35:49Z</time>
      </trkpt>
      <trkpt lat="47.69168995320797" lon="11.511233914643526">
        <ele>847.53955078125</ele>
        <time>2013-06-16T11:35:51Z</time>
      </trkpt>
      <trkpt lat="47.691799504682422" lon="11.511437511071563">
        <ele>843.694091796875</ele>
        <time>2013-06-16T11:35:53Z</time>
      </trkpt>
      <trkpt lat="47.691885754466057" lon="11.511814026162028">
        <ele>838.8876953125</ele>
        <time>2013-06-16T11:35:56Z</time>
      </trkpt>
      <trkpt lat="47.691782154142857" lon="11.512194313108921">
        <ele>835.52294921875</ele>
        <time>2013-06-16T11:35:58Z</time>
      </trkpt>
      <trkpt lat="47.691741250455379" lon="11.51236136443913">
        <ele>834.0810546875</ele>
        <time>2013-06-16T11:35:59Z</time>
      </trkpt>
      <trkpt lat="47.691631112247705" lon="11.512813484296203">
        <ele>829.2744140625</ele>
        <time>2013-06-16T11:36:02Z</time>
      </trkpt>
      <trkpt lat="47.691591968759894" lon="11.512959497049451">
        <ele>825.428955078125</ele>
        <time>2013-06-16T11:36:03Z</time>
      </trkpt>
      <trkpt lat="47.691500019282103" lon="11.513263173401356">
        <ele>822.064453125</ele>
        <time>2013-06-16T11:36:06Z</time>
      </trkpt>
      <trkpt lat="47.691439166665077" lon="11.513560898602009">
        <ele>817.258056640625</ele>
        <time>2013-06-16T11:36:09Z</time>
      </trkpt>
      <trkpt lat="47.691419636830688" lon="11.513693081215024">
        <ele>817.258056640625</ele>
        <time>2013-06-16T11:36:10Z</time>
      </trkpt>
      <trkpt lat="47.691385941579938" lon="11.514105638489127">
        <ele>811.489990234375</ele>
        <time>2013-06-16T11:36:13Z</time>
      </trkpt>
      <trkpt lat="47.69123749807477" lon="11.514762779697776">
        <ele>807.1640625</ele>
        <time>2013-06-16T11:36:18Z</time>
      </trkpt>
      <trkpt lat="47.691221153363585" lon="11.514897141605616">
        <ele>805.241455078125</ele>
        <time>2013-06-16T11:36:19Z</time>
      </trkpt>
      <trkpt lat="47.691338248550892" lon="11.515165781602263">
        <ele>803.799560546875</ele>
        <time>2013-06-16T11:36:21Z</time>
      </trkpt>
      <trkpt lat="47.691393233835697" lon="11.515321098268032">
        <ele>803.31884765625</ele>
        <time>2013-06-16T11:36:22Z</time>
      </trkpt>
      <trkpt lat="47.691383678466082" lon="11.515633324161172">
        <ele>802.357421875</ele>
        <time>2013-06-16T11:36:26Z</time>
      </trkpt>
      <trkpt lat="47.691382337361574" lon="11.515705408528447">
        <ele>802.357421875</ele>
        <time>2013-06-16T11:36:29Z</time>
      </trkpt>
      <trkpt lat="47.691391557455063" lon="11.515699289739132">
        <ele>799.954345703125</ele>
        <time>2013-06-16T11:36:32Z</time>
      </trkpt>
      <trkpt lat="47.691613091155887" lon="11.515944208949804">
        <ele>799.4736328125</ele>
        <time>2013-06-16T11:36:37Z</time>
      </trkpt>
      <trkpt lat="47.691679559648037" lon="11.515986202284694">
        <ele>799.4736328125</ele>
        <time>2013-06-16T11:36:39Z</time>
      </trkpt>
      <trkpt lat="47.692108126357198" lon="11.51603682897985">
        <ele>798.51220703125</ele>
        <time>2013-06-16T11:36:45Z</time>
      </trkpt>
      <trkpt lat="47.692110724747181" lon="11.516020568087697">
        <ele>798.51220703125</ele>
        <time>2013-06-16T11:36:53Z</time>
      </trkpt>
      <trkpt lat="47.692266879603267" lon="11.515998858958483">
        <ele>798.992919921875</ele>
        <time>2013-06-16T11:37:20Z</time>
      </trkpt>
      <trkpt lat="47.692354805767536" lon="11.516016628593206">
        <ele>799.4736328125</ele>
        <time>2013-06-16T11:37:25Z</time>
      </trkpt>
      <trkpt lat="47.692596204578876" lon="11.51578176766634">
        <ele>798.51220703125</ele>
        <time>2013-06-16T11:37:45Z</time>
      </trkpt>
      <trkpt lat="47.692600646987557" lon="11.51578227058053">
        <ele>798.51220703125</ele>
        <time>2013-06-16T11:38:14Z</time>
      </trkpt>
      <trkpt lat="47.692693769931793" lon="11.515934318304062">
        <ele>797.551025390625</ele>
        <time>2013-06-16T11:38:20Z</time>
      </trkpt>
      <trkpt lat="47.69274640828371" lon="11.516047641634941">
        <ele>797.551025390625</ele>
        <time>2013-06-16T11:38:22Z</time>
      </trkpt>
      <trkpt lat="47.692823689430952" lon="11.516241682693362">
        <ele>797.551025390625</ele>
        <time>2013-06-16T11:38:25Z</time>
      </trkpt>
      <trkpt lat="47.692888481542468" lon="11.516362214460969">
        <ele>797.0703125</ele>
        <time>2013-06-16T11:38:27Z</time>
      </trkpt>
      <trkpt lat="47.692941538989544" lon="11.51647268794477">
        <ele>796.109130859375</ele>
        <time>2013-06-16T11:38:29Z</time>
      </trkpt>
      <trkpt lat="47.692910525947809" lon="11.51665398851037">
        <ele>796.109130859375</ele>
        <time>2013-06-16T11:38:33Z</time>
      </trkpt>
      <trkpt lat="47.692886218428612" lon="11.51693201623857">
        <ele>795.1474609375</ele>
        <time>2013-06-16T11:38:39Z</time>
      </trkpt>
      <trkpt lat="47.69296090118587" lon="11.517130918800831">
        <ele>795.1474609375</ele>
        <time>2013-06-16T11:38:42Z</time>
      </trkpt>
      <trkpt lat="47.693175561726093" lon="11.517620589584112">
        <ele>795.1474609375</ele>
        <time>2013-06-16T11:38:49Z</time>
      </trkpt>
      <trkpt lat="47.693295674398541" lon="11.517888642847538">
        <ele>793.224853515625</ele>
        <time>2013-06-16T11:38:52Z</time>
      </trkpt>
      <trkpt lat="47.693664729595184" lon="11.518402118235826">
        <ele>791.782958984375</ele>
        <time>2013-06-16T11:38:58Z</time>
      </trkpt>
      <trkpt lat="47.693930184468627" lon="11.518535306677222">
        <ele>790.341064453125</ele>
        <time>2013-06-16T11:39:01Z</time>
      </trkpt>
      <trkpt lat="47.694202931597829" lon="11.518586687743664">
        <ele>788.899169921875</ele>
        <time>2013-06-16T11:39:04Z</time>
      </trkpt>
      <trkpt lat="47.694560838863254" lon="11.51888407766819">
        <ele>788.41845703125</ele>
        <time>2013-06-16T11:39:09Z</time>
      </trkpt>
      <trkpt lat="47.694607442244887" lon="11.518984660506248">
        <ele>788.41845703125</ele>
        <time>2013-06-16T11:39:10Z</time>
      </trkpt>
      <trkpt lat="47.694707019254565" lon="11.519342986866832">
        <ele>786.976318359375</ele>
        <time>2013-06-16T11:39:13Z</time>
      </trkpt>
      <trkpt lat="47.694851607084274" lon="11.519792005419731">
        <ele>784.5732421875</ele>
        <time>2013-06-16T11:39:17Z</time>
      </trkpt>
      <trkpt lat="47.695115134119987" lon="11.520187212154269">
        <ele>784.092529296875</ele>
        <time>2013-06-16T11:39:21Z</time>
      </trkpt>
      <trkpt lat="47.695348653942347" lon="11.520496672019362">
        <ele>783.61181640625</ele>
        <time>2013-06-16T11:39:25Z</time>
      </trkpt>
      <trkpt lat="47.695508496835828" lon="11.520926412194967">
        <ele>781.689208984375</ele>
        <time>2013-06-16T11:39:29Z</time>
      </trkpt>
      <trkpt lat="47.695499360561371" lon="11.521439384669065">
        <ele>782.169921875</ele>
        <time>2013-06-16T11:39:33Z</time>
      </trkpt>
      <trkpt lat="47.695615701377392" lon="11.521731158718467">
        <ele>782.169921875</ele>
        <time>2013-06-16T11:39:36Z</time>
      </trkpt>
      <trkpt lat="47.695792559534311" lon="11.521546756848693">
        <ele>780.247314453125</ele>
        <time>2013-06-16T11:39:40Z</time>
      </trkpt>
      <trkpt lat="47.696185503154993" lon="11.521406108513474">
        <ele>779.28564453125</ele>
        <time>2013-06-16T11:39:45Z</time>
      </trkpt>
      <trkpt lat="47.696290528401732" lon="11.521530579775572">
        <ele>777.36328125</ele>
        <time>2013-06-16T11:39:47Z</time>
      </trkpt>
      <trkpt lat="47.696431176736951" lon="11.52203575707972">
        <ele>774.479248046875</ele>
        <time>2013-06-16T11:39:51Z</time>
      </trkpt>
      <trkpt lat="47.696681711822748" lon="11.522441860288382">
        <ele>773.037353515625</ele>
        <time>2013-06-16T11:39:55Z</time>
      </trkpt>
      <trkpt lat="47.697342708706856" lon="11.522890795022249">
        <ele>772.075927734375</ele>
        <time>2013-06-16T11:40:03Z</time>
      </trkpt>
      <trkpt lat="47.69771184772253" lon="11.522971428930759">
        <ele>771.11474609375</ele>
        <time>2013-06-16T11:40:07Z</time>
      </trkpt>
      <trkpt lat="47.698075203225017" lon="11.522904206067324">
        <ele>769.6728515625</ele>
        <time>2013-06-16T11:40:11Z</time>
      </trkpt>
      <trkpt lat="47.698442665860057" lon="11.522961119189858">
        <ele>768.230712890625</ele>
        <time>2013-06-16T11:40:15Z</time>
      </trkpt>
      <trkpt lat="47.69867735914886" lon="11.523553635925055">
        <ele>766.788818359375</ele>
        <time>2013-06-16T11:40:19Z</time>
      </trkpt>
      <trkpt lat="47.698837537318468" lon="11.523921266198158">
        <ele>765.346923828125</ele>
        <time>2013-06-16T11:40:22Z</time>
      </trkpt>
      <trkpt lat="47.699216147884727" lon="11.524667674675584">
        <ele>763.424072265625</ele>
        <time>2013-06-16T11:40:29Z</time>
      </trkpt>
      <trkpt lat="47.699651755392551" lon="11.525091631338">
        <ele>761.020751953125</ele>
        <time>2013-06-16T11:40:35Z</time>
      </trkpt>
      <trkpt lat="47.699931627139449" lon="11.525246277451515">
        <ele>760.059326171875</ele>
        <time>2013-06-16T11:40:38Z</time>
      </trkpt>
      <trkpt lat="47.700251564383507" lon="11.525735696777701">
        <ele>759.09814453125</ele>
        <time>2013-06-16T11:40:43Z</time>
      </trkpt>
      <trkpt lat="47.700271680951118" lon="11.526150684803724">
        <ele>759.09814453125</ele>
        <time>2013-06-16T11:40:46Z</time>
      </trkpt>
      <trkpt lat="47.700235722586513" lon="11.526426281780005">
        <ele>758.136962890625</ele>
        <time>2013-06-16T11:40:48Z</time>
      </trkpt>
      <trkpt lat="47.70020286552608" lon="11.526793912053108">
        <ele>758.617431640625</ele>
        <time>2013-06-16T11:40:51Z</time>
      </trkpt>
      <trkpt lat="47.700137486681342" lon="11.527152070775628">
        <ele>759.09814453125</ele>
        <time>2013-06-16T11:40:54Z</time>
      </trkpt>
      <trkpt lat="47.700154753401875" lon="11.527499500662088">
        <ele>758.617431640625</ele>
        <time>2013-06-16T11:40:57Z</time>
      </trkpt>
      <trkpt lat="47.700241338461637" lon="11.527692032977939">
        <ele>757.175537109375</ele>
        <time>2013-06-16T11:41:00Z</time>
      </trkpt>
      <trkpt lat="47.700280733406544" lon="11.527698235586286">
        <ele>757.175537109375</ele>
        <time>2013-06-16T11:41:01Z</time>
      </trkpt>
      <trkpt lat="47.700756154954433" lon="11.527479216456413">
        <ele>756.69482421875</ele>
        <time>2013-06-16T11:41:04Z</time>
      </trkpt>
      <trkpt lat="47.700881715863943" lon="11.527458177879453">
        <ele>758.136962890625</ele>
        <time>2013-06-16T11:41:06Z</time>
      </trkpt>
      <trkpt lat="47.701035691425204" lon="11.527495225891471">
        <ele>758.617431640625</ele>
        <time>2013-06-16T11:41:08Z</time>
      </trkpt>
      <trkpt lat="47.70121967419982" lon="11.527608130127192">
        <ele>759.578857421875</ele>
        <time>2013-06-16T11:41:12Z</time>
      </trkpt>
      <trkpt lat="47.701455289497972" lon="11.527875261381269">
        <ele>758.617431640625</ele>
        <time>2013-06-16T11:41:17Z</time>
      </trkpt>
      <trkpt lat="47.701577665284276" lon="11.528079863637686">
        <ele>758.136962890625</ele>
        <time>2013-06-16T11:41:20Z</time>
      </trkpt>
      <trkpt lat="47.701731054112315" lon="11.528252782300115">
        <ele>757.65625</ele>
        <time>2013-06-16T11:41:23Z</time>
      </trkpt>
      <trkpt lat="47.701825853437185" lon="11.528418408706784">
        <ele>756.69482421875</ele>
        <time>2013-06-16T11:41:25Z</time>
      </trkpt>
      <trkpt lat="47.701881509274244" lon="11.528489906340837">
        <ele>756.69482421875</ele>
        <time>2013-06-16T11:41:26Z</time>
      </trkpt>
      <trkpt lat="47.702195914462209" lon="11.528597278520465">
        <ele>757.65625</ele>
        <time>2013-06-16T11:41:30Z</time>
      </trkpt>
      <trkpt lat="47.702637892216444" lon="11.528679924085736">
        <ele>755.2529296875</ele>
        <time>2013-06-16T11:41:37Z</time>
      </trkpt>
      <trkpt lat="47.702708803117275" lon="11.528678582981229">
        <ele>755.2529296875</ele>
        <time>2013-06-16T11:41:38Z</time>
      </trkpt>
      <trkpt lat="47.702778037637472" lon="11.528678247705102">
        <ele>755.2529296875</ele>
        <time>2013-06-16T11:41:39Z</time>
      </trkpt>
      <trkpt lat="47.703091436997056" lon="11.528688054531813">
        <ele>752.849609375</ele>
        <time>2013-06-16T11:41:43Z</time>
      </trkpt>
      <trkpt lat="47.703597033396363" lon="11.529085356742144">
        <ele>751.40771484375</ele>
        <time>2013-06-16T11:41:50Z</time>
      </trkpt>
      <trkpt lat="47.704276386648417" lon="11.529878117144108">
        <ele>750.927001953125</ele>
        <time>2013-06-16T11:42:01Z</time>
      </trkpt>
      <trkpt lat="47.704606046900153" lon="11.529980544000864">
        <ele>750.446533203125</ele>
        <time>2013-06-16T11:42:05Z</time>
      </trkpt>
      <trkpt lat="47.704932522028685" lon="11.529981046915054">
        <ele>748.523681640625</ele>
        <time>2013-06-16T11:42:09Z</time>
      </trkpt>
      <trkpt lat="47.70565889775753" lon="11.530131250619888">
        <ele>748.043212890625</ele>
        <time>2013-06-16T11:42:18Z</time>
      </trkpt>
      <trkpt lat="47.70596181973815" lon="11.530333422124386">
        <ele>743.236328125</ele>
        <time>2013-06-16T11:42:22Z</time>
      </trkpt>
      <trkpt lat="47.706030299887061" lon="11.53041279874742">
        <ele>742.755859375</ele>
        <time>2013-06-16T11:42:23Z</time>
      </trkpt>
      <trkpt lat="47.706096014007926" lon="11.530499551445246">
        <ele>742.275146484375</ele>
        <time>2013-06-16T11:42:24Z</time>
      </trkpt>
      <trkpt lat="47.706360965967178" lon="11.531164655461907">
        <ele>740.8330078125</ele>
        <time>2013-06-16T11:42:30Z</time>
      </trkpt>
      <trkpt lat="47.706369515508413" lon="11.531295496970415">
        <ele>740.8330078125</ele>
        <time>2013-06-16T11:42:31Z</time>
      </trkpt>
      <trkpt lat="47.706412933766842" lon="11.532135866582394">
        <ele>740.3525390625</ele>
        <time>2013-06-16T11:42:38Z</time>
      </trkpt>
      <trkpt lat="47.706431457772851" lon="11.532354047521949">
        <ele>739.39111328125</ele>
        <time>2013-06-16T11:42:40Z</time>
      </trkpt>
      <trkpt lat="47.706460542976856" lon="11.532567702233791">
        <ele>737.94921875</ele>
        <time>2013-06-16T11:42:42Z</time>
      </trkpt>
      <trkpt lat="47.706496920436621" lon="11.532776495441794">
        <ele>737.94921875</ele>
        <time>2013-06-16T11:42:44Z</time>
      </trkpt>
      <trkpt lat="47.70653891377151" lon="11.533085703849792">
        <ele>738.429931640625</ele>
        <time>2013-06-16T11:42:47Z</time>
      </trkpt>
      <trkpt lat="47.706536818295717" lon="11.533409915864468">
        <ele>736.50732421875</ele>
        <time>2013-06-16T11:42:50Z</time>
      </trkpt>
      <trkpt lat="47.706548972055316" lon="11.533731110394001">
        <ele>736.50732421875</ele>
        <time>2013-06-16T11:42:53Z</time>
      </trkpt>
      <trkpt lat="47.706662798300385" lon="11.534334439784288">
        <ele>736.026611328125</ele>
        <time>2013-06-16T11:42:59Z</time>
      </trkpt>
      <trkpt lat="47.706818953156471" lon="11.534893093630672">
        <ele>734.584716796875</ele>
        <time>2013-06-16T11:43:05Z</time>
      </trkpt>
      <trkpt lat="47.70704953931272" lon="11.535685267299414">
        <ele>734.10400390625</ele>
        <time>2013-06-16T11:43:14Z</time>
      </trkpt>
      <trkpt lat="47.707154396921396" lon="11.536242580041289">
        <ele>731.219970703125</ele>
        <time>2013-06-16T11:43:19Z</time>
      </trkpt>
      <trkpt lat="47.707294374704361" lon="11.53688563965261">
        <ele>730.258544921875</ele>
        <time>2013-06-16T11:43:25Z</time>
      </trkpt>
      <trkpt lat="47.707440890371799" lon="11.53753993101418">
        <ele>727.855224609375</ele>
        <time>2013-06-16T11:43:31Z</time>
      </trkpt>
      <trkpt lat="47.707599392160773" lon="11.538282316178083">
        <ele>727.374755859375</ele>
        <time>2013-06-16T11:43:38Z</time>
      </trkpt>
      <trkpt lat="47.707665944471955" lon="11.538604935631156">
        <ele>725.451904296875</ele>
        <time>2013-06-16T11:43:41Z</time>
      </trkpt>
      <trkpt lat="47.707760324701667" lon="11.539131738245487">
        <ele>722.08740234375</ele>
        <time>2013-06-16T11:43:46Z</time>
      </trkpt>
      <trkpt lat="47.70788018591702" lon="11.539745796471834">
        <ele>724.010009765625</ele>
        <time>2013-06-16T11:43:52Z</time>
      </trkpt>
      <trkpt lat="47.707911785691977" lon="11.539837997406721">
        <ele>723.048828125</ele>
        <time>2013-06-16T11:43:53Z</time>
      </trkpt>
      <trkpt lat="47.70814111456275" lon="11.540098171681166">
        <ele>723.529541015625</ele>
        <time>2013-06-16T11:43:57Z</time>
      </trkpt>
      <trkpt lat="47.708423584699631" lon="11.540237311273813">
        <ele>722.568115234375</ele>
        <time>2013-06-16T11:44:01Z</time>
      </trkpt>
      <trkpt lat="47.708671437576413" lon="11.540491031482816">
        <ele>721.126220703125</ele>
        <time>2013-06-16T11:44:05Z</time>
      </trkpt>
      <trkpt lat="47.708729859441519" lon="11.540715917944908">
        <ele>720.164794921875</ele>
        <time>2013-06-16T11:44:07Z</time>
      </trkpt>
      <trkpt lat="47.708924068138003" lon="11.541621750220656">
        <ele>719.20361328125</ele>
        <time>2013-06-16T11:44:15Z</time>
      </trkpt>
      <trkpt lat="47.709085084497929" lon="11.542816674336791">
        <ele>715.8388671875</ele>
        <time>2013-06-16T11:44:25Z</time>
      </trkpt>
      <trkpt lat="47.709180973470211" lon="11.543971449136734">
        <ele>716.80029296875</ele>
        <time>2013-06-16T11:44:35Z</time>
      </trkpt>
      <trkpt lat="47.709203772246838" lon="11.544306976720691">
        <ele>714.87744140625</ele>
        <time>2013-06-16T11:44:38Z</time>
      </trkpt>
      <trkpt lat="47.709216345101595" lon="11.544981971383095">
        <ele>715.358154296875</ele>
        <time>2013-06-16T11:44:44Z</time>
      </trkpt>
      <trkpt lat="47.709229756146669" lon="11.546023087576032">
        <ele>714.396728515625</ele>
        <time>2013-06-16T11:44:53Z</time>
      </trkpt>
      <trkpt lat="47.709265295416117" lon="11.546849794685841">
        <ele>713.435546875</ele>
        <time>2013-06-16T11:45:00Z</time>
      </trkpt>
      <trkpt lat="47.709496049210429" lon="11.548185450956225">
        <ele>710.07080078125</ele>
        <time>2013-06-16T11:45:11Z</time>
      </trkpt>
      <trkpt lat="47.709768712520599" lon="11.549838529899716">
        <ele>707.667724609375</ele>
        <time>2013-06-16T11:45:25Z</time>
      </trkpt>
      <trkpt lat="47.709965351969004" lon="11.550591308623552">
        <ele>706.2255859375</ele>
        <time>2013-06-16T11:45:32Z</time>
      </trkpt>
      <trkpt lat="47.710126033052802" lon="11.551806265488267">
        <ele>704.30322265625</ele>
        <time>2013-06-16T11:45:43Z</time>
      </trkpt>
      <trkpt lat="47.710373131558299" lon="11.552506573498249">
        <ele>703.341796875</ele>
        <time>2013-06-16T11:45:50Z</time>
      </trkpt>
      <trkpt lat="47.710422836244106" lon="11.552592068910599">
        <ele>702.38037109375</ele>
        <time>2013-06-16T11:45:51Z</time>
      </trkpt>
      <trkpt lat="47.710550492629409" lon="11.552994232624769">
        <ele>702.38037109375</ele>
        <time>2013-06-16T11:45:55Z</time>
      </trkpt>
      <trkpt lat="47.710566921159625" lon="11.55322783626616">
        <ele>702.861083984375</ele>
        <time>2013-06-16T11:45:57Z</time>
      </trkpt>
      <trkpt lat="47.710521826520562" lon="11.553696049377322">
        <ele>700.4580078125</ele>
        <time>2013-06-16T11:46:01Z</time>
      </trkpt>
      <trkpt lat="47.710637664422393" lon="11.554259145632386">
        <ele>698.534912109375</ele>
        <time>2013-06-16T11:46:06Z</time>
      </trkpt>
      <trkpt lat="47.710699941962957" lon="11.554493419826031">
        <ele>698.534912109375</ele>
        <time>2013-06-16T11:46:08Z</time>
      </trkpt>
      <trkpt lat="47.710710586979985" lon="11.555021479725838">
        <ele>696.612548828125</ele>
        <time>2013-06-16T11:46:12Z</time>
      </trkpt>
      <trkpt lat="47.710707737132907" lon="11.555457338690758">
        <ele>694.209228515625</ele>
        <time>2013-06-16T11:46:15Z</time>
      </trkpt>
      <trkpt lat="47.710741683840752" lon="11.555860424414277">
        <ele>692.767333984375</ele>
        <time>2013-06-16T11:46:19Z</time>
      </trkpt>
      <trkpt lat="47.710803709924221" lon="11.555890431627631">
        <ele>692.28662109375</ele>
        <time>2013-06-16T11:46:21Z</time>
      </trkpt>
      <trkpt lat="47.711047455668449" lon="11.555960169062018">
        <ele>689.88330078125</ele>
        <time>2013-06-16T11:46:25Z</time>
      </trkpt>
      <trkpt lat="47.71123755723238" lon="11.556008951738477">
        <ele>689.88330078125</ele>
        <time>2013-06-16T11:46:28Z</time>
      </trkpt>
      <trkpt lat="47.711935518309474" lon="11.556023033335805">
        <ele>688.44140625</ele>
        <time>2013-06-16T11:46:38Z</time>
      </trkpt>
      <trkpt lat="47.712460644543171" lon="11.556165358051658">
        <ele>686.518798828125</ele>
        <time>2013-06-16T11:46:45Z</time>
      </trkpt>
      <trkpt lat="47.71260816603899" lon="11.556245237588882">
        <ele>686.518798828125</ele>
        <time>2013-06-16T11:46:47Z</time>
      </trkpt>
      <trkpt lat="47.712995577603579" lon="11.556252781301737">
        <ele>685.557373046875</ele>
        <time>2013-06-16T11:46:52Z</time>
      </trkpt>
      <trkpt lat="47.713063051924109" lon="11.556202825158834">
        <ele>686.0380859375</ele>
        <time>2013-06-16T11:46:53Z</time>
      </trkpt>
      <trkpt lat="47.713568396866322" lon="11.555761350318789">
        <ele>686.0380859375</ele>
        <time>2013-06-16T11:47:02Z</time>
      </trkpt>
      <trkpt lat="47.71384734660387" lon="11.555512323975563">
        <ele>686.0380859375</ele>
        <time>2013-06-16T11:47:09Z</time>
      </trkpt>
      <trkpt lat="47.713930327445269" lon="11.555651379749179">
        <ele>686.999267578125</ele>
        <time>2013-06-16T11:47:14Z</time>
      </trkpt>
      <trkpt lat="47.713947091251612" lon="11.555862436071038">
        <ele>686.0380859375</ele>
        <time>2013-06-16T11:47:19Z</time>
      </trkpt>
      <trkpt lat="47.71390987560153" lon="11.55592848546803">
        <ele>686.0380859375</ele>
        <time>2013-06-16T11:47:23Z</time>
      </trkpt>
      <trkpt lat="47.713840138167143" lon="11.555940052494407">
        <ele>686.0380859375</ele>
        <time>2013-06-16T11:47:25Z</time>
      </trkpt>
      <trkpt lat="47.713666465133429" lon="11.55603745020926">
        <ele>686.518798828125</ele>
        <time>2013-06-16T11:47:30Z</time>
      </trkpt>
      <trkpt lat="47.713474854826927" lon="11.556038791313767">
        <ele>686.0380859375</ele>
        <time>2013-06-16T11:47:35Z</time>
      </trkpt>
      <trkpt lat="47.713509136810899" lon="11.556331235915422">
        <ele>685.557373046875</ele>
        <time>2013-06-16T11:47:39Z</time>
      </trkpt>
      <trkpt lat="47.713553896173835" lon="11.55663751065731">
        <ele>685.076904296875</ele>
        <time>2013-06-16T11:47:43Z</time>
      </trkpt>
      <trkpt lat="47.713677529245615" lon="11.557298758998513">
        <ele>684.59619140625</ele>
        <time>2013-06-16T11:47:51Z</time>
      </trkpt>
      <trkpt lat="47.713806862011552" lon="11.557812821120024">
        <ele>684.59619140625</ele>
        <time>2013-06-16T11:47:57Z</time>
      </trkpt>
      <trkpt lat="47.713939044624567" lon="11.558224875479937">
        <ele>684.115478515625</ele>
        <time>2013-06-16T11:48:02Z</time>
      </trkpt>
      <trkpt lat="47.714121183380485" lon="11.558381114155054">
        <ele>684.115478515625</ele>
        <time>2013-06-16T11:48:06Z</time>
      </trkpt>
      <trkpt lat="47.714516222476959" lon="11.558326883241534">
        <ele>684.115478515625</ele>
        <time>2013-06-16T11:48:13Z</time>
      </trkpt>
      <trkpt lat="47.714744796976447" lon="11.558308778330684">
        <ele>683.634521484375</ele>
        <time>2013-06-16T11:48:17Z</time>
      </trkpt>
      <trkpt lat="47.714859629049897" lon="11.558328391984105">
        <ele>684.115478515625</ele>
        <time>2013-06-16T11:48:19Z</time>
      </trkpt>
      <trkpt lat="47.715120892971754" lon="11.558202998712659">
        <ele>684.115478515625</ele>
        <time>2013-06-16T11:48:24Z</time>
      </trkpt>
      <trkpt lat="47.715448122471571" lon="11.558234179392457">
        <ele>680.750732421875</ele>
        <time>2013-06-16T11:48:30Z</time>
      </trkpt>
      <trkpt lat="47.715516602620482" lon="11.558403074741364">
        <ele>681.7119140625</ele>
        <time>2013-06-16T11:48:32Z</time>
      </trkpt>
      <trkpt lat="47.715674517676234" lon="11.558675654232502">
        <ele>682.192626953125</ele>
        <time>2013-06-16T11:48:36Z</time>
      </trkpt>
      <trkpt lat="47.716176090762019" lon="11.558910263702273">
        <ele>681.2314453125</ele>
        <time>2013-06-16T11:48:45Z</time>
      </trkpt>
      <trkpt lat="47.716287402436137" lon="11.558984443545341">
        <ele>680.750732421875</ele>
        <time>2013-06-16T11:48:47Z</time>
      </trkpt>
      <trkpt lat="47.716487310826778" lon="11.559186279773712">
        <ele>680.750732421875</ele>
        <time>2013-06-16T11:48:51Z</time>
      </trkpt>
      <trkpt lat="47.716686129570007" lon="11.559527507051826">
        <ele>681.7119140625</ele>
        <time>2013-06-16T11:48:56Z</time>
      </trkpt>
      <trkpt lat="47.716831136494875" lon="11.559728672727942">
        <ele>681.7119140625</ele>
        <time>2013-06-16T11:48:59Z</time>
      </trkpt>
      <trkpt lat="47.716929037123919" lon="11.559984907507896">
        <ele>681.7119140625</ele>
        <time>2013-06-16T11:49:03Z</time>
      </trkpt>
      <trkpt lat="47.716951165348291" lon="11.56009797938168">
        <ele>681.2314453125</ele>
        <time>2013-06-16T11:49:05Z</time>
      </trkpt>
      <trkpt lat="47.717044707387686" lon="11.560346335172653">
        <ele>681.2314453125</ele>
        <time>2013-06-16T11:49:09Z</time>
      </trkpt>
      <trkpt lat="47.717075049877167" lon="11.560498718172312">
        <ele>680.27001953125</ele>
        <time>2013-06-16T11:49:11Z</time>
      </trkpt>
      <trkpt lat="47.71716414950788" lon="11.560713043436408">
        <ele>681.2314453125</ele>
        <time>2013-06-16T11:49:14Z</time>
      </trkpt>
      <trkpt lat="47.717312760651112" lon="11.560898199677467">
        <ele>680.750732421875</ele>
        <time>2013-06-16T11:49:17Z</time>
      </trkpt>
      <trkpt lat="47.717606797814369" lon="11.561321653425694">
        <ele>680.27001953125</ele>
        <time>2013-06-16T11:49:23Z</time>
      </trkpt>
      <trkpt lat="47.717715762555599" lon="11.561716105788946">
        <ele>680.750732421875</ele>
        <time>2013-06-16T11:49:28Z</time>
      </trkpt>
      <trkpt lat="47.71774317137897" lon="11.561785507947206">
        <ele>681.2314453125</ele>
        <time>2013-06-16T11:49:29Z</time>
      </trkpt>
      <trkpt lat="47.718058247119188" lon="11.562047190964222">
        <ele>679.30859375</ele>
        <time>2013-06-16T11:49:35Z</time>
      </trkpt>
      <trkpt lat="47.718185232952237" lon="11.562220947816968">
        <ele>680.27001953125</ele>
        <time>2013-06-16T11:49:38Z</time>
      </trkpt>
      <trkpt lat="47.718497375026345" lon="11.562621686607599">
        <ele>679.789306640625</ele>
        <time>2013-06-16T11:49:45Z</time>
      </trkpt>
      <trkpt lat="47.718621259555221" lon="11.562697291374207">
        <ele>678.828125</ele>
        <time>2013-06-16T11:49:47Z</time>
      </trkpt>
      <trkpt lat="47.719125347211957" lon="11.56281472183764">
        <ele>679.789306640625</ele>
        <time>2013-06-16T11:49:55Z</time>
      </trkpt>
      <trkpt lat="47.719328524544835" lon="11.562867276370525">
        <ele>678.347412109375</ele>
        <time>2013-06-16T11:49:58Z</time>
      </trkpt>
      <trkpt lat="47.719391472637653" lon="11.562892002984881">
        <ele>679.30859375</ele>
        <time>2013-06-16T11:49:59Z</time>
      </trkpt>
      <trkpt lat="47.720020115375519" lon="11.562929805368185">
        <ele>678.828125</ele>
        <time>2013-06-16T11:50:09Z</time>
      </trkpt>
      <trkpt lat="47.720442228019238" lon="11.563028963282704">
        <ele>677.86669921875</ele>
        <time>2013-06-16T11:50:16Z</time>
      </trkpt>
      <trkpt lat="47.720805834978819" lon="11.562883956357837">
        <ele>678.347412109375</ele>
        <time>2013-06-16T11:50:22Z</time>
      </trkpt>
      <trkpt lat="47.721016556024551" lon="11.562676671892405">
        <ele>678.347412109375</ele>
        <time>2013-06-16T11:50:26Z</time>
      </trkpt>
      <trkpt lat="47.721185954287648" lon="11.562577933073044">
        <ele>677.86669921875</ele>
        <time>2013-06-16T11:50:29Z</time>
      </trkpt>
      <trkpt lat="47.721433974802494" lon="11.562579274177551">
        <ele>678.347412109375</ele>
        <time>2013-06-16T11:50:33Z</time>
      </trkpt>
      <trkpt lat="47.721494073048234" lon="11.562615903094411">
        <ele>678.347412109375</ele>
        <time>2013-06-16T11:50:34Z</time>
      </trkpt>
      <trkpt lat="47.721666321158409" lon="11.562746493145823">
        <ele>678.347412109375</ele>
        <time>2013-06-16T11:50:37Z</time>
      </trkpt>
      <trkpt lat="47.721983911469579" lon="11.562813883647323">
        <ele>678.347412109375</ele>
        <time>2013-06-16T11:50:42Z</time>
      </trkpt>
      <trkpt lat="47.722116177901626" lon="11.562780104577541">
        <ele>678.347412109375</ele>
        <time>2013-06-16T11:50:44Z</time>
      </trkpt>
      <trkpt lat="47.722246013581753" lon="11.562777925282717">
        <ele>677.86669921875</ele>
        <time>2013-06-16T11:50:46Z</time>
      </trkpt>
      <trkpt lat="47.72254197858274" lon="11.56260316260159">
        <ele>676.4248046875</ele>
        <time>2013-06-16T11:50:51Z</time>
      </trkpt>
      <trkpt lat="47.722583385184407" lon="11.562510374933481">
        <ele>676.4248046875</ele>
        <time>2013-06-16T11:50:52Z</time>
      </trkpt>
      <trkpt lat="47.722687488421798" lon="11.562238382175565">
        <ele>676.4248046875</ele>
        <time>2013-06-16T11:50:55Z</time>
      </trkpt>
      <trkpt lat="47.722968198359013" lon="11.562201166525483">
        <ele>677.38623046875</ele>
        <time>2013-06-16T11:51:00Z</time>
      </trkpt>
      <trkpt lat="47.723258463665843" lon="11.562102092429996">
        <ele>677.38623046875</ele>
        <time>2013-06-16T11:51:05Z</time>
      </trkpt>
      <trkpt lat="47.723791468888521" lon="11.561413770541549">
        <ele>675.944091796875</ele>
        <time>2013-06-16T11:51:16Z</time>
      </trkpt>
      <trkpt lat="47.724149627611041" lon="11.561110178008676">
        <ele>677.38623046875</ele>
        <time>2013-06-16T11:51:23Z</time>
      </trkpt>
      <trkpt lat="47.724447688087821" lon="11.560904486104846">
        <ele>676.4248046875</ele>
        <time>2013-06-16T11:51:28Z</time>
      </trkpt>
      <trkpt lat="47.724599065259099" lon="11.560728214681149">
        <ele>676.4248046875</ele>
        <time>2013-06-16T11:51:31Z</time>
      </trkpt>
      <trkpt lat="47.725097453221679" lon="11.560545992106199">
        <ele>676.4248046875</ele>
        <time>2013-06-16T11:51:39Z</time>
      </trkpt>
      <trkpt lat="47.725286716595292" lon="11.560515398159623">
        <ele>676.4248046875</ele>
        <time>2013-06-16T11:51:42Z</time>
      </trkpt>
      <trkpt lat="47.725600283592939" lon="11.560577843338251">
        <ele>675.46337890625</ele>
        <time>2013-06-16T11:51:47Z</time>
      </trkpt>
      <trkpt lat="47.725822236388922" lon="11.560804909095168">
        <ele>675.944091796875</ele>
        <time>2013-06-16T11:51:51Z</time>
      </trkpt>
      <trkpt lat="47.726309224963188" lon="11.561081260442734">
        <ele>675.46337890625</ele>
        <time>2013-06-16T11:51:59Z</time>
      </trkpt>
      <trkpt lat="47.726628072559834" lon="11.561346128582954">
        <ele>675.944091796875</ele>
        <time>2013-06-16T11:52:05Z</time>
      </trkpt>
      <trkpt lat="47.726951027289033" lon="11.561723984777927">
        <ele>675.46337890625</ele>
        <time>2013-06-16T11:52:12Z</time>
      </trkpt>
      <trkpt lat="47.727159988135099" lon="11.561970831826329">
        <ele>674.98291015625</ele>
        <time>2013-06-16T11:52:16Z</time>
      </trkpt>
      <trkpt lat="47.727318238466978" lon="11.562254726886749">
        <ele>674.98291015625</ele>
        <time>2013-06-16T11:52:20Z</time>
      </trkpt>
      <trkpt lat="47.727571539580822" lon="11.562691340222955">
        <ele>674.021484375</ele>
        <time>2013-06-16T11:52:26Z</time>
      </trkpt>
      <trkpt lat="47.727699698880315" lon="11.563194254413247">
        <ele>674.021484375</ele>
        <time>2013-06-16T11:52:32Z</time>
      </trkpt>
      <trkpt lat="47.727873874828219" lon="11.563452836126089">
        <ele>674.021484375</ele>
        <time>2013-06-16T11:52:36Z</time>
      </trkpt>
      <trkpt lat="47.727949731051922" lon="11.563483094796538">
        <ele>674.502197265625</ele>
        <time>2013-06-16T11:52:37Z</time>
      </trkpt>
      <trkpt lat="47.728112423792481" lon="11.563516957685351">
        <ele>674.98291015625</ele>
        <time>2013-06-16T11:52:39Z</time>
      </trkpt>
      <trkpt lat="47.728247456252575" lon="11.56358627602458">
        <ele>674.021484375</ele>
        <time>2013-06-16T11:52:41Z</time>
      </trkpt>
      <trkpt lat="47.728489441797137" lon="11.563919624313712">
        <ele>673.541015625</ele>
        <time>2013-06-16T11:52:46Z</time>
      </trkpt>
      <trkpt lat="47.728745425119996" lon="11.564188515767455">
        <ele>674.021484375</ele>
        <time>2013-06-16T11:52:51Z</time>
      </trkpt>
      <trkpt lat="47.729230653494596" lon="11.564437290653586">
        <ele>673.541015625</ele>
        <time>2013-06-16T11:52:59Z</time>
      </trkpt>
      <trkpt lat="47.729905648157001" lon="11.564574167132378">
        <ele>673.541015625</ele>
        <time>2013-06-16T11:53:10Z</time>
      </trkpt>
      <trkpt lat="47.730329018086195" lon="11.564714983105659">
        <ele>672.098876953125</ele>
        <time>2013-06-16T11:53:17Z</time>
      </trkpt>
      <trkpt lat="47.730579217895865" lon="11.564695537090302">
        <ele>672.57958984375</ele>
        <time>2013-06-16T11:53:21Z</time>
      </trkpt>
      <trkpt lat="47.731105349957943" lon="11.564427902922034">
        <ele>673.060302734375</ele>
        <time>2013-06-16T11:53:30Z</time>
      </trkpt>
      <trkpt lat="47.731285393238068" lon="11.564403511583805">
        <ele>672.57958984375</ele>
        <time>2013-06-16T11:53:33Z</time>
      </trkpt>
      <trkpt lat="47.731629135087132" lon="11.564268143847585">
        <ele>670.656982421875</ele>
        <time>2013-06-16T11:53:39Z</time>
      </trkpt>
      <trkpt lat="47.731682946905494" lon="11.56422003172338">
        <ele>670.656982421875</ele>
        <time>2013-06-16T11:53:40Z</time>
      </trkpt>
      <trkpt lat="47.732031214982271" lon="11.563839660957456">
        <ele>671.6181640625</ele>
        <time>2013-06-16T11:53:47Z</time>
      </trkpt>
      <trkpt lat="47.73237269371748" lon="11.563605386763811">
        <ele>670.17626953125</ele>
        <time>2013-06-16T11:53:53Z</time>
      </trkpt>
      <trkpt lat="47.732434971258044" lon="11.563579235225916">
        <ele>670.17626953125</ele>
        <time>2013-06-16T11:53:54Z</time>
      </trkpt>
      <trkpt lat="47.732683075591922" lon="11.56351544894278">
        <ele>670.656982421875</ele>
        <time>2013-06-16T11:53:58Z</time>
      </trkpt>
      <trkpt lat="47.733258325606585" lon="11.563155278563499">
        <ele>671.1376953125</ele>
        <time>2013-06-16T11:54:08Z</time>
      </trkpt>
      <trkpt lat="47.733463095501065" lon="11.562962913885713">
        <ele>672.098876953125</ele>
        <time>2013-06-16T11:54:12Z</time>
      </trkpt>
      <trkpt lat="47.733580777421594" lon="11.562750432640314">
        <ele>670.656982421875</ele>
        <time>2013-06-16T11:54:15Z</time>
      </trkpt>
      <trkpt lat="47.733862828463316" lon="11.562271909788251">
        <ele>671.1376953125</ele>
        <time>2013-06-16T11:54:22Z</time>
      </trkpt>
      <trkpt lat="47.733995513990521" lon="11.562083987519145">
        <ele>671.1376953125</ele>
        <time>2013-06-16T11:54:25Z</time>
      </trkpt>
      <trkpt lat="47.734310338273644" lon="11.561684422194958">
        <ele>670.656982421875</ele>
        <time>2013-06-16T11:54:32Z</time>
      </trkpt>
      <trkpt lat="47.734406311064959" lon="11.561604710295796">
        <ele>670.656982421875</ele>
        <time>2013-06-16T11:54:34Z</time>
      </trkpt>
      <trkpt lat="47.734754495322704" lon="11.561248227953911">
        <ele>670.656982421875</ele>
        <time>2013-06-16T11:54:41Z</time>
      </trkpt>
      <trkpt lat="47.734852731227875" lon="11.5611572843045">
        <ele>670.656982421875</ele>
        <time>2013-06-16T11:54:43Z</time>
      </trkpt>
      <trkpt lat="47.735154898837209" lon="11.560908425599337">
        <ele>669.69580078125</ele>
        <time>2013-06-16T11:54:49Z</time>
      </trkpt>
      <trkpt lat="47.735354052856565" lon="11.560766855254769">
        <ele>669.215087890625</ele>
        <time>2013-06-16T11:54:53Z</time>
      </trkpt>
      <trkpt lat="47.735748672857881" lon="11.560523696243763">
        <ele>669.69580078125</ele>
        <time>2013-06-16T11:55:00Z</time>
      </trkpt>
      <trkpt lat="47.735869456082582" lon="11.560479439795017">
        <ele>668.253662109375</ele>
        <time>2013-06-16T11:55:02Z</time>
      </trkpt>
      <trkpt lat="47.736261561512947" lon="11.560401739552617">
        <ele>669.69580078125</ele>
        <time>2013-06-16T11:55:08Z</time>
      </trkpt>
      <trkpt lat="47.736644195392728" lon="11.56036670319736">
        <ele>668.734375</ele>
        <time>2013-06-16T11:55:14Z</time>
      </trkpt>
      <trkpt lat="47.736774450168014" lon="11.560356644913554">
        <ele>669.69580078125</ele>
        <time>2013-06-16T11:55:16Z</time>
      </trkpt>
      <trkpt lat="47.736945524811745" lon="11.560386652126908">
        <ele>669.69580078125</ele>
        <time>2013-06-16T11:55:20Z</time>
      </trkpt>
      <trkpt lat="47.737124478444457" lon="11.560382209718227">
        <ele>668.253662109375</ele>
        <time>2013-06-16T11:55:23Z</time>
      </trkpt>
      <trkpt lat="47.737184660509229" lon="11.560384389013052">
        <ele>668.734375</ele>
        <time>2013-06-16T11:55:24Z</time>
      </trkpt>
      <trkpt lat="47.737546004354954" lon="11.560466615483165">
        <ele>668.734375</ele>
        <time>2013-06-16T11:55:30Z</time>
      </trkpt>
      <trkpt lat="47.737675253301859" lon="11.560509111732244">
        <ele>668.253662109375</ele>
        <time>2013-06-16T11:55:32Z</time>
      </trkpt>
      <trkpt lat="47.738175904378295" lon="11.560779428109527">
        <ele>667.772705078125</ele>
        <time>2013-06-16T11:55:40Z</time>
      </trkpt>
      <trkpt lat="47.738547893241048" lon="11.561042619869113">
        <ele>667.772705078125</ele>
        <time>2013-06-16T11:55:46Z</time>
      </trkpt>
      <trkpt lat="47.738825920969248" lon="11.561325173825026">
        <ele>665.850341796875</ele>
        <time>2013-06-16T11:55:51Z</time>
      </trkpt>
      <trkpt lat="47.739003784954548" lon="11.561616780236363">
        <ele>666.330810546875</ele>
        <time>2013-06-16T11:55:55Z</time>
      </trkpt>
      <trkpt lat="47.739423299208283" lon="11.56213603913784">
        <ele>666.8115234375</ele>
        <time>2013-06-16T11:56:03Z</time>
      </trkpt>
      <trkpt lat="47.739686071872711" lon="11.562770716845989">
        <ele>666.8115234375</ele>
        <time>2013-06-16T11:56:11Z</time>
      </trkpt>
      <trkpt lat="47.739832084625959" lon="11.562945730984211">
        <ele>665.850341796875</ele>
        <time>2013-06-16T11:56:14Z</time>
      </trkpt>
      <trkpt lat="47.740114387124777" lon="11.563151339069009">
        <ele>665.850341796875</ele>
        <time>2013-06-16T11:56:20Z</time>
      </trkpt>
      <trkpt lat="47.740366263315082" lon="11.563403969630599">
        <ele>665.850341796875</ele>
        <time>2013-06-16T11:56:25Z</time>
      </trkpt>
      <trkpt lat="47.740814778953791" lon="11.563948793336749">
        <ele>665.36962890625</ele>
        <time>2013-06-16T11:56:34Z</time>
      </trkpt>
      <trkpt lat="47.741160616278648" lon="11.564192287623882">
        <ele>665.36962890625</ele>
        <time>2013-06-16T11:56:40Z</time>
      </trkpt>
      <trkpt lat="47.741626985371113" lon="11.564454641193151">
        <ele>664.888916015625</ele>
        <time>2013-06-16T11:56:48Z</time>
      </trkpt>
      <trkpt lat="47.741848099976778" lon="11.564669301733375">
        <ele>664.888916015625</ele>
        <time>2013-06-16T11:56:52Z</time>
      </trkpt>
      <trkpt lat="47.742185220122337" lon="11.564760413020849">
        <ele>663.447021484375</ele>
        <time>2013-06-16T11:56:57Z</time>
      </trkpt>
      <trkpt lat="47.742895670235157" lon="11.564544159919024">
        <ele>662.96630859375</ele>
        <time>2013-06-16T11:57:08Z</time>
      </trkpt>
      <trkpt lat="47.743343263864517" lon="11.564337965101004">
        <ele>662.485595703125</ele>
        <time>2013-06-16T11:57:16Z</time>
      </trkpt>
      <trkpt lat="47.743508974090219" lon="11.564226653426886">
        <ele>662.96630859375</ele>
        <time>2013-06-16T11:57:19Z</time>
      </trkpt>
      <trkpt lat="47.743998896330595" lon="11.564088687300682">
        <ele>662.485595703125</ele>
        <time>2013-06-16T11:57:27Z</time>
      </trkpt>
      <trkpt lat="47.744238451123238" lon="11.563950888812542">
        <ele>662.96630859375</ele>
        <time>2013-06-16T11:57:31Z</time>
      </trkpt>
      <trkpt lat="47.744481358677149" lon="11.563516538590193">
        <ele>662.96630859375</ele>
        <time>2013-06-16T11:57:37Z</time>
      </trkpt>
      <trkpt lat="47.744709262624383" lon="11.563005242496729">
        <ele>662.96630859375</ele>
        <time>2013-06-16T11:57:44Z</time>
      </trkpt>
      <trkpt lat="47.744769193232059" lon="11.562698381021619">
        <ele>663.447021484375</ele>
        <time>2013-06-16T11:57:48Z</time>
      </trkpt>
      <trkpt lat="47.744911853224039" lon="11.562441056594253">
        <ele>661.5244140625</ele>
        <time>2013-06-16T11:57:52Z</time>
      </trkpt>
      <trkpt lat="47.744969101622701" lon="11.56240870244801">
        <ele>662.005126953125</ele>
        <time>2013-06-16T11:57:53Z</time>
      </trkpt>
      <trkpt lat="47.745079156011343" lon="11.56235639937222">
        <ele>662.96630859375</ele>
        <time>2013-06-16T11:57:55Z</time>
      </trkpt>
      <trkpt lat="47.745333043858409" lon="11.562330750748515">
        <ele>663.447021484375</ele>
        <time>2013-06-16T11:57:59Z</time>
      </trkpt>
      <trkpt lat="47.745654992759228" lon="11.562197227030993">
        <ele>662.96630859375</ele>
        <time>2013-06-16T11:58:05Z</time>
      </trkpt>
      <trkpt lat="47.745839646086097" lon="11.562080970034003">
        <ele>662.005126953125</ele>
        <time>2013-06-16T11:58:08Z</time>
      </trkpt>
      <trkpt lat="47.746120858937502" lon="11.56210913322866">
        <ele>662.96630859375</ele>
        <time>2013-06-16T11:58:13Z</time>
      </trkpt>
      <trkpt lat="47.746393354609609" lon="11.562054818496108">
        <ele>661.5244140625</ele>
        <time>2013-06-16T11:58:17Z</time>
      </trkpt>
      <trkpt lat="47.746429229155183" lon="11.562024727463722">
        <ele>662.005126953125</ele>
        <time>2013-06-16T11:58:18Z</time>
      </trkpt>
      <trkpt lat="47.746542217209935" lon="11.561914253979921">
        <ele>661.5244140625</ele>
        <time>2013-06-16T11:58:21Z</time>
      </trkpt>
      <trkpt lat="47.746851677075028" lon="11.561658270657063">
        <ele>661.5244140625</ele>
        <time>2013-06-16T11:58:27Z</time>
      </trkpt>
      <trkpt lat="47.747274208813906" lon="11.561707137152553">
        <ele>661.5244140625</ele>
        <time>2013-06-16T11:58:33Z</time>
      </trkpt>
      <trkpt lat="47.747405720874667" lon="11.561661707237363">
        <ele>661.043701171875</ele>
        <time>2013-06-16T11:58:35Z</time>
      </trkpt>
      <trkpt lat="47.747583417221904" lon="11.561594819650054">
        <ele>661.043701171875</ele>
        <time>2013-06-16T11:58:38Z</time>
      </trkpt>
      <trkpt lat="47.747831521555781" lon="11.561459368094802">
        <ele>661.5244140625</ele>
        <time>2013-06-16T11:58:42Z</time>
      </trkpt>
      <trkpt lat="47.748087169602513" lon="11.561383763328195">
        <ele>661.043701171875</ele>
        <time>2013-06-16T11:58:46Z</time>
      </trkpt>
      <trkpt lat="47.748324796557426" lon="11.561237750574946">
        <ele>662.485595703125</ele>
        <time>2013-06-16T11:58:50Z</time>
      </trkpt>
      <trkpt lat="47.748640794306993" lon="11.560924351215363">
        <ele>661.043701171875</ele>
        <time>2013-06-16T11:58:56Z</time>
      </trkpt>
      <trkpt lat="47.748842462897301" lon="11.560867354273796">
        <ele>660.082275390625</ele>
        <time>2013-06-16T11:58:59Z</time>
      </trkpt>
      <trkpt lat="47.749040443450212" lon="11.560654202476144">
        <ele>660.082275390625</ele>
        <time>2013-06-16T11:59:03Z</time>
      </trkpt>
      <trkpt lat="47.749154018238187" lon="11.56031833961606">
        <ele>660.082275390625</ele>
        <time>2013-06-16T11:59:07Z</time>
      </trkpt>
      <trkpt lat="47.749417712911963" lon="11.560049280524254">
        <ele>659.601806640625</ele>
        <time>2013-06-16T11:59:12Z</time>
      </trkpt>
      <trkpt lat="47.749607730656862" lon="11.559811318293214">
        <ele>659.601806640625</ele>
        <time>2013-06-16T11:59:16Z</time>
      </trkpt>
      <trkpt lat="47.749772937968373" lon="11.559681985527277">
        <ele>659.12109375</ele>
        <time>2013-06-16T11:59:19Z</time>
      </trkpt>
      <trkpt lat="47.750055072829127" lon="11.559677626937628">
        <ele>659.601806640625</ele>
        <time>2013-06-16T11:59:24Z</time>
      </trkpt>
      <trkpt lat="47.750315079465508" lon="11.559843672439456">
        <ele>658.640380859375</ele>
        <time>2013-06-16T11:59:28Z</time>
      </trkpt>
      <trkpt lat="47.750553544610739" lon="11.559825902804732">
        <ele>659.12109375</ele>
        <time>2013-06-16T11:59:32Z</time>
      </trkpt>
      <trkpt lat="47.750940369442105" lon="11.559439077973366">
        <ele>660.082275390625</ele>
        <time>2013-06-16T11:59:39Z</time>
      </trkpt>
      <trkpt lat="47.751164585351944" lon="11.559078488498926">
        <ele>658.640380859375</ele>
        <time>2013-06-16T11:59:44Z</time>
      </trkpt>
      <trkpt lat="47.751395674422383" lon="11.558731142431498">
        <ele>659.601806640625</ele>
        <time>2013-06-16T11:59:49Z</time>
      </trkpt>
      <trkpt lat="47.751518720760942" lon="11.558532239869237">
        <ele>658.640380859375</ele>
        <time>2013-06-16T11:59:52Z</time>
      </trkpt>
      <trkpt lat="47.751692896708846" lon="11.558284135535359">
        <ele>659.12109375</ele>
        <time>2013-06-16T11:59:56Z</time>
      </trkpt>
      <trkpt lat="47.751835389062762" lon="11.55804424546659">
        <ele>658.640380859375</ele>
        <time>2013-06-16T12:00:00Z</time>
      </trkpt>
      <trkpt lat="47.752159517258406" lon="11.557548539713025">
        <ele>659.601806640625</ele>
        <time>2013-06-16T12:00:08Z</time>
      </trkpt>
      <trkpt lat="47.752343583852053" lon="11.557343769818544">
        <ele>659.601806640625</ele>
        <time>2013-06-16T12:00:12Z</time>
      </trkpt>
      <trkpt lat="47.752515245229006" lon="11.557102873921394">
        <ele>659.12109375</ele>
        <time>2013-06-16T12:00:17Z</time>
      </trkpt>
      <trkpt lat="47.752813640981913" lon="11.5568867046386">
        <ele>658.159912109375</ele>
        <time>2013-06-16T12:00:25Z</time>
      </trkpt>
      <trkpt lat="47.752903830260038" lon="11.556806908920407">
        <ele>658.640380859375</ele>
        <time>2013-06-16T12:00:27Z</time>
      </trkpt>
      <trkpt lat="47.753075575456023" lon="11.556723928079009">
        <ele>658.640380859375</ele>
        <time>2013-06-16T12:00:30Z</time>
      </trkpt>
      <trkpt lat="47.753308340907097" lon="11.556535335257649">
        <ele>657.67919921875</ele>
        <time>2013-06-16T12:00:34Z</time>
      </trkpt>
      <trkpt lat="47.753620482981205" lon="11.556372055783868">
        <ele>658.159912109375</ele>
        <time>2013-06-16T12:00:40Z</time>
      </trkpt>
      <trkpt lat="47.753954166546464" lon="11.556227803230286">
        <ele>657.67919921875</ele>
        <time>2013-06-16T12:00:45Z</time>
      </trkpt>
      <trkpt lat="47.7544064540416" lon="11.556014819070697">
        <ele>659.12109375</ele>
        <time>2013-06-16T12:00:51Z</time>
      </trkpt>
      <trkpt lat="47.754820687696338" lon="11.555947428569198">
        <ele>657.198486328125</ele>
        <time>2013-06-16T12:00:58Z</time>
      </trkpt>
      <trkpt lat="47.755280183628201" lon="11.55600517988205">
        <ele>659.601806640625</ele>
        <time>2013-06-16T12:01:06Z</time>
      </trkpt>
      <trkpt lat="47.755600456148386" lon="11.556013142690063">
        <ele>658.640380859375</ele>
        <time>2013-06-16T12:01:11Z</time>
      </trkpt>
      <trkpt lat="47.755828276276588" lon="11.556100230664015">
        <ele>658.640380859375</ele>
        <time>2013-06-16T12:01:15Z</time>
      </trkpt>
      <trkpt lat="47.756056431680918" lon="11.55622411519289">
        <ele>658.640380859375</ele>
        <time>2013-06-16T12:01:19Z</time>
      </trkpt>
      <trkpt lat="47.756507126614451" lon="11.556478925049305">
        <ele>657.198486328125</ele>
        <time>2013-06-16T12:01:27Z</time>
      </trkpt>
      <trkpt lat="47.7568569034338" lon="11.556563666090369">
        <ele>657.67919921875</ele>
        <time>2013-06-16T12:01:33Z</time>
      </trkpt>
      <trkpt lat="47.757213301956654" lon="11.556592332199216">
        <ele>657.198486328125</ele>
        <time>2013-06-16T12:01:39Z</time>
      </trkpt>
      <trkpt lat="47.7574198320508" lon="11.556683946400881">
        <ele>656.7177734375</ele>
        <time>2013-06-16T12:01:43Z</time>
      </trkpt>
      <trkpt lat="47.757516643032432" lon="11.556716719642282">
        <ele>655.756591796875</ele>
        <time>2013-06-16T12:01:45Z</time>
      </trkpt>
      <trkpt lat="47.757687214761972" lon="11.556730046868324">
        <ele>657.198486328125</ele>
        <time>2013-06-16T12:01:48Z</time>
      </trkpt>
      <trkpt lat="47.757830293849111" lon="11.556744379922748">
        <ele>657.67919921875</ele>
        <time>2013-06-16T12:01:52Z</time>
      </trkpt>
      <trkpt lat="47.757855104282498" lon="11.556741613894701">
        <ele>657.67919921875</ele>
        <time>2013-06-16T12:01:54Z</time>
      </trkpt>
      <trkpt lat="47.757947724312544" lon="11.556757036596537">
        <ele>656.7177734375</ele>
        <time>2013-06-16T12:01:58Z</time>
      </trkpt>
      <trkpt lat="47.758105974644423" lon="11.55677380040288">
        <ele>657.198486328125</ele>
        <time>2013-06-16T12:02:01Z</time>
      </trkpt>
      <trkpt lat="47.758493470028043" lon="11.556745888665318">
        <ele>657.198486328125</ele>
        <time>2013-06-16T12:02:08Z</time>
      </trkpt>
      <trkpt lat="47.75854610837996" lon="11.55673767440021">
        <ele>657.67919921875</ele>
        <time>2013-06-16T12:02:09Z</time>
      </trkpt>
      <trkpt lat="47.758759008720517" lon="11.556623512879014">
        <ele>657.198486328125</ele>
        <time>2013-06-16T12:02:13Z</time>
      </trkpt>
      <trkpt lat="47.759117167443037" lon="11.556610520929098">
        <ele>657.67919921875</ele>
        <time>2013-06-16T12:02:19Z</time>
      </trkpt>
      <trkpt lat="47.759351693093777" lon="11.556557044386864">
        <ele>656.7177734375</ele>
        <time>2013-06-16T12:02:23Z</time>
      </trkpt>
      <trkpt lat="47.759693255648017" lon="11.556352274492383">
        <ele>656.7177734375</ele>
        <time>2013-06-16T12:02:30Z</time>
      </trkpt>
      <trkpt lat="47.759981928393245" lon="11.55604382045567">
        <ele>657.198486328125</ele>
        <time>2013-06-16T12:02:37Z</time>
      </trkpt>
      <trkpt lat="47.760178986936808" lon="11.555964527651668">
        <ele>657.198486328125</ele>
        <time>2013-06-16T12:02:43Z</time>
      </trkpt>
      <trkpt lat="47.760255932807922" lon="11.555803930386901">
        <ele>656.7177734375</ele>
        <time>2013-06-16T12:02:48Z</time>
      </trkpt>
      <trkpt lat="47.760312762111425" lon="11.55547603033483">
        <ele>656.237060546875</ele>
        <time>2013-06-16T12:02:54Z</time>
      </trkpt>
      <trkpt lat="47.760536978021264" lon="11.55522289685905">
        <ele>657.198486328125</ele>
        <time>2013-06-16T12:03:02Z</time>
      </trkpt>
      <trkpt lat="47.760611744597554" lon="11.5553411655128">
        <ele>656.237060546875</ele>
        <time>2013-06-16T12:03:07Z</time>
      </trkpt>
      <trkpt lat="47.760700257495046" lon="11.555515928193927">
        <ele>657.198486328125</ele>
        <time>2013-06-16T12:03:11Z</time>
      </trkpt>
      <trkpt lat="47.760769240558147" lon="11.555552389472723">
        <ele>656.237060546875</ele>
        <time>2013-06-16T12:03:14Z</time>
      </trkpt>
      <trkpt lat="47.760842079296708" lon="11.55553512275219">
        <ele>655.756591796875</ele>
        <time>2013-06-16T12:03:16Z</time>
      </trkpt>
      <trkpt lat="47.761061685159802" lon="11.555230692028999">
        <ele>655.756591796875</ele>
        <time>2013-06-16T12:03:22Z</time>
      </trkpt>
      <trkpt lat="47.761147348210216" lon="11.5551115013659">
        <ele>655.27587890625</ele>
        <time>2013-06-16T12:03:24Z</time>
      </trkpt>
      <trkpt lat="47.761506596580148" lon="11.554468693211675">
        <ele>655.27587890625</ele>
        <time>2013-06-16T12:03:34Z</time>
      </trkpt>
      <trkpt lat="47.761541213840246" lon="11.554401889443398">
        <ele>654.795166015625</ele>
        <time>2013-06-16T12:03:35Z</time>
      </trkpt>
      <trkpt lat="47.761657806113362" lon="11.554236179217696">
        <ele>654.795166015625</ele>
        <time>2013-06-16T12:03:38Z</time>
      </trkpt>
      <trkpt lat="47.761971456930041" lon="11.55371306464076">
        <ele>654.795166015625</ele>
        <time>2013-06-16T12:03:46Z</time>
      </trkpt>
      <trkpt lat="47.7621463034302" lon="11.553481724113226">
        <ele>654.795166015625</ele>
        <time>2013-06-16T12:03:50Z</time>
      </trkpt>
      <trkpt lat="47.762266667559743" lon="11.553213503211737">
        <ele>653.833984375</ele>
        <time>2013-06-16T12:03:54Z</time>
      </trkpt>
      <trkpt lat="47.762398682534695" lon="11.552887782454491">
        <ele>653.353271484375</ele>
        <time>2013-06-16T12:03:59Z</time>
      </trkpt>
      <trkpt lat="47.762494571506977" lon="11.552694831043482">
        <ele>654.314697265625</ele>
        <time>2013-06-16T12:04:02Z</time>
      </trkpt>
      <trkpt lat="47.76256020180881" lon="11.552555020898581">
        <ele>652.87255859375</ele>
        <time>2013-06-16T12:04:04Z</time>
      </trkpt>
      <trkpt lat="47.762826159596443" lon="11.55199158936739">
        <ele>653.353271484375</ele>
        <time>2013-06-16T12:04:12Z</time>
      </trkpt>
      <trkpt lat="47.763091949746013" lon="11.551244342699647">
        <ele>652.391845703125</ele>
        <time>2013-06-16T12:04:22Z</time>
      </trkpt>
      <trkpt lat="47.763277944177389" lon="11.550454096868634">
        <ele>652.87255859375</ele>
        <time>2013-06-16T12:04:32Z</time>
      </trkpt>
      <trkpt lat="47.763350363820791" lon="11.550151091068983">
        <ele>653.833984375</ele>
        <time>2013-06-16T12:04:36Z</time>
      </trkpt>
      <trkpt lat="47.763410713523626" lon="11.549760913476348">
        <ele>653.353271484375</ele>
        <time>2013-06-16T12:04:41Z</time>
      </trkpt>
      <trkpt lat="47.763582123443484" lon="11.549139814451337">
        <ele>652.87255859375</ele>
        <time>2013-06-16T12:04:49Z</time>
      </trkpt>
      <trkpt lat="47.763633253052831" lon="11.54880378395319">
        <ele>653.353271484375</ele>
        <time>2013-06-16T12:04:53Z</time>
      </trkpt>
      <trkpt lat="47.763663344085217" lon="11.548414193093777">
        <ele>653.353271484375</ele>
        <time>2013-06-16T12:04:59Z</time>
      </trkpt>
      <trkpt lat="47.763672228902578" lon="11.548238843679428">
        <ele>652.87255859375</ele>
        <time>2013-06-16T12:05:02Z</time>
      </trkpt>
      <trkpt lat="47.763662422075868" lon="11.547960732132196">
        <ele>652.391845703125</ele>
        <time>2013-06-16T12:05:06Z</time>
      </trkpt>
      <trkpt lat="47.763629062101245" lon="11.547612212598324">
        <ele>652.391845703125</ele>
        <time>2013-06-16T12:05:11Z</time>
      </trkpt>
      <trkpt lat="47.763584302738309" lon="11.547194458544254">
        <ele>653.833984375</ele>
        <time>2013-06-16T12:05:17Z</time>
      </trkpt>
      <trkpt lat="47.763596372678876" lon="11.54627563431859">
        <ele>652.87255859375</ele>
        <time>2013-06-16T12:05:29Z</time>
      </trkpt>
      <trkpt lat="47.763614309951663" lon="11.545931976288557">
        <ele>654.795166015625</ele>
        <time>2013-06-16T12:05:34Z</time>
      </trkpt>
      <trkpt lat="47.763775661587715" lon="11.545187998563051">
        <ele>652.87255859375</ele>
        <time>2013-06-16T12:05:43Z</time>
      </trkpt>
      <trkpt lat="47.763847075402737" lon="11.544932266697288">
        <ele>653.353271484375</ele>
        <time>2013-06-16T12:05:46Z</time>
      </trkpt>
      <trkpt lat="47.76388093829155" lon="11.544686676934361">
        <ele>652.87255859375</ele>
        <time>2013-06-16T12:05:49Z</time>
      </trkpt>
      <trkpt lat="47.76411303319037" lon="11.543635670095682">
        <ele>652.391845703125</ele>
        <time>2013-06-16T12:06:02Z</time>
      </trkpt>
      <trkpt lat="47.764197690412402" lon="11.5429612621665">
        <ele>652.391845703125</ele>
        <time>2013-06-16T12:06:11Z</time>
      </trkpt>
      <trkpt lat="47.764206994324923" lon="11.542890267446637">
        <ele>653.353271484375</ele>
        <time>2013-06-16T12:06:12Z</time>
      </trkpt>
      <trkpt lat="47.764268852770329" lon="11.542447116225958">
        <ele>652.87255859375</ele>
        <time>2013-06-16T12:06:18Z</time>
      </trkpt>
      <trkpt lat="47.764281844720244" lon="11.542368829250336">
        <ele>652.87255859375</ele>
        <time>2013-06-16T12:06:19Z</time>
      </trkpt>
      <trkpt lat="47.764406148344278" lon="11.541919140145183">
        <ele>652.87255859375</ele>
        <time>2013-06-16T12:06:25Z</time>
      </trkpt>
      <trkpt lat="47.764520728960633" lon="11.541642537340522">
        <ele>652.87255859375</ele>
        <time>2013-06-16T12:06:29Z</time>
      </trkpt>
      <trkpt lat="47.764877546578646" lon="11.541062677279115">
        <ele>653.353271484375</ele>
        <time>2013-06-16T12:06:38Z</time>
      </trkpt>
      <trkpt lat="47.765368642285466" lon="11.540471920743585">
        <ele>652.391845703125</ele>
        <time>2013-06-16T12:06:49Z</time>
      </trkpt>
      <trkpt lat="47.765546254813671" lon="11.540313586592674">
        <ele>652.87255859375</ele>
        <time>2013-06-16T12:06:53Z</time>
      </trkpt>
      <trkpt lat="47.765773739665747" lon="11.54013941064477">
        <ele>650.94970703125</ele>
        <time>2013-06-16T12:06:58Z</time>
      </trkpt>
      <trkpt lat="47.766090743243694" lon="11.540017789229751">
        <ele>652.87255859375</ele>
        <time>2013-06-16T12:07:04Z</time>
      </trkpt>
      <trkpt lat="47.766460888087749" lon="11.539901280775666">
        <ele>651.9111328125</ele>
        <time>2013-06-16T12:07:11Z</time>
      </trkpt>
      <trkpt lat="47.766613103449345" lon="11.539808996021748">
        <ele>654.314697265625</ele>
        <time>2013-06-16T12:07:15Z</time>
      </trkpt>
      <trkpt lat="47.766632549464703" lon="11.539796255528927">
        <ele>655.27587890625</ele>
        <time>2013-06-16T12:07:16Z</time>
      </trkpt>
      <trkpt lat="47.766695162281394" lon="11.539769601076841">
        <ele>656.7177734375</ele>
        <time>2013-06-16T12:07:20Z</time>
      </trkpt>
      <trkpt lat="47.766823237761855" lon="11.539716878905892">
        <ele>657.67919921875</ele>
        <time>2013-06-16T12:07:27Z</time>
      </trkpt>
      <trkpt lat="47.767002359032631" lon="11.539753675460815">
        <ele>657.198486328125</ele>
        <time>2013-06-16T12:07:32Z</time>
      </trkpt>
      <trkpt lat="47.767288852483034" lon="11.539787538349628">
        <ele>657.198486328125</ele>
        <time>2013-06-16T12:07:39Z</time>
      </trkpt>
      <trkpt lat="47.767386753112078" lon="11.539771361276507">
        <ele>657.198486328125</ele>
        <time>2013-06-16T12:07:41Z</time>
      </trkpt>
      <trkpt lat="47.768000811338425" lon="11.539618140086532">
        <ele>657.67919921875</ele>
        <time>2013-06-16T12:07:53Z</time>
      </trkpt>
      <trkpt lat="47.768513029441237" lon="11.539583271369338">
        <ele>656.7177734375</ele>
        <time>2013-06-16T12:08:02Z</time>
      </trkpt>
      <trkpt lat="47.769005969166756" lon="11.539655104279518">
        <ele>655.756591796875</ele>
        <time>2013-06-16T12:08:10Z</time>
      </trkpt>
      <trkpt lat="47.769275112077594" lon="11.539628030732274">
        <ele>655.27587890625</ele>
        <time>2013-06-16T12:08:14Z</time>
      </trkpt>
      <trkpt lat="47.769837118685246" lon="11.539452094584703">
        <ele>654.314697265625</ele>
        <time>2013-06-16T12:08:22Z</time>
      </trkpt>
      <trkpt lat="47.770546227693558" lon="11.539246737957001">
        <ele>653.833984375</ele>
        <time>2013-06-16T12:08:33Z</time>
      </trkpt>
      <trkpt lat="47.770737418904901" lon="11.539169875904918">
        <ele>652.391845703125</ele>
        <time>2013-06-16T12:08:36Z</time>
      </trkpt>
      <trkpt lat="47.771061798557639" lon="11.539048673585057">
        <ele>651.9111328125</ele>
        <time>2013-06-16T12:08:41Z</time>
      </trkpt>
      <trkpt lat="47.771670995280147" lon="11.53885236941278">
        <ele>651.9111328125</ele>
        <time>2013-06-16T12:08:51Z</time>
      </trkpt>
      <trkpt lat="47.772234929725528" lon="11.53856654651463">
        <ele>651.430419921875</ele>
        <time>2013-06-16T12:09:00Z</time>
      </trkpt>
      <trkpt lat="47.772751338779926" lon="11.538452552631497">
        <ele>651.9111328125</ele>
        <time>2013-06-16T12:09:08Z</time>
      </trkpt>
      <trkpt lat="47.773526916280389" lon="11.538102524355054">
        <ele>651.9111328125</ele>
        <time>2013-06-16T12:09:21Z</time>
      </trkpt>
      <trkpt lat="47.77403125539422" lon="11.537983249872923">
        <ele>652.391845703125</ele>
        <time>2013-06-16T12:09:29Z</time>
      </trkpt>
      <trkpt lat="47.775032222270966" lon="11.537727518007159">
        <ele>652.87255859375</ele>
        <time>2013-06-16T12:09:45Z</time>
      </trkpt>
      <trkpt lat="47.775214444845915" lon="11.537681920453906">
        <ele>652.391845703125</ele>
        <time>2013-06-16T12:09:48Z</time>
      </trkpt>
      <trkpt lat="47.775393230840564" lon="11.537614529952407">
        <ele>652.87255859375</ele>
        <time>2013-06-16T12:09:51Z</time>
      </trkpt>
      <trkpt lat="47.775809559971094" lon="11.537535320967436">
        <ele>652.87255859375</ele>
        <time>2013-06-16T12:09:58Z</time>
      </trkpt>
      <trkpt lat="47.776025393977761" lon="11.537602208554745">
        <ele>652.87255859375</ele>
        <time>2013-06-16T12:10:02Z</time>
      </trkpt>
      <trkpt lat="47.776117427274585" lon="11.537654343992472">
        <ele>652.87255859375</ele>
        <time>2013-06-16T12:10:04Z</time>
      </trkpt>
      <trkpt lat="47.776298727840185" lon="11.537746712565422">
        <ele>653.833984375</ele>
        <time>2013-06-16T12:10:08Z</time>
      </trkpt>
      <trkpt lat="47.776603410020471" lon="11.537859700620174">
        <ele>654.314697265625</ele>
        <time>2013-06-16T12:10:15Z</time>
      </trkpt>
      <trkpt lat="47.776828799396753" lon="11.537897083908319">
        <ele>654.795166015625</ele>
        <time>2013-06-16T12:10:20Z</time>
      </trkpt>
      <trkpt lat="47.777128787711263" lon="11.538019794970751">
        <ele>656.237060546875</ele>
        <time>2013-06-16T12:10:27Z</time>
      </trkpt>
      <trkpt lat="47.777411341667175" lon="11.53809892013669">
        <ele>657.67919921875</ele>
        <time>2013-06-16T12:10:34Z</time>
      </trkpt>
      <trkpt lat="47.777674617245793" lon="11.538208136335015">
        <ele>658.159912109375</ele>
        <time>2013-06-16T12:10:41Z</time>
      </trkpt>
      <trkpt lat="47.777765225619078" lon="11.538258176296949">
        <ele>659.12109375</ele>
        <time>2013-06-16T12:10:44Z</time>
      </trkpt>
      <trkpt lat="47.77799841016531" lon="11.538310144096613">
        <ele>660.56298828125</ele>
        <time>2013-06-16T12:10:51Z</time>
      </trkpt>
      <trkpt lat="47.77816504240036" lon="11.538417264819145">
        <ele>662.005126953125</ele>
        <time>2013-06-16T12:10:58Z</time>
      </trkpt>
      <trkpt lat="47.778348354622722" lon="11.538478787988424">
        <ele>662.485595703125</ele>
        <time>2013-06-16T12:11:03Z</time>
      </trkpt>
      <trkpt lat="47.778461761772633" lon="11.538556655868888">
        <ele>662.96630859375</ele>
        <time>2013-06-16T12:11:08Z</time>
      </trkpt>
      <trkpt lat="47.778676673769951" lon="11.538654640316963">
        <ele>664.888916015625</ele>
        <time>2013-06-16T12:11:15Z</time>
      </trkpt>
      <trkpt lat="47.778868367895484" lon="11.538746673613787">
        <ele>664.888916015625</ele>
        <time>2013-06-16T12:11:21Z</time>
      </trkpt>
      <trkpt lat="47.779088644310832" lon="11.538817584514618">
        <ele>665.36962890625</ele>
        <time>2013-06-16T12:11:27Z</time>
      </trkpt>
      <trkpt lat="47.77913055382669" lon="11.538829486817122">
        <ele>665.850341796875</ele>
        <time>2013-06-16T12:11:28Z</time>
      </trkpt>
      <trkpt lat="47.779246475547552" lon="11.538914479315281">
        <ele>665.850341796875</ele>
        <time>2013-06-16T12:11:32Z</time>
      </trkpt>
      <trkpt lat="47.779464405030012" lon="11.539056301116943">
        <ele>666.330810546875</ele>
        <time>2013-06-16T12:11:39Z</time>
      </trkpt>
      <trkpt lat="47.779622990638018" lon="11.539178676903248">
        <ele>666.8115234375</ele>
        <time>2013-06-16T12:11:44Z</time>
      </trkpt>
      <trkpt lat="47.779917949810624" lon="11.539407419040799">
        <ele>665.850341796875</ele>
        <time>2013-06-16T12:11:50Z</time>
      </trkpt>
      <trkpt lat="47.780400244519114" lon="11.539593329653144">
        <ele>666.330810546875</ele>
        <time>2013-06-16T12:11:57Z</time>
      </trkpt>
      <trkpt lat="47.78092042542994" lon="11.539706569164991">
        <ele>663.927490234375</ele>
        <time>2013-06-16T12:12:04Z</time>
      </trkpt>
      <trkpt lat="47.781420741230249" lon="11.539708664640784">
        <ele>662.96630859375</ele>
        <time>2013-06-16T12:12:10Z</time>
      </trkpt>
      <trkpt lat="47.782036559656262" lon="11.539571452885866">
        <ele>659.12109375</ele>
        <time>2013-06-16T12:12:18Z</time>
      </trkpt>
      <trkpt lat="47.782103698700666" lon="11.539545468986034">
        <ele>659.601806640625</ele>
        <time>2013-06-16T12:12:19Z</time>
      </trkpt>
      <trkpt lat="47.782983714714646" lon="11.53924623504281">
        <ele>658.640380859375</ele>
        <time>2013-06-16T12:12:32Z</time>
      </trkpt>
      <trkpt lat="47.783087398856878" lon="11.539193680509925">
        <ele>659.601806640625</ele>
        <time>2013-06-16T12:12:34Z</time>
      </trkpt>
      <trkpt lat="47.78314808383584" lon="11.538939625024796">
        <ele>660.082275390625</ele>
        <time>2013-06-16T12:12:38Z</time>
      </trkpt>
      <trkpt lat="47.783121261745691" lon="11.53878933750093">
        <ele>659.12109375</ele>
        <time>2013-06-16T12:12:40Z</time>
      </trkpt>
      <trkpt lat="47.783111622557044" lon="11.538509884849191">
        <ele>661.043701171875</ele>
        <time>2013-06-16T12:12:46Z</time>
      </trkpt>
      <trkpt lat="47.783113047480583" lon="11.53831928037107">
        <ele>661.5244140625</ele>
        <time>2013-06-16T12:12:51Z</time>
      </trkpt>
      <trkpt lat="47.783125033602118" lon="11.538143595680594">
        <ele>662.485595703125</ele>
        <time>2013-06-16T12:12:56Z</time>
      </trkpt>
      <trkpt lat="47.783094355836511" lon="11.537941172719002">
        <ele>663.447021484375</ele>
        <time>2013-06-16T12:13:01Z</time>
      </trkpt>
      <trkpt lat="47.783082872629166" lon="11.537807313725352">
        <ele>663.927490234375</ele>
        <time>2013-06-16T12:13:05Z</time>
      </trkpt>
      <trkpt lat="47.783074574545026" lon="11.537656607106328">
        <ele>664.408203125</ele>
        <time>2013-06-16T12:13:09Z</time>
      </trkpt>
      <trkpt lat="47.783028893172741" lon="11.53725796379149">
        <ele>666.330810546875</ele>
        <time>2013-06-16T12:13:16Z</time>
      </trkpt>
      <trkpt lat="47.783011961728334" lon="11.536937607452273">
        <ele>666.8115234375</ele>
        <time>2013-06-16T12:13:22Z</time>
      </trkpt>
      <trkpt lat="47.783008357509971" lon="11.536715487018228">
        <ele>667.292236328125</ele>
        <time>2013-06-16T12:13:27Z</time>
      </trkpt>
      <trkpt lat="47.783043226227164" lon="11.536402925848961">
        <ele>668.734375</ele>
        <time>2013-06-16T12:13:35Z</time>
      </trkpt>
      <trkpt lat="47.783118328079581" lon="11.536021633073688">
        <ele>670.17626953125</ele>
        <time>2013-06-16T12:13:44Z</time>
      </trkpt>
      <trkpt lat="47.783131906762719" lon="11.535751651972532">
        <ele>671.6181640625</ele>
        <time>2013-06-16T12:13:50Z</time>
      </trkpt>
      <trkpt lat="47.783100726082921" lon="11.535523999482393">
        <ele>672.57958984375</ele>
        <time>2013-06-16T12:13:56Z</time>
      </trkpt>
      <trkpt lat="47.783091505989432" lon="11.535415453836322">
        <ele>673.060302734375</ele>
        <time>2013-06-16T12:13:59Z</time>
      </trkpt>
      <trkpt lat="47.783042471855879" lon="11.535242199897766">
        <ele>673.060302734375</ele>
        <time>2013-06-16T12:14:05Z</time>
      </trkpt>
      <trkpt lat="47.78297365643084" lon="11.535016391426325">
        <ele>673.541015625</ele>
        <time>2013-06-16T12:14:11Z</time>
      </trkpt>
      <trkpt lat="47.782839043065906" lon="11.534683965146542">
        <ele>674.502197265625</ele>
        <time>2013-06-16T12:14:17Z</time>
      </trkpt>
      <trkpt lat="47.782742902636528" lon="11.534161940217018">
        <ele>675.944091796875</ele>
        <time>2013-06-16T12:14:29Z</time>
      </trkpt>
      <trkpt lat="47.782750949263573" lon="11.533714849501848">
        <ele>676.4248046875</ele>
        <time>2013-06-16T12:14:39Z</time>
      </trkpt>
      <trkpt lat="47.782908277586102" lon="11.533278236165643">
        <ele>677.86669921875</ele>
        <time>2013-06-16T12:14:50Z</time>
      </trkpt>
      <trkpt lat="47.782985474914312" lon="11.533132055774331">
        <ele>677.38623046875</ele>
        <time>2013-06-16T12:14:56Z</time>
      </trkpt>
      <trkpt lat="47.782977260649204" lon="11.533141108229756">
        <ele>676.4248046875</ele>
        <time>2013-06-16T12:15:09Z</time>
      </trkpt>
      <trkpt lat="47.782969800755382" lon="11.533138006925583">
        <ele>676.4248046875</ele>
        <time>2013-06-16T12:15:13Z</time>
      </trkpt>
      <trkpt lat="47.782866368070245" lon="11.532970536500216">
        <ele>677.86669921875</ele>
        <time>2013-06-16T12:17:26Z</time>
      </trkpt>
      <trkpt lat="47.782881204038858" lon="11.532887639477849">
        <ele>678.347412109375</ele>
        <time>2013-06-16T12:17:36Z</time>
      </trkpt>
      <trkpt lat="47.783077256754041" lon="11.532532414421439">
        <ele>679.30859375</ele>
        <time>2013-06-16T12:17:46Z</time>
      </trkpt>
      <trkpt lat="47.783257719129324" lon="11.532296547666192">
        <ele>679.30859375</ele>
        <time>2013-06-16T12:17:54Z</time>
      </trkpt>
      <trkpt lat="47.78334204107523" lon="11.532174255698919">
        <ele>679.789306640625</ele>
        <time>2013-06-16T12:17:59Z</time>
      </trkpt>
      <trkpt lat="47.783432649448514" lon="11.531932521611452">
        <ele>680.750732421875</ele>
        <time>2013-06-16T12:18:05Z</time>
      </trkpt>
      <trkpt lat="47.783563490957022" lon="11.531529938802123">
        <ele>683.634521484375</ele>
        <time>2013-06-16T12:18:13Z</time>
      </trkpt>
      <trkpt lat="47.783625349402428" lon="11.53114914894104">
        <ele>685.076904296875</ele>
        <time>2013-06-16T12:18:21Z</time>
      </trkpt>
      <trkpt lat="47.783631971105933" lon="11.531100450083613">
        <ele>685.076904296875</ele>
        <time>2013-06-16T12:18:22Z</time>
      </trkpt>
      <trkpt lat="47.783746970817447" lon="11.530443811789155">
        <ele>685.076904296875</ele>
        <time>2013-06-16T12:18:34Z</time>
      </trkpt>
      <trkpt lat="47.783785779029131" lon="11.530076265335083">
        <ele>685.076904296875</ele>
        <time>2013-06-16T12:18:40Z</time>
      </trkpt>
      <trkpt lat="47.783799860626459" lon="11.529924804344773">
        <ele>684.115478515625</ele>
        <time>2013-06-16T12:18:42Z</time>
      </trkpt>
      <trkpt lat="47.783707659691572" lon="11.529289372265339">
        <ele>684.115478515625</ele>
        <time>2013-06-16T12:18:48Z</time>
      </trkpt>
      <trkpt lat="47.783627780154347" lon="11.528888214379549">
        <ele>683.15380859375</ele>
        <time>2013-06-16T12:18:53Z</time>
      </trkpt>
      <trkpt lat="47.783810421824455" lon="11.528613036498427">
        <ele>681.2314453125</ele>
        <time>2013-06-16T12:18:57Z</time>
      </trkpt>
      <trkpt lat="47.784122228622437" lon="11.528036948293447">
        <ele>682.192626953125</ele>
        <time>2013-06-16T12:19:06Z</time>
      </trkpt>
      <trkpt lat="47.784189535304904" lon="11.527923122048378">
        <ele>683.15380859375</ele>
        <time>2013-06-16T12:19:08Z</time>
      </trkpt>
      <trkpt lat="47.784489607438445" lon="11.527557671070099">
        <ele>681.7119140625</ele>
        <time>2013-06-16T12:19:15Z</time>
      </trkpt>
      <trkpt lat="47.784543419256806" lon="11.527502853423357">
        <ele>681.7119140625</ele>
        <time>2013-06-16T12:19:16Z</time>
      </trkpt>
      <trkpt lat="47.78460125438869" lon="11.527446191757917">
        <ele>680.750732421875</ele>
        <time>2013-06-16T12:19:17Z</time>
      </trkpt>
      <trkpt lat="47.784722540527582" lon="11.5273158531636">
        <ele>679.789306640625</ele>
        <time>2013-06-16T12:19:19Z</time>
      </trkpt>
      <trkpt lat="47.784993778914213" lon="11.527001615613699">
        <ele>676.4248046875</ele>
        <time>2013-06-16T12:19:23Z</time>
      </trkpt>
      <trkpt lat="47.785130571573973" lon="11.52682333253324">
        <ele>675.944091796875</ele>
        <time>2013-06-16T12:19:25Z</time>
      </trkpt>
      <trkpt lat="47.785269459709525" lon="11.526625771075487">
        <ele>673.060302734375</ele>
        <time>2013-06-16T12:19:27Z</time>
      </trkpt>
      <trkpt lat="47.785653434693813" lon="11.526047419756651">
        <ele>667.772705078125</ele>
        <time>2013-06-16T12:19:32Z</time>
      </trkpt>
      <trkpt lat="47.785990135744214" lon="11.525621199980378">
        <ele>665.850341796875</ele>
        <time>2013-06-16T12:19:36Z</time>
      </trkpt>
      <trkpt lat="47.786258943378925" lon="11.525301598012447">
        <ele>661.043701171875</ele>
        <time>2013-06-16T12:19:39Z</time>
      </trkpt>
      <trkpt lat="47.786349887028337" lon="11.525195734575391">
        <ele>661.043701171875</ele>
        <time>2013-06-16T12:19:40Z</time>
      </trkpt>
      <trkpt lat="47.786697736009955" lon="11.524724336341023">
        <ele>658.159912109375</ele>
        <time>2013-06-16T12:19:44Z</time>
      </trkpt>
      <trkpt lat="47.786945840343833" lon="11.524336254224181">
        <ele>655.756591796875</ele>
        <time>2013-06-16T12:19:47Z</time>
      </trkpt>
      <trkpt lat="47.787252785637975" lon="11.523820012807846">
        <ele>651.9111328125</ele>
        <time>2013-06-16T12:19:51Z</time>
      </trkpt>
      <trkpt lat="47.787579260766506" lon="11.523294216021895">
        <ele>649.988525390625</ele>
        <time>2013-06-16T12:19:55Z</time>
      </trkpt>
      <trkpt lat="47.787725944072008" lon="11.523026749491692">
        <ele>650.46923828125</ele>
        <time>2013-06-16T12:19:57Z</time>
      </trkpt>
      <trkpt lat="47.788142273202538" lon="11.522198785096407">
        <ele>648.54638671875</ele>
        <time>2013-06-16T12:20:04Z</time>
      </trkpt>
      <trkpt lat="47.788377553224564" lon="11.521653542295098">
        <ele>647.1044921875</ele>
        <time>2013-06-16T12:20:09Z</time>
      </trkpt>
      <trkpt lat="47.788815423846245" lon="11.520844353362918">
        <ele>646.6240234375</ele>
        <time>2013-06-16T12:20:18Z</time>
      </trkpt>
      <trkpt lat="47.78964783065021" lon="11.519147101789713">
        <ele>644.701171875</ele>
        <time>2013-06-16T12:20:36Z</time>
      </trkpt>
      <trkpt lat="47.790205143392086" lon="11.517961900681257">
        <ele>643.739990234375</ele>
        <time>2013-06-16T12:20:50Z</time>
      </trkpt>
      <trkpt lat="47.790475208312273" lon="11.517417160794139">
        <ele>644.701171875</ele>
        <time>2013-06-16T12:20:57Z</time>
      </trkpt>
      <trkpt lat="47.79055374674499" lon="11.517274165526032">
        <ele>641.336669921875</ele>
        <time>2013-06-16T12:20:59Z</time>
      </trkpt>
      <trkpt lat="47.790595404803753" lon="11.51720417663455">
        <ele>641.8173828125</ele>
        <time>2013-06-16T12:21:00Z</time>
      </trkpt>
      <trkpt lat="47.790678050369024" lon="11.517061349004507">
        <ele>642.77880859375</ele>
        <time>2013-06-16T12:21:02Z</time>
      </trkpt>
      <trkpt lat="47.791138971224427" lon="11.516334218904376">
        <ele>642.298095703125</ele>
        <time>2013-06-16T12:21:13Z</time>
      </trkpt>
      <trkpt lat="47.791319936513901" lon="11.516093406826258">
        <ele>641.8173828125</ele>
        <time>2013-06-16T12:21:17Z</time>
      </trkpt>
      <trkpt lat="47.791442396119237" lon="11.515917386859655">
        <ele>640.85595703125</ele>
        <time>2013-06-16T12:21:20Z</time>
      </trkpt>
      <trkpt lat="47.791762165725231" lon="11.515588983893394">
        <ele>640.85595703125</ele>
        <time>2013-06-16T12:21:27Z</time>
      </trkpt>
      <trkpt lat="47.792346803471446" lon="11.515069641172886">
        <ele>641.8173828125</ele>
        <time>2013-06-16T12:21:38Z</time>
      </trkpt>
      <trkpt lat="47.792836390435696" lon="11.514642415568233">
        <ele>642.77880859375</ele>
        <time>2013-06-16T12:21:49Z</time>
      </trkpt>
      <trkpt lat="47.793143838644028" lon="11.514376122504473">
        <ele>644.220703125</ele>
        <time>2013-06-16T12:21:59Z</time>
      </trkpt>
      <trkpt lat="47.793408371508121" lon="11.514153834432364">
        <ele>646.6240234375</ele>
        <time>2013-06-16T12:22:11Z</time>
      </trkpt>
      <trkpt lat="47.793679693713784" lon="11.513911513611674">
        <ele>647.1044921875</ele>
        <time>2013-06-16T12:22:25Z</time>
      </trkpt>
      <trkpt lat="47.794017819687724" lon="11.513688303530216">
        <ele>650.46923828125</ele>
        <time>2013-06-16T12:22:42Z</time>
      </trkpt>
      <trkpt lat="47.794330464676023" lon="11.513557881116867">
        <ele>653.353271484375</ele>
        <time>2013-06-16T12:22:57Z</time>
      </trkpt>
      <trkpt lat="47.79466699808836" lon="11.513475654646754">
        <ele>655.756591796875</ele>
        <time>2013-06-16T12:23:13Z</time>
      </trkpt>
      <trkpt lat="47.79497972689569" lon="11.513428715988994">
        <ele>658.640380859375</ele>
        <time>2013-06-16T12:23:28Z</time>
      </trkpt>
      <trkpt lat="47.795303519815207" lon="11.513424105942249">
        <ele>661.5244140625</ele>
        <time>2013-06-16T12:23:43Z</time>
      </trkpt>
      <trkpt lat="47.79565840959549" lon="11.513412036001682">
        <ele>664.408203125</ele>
        <time>2013-06-16T12:24:00Z</time>
      </trkpt>
      <trkpt lat="47.795850690454245" lon="11.51342511177063">
        <ele>666.330810546875</ele>
        <time>2013-06-16T12:24:09Z</time>
      </trkpt>
      <trkpt lat="47.796106338500977" lon="11.513452855870128">
        <ele>668.253662109375</ele>
        <time>2013-06-16T12:24:20Z</time>
      </trkpt>
      <trkpt lat="47.796469442546368" lon="11.513586882501841">
        <ele>670.17626953125</ele>
        <time>2013-06-16T12:24:36Z</time>
      </trkpt>
      <trkpt lat="47.796844197437167" lon="11.513798860833049">
        <ele>672.098876953125</ele>
        <time>2013-06-16T12:24:51Z</time>
      </trkpt>
      <trkpt lat="47.797254659235477" lon="11.514145284891129">
        <ele>672.098876953125</ele>
        <time>2013-06-16T12:25:08Z</time>
      </trkpt>
      <trkpt lat="47.797633856534958" lon="11.514517860487103">
        <ele>672.57958984375</ele>
        <time>2013-06-16T12:25:22Z</time>
      </trkpt>
      <trkpt lat="47.798127550631762" lon="11.515033766627312">
        <ele>672.57958984375</ele>
        <time>2013-06-16T12:25:38Z</time>
      </trkpt>
      <trkpt lat="47.798595009371638" lon="11.515407934784889">
        <ele>672.57958984375</ele>
        <time>2013-06-16T12:25:50Z</time>
      </trkpt>
      <trkpt lat="47.799061797559261" lon="11.515580099076033">
        <ele>672.098876953125</ele>
        <time>2013-06-16T12:26:00Z</time>
      </trkpt>
      <trkpt lat="47.799725225195289" lon="11.515587056055665">
        <ele>673.541015625</ele>
        <time>2013-06-16T12:26:13Z</time>
      </trkpt>
      <trkpt lat="47.800189582630992" lon="11.515584960579872">
        <ele>674.021484375</ele>
        <time>2013-06-16T12:26:23Z</time>
      </trkpt>
      <trkpt lat="47.800550675019622" lon="11.515634497627616">
        <ele>674.502197265625</ele>
        <time>2013-06-16T12:26:31Z</time>
      </trkpt>
      <trkpt lat="47.801000447943807" lon="11.515793837606907">
        <ele>674.502197265625</ele>
        <time>2013-06-16T12:26:40Z</time>
      </trkpt>
      <trkpt lat="47.801581062376499" lon="11.516044288873672">
        <ele>671.6181640625</ele>
        <time>2013-06-16T12:26:49Z</time>
      </trkpt>
      <trkpt lat="47.802277933806181" lon="11.516304714605212">
        <ele>669.69580078125</ele>
        <time>2013-06-16T12:26:58Z</time>
      </trkpt>
      <trkpt lat="47.802924094721675" lon="11.516474699601531">
        <ele>666.8115234375</ele>
        <time>2013-06-16T12:27:06Z</time>
      </trkpt>
      <trkpt lat="47.803891450166702" lon="11.516692377626896">
        <ele>663.927490234375</ele>
        <time>2013-06-16T12:27:18Z</time>
      </trkpt>
      <trkpt lat="47.804450523108244" lon="11.516788098961115">
        <ele>660.56298828125</ele>
        <time>2013-06-16T12:27:24Z</time>
      </trkpt>
      <trkpt lat="47.804548591375351" lon="11.516803689301014">
        <ele>660.56298828125</ele>
        <time>2013-06-16T12:27:25Z</time>
      </trkpt>
      <trkpt lat="47.804957879707217" lon="11.516876863315701">
        <ele>657.198486328125</ele>
        <time>2013-06-16T12:27:29Z</time>
      </trkpt>
      <trkpt lat="47.805798836052418" lon="11.517099905759096">
        <ele>653.353271484375</ele>
        <time>2013-06-16T12:27:37Z</time>
      </trkpt>
      <trkpt lat="47.80590595677495" lon="11.517131421715021">
        <ele>653.353271484375</ele>
        <time>2013-06-16T12:27:38Z</time>
      </trkpt>
      <trkpt lat="47.806441895663738" lon="11.517282379791141">
        <ele>649.027099609375</ele>
        <time>2013-06-16T12:27:43Z</time>
      </trkpt>
      <trkpt lat="47.80666041187942" lon="11.51732487604022">
        <ele>647.585205078125</ele>
        <time>2013-06-16T12:27:45Z</time>
      </trkpt>
      <trkpt lat="47.807104988023639" lon="11.517297299578786">
        <ele>645.66259765625</ele>
        <time>2013-06-16T12:27:49Z</time>
      </trkpt>
      <trkpt lat="47.807215293869376" lon="11.51725547388196">
        <ele>644.220703125</ele>
        <time>2013-06-16T12:27:50Z</time>
      </trkpt>
      <trkpt lat="47.807607902213931" lon="11.516953725367785">
        <ele>643.739990234375</ele>
        <time>2013-06-16T12:27:55Z</time>
      </trkpt>
      <trkpt lat="47.808028506115079" lon="11.516572516411543">
        <ele>643.25927734375</ele>
        <time>2013-06-16T12:28:03Z</time>
      </trkpt>
      <trkpt lat="47.808152223005891" lon="11.51648391969502">
        <ele>641.8173828125</ele>
        <time>2013-06-16T12:28:05Z</time>
      </trkpt>
      <trkpt lat="47.808282393962145" lon="11.51641015894711">
        <ele>643.739990234375</ele>
        <time>2013-06-16T12:28:07Z</time>
      </trkpt>
      <trkpt lat="47.808779021725059" lon="11.516263643279672">
        <ele>643.739990234375</ele>
        <time>2013-06-16T12:28:14Z</time>
      </trkpt>
      <trkpt lat="47.809397606179118" lon="11.516162222251296">
        <ele>640.37548828125</ele>
        <time>2013-06-16T12:28:22Z</time>
      </trkpt>
      <trkpt lat="47.809480167925358" lon="11.516145877540112">
        <ele>639.894775390625</ele>
        <time>2013-06-16T12:28:23Z</time>
      </trkpt>
      <trkpt lat="47.810058183968067" lon="11.516012270003557">
        <ele>638.93359375</ele>
        <time>2013-06-16T12:28:30Z</time>
      </trkpt>
      <trkpt lat="47.810469483956695" lon="11.515714293345809">
        <ele>638.93359375</ele>
        <time>2013-06-16T12:28:36Z</time>
      </trkpt>
      <trkpt lat="47.810746002942324" lon="11.515467278659344">
        <ele>638.93359375</ele>
        <time>2013-06-16T12:28:41Z</time>
      </trkpt>
      <trkpt lat="47.810930488631129" lon="11.51530927978456">
        <ele>637.97216796875</ele>
        <time>2013-06-16T12:28:44Z</time>
      </trkpt>
      <trkpt lat="47.811173899099231" lon="11.515233842656016">
        <ele>636.5302734375</ele>
        <time>2013-06-16T12:28:48Z</time>
      </trkpt>
      <trkpt lat="47.811795668676496" lon="11.515260245651007">
        <ele>637.491455078125</ele>
        <time>2013-06-16T12:28:58Z</time>
      </trkpt>
      <trkpt lat="47.811858868226409" lon="11.515266029164195">
        <ele>637.97216796875</ele>
        <time>2013-06-16T12:28:59Z</time>
      </trkpt>
      <trkpt lat="47.812108565121889" lon="11.515300562605262">
        <ele>637.491455078125</ele>
        <time>2013-06-16T12:29:03Z</time>
      </trkpt>
      <trkpt lat="47.812509639188647" lon="11.515277596190572">
        <ele>637.97216796875</ele>
        <time>2013-06-16T12:29:10Z</time>
      </trkpt>
      <trkpt lat="47.812979612499475" lon="11.515278350561857">
        <ele>637.491455078125</ele>
        <time>2013-06-16T12:29:18Z</time>
      </trkpt>
      <trkpt lat="47.813754770904779" lon="11.515248343348503">
        <ele>636.049560546875</ele>
        <time>2013-06-16T12:29:31Z</time>
      </trkpt>
      <trkpt lat="47.814280316233635" lon="11.51525454595685">
        <ele>635.568603515625</ele>
        <time>2013-06-16T12:29:40Z</time>
      </trkpt>
      <trkpt lat="47.814999064430594" lon="11.515436684712768">
        <ele>637.0107421875</ele>
        <time>2013-06-16T12:29:53Z</time>
      </trkpt>
      <trkpt lat="47.815509354695678" lon="11.515602562576532">
        <ele>636.049560546875</ele>
        <time>2013-06-16T12:30:02Z</time>
      </trkpt>
      <trkpt lat="47.816200945526361" lon="11.515836250036955">
        <ele>637.97216796875</ele>
        <time>2013-06-16T12:30:14Z</time>
      </trkpt>
      <trkpt lat="47.816314268857241" lon="11.515948316082358">
        <ele>639.4140625</ele>
        <time>2013-06-16T12:30:18Z</time>
      </trkpt>
      <trkpt lat="47.816308485344052" lon="11.516009084880352">
        <ele>638.452880859375</ele>
        <time>2013-06-16T12:30:19Z</time>
      </trkpt>
      <trkpt lat="47.816204549744725" lon="11.516611743718386">
        <ele>639.4140625</ele>
        <time>2013-06-16T12:30:27Z</time>
      </trkpt>
      <trkpt lat="47.816038588061929" lon="11.517702983692288">
        <ele>639.4140625</ele>
        <time>2013-06-16T12:30:39Z</time>
      </trkpt>
      <trkpt lat="47.815998857840896" lon="11.518854908645153">
        <ele>637.97216796875</ele>
        <time>2013-06-16T12:30:51Z</time>
      </trkpt>
      <trkpt lat="47.816030038520694" lon="11.519429320469499">
        <ele>638.93359375</ele>
        <time>2013-06-16T12:30:57Z</time>
      </trkpt>
      <trkpt lat="47.816068008542061" lon="11.519711958244443">
        <ele>637.491455078125</ele>
        <time>2013-06-16T12:31:00Z</time>
      </trkpt>
      <trkpt lat="47.816111510619521" lon="11.520079169422388">
        <ele>637.0107421875</ele>
        <time>2013-06-16T12:31:04Z</time>
      </trkpt>
      <trkpt lat="47.81623262912035" lon="11.520358035340905">
        <ele>639.4140625</ele>
        <time>2013-06-16T12:31:08Z</time>
      </trkpt>
      <trkpt lat="47.816294990479946" lon="11.520390138030052">
        <ele>638.93359375</ele>
        <time>2013-06-16T12:31:09Z</time>
      </trkpt>
      <trkpt lat="47.816436644643545" lon="11.520436992868781">
        <ele>637.97216796875</ele>
        <time>2013-06-16T12:31:11Z</time>
      </trkpt>
      <trkpt lat="47.817103844136" lon="11.520760534331203">
        <ele>636.5302734375</ele>
        <time>2013-06-16T12:31:21Z</time>
      </trkpt>
      <trkpt lat="47.818043036386371" lon="11.52123193256557">
        <ele>635.568603515625</ele>
        <time>2013-06-16T12:31:37Z</time>
      </trkpt>
      <trkpt lat="47.818102212622762" lon="11.521265795454383">
        <ele>635.568603515625</ele>
        <time>2013-06-16T12:31:38Z</time>
      </trkpt>
      <trkpt lat="47.818322153761983" lon="11.521457154303789">
        <ele>635.568603515625</ele>
        <time>2013-06-16T12:31:42Z</time>
      </trkpt>
      <trkpt lat="47.818485265597701" lon="11.521699642762542">
        <ele>635.568603515625</ele>
        <time>2013-06-16T12:31:46Z</time>
      </trkpt>
      <trkpt lat="47.818642258644104" lon="11.521999798715115">
        <ele>636.049560546875</ele>
        <time>2013-06-16T12:31:50Z</time>
      </trkpt>
      <trkpt lat="47.81897678039968" lon="11.522404477000237">
        <ele>636.049560546875</ele>
        <time>2013-06-16T12:31:57Z</time>
      </trkpt>
      <trkpt lat="47.819155063480139" lon="11.522591058164835">
        <ele>635.088134765625</ele>
        <time>2013-06-16T12:32:01Z</time>
      </trkpt>
      <trkpt lat="47.819447591900826" lon="11.52261477895081">
        <ele>634.607421875</ele>
        <time>2013-06-16T12:32:06Z</time>
      </trkpt>
      <trkpt lat="47.819640710949898" lon="11.522589717060328">
        <ele>633.64599609375</ele>
        <time>2013-06-16T12:32:09Z</time>
      </trkpt>
      <trkpt lat="47.819939274340868" lon="11.522567756474018">
        <ele>634.126708984375</ele>
        <time>2013-06-16T12:32:14Z</time>
      </trkpt>
      <trkpt lat="47.819994846358895" lon="11.5225600451231">
        <ele>634.607421875</ele>
        <time>2013-06-16T12:32:15Z</time>
      </trkpt>
      <trkpt lat="47.8202208224684" lon="11.522550489753485">
        <ele>633.165283203125</ele>
        <time>2013-06-16T12:32:19Z</time>
      </trkpt>
      <trkpt lat="47.820897409692407" lon="11.522302469238639">
        <ele>633.165283203125</ele>
        <time>2013-06-16T12:32:28Z</time>
      </trkpt>
      <trkpt lat="47.821367299184203" lon="11.522048497572541">
        <ele>632.684814453125</ele>
        <time>2013-06-16T12:32:36Z</time>
      </trkpt>
      <trkpt lat="47.821421027183533" lon="11.52200692333281">
        <ele>632.684814453125</ele>
        <time>2013-06-16T12:32:37Z</time>
      </trkpt>
      <trkpt lat="47.821725457906723" lon="11.521773571148515">
        <ele>630.76220703125</ele>
        <time>2013-06-16T12:32:42Z</time>
      </trkpt>
      <trkpt lat="47.822164753451943" lon="11.521667623892426">
        <ele>630.76220703125</ele>
        <time>2013-06-16T12:32:48Z</time>
      </trkpt>
      <trkpt lat="47.822297355160117" lon="11.521653961390257">
        <ele>629.80078125</ele>
        <time>2013-06-16T12:32:50Z</time>
      </trkpt>
      <trkpt lat="47.822428112849593" lon="11.521640885621309">
        <ele>628.839599609375</ele>
        <time>2013-06-16T12:32:52Z</time>
      </trkpt>
      <trkpt lat="47.822621483355761" lon="11.521650608628988">
        <ele>630.281494140625</ele>
        <time>2013-06-16T12:32:55Z</time>
      </trkpt>
      <trkpt lat="47.822756934911013" lon="11.521664606407285">
        <ele>630.76220703125</ele>
        <time>2013-06-16T12:32:57Z</time>
      </trkpt>
      <trkpt lat="47.822883585467935" lon="11.521654464304447">
        <ele>630.76220703125</ele>
        <time>2013-06-16T12:32:59Z</time>
      </trkpt>
      <trkpt lat="47.823191871866584" lon="11.521574165672064">
        <ele>630.281494140625</ele>
        <time>2013-06-16T12:33:04Z</time>
      </trkpt>
      <trkpt lat="47.823255574330688" lon="11.521559581160545">
        <ele>630.281494140625</ele>
        <time>2013-06-16T12:33:05Z</time>
      </trkpt>
      <trkpt lat="47.82339102588594" lon="11.521551199257374">
        <ele>629.80078125</ele>
        <time>2013-06-16T12:33:07Z</time>
      </trkpt>
      <trkpt lat="47.823651283979416" lon="11.52166435495019">
        <ele>628.839599609375</ele>
        <time>2013-06-16T12:33:11Z</time>
      </trkpt>
      <trkpt lat="47.823856892064214" lon="11.522012874484062">
        <ele>625.95556640625</ele>
        <time>2013-06-16T12:33:16Z</time>
      </trkpt>
      <trkpt lat="47.823985386639833" lon="11.522138435393572">
        <ele>624.032958984375</ele>
        <time>2013-06-16T12:33:18Z</time>
      </trkpt>
      <trkpt lat="47.824374809861183" lon="11.522393831983209">
        <ele>619.70703125</ele>
        <time>2013-06-16T12:33:22Z</time>
      </trkpt>
      <trkpt lat="47.824670355767012" lon="11.522515453398228">
        <ele>620.187744140625</ele>
        <time>2013-06-16T12:33:25Z</time>
      </trkpt>
      <trkpt lat="47.825034968554974" lon="11.522486954927444">
        <ele>622.591064453125</ele>
        <time>2013-06-16T12:33:29Z</time>
      </trkpt>
      <trkpt lat="47.825374184176326" lon="11.52218378148973">
        <ele>622.1103515625</ele>
        <time>2013-06-16T12:33:34Z</time>
      </trkpt>
      <trkpt lat="47.825458589941263" lon="11.522024609148502">
        <ele>622.1103515625</ele>
        <time>2013-06-16T12:33:36Z</time>
      </trkpt>
      <trkpt lat="47.825850946828723" lon="11.521203853189945">
        <ele>620.66845703125</ele>
        <time>2013-06-16T12:33:46Z</time>
      </trkpt>
      <trkpt lat="47.826478583738208" lon="11.520299445837736">
        <ele>621.149169921875</ele>
        <time>2013-06-16T12:34:00Z</time>
      </trkpt>
      <trkpt lat="47.826566677540541" lon="11.520172376185656">
        <ele>621.149169921875</ele>
        <time>2013-06-16T12:34:02Z</time>
      </trkpt>
      <trkpt lat="47.826675893738866" lon="11.519856210798025">
        <ele>621.629638671875</ele>
        <time>2013-06-16T12:34:06Z</time>
      </trkpt>
      <trkpt lat="47.82660917378962" lon="11.519332593306899">
        <ele>623.07177734375</ele>
        <time>2013-06-16T12:34:13Z</time>
      </trkpt>
      <trkpt lat="47.826604144647717" lon="11.519265286624432">
        <ele>623.552490234375</ele>
        <time>2013-06-16T12:34:14Z</time>
      </trkpt>
      <trkpt lat="47.826580675318837" lon="11.519058253616095">
        <ele>623.552490234375</ele>
        <time>2013-06-16T12:34:17Z</time>
      </trkpt>
      <trkpt lat="47.826599450781941" lon="11.518756588920951">
        <ele>623.552490234375</ele>
        <time>2013-06-16T12:34:21Z</time>
      </trkpt>
      <trkpt lat="47.826662482693791" lon="11.518520722165704">
        <ele>623.07177734375</ele>
        <time>2013-06-16T12:34:24Z</time>
      </trkpt>
      <trkpt lat="47.82670003362" lon="11.518359957262874">
        <ele>624.032958984375</ele>
        <time>2013-06-16T12:34:26Z</time>
      </trkpt>
      <trkpt lat="47.826812854036689" lon="11.51798302307725">
        <ele>623.552490234375</ele>
        <time>2013-06-16T12:34:32Z</time>
      </trkpt>
      <trkpt lat="47.826829701662064" lon="11.517703654244542">
        <ele>623.07177734375</ele>
        <time>2013-06-16T12:34:36Z</time>
      </trkpt>
      <trkpt lat="47.826708499342203" lon="11.516981888562441">
        <ele>624.032958984375</ele>
        <time>2013-06-16T12:34:45Z</time>
      </trkpt>
      <trkpt lat="47.826700285077095" lon="11.516907373443246">
        <ele>624.513671875</ele>
        <time>2013-06-16T12:34:46Z</time>
      </trkpt>
      <trkpt lat="47.826712187379599" lon="11.516457768157125">
        <ele>624.032958984375</ele>
        <time>2013-06-16T12:34:52Z</time>
      </trkpt>
      <trkpt lat="47.826804472133517" lon="11.51622299104929">
        <ele>624.994384765625</ele>
        <time>2013-06-16T12:34:56Z</time>
      </trkpt>
      <trkpt lat="47.826942941173911" lon="11.516050240024924">
        <ele>625.474853515625</ele>
        <time>2013-06-16T12:35:01Z</time>
      </trkpt>
      <trkpt lat="47.826975043863058" lon="11.51584479957819">
        <ele>626.436279296875</ele>
        <time>2013-06-16T12:35:05Z</time>
      </trkpt>
      <trkpt lat="47.827042434364557" lon="11.515693087130785">
        <ele>627.397705078125</ele>
        <time>2013-06-16T12:35:10Z</time>
      </trkpt>
      <trkpt lat="47.8272042889148" lon="11.515492089092731">
        <ele>628.35888671875</ele>
        <time>2013-06-16T12:35:17Z</time>
      </trkpt>
      <trkpt lat="47.827418278902769" lon="11.515215989202261">
        <ele>628.839599609375</ele>
        <time>2013-06-16T12:35:24Z</time>
      </trkpt>
      <trkpt lat="47.827466474846005" lon="11.515175504609942">
        <ele>628.839599609375</ele>
        <time>2013-06-16T12:35:25Z</time>
      </trkpt>
      <trkpt lat="47.827683901414275" lon="11.51501951739192">
        <ele>628.839599609375</ele>
        <time>2013-06-16T12:35:30Z</time>
      </trkpt>
      <trkpt lat="47.827799990773201" lon="11.514922706410289">
        <ele>627.397705078125</ele>
        <time>2013-06-16T12:35:34Z</time>
      </trkpt>
      <trkpt lat="47.827813820913434" lon="11.514731431379914">
        <ele>627.878173828125</ele>
        <time>2013-06-16T12:35:41Z</time>
      </trkpt>
      <trkpt lat="47.827807702124119" lon="11.514711733907461">
        <ele>626.9169921875</ele>
        <time>2013-06-16T12:35:54Z</time>
      </trkpt>
      <trkpt lat="47.827803511172533" lon="11.514602685347199">
        <ele>625.95556640625</ele>
        <time>2013-06-16T12:38:24Z</time>
      </trkpt>
      <trkpt lat="47.827784987166524" lon="11.514601008966565">
        <ele>626.436279296875</ele>
        <time>2013-06-16T12:38:45Z</time>
      </trkpt>
      <trkpt lat="47.827729163691401" lon="11.514561865478754">
        <ele>625.95556640625</ele>
        <time>2013-06-16T12:38:49Z</time>
      </trkpt>
      <trkpt lat="47.827675770968199" lon="11.514423228800297">
        <ele>625.95556640625</ele>
        <time>2013-06-16T12:38:55Z</time>
      </trkpt>
      <trkpt lat="47.827667724341154" lon="11.514294734224677">
        <ele>626.436279296875</ele>
        <time>2013-06-16T12:38:58Z</time>
      </trkpt>
      <trkpt lat="47.827565800398588" lon="11.51403833180666">
        <ele>626.436279296875</ele>
        <time>2013-06-16T12:39:04Z</time>
      </trkpt>
      <trkpt lat="47.827535625547171" lon="11.514003379270434">
        <ele>626.9169921875</ele>
        <time>2013-06-16T12:39:05Z</time>
      </trkpt>
      <trkpt lat="47.827216610312462" lon="11.513779414817691">
        <ele>626.9169921875</ele>
        <time>2013-06-16T12:39:12Z</time>
      </trkpt>
      <trkpt lat="47.826547985896468" lon="11.513335844501853">
        <ele>625.95556640625</ele>
        <time>2013-06-16T12:39:24Z</time>
      </trkpt>
      <trkpt lat="47.825881037861109" lon="11.512838378548622">
        <ele>626.436279296875</ele>
        <time>2013-06-16T12:39:37Z</time>
      </trkpt>
      <trkpt lat="47.82532456330955" lon="11.512431856244802">
        <ele>627.397705078125</ele>
        <time>2013-06-16T12:39:48Z</time>
      </trkpt>
      <trkpt lat="47.825069334357977" lon="11.512070931494236">
        <ele>629.320068359375</ele>
        <time>2013-06-16T12:39:55Z</time>
      </trkpt>
      <trkpt lat="47.825056677684188" lon="11.511789131909609">
        <ele>629.320068359375</ele>
        <time>2013-06-16T12:40:00Z</time>
      </trkpt>
      <trkpt lat="47.825125074014068" lon="11.511742360889912">
        <ele>628.839599609375</ele>
        <time>2013-06-16T12:40:02Z</time>
      </trkpt>
      <trkpt lat="47.825427912175655" lon="11.511552343145013">
        <ele>630.76220703125</ele>
        <time>2013-06-16T12:40:12Z</time>
      </trkpt>
      <trkpt lat="47.82563142478466" lon="11.511303735896945">
        <ele>629.320068359375</ele>
        <time>2013-06-16T12:40:18Z</time>
      </trkpt>
      <trkpt lat="47.825998552143574" lon="11.510853795334697">
        <ele>629.80078125</ele>
        <time>2013-06-16T12:40:28Z</time>
      </trkpt>
      <trkpt lat="47.826120927929878" lon="11.510742316022515">
        <ele>628.839599609375</ele>
        <time>2013-06-16T12:40:31Z</time>
      </trkpt>
      <trkpt lat="47.82620114274323" lon="11.510683391243219">
        <ele>629.80078125</ele>
        <time>2013-06-16T12:40:33Z</time>
      </trkpt>
      <trkpt lat="47.826266437768936" lon="11.510597476735711">
        <ele>629.320068359375</ele>
        <time>2013-06-16T12:40:35Z</time>
      </trkpt>
      <trkpt lat="47.826387975364923" lon="11.510193217545748">
        <ele>632.2041015625</ele>
        <time>2013-06-16T12:40:43Z</time>
      </trkpt>
      <trkpt lat="47.826443631201982" lon="11.509905215352774">
        <ele>631.723388671875</ele>
        <time>2013-06-16T12:40:48Z</time>
      </trkpt>
      <trkpt lat="47.826619232073426" lon="11.509898761287332">
        <ele>629.80078125</ele>
        <time>2013-06-16T12:40:54Z</time>
      </trkpt>
      <trkpt lat="47.826772788539529" lon="11.509874789044261">
        <ele>631.723388671875</ele>
        <time>2013-06-16T12:41:01Z</time>
      </trkpt>
      <trkpt lat="47.826880915090442" lon="11.509901778772473">
        <ele>633.165283203125</ele>
        <time>2013-06-16T12:41:08Z</time>
      </trkpt>
      <trkpt lat="47.827027682214975" lon="11.509948885068297">
        <ele>634.126708984375</ele>
        <time>2013-06-16T12:41:16Z</time>
      </trkpt>
      <trkpt lat="47.827172689139843" lon="11.509988447651267">
        <ele>637.0107421875</ele>
        <time>2013-06-16T12:41:23Z</time>
      </trkpt>
      <trkpt lat="47.827385002747178" lon="11.510031698271632">
        <ele>638.93359375</ele>
        <time>2013-06-16T12:41:33Z</time>
      </trkpt>
      <trkpt lat="47.827666299417615" lon="11.510086851194501">
        <ele>641.336669921875</ele>
        <time>2013-06-16T12:41:45Z</time>
      </trkpt>
      <trkpt lat="47.827923037111759" lon="11.510130940005183">
        <ele>642.77880859375</ele>
        <time>2013-06-16T12:41:57Z</time>
      </trkpt>
      <trkpt lat="47.828180277720094" lon="11.510150386020541">
        <ele>643.739990234375</ele>
        <time>2013-06-16T12:42:08Z</time>
      </trkpt>
      <trkpt lat="47.828346490859985" lon="11.510171424597502">
        <ele>642.77880859375</ele>
        <time>2013-06-16T12:42:13Z</time>
      </trkpt>
      <trkpt lat="47.828521924093366" lon="11.510261781513691">
        <ele>641.8173828125</ele>
        <time>2013-06-16T12:42:18Z</time>
      </trkpt>
      <trkpt lat="47.828617142513394" lon="11.51026907376945">
        <ele>640.85595703125</ele>
        <time>2013-06-16T12:42:22Z</time>
      </trkpt>
      <trkpt lat="47.828745217993855" lon="11.510184584185481">
        <ele>641.8173828125</ele>
        <time>2013-06-16T12:42:25Z</time>
      </trkpt>
      <trkpt lat="47.828806154429913" lon="11.510097160935402">
        <ele>643.25927734375</ele>
        <time>2013-06-16T12:42:28Z</time>
      </trkpt>
      <trkpt lat="47.828982006758451" lon="11.509907143190503">
        <ele>644.701171875</ele>
        <time>2013-06-16T12:42:35Z</time>
      </trkpt>
      <trkpt lat="47.829080242663622" lon="11.509716622531414">
        <ele>646.6240234375</ele>
        <time>2013-06-16T12:42:44Z</time>
      </trkpt>
      <trkpt lat="47.829087870195508" lon="11.509687285870314">
        <ele>647.1044921875</ele>
        <time>2013-06-16T12:42:46Z</time>
      </trkpt>
      <trkpt lat="47.829167582094669" lon="11.509544542059302">
        <ele>648.54638671875</ele>
        <time>2013-06-16T12:42:52Z</time>
      </trkpt>
      <trkpt lat="47.829234218224883" lon="11.509474385529757">
        <ele>649.5078125</ele>
        <time>2013-06-16T12:42:59Z</time>
      </trkpt>
      <trkpt lat="47.829350391402841" lon="11.509339353069663">
        <ele>649.5078125</ele>
        <time>2013-06-16T12:43:08Z</time>
      </trkpt>
      <trkpt lat="47.829406885430217" lon="11.509319236502051">
        <ele>650.46923828125</ele>
        <time>2013-06-16T12:43:12Z</time>
      </trkpt>
      <trkpt lat="47.829443262889981" lon="11.509290570393205">
        <ele>651.430419921875</ele>
        <time>2013-06-16T12:43:16Z</time>
      </trkpt>
      <trkpt lat="47.829506462439895" lon="11.509213289245963">
        <ele>651.430419921875</ele>
        <time>2013-06-16T12:43:22Z</time>
      </trkpt>
      <trkpt lat="47.829642919823527" lon="11.50920188985765">
        <ele>651.9111328125</ele>
        <time>2013-06-16T12:43:31Z</time>
      </trkpt>
      <trkpt lat="47.829690696671605" lon="11.509184874594212">
        <ele>651.9111328125</ele>
        <time>2013-06-16T12:43:34Z</time>
      </trkpt>
      <trkpt lat="47.829813994467258" lon="11.509155873209238">
        <ele>652.87255859375</ele>
        <time>2013-06-16T12:43:40Z</time>
      </trkpt>
      <trkpt lat="47.829992696642876" lon="11.509096110239625">
        <ele>652.391845703125</ele>
        <time>2013-06-16T12:43:45Z</time>
      </trkpt>
      <trkpt lat="47.830259241163731" lon="11.509151263162494">
        <ele>651.9111328125</ele>
        <time>2013-06-16T12:43:53Z</time>
      </trkpt>
      <trkpt lat="47.830441296100616" lon="11.509197279810905">
        <ele>650.46923828125</ele>
        <time>2013-06-16T12:43:57Z</time>
      </trkpt>
      <trkpt lat="47.830822421237826" lon="11.50917598977685">
        <ele>649.988525390625</ele>
        <time>2013-06-16T12:44:03Z</time>
      </trkpt>
      <trkpt lat="47.830955358222127" lon="11.509204404428601">
        <ele>649.027099609375</ele>
        <time>2013-06-16T12:44:06Z</time>
      </trkpt>
      <trkpt lat="47.831227267161012" lon="11.509196609258652">
        <ele>646.6240234375</ele>
        <time>2013-06-16T12:44:11Z</time>
      </trkpt>
      <trkpt lat="47.831350648775697" lon="11.509193005040288">
        <ele>644.701171875</ele>
        <time>2013-06-16T12:44:13Z</time>
      </trkpt>
      <trkpt lat="47.831543264910579" lon="11.509257880970836">
        <ele>642.77880859375</ele>
        <time>2013-06-16T12:44:17Z</time>
      </trkpt>
      <trkpt lat="47.831807211041451" lon="11.509049674496055">
        <ele>642.77880859375</ele>
        <time>2013-06-16T12:44:23Z</time>
      </trkpt>
      <trkpt lat="47.832070235162973" lon="11.508788913488388">
        <ele>643.739990234375</ele>
        <time>2013-06-16T12:44:28Z</time>
      </trkpt>
      <trkpt lat="47.832297384738922" lon="11.50865999981761">
        <ele>643.25927734375</ele>
        <time>2013-06-16T12:44:32Z</time>
      </trkpt>
      <trkpt lat="47.832578681409359" lon="11.508513484150171">
        <ele>644.220703125</ele>
        <time>2013-06-16T12:44:37Z</time>
      </trkpt>
      <trkpt lat="47.832718407735229" lon="11.508246185258031">
        <ele>645.181884765625</ele>
        <time>2013-06-16T12:44:42Z</time>
      </trkpt>
      <trkpt lat="47.83290071412921" lon="11.507934127002954">
        <ele>646.6240234375</ele>
        <time>2013-06-16T12:44:46Z</time>
      </trkpt>
      <trkpt lat="47.832962488755584" lon="11.507812840864062">
        <ele>647.585205078125</ele>
        <time>2013-06-16T12:44:50Z</time>
      </trkpt>
      <trkpt lat="47.83300775103271" lon="11.507665989920497">
        <ele>649.027099609375</ele>
        <time>2013-06-16T12:44:57Z</time>
      </trkpt>
      <trkpt lat="47.833038764074445" lon="11.507538333535194">
        <ele>648.06591796875</ele>
        <time>2013-06-16T12:45:00Z</time>
      </trkpt>
      <trkpt lat="47.833178825676441" lon="11.507175816223025">
        <ele>647.585205078125</ele>
        <time>2013-06-16T12:45:05Z</time>
      </trkpt>
      <trkpt lat="47.833267506211996" lon="11.506913965567946">
        <ele>647.585205078125</ele>
        <time>2013-06-16T12:45:09Z</time>
      </trkpt>
      <trkpt lat="47.833447884768248" lon="11.506493110209703">
        <ele>646.143310546875</ele>
        <time>2013-06-16T12:45:13Z</time>
      </trkpt>
      <trkpt lat="47.833462972193956" lon="11.506318179890513">
        <ele>646.143310546875</ele>
        <time>2013-06-16T12:45:15Z</time>
      </trkpt>
      <trkpt lat="47.833472779020667" lon="11.506134197115898">
        <ele>645.66259765625</ele>
        <time>2013-06-16T12:45:18Z</time>
      </trkpt>
      <trkpt lat="47.833584928885102" lon="11.505641927942634">
        <ele>644.220703125</ele>
        <time>2013-06-16T12:45:24Z</time>
      </trkpt>
      <trkpt lat="47.833622563630342" lon="11.505388962104917">
        <ele>644.220703125</ele>
        <time>2013-06-16T12:45:27Z</time>
      </trkpt>
      <trkpt lat="47.833637818694115" lon="11.505216965451837">
        <ele>645.181884765625</ele>
        <time>2013-06-16T12:45:29Z</time>
      </trkpt>
      <trkpt lat="47.833705712109804" lon="11.50500507093966">
        <ele>644.701171875</ele>
        <time>2013-06-16T12:45:33Z</time>
      </trkpt>
      <trkpt lat="47.833852395415306" lon="11.504981517791748">
        <ele>645.66259765625</ele>
        <time>2013-06-16T12:45:37Z</time>
      </trkpt>
      <trkpt lat="47.833868572488427" lon="11.504991827532649">
        <ele>646.143310546875</ele>
        <time>2013-06-16T12:45:38Z</time>
      </trkpt>
      <trkpt lat="47.833946440368891" lon="11.505068270489573">
        <ele>647.585205078125</ele>
        <time>2013-06-16T12:45:43Z</time>
      </trkpt>
      <trkpt lat="47.833976112306118" lon="11.505173295736313">
        <ele>648.54638671875</ele>
        <time>2013-06-16T12:45:47Z</time>
      </trkpt>
      <trkpt lat="47.833986673504114" lon="11.505186203867197">
        <ele>648.54638671875</ele>
        <time>2013-06-16T12:45:48Z</time>
      </trkpt>
      <trkpt lat="47.834018357098103" lon="11.505212355405092">
        <ele>650.46923828125</ele>
        <time>2013-06-16T12:45:59Z</time>
      </trkpt>
      <trkpt lat="47.834020871669054" lon="11.50522006675601">
        <ele>650.94970703125</ele>
        <time>2013-06-16T12:46:00Z</time>
      </trkpt>
      <trkpt lat="47.834040569141507" lon="11.505274884402752">
        <ele>652.391845703125</ele>
        <time>2013-06-16T12:46:07Z</time>
      </trkpt>
      <trkpt lat="47.834047442302108" lon="11.505288546904922">
        <ele>651.9111328125</ele>
        <time>2013-06-16T12:46:08Z</time>
      </trkpt>
      <trkpt lat="47.834050627425313" lon="11.505298856645823">
        <ele>653.353271484375</ele>
        <time>2013-06-16T12:46:12Z</time>
      </trkpt>
      <trkpt lat="47.834060182794929" lon="11.505302796140313">
        <ele>654.314697265625</ele>
        <time>2013-06-16T12:46:16Z</time>
      </trkpt>
      <trkpt lat="47.834006538614631" lon="11.505086207762361">
        <ele>655.756591796875</ele>
        <time>2013-06-16T12:46:23Z</time>
      </trkpt>
      <trkpt lat="47.834113575518131" lon="11.50524596683681">
        <ele>657.198486328125</ele>
        <time>2013-06-16T12:46:31Z</time>
      </trkpt>
      <trkpt lat="47.834220193326473" lon="11.505404552444816">
        <ele>658.159912109375</ele>
        <time>2013-06-16T12:46:40Z</time>
      </trkpt>
      <trkpt lat="47.834300743415952" lon="11.505686268210411">
        <ele>657.67919921875</ele>
        <time>2013-06-16T12:46:47Z</time>
      </trkpt>
      <trkpt lat="47.834480116143823" lon="11.506023723632097">
        <ele>657.198486328125</ele>
        <time>2013-06-16T12:46:54Z</time>
      </trkpt>
      <trkpt lat="47.834683209657669" lon="11.506321197375655">
        <ele>656.7177734375</ele>
        <time>2013-06-16T12:47:01Z</time>
      </trkpt>
      <trkpt lat="47.834780272096395" lon="11.506532756611705">
        <ele>655.756591796875</ele>
        <time>2013-06-16T12:47:05Z</time>
      </trkpt>
      <trkpt lat="47.83479418605566" lon="11.506668124347925">
        <ele>655.756591796875</ele>
        <time>2013-06-16T12:47:07Z</time>
      </trkpt>
      <trkpt lat="47.834876161068678" lon="11.50698596611619">
        <ele>656.7177734375</ele>
        <time>2013-06-16T12:47:12Z</time>
      </trkpt>
      <trkpt lat="47.835284695029259" lon="11.507184281945229">
        <ele>656.7177734375</ele>
        <time>2013-06-16T12:47:18Z</time>
      </trkpt>
      <trkpt lat="47.835750309750438" lon="11.507243625819683">
        <ele>658.159912109375</ele>
        <time>2013-06-16T12:47:27Z</time>
      </trkpt>
      <trkpt lat="47.836135206744075" lon="11.507619805634022">
        <ele>659.601806640625</ele>
        <time>2013-06-16T12:47:40Z</time>
      </trkpt>
      <trkpt lat="47.836378030478954" lon="11.507848296314478">
        <ele>662.485595703125</ele>
        <time>2013-06-16T12:47:51Z</time>
      </trkpt>
      <trkpt lat="47.836663350462914" lon="11.508113835006952">
        <ele>664.888916015625</ele>
        <time>2013-06-16T12:48:05Z</time>
      </trkpt>
      <trkpt lat="47.836720179766417" lon="11.508181979879737">
        <ele>665.36962890625</ele>
        <time>2013-06-16T12:48:08Z</time>
      </trkpt>
      <trkpt lat="47.836805591359735" lon="11.508364537730813">
        <ele>666.330810546875</ele>
        <time>2013-06-16T12:48:15Z</time>
      </trkpt>
      <trkpt lat="47.836873400956392" lon="11.508410638198256">
        <ele>666.8115234375</ele>
        <time>2013-06-16T12:48:20Z</time>
      </trkpt>
      <trkpt lat="47.836887985467911" lon="11.508403094485402">
        <ele>666.8115234375</ele>
        <time>2013-06-16T12:48:21Z</time>
      </trkpt>
      <trkpt lat="47.836953196674585" lon="11.50839957408607">
        <ele>667.292236328125</ele>
        <time>2013-06-16T12:48:24Z</time>
      </trkpt>
      <trkpt lat="47.837009942159057" lon="11.508355317637324">
        <ele>666.8115234375</ele>
        <time>2013-06-16T12:48:30Z</time>
      </trkpt>
      <trkpt lat="47.837030980736017" lon="11.50835070759058">
        <ele>666.8115234375</ele>
        <time>2013-06-16T12:48:31Z</time>
      </trkpt>
      <trkpt lat="47.837287802249193" lon="11.508503342047334">
        <ele>666.330810546875</ele>
        <time>2013-06-16T12:48:38Z</time>
      </trkpt>
      <trkpt lat="47.83744546584785" lon="11.508577857166529">
        <ele>665.36962890625</ele>
        <time>2013-06-16T12:48:43Z</time>
      </trkpt>
      <trkpt lat="47.837633891031146" lon="11.508593196049333">
        <ele>664.888916015625</ele>
        <time>2013-06-16T12:48:48Z</time>
      </trkpt>
      <trkpt lat="47.837729277089238" lon="11.508605014532804">
        <ele>663.927490234375</ele>
        <time>2013-06-16T12:48:50Z</time>
      </trkpt>
      <trkpt lat="47.837834637612104" lon="11.508679445832968">
        <ele>662.96630859375</ele>
        <time>2013-06-16T12:48:53Z</time>
      </trkpt>
      <trkpt lat="47.837907057255507" lon="11.508760582655668">
        <ele>663.447021484375</ele>
        <time>2013-06-16T12:48:55Z</time>
      </trkpt>
      <trkpt lat="47.838184582069516" lon="11.508920174092054">
        <ele>661.5244140625</ele>
        <time>2013-06-16T12:49:00Z</time>
      </trkpt>
      <trkpt lat="47.838470572605729" lon="11.509134666994214">
        <ele>660.082275390625</ele>
        <time>2013-06-16T12:49:05Z</time>
      </trkpt>
      <trkpt lat="47.838755138218403" lon="11.509170709177852">
        <ele>659.601806640625</ele>
        <time>2013-06-16T12:49:10Z</time>
      </trkpt>
      <trkpt lat="47.838991088792682" lon="11.509209685027599">
        <ele>659.601806640625</ele>
        <time>2013-06-16T12:49:12Z</time>
      </trkpt>
      <trkpt lat="47.83924313262105" lon="11.509416131302714">
        <ele>658.640380859375</ele>
        <time>2013-06-16T12:49:17Z</time>
      </trkpt>
      <trkpt lat="47.839557453989983" lon="11.509522832930088">
        <ele>658.159912109375</ele>
        <time>2013-06-16T12:49:22Z</time>
      </trkpt>
      <trkpt lat="47.83969265408814" lon="11.509503135457635">
        <ele>658.159912109375</ele>
        <time>2013-06-16T12:49:24Z</time>
      </trkpt>
      <trkpt lat="47.840056763961911" lon="11.509407665580511">
        <ele>657.67919921875</ele>
        <time>2013-06-16T12:49:30Z</time>
      </trkpt>
      <trkpt lat="47.840249547734857" lon="11.509374054148793">
        <ele>659.601806640625</ele>
        <time>2013-06-16T12:49:34Z</time>
      </trkpt>
      <trkpt lat="47.840444091707468" lon="11.509380089119077">
        <ele>661.5244140625</ele>
        <time>2013-06-16T12:49:39Z</time>
      </trkpt>
      <trkpt lat="47.840683478862047" lon="11.509343041107059">
        <ele>662.96630859375</ele>
        <time>2013-06-16T12:49:46Z</time>
      </trkpt>
      <trkpt lat="47.840840136632323" lon="11.509304316714406">
        <ele>662.96630859375</ele>
        <time>2013-06-16T12:49:51Z</time>
      </trkpt>
      <trkpt lat="47.840922446921468" lon="11.509304400533438">
        <ele>662.005126953125</ele>
        <time>2013-06-16T12:49:53Z</time>
      </trkpt>
      <trkpt lat="47.841130737215281" lon="11.50929325260222">
        <ele>661.5244140625</ele>
        <time>2013-06-16T12:49:57Z</time>
      </trkpt>
      <trkpt lat="47.841243892908096" lon="11.509256791323423">
        <ele>661.043701171875</ele>
        <time>2013-06-16T12:49:59Z</time>
      </trkpt>
      <trkpt lat="47.84146006219089" lon="11.509161405265331">
        <ele>660.56298828125</ele>
        <time>2013-06-16T12:50:03Z</time>
      </trkpt>
      <trkpt lat="47.841795589774847" lon="11.509099463000894">
        <ele>660.082275390625</ele>
        <time>2013-06-16T12:50:10Z</time>
      </trkpt>
      <trkpt lat="47.841888125985861" lon="11.509098121896386">
        <ele>659.601806640625</ele>
        <time>2013-06-16T12:50:12Z</time>
      </trkpt>
      <trkpt lat="47.84212751314044" lon="11.509010614827275">
        <ele>659.12109375</ele>
        <time>2013-06-16T12:50:17Z</time>
      </trkpt>
      <trkpt lat="47.842309568077326" lon="11.508897459134459">
        <ele>655.756591796875</ele>
        <time>2013-06-16T12:50:21Z</time>
      </trkpt>
      <trkpt lat="47.842375114560127" lon="11.50885303504765">
        <ele>655.756591796875</ele>
        <time>2013-06-16T12:50:22Z</time>
      </trkpt>
      <trkpt lat="47.842449210584164" lon="11.508803581818938">
        <ele>654.795166015625</ele>
        <time>2013-06-16T12:50:23Z</time>
      </trkpt>
      <trkpt lat="47.84260930493474" lon="11.508721606805921">
        <ele>654.795166015625</ele>
        <time>2013-06-16T12:50:25Z</time>
      </trkpt>
      <trkpt lat="47.842907700687647" lon="11.508749350905418">
        <ele>651.9111328125</ele>
        <time>2013-06-16T12:50:29Z</time>
      </trkpt>
      <trkpt lat="47.843103166669607" lon="11.508793104439974">
        <ele>649.988525390625</ele>
        <time>2013-06-16T12:50:31Z</time>
      </trkpt>
      <trkpt lat="47.843330064788461" lon="11.508789835497737">
        <ele>649.5078125</ele>
        <time>2013-06-16T12:50:33Z</time>
      </trkpt>
      <trkpt lat="47.843539360910654" lon="11.508781453594565">
        <ele>648.06591796875</ele>
        <time>2013-06-16T12:50:35Z</time>
      </trkpt>
      <trkpt lat="47.843873128294945" lon="11.508673494681716">
        <ele>647.585205078125</ele>
        <time>2013-06-16T12:50:39Z</time>
      </trkpt>
      <trkpt lat="47.844045711681247" lon="11.508507113903761">
        <ele>647.1044921875</ele>
        <time>2013-06-16T12:50:42Z</time>
      </trkpt>
      <trkpt lat="47.844226844608784" lon="11.50839320383966">
        <ele>647.585205078125</ele>
        <time>2013-06-16T12:50:47Z</time>
      </trkpt>
      <trkpt lat="47.84463613294065" lon="11.50809564627707">
        <ele>647.1044921875</ele>
        <time>2013-06-16T12:50:53Z</time>
      </trkpt>
      <trkpt lat="47.844884572550654" lon="11.507961787283421">
        <ele>646.6240234375</ele>
        <time>2013-06-16T12:50:57Z</time>
      </trkpt>
      <trkpt lat="47.845253711566329" lon="11.507635479792953">
        <ele>646.143310546875</ele>
        <time>2013-06-16T12:51:02Z</time>
      </trkpt>
      <trkpt lat="47.845639111474156" lon="11.506817825138569">
        <ele>644.220703125</ele>
        <time>2013-06-16T12:51:11Z</time>
      </trkpt>
      <trkpt lat="47.845739359036088" lon="11.506676422432065">
        <ele>644.220703125</ele>
        <time>2013-06-16T12:51:13Z</time>
      </trkpt>
      <trkpt lat="47.845903225243092" lon="11.50647584348917">
        <ele>646.143310546875</ele>
        <time>2013-06-16T12:51:17Z</time>
      </trkpt>
      <trkpt lat="47.846056194975972" lon="11.506276186555624">
        <ele>647.585205078125</ele>
        <time>2013-06-16T12:51:22Z</time>
      </trkpt>
      <trkpt lat="47.846121825277805" lon="11.506208293139935">
        <ele>647.585205078125</ele>
        <time>2013-06-16T12:51:24Z</time>
      </trkpt>
      <trkpt lat="47.846216121688485" lon="11.506147189065814">
        <ele>647.1044921875</ele>
        <time>2013-06-16T12:51:26Z</time>
      </trkpt>
      <trkpt lat="47.846435643732548" lon="11.505872011184692">
        <ele>645.181884765625</ele>
        <time>2013-06-16T12:51:31Z</time>
      </trkpt>
      <trkpt lat="47.84658039920032" lon="11.505479235202074">
        <ele>644.701171875</ele>
        <time>2013-06-16T12:51:35Z</time>
      </trkpt>
      <trkpt lat="47.846783408895135" lon="11.504569966346025">
        <ele>640.85595703125</ele>
        <time>2013-06-16T12:51:42Z</time>
      </trkpt>
      <trkpt lat="47.847032016143203" lon="11.503808051347733">
        <ele>637.97216796875</ele>
        <time>2013-06-16T12:51:49Z</time>
      </trkpt>
      <trkpt lat="47.847116086632013" lon="11.503592552617192">
        <ele>637.0107421875</ele>
        <time>2013-06-16T12:51:51Z</time>
      </trkpt>
      <trkpt lat="47.847209628671408" lon="11.503391806036234">
        <ele>636.049560546875</ele>
        <time>2013-06-16T12:51:53Z</time>
      </trkpt>
      <trkpt lat="47.847319263964891" lon="11.503066001459956">
        <ele>634.607421875</ele>
        <time>2013-06-16T12:51:56Z</time>
      </trkpt>
      <trkpt lat="47.847403753548861" lon="11.502125216647983">
        <ele>632.2041015625</ele>
        <time>2013-06-16T12:52:03Z</time>
      </trkpt>
      <trkpt lat="47.847481286153197" lon="11.50176596827805">
        <ele>631.242919921875</ele>
        <time>2013-06-16T12:52:06Z</time>
      </trkpt>
      <trkpt lat="47.847710279747844" lon="11.501524234190583">
        <ele>627.878173828125</ele>
        <time>2013-06-16T12:52:10Z</time>
      </trkpt>
      <trkpt lat="47.848096434026957" lon="11.50133547373116">
        <ele>623.552490234375</ele>
        <time>2013-06-16T12:52:15Z</time>
      </trkpt>
      <trkpt lat="47.848278488963842" lon="11.501254588365555">
        <ele>621.149169921875</ele>
        <time>2013-06-16T12:52:17Z</time>
      </trkpt>
      <trkpt lat="47.848685933277011" lon="11.500998772680759">
        <ele>615.86181640625</ele>
        <time>2013-06-16T12:52:21Z</time>
      </trkpt>
      <trkpt lat="47.848772350698709" lon="11.500945379957557">
        <ele>615.86181640625</ele>
        <time>2013-06-16T12:52:22Z</time>
      </trkpt>
      <trkpt lat="47.84893068484962" lon="11.500905063003302">
        <ele>614.419677734375</ele>
        <time>2013-06-16T12:52:25Z</time>
      </trkpt>
      <trkpt lat="47.849053731188178" lon="11.500943033024669">
        <ele>613.93896484375</ele>
        <time>2013-06-16T12:52:29Z</time>
      </trkpt>
      <trkpt lat="47.84913495182991" lon="11.500955773517489">
        <ele>613.93896484375</ele>
        <time>2013-06-16T12:52:31Z</time>
      </trkpt>
      <trkpt lat="47.849454889073968" lon="11.501040430739522">
        <ele>614.900390625</ele>
        <time>2013-06-16T12:52:38Z</time>
      </trkpt>
      <trkpt lat="47.849893514066935" lon="11.501261880621314">
        <ele>614.419677734375</ele>
        <time>2013-06-16T12:52:47Z</time>
      </trkpt>
      <trkpt lat="47.8499436378479" lon="11.501302532851696">
        <ele>615.381103515625</ele>
        <time>2013-06-16T12:52:48Z</time>
      </trkpt>
      <trkpt lat="47.850102223455906" lon="11.50140730664134">
        <ele>614.419677734375</ele>
        <time>2013-06-16T12:52:51Z</time>
      </trkpt>
      <trkpt lat="47.850362900644541" lon="11.501585505902767">
        <ele>615.381103515625</ele>
        <time>2013-06-16T12:52:56Z</time>
      </trkpt>
      <trkpt lat="47.850425262004137" lon="11.50169312953949">
        <ele>614.900390625</ele>
        <time>2013-06-16T12:53:00Z</time>
      </trkpt>
      <trkpt lat="47.850384274497628" lon="11.501793209463358">
        <ele>614.900390625</ele>
        <time>2013-06-16T12:53:02Z</time>
      </trkpt>
      <trkpt lat="47.850250918418169" lon="11.501987418159842">
        <ele>614.900390625</ele>
        <time>2013-06-16T12:53:06Z</time>
      </trkpt>
      <trkpt lat="47.850184952840209" lon="11.502084815874696">
        <ele>614.419677734375</ele>
        <time>2013-06-16T12:53:08Z</time>
      </trkpt>
      <trkpt lat="47.8500887285918" lon="11.502334345132113">
        <ele>615.381103515625</ele>
        <time>2013-06-16T12:53:12Z</time>
      </trkpt>
      <trkpt lat="47.849918827414513" lon="11.502672806382179">
        <ele>615.381103515625</ele>
        <time>2013-06-16T12:53:18Z</time>
      </trkpt>
      <trkpt lat="47.849872224032879" lon="11.502804905176163">
        <ele>615.381103515625</ele>
        <time>2013-06-16T12:53:20Z</time>
      </trkpt>
      <trkpt lat="47.849804162979126" lon="11.503001125529408">
        <ele>615.381103515625</ele>
        <time>2013-06-16T12:53:23Z</time>
      </trkpt>
      <trkpt lat="47.849683631211519" lon="11.503245374187827">
        <ele>614.900390625</ele>
        <time>2013-06-16T12:53:27Z</time>
      </trkpt>
      <trkpt lat="47.84951264038682" lon="11.50371459312737">
        <ele>615.381103515625</ele>
        <time>2013-06-16T12:53:34Z</time>
      </trkpt>
      <trkpt lat="47.849415494129062" lon="11.50392129085958">
        <ele>616.34228515625</ele>
        <time>2013-06-16T12:53:37Z</time>
      </trkpt>
      <trkpt lat="47.849324718117714" lon="11.504076439887285">
        <ele>616.822998046875</ele>
        <time>2013-06-16T12:53:40Z</time>
      </trkpt>
      <trkpt lat="47.849340979009867" lon="11.504250783473253">
        <ele>615.86181640625</ele>
        <time>2013-06-16T12:53:44Z</time>
      </trkpt>
      <trkpt lat="47.849450446665287" lon="11.504411967471242">
        <ele>615.86181640625</ele>
        <time>2013-06-16T12:53:47Z</time>
      </trkpt>
      <trkpt lat="47.849514819681644" lon="11.50454917922616">
        <ele>615.381103515625</ele>
        <time>2013-06-16T12:53:49Z</time>
      </trkpt>
      <trkpt lat="47.849672231823206" lon="11.504808263853192">
        <ele>615.86181640625</ele>
        <time>2013-06-16T12:53:54Z</time>
      </trkpt>
      <trkpt lat="47.849798714742064" lon="11.505132978782058">
        <ele>616.34228515625</ele>
        <time>2013-06-16T12:53:59Z</time>
      </trkpt>
      <trkpt lat="47.849807096645236" lon="11.505347890779376">
        <ele>616.34228515625</ele>
        <time>2013-06-16T12:54:02Z</time>
      </trkpt>
      <trkpt lat="47.849952774122357" lon="11.505777714774013">
        <ele>616.34228515625</ele>
        <time>2013-06-16T12:54:08Z</time>
      </trkpt>
      <trkpt lat="47.8500369284302" lon="11.506001343950629">
        <ele>616.34228515625</ele>
        <time>2013-06-16T12:54:11Z</time>
      </trkpt>
      <trkpt lat="47.850206578150392" lon="11.506177112460136">
        <ele>615.381103515625</ele>
        <time>2013-06-16T12:54:15Z</time>
      </trkpt>
      <trkpt lat="47.850573118776083" lon="11.50625984184444">
        <ele>615.381103515625</ele>
        <time>2013-06-16T12:54:22Z</time>
      </trkpt>
      <trkpt lat="47.850719466805458" lon="11.506236372515559">
        <ele>614.900390625</ele>
        <time>2013-06-16T12:54:25Z</time>
      </trkpt>
      <trkpt lat="47.850927757099271" lon="11.506195720285177">
        <ele>615.381103515625</ele>
        <time>2013-06-16T12:54:29Z</time>
      </trkpt>
      <trkpt lat="47.851301170885563" lon="11.506149955093861">
        <ele>614.419677734375</ele>
        <time>2013-06-16T12:54:36Z</time>
      </trkpt>
      <trkpt lat="47.851517256349325" lon="11.50613721460104">
        <ele>614.419677734375</ele>
        <time>2013-06-16T12:54:40Z</time>
      </trkpt>
      <trkpt lat="47.851753793656826" lon="11.506082816049457">
        <ele>614.419677734375</ele>
        <time>2013-06-16T12:54:44Z</time>
      </trkpt>
      <trkpt lat="47.85190693102777" lon="11.505948537960649">
        <ele>614.419677734375</ele>
        <time>2013-06-16T12:54:48Z</time>
      </trkpt>
      <trkpt lat="47.851958479732275" lon="11.505749467760324">
        <ele>613.45849609375</ele>
        <time>2013-06-16T12:54:51Z</time>
      </trkpt>
      <trkpt lat="47.852084124460816" lon="11.505369013175368">
        <ele>613.45849609375</ele>
        <time>2013-06-16T12:54:57Z</time>
      </trkpt>
      <trkpt lat="47.852247320115566" lon="11.50503440760076">
        <ele>613.45849609375</ele>
        <time>2013-06-16T12:55:03Z</time>
      </trkpt>
      <trkpt lat="47.852340191602707" lon="11.504873726516962">
        <ele>612.977783203125</ele>
        <time>2013-06-16T12:55:06Z</time>
      </trkpt>
      <trkpt lat="47.852508332580328" lon="11.504665855318308">
        <ele>613.45849609375</ele>
        <time>2013-06-16T12:55:10Z</time>
      </trkpt>
      <trkpt lat="47.852647136896849" lon="11.504225553944707">
        <ele>612.977783203125</ele>
        <time>2013-06-16T12:55:16Z</time>
      </trkpt>
      <trkpt lat="47.852767333388329" lon="11.504035536199808">
        <ele>612.977783203125</ele>
        <time>2013-06-16T12:55:20Z</time>
      </trkpt>
      <trkpt lat="47.852813182398677" lon="11.504133520647883">
        <ele>612.977783203125</ele>
        <time>2013-06-16T12:55:23Z</time>
      </trkpt>
      <trkpt lat="47.852983251214027" lon="11.504416158422828">
        <ele>612.4970703125</ele>
        <time>2013-06-16T12:55:29Z</time>
      </trkpt>
      <trkpt lat="47.853057766333222" lon="11.504527553915977">
        <ele>612.4970703125</ele>
        <time>2013-06-16T12:55:31Z</time>
      </trkpt>
      <trkpt lat="47.853235797956586" lon="11.504601985216141">
        <ele>612.977783203125</ele>
        <time>2013-06-16T12:55:35Z</time>
      </trkpt>
      <trkpt lat="47.853422714397311" lon="11.50458094663918">
        <ele>612.977783203125</ele>
        <time>2013-06-16T12:55:39Z</time>
      </trkpt>
      <trkpt lat="47.853482225909829" lon="11.50486433878541">
        <ele>613.45849609375</ele>
        <time>2013-06-16T12:55:44Z</time>
      </trkpt>
      <trkpt lat="47.85353260114789" lon="11.505078664049506">
        <ele>613.45849609375</ele>
        <time>2013-06-16T12:55:47Z</time>
      </trkpt>
      <trkpt lat="47.85360150039196" lon="11.505293911322951">
        <ele>613.45849609375</ele>
        <time>2013-06-16T12:55:50Z</time>
      </trkpt>
      <trkpt lat="47.853869469836354" lon="11.505699511617422">
        <ele>612.977783203125</ele>
        <time>2013-06-16T12:55:57Z</time>
      </trkpt>
      <trkpt lat="47.854257468134165" lon="11.506344079971313">
        <ele>612.977783203125</ele>
        <time>2013-06-16T12:56:07Z</time>
      </trkpt>
      <trkpt lat="47.854598695412278" lon="11.506903907284141">
        <ele>611.535888671875</ele>
        <time>2013-06-16T12:56:16Z</time>
      </trkpt>
      <trkpt lat="47.854710510000587" lon="11.507095936685801">
        <ele>612.4970703125</ele>
        <time>2013-06-16T12:56:19Z</time>
      </trkpt>
      <trkpt lat="47.854994740337133" lon="11.507619470357895">
        <ele>612.0166015625</ele>
        <time>2013-06-16T12:56:27Z</time>
      </trkpt>
      <trkpt lat="47.855404112488031" lon="11.508363112807274">
        <ele>611.05517578125</ele>
        <time>2013-06-16T12:56:38Z</time>
      </trkpt>
      <trkpt lat="47.855441076681018" lon="11.508433436974883">
        <ele>611.05517578125</ele>
        <time>2013-06-16T12:56:39Z</time>
      </trkpt>
      <trkpt lat="47.855643667280674" lon="11.508831577375531">
        <ele>611.535888671875</ele>
        <time>2013-06-16T12:56:45Z</time>
      </trkpt>
      <trkpt lat="47.855707202106714" lon="11.508941799402237">
        <ele>611.535888671875</ele>
        <time>2013-06-16T12:56:47Z</time>
      </trkpt>
      <trkpt lat="47.855790937319398" lon="11.508966023102403">
        <ele>612.0166015625</ele>
        <time>2013-06-16T12:56:51Z</time>
      </trkpt>
      <trkpt lat="47.855803593993187" lon="11.508949007838964">
        <ele>611.05517578125</ele>
        <time>2013-06-16T12:56:52Z</time>
      </trkpt>
      <trkpt lat="47.855917839333415" lon="11.508876839652658">
        <ele>610.574462890625</ele>
        <time>2013-06-16T12:56:55Z</time>
      </trkpt>
      <trkpt lat="47.856017667800188" lon="11.508782291784883">
        <ele>611.05517578125</ele>
        <time>2013-06-16T12:56:57Z</time>
      </trkpt>
      <trkpt lat="47.856206763535738" lon="11.508623957633972">
        <ele>611.05517578125</ele>
        <time>2013-06-16T12:57:01Z</time>
      </trkpt>
      <trkpt lat="47.856369121000171" lon="11.508460007607937">
        <ele>611.05517578125</ele>
        <time>2013-06-16T12:57:05Z</time>
      </trkpt>
      <trkpt lat="47.856508763507009" lon="11.50821877643466">
        <ele>610.574462890625</ele>
        <time>2013-06-16T12:57:09Z</time>
      </trkpt>
      <trkpt lat="47.856692830100656" lon="11.508037811145186">
        <ele>611.05517578125</ele>
        <time>2013-06-16T12:57:13Z</time>
      </trkpt>
      <trkpt lat="47.856742199510336" lon="11.507919542491436">
        <ele>610.574462890625</ele>
        <time>2013-06-16T12:57:15Z</time>
      </trkpt>
      <trkpt lat="47.856868850067258" lon="11.507570687681437">
        <ele>610.574462890625</ele>
        <time>2013-06-16T12:57:20Z</time>
      </trkpt>
      <trkpt lat="47.856919728219509" lon="11.507442276924849">
        <ele>610.09375</ele>
        <time>2013-06-16T12:57:22Z</time>
      </trkpt>
      <trkpt lat="47.856971947476268" lon="11.507316380739212">
        <ele>610.09375</ele>
        <time>2013-06-16T12:57:24Z</time>
      </trkpt>
      <trkpt lat="47.857109913602471" lon="11.50708126835525">
        <ele>609.61328125</ele>
        <time>2013-06-16T12:57:28Z</time>
      </trkpt>
      <trkpt lat="47.857200270518661" lon="11.506996192038059">
        <ele>608.65185546875</ele>
        <time>2013-06-16T12:57:30Z</time>
      </trkpt>
      <trkpt lat="47.857327088713646" lon="11.506795780733228">
        <ele>611.05517578125</ele>
        <time>2013-06-16T12:57:34Z</time>
      </trkpt>
      <trkpt lat="47.857400514185429" lon="11.506568463519216">
        <ele>611.535888671875</ele>
        <time>2013-06-16T12:57:39Z</time>
      </trkpt>
      <trkpt lat="47.857521800324321" lon="11.506365370005369">
        <ele>610.09375</ele>
        <time>2013-06-16T12:57:43Z</time>
      </trkpt>
      <trkpt lat="47.857547029852867" lon="11.506230672821403">
        <ele>609.61328125</ele>
        <time>2013-06-16T12:57:46Z</time>
      </trkpt>
      <trkpt lat="47.857606625184417" lon="11.505772769451141">
        <ele>609.61328125</ele>
        <time>2013-06-16T12:57:53Z</time>
      </trkpt>
      <trkpt lat="47.857571505010128" lon="11.505481246858835">
        <ele>608.65185546875</ele>
        <time>2013-06-16T12:57:57Z</time>
      </trkpt>
      <trkpt lat="47.857573684304953" lon="11.505417879670858">
        <ele>608.65185546875</ele>
        <time>2013-06-16T12:57:58Z</time>
      </trkpt>
      <trkpt lat="47.857550131157041" lon="11.505131889134645">
        <ele>609.132568359375</ele>
        <time>2013-06-16T12:58:03Z</time>
      </trkpt>
      <trkpt lat="47.857508640736341" lon="11.505005238577724">
        <ele>609.132568359375</ele>
        <time>2013-06-16T12:58:05Z</time>
      </trkpt>
      <trkpt lat="47.857485674321651" lon="11.504768365994096">
        <ele>609.132568359375</ele>
        <time>2013-06-16T12:58:09Z</time>
      </trkpt>
      <trkpt lat="47.857429096475244" lon="11.504372404888272">
        <ele>608.65185546875</ele>
        <time>2013-06-16T12:58:14Z</time>
      </trkpt>
      <trkpt lat="47.857426749542356" lon="11.50419152341783">
        <ele>609.61328125</ele>
        <time>2013-06-16T12:58:16Z</time>
      </trkpt>
      <trkpt lat="47.857415685430169" lon="11.503777792677283">
        <ele>609.132568359375</ele>
        <time>2013-06-16T12:58:22Z</time>
      </trkpt>
      <trkpt lat="47.857379727065563" lon="11.503750300034881">
        <ele>609.132568359375</ele>
        <time>2013-06-16T12:58:31Z</time>
      </trkpt>
      <trkpt lat="47.85738006234169" lon="11.503700092434883">
        <ele>608.17138671875</ele>
        <time>2013-06-16T12:58:38Z</time>
      </trkpt>
      <trkpt lat="47.85739959217608" lon="11.503493897616863">
        <ele>608.17138671875</ele>
        <time>2013-06-16T12:58:43Z</time>
      </trkpt>
      <trkpt lat="47.857447536662221" lon="11.503358529880643">
        <ele>608.17138671875</ele>
        <time>2013-06-16T12:58:46Z</time>
      </trkpt>
      <trkpt lat="47.857546024024487" lon="11.503008669242263">
        <ele>607.690673828125</ele>
        <time>2013-06-16T12:58:52Z</time>
      </trkpt>
      <trkpt lat="47.857587346807122" lon="11.502885706722736">
        <ele>608.17138671875</ele>
        <time>2013-06-16T12:58:54Z</time>
      </trkpt>
      <trkpt lat="47.85772162489593" lon="11.502635506913066">
        <ele>607.690673828125</ele>
        <time>2013-06-16T12:58:59Z</time>
      </trkpt>
      <trkpt lat="47.857821537181735" lon="11.502434676513076">
        <ele>608.17138671875</ele>
        <time>2013-06-16T12:59:03Z</time>
      </trkpt>
      <trkpt lat="47.857841905206442" lon="11.502377763390541">
        <ele>607.690673828125</ele>
        <time>2013-06-16T12:59:04Z</time>
      </trkpt>
      <trkpt lat="47.857925724238157" lon="11.502024047076702">
        <ele>609.132568359375</ele>
        <time>2013-06-16T12:59:09Z</time>
      </trkpt>
      <trkpt lat="47.857926227152348" lon="11.501964535564184">
        <ele>609.132568359375</ele>
        <time>2013-06-16T12:59:10Z</time>
      </trkpt>
      <trkpt lat="47.857970567420125" lon="11.501667480915785">
        <ele>609.61328125</ele>
        <time>2013-06-16T12:59:15Z</time>
      </trkpt>
      <trkpt lat="47.857997054234147" lon="11.501368917524815">
        <ele>609.61328125</ele>
        <time>2013-06-16T12:59:21Z</time>
      </trkpt>
      <trkpt lat="47.857992695644498" lon="11.501225586980581">
        <ele>609.61328125</ele>
        <time>2013-06-16T12:59:23Z</time>
      </trkpt>
      <trkpt lat="47.857992276549339" lon="11.500639943405986">
        <ele>609.61328125</ele>
        <time>2013-06-16T12:59:30Z</time>
      </trkpt>
      <trkpt lat="47.858074586838484" lon="11.500372057780623">
        <ele>609.61328125</ele>
        <time>2013-06-16T12:59:34Z</time>
      </trkpt>
      <trkpt lat="47.858009040355682" lon="11.50020282715559">
        <ele>610.09375</ele>
        <time>2013-06-16T12:59:37Z</time>
      </trkpt>
      <trkpt lat="47.857996048405766" lon="11.500034183263779">
        <ele>610.09375</ele>
        <time>2013-06-16T12:59:39Z</time>
      </trkpt>
      <trkpt lat="47.858098559081554" lon="11.499766884371638">
        <ele>609.61328125</ele>
        <time>2013-06-16T12:59:43Z</time>
      </trkpt>
      <trkpt lat="47.858184222131968" lon="11.499491035938263">
        <ele>609.61328125</ele>
        <time>2013-06-16T12:59:47Z</time>
      </trkpt>
      <trkpt lat="47.858276423066854" lon="11.499251732602715">
        <ele>609.61328125</ele>
        <time>2013-06-16T12:59:51Z</time>
      </trkpt>
      <trkpt lat="47.858355548232794" lon="11.499127931892872">
        <ele>609.61328125</ele>
        <time>2013-06-16T12:59:54Z</time>
      </trkpt>
      <trkpt lat="47.858512960374355" lon="11.49893632158637">
        <ele>609.61328125</ele>
        <time>2013-06-16T12:59:59Z</time>
      </trkpt>
      <trkpt lat="47.858570460230112" lon="11.498501049354672">
        <ele>609.61328125</ele>
        <time>2013-06-16T13:00:04Z</time>
      </trkpt>
      <trkpt lat="47.858506925404072" lon="11.498161749914289">
        <ele>609.61328125</ele>
        <time>2013-06-16T13:00:07Z</time>
      </trkpt>
      <trkpt lat="47.858450263738632" lon="11.497991262003779">
        <ele>608.65185546875</ele>
        <time>2013-06-16T13:00:09Z</time>
      </trkpt>
      <trkpt lat="47.85842570476234" lon="11.49749681353569">
        <ele>609.132568359375</ele>
        <time>2013-06-16T13:00:14Z</time>
      </trkpt>
      <trkpt lat="47.858439786359668" lon="11.497312495484948">
        <ele>609.132568359375</ele>
        <time>2013-06-16T13:00:16Z</time>
      </trkpt>
      <trkpt lat="47.858464596793056" lon="11.497010244056582">
        <ele>609.61328125</ele>
        <time>2013-06-16T13:00:20Z</time>
      </trkpt>
      <trkpt lat="47.858535004779696" lon="11.496713105589151">
        <ele>609.61328125</ele>
        <time>2013-06-16T13:00:24Z</time>
      </trkpt>
      <trkpt lat="47.85858747549355" lon="11.496483944356441">
        <ele>608.65185546875</ele>
        <time>2013-06-16T13:00:27Z</time>
      </trkpt>
      <trkpt lat="47.858649082481861" lon="11.496111704036593">
        <ele>609.132568359375</ele>
        <time>2013-06-16T13:00:31Z</time>
      </trkpt>
      <trkpt lat="47.858585463836789" lon="11.495767710730433">
        <ele>608.17138671875</ele>
        <time>2013-06-16T13:00:35Z</time>
      </trkpt>
      <trkpt lat="47.858565431088209" lon="11.495512733235955">
        <ele>608.17138671875</ele>
        <time>2013-06-16T13:00:38Z</time>
      </trkpt>
      <trkpt lat="47.85872527398169" lon="11.494993725791574">
        <ele>608.17138671875</ele>
        <time>2013-06-16T13:00:45Z</time>
      </trkpt>
      <trkpt lat="47.859063483774662" lon="11.493901563808322">
        <ele>607.690673828125</ele>
        <time>2013-06-16T13:00:59Z</time>
      </trkpt>
      <trkpt lat="47.859281580895185" lon="11.493361769244075">
        <ele>607.690673828125</ele>
        <time>2013-06-16T13:01:07Z</time>
      </trkpt>
      <trkpt lat="47.85928619094193" lon="11.493332264944911">
        <ele>607.690673828125</ele>
        <time>2013-06-16T13:01:12Z</time>
      </trkpt>
      <trkpt lat="47.85935022868216" lon="11.493296138942242">
        <ele>607.690673828125</ele>
        <time>2013-06-16T13:01:45Z</time>
      </trkpt>
      <trkpt lat="47.859393479302526" lon="11.493429662659764">
        <ele>607.690673828125</ele>
        <time>2013-06-16T13:01:50Z</time>
      </trkpt>
      <trkpt lat="47.859400017186999" lon="11.493463777005672">
        <ele>607.690673828125</ele>
        <time>2013-06-16T13:01:51Z</time>
      </trkpt>
      <trkpt lat="47.85951292142272" lon="11.493656812235713">
        <ele>608.17138671875</ele>
        <time>2013-06-16T13:01:57Z</time>
      </trkpt>
      <trkpt lat="47.859571594744921" lon="11.493791593238711">
        <ele>607.690673828125</ele>
        <time>2013-06-16T13:02:00Z</time>
      </trkpt>
      <trkpt lat="47.859623814001679" lon="11.493913969025016">
        <ele>607.2099609375</ele>
        <time>2013-06-16T13:02:03Z</time>
      </trkpt>
      <trkpt lat="47.859796397387981" lon="11.494243377819657">
        <ele>607.2099609375</ele>
        <time>2013-06-16T13:02:10Z</time>
      </trkpt>
      <trkpt lat="47.859869739040732" lon="11.494454517960548">
        <ele>607.690673828125</ele>
        <time>2013-06-16T13:02:14Z</time>
      </trkpt>
      <trkpt lat="47.859970238059759" lon="11.494663059711456">
        <ele>607.690673828125</ele>
        <time>2013-06-16T13:02:18Z</time>
      </trkpt>
      <trkpt lat="47.860209792852402" lon="11.494768168777227">
        <ele>606.729248046875</ele>
        <time>2013-06-16T13:02:23Z</time>
      </trkpt>
      <trkpt lat="47.860354380682111" lon="11.494713854044676">
        <ele>605.76806640625</ele>
        <time>2013-06-16T13:02:26Z</time>
      </trkpt>
      <trkpt lat="47.860477678477764" lon="11.494605224579573">
        <ele>605.76806640625</ele>
        <time>2013-06-16T13:02:30Z</time>
      </trkpt>
      <trkpt lat="47.860697451978922" lon="11.494338177144527">
        <ele>605.76806640625</ele>
        <time>2013-06-16T13:02:36Z</time>
      </trkpt>
      <trkpt lat="47.860920410603285" lon="11.493939366191626">
        <ele>605.76806640625</ele>
        <time>2013-06-16T13:02:42Z</time>
      </trkpt>
      <trkpt lat="47.861099867150187" lon="11.49366837926209">
        <ele>605.76806640625</ele>
        <time>2013-06-16T13:02:46Z</time>
      </trkpt>
      <trkpt lat="47.861271863803267" lon="11.493443660438061">
        <ele>604.806640625</ele>
        <time>2013-06-16T13:02:50Z</time>
      </trkpt>
      <trkpt lat="47.861478226259351" lon="11.493046944960952">
        <ele>604.806640625</ele>
        <time>2013-06-16T13:02:56Z</time>
      </trkpt>
      <trkpt lat="47.861734963953495" lon="11.492832452058792">
        <ele>604.806640625</ele>
        <time>2013-06-16T13:03:01Z</time>
      </trkpt>
      <trkpt lat="47.861954234540462" lon="11.492735389620066">
        <ele>605.287353515625</ele>
        <time>2013-06-16T13:03:05Z</time>
      </trkpt>
      <trkpt lat="47.862307112663984" lon="11.492695240303874">
        <ele>605.287353515625</ele>
        <time>2013-06-16T13:03:11Z</time>
      </trkpt>
      <trkpt lat="47.862361846491694" lon="11.492672190070152">
        <ele>605.287353515625</ele>
        <time>2013-06-16T13:03:12Z</time>
      </trkpt>
      <trkpt lat="47.862728806212544" lon="11.492628687992692">
        <ele>605.76806640625</ele>
        <time>2013-06-16T13:03:18Z</time>
      </trkpt>
      <trkpt lat="47.862842800095677" lon="11.492598932236433">
        <ele>605.287353515625</ele>
        <time>2013-06-16T13:03:20Z</time>
      </trkpt>
      <trkpt lat="47.863158462569118" lon="11.492380416020751">
        <ele>605.76806640625</ele>
        <time>2013-06-16T13:03:27Z</time>
      </trkpt>
      <trkpt lat="47.863626508042216" lon="11.49206031113863">
        <ele>605.287353515625</ele>
        <time>2013-06-16T13:03:35Z</time>
      </trkpt>
      <trkpt lat="47.863724576309323" lon="11.492002559825778">
        <ele>605.287353515625</ele>
        <time>2013-06-16T13:03:37Z</time>
      </trkpt>
      <trkpt lat="47.86385977640748" lon="11.491868868470192">
        <ele>605.287353515625</ele>
        <time>2013-06-16T13:03:40Z</time>
      </trkpt>
      <trkpt lat="47.863965220749378" lon="11.491625709459186">
        <ele>604.806640625</ele>
        <time>2013-06-16T13:03:44Z</time>
      </trkpt>
      <trkpt lat="47.864046776667237" lon="11.491291774436831">
        <ele>604.806640625</ele>
        <time>2013-06-16T13:03:48Z</time>
      </trkpt>
      <trkpt lat="47.864094134420156" lon="11.491120951250196">
        <ele>604.806640625</ele>
        <time>2013-06-16T13:03:50Z</time>
      </trkpt>
      <trkpt lat="47.864247523248196" lon="11.490782154724002">
        <ele>604.326171875</ele>
        <time>2013-06-16T13:03:55Z</time>
      </trkpt>
      <trkpt lat="47.864339388906956" lon="11.490202378481627">
        <ele>604.326171875</ele>
        <time>2013-06-16T13:04:02Z</time>
      </trkpt>
      <trkpt lat="47.864389764145017" lon="11.489989561960101">
        <ele>604.806640625</ele>
        <time>2013-06-16T13:04:05Z</time>
      </trkpt>
      <trkpt lat="47.864420358091593" lon="11.489800550043583">
        <ele>604.326171875</ele>
        <time>2013-06-16T13:04:07Z</time>
      </trkpt>
      <trkpt lat="47.864428320899606" lon="11.489515732973814">
        <ele>604.326171875</ele>
        <time>2013-06-16T13:04:10Z</time>
      </trkpt>
      <trkpt lat="47.864505182951689" lon="11.489207278937101">
        <ele>604.326171875</ele>
        <time>2013-06-16T13:04:14Z</time>
      </trkpt>
      <trkpt lat="47.864565532654524" lon="11.488995803520083">
        <ele>604.326171875</ele>
        <time>2013-06-16T13:04:17Z</time>
      </trkpt>
      <trkpt lat="47.864669132977724" lon="11.488624569028616">
        <ele>603.84521484375</ele>
        <time>2013-06-16T13:04:22Z</time>
      </trkpt>
      <trkpt lat="47.864759657531977" lon="11.488414518535137">
        <ele>604.326171875</ele>
        <time>2013-06-16T13:04:25Z</time>
      </trkpt>
      <trkpt lat="47.86482629366219" lon="11.488295244053006">
        <ele>603.84521484375</ele>
        <time>2013-06-16T13:04:27Z</time>
      </trkpt>
      <trkpt lat="47.865131814032793" lon="11.487845219671726">
        <ele>602.403076171875</ele>
        <time>2013-06-16T13:04:34Z</time>
      </trkpt>
      <trkpt lat="47.865314707159996" lon="11.487352950498462">
        <ele>602.8837890625</ele>
        <time>2013-06-16T13:04:41Z</time>
      </trkpt>
      <trkpt lat="47.865361059084535" lon="11.487113144248724">
        <ele>602.8837890625</ele>
        <time>2013-06-16T13:04:44Z</time>
      </trkpt>
      <trkpt lat="47.865450326353312" lon="11.486901417374611">
        <ele>602.8837890625</ele>
        <time>2013-06-16T13:04:47Z</time>
      </trkpt>
      <trkpt lat="47.865545796230435" lon="11.486769653856754">
        <ele>603.364501953125</ele>
        <time>2013-06-16T13:04:49Z</time>
      </trkpt>
      <trkpt lat="47.865897081792355" lon="11.486499588936567">
        <ele>602.403076171875</ele>
        <time>2013-06-16T13:04:56Z</time>
      </trkpt>
      <trkpt lat="47.866097325459123" lon="11.48634041659534">
        <ele>603.84521484375</ele>
        <time>2013-06-16T13:05:01Z</time>
      </trkpt>
      <trkpt lat="47.866209978237748" lon="11.486210329458117">
        <ele>603.364501953125</ele>
        <time>2013-06-16T13:05:04Z</time>
      </trkpt>
      <trkpt lat="47.866278877481818" lon="11.486117960885167">
        <ele>603.364501953125</ele>
        <time>2013-06-16T13:05:06Z</time>
      </trkpt>
      <trkpt lat="47.866499992087483" lon="11.485826019197702">
        <ele>602.403076171875</ele>
        <time>2013-06-16T13:05:12Z</time>
      </trkpt>
      <trkpt lat="47.866813726723194" lon="11.485460484400392">
        <ele>602.403076171875</ele>
        <time>2013-06-16T13:05:19Z</time>
      </trkpt>
      <trkpt lat="47.866916321218014" lon="11.485261414200068">
        <ele>603.364501953125</ele>
        <time>2013-06-16T13:05:23Z</time>
      </trkpt>
      <trkpt lat="47.866960577666759" lon="11.48518337868154">
        <ele>603.364501953125</ele>
        <time>2013-06-16T13:05:24Z</time>
      </trkpt>
      <trkpt lat="47.867021430283785" lon="11.485114730894566">
        <ele>603.364501953125</ele>
        <time>2013-06-16T13:05:25Z</time>
      </trkpt>
      <trkpt lat="47.867135843262076" lon="11.485069636255503">
        <ele>602.403076171875</ele>
        <time>2013-06-16T13:05:29Z</time>
      </trkpt>
      <trkpt lat="47.867255955934525" lon="11.485014902427793">
        <ele>602.8837890625</ele>
        <time>2013-06-16T13:05:32Z</time>
      </trkpt>
      <trkpt lat="47.867403477430344" lon="11.484973579645157">
        <ele>603.364501953125</ele>
        <time>2013-06-16T13:05:35Z</time>
      </trkpt>
      <trkpt lat="47.867559632286429" lon="11.484904177486897">
        <ele>603.364501953125</ele>
        <time>2013-06-16T13:05:38Z</time>
      </trkpt>
      <trkpt lat="47.867811508476734" lon="11.48462095297873">
        <ele>602.8837890625</ele>
        <time>2013-06-16T13:05:43Z</time>
      </trkpt>
      <trkpt lat="47.868005633354187" lon="11.483919974416494">
        <ele>602.8837890625</ele>
        <time>2013-06-16T13:05:48Z</time>
      </trkpt>
      <trkpt lat="47.868167236447334" lon="11.483639599755406">
        <ele>602.403076171875</ele>
        <time>2013-06-16T13:05:52Z</time>
      </trkpt>
      <trkpt lat="47.868307633325458" lon="11.483394261449575">
        <ele>602.403076171875</ele>
        <time>2013-06-16T13:05:56Z</time>
      </trkpt>
      <trkpt lat="47.868515085428953" lon="11.48314967751503">
        <ele>601.922607421875</ele>
        <time>2013-06-16T13:06:01Z</time>
      </trkpt>
      <trkpt lat="47.86863025277853" lon="11.482966868206859">
        <ele>602.403076171875</ele>
        <time>2013-06-16T13:06:04Z</time>
      </trkpt>
      <trkpt lat="47.868705941364169" lon="11.482780454680324">
        <ele>602.8837890625</ele>
        <time>2013-06-16T13:06:07Z</time>
      </trkpt>
      <trkpt lat="47.868819264695048" lon="11.482557244598866">
        <ele>601.922607421875</ele>
        <time>2013-06-16T13:06:11Z</time>
      </trkpt>
      <trkpt lat="47.868947926908731" lon="11.48236345499754">
        <ele>601.922607421875</ele>
        <time>2013-06-16T13:06:15Z</time>
      </trkpt>
      <trkpt lat="47.86920977756381" lon="11.482121217995882">
        <ele>601.922607421875</ele>
        <time>2013-06-16T13:06:21Z</time>
      </trkpt>
      <trkpt lat="47.869285382330418" lon="11.482044775038958">
        <ele>602.403076171875</ele>
        <time>2013-06-16T13:06:23Z</time>
      </trkpt>
      <trkpt lat="47.869437178596854" lon="11.481910916045308">
        <ele>601.922607421875</ele>
        <time>2013-06-16T13:06:27Z</time>
      </trkpt>
      <trkpt lat="47.869707997888327" lon="11.481734309345484">
        <ele>602.403076171875</ele>
        <time>2013-06-16T13:06:32Z</time>
      </trkpt>
      <trkpt lat="47.869865158572793" lon="11.481595756486058">
        <ele>602.403076171875</ele>
        <time>2013-06-16T13:06:35Z</time>
      </trkpt>
      <trkpt lat="47.870151484385133" lon="11.481366008520126">
        <ele>601.922607421875</ele>
        <time>2013-06-16T13:06:41Z</time>
      </trkpt>
      <trkpt lat="47.870315853506327" lon="11.481257546693087">
        <ele>600.961181640625</ele>
        <time>2013-06-16T13:06:44Z</time>
      </trkpt>
      <trkpt lat="47.870499501004815" lon="11.481095356866717">
        <ele>601.44189453125</ele>
        <time>2013-06-16T13:06:48Z</time>
      </trkpt>
      <trkpt lat="47.870697313919663" lon="11.480908943340182">
        <ele>601.44189453125</ele>
        <time>2013-06-16T13:06:52Z</time>
      </trkpt>
      <trkpt lat="47.870810721069574" lon="11.480730744078755">
        <ele>600.961181640625</ele>
        <time>2013-06-16T13:06:55Z</time>
      </trkpt>
      <trkpt lat="47.871002750471234" lon="11.480404436588287">
        <ele>601.922607421875</ele>
        <time>2013-06-16T13:07:00Z</time>
      </trkpt>
      <trkpt lat="47.871211627498269" lon="11.480013253167272">
        <ele>601.922607421875</ele>
        <time>2013-06-16T13:07:06Z</time>
      </trkpt>
      <trkpt lat="47.87139929831028" lon="11.479748552665114">
        <ele>601.44189453125</ele>
        <time>2013-06-16T13:07:10Z</time>
      </trkpt>
      <trkpt lat="47.871744800359011" lon="11.479445714503527">
        <ele>601.44189453125</ele>
        <time>2013-06-16T13:07:17Z</time>
      </trkpt>
      <trkpt lat="47.871868768706918" lon="11.47936332039535">
        <ele>601.922607421875</ele>
        <time>2013-06-16T13:07:19Z</time>
      </trkpt>
      <trkpt lat="47.872054344043136" lon="11.479294337332249">
        <ele>601.922607421875</ele>
        <time>2013-06-16T13:07:22Z</time>
      </trkpt>
      <trkpt lat="47.872282331809402" lon="11.479271706193686">
        <ele>601.922607421875</ele>
        <time>2013-06-16T13:07:26Z</time>
      </trkpt>
      <trkpt lat="47.872537141665816" lon="11.479311855509877">
        <ele>600.480712890625</ele>
        <time>2013-06-16T13:07:30Z</time>
      </trkpt>
      <trkpt lat="47.872826484963298" lon="11.479423921555281">
        <ele>600.480712890625</ele>
        <time>2013-06-16T13:07:36Z</time>
      </trkpt>
      <trkpt lat="47.873128736391664" lon="11.479464741423726">
        <ele>600.480712890625</ele>
        <time>2013-06-16T13:07:41Z</time>
      </trkpt>
      <trkpt lat="47.873416068032384" lon="11.479380587115884">
        <ele>601.44189453125</ele>
        <time>2013-06-16T13:07:46Z</time>
      </trkpt>
      <trkpt lat="47.873860476538539" lon="11.479012286290526">
        <ele>600</ele>
        <time>2013-06-16T13:07:54Z</time>
      </trkpt>
      <trkpt lat="47.874218551442027" lon="11.478671561926603">
        <ele>601.44189453125</ele>
        <time>2013-06-16T13:08:01Z</time>
      </trkpt>
      <trkpt lat="47.874543936923146" lon="11.478524627164006">
        <ele>600.961181640625</ele>
        <time>2013-06-16T13:08:07Z</time>
      </trkpt>
      <trkpt lat="47.875039810314775" lon="11.478425804525614">
        <ele>600.480712890625</ele>
        <time>2013-06-16T13:08:15Z</time>
      </trkpt>
      <trkpt lat="47.875098483636975" lon="11.47841147147119">
        <ele>600</ele>
        <time>2013-06-16T13:08:16Z</time>
      </trkpt>
      <trkpt lat="47.87556242197752" lon="11.478198152035475">
        <ele>600</ele>
        <time>2013-06-16T13:08:24Z</time>
      </trkpt>
      <trkpt lat="47.875616066157818" lon="11.478177364915609">
        <ele>599.519287109375</ele>
        <time>2013-06-16T13:08:25Z</time>
      </trkpt>
      <trkpt lat="47.875782530754805" lon="11.478092623874545">
        <ele>600</ele>
        <time>2013-06-16T13:08:28Z</time>
      </trkpt>
      <trkpt lat="47.876024935394526" lon="11.478025987744331">
        <ele>599.519287109375</ele>
        <time>2013-06-16T13:08:32Z</time>
      </trkpt>
      <trkpt lat="47.876426260918379" lon="11.477902187034488">
        <ele>598.557861328125</ele>
        <time>2013-06-16T13:08:38Z</time>
      </trkpt>
      <trkpt lat="47.877056580036879" lon="11.477575292810798">
        <ele>597.5966796875</ele>
        <time>2013-06-16T13:08:47Z</time>
      </trkpt>
      <trkpt lat="47.877189600840211" lon="11.477493066340685">
        <ele>598.077392578125</ele>
        <time>2013-06-16T13:08:50Z</time>
      </trkpt>
      <trkpt lat="47.87731172516942" lon="11.477416874840856">
        <ele>598.557861328125</ele>
        <time>2013-06-16T13:08:53Z</time>
      </trkpt>
      <trkpt lat="47.877529235556722" lon="11.477296845987439">
        <ele>599.519287109375</ele>
        <time>2013-06-16T13:08:58Z</time>
      </trkpt>
      <trkpt lat="47.877731239423156" lon="11.477231383323669">
        <ele>599.03857421875</ele>
        <time>2013-06-16T13:09:02Z</time>
      </trkpt>
      <trkpt lat="47.878168020397425" lon="11.476934161037207">
        <ele>599.03857421875</ele>
        <time>2013-06-16T13:09:09Z</time>
      </trkpt>
      <trkpt lat="47.87821956910193" lon="11.476910691708326">
        <ele>599.03857421875</ele>
        <time>2013-06-16T13:09:10Z</time>
      </trkpt>
      <trkpt lat="47.878479408100247" lon="11.476714890450239">
        <ele>599.03857421875</ele>
        <time>2013-06-16T13:09:15Z</time>
      </trkpt>
      <trkpt lat="47.878898251801729" lon="11.476557813584805">
        <ele>596.635498046875</ele>
        <time>2013-06-16T13:09:21Z</time>
      </trkpt>
      <trkpt lat="47.879277365282178" lon="11.476474329829216">
        <ele>596.15478515625</ele>
        <time>2013-06-16T13:09:27Z</time>
      </trkpt>
      <trkpt lat="47.879450619220734" lon="11.476445244625211">
        <ele>596.635498046875</ele>
        <time>2013-06-16T13:09:30Z</time>
      </trkpt>
      <trkpt lat="47.879942636936903" lon="11.476286323741078">
        <ele>596.15478515625</ele>
        <time>2013-06-16T13:09:38Z</time>
      </trkpt>
      <trkpt lat="47.880140533670783" lon="11.476204097270966">
        <ele>597.115966796875</ele>
        <time>2013-06-16T13:09:41Z</time>
      </trkpt>
      <trkpt lat="47.880555354058743" lon="11.475948365405202">
        <ele>597.115966796875</ele>
        <time>2013-06-16T13:09:48Z</time>
      </trkpt>
      <trkpt lat="47.880722992122173" lon="11.475792629644275">
        <ele>596.635498046875</ele>
        <time>2013-06-16T13:09:51Z</time>
      </trkpt>
      <trkpt lat="47.881065811961889" lon="11.475230706855655">
        <ele>595.674072265625</ele>
        <time>2013-06-16T13:09:59Z</time>
      </trkpt>
      <trkpt lat="47.881403937935829" lon="11.474349936470389">
        <ele>596.635498046875</ele>
        <time>2013-06-16T13:10:10Z</time>
      </trkpt>
      <trkpt lat="47.881715828552842" lon="11.4734513964504">
        <ele>597.5966796875</ele>
        <time>2013-06-16T13:10:22Z</time>
      </trkpt>
      <trkpt lat="47.881745165213943" lon="11.473299097269773">
        <ele>598.077392578125</ele>
        <time>2013-06-16T13:10:24Z</time>
      </trkpt>
      <trkpt lat="47.881900314241648" lon="11.473035318776965">
        <ele>597.115966796875</ele>
        <time>2013-06-16T13:10:29Z</time>
      </trkpt>
      <trkpt lat="47.882017660886049" lon="11.47304437123239">
        <ele>597.5966796875</ele>
        <time>2013-06-16T13:10:31Z</time>
      </trkpt>
      <trkpt lat="47.88251219317317" lon="11.47318116389215">
        <ele>596.635498046875</ele>
        <time>2013-06-16T13:10:39Z</time>
      </trkpt>
      <trkpt lat="47.883043186739087" lon="11.473528174683452">
        <ele>596.15478515625</ele>
        <time>2013-06-16T13:10:48Z</time>
      </trkpt>
      <trkpt lat="47.883255667984486" lon="11.473678378388286">
        <ele>596.635498046875</ele>
        <time>2013-06-16T13:10:52Z</time>
      </trkpt>
      <trkpt lat="47.883868888020515" lon="11.474336441606283">
        <ele>595.193359375</ele>
        <time>2013-06-16T13:11:04Z</time>
      </trkpt>
      <trkpt lat="47.883917419239879" lon="11.474387738853693">
        <ele>595.193359375</ele>
        <time>2013-06-16T13:11:05Z</time>
      </trkpt>
      <trkpt lat="47.884271387010813" lon="11.474464517086744">
        <ele>594.712646484375</ele>
        <time>2013-06-16T13:11:11Z</time>
      </trkpt>
      <trkpt lat="47.884330479428172" lon="11.474429983645678">
        <ele>595.193359375</ele>
        <time>2013-06-16T13:11:12Z</time>
      </trkpt>
      <trkpt lat="47.884438186883926" lon="11.474343566223979">
        <ele>595.193359375</ele>
        <time>2013-06-16T13:11:14Z</time>
      </trkpt>
      <trkpt lat="47.884741444140673" lon="11.474017342552543">
        <ele>594.712646484375</ele>
        <time>2013-06-16T13:11:20Z</time>
      </trkpt>
      <trkpt lat="47.885019890964031" lon="11.473893038928509">
        <ele>594.232177734375</ele>
        <time>2013-06-16T13:11:25Z</time>
      </trkpt>
      <trkpt lat="47.885291213169694" lon="11.473770746961236">
        <ele>594.232177734375</ele>
        <time>2013-06-16T13:11:31Z</time>
      </trkpt>
      <trkpt lat="47.885697986930609" lon="11.473659602925181">
        <ele>593.270751953125</ele>
        <time>2013-06-16T13:11:37Z</time>
      </trkpt>
      <trkpt lat="47.886132001876831" lon="11.473525241017342">
        <ele>593.75146484375</ele>
        <time>2013-06-16T13:11:44Z</time>
      </trkpt>
      <trkpt lat="47.886347584426403" lon="11.473377468064427">
        <ele>593.270751953125</ele>
        <time>2013-06-16T13:11:48Z</time>
      </trkpt>
      <trkpt lat="47.886540284380317" lon="11.473051831126213">
        <ele>594.232177734375</ele>
        <time>2013-06-16T13:11:53Z</time>
      </trkpt>
      <trkpt lat="47.886761734262109" lon="11.472559226676822">
        <ele>593.75146484375</ele>
        <time>2013-06-16T13:12:00Z</time>
      </trkpt>
      <trkpt lat="47.887194324284792" lon="11.471898313611746">
        <ele>593.270751953125</ele>
        <time>2013-06-16T13:12:11Z</time>
      </trkpt>
      <trkpt lat="47.88747126236558" lon="11.471512159332633">
        <ele>592.3095703125</ele>
        <time>2013-06-16T13:12:18Z</time>
      </trkpt>
      <trkpt lat="47.887820117175579" lon="11.470826687291265">
        <ele>592.790283203125</ele>
        <time>2013-06-16T13:12:28Z</time>
      </trkpt>
      <trkpt lat="47.88826335221529" lon="11.47010575979948">
        <ele>591.828857421875</ele>
        <time>2013-06-16T13:12:39Z</time>
      </trkpt>
      <trkpt lat="47.888303585350513" lon="11.470033172518015">
        <ele>592.3095703125</ele>
        <time>2013-06-16T13:12:40Z</time>
      </trkpt>
      <trkpt lat="47.888528555631638" lon="11.469569653272629">
        <ele>591.828857421875</ele>
        <time>2013-06-16T13:12:46Z</time>
      </trkpt>
      <trkpt lat="47.888609189540148" lon="11.469428082928061">
        <ele>592.790283203125</ele>
        <time>2013-06-16T13:12:48Z</time>
      </trkpt>
      <trkpt lat="47.888732571154833" lon="11.469258852303028">
        <ele>591.34814453125</ele>
        <time>2013-06-16T13:12:51Z</time>
      </trkpt>
      <trkpt lat="47.888968605548143" lon="11.468881163746119">
        <ele>591.34814453125</ele>
        <time>2013-06-16T13:12:57Z</time>
      </trkpt>
      <trkpt lat="47.889094669371843" lon="11.468554101884365">
        <ele>590.867431640625</ele>
        <time>2013-06-16T13:13:01Z</time>
      </trkpt>
      <trkpt lat="47.889385018497705" lon="11.467493372038007">
        <ele>589.90625</ele>
        <time>2013-06-16T13:13:12Z</time>
      </trkpt>
      <trkpt lat="47.889455929398537" lon="11.467218697071075">
        <ele>589.90625</ele>
        <time>2013-06-16T13:13:15Z</time>
      </trkpt>
      <trkpt lat="47.889492223039269" lon="11.466808738186955">
        <ele>590.867431640625</ele>
        <time>2013-06-16T13:13:19Z</time>
      </trkpt>
      <trkpt lat="47.889553410932422" lon="11.466586031019688">
        <ele>591.34814453125</ele>
        <time>2013-06-16T13:13:22Z</time>
      </trkpt>
      <trkpt lat="47.889644941315055" lon="11.466439431533217">
        <ele>589.425537109375</ele>
        <time>2013-06-16T13:13:25Z</time>
      </trkpt>
      <trkpt lat="47.889671344310045" lon="11.466393582522869">
        <ele>589.425537109375</ele>
        <time>2013-06-16T13:13:26Z</time>
      </trkpt>
      <trkpt lat="47.889739656820893" lon="11.466237176209688">
        <ele>589.425537109375</ele>
        <time>2013-06-16T13:13:29Z</time>
      </trkpt>
      <trkpt lat="47.889778967946768" lon="11.466113040223718">
        <ele>589.425537109375</ele>
        <time>2013-06-16T13:13:31Z</time>
      </trkpt>
      <trkpt lat="47.889888687059283" lon="11.465883795171976">
        <ele>589.90625</ele>
        <time>2013-06-16T13:13:35Z</time>
      </trkpt>
      <trkpt lat="47.890031179413199" lon="11.46559813991189">
        <ele>590.386962890625</ele>
        <time>2013-06-16T13:13:40Z</time>
      </trkpt>
      <trkpt lat="47.890099491924047" lon="11.465332685038447">
        <ele>588.945068359375</ele>
        <time>2013-06-16T13:13:44Z</time>
      </trkpt>
      <trkpt lat="47.890186244621873" lon="11.465099416673183">
        <ele>588.46435546875</ele>
        <time>2013-06-16T13:13:47Z</time>
      </trkpt>
      <trkpt lat="47.89032781496644" lon="11.464821891859174">
        <ele>588.46435546875</ele>
        <time>2013-06-16T13:13:52Z</time>
      </trkpt>
      <trkpt lat="47.890387997031212" lon="11.464544869959354">
        <ele>587.502685546875</ele>
        <time>2013-06-16T13:13:55Z</time>
      </trkpt>
      <trkpt lat="47.890472989529371" lon="11.464200206100941">
        <ele>587.9833984375</ele>
        <time>2013-06-16T13:13:59Z</time>
      </trkpt>
      <trkpt lat="47.890527723357081" lon="11.463946318253875">
        <ele>587.9833984375</ele>
        <time>2013-06-16T13:14:02Z</time>
      </trkpt>
      <trkpt lat="47.890587318688631" lon="11.463445415720344">
        <ele>587.9833984375</ele>
        <time>2013-06-16T13:14:08Z</time>
      </trkpt>
      <trkpt lat="47.890658313408494" lon="11.463226564228535">
        <ele>587.502685546875</ele>
        <time>2013-06-16T13:14:11Z</time>
      </trkpt>
      <trkpt lat="47.890758980065584" lon="11.463002432137728">
        <ele>587.9833984375</ele>
        <time>2013-06-16T13:14:14Z</time>
      </trkpt>
      <trkpt lat="47.890911363065243" lon="11.462788442149758">
        <ele>587.502685546875</ele>
        <time>2013-06-16T13:14:19Z</time>
      </trkpt>
      <trkpt lat="47.891013538464904" lon="11.462607644498348">
        <ele>587.9833984375</ele>
        <time>2013-06-16T13:14:22Z</time>
      </trkpt>
      <trkpt lat="47.891079168766737" lon="11.462464313954115">
        <ele>587.9833984375</ele>
        <time>2013-06-16T13:14:24Z</time>
      </trkpt>
      <trkpt lat="47.891140272840858" lon="11.462103305384517">
        <ele>587.502685546875</ele>
        <time>2013-06-16T13:14:29Z</time>
      </trkpt>
      <trkpt lat="47.891132226213813" lon="11.462018731981516">
        <ele>587.502685546875</ele>
        <time>2013-06-16T13:14:30Z</time>
      </trkpt>
      <trkpt lat="47.89112376049161" lon="11.461868109181523">
        <ele>587.502685546875</ele>
        <time>2013-06-16T13:14:32Z</time>
      </trkpt>
      <trkpt lat="47.891124095767736" lon="11.461490169167519">
        <ele>587.9833984375</ele>
        <time>2013-06-16T13:14:39Z</time>
      </trkpt>
      <trkpt lat="47.891220320016146" lon="11.461465358734131">
        <ele>587.502685546875</ele>
        <time>2013-06-16T13:14:44Z</time>
      </trkpt>
      <trkpt lat="47.891318388283253" lon="11.46144725382328">
        <ele>586.54150390625</ele>
        <time>2013-06-16T13:14:49Z</time>
      </trkpt>
      <trkpt lat="47.891417378559709" lon="11.461485056206584">
        <ele>585.580078125</ele>
        <time>2013-06-16T13:14:52Z</time>
      </trkpt>
      <trkpt lat="47.89146582596004" lon="11.461464017629623">
        <ele>585.580078125</ele>
        <time>2013-06-16T13:14:54Z</time>
      </trkpt>
      <trkpt lat="47.891505723819137" lon="11.461360417306423">
        <ele>586.060791015625</ele>
        <time>2013-06-16T13:14:57Z</time>
      </trkpt>
      <trkpt lat="47.891707979142666" lon="11.460995636880398">
        <ele>585.580078125</ele>
        <time>2013-06-16T13:15:03Z</time>
      </trkpt>
      <trkpt lat="47.891745865345001" lon="11.460949955508113">
        <ele>586.54150390625</ele>
        <time>2013-06-16T13:15:04Z</time>
      </trkpt>
      <trkpt lat="47.891878550872207" lon="11.460665976628661">
        <ele>586.060791015625</ele>
        <time>2013-06-16T13:15:09Z</time>
      </trkpt>
      <trkpt lat="47.891973434016109" lon="11.460480988025665">
        <ele>586.54150390625</ele>
        <time>2013-06-16T13:15:12Z</time>
      </trkpt>
      <trkpt lat="47.892048954963684" lon="11.460143029689789">
        <ele>587.02197265625</ele>
        <time>2013-06-16T13:15:16Z</time>
      </trkpt>
      <trkpt lat="47.892232183367014" lon="11.459863660857081">
        <ele>587.02197265625</ele>
        <time>2013-06-16T13:15:19Z</time>
      </trkpt>
      <trkpt lat="47.89235414005816" lon="11.459601055830717">
        <ele>586.54150390625</ele>
        <time>2013-06-16T13:15:23Z</time>
      </trkpt>
      <trkpt lat="47.892493614926934" lon="11.45937449298799">
        <ele>586.060791015625</ele>
        <time>2013-06-16T13:15:26Z</time>
      </trkpt>
      <trkpt lat="47.892557820305228" lon="11.459044748917222">
        <ele>586.54150390625</ele>
        <time>2013-06-16T13:15:32Z</time>
      </trkpt>
      <trkpt lat="47.892706012353301" lon="11.458778958767653">
        <ele>586.54150390625</ele>
        <time>2013-06-16T13:15:36Z</time>
      </trkpt>
      <trkpt lat="47.892869459465146" lon="11.458485424518585">
        <ele>586.060791015625</ele>
        <time>2013-06-16T13:15:41Z</time>
      </trkpt>
      <trkpt lat="47.89301672950387" lon="11.458142269402742">
        <ele>586.54150390625</ele>
        <time>2013-06-16T13:15:46Z</time>
      </trkpt>
      <trkpt lat="47.89310616441071" lon="11.458047470077872">
        <ele>587.9833984375</ele>
        <time>2013-06-16T13:15:48Z</time>
      </trkpt>
      <trkpt lat="47.893277239054441" lon="11.457835575565696">
        <ele>587.02197265625</ele>
        <time>2013-06-16T13:15:52Z</time>
      </trkpt>
      <trkpt lat="47.89349508471787" lon="11.457611359655857">
        <ele>586.54150390625</ele>
        <time>2013-06-16T13:15:57Z</time>
      </trkpt>
      <trkpt lat="47.89359625428915" lon="11.457515303045511">
        <ele>586.54150390625</ele>
        <time>2013-06-16T13:15:59Z</time>
      </trkpt>
      <trkpt lat="47.893813094124198" lon="11.457164101302624">
        <ele>586.54150390625</ele>
        <time>2013-06-16T13:16:05Z</time>
      </trkpt>
      <trkpt lat="47.894026078283787" lon="11.456713490188122">
        <ele>587.502685546875</ele>
        <time>2013-06-16T13:16:12Z</time>
      </trkpt>
      <trkpt lat="47.894096905365586" lon="11.456499416381121">
        <ele>585.580078125</ele>
        <time>2013-06-16T13:16:15Z</time>
      </trkpt>
      <trkpt lat="47.894161026924849" lon="11.456280397251248">
        <ele>584.618896484375</ele>
        <time>2013-06-16T13:16:17Z</time>
      </trkpt>
      <trkpt lat="47.894320785999298" lon="11.455978900194168">
        <ele>585.099609375</ele>
        <time>2013-06-16T13:16:21Z</time>
      </trkpt>
      <trkpt lat="47.894377363845706" lon="11.455799862742424">
        <ele>585.580078125</ele>
        <time>2013-06-16T13:16:24Z</time>
      </trkpt>
      <trkpt lat="47.894402761012316" lon="11.45559492520988">
        <ele>585.580078125</ele>
        <time>2013-06-16T13:16:27Z</time>
      </trkpt>
      <trkpt lat="47.894499823451042" lon="11.455126041546464">
        <ele>585.099609375</ele>
        <time>2013-06-16T13:16:31Z</time>
      </trkpt>
      <trkpt lat="47.894578194245696" lon="11.454860670492053">
        <ele>586.060791015625</ele>
        <time>2013-06-16T13:16:33Z</time>
      </trkpt>
      <trkpt lat="47.89466729387641" lon="11.454694205895066">
        <ele>585.099609375</ele>
        <time>2013-06-16T13:16:38Z</time>
      </trkpt>
      <trkpt lat="47.894809534773231" lon="11.454552887007594">
        <ele>584.618896484375</ele>
        <time>2013-06-16T13:16:41Z</time>
      </trkpt>
      <trkpt lat="47.894843649119139" lon="11.454336130991578">
        <ele>584.618896484375</ele>
        <time>2013-06-16T13:16:43Z</time>
      </trkpt>
      <trkpt lat="47.895012125372887" lon="11.454094564542174">
        <ele>584.618896484375</ele>
        <time>2013-06-16T13:16:47Z</time>
      </trkpt>
      <trkpt lat="47.895141374319792" lon="11.453956598415971">
        <ele>584.13818359375</ele>
        <time>2013-06-16T13:16:50Z</time>
      </trkpt>
      <trkpt lat="47.895204573869705" lon="11.45369516685605">
        <ele>585.580078125</ele>
        <time>2013-06-16T13:16:53Z</time>
      </trkpt>
      <trkpt lat="47.895213793963194" lon="11.453549824655056">
        <ele>584.618896484375</ele>
        <time>2013-06-16T13:16:55Z</time>
      </trkpt>
      <trkpt lat="47.895464831963181" lon="11.453200550749898">
        <ele>584.618896484375</ele>
        <time>2013-06-16T13:17:02Z</time>
      </trkpt>
      <trkpt lat="47.895671613514423" lon="11.452982202172279">
        <ele>585.099609375</ele>
        <time>2013-06-16T13:17:07Z</time>
      </trkpt>
      <trkpt lat="47.895851237699389" lon="11.452831663191319">
        <ele>585.580078125</ele>
        <time>2013-06-16T13:17:11Z</time>
      </trkpt>
      <trkpt lat="47.895940085873008" lon="11.452730158343911">
        <ele>585.580078125</ele>
        <time>2013-06-16T13:17:13Z</time>
      </trkpt>
      <trkpt lat="47.896157260984182" lon="11.452536704018712">
        <ele>585.099609375</ele>
        <time>2013-06-16T13:17:18Z</time>
      </trkpt>
      <trkpt lat="47.896248372271657" lon="11.452459590509534">
        <ele>584.13818359375</ele>
        <time>2013-06-16T13:17:20Z</time>
      </trkpt>
      <trkpt lat="47.896488262340426" lon="11.45234459079802">
        <ele>584.13818359375</ele>
        <time>2013-06-16T13:17:25Z</time>
      </trkpt>
      <trkpt lat="47.896629916504025" lon="11.452261442318559">
        <ele>584.618896484375</ele>
        <time>2013-06-16T13:17:28Z</time>
      </trkpt>
      <trkpt lat="47.896847259253263" lon="11.452135043218732">
        <ele>584.618896484375</ele>
        <time>2013-06-16T13:17:33Z</time>
      </trkpt>
      <trkpt lat="47.896881122142076" lon="11.452084500342607">
        <ele>584.13818359375</ele>
        <time>2013-06-16T13:17:34Z</time>
      </trkpt>
      <trkpt lat="47.8971285559237" lon="11.451764730736613">
        <ele>583.657470703125</ele>
        <time>2013-06-16T13:17:38Z</time>
      </trkpt>
      <trkpt lat="47.897561900317669" lon="11.451537329703569">
        <ele>583.657470703125</ele>
        <time>2013-06-16T13:17:46Z</time>
      </trkpt>
      <trkpt lat="47.897870019078255" lon="11.451486451551318">
        <ele>585.099609375</ele>
        <time>2013-06-16T13:17:51Z</time>
      </trkpt>
      <trkpt lat="47.898389445617795" lon="11.451242286711931">
        <ele>583.657470703125</ele>
        <time>2013-06-16T13:18:00Z</time>
      </trkpt>
      <trkpt lat="47.8984444309026" lon="11.451228959485888">
        <ele>583.657470703125</ele>
        <time>2013-06-16T13:18:01Z</time>
      </trkpt>
      <trkpt lat="47.898546857759356" lon="11.451185792684555">
        <ele>583.1767578125</ele>
        <time>2013-06-16T13:18:03Z</time>
      </trkpt>
      <trkpt lat="47.898816838860512" lon="11.45103651098907">
        <ele>583.1767578125</ele>
        <time>2013-06-16T13:18:08Z</time>
      </trkpt>
      <trkpt lat="47.899195197969675" lon="11.450845319777727">
        <ele>583.657470703125</ele>
        <time>2013-06-16T13:18:14Z</time>
      </trkpt>
      <trkpt lat="47.899668607860804" lon="11.450541224330664">
        <ele>582.6962890625</ele>
        <time>2013-06-16T13:18:22Z</time>
      </trkpt>
      <trkpt lat="47.899859212338924" lon="11.450469391420484">
        <ele>583.657470703125</ele>
        <time>2013-06-16T13:18:25Z</time>
      </trkpt>
      <trkpt lat="47.900128774344921" lon="11.450354224070907">
        <ele>583.657470703125</ele>
        <time>2013-06-16T13:18:30Z</time>
      </trkpt>
      <trkpt lat="47.900275122374296" lon="11.450228746980429">
        <ele>583.657470703125</ele>
        <time>2013-06-16T13:18:32Z</time>
      </trkpt>
      <trkpt lat="47.900494895875454" lon="11.450149370357394">
        <ele>583.1767578125</ele>
        <time>2013-06-16T13:18:36Z</time>
      </trkpt>
      <trkpt lat="47.900603525340557" lon="11.45016479305923">
        <ele>582.6962890625</ele>
        <time>2013-06-16T13:18:38Z</time>
      </trkpt>
      <trkpt lat="47.900839811190963" lon="11.450131349265575">
        <ele>583.1767578125</ele>
        <time>2013-06-16T13:18:42Z</time>
      </trkpt>
      <trkpt lat="47.901161927729845" lon="11.450185161083937">
        <ele>583.1767578125</ele>
        <time>2013-06-16T13:18:48Z</time>
      </trkpt>
      <trkpt lat="47.90125647559762" lon="11.450233357027173">
        <ele>581.73486328125</ele>
        <time>2013-06-16T13:18:52Z</time>
      </trkpt>
      <trkpt lat="47.901308694854379" lon="11.450232937932014">
        <ele>582.215576171875</ele>
        <time>2013-06-16T13:18:53Z</time>
      </trkpt>
      <trkpt lat="47.901605749502778" lon="11.450174935162067">
        <ele>582.6962890625</ele>
        <time>2013-06-16T13:18:57Z</time>
      </trkpt>
      <trkpt lat="47.901739524677396" lon="11.450188010931015">
        <ele>582.6962890625</ele>
        <time>2013-06-16T13:18:59Z</time>
      </trkpt>
      <trkpt lat="47.902149232104421" lon="11.450285911560059">
        <ele>581.73486328125</ele>
        <time>2013-06-16T13:19:05Z</time>
      </trkpt>
      <trkpt lat="47.902208659797907" lon="11.450290605425835">
        <ele>582.215576171875</ele>
        <time>2013-06-16T13:19:06Z</time>
      </trkpt>
      <trkpt lat="47.902339333668351" lon="11.450270991772413">
        <ele>583.1767578125</ele>
        <time>2013-06-16T13:19:08Z</time>
      </trkpt>
      <trkpt lat="47.902558939531446" lon="11.450109137222171">
        <ele>582.6962890625</ele>
        <time>2013-06-16T13:19:12Z</time>
      </trkpt>
      <trkpt lat="47.902713166549802" lon="11.449900679290295">
        <ele>582.6962890625</ele>
        <time>2013-06-16T13:19:16Z</time>
      </trkpt>
      <trkpt lat="47.902967892587185" lon="11.449741506949067">
        <ele>582.215576171875</ele>
        <time>2013-06-16T13:19:21Z</time>
      </trkpt>
      <trkpt lat="47.903091022744775" lon="11.449695741757751">
        <ele>583.1767578125</ele>
        <time>2013-06-16T13:19:23Z</time>
      </trkpt>
      <trkpt lat="47.903373157605529" lon="11.44968886859715">
        <ele>581.73486328125</ele>
        <time>2013-06-16T13:19:28Z</time>
      </trkpt>
      <trkpt lat="47.903575161471963" lon="11.449461719021201">
        <ele>582.215576171875</ele>
        <time>2013-06-16T13:19:34Z</time>
      </trkpt>
      <trkpt lat="47.903648084029555" lon="11.449405727908015">
        <ele>581.73486328125</ele>
        <time>2013-06-16T13:19:36Z</time>
      </trkpt>
      <trkpt lat="47.903929548338056" lon="11.449154941365123">
        <ele>581.25439453125</ele>
        <time>2013-06-16T13:19:43Z</time>
      </trkpt>
      <trkpt lat="47.904001213610172" lon="11.449049664661288">
        <ele>582.215576171875</ele>
        <time>2013-06-16T13:19:45Z</time>
      </trkpt>
      <trkpt lat="47.904074806720018" lon="11.448946734890342">
        <ele>581.25439453125</ele>
        <time>2013-06-16T13:19:47Z</time>
      </trkpt>
      <trkpt lat="47.904201038181782" lon="11.448844643309712">
        <ele>581.25439453125</ele>
        <time>2013-06-16T13:19:50Z</time>
      </trkpt>
      <trkpt lat="47.904463727027178" lon="11.448636185377836">
        <ele>581.73486328125</ele>
        <time>2013-06-16T13:19:56Z</time>
      </trkpt>
      <trkpt lat="47.904498009011149" lon="11.448604082688689">
        <ele>581.25439453125</ele>
        <time>2013-06-16T13:19:57Z</time>
      </trkpt>
      <trkpt lat="47.904638489708304" lon="11.448515318334103">
        <ele>581.25439453125</ele>
        <time>2013-06-16T13:20:00Z</time>
      </trkpt>
      <trkpt lat="47.904860274866223" lon="11.448254976421595">
        <ele>580.773681640625</ele>
        <time>2013-06-16T13:20:06Z</time>
      </trkpt>
      <trkpt lat="47.904976448044181" lon="11.448153555393219">
        <ele>580.773681640625</ele>
        <time>2013-06-16T13:20:11Z</time>
      </trkpt>
      <trkpt lat="47.90511273778975" lon="11.448045177385211">
        <ele>581.25439453125</ele>
        <time>2013-06-16T13:20:18Z</time>
      </trkpt>
      <trkpt lat="47.905147187411785" lon="11.448020618408918">
        <ele>580.773681640625</ele>
        <time>2013-06-16T13:20:20Z</time>
      </trkpt>
      <trkpt lat="47.905329158529639" lon="11.44790293648839">
        <ele>581.73486328125</ele>
        <time>2013-06-16T13:20:26Z</time>
      </trkpt>
      <trkpt lat="47.905664853751659" lon="11.447716020047665">
        <ele>581.73486328125</ele>
        <time>2013-06-16T13:20:32Z</time>
      </trkpt>
      <trkpt lat="47.905927961692214" lon="11.447520637884736">
        <ele>581.25439453125</ele>
        <time>2013-06-16T13:20:39Z</time>
      </trkpt>
      <trkpt lat="47.906097192317247" lon="11.447399687021971">
        <ele>581.73486328125</ele>
        <time>2013-06-16T13:20:45Z</time>
      </trkpt>
      <trkpt lat="47.906191488727927" lon="11.447573779150844">
        <ele>580.773681640625</ele>
        <time>2013-06-16T13:20:50Z</time>
      </trkpt>
      <trkpt lat="47.906528608873487" lon="11.447787098586559">
        <ele>579.812255859375</ele>
        <time>2013-06-16T13:20:56Z</time>
      </trkpt>
      <trkpt lat="47.906617959961295" lon="11.447887178510427">
        <ele>579.33154296875</ele>
        <time>2013-06-16T13:20:59Z</time>
      </trkpt>
      <trkpt lat="47.906730361282825" lon="11.448089350014925">
        <ele>579.33154296875</ele>
        <time>2013-06-16T13:21:06Z</time>
      </trkpt>
      <trkpt lat="47.906883833929896" lon="11.448336699977517">
        <ele>579.33154296875</ele>
        <time>2013-06-16T13:21:10Z</time>
      </trkpt>
      <trkpt lat="47.906926581636071" lon="11.448621349409223">
        <ele>578.85107421875</ele>
        <time>2013-06-16T13:21:15Z</time>
      </trkpt>
      <trkpt lat="47.906952062621713" lon="11.448768451809883">
        <ele>578.85107421875</ele>
        <time>2013-06-16T13:21:18Z</time>
      </trkpt>
      <trkpt lat="47.907101595774293" lon="11.449039857834578">
        <ele>578.85107421875</ele>
        <time>2013-06-16T13:21:23Z</time>
      </trkpt>
      <trkpt lat="47.907597050070763" lon="11.448087505996227">
        <ele>578.85107421875</ele>
        <time>2013-06-16T13:21:29Z</time>
      </trkpt>
      <trkpt lat="47.907778602093458" lon="11.448347931727767">
        <ele>578.85107421875</ele>
        <time>2013-06-16T13:21:34Z</time>
      </trkpt>
      <trkpt lat="47.907655471935868" lon="11.448526214808226">
        <ele>578.85107421875</ele>
        <time>2013-06-16T13:21:37Z</time>
      </trkpt>
      <trkpt lat="47.907855296507478" lon="11.448810780420899">
        <ele>578.370361328125</ele>
        <time>2013-06-16T13:21:44Z</time>
      </trkpt>
      <trkpt lat="47.908112453296781" lon="11.448783539235592">
        <ele>576.928466796875</ele>
        <time>2013-06-16T13:21:50Z</time>
      </trkpt>
      <trkpt lat="47.908283276483417" lon="11.448804829269648">
        <ele>577.4091796875</ele>
        <time>2013-06-16T13:21:54Z</time>
      </trkpt>
      <trkpt lat="47.908524591475725" lon="11.448648422956467">
        <ele>577.4091796875</ele>
        <time>2013-06-16T13:21:59Z</time>
      </trkpt>
      <trkpt lat="47.908588796854019" lon="11.448599975556135">
        <ele>577.4091796875</ele>
        <time>2013-06-16T13:22:00Z</time>
      </trkpt>
      <trkpt lat="47.908868081867695" lon="11.448495537042618">
        <ele>576.44775390625</ele>
        <time>2013-06-16T13:22:06Z</time>
      </trkpt>
      <trkpt lat="47.909019039943814" lon="11.448469050228596">
        <ele>576.928466796875</ele>
        <time>2013-06-16T13:22:09Z</time>
      </trkpt>
      <trkpt lat="47.909266809001565" lon="11.448421021923423">
        <ele>575.967041015625</ele>
        <time>2013-06-16T13:22:13Z</time>
      </trkpt>
      <trkpt lat="47.909589763730764" lon="11.448301495984197">
        <ele>576.44775390625</ele>
        <time>2013-06-16T13:22:20Z</time>
      </trkpt>
      <trkpt lat="47.909739213064313" lon="11.44812430255115">
        <ele>576.44775390625</ele>
        <time>2013-06-16T13:22:26Z</time>
      </trkpt>
      <trkpt lat="47.909855553880334" lon="11.447998741641641">
        <ele>577.4091796875</ele>
        <time>2013-06-16T13:22:31Z</time>
      </trkpt>
      <trkpt lat="47.909988658502698" lon="11.447814339771867">
        <ele>577.8896484375</ele>
        <time>2013-06-16T13:22:35Z</time>
      </trkpt>
      <trkpt lat="47.910148836672306" lon="11.447659023106098">
        <ele>578.370361328125</ele>
        <time>2013-06-16T13:22:40Z</time>
      </trkpt>
      <trkpt lat="47.910336842760444" lon="11.44755307585001">
        <ele>578.85107421875</ele>
        <time>2013-06-16T13:22:45Z</time>
      </trkpt>
      <trkpt lat="47.91047153994441" lon="11.44735467620194">
        <ele>578.370361328125</ele>
        <time>2013-06-16T13:22:50Z</time>
      </trkpt>
      <trkpt lat="47.910505402833223" lon="11.447341348975897">
        <ele>578.370361328125</ele>
        <time>2013-06-16T13:22:51Z</time>
      </trkpt>
      <trkpt lat="47.910850904881954" lon="11.447360794991255">
        <ele>578.370361328125</ele>
        <time>2013-06-16T13:22:58Z</time>
      </trkpt>
      <trkpt lat="47.910955008119345" lon="11.447316538542509">
        <ele>578.370361328125</ele>
        <time>2013-06-16T13:23:01Z</time>
      </trkpt>
      <trkpt lat="47.911086268723011" lon="11.447278736159205">
        <ele>578.370361328125</ele>
        <time>2013-06-16T13:23:04Z</time>
      </trkpt>
      <trkpt lat="47.911472171545029" lon="11.447218051180243">
        <ele>578.370361328125</ele>
        <time>2013-06-16T13:23:12Z</time>
      </trkpt>
      <trkpt lat="47.911552805453539" lon="11.447221823036671">
        <ele>577.8896484375</ele>
        <time>2013-06-16T13:23:17Z</time>
      </trkpt>
      <trkpt lat="47.911543920636177" lon="11.447222409769893">
        <ele>578.370361328125</ele>
        <time>2013-06-16T13:23:25Z</time>
      </trkpt>
      <trkpt lat="47.911567557603121" lon="11.447215871885419">
        <ele>576.928466796875</ele>
        <time>2013-06-16T13:23:34Z</time>
      </trkpt>
      <trkpt lat="47.911628074944019" lon="11.44707228988409">
        <ele>577.4091796875</ele>
        <time>2013-06-16T13:25:37Z</time>
      </trkpt>
      <trkpt lat="47.911632265895605" lon="11.447059633210301">
        <ele>577.8896484375</ele>
        <time>2013-06-16T13:25:40Z</time>
      </trkpt>
      <trkpt lat="47.911867629736662" lon="11.446880847215652">
        <ele>577.8896484375</ele>
        <time>2013-06-16T13:25:47Z</time>
      </trkpt>
      <trkpt lat="47.9120590724051" lon="11.446990901604295">
        <ele>577.4091796875</ele>
        <time>2013-06-16T13:25:52Z</time>
      </trkpt>
      <trkpt lat="47.912305248901248" lon="11.446909178048372">
        <ele>576.928466796875</ele>
        <time>2013-06-16T13:25:59Z</time>
      </trkpt>
      <trkpt lat="47.91246559470892" lon="11.446877159178257">
        <ele>577.8896484375</ele>
        <time>2013-06-16T13:26:03Z</time>
      </trkpt>
      <trkpt lat="47.912552179768682" lon="11.446849498897791">
        <ele>577.8896484375</ele>
        <time>2013-06-16T13:26:05Z</time>
      </trkpt>
      <trkpt lat="47.912775138393044" lon="11.446780934929848">
        <ele>577.4091796875</ele>
        <time>2013-06-16T13:26:10Z</time>
      </trkpt>
      <trkpt lat="47.913035228848457" lon="11.446674736216664">
        <ele>577.8896484375</ele>
        <time>2013-06-16T13:26:16Z</time>
      </trkpt>
      <trkpt lat="47.913075713440776" lon="11.446632826700807">
        <ele>577.4091796875</ele>
        <time>2013-06-16T13:26:20Z</time>
      </trkpt>
      <trkpt lat="47.91332415305078" lon="11.446566274389625">
        <ele>576.928466796875</ele>
        <time>2013-06-16T13:26:24Z</time>
      </trkpt>
      <trkpt lat="47.913437895476818" lon="11.446457225829363">
        <ele>576.928466796875</ele>
        <time>2013-06-16T13:26:29Z</time>
      </trkpt>
      <trkpt lat="47.913467232137918" lon="11.446453034877777">
        <ele>577.4091796875</ele>
        <time>2013-06-16T13:26:30Z</time>
      </trkpt>
      <trkpt lat="47.913892865180969" lon="11.446316242218018">
        <ele>577.4091796875</ele>
        <time>2013-06-16T13:26:37Z</time>
      </trkpt>
      <trkpt lat="47.914068466052413" lon="11.446229740977287">
        <ele>577.4091796875</ele>
        <time>2013-06-16T13:26:42Z</time>
      </trkpt>
      <trkpt lat="47.914310032501817" lon="11.446211133152246">
        <ele>577.4091796875</ele>
        <time>2013-06-16T13:26:45Z</time>
      </trkpt>
      <trkpt lat="47.914617815986276" lon="11.446074172854424">
        <ele>576.928466796875</ele>
        <time>2013-06-16T13:26:50Z</time>
      </trkpt>
      <trkpt lat="47.91475092060864" lon="11.446021618321538">
        <ele>575.967041015625</ele>
        <time>2013-06-16T13:26:53Z</time>
      </trkpt>
      <trkpt lat="47.914828872308135" lon="11.445988928899169">
        <ele>575.486328125</ele>
        <time>2013-06-16T13:26:55Z</time>
      </trkpt>
      <trkpt lat="47.914932975545526" lon="11.445879880338907">
        <ele>575.967041015625</ele>
        <time>2013-06-16T13:27:00Z</time>
      </trkpt>
      <trkpt lat="47.915253164246678" lon="11.445825984701514">
        <ele>575.486328125</ele>
        <time>2013-06-16T13:27:04Z</time>
      </trkpt>
      <trkpt lat="47.91548291221261" lon="11.445634290575981">
        <ele>576.928466796875</ele>
        <time>2013-06-16T13:27:08Z</time>
      </trkpt>
      <trkpt lat="47.91550001129508" lon="11.44540068693459">
        <ele>576.928466796875</ele>
        <time>2013-06-16T13:27:12Z</time>
      </trkpt>
      <trkpt lat="47.915463550016284" lon="11.445133639499545">
        <ele>576.928466796875</ele>
        <time>2013-06-16T13:27:15Z</time>
      </trkpt>
      <trkpt lat="47.915408983826637" lon="11.445061974227428">
        <ele>577.4091796875</ele>
        <time>2013-06-16T13:27:17Z</time>
      </trkpt>
      <trkpt lat="47.91535684838891" lon="11.444880841299891">
        <ele>576.928466796875</ele>
        <time>2013-06-16T13:27:22Z</time>
      </trkpt>
      <trkpt lat="47.915358189493418" lon="11.444783108308911">
        <ele>576.928466796875</ele>
        <time>2013-06-16T13:27:24Z</time>
      </trkpt>
      <trkpt lat="47.915215697139502" lon="11.444621505215764">
        <ele>577.4091796875</ele>
        <time>2013-06-16T13:27:31Z</time>
      </trkpt>
      <trkpt lat="47.915150821208954" lon="11.444490915164351">
        <ele>577.4091796875</ele>
        <time>2013-06-16T13:27:36Z</time>
      </trkpt>
      <trkpt lat="47.915099943056703" lon="11.444432493299246">
        <ele>577.8896484375</ele>
        <time>2013-06-16T13:27:41Z</time>
      </trkpt>
      <trkpt lat="47.915120227262378" lon="11.444370048120618">
        <ele>579.33154296875</ele>
        <time>2013-06-16T13:27:46Z</time>
      </trkpt>
      <trkpt lat="47.915154760703444" lon="11.4443848002702">
        <ele>579.33154296875</ele>
        <time>2013-06-16T13:27:58Z</time>
      </trkpt>
      <trkpt lat="47.915193317458034" lon="11.444249264895916">
        <ele>578.85107421875</ele>
        <time>2013-06-16T13:28:02Z</time>
      </trkpt>
      <trkpt lat="47.915379563346505" lon="11.444237278774381">
        <ele>577.4091796875</ele>
        <time>2013-06-16T13:28:08Z</time>
      </trkpt>
      <trkpt lat="47.915494730696082" lon="11.444306261837482">
        <ele>577.8896484375</ele>
        <time>2013-06-16T13:28:13Z</time>
      </trkpt>
      <trkpt lat="47.91560553945601" lon="11.44434230402112">
        <ele>577.8896484375</ele>
        <time>2013-06-16T13:28:17Z</time>
      </trkpt>
      <trkpt lat="47.915889602154493" lon="11.444478593766689">
        <ele>577.8896484375</ele>
        <time>2013-06-16T13:28:25Z</time>
      </trkpt>
      <trkpt lat="47.915944084525108" lon="11.444501476362348">
        <ele>577.8896484375</ele>
        <time>2013-06-16T13:28:26Z</time>
      </trkpt>
      <trkpt lat="47.916191183030605" lon="11.444669365882874">
        <ele>577.8896484375</ele>
        <time>2013-06-16T13:28:31Z</time>
      </trkpt>
      <trkpt lat="47.916478766128421" lon="11.445017047226429">
        <ele>576.928466796875</ele>
        <time>2013-06-16T13:28:38Z</time>
      </trkpt>
      <trkpt lat="47.91651489213109" lon="11.445073205977678">
        <ele>577.4091796875</ele>
        <time>2013-06-16T13:28:39Z</time>
      </trkpt>
      <trkpt lat="47.916619665920734" lon="11.44536254927516">
        <ele>578.370361328125</ele>
        <time>2013-06-16T13:28:47Z</time>
      </trkpt>
      <trkpt lat="47.916601141914725" lon="11.445460366085172">
        <ele>579.812255859375</ele>
        <time>2013-06-16T13:28:49Z</time>
      </trkpt>
      <trkpt lat="47.916880007833242" lon="11.446469211950898">
        <ele>580.29296875</ele>
        <time>2013-06-16T13:29:05Z</time>
      </trkpt>
      <trkpt lat="47.917107073590159" lon="11.447238838300109">
        <ele>579.33154296875</ele>
        <time>2013-06-16T13:29:16Z</time>
      </trkpt>
      <trkpt lat="47.9171999450773" lon="11.447540922090411">
        <ele>578.370361328125</ele>
        <time>2013-06-16T13:29:20Z</time>
      </trkpt>
      <trkpt lat="47.917546033859253" lon="11.448246678337455">
        <ele>576.928466796875</ele>
        <time>2013-06-16T13:29:29Z</time>
      </trkpt>
      <trkpt lat="47.917763628065586" lon="11.448615062981844">
        <ele>576.44775390625</ele>
        <time>2013-06-16T13:29:34Z</time>
      </trkpt>
      <trkpt lat="47.917803609743714" lon="11.448672395199537">
        <ele>577.4091796875</ele>
        <time>2013-06-16T13:29:35Z</time>
      </trkpt>
      <trkpt lat="47.917898576706648" lon="11.448839949443936">
        <ele>577.4091796875</ele>
        <time>2013-06-16T13:29:38Z</time>
      </trkpt>
      <trkpt lat="47.918072417378426" lon="11.449163490906358">
        <ele>577.8896484375</ele>
        <time>2013-06-16T13:29:44Z</time>
      </trkpt>
      <trkpt lat="47.918100161477923" lon="11.449205568060279">
        <ele>577.4091796875</ele>
        <time>2013-06-16T13:29:45Z</time>
      </trkpt>
      <trkpt lat="47.91827785782516" lon="11.449187882244587">
        <ele>576.928466796875</ele>
        <time>2013-06-16T13:29:50Z</time>
      </trkpt>
      <trkpt lat="47.918481035158038" lon="11.449062405154109">
        <ele>576.928466796875</ele>
        <time>2013-06-16T13:29:56Z</time>
      </trkpt>
      <trkpt lat="47.918686056509614" lon="11.448978250846267">
        <ele>577.4091796875</ele>
        <time>2013-06-16T13:30:01Z</time>
      </trkpt>
      <trkpt lat="47.918737689033151" lon="11.448972383514047">
        <ele>576.928466796875</ele>
        <time>2013-06-16T13:30:03Z</time>
      </trkpt>
      <trkpt lat="47.918899124488235" lon="11.448981268331409">
        <ele>576.44775390625</ele>
        <time>2013-06-16T13:30:07Z</time>
      </trkpt>
      <trkpt lat="47.919192239642143" lon="11.449094004929066">
        <ele>576.44775390625</ele>
        <time>2013-06-16T13:30:11Z</time>
      </trkpt>
      <trkpt lat="47.919417126104236" lon="11.449197856709361">
        <ele>576.44775390625</ele>
        <time>2013-06-16T13:30:16Z</time>
      </trkpt>
      <trkpt lat="47.919461466372013" lon="11.449307575821877">
        <ele>576.44775390625</ele>
        <time>2013-06-16T13:30:20Z</time>
      </trkpt>
      <trkpt lat="47.919446630403399" lon="11.449330877512693">
        <ele>576.44775390625</ele>
        <time>2013-06-16T13:30:27Z</time>
      </trkpt>
      <trkpt lat="47.919436991214752" lon="11.449342276901007">
        <ele>576.928466796875</ele>
        <time>2013-06-16T13:30:38Z</time>
      </trkpt>
      <trkpt lat="47.919469932094216" lon="11.449401956051588">
        <ele>576.44775390625</ele>
        <time>2013-06-16T13:30:45Z</time>
      </trkpt>
      <trkpt lat="47.919468590989709" lon="11.449419474229217">
        <ele>575.486328125</ele>
        <time>2013-06-16T13:30:51Z</time>
      </trkpt>
      <trkpt lat="47.919479655101895" lon="11.44941721111536">
        <ele>575.967041015625</ele>
        <time>2013-06-16T13:32:18Z</time>
      </trkpt>
      <trkpt lat="47.919493736699224" lon="11.449403632432222">
        <ele>575.005859375</ele>
        <time>2013-06-16T13:35:56Z</time>
      </trkpt>
      <trkpt lat="47.919535897672176" lon="11.449417462572455">
        <ele>576.44775390625</ele>
        <time>2013-06-16T14:01:54Z</time>
      </trkpt>
      <trkpt lat="47.919535562396049" lon="11.44942014478147">
        <ele>576.44775390625</ele>
        <time>2013-06-16T14:02:01Z</time>
      </trkpt>
      <trkpt lat="47.919511506333947" lon="11.449346467852592">
        <ele>576.44775390625</ele>
        <time>2013-06-16T14:02:10Z</time>
      </trkpt>
      <trkpt lat="47.919520894065499" lon="11.449324004352093">
        <ele>575.967041015625</ele>
        <time>2013-06-16T14:02:17Z</time>
      </trkpt>
      <trkpt lat="47.919566407799721" lon="11.44919827580452">
        <ele>576.44775390625</ele>
        <time>2013-06-16T14:02:25Z</time>
      </trkpt>
      <trkpt lat="47.919601779431105" lon="11.449210764840245">
        <ele>575.967041015625</ele>
        <time>2013-06-16T14:02:27Z</time>
      </trkpt>
      <trkpt lat="47.919769333675504" lon="11.449452834203839">
        <ele>575.967041015625</ele>
        <time>2013-06-16T14:02:35Z</time>
      </trkpt>
      <trkpt lat="47.919920710846782" lon="11.449645115062594">
        <ele>575.967041015625</ele>
        <time>2013-06-16T14:02:40Z</time>
      </trkpt>
      <trkpt lat="47.920030849054456" lon="11.449745865538716">
        <ele>575.005859375</ele>
        <time>2013-06-16T14:02:43Z</time>
      </trkpt>
      <trkpt lat="47.920252298936248" lon="11.449843011796474">
        <ele>574.04443359375</ele>
        <time>2013-06-16T14:02:48Z</time>
      </trkpt>
      <trkpt lat="47.92087784036994" lon="11.449772352352738">
        <ele>573.56396484375</ele>
        <time>2013-06-16T14:03:00Z</time>
      </trkpt>
      <trkpt lat="47.921427777037024" lon="11.449849298223853">
        <ele>574.525146484375</ele>
        <time>2013-06-16T14:03:11Z</time>
      </trkpt>
      <trkpt lat="47.921770345419645" lon="11.449903277680278">
        <ele>575.486328125</ele>
        <time>2013-06-16T14:03:19Z</time>
      </trkpt>
      <trkpt lat="47.922151554375887" lon="11.449670512229204">
        <ele>575.486328125</ele>
        <time>2013-06-16T14:03:28Z</time>
      </trkpt>
      <trkpt lat="47.922697886824608" lon="11.449328698217869">
        <ele>574.525146484375</ele>
        <time>2013-06-16T14:03:39Z</time>
      </trkpt>
      <trkpt lat="47.922797128558159" lon="11.449272623285651">
        <ele>575.005859375</ele>
        <time>2013-06-16T14:03:41Z</time>
      </trkpt>
      <trkpt lat="47.923154029995203" lon="11.449105152860284">
        <ele>574.525146484375</ele>
        <time>2013-06-16T14:03:48Z</time>
      </trkpt>
      <trkpt lat="47.92345535941422" lon="11.448926031589508">
        <ele>574.525146484375</ele>
        <time>2013-06-16T14:03:54Z</time>
      </trkpt>
      <trkpt lat="47.923608245328069" lon="11.448847576975822">
        <ele>575.005859375</ele>
        <time>2013-06-16T14:03:57Z</time>
      </trkpt>
      <trkpt lat="47.924009570851922" lon="11.448650686070323">
        <ele>575.005859375</ele>
        <time>2013-06-16T14:04:04Z</time>
      </trkpt>
      <trkpt lat="47.924151895567775" lon="11.448562508448958">
        <ele>574.525146484375</ele>
        <time>2013-06-16T14:04:07Z</time>
      </trkpt>
      <trkpt lat="47.924253568053246" lon="11.448505930602551">
        <ele>575.005859375</ele>
        <time>2013-06-16T14:04:09Z</time>
      </trkpt>
      <trkpt lat="47.924438724294305" lon="11.448412472382188">
        <ele>575.005859375</ele>
        <time>2013-06-16T14:04:12Z</time>
      </trkpt>
      <trkpt lat="47.924710968509316" lon="11.448215078562498">
        <ele>574.04443359375</ele>
        <time>2013-06-16T14:04:18Z</time>
      </trkpt>
      <trkpt lat="47.924787998199463" lon="11.448185909539461">
        <ele>574.04443359375</ele>
        <time>2013-06-16T14:04:19Z</time>
      </trkpt>
      <trkpt lat="47.925308430567384" lon="11.447910144925117">
        <ele>574.525146484375</ele>
        <time>2013-06-16T14:04:27Z</time>
      </trkpt>
      <trkpt lat="47.925726100802422" lon="11.447696071118116">
        <ele>574.04443359375</ele>
        <time>2013-06-16T14:04:34Z</time>
      </trkpt>
      <trkpt lat="47.925835233181715" lon="11.447656340897083">
        <ele>573.56396484375</ele>
        <time>2013-06-16T14:04:36Z</time>
      </trkpt>
      <trkpt lat="47.925935564562678" lon="11.447628261521459">
        <ele>574.04443359375</ele>
        <time>2013-06-16T14:04:38Z</time>
      </trkpt>
      <trkpt lat="47.926251059398055" lon="11.447417205199599">
        <ele>573.083251953125</ele>
        <time>2013-06-16T14:04:44Z</time>
      </trkpt>
      <trkpt lat="47.926378464326262" lon="11.447329949587584">
        <ele>573.56396484375</ele>
        <time>2013-06-16T14:04:46Z</time>
      </trkpt>
      <trkpt lat="47.926657246425748" lon="11.44711964763701">
        <ele>573.083251953125</ele>
        <time>2013-06-16T14:04:51Z</time>
      </trkpt>
      <trkpt lat="47.926883473992348" lon="11.446993416175246">
        <ele>573.083251953125</ele>
        <time>2013-06-16T14:04:55Z</time>
      </trkpt>
      <trkpt lat="47.927082544192672" lon="11.446803230792284">
        <ele>572.6025390625</ele>
        <time>2013-06-16T14:04:59Z</time>
      </trkpt>
      <trkpt lat="47.927544889971614" lon="11.446524448692799">
        <ele>573.083251953125</ele>
        <time>2013-06-16T14:05:07Z</time>
      </trkpt>
      <trkpt lat="47.927877735346556" lon="11.446313308551908">
        <ele>572.6025390625</ele>
        <time>2013-06-16T14:05:13Z</time>
      </trkpt>
      <trkpt lat="47.928446531295776" lon="11.445975936949253">
        <ele>572.6025390625</ele>
        <time>2013-06-16T14:05:23Z</time>
      </trkpt>
      <trkpt lat="47.9287198651582" lon="11.445849621668458">
        <ele>572.121826171875</ele>
        <time>2013-06-16T14:05:28Z</time>
      </trkpt>
      <trkpt lat="47.928775520995259" lon="11.445823386311531">
        <ele>572.121826171875</ele>
        <time>2013-06-16T14:05:29Z</time>
      </trkpt>
      <trkpt lat="47.92896956205368" lon="11.445702435448766">
        <ele>571.640869140625</ele>
        <time>2013-06-16T14:05:33Z</time>
      </trkpt>
      <trkpt lat="47.929109036922455" lon="11.445596739649773">
        <ele>571.160400390625</ele>
        <time>2013-06-16T14:05:36Z</time>
      </trkpt>
      <trkpt lat="47.92943861335516" lon="11.445483583956957">
        <ele>571.640869140625</ele>
        <time>2013-06-16T14:05:41Z</time>
      </trkpt>
      <trkpt lat="47.92970540933311" lon="11.445318292826414">
        <ele>571.640869140625</ele>
        <time>2013-06-16T14:05:46Z</time>
      </trkpt>
      <trkpt lat="47.929861648008227" lon="11.445200946182013">
        <ele>571.640869140625</ele>
        <time>2013-06-16T14:05:49Z</time>
      </trkpt>
      <trkpt lat="47.930089803412557" lon="11.445088293403387">
        <ele>571.160400390625</ele>
        <time>2013-06-16T14:05:53Z</time>
      </trkpt>
      <trkpt lat="47.930328184738755" lon="11.444952758029103">
        <ele>570.6796875</ele>
        <time>2013-06-16T14:05:57Z</time>
      </trkpt>
      <trkpt lat="47.930710064247251" lon="11.444687554612756">
        <ele>571.160400390625</ele>
        <time>2013-06-16T14:06:03Z</time>
      </trkpt>
      <trkpt lat="47.930968143045902" lon="11.444536345079541">
        <ele>570.6796875</ele>
        <time>2013-06-16T14:06:07Z</time>
      </trkpt>
      <trkpt lat="47.931128405034542" lon="11.444443054497242">
        <ele>570.6796875</ele>
        <time>2013-06-16T14:06:10Z</time>
      </trkpt>
      <trkpt lat="47.931304844096303" lon="11.4443330001086">
        <ele>570.6796875</ele>
        <time>2013-06-16T14:06:13Z</time>
      </trkpt>
      <trkpt lat="47.931472146883607" lon="11.444219509139657">
        <ele>570.198974609375</ele>
        <time>2013-06-16T14:06:16Z</time>
      </trkpt>
      <trkpt lat="47.931636767461896" lon="11.444132504984736">
        <ele>570.198974609375</ele>
        <time>2013-06-16T14:06:19Z</time>
      </trkpt>
      <trkpt lat="47.932019652798772" lon="11.443876856938004">
        <ele>570.198974609375</ele>
        <time>2013-06-16T14:06:26Z</time>
      </trkpt>
      <trkpt lat="47.93225945904851" lon="11.443757750093937">
        <ele>569.718505859375</ele>
        <time>2013-06-16T14:06:30Z</time>
      </trkpt>
      <trkpt lat="47.932592807337642" lon="11.44353655166924">
        <ele>569.718505859375</ele>
        <time>2013-06-16T14:06:36Z</time>
      </trkpt>
      <trkpt lat="47.932993546128273" lon="11.443314179778099">
        <ele>569.23779296875</ele>
        <time>2013-06-16T14:06:43Z</time>
      </trkpt>
      <trkpt lat="47.933311304077506" lon="11.443081917241216">
        <ele>569.718505859375</ele>
        <time>2013-06-16T14:06:49Z</time>
      </trkpt>
      <trkpt lat="47.93355580419302" lon="11.44290279597044">
        <ele>570.198974609375</ele>
        <time>2013-06-16T14:06:54Z</time>
      </trkpt>
      <trkpt lat="47.933765770867467" lon="11.442742450162768">
        <ele>570.6796875</ele>
        <time>2013-06-16T14:06:58Z</time>
      </trkpt>
      <trkpt lat="47.934185955673456" lon="11.442528963088989">
        <ele>568.757080078125</ele>
        <time>2013-06-16T14:07:05Z</time>
      </trkpt>
      <trkpt lat="47.934362478554249" lon="11.442453945055604">
        <ele>569.23779296875</ele>
        <time>2013-06-16T14:07:08Z</time>
      </trkpt>
      <trkpt lat="47.934692306444049" lon="11.44231840968132">
        <ele>568.757080078125</ele>
        <time>2013-06-16T14:07:14Z</time>
      </trkpt>
      <trkpt lat="47.934923395514488" lon="11.442233417183161">
        <ele>568.2763671875</ele>
        <time>2013-06-16T14:07:18Z</time>
      </trkpt>
      <trkpt lat="47.935259845107794" lon="11.442164434120059">
        <ele>569.23779296875</ele>
        <time>2013-06-16T14:07:23Z</time>
      </trkpt>
      <trkpt lat="47.935567796230316" lon="11.442042561247945">
        <ele>569.718505859375</ele>
        <time>2013-06-16T14:07:28Z</time>
      </trkpt>
      <trkpt lat="47.935922602191567" lon="11.441944828256965">
        <ele>569.718505859375</ele>
        <time>2013-06-16T14:07:34Z</time>
      </trkpt>
      <trkpt lat="47.93613139539957" lon="11.44187425263226">
        <ele>569.23779296875</ele>
        <time>2013-06-16T14:07:38Z</time>
      </trkpt>
      <trkpt lat="47.936264080926776" lon="11.441838294267654">
        <ele>569.718505859375</ele>
        <time>2013-06-16T14:07:40Z</time>
      </trkpt>
      <trkpt lat="47.936808653175831" lon="11.441738633438945">
        <ele>570.6796875</ele>
        <time>2013-06-16T14:07:48Z</time>
      </trkpt>
      <trkpt lat="47.937070000916719" lon="11.441668141633272">
        <ele>569.718505859375</ele>
        <time>2013-06-16T14:07:52Z</time>
      </trkpt>
      <trkpt lat="47.937182486057281" lon="11.441640900447965">
        <ele>568.757080078125</ele>
        <time>2013-06-16T14:07:54Z</time>
      </trkpt>
      <trkpt lat="47.93773116543889" lon="11.441570073366165">
        <ele>569.23779296875</ele>
        <time>2013-06-16T14:08:02Z</time>
      </trkpt>
      <trkpt lat="47.938116816803813" lon="11.441547442227602">
        <ele>569.23779296875</ele>
        <time>2013-06-16T14:08:08Z</time>
      </trkpt>
      <trkpt lat="47.938378332182765" lon="11.44153906032443">
        <ele>569.23779296875</ele>
        <time>2013-06-16T14:08:12Z</time>
      </trkpt>
      <trkpt lat="47.938848389312625" lon="11.441588345915079">
        <ele>568.757080078125</ele>
        <time>2013-06-16T14:08:19Z</time>
      </trkpt>
      <trkpt lat="47.938912343233824" lon="11.441599242389202">
        <ele>568.2763671875</ele>
        <time>2013-06-16T14:08:20Z</time>
      </trkpt>
      <trkpt lat="47.939322469756007" lon="11.441630423069">
        <ele>568.2763671875</ele>
        <time>2013-06-16T14:08:27Z</time>
      </trkpt>
      <trkpt lat="47.939642071723938" lon="11.44166411831975">
        <ele>568.2763671875</ele>
        <time>2013-06-16T14:08:32Z</time>
      </trkpt>
      <trkpt lat="47.940114643424749" lon="11.441711140796542">
        <ele>567.795654296875</ele>
        <time>2013-06-16T14:08:39Z</time>
      </trkpt>
      <trkpt lat="47.940626442432404" lon="11.441805940121412">
        <ele>567.315185546875</ele>
        <time>2013-06-16T14:08:47Z</time>
      </trkpt>
      <trkpt lat="47.941245110705495" lon="11.441945247352123">
        <ele>568.2763671875</ele>
        <time>2013-06-16T14:08:57Z</time>
      </trkpt>
      <trkpt lat="47.941732937470078" lon="11.442038705572486">
        <ele>567.315185546875</ele>
        <time>2013-06-16T14:09:05Z</time>
      </trkpt>
      <trkpt lat="47.942211208865047" lon="11.442223777994514">
        <ele>567.315185546875</ele>
        <time>2013-06-16T14:09:13Z</time>
      </trkpt>
      <trkpt lat="47.942631896585226" lon="11.442366605624557">
        <ele>566.353759765625</ele>
        <time>2013-06-16T14:09:20Z</time>
      </trkpt>
      <trkpt lat="47.942982595413923" lon="11.442496189847589">
        <ele>566.83447265625</ele>
        <time>2013-06-16T14:09:26Z</time>
      </trkpt>
      <trkpt lat="47.943333042785525" lon="11.44262233749032">
        <ele>567.315185546875</ele>
        <time>2013-06-16T14:09:32Z</time>
      </trkpt>
      <trkpt lat="47.943452652543783" lon="11.442681178450584">
        <ele>567.315185546875</ele>
        <time>2013-06-16T14:09:34Z</time>
      </trkpt>
      <trkpt lat="47.943741576746106" lon="11.442871866747737">
        <ele>567.315185546875</ele>
        <time>2013-06-16T14:09:39Z</time>
      </trkpt>
      <trkpt lat="47.944140303879976" lon="11.443081414327025">
        <ele>567.795654296875</ele>
        <time>2013-06-16T14:09:46Z</time>
      </trkpt>
      <trkpt lat="47.944460744038224" lon="11.443346366286278">
        <ele>566.83447265625</ele>
        <time>2013-06-16T14:09:52Z</time>
      </trkpt>
      <trkpt lat="47.944830469787121" lon="11.443877946585417">
        <ele>565.392578125</ele>
        <time>2013-06-16T14:10:00Z</time>
      </trkpt>
      <trkpt lat="47.945050494745374" lon="11.444371808320284">
        <ele>564.911865234375</ele>
        <time>2013-06-16T14:10:06Z</time>
      </trkpt>
      <trkpt lat="47.945192400366068" lon="11.444997936487198">
        <ele>564.911865234375</ele>
        <time>2013-06-16T14:10:14Z</time>
      </trkpt>
      <trkpt lat="47.945282673463225" lon="11.44611599855125">
        <ele>563.950439453125</ele>
        <time>2013-06-16T14:10:26Z</time>
      </trkpt>
      <trkpt lat="47.945348890498281" lon="11.44739868119359">
        <ele>563.950439453125</ele>
        <time>2013-06-16T14:10:40Z</time>
      </trkpt>
      <trkpt lat="47.945441510528326" lon="11.448606681078672">
        <ele>563.950439453125</ele>
        <time>2013-06-16T14:10:54Z</time>
      </trkpt>
      <trkpt lat="47.945618284866214" lon="11.449520392343402">
        <ele>563.950439453125</ele>
        <time>2013-06-16T14:11:05Z</time>
      </trkpt>
      <trkpt lat="47.945856666192412" lon="11.450194045901299">
        <ele>562.9892578125</ele>
        <time>2013-06-16T14:11:14Z</time>
      </trkpt>
      <trkpt lat="47.946283053606749" lon="11.451177326962352">
        <ele>564.911865234375</ele>
        <time>2013-06-16T14:11:27Z</time>
      </trkpt>
      <trkpt lat="47.946752607822418" lon="11.452137054875493">
        <ele>564.43115234375</ele>
        <time>2013-06-16T14:11:40Z</time>
      </trkpt>
      <trkpt lat="47.946844724938273" lon="11.452373508363962">
        <ele>563.950439453125</ele>
        <time>2013-06-16T14:11:43Z</time>
      </trkpt>
      <trkpt lat="47.94758434407413" lon="11.453914437443018">
        <ele>563.950439453125</ele>
        <time>2013-06-16T14:12:03Z</time>
      </trkpt>
      <trkpt lat="47.948097065091133" lon="11.45501590333879">
        <ele>562.9892578125</ele>
        <time>2013-06-16T14:12:17Z</time>
      </trkpt>
      <trkpt lat="47.948517501354218" lon="11.455947468057275">
        <ele>562.028076171875</ele>
        <time>2013-06-16T14:12:28Z</time>
      </trkpt>
      <trkpt lat="47.949329372495413" lon="11.457640277221799">
        <ele>562.028076171875</ele>
        <time>2013-06-16T14:12:49Z</time>
      </trkpt>
      <trkpt lat="47.949709156528115" lon="11.458426415920258">
        <ele>562.028076171875</ele>
        <time>2013-06-16T14:12:59Z</time>
      </trkpt>
      <trkpt lat="47.950251130387187" lon="11.459619998931885">
        <ele>561.066650390625</ele>
        <time>2013-06-16T14:13:14Z</time>
      </trkpt>
      <trkpt lat="47.950765527784824" lon="11.460653319954872">
        <ele>561.066650390625</ele>
        <time>2013-06-16T14:13:27Z</time>
      </trkpt>
      <trkpt lat="47.951137684285641" lon="11.461450355127454">
        <ele>560.5859375</ele>
        <time>2013-06-16T14:13:37Z</time>
      </trkpt>
      <trkpt lat="47.951555689796805" lon="11.46230187267065">
        <ele>561.066650390625</ele>
        <time>2013-06-16T14:13:48Z</time>
      </trkpt>
      <trkpt lat="47.952085258439183" lon="11.463393615558743">
        <ele>561.066650390625</ele>
        <time>2013-06-16T14:14:02Z</time>
      </trkpt>
      <trkpt lat="47.952748602256179" lon="11.464783251285553">
        <ele>560.5859375</ele>
        <time>2013-06-16T14:14:20Z</time>
      </trkpt>
      <trkpt lat="47.952892938628793" lon="11.465089526027441">
        <ele>559.624755859375</ele>
        <time>2013-06-16T14:14:24Z</time>
      </trkpt>
      <trkpt lat="47.953150095418096" lon="11.465620268136263">
        <ele>559.624755859375</ele>
        <time>2013-06-16T14:14:31Z</time>
      </trkpt>
      <trkpt lat="47.953689638525248" lon="11.466739168390632">
        <ele>560.5859375</ele>
        <time>2013-06-16T14:14:46Z</time>
      </trkpt>
      <trkpt lat="47.954007480293512" lon="11.46742170676589">
        <ele>559.14404296875</ele>
        <time>2013-06-16T14:14:55Z</time>
      </trkpt>
      <trkpt lat="47.954910630360246" lon="11.469297660514712">
        <ele>559.14404296875</ele>
        <time>2013-06-16T14:15:20Z</time>
      </trkpt>
      <trkpt lat="47.955054212361574" lon="11.46960686892271">
        <ele>559.14404296875</ele>
        <time>2013-06-16T14:15:24Z</time>
      </trkpt>
      <trkpt lat="47.955091595649719" lon="11.470068963244557">
        <ele>559.14404296875</ele>
        <time>2013-06-16T14:15:29Z</time>
      </trkpt>
      <trkpt lat="47.955066198483109" lon="11.470160074532032">
        <ele>558.663330078125</ele>
        <time>2013-06-16T14:15:30Z</time>
      </trkpt>
      <trkpt lat="47.955001993104815" lon="11.470587886869907">
        <ele>558.663330078125</ele>
        <time>2013-06-16T14:15:35Z</time>
      </trkpt>
      <trkpt lat="47.955124536529183" lon="11.470989547669888">
        <ele>558.182861328125</ele>
        <time>2013-06-16T14:15:40Z</time>
      </trkpt>
      <trkpt lat="47.955178935080767" lon="11.471123406663537">
        <ele>558.182861328125</ele>
        <time>2013-06-16T14:15:42Z</time>
      </trkpt>
      <trkpt lat="47.955484790727496" lon="11.471403865143657">
        <ele>558.663330078125</ele>
        <time>2013-06-16T14:15:48Z</time>
      </trkpt>
      <trkpt lat="47.955719064921141" lon="11.471585836261511">
        <ele>558.182861328125</ele>
        <time>2013-06-16T14:15:52Z</time>
      </trkpt>
      <trkpt lat="47.955950405448675" lon="11.471717935055494">
        <ele>559.624755859375</ele>
        <time>2013-06-16T14:15:56Z</time>
      </trkpt>
      <trkpt lat="47.956244023516774" lon="11.471998896449804">
        <ele>559.624755859375</ele>
        <time>2013-06-16T14:16:02Z</time>
      </trkpt>
      <trkpt lat="47.956280736252666" lon="11.472073830664158">
        <ele>559.624755859375</ele>
        <time>2013-06-16T14:16:03Z</time>
      </trkpt>
      <trkpt lat="47.956836959347129" lon="11.473282501101494">
        <ele>559.14404296875</ele>
        <time>2013-06-16T14:16:20Z</time>
      </trkpt>
      <trkpt lat="47.957512037828565" lon="11.474656378850341">
        <ele>560.105224609375</ele>
        <time>2013-06-16T14:16:40Z</time>
      </trkpt>
      <trkpt lat="47.957576829940081" lon="11.474781269207597">
        <ele>561.066650390625</ele>
        <time>2013-06-16T14:16:42Z</time>
      </trkpt>
      <trkpt lat="47.957858042791486" lon="11.475223833695054">
        <ele>562.508544921875</ele>
        <time>2013-06-16T14:16:50Z</time>
      </trkpt>
      <trkpt lat="47.958025597035885" lon="11.475390549749136">
        <ele>562.9892578125</ele>
        <time>2013-06-16T14:16:54Z</time>
      </trkpt>
      <trkpt lat="47.958097094669938" lon="11.475476128980517">
        <ele>563.950439453125</ele>
        <time>2013-06-16T14:16:56Z</time>
      </trkpt>
      <trkpt lat="47.958180075511336" lon="11.47562088444829">
        <ele>563.950439453125</ele>
        <time>2013-06-16T14:16:59Z</time>
      </trkpt>
      <trkpt lat="47.958399681374431" lon="11.47589011117816">
        <ele>562.9892578125</ele>
        <time>2013-06-16T14:17:05Z</time>
      </trkpt>
      <trkpt lat="47.958975518122315" lon="11.476431079208851">
        <ele>563.950439453125</ele>
        <time>2013-06-16T14:17:17Z</time>
      </trkpt>
      <trkpt lat="47.959269806742668" lon="11.476650182157755">
        <ele>563.950439453125</ele>
        <time>2013-06-16T14:17:23Z</time>
      </trkpt>
      <trkpt lat="47.959548002108932" lon="11.476867692545056">
        <ele>563.950439453125</ele>
        <time>2013-06-16T14:17:29Z</time>
      </trkpt>
      <trkpt lat="47.959690075367689" lon="11.476970287039876">
        <ele>563.950439453125</ele>
        <time>2013-06-16T14:17:32Z</time>
      </trkpt>
      <trkpt lat="47.959901886060834" lon="11.477106660604477">
        <ele>563.469970703125</ele>
        <time>2013-06-16T14:17:36Z</time>
      </trkpt>
      <trkpt lat="47.960119061172009" lon="11.477219900116324">
        <ele>563.469970703125</ele>
        <time>2013-06-16T14:17:40Z</time>
      </trkpt>
      <trkpt lat="47.960260128602386" lon="11.477356776595116">
        <ele>563.469970703125</ele>
        <time>2013-06-16T14:17:43Z</time>
      </trkpt>
      <trkpt lat="47.960576377809048" lon="11.477471608668566">
        <ele>563.950439453125</ele>
        <time>2013-06-16T14:17:48Z</time>
      </trkpt>
      <trkpt lat="47.960939649492502" lon="11.477626673877239">
        <ele>563.950439453125</ele>
        <time>2013-06-16T14:17:55Z</time>
      </trkpt>
      <trkpt lat="47.961265034973621" lon="11.477776961401105">
        <ele>564.911865234375</ele>
        <time>2013-06-16T14:18:01Z</time>
      </trkpt>
      <trkpt lat="47.961548510938883" lon="11.477904282510281">
        <ele>566.353759765625</ele>
        <time>2013-06-16T14:18:07Z</time>
      </trkpt>
      <trkpt lat="47.961813379079103" lon="11.477993046864867">
        <ele>567.795654296875</ele>
        <time>2013-06-16T14:18:13Z</time>
      </trkpt>
      <trkpt lat="47.961989818140864" lon="11.478039817884564">
        <ele>568.757080078125</ele>
        <time>2013-06-16T14:18:18Z</time>
      </trkpt>
      <trkpt lat="47.962229959666729" lon="11.478189183399081">
        <ele>569.718505859375</ele>
        <time>2013-06-16T14:18:25Z</time>
      </trkpt>
      <trkpt lat="47.962361639365554" lon="11.478343242779374">
        <ele>570.198974609375</ele>
        <time>2013-06-16T14:18:30Z</time>
      </trkpt>
      <trkpt lat="47.96242936514318" lon="11.478438461199403">
        <ele>570.6796875</ele>
        <time>2013-06-16T14:18:32Z</time>
      </trkpt>
      <trkpt lat="47.962526846677065" lon="11.478613978251815">
        <ele>571.160400390625</ele>
        <time>2013-06-16T14:18:36Z</time>
      </trkpt>
      <trkpt lat="47.962648551911116" lon="11.478695115074515">
        <ele>571.160400390625</ele>
        <time>2013-06-16T14:18:40Z</time>
      </trkpt>
      <trkpt lat="47.962861452251673" lon="11.478849928826094">
        <ele>570.6796875</ele>
        <time>2013-06-16T14:18:46Z</time>
      </trkpt>
      <trkpt lat="47.963161524385214" lon="11.478979764506221">
        <ele>570.6796875</ele>
        <time>2013-06-16T14:18:51Z</time>
      </trkpt>
      <trkpt lat="47.963455393910408" lon="11.478962078690529">
        <ele>567.315185546875</ele>
        <time>2013-06-16T14:18:56Z</time>
      </trkpt>
      <trkpt lat="47.963596964254975" lon="11.478952523320913">
        <ele>567.315185546875</ele>
        <time>2013-06-16T14:18:58Z</time>
      </trkpt>
      <trkpt lat="47.964229211211205" lon="11.479001473635435">
        <ele>567.795654296875</ele>
        <time>2013-06-16T14:19:06Z</time>
      </trkpt>
      <trkpt lat="47.964607235044241" lon="11.479010945186019">
        <ele>567.795654296875</ele>
        <time>2013-06-16T14:19:12Z</time>
      </trkpt>
      <trkpt lat="47.964912252500653" lon="11.47890298627317">
        <ele>567.315185546875</ele>
        <time>2013-06-16T14:19:17Z</time>
      </trkpt>
      <trkpt lat="47.964986097067595" lon="11.478876331821084">
        <ele>567.315185546875</ele>
        <time>2013-06-16T14:19:18Z</time>
      </trkpt>
      <trkpt lat="47.965057259425521" lon="11.478851269930601">
        <ele>567.315185546875</ele>
        <time>2013-06-16T14:19:19Z</time>
      </trkpt>
      <trkpt lat="47.96539731323719" lon="11.478758230805397">
        <ele>563.950439453125</ele>
        <time>2013-06-16T14:19:24Z</time>
      </trkpt>
      <trkpt lat="47.966131903231144" lon="11.478871386498213">
        <ele>564.43115234375</ele>
        <time>2013-06-16T14:19:33Z</time>
      </trkpt>
      <trkpt lat="47.966844532638788" lon="11.478842301294208">
        <ele>563.950439453125</ele>
        <time>2013-06-16T14:19:43Z</time>
      </trkpt>
      <trkpt lat="47.96771683730185" lon="11.478728977963328">
        <ele>563.950439453125</ele>
        <time>2013-06-16T14:19:56Z</time>
      </trkpt>
      <trkpt lat="47.968580257147551" lon="11.478385236114264">
        <ele>562.508544921875</ele>
        <time>2013-06-16T14:20:09Z</time>
      </trkpt>
      <trkpt lat="47.969316188246012" lon="11.478164624422789">
        <ele>564.43115234375</ele>
        <time>2013-06-16T14:20:21Z</time>
      </trkpt>
      <trkpt lat="47.969795549288392" lon="11.478058425709605">
        <ele>564.43115234375</ele>
        <time>2013-06-16T14:20:29Z</time>
      </trkpt>
      <trkpt lat="47.969908537343144" lon="11.478041745722294">
        <ele>564.43115234375</ele>
        <time>2013-06-16T14:20:31Z</time>
      </trkpt>
      <trkpt lat="47.970104003325105" lon="11.478022215887904">
        <ele>565.873291015625</ele>
        <time>2013-06-16T14:20:35Z</time>
      </trkpt>
      <trkpt lat="47.970235263928771" lon="11.478001261129975">
        <ele>565.392578125</ele>
        <time>2013-06-16T14:20:38Z</time>
      </trkpt>
      <trkpt lat="47.970394603908062" lon="11.477964799851179">
        <ele>566.353759765625</ele>
        <time>2013-06-16T14:20:42Z</time>
      </trkpt>
      <trkpt lat="47.970573306083679" lon="11.477930350229144">
        <ele>566.353759765625</ele>
        <time>2013-06-16T14:20:46Z</time>
      </trkpt>
      <trkpt lat="47.970624519512057" lon="11.477933200076222">
        <ele>565.873291015625</ele>
        <time>2013-06-16T14:20:47Z</time>
      </trkpt>
      <trkpt lat="47.970810681581497" lon="11.47791501134634">
        <ele>567.315185546875</ele>
        <time>2013-06-16T14:20:51Z</time>
      </trkpt>
      <trkpt lat="47.971046213060617" lon="11.477887770161033">
        <ele>567.315185546875</ele>
        <time>2013-06-16T14:20:55Z</time>
      </trkpt>
      <trkpt lat="47.971204463392496" lon="11.477879052981734">
        <ele>567.315185546875</ele>
        <time>2013-06-16T14:20:58Z</time>
      </trkpt>
      <trkpt lat="47.971443766728044" lon="11.477873101830482">
        <ele>568.2763671875</ele>
        <time>2013-06-16T14:21:02Z</time>
      </trkpt>
      <trkpt lat="47.971709473058581" lon="11.47778651677072">
        <ele>566.353759765625</ele>
        <time>2013-06-16T14:21:06Z</time>
      </trkpt>
      <trkpt lat="47.971909297630191" lon="11.477712672203779">
        <ele>566.83447265625</ele>
        <time>2013-06-16T14:21:09Z</time>
      </trkpt>
      <trkpt lat="47.972097052261233" lon="11.477695656940341">
        <ele>565.392578125</ele>
        <time>2013-06-16T14:21:12Z</time>
      </trkpt>
      <trkpt lat="47.972538778558373" lon="11.47776790894568">
        <ele>565.392578125</ele>
        <time>2013-06-16T14:21:19Z</time>
      </trkpt>
      <trkpt lat="47.972998358309269" lon="11.477846698835492">
        <ele>564.43115234375</ele>
        <time>2013-06-16T14:21:26Z</time>
      </trkpt>
      <trkpt lat="47.973454082384706" lon="11.477890452370048">
        <ele>563.950439453125</ele>
        <time>2013-06-16T14:21:34Z</time>
      </trkpt>
      <trkpt lat="47.9736512247473" lon="11.477914676070213">
        <ele>564.43115234375</ele>
        <time>2013-06-16T14:21:38Z</time>
      </trkpt>
      <trkpt lat="47.973885498940945" lon="11.47799463942647">
        <ele>562.508544921875</ele>
        <time>2013-06-16T14:21:42Z</time>
      </trkpt>
      <trkpt lat="47.974155312404037" lon="11.477977121248841">
        <ele>563.469970703125</ele>
        <time>2013-06-16T14:21:46Z</time>
      </trkpt>
      <trkpt lat="47.974217757582664" lon="11.477977121248841">
        <ele>563.469970703125</ele>
        <time>2013-06-16T14:21:47Z</time>
      </trkpt>
      <trkpt lat="47.974526546895504" lon="11.478067226707935">
        <ele>562.028076171875</ele>
        <time>2013-06-16T14:21:52Z</time>
      </trkpt>
      <trkpt lat="47.974887387827039" lon="11.478191446512938">
        <ele>562.9892578125</ele>
        <time>2013-06-16T14:21:58Z</time>
      </trkpt>
      <trkpt lat="47.975123757496476" lon="11.478219274431467">
        <ele>562.508544921875</ele>
        <time>2013-06-16T14:22:02Z</time>
      </trkpt>
      <trkpt lat="47.975354259833694" lon="11.47812707349658">
        <ele>562.508544921875</ele>
        <time>2013-06-16T14:22:06Z</time>
      </trkpt>
      <trkpt lat="47.975613847374916" lon="11.478148782625794">
        <ele>561.066650390625</ele>
        <time>2013-06-16T14:22:10Z</time>
      </trkpt>
      <trkpt lat="47.976353131234646" lon="11.478675836697221">
        <ele>562.9892578125</ele>
        <time>2013-06-16T14:22:23Z</time>
      </trkpt>
      <trkpt lat="47.977066179737449" lon="11.479059727862477">
        <ele>562.9892578125</ele>
        <time>2013-06-16T14:22:35Z</time>
      </trkpt>
      <trkpt lat="47.977457363158464" lon="11.479120496660471">
        <ele>562.9892578125</ele>
        <time>2013-06-16T14:22:41Z</time>
      </trkpt>
      <trkpt lat="47.978219697251916" lon="11.479048831388354">
        <ele>562.508544921875</ele>
        <time>2013-06-16T14:22:53Z</time>
      </trkpt>
      <trkpt lat="47.979294173419476" lon="11.478954534977674">
        <ele>562.028076171875</ele>
        <time>2013-06-16T14:23:10Z</time>
      </trkpt>
      <trkpt lat="47.979798428714275" lon="11.478982111439109">
        <ele>562.9892578125</ele>
        <time>2013-06-16T14:23:18Z</time>
      </trkpt>
      <trkpt lat="47.980271503329277" lon="11.479265671223402">
        <ele>562.028076171875</ele>
        <time>2013-06-16T14:23:26Z</time>
      </trkpt>
      <trkpt lat="47.980724042281508" lon="11.479793731123209">
        <ele>561.54736328125</ele>
        <time>2013-06-16T14:23:35Z</time>
      </trkpt>
      <trkpt lat="47.981186890974641" lon="11.480087349191308">
        <ele>561.54736328125</ele>
        <time>2013-06-16T14:23:43Z</time>
      </trkpt>
      <trkpt lat="47.981967413797975" lon="11.480277702212334">
        <ele>562.028076171875</ele>
        <time>2013-06-16T14:23:56Z</time>
      </trkpt>
      <trkpt lat="47.982669062912464" lon="11.480580875650048">
        <ele>562.508544921875</ele>
        <time>2013-06-16T14:24:08Z</time>
      </trkpt>
      <trkpt lat="47.983412370085716" lon="11.480908775702119">
        <ele>562.9892578125</ele>
        <time>2013-06-16T14:24:21Z</time>
      </trkpt>
      <trkpt lat="47.984084850177169" lon="11.480971556156874">
        <ele>562.508544921875</ele>
        <time>2013-06-16T14:24:32Z</time>
      </trkpt>
      <trkpt lat="47.98459405079484" lon="11.481027379631996">
        <ele>562.028076171875</ele>
        <time>2013-06-16T14:24:40Z</time>
      </trkpt>
      <trkpt lat="47.985025970265269" lon="11.481060236692429">
        <ele>561.54736328125</ele>
        <time>2013-06-16T14:24:47Z</time>
      </trkpt>
      <trkpt lat="47.985387230291963" lon="11.481066523119807">
        <ele>561.54736328125</ele>
        <time>2013-06-16T14:24:53Z</time>
      </trkpt>
      <trkpt lat="47.986138751730323" lon="11.481207674369216">
        <ele>562.028076171875</ele>
        <time>2013-06-16T14:25:05Z</time>
      </trkpt>
      <trkpt lat="47.986711654812098" lon="11.48154060356319">
        <ele>562.028076171875</ele>
        <time>2013-06-16T14:25:15Z</time>
      </trkpt>
      <trkpt lat="47.987586809322238" lon="11.482036476954818">
        <ele>562.028076171875</ele>
        <time>2013-06-16T14:25:30Z</time>
      </trkpt>
      <trkpt lat="47.988470178097486" lon="11.482447190210223">
        <ele>562.028076171875</ele>
        <time>2013-06-16T14:25:45Z</time>
      </trkpt>
      <trkpt lat="47.989269560202956" lon="11.482924707233906">
        <ele>562.508544921875</ele>
        <time>2013-06-16T14:25:59Z</time>
      </trkpt>
      <trkpt lat="47.989554293453693" lon="11.48311598226428">
        <ele>563.469970703125</ele>
        <time>2013-06-16T14:26:04Z</time>
      </trkpt>
      <trkpt lat="47.989745484665036" lon="11.483238358050585">
        <ele>561.066650390625</ele>
        <time>2013-06-16T14:26:08Z</time>
      </trkpt>
      <trkpt lat="47.989913374185562" lon="11.483312621712685">
        <ele>562.508544921875</ele>
        <time>2013-06-16T14:26:11Z</time>
      </trkpt>
      <trkpt lat="47.990370271727443" lon="11.483575310558081">
        <ele>562.9892578125</ele>
        <time>2013-06-16T14:26:19Z</time>
      </trkpt>
      <trkpt lat="47.990776710212231" lon="11.483812015503645">
        <ele>562.9892578125</ele>
        <time>2013-06-16T14:26:26Z</time>
      </trkpt>
      <trkpt lat="47.990992041304708" lon="11.483977474272251">
        <ele>562.028076171875</ele>
        <time>2013-06-16T14:26:30Z</time>
      </trkpt>
      <trkpt lat="47.991224220022559" lon="11.484174868091941">
        <ele>562.508544921875</ele>
        <time>2013-06-16T14:26:34Z</time>
      </trkpt>
      <trkpt lat="47.991501074284315" lon="11.484417356550694">
        <ele>562.028076171875</ele>
        <time>2013-06-16T14:26:39Z</time>
      </trkpt>
      <trkpt lat="47.991975992918015" lon="11.484823208302259">
        <ele>562.508544921875</ele>
        <time>2013-06-16T14:26:48Z</time>
      </trkpt>
      <trkpt lat="47.992465831339359" lon="11.485207853838801">
        <ele>562.508544921875</ele>
        <time>2013-06-16T14:26:57Z</time>
      </trkpt>
      <trkpt lat="47.992942091077566" lon="11.485580094158649">
        <ele>562.508544921875</ele>
        <time>2013-06-16T14:27:06Z</time>
      </trkpt>
      <trkpt lat="47.9931113217026" lon="11.485681515187025">
        <ele>562.9892578125</ele>
        <time>2013-06-16T14:27:09Z</time>
      </trkpt>
      <trkpt lat="47.993388595059514" lon="11.485834149643779">
        <ele>562.508544921875</ele>
        <time>2013-06-16T14:27:14Z</time>
      </trkpt>
      <trkpt lat="47.993779862299562" lon="11.486129108816385">
        <ele>563.469970703125</ele>
        <time>2013-06-16T14:27:21Z</time>
      </trkpt>
      <trkpt lat="47.994016567245126" lon="11.48627252317965">
        <ele>562.508544921875</ele>
        <time>2013-06-16T14:27:25Z</time>
      </trkpt>
      <trkpt lat="47.994236089289188" lon="11.486353827640414">
        <ele>562.028076171875</ele>
        <time>2013-06-16T14:27:29Z</time>
      </trkpt>
      <trkpt lat="47.994661722332239" lon="11.486533200368285">
        <ele>562.028076171875</ele>
        <time>2013-06-16T14:27:36Z</time>
      </trkpt>
      <trkpt lat="47.99516555853188" lon="11.486639566719532">
        <ele>562.9892578125</ele>
        <time>2013-06-16T14:27:44Z</time>
      </trkpt>
      <trkpt lat="47.99544794484973" lon="11.486598830670118">
        <ele>563.950439453125</ele>
        <time>2013-06-16T14:27:49Z</time>
      </trkpt>
      <trkpt lat="47.995761930942535" lon="11.486784154549241">
        <ele>562.508544921875</ele>
        <time>2013-06-16T14:27:55Z</time>
      </trkpt>
      <trkpt lat="47.995927473530173" lon="11.487192772328854">
        <ele>562.9892578125</ele>
        <time>2013-06-16T14:28:00Z</time>
      </trkpt>
      <trkpt lat="47.995929652824998" lon="11.487264269962907">
        <ele>562.9892578125</ele>
        <time>2013-06-16T14:28:01Z</time>
      </trkpt>
      <trkpt lat="47.995965024456382" lon="11.487886290997267">
        <ele>563.950439453125</ele>
        <time>2013-06-16T14:28:11Z</time>
      </trkpt>
      <trkpt lat="47.995960917323828" lon="11.487948903813958">
        <ele>563.950439453125</ele>
        <time>2013-06-16T14:28:12Z</time>
      </trkpt>
      <trkpt lat="47.995905512943864" lon="11.488271355628967">
        <ele>564.43115234375</ele>
        <time>2013-06-16T14:28:17Z</time>
      </trkpt>
      <trkpt lat="47.995879109948874" lon="11.488530524075031">
        <ele>564.43115234375</ele>
        <time>2013-06-16T14:28:21Z</time>
      </trkpt>
      <trkpt lat="47.995896628126502" lon="11.489001419395208">
        <ele>565.873291015625</ele>
        <time>2013-06-16T14:28:29Z</time>
      </trkpt>
      <trkpt lat="47.995968880131841" lon="11.489560408517718">
        <ele>566.83447265625</ele>
        <time>2013-06-16T14:28:40Z</time>
      </trkpt>
      <trkpt lat="47.995959827676415" lon="11.489884117618203">
        <ele>569.23779296875</ele>
        <time>2013-06-16T14:28:48Z</time>
      </trkpt>
      <trkpt lat="47.99601087346673" lon="11.490056868642569">
        <ele>570.198974609375</ele>
        <time>2013-06-16T14:28:54Z</time>
      </trkpt>
      <trkpt lat="47.996049514040351" lon="11.490273373201489">
        <ele>572.121826171875</ele>
        <time>2013-06-16T14:29:02Z</time>
      </trkpt>
      <trkpt lat="47.996099218726158" lon="11.490449225530028">
        <ele>573.56396484375</ele>
        <time>2013-06-16T14:29:08Z</time>
      </trkpt>
      <trkpt lat="47.99610273912549" lon="11.490640752017498">
        <ele>574.525146484375</ele>
        <time>2013-06-16T14:29:14Z</time>
      </trkpt>
      <trkpt lat="47.996096536517143" lon="11.490867398679256">
        <ele>575.005859375</ele>
        <time>2013-06-16T14:29:21Z</time>
      </trkpt>
      <trkpt lat="47.996115144342184" lon="11.49102489463985">
        <ele>576.44775390625</ele>
        <time>2013-06-16T14:29:27Z</time>
      </trkpt>
      <trkpt lat="47.996108355000615" lon="11.491076275706291">
        <ele>576.928466796875</ele>
        <time>2013-06-16T14:29:29Z</time>
      </trkpt>
      <trkpt lat="47.996095363050699" lon="11.491214158013463">
        <ele>577.8896484375</ele>
        <time>2013-06-16T14:29:34Z</time>
      </trkpt>
      <trkpt lat="47.996090333908796" lon="11.491328487172723">
        <ele>578.85107421875</ele>
        <time>2013-06-16T14:29:38Z</time>
      </trkpt>
      <trkpt lat="47.99608513712883" lon="11.491610873490572">
        <ele>579.812255859375</ele>
        <time>2013-06-16T14:29:47Z</time>
      </trkpt>
      <trkpt lat="47.996083460748196" lon="11.491981856524944">
        <ele>581.73486328125</ele>
        <time>2013-06-16T14:29:59Z</time>
      </trkpt>
      <trkpt lat="47.996102403849363" lon="11.492066597566009">
        <ele>582.6962890625</ele>
        <time>2013-06-16T14:30:02Z</time>
      </trkpt>
      <trkpt lat="47.996099889278412" lon="11.49228704161942">
        <ele>583.657470703125</ele>
        <time>2013-06-16T14:30:10Z</time>
      </trkpt>
      <trkpt lat="47.996110366657376" lon="11.492497175931931">
        <ele>584.618896484375</ele>
        <time>2013-06-16T14:30:17Z</time>
      </trkpt>
      <trkpt lat="47.99611053429544" lon="11.492631873115897">
        <ele>585.099609375</ele>
        <time>2013-06-16T14:30:22Z</time>
      </trkpt>
      <trkpt lat="47.996225450187922" lon="11.49260806851089">
        <ele>586.54150390625</ele>
        <time>2013-06-16T14:30:28Z</time>
      </trkpt>
      <trkpt lat="47.996354615315795" lon="11.492520812898874">
        <ele>586.54150390625</ele>
        <time>2013-06-16T14:30:35Z</time>
      </trkpt>
      <trkpt lat="47.996508507058024" lon="11.492472449317575">
        <ele>587.502685546875</ele>
        <time>2013-06-16T14:30:41Z</time>
      </trkpt>
      <trkpt lat="47.996683605015278" lon="11.492386786267161">
        <ele>585.580078125</ele>
        <time>2013-06-16T14:30:46Z</time>
      </trkpt>
      <trkpt lat="47.996937828138471" lon="11.4922034740448">
        <ele>585.099609375</ele>
        <time>2013-06-16T14:30:51Z</time>
      </trkpt>
      <trkpt lat="47.997137233614922" lon="11.491970289498568">
        <ele>583.657470703125</ele>
        <time>2013-06-16T14:30:55Z</time>
      </trkpt>
      <trkpt lat="47.997239828109741" lon="11.491837603971362">
        <ele>583.1767578125</ele>
        <time>2013-06-16T14:30:57Z</time>
      </trkpt>
      <trkpt lat="47.997417272999883" lon="11.491654375568032">
        <ele>581.73486328125</ele>
        <time>2013-06-16T14:31:00Z</time>
      </trkpt>
      <trkpt lat="47.997805522754788" lon="11.491221282631159">
        <ele>580.29296875</ele>
        <time>2013-06-16T14:31:06Z</time>
      </trkpt>
      <trkpt lat="47.997920187190175" lon="11.491061020642519">
        <ele>578.370361328125</ele>
        <time>2013-06-16T14:31:08Z</time>
      </trkpt>
      <trkpt lat="47.998102325946093" lon="11.490861615166068">
        <ele>578.370361328125</ele>
        <time>2013-06-16T14:31:11Z</time>
      </trkpt>
      <trkpt lat="47.998365769162774" lon="11.490499349310994">
        <ele>578.370361328125</ele>
        <time>2013-06-16T14:31:16Z</time>
      </trkpt>
      <trkpt lat="47.998618483543396" lon="11.490087546408176">
        <ele>577.8896484375</ele>
        <time>2013-06-16T14:31:21Z</time>
      </trkpt>
      <trkpt lat="47.998953089118004" lon="11.489684460684657">
        <ele>576.44775390625</ele>
        <time>2013-06-16T14:31:27Z</time>
      </trkpt>
      <trkpt lat="47.999378135427833" lon="11.489470303058624">
        <ele>577.8896484375</ele>
        <time>2013-06-16T14:31:34Z</time>
      </trkpt>
      <trkpt lat="47.999423313885927" lon="11.489460244774818">
        <ele>578.370361328125</ele>
        <time>2013-06-16T14:31:35Z</time>
      </trkpt>
      <trkpt lat="47.999635376036167" lon="11.48941146209836">
        <ele>579.33154296875</ele>
        <time>2013-06-16T14:31:40Z</time>
      </trkpt>
      <trkpt lat="47.999756410717964" lon="11.489420514553785">
        <ele>578.85107421875</ele>
        <time>2013-06-16T14:31:43Z</time>
      </trkpt>
      <trkpt lat="47.999891359359026" lon="11.489409115165472">
        <ele>579.812255859375</ele>
        <time>2013-06-16T14:31:47Z</time>
      </trkpt>
      <trkpt lat="47.999941147863865" lon="11.489544231444597">
        <ele>582.215576171875</ele>
        <time>2013-06-16T14:31:53Z</time>
      </trkpt>
      <trkpt lat="47.999965371564031" lon="11.489602318033576">
        <ele>581.25439453125</ele>
        <time>2013-06-16T14:31:55Z</time>
      </trkpt>
      <trkpt lat="48.000014740973711" lon="11.490011103451252">
        <ele>581.73486328125</ele>
        <time>2013-06-16T14:32:02Z</time>
      </trkpt>
      <trkpt lat="47.999997138977051" lon="11.490289214998484">
        <ele>582.6962890625</ele>
        <time>2013-06-16T14:32:07Z</time>
      </trkpt>
      <trkpt lat="47.999960258603096" lon="11.490641506388783">
        <ele>583.1767578125</ele>
        <time>2013-06-16T14:32:13Z</time>
      </trkpt>
      <trkpt lat="47.999947350472212" lon="11.491063702851534">
        <ele>584.618896484375</ele>
        <time>2013-06-16T14:32:21Z</time>
      </trkpt>
      <trkpt lat="47.999971741810441" lon="11.491253804415464">
        <ele>585.099609375</ele>
        <time>2013-06-16T14:32:25Z</time>
      </trkpt>
      <trkpt lat="47.999960677698255" lon="11.491638114675879">
        <ele>584.618896484375</ele>
        <time>2013-06-16T14:32:31Z</time>
      </trkpt>
      <trkpt lat="48.000050447881222" lon="11.491870963945985">
        <ele>583.657470703125</ele>
        <time>2013-06-16T14:32:35Z</time>
      </trkpt>
      <trkpt lat="48.000234430655837" lon="11.491875741630793">
        <ele>581.25439453125</ele>
        <time>2013-06-16T14:32:38Z</time>
      </trkpt>
      <trkpt lat="48.000412546098232" lon="11.491787731647491">
        <ele>581.25439453125</ele>
        <time>2013-06-16T14:32:42Z</time>
      </trkpt>
      <trkpt lat="48.000573478639126" lon="11.491710618138313">
        <ele>581.25439453125</ele>
        <time>2013-06-16T14:32:45Z</time>
      </trkpt>
      <trkpt lat="48.000749247148633" lon="11.49158195592463">
        <ele>581.25439453125</ele>
        <time>2013-06-16T14:32:48Z</time>
      </trkpt>
      <trkpt lat="48.000950496643782" lon="11.491434937343001">
        <ele>580.29296875</ele>
        <time>2013-06-16T14:32:52Z</time>
      </trkpt>
      <trkpt lat="48.00120497122407" lon="11.491212313994765">
        <ele>579.812255859375</ele>
        <time>2013-06-16T14:32:57Z</time>
      </trkpt>
      <trkpt lat="48.001533374190331" lon="11.491080299019814">
        <ele>581.25439453125</ele>
        <time>2013-06-16T14:33:03Z</time>
      </trkpt>
      <trkpt lat="48.001721547916532" lon="11.490963036194444">
        <ele>581.73486328125</ele>
        <time>2013-06-16T14:33:07Z</time>
      </trkpt>
      <trkpt lat="48.001759350299835" lon="11.490932190790772">
        <ele>581.25439453125</ele>
        <time>2013-06-16T14:33:08Z</time>
      </trkpt>
      <trkpt lat="48.001926988363266" lon="11.49083680473268">
        <ele>582.215576171875</ele>
        <time>2013-06-16T14:33:12Z</time>
      </trkpt>
      <trkpt lat="48.001983147114515" lon="11.490899501368403">
        <ele>581.73486328125</ele>
        <time>2013-06-16T14:33:14Z</time>
      </trkpt>
      <trkpt lat="48.00213485956192" lon="11.49110209196806">
        <ele>582.6962890625</ele>
        <time>2013-06-16T14:33:18Z</time>
      </trkpt>
      <trkpt lat="48.002320267260075" lon="11.491447929292917">
        <ele>583.1767578125</ele>
        <time>2013-06-16T14:33:25Z</time>
      </trkpt>
      <trkpt lat="48.002408696338534" lon="11.491569299250841">
        <ele>583.657470703125</ele>
        <time>2013-06-16T14:33:28Z</time>
      </trkpt>
      <trkpt lat="48.002584548667073" lon="11.491688825190067">
        <ele>583.1767578125</ele>
        <time>2013-06-16T14:33:31Z</time>
      </trkpt>
      <trkpt lat="48.002736680209637" lon="11.491754120215774">
        <ele>583.1767578125</ele>
        <time>2013-06-16T14:33:33Z</time>
      </trkpt>
      <trkpt lat="48.002942204475403" lon="11.491779768839478">
        <ele>584.618896484375</ele>
        <time>2013-06-16T14:33:39Z</time>
      </trkpt>
      <trkpt lat="48.003223584964871" lon="11.491698548197746">
        <ele>585.580078125</ele>
        <time>2013-06-16T14:33:46Z</time>
      </trkpt>
      <trkpt lat="48.003431623801589" lon="11.491599893197417">
        <ele>586.060791015625</ele>
        <time>2013-06-16T14:33:52Z</time>
      </trkpt>
      <trkpt lat="48.003557519987226" lon="11.491384813562036">
        <ele>587.02197265625</ele>
        <time>2013-06-16T14:33:57Z</time>
      </trkpt>
      <trkpt lat="48.00365692935884" lon="11.491226479411125">
        <ele>587.02197265625</ele>
        <time>2013-06-16T14:34:01Z</time>
      </trkpt>
      <trkpt lat="48.003729684278369" lon="11.491064121946692">
        <ele>587.9833984375</ele>
        <time>2013-06-16T14:34:06Z</time>
      </trkpt>
      <trkpt lat="48.003805875778198" lon="11.490885335952044">
        <ele>588.46435546875</ele>
        <time>2013-06-16T14:34:11Z</time>
      </trkpt>
      <trkpt lat="48.003885839134455" lon="11.490613007918">
        <ele>588.945068359375</ele>
        <time>2013-06-16T14:34:18Z</time>
      </trkpt>
      <trkpt lat="48.003981057554483" lon="11.490336153656244">
        <ele>591.34814453125</ele>
        <time>2013-06-16T14:34:25Z</time>
      </trkpt>
      <trkpt lat="48.004016680642962" lon="11.490167258307338">
        <ele>591.34814453125</ele>
        <time>2013-06-16T14:34:29Z</time>
      </trkpt>
      <trkpt lat="48.004029840230942" lon="11.48989224806428">
        <ele>591.828857421875</ele>
        <time>2013-06-16T14:34:35Z</time>
      </trkpt>
      <trkpt lat="48.004051716998219" lon="11.489699715748429">
        <ele>593.75146484375</ele>
        <time>2013-06-16T14:34:41Z</time>
      </trkpt>
      <trkpt lat="48.004090106114745" lon="11.489413976669312">
        <ele>593.270751953125</ele>
        <time>2013-06-16T14:34:46Z</time>
      </trkpt>
      <trkpt lat="48.004057751968503" lon="11.489083897322416">
        <ele>594.232177734375</ele>
        <time>2013-06-16T14:34:53Z</time>
      </trkpt>
      <trkpt lat="48.003981057554483" lon="11.488818693906069">
        <ele>594.712646484375</ele>
        <time>2013-06-16T14:35:00Z</time>
      </trkpt>
      <trkpt lat="48.003902435302734" lon="11.488542342558503">
        <ele>595.193359375</ele>
        <time>2013-06-16T14:35:06Z</time>
      </trkpt>
      <trkpt lat="48.003854658454657" lon="11.488464139401913">
        <ele>596.635498046875</ele>
        <time>2013-06-16T14:35:09Z</time>
      </trkpt>
      <trkpt lat="48.003835547715425" lon="11.488376380875707">
        <ele>596.15478515625</ele>
        <time>2013-06-16T14:35:12Z</time>
      </trkpt>
      <trkpt lat="48.003762373700738" lon="11.488235900178552">
        <ele>597.115966796875</ele>
        <time>2013-06-16T14:35:17Z</time>
      </trkpt>
      <trkpt lat="48.003782322630286" lon="11.488115284591913">
        <ele>597.115966796875</ele>
        <time>2013-06-16T14:35:20Z</time>
      </trkpt>
      <trkpt lat="48.00388265401125" lon="11.488030543550849">
        <ele>597.5966796875</ele>
        <time>2013-06-16T14:35:24Z</time>
      </trkpt>
      <trkpt lat="48.003963874652982" lon="11.48811511695385">
        <ele>598.077392578125</ele>
        <time>2013-06-16T14:35:29Z</time>
      </trkpt>
      <trkpt lat="48.004107708111405" lon="11.48824947886169">
        <ele>598.557861328125</ele>
        <time>2013-06-16T14:35:38Z</time>
      </trkpt>
      <trkpt lat="48.004177697002888" lon="11.488483585417271">
        <ele>599.519287109375</ele>
        <time>2013-06-16T14:35:45Z</time>
      </trkpt>
      <trkpt lat="48.004195466637611" lon="11.488685421645641">
        <ele>600.961181640625</ele>
        <time>2013-06-16T14:35:50Z</time>
      </trkpt>
      <trkpt lat="48.004269395023584" lon="11.489000245928764">
        <ele>602.403076171875</ele>
        <time>2013-06-16T14:35:58Z</time>
      </trkpt>
      <trkpt lat="48.004347765818238" lon="11.489247847348452">
        <ele>602.8837890625</ele>
        <time>2013-06-16T14:36:04Z</time>
      </trkpt>
      <trkpt lat="48.004402918741107" lon="11.489419844001532">
        <ele>603.84521484375</ele>
        <time>2013-06-16T14:36:09Z</time>
      </trkpt>
      <trkpt lat="48.004474667832255" lon="11.489562252536416">
        <ele>603.84521484375</ele>
        <time>2013-06-16T14:36:15Z</time>
      </trkpt>
      <trkpt lat="48.004460334777832" lon="11.489711198955774">
        <ele>605.287353515625</ele>
        <time>2013-06-16T14:36:20Z</time>
      </trkpt>
      <trkpt lat="48.004461759701371" lon="11.489743553102016">
        <ele>605.287353515625</ele>
        <time>2013-06-16T14:36:22Z</time>
      </trkpt>
      <trkpt lat="48.004454467445612" lon="11.489969277754426">
        <ele>606.24853515625</ele>
        <time>2013-06-16T14:36:28Z</time>
      </trkpt>
      <trkpt lat="48.004469638690352" lon="11.490018060430884">
        <ele>606.729248046875</ele>
        <time>2013-06-16T14:36:30Z</time>
      </trkpt>
      <trkpt lat="48.004459664225578" lon="11.49025434628129">
        <ele>607.690673828125</ele>
        <time>2013-06-16T14:36:37Z</time>
      </trkpt>
      <trkpt lat="48.004410546272993" lon="11.49047227576375">
        <ele>608.65185546875</ele>
        <time>2013-06-16T14:36:43Z</time>
      </trkpt>
      <trkpt lat="48.004397889599204" lon="11.490678386762738">
        <ele>610.09375</ele>
        <time>2013-06-16T14:36:49Z</time>
      </trkpt>
      <trkpt lat="48.004389423877001" lon="11.490813167765737">
        <ele>610.09375</ele>
        <time>2013-06-16T14:36:54Z</time>
      </trkpt>
      <trkpt lat="48.004335360601544" lon="11.491075856611133">
        <ele>611.05517578125</ele>
        <time>2013-06-16T14:37:01Z</time>
      </trkpt>
      <trkpt lat="48.004334438592196" lon="11.491110306233168">
        <ele>611.05517578125</ele>
        <time>2013-06-16T14:37:02Z</time>
      </trkpt>
      <trkpt lat="48.004303257912397" lon="11.491240141913295">
        <ele>612.0166015625</ele>
        <time>2013-06-16T14:37:07Z</time>
      </trkpt>
      <trkpt lat="48.004298731684685" lon="11.491295797750354">
        <ele>612.0166015625</ele>
        <time>2013-06-16T14:37:09Z</time>
      </trkpt>
      <trkpt lat="48.004255648702383" lon="11.491535604000092">
        <ele>613.45849609375</ele>
        <time>2013-06-16T14:37:17Z</time>
      </trkpt>
      <trkpt lat="48.004232430830598" lon="11.491639707237482">
        <ele>613.45849609375</ele>
        <time>2013-06-16T14:37:21Z</time>
      </trkpt>
      <trkpt lat="48.004195298999548" lon="11.491795526817441">
        <ele>615.381103515625</ele>
        <time>2013-06-16T14:37:26Z</time>
      </trkpt>
      <trkpt lat="48.004188928753138" lon="11.491838609799743">
        <ele>615.381103515625</ele>
        <time>2013-06-16T14:37:27Z</time>
      </trkpt>
      <trkpt lat="48.004122795537114" lon="11.492085121572018">
        <ele>615.381103515625</ele>
        <time>2013-06-16T14:37:34Z</time>
      </trkpt>
      <trkpt lat="48.004078874364495" lon="11.492286287248135">
        <ele>616.34228515625</ele>
        <time>2013-06-16T14:37:42Z</time>
      </trkpt>
      <trkpt lat="48.004053393378854" lon="11.492408411577344">
        <ele>616.822998046875</ele>
        <time>2013-06-16T14:37:48Z</time>
      </trkpt>
      <trkpt lat="48.004038725048304" lon="11.492466665804386">
        <ele>617.7841796875</ele>
        <time>2013-06-16T14:37:51Z</time>
      </trkpt>
      <trkpt lat="48.004005029797554" lon="11.492601530626416">
        <ele>618.74560546875</ele>
        <time>2013-06-16T14:37:56Z</time>
      </trkpt>
      <trkpt lat="48.003942249342799" lon="11.492759026587009">
        <ele>619.226318359375</ele>
        <time>2013-06-16T14:38:02Z</time>
      </trkpt>
      <trkpt lat="48.003866979852319" lon="11.492917779833078">
        <ele>620.187744140625</ele>
        <time>2013-06-16T14:38:06Z</time>
      </trkpt>
      <trkpt lat="48.003792800009251" lon="11.493091117590666">
        <ele>621.149169921875</ele>
        <time>2013-06-16T14:38:14Z</time>
      </trkpt>
      <trkpt lat="48.003769665956497" lon="11.493146270513535">
        <ele>621.629638671875</ele>
        <time>2013-06-16T14:38:16Z</time>
      </trkpt>
      <trkpt lat="48.003734881058335" lon="11.493272250518203">
        <ele>621.629638671875</ele>
        <time>2013-06-16T14:38:22Z</time>
      </trkpt>
      <trkpt lat="48.003645110875368" lon="11.493424633517861">
        <ele>623.07177734375</ele>
        <time>2013-06-16T14:38:27Z</time>
      </trkpt>
      <trkpt lat="48.003551820293069" lon="11.493616160005331">
        <ele>624.032958984375</ele>
        <time>2013-06-16T14:38:35Z</time>
      </trkpt>
      <trkpt lat="48.003469090908766" lon="11.493735518306494">
        <ele>624.032958984375</ele>
        <time>2013-06-16T14:38:39Z</time>
      </trkpt>
      <trkpt lat="48.003365406766534" lon="11.493885470554233">
        <ele>624.513671875</ele>
        <time>2013-06-16T14:38:45Z</time>
      </trkpt>
      <trkpt lat="48.003281084820628" lon="11.494068866595626">
        <ele>625.474853515625</ele>
        <time>2013-06-16T14:38:53Z</time>
      </trkpt>
      <trkpt lat="48.003179999068379" lon="11.494200713932514">
        <ele>626.9169921875</ele>
        <time>2013-06-16T14:39:01Z</time>
      </trkpt>
      <trkpt lat="48.003109255805612" lon="11.49439056403935">
        <ele>627.397705078125</ele>
        <time>2013-06-16T14:39:08Z</time>
      </trkpt>
      <trkpt lat="48.003106908872724" lon="11.494447644799948">
        <ele>627.397705078125</ele>
        <time>2013-06-16T14:39:10Z</time>
      </trkpt>
      <trkpt lat="48.003135826438665" lon="11.494701951742172">
        <ele>627.878173828125</ele>
        <time>2013-06-16T14:39:18Z</time>
      </trkpt>
      <trkpt lat="48.003188632428646" lon="11.494943015277386">
        <ele>626.9169921875</ele>
        <time>2013-06-16T14:39:26Z</time>
      </trkpt>
      <trkpt lat="48.003257866948843" lon="11.495353812351823">
        <ele>627.878173828125</ele>
        <time>2013-06-16T14:39:35Z</time>
      </trkpt>
      <trkpt lat="48.003329280763865" lon="11.495794281363487">
        <ele>626.9169921875</ele>
        <time>2013-06-16T14:39:43Z</time>
      </trkpt>
      <trkpt lat="48.003506725654006" lon="11.496600368991494">
        <ele>626.436279296875</ele>
        <time>2013-06-16T14:39:55Z</time>
      </trkpt>
      <trkpt lat="48.003527512773871" lon="11.496691647917032">
        <ele>626.9169921875</ele>
        <time>2013-06-16T14:39:56Z</time>
      </trkpt>
      <trkpt lat="48.003635806962848" lon="11.4971181191504">
        <ele>626.436279296875</ele>
        <time>2013-06-16T14:40:03Z</time>
      </trkpt>
      <trkpt lat="48.003794811666012" lon="11.497762016952038">
        <ele>625.95556640625</ele>
        <time>2013-06-16T14:40:13Z</time>
      </trkpt>
      <trkpt lat="48.003833703696728" lon="11.497950274497271">
        <ele>626.436279296875</ele>
        <time>2013-06-16T14:40:16Z</time>
      </trkpt>
      <trkpt lat="48.003875613212585" lon="11.498127970844507">
        <ele>626.436279296875</ele>
        <time>2013-06-16T14:40:19Z</time>
      </trkpt>
      <trkpt lat="48.003905117511749" lon="11.498240791261196">
        <ele>625.474853515625</ele>
        <time>2013-06-16T14:40:21Z</time>
      </trkpt>
      <trkpt lat="48.004103098064661" lon="11.498432653024793">
        <ele>625.474853515625</ele>
        <time>2013-06-16T14:40:26Z</time>
      </trkpt>
      <trkpt lat="48.004382634535432" lon="11.498491829261184">
        <ele>624.994384765625</ele>
        <time>2013-06-16T14:40:32Z</time>
      </trkpt>
      <trkpt lat="48.004797706380486" lon="11.498461989685893">
        <ele>624.513671875</ele>
        <time>2013-06-16T14:40:40Z</time>
      </trkpt>
      <trkpt lat="48.005134910345078" lon="11.49843298830092">
        <ele>624.994384765625</ele>
        <time>2013-06-16T14:40:46Z</time>
      </trkpt>
      <trkpt lat="48.005242701619864" lon="11.498421588912606">
        <ele>624.994384765625</ele>
        <time>2013-06-16T14:40:48Z</time>
      </trkpt>
      <trkpt lat="48.005447387695312" lon="11.498372303321958">
        <ele>624.032958984375</ele>
        <time>2013-06-16T14:40:52Z</time>
      </trkpt>
      <trkpt lat="48.005740167573094" lon="11.498293681070209">
        <ele>624.513671875</ele>
        <time>2013-06-16T14:40:59Z</time>
      </trkpt>
      <trkpt lat="48.005941919982433" lon="11.498215645551682">
        <ele>624.032958984375</ele>
        <time>2013-06-16T14:41:03Z</time>
      </trkpt>
      <trkpt lat="48.006444247439504" lon="11.498118583112955">
        <ele>623.07177734375</ele>
        <time>2013-06-16T14:41:12Z</time>
      </trkpt>
      <trkpt lat="48.006654717028141" lon="11.498074745759368">
        <ele>624.032958984375</ele>
        <time>2013-06-16T14:41:16Z</time>
      </trkpt>
      <trkpt lat="48.006759909912944" lon="11.498080026358366">
        <ele>623.07177734375</ele>
        <time>2013-06-16T14:41:18Z</time>
      </trkpt>
      <trkpt lat="48.007330801337957" lon="11.498270882293582">
        <ele>624.032958984375</ele>
        <time>2013-06-16T14:41:29Z</time>
      </trkpt>
      <trkpt lat="48.007975872606039" lon="11.498456625267863">
        <ele>623.552490234375</ele>
        <time>2013-06-16T14:41:41Z</time>
      </trkpt>
      <trkpt lat="48.008533017709851" lon="11.498621413484216">
        <ele>622.591064453125</ele>
        <time>2013-06-16T14:41:51Z</time>
      </trkpt>
      <trkpt lat="48.008977677673101" lon="11.498767090961337">
        <ele>622.591064453125</ele>
        <time>2013-06-16T14:41:59Z</time>
      </trkpt>
      <trkpt lat="48.009131988510489" lon="11.49886641651392">
        <ele>622.1103515625</ele>
        <time>2013-06-16T14:42:02Z</time>
      </trkpt>
      <trkpt lat="48.009341033175588" lon="11.498974626883864">
        <ele>621.629638671875</ele>
        <time>2013-06-16T14:42:06Z</time>
      </trkpt>
      <trkpt lat="48.009765241295099" lon="11.499189622700214">
        <ele>620.66845703125</ele>
        <time>2013-06-16T14:42:14Z</time>
      </trkpt>
      <trkpt lat="48.010414335876703" lon="11.499465722590685">
        <ele>620.66845703125</ele>
        <time>2013-06-16T14:42:26Z</time>
      </trkpt>
      <trkpt lat="48.010682472959161" lon="11.499579884111881">
        <ele>620.187744140625</ele>
        <time>2013-06-16T14:42:31Z</time>
      </trkpt>
      <trkpt lat="48.010966032743454" lon="11.499737799167633">
        <ele>620.187744140625</ele>
        <time>2013-06-16T14:42:37Z</time>
      </trkpt>
      <trkpt lat="48.011321593075991" lon="11.500001410022378">
        <ele>619.70703125</ele>
        <time>2013-06-16T14:42:44Z</time>
      </trkpt>
      <trkpt lat="48.011902961879969" lon="11.500436263158917">
        <ele>618.74560546875</ele>
        <time>2013-06-16T14:42:55Z</time>
      </trkpt>
      <trkpt lat="48.012105049565434" lon="11.500643379986286">
        <ele>618.264892578125</ele>
        <time>2013-06-16T14:43:00Z</time>
      </trkpt>
      <trkpt lat="48.012426998466253" lon="11.500889807939529">
        <ele>618.264892578125</ele>
        <time>2013-06-16T14:43:06Z</time>
      </trkpt>
      <trkpt lat="48.012477289885283" lon="11.500933142378926">
        <ele>617.3037109375</ele>
        <time>2013-06-16T14:43:07Z</time>
      </trkpt>
      <trkpt lat="48.01274886354804" lon="11.501301443204284">
        <ele>617.7841796875</ele>
        <time>2013-06-16T14:43:13Z</time>
      </trkpt>
      <trkpt lat="48.012830670922995" lon="11.501427674666047">
        <ele>616.822998046875</ele>
        <time>2013-06-16T14:43:15Z</time>
      </trkpt>
      <trkpt lat="48.012992525473237" lon="11.501761777326465">
        <ele>617.3037109375</ele>
        <time>2013-06-16T14:43:20Z</time>
      </trkpt>
      <trkpt lat="48.013106267899275" lon="11.502060005441308">
        <ele>617.7841796875</ele>
        <time>2013-06-16T14:43:24Z</time>
      </trkpt>
      <trkpt lat="48.013272816315293" lon="11.502533415332437">
        <ele>616.822998046875</ele>
        <time>2013-06-16T14:43:30Z</time>
      </trkpt>
      <trkpt lat="48.013418074697256" lon="11.502918815240264">
        <ele>615.86181640625</ele>
        <time>2013-06-16T14:43:35Z</time>
      </trkpt>
      <trkpt lat="48.013645140454173" lon="11.503132218495011">
        <ele>615.86181640625</ele>
        <time>2013-06-16T14:43:39Z</time>
      </trkpt>
      <trkpt lat="48.013802971690893" lon="11.503203129395843">
        <ele>616.34228515625</ele>
        <time>2013-06-16T14:43:42Z</time>
      </trkpt>
      <trkpt lat="48.014037329703569" lon="11.503284685313702">
        <ele>615.86181640625</ele>
        <time>2013-06-16T14:43:45Z</time>
      </trkpt>
      <trkpt lat="48.014230616390705" lon="11.503351405262947">
        <ele>616.822998046875</ele>
        <time>2013-06-16T14:43:48Z</time>
      </trkpt>
      <trkpt lat="48.014522725716233" lon="11.503441007807851">
        <ele>615.381103515625</ele>
        <time>2013-06-16T14:43:53Z</time>
      </trkpt>
      <trkpt lat="48.014884907752275" lon="11.503627756610513">
        <ele>615.381103515625</ele>
        <time>2013-06-16T14:44:00Z</time>
      </trkpt>
      <trkpt lat="48.014992279931903" lon="11.503713922575116">
        <ele>615.381103515625</ele>
        <time>2013-06-16T14:44:02Z</time>
      </trkpt>
      <trkpt lat="48.015215322375298" lon="11.503891535103321">
        <ele>615.381103515625</ele>
        <time>2013-06-16T14:44:06Z</time>
      </trkpt>
      <trkpt lat="48.015575241297483" lon="11.504271738231182">
        <ele>614.900390625</ele>
        <time>2013-06-16T14:44:13Z</time>
      </trkpt>
      <trkpt lat="48.015718404203653" lon="11.504425629973412">
        <ele>615.381103515625</ele>
        <time>2013-06-16T14:44:16Z</time>
      </trkpt>
      <trkpt lat="48.01600162871182" lon="11.504753865301609">
        <ele>614.419677734375</ele>
        <time>2013-06-16T14:44:22Z</time>
      </trkpt>
      <trkpt lat="48.016392476856709" lon="11.505163740366697">
        <ele>613.45849609375</ele>
        <time>2013-06-16T14:44:29Z</time>
      </trkpt>
      <trkpt lat="48.016588948667049" lon="11.50537739507854">
        <ele>613.45849609375</ele>
        <time>2013-06-16T14:44:33Z</time>
      </trkpt>
      <trkpt lat="48.016722053289413" lon="11.505509410053492">
        <ele>613.93896484375</ele>
        <time>2013-06-16T14:44:36Z</time>
      </trkpt>
      <trkpt lat="48.017077026888728" lon="11.505830017849803">
        <ele>613.45849609375</ele>
        <time>2013-06-16T14:44:43Z</time>
      </trkpt>
      <trkpt lat="48.017327897250652" lon="11.506141237914562">
        <ele>612.977783203125</ele>
        <time>2013-06-16T14:44:49Z</time>
      </trkpt>
      <trkpt lat="48.017483716830611" lon="11.506279790773988">
        <ele>612.977783203125</ele>
        <time>2013-06-16T14:44:52Z</time>
      </trkpt>
      <trkpt lat="48.017835672944784" lon="11.506663346663117">
        <ele>612.0166015625</ele>
        <time>2013-06-16T14:44:59Z</time>
      </trkpt>
      <trkpt lat="48.01805536262691" lon="11.50691069662571">
        <ele>612.0166015625</ele>
        <time>2013-06-16T14:45:04Z</time>
      </trkpt>
      <trkpt lat="48.01858501508832" lon="11.507449485361576">
        <ele>612.0166015625</ele>
        <time>2013-06-16T14:45:13Z</time>
      </trkpt>
      <trkpt lat="48.018857007846236" lon="11.507732961326838">
        <ele>611.535888671875</ele>
        <time>2013-06-16T14:45:18Z</time>
      </trkpt>
      <trkpt lat="48.019277025014162" lon="11.508119534701109">
        <ele>610.574462890625</ele>
        <time>2013-06-16T14:45:26Z</time>
      </trkpt>
      <trkpt lat="48.019667118787766" lon="11.508506024256349">
        <ele>611.05517578125</ele>
        <time>2013-06-16T14:45:34Z</time>
      </trkpt>
      <trkpt lat="48.019715817645192" lon="11.508555142208934">
        <ele>609.61328125</ele>
        <time>2013-06-16T14:45:35Z</time>
      </trkpt>
      <trkpt lat="48.019800307229161" lon="11.508661089465022">
        <ele>610.09375</ele>
        <time>2013-06-16T14:45:37Z</time>
      </trkpt>
      <trkpt lat="48.020168859511614" lon="11.509099127724767">
        <ele>610.574462890625</ele>
        <time>2013-06-16T14:45:47Z</time>
      </trkpt>
      <trkpt lat="48.020348232239485" lon="11.509267184883356">
        <ele>611.05517578125</ele>
        <time>2013-06-16T14:45:53Z</time>
      </trkpt>
      <trkpt lat="48.020546045154333" lon="11.509465668350458">
        <ele>610.09375</ele>
        <time>2013-06-16T14:46:00Z</time>
      </trkpt>
      <trkpt lat="48.020692560821772" lon="11.509615452960134">
        <ele>610.09375</ele>
        <time>2013-06-16T14:46:06Z</time>
      </trkpt>
      <trkpt lat="48.020862629637122" lon="11.509822485968471">
        <ele>609.132568359375</ele>
        <time>2013-06-16T14:46:12Z</time>
      </trkpt>
      <trkpt lat="48.021253058686852" lon="11.510226242244244">
        <ele>608.65185546875</ele>
        <time>2013-06-16T14:46:25Z</time>
      </trkpt>
      <trkpt lat="48.021293375641108" lon="11.510253734886646">
        <ele>609.132568359375</ele>
        <time>2013-06-16T14:46:30Z</time>
      </trkpt>
      <trkpt lat="48.021335452795029" lon="11.5102837421">
        <ele>608.17138671875</ele>
        <time>2013-06-16T14:48:26Z</time>
      </trkpt>
      <trkpt lat="48.021527649834752" lon="11.510469149798155">
        <ele>607.690673828125</ele>
        <time>2013-06-16T14:48:33Z</time>
      </trkpt>
      <trkpt lat="48.021651115268469" lon="11.510597560554743">
        <ele>606.729248046875</ele>
        <time>2013-06-16T14:48:36Z</time>
      </trkpt>
      <trkpt lat="48.021855466067791" lon="11.510842144489288">
        <ele>608.17138671875</ele>
        <time>2013-06-16T14:48:41Z</time>
      </trkpt>
      <trkpt lat="48.022125028073788" lon="11.51116912253201">
        <ele>607.690673828125</ele>
        <time>2013-06-16T14:48:47Z</time>
      </trkpt>
      <trkpt lat="48.022379083558917" lon="11.511484701186419">
        <ele>607.2099609375</ele>
        <time>2013-06-16T14:48:53Z</time>
      </trkpt>
      <trkpt lat="48.02257421426475" lon="11.511708749458194">
        <ele>606.24853515625</ele>
        <time>2013-06-16T14:48:57Z</time>
      </trkpt>
      <trkpt lat="48.023081989958882" lon="11.51220940053463">
        <ele>605.76806640625</ele>
        <time>2013-06-16T14:49:06Z</time>
      </trkpt>
      <trkpt lat="48.023476526141167" lon="11.51259396225214">
        <ele>607.2099609375</ele>
        <time>2013-06-16T14:49:13Z</time>
      </trkpt>
      <trkpt lat="48.024006262421608" lon="11.513129649683833">
        <ele>606.24853515625</ele>
        <time>2013-06-16T14:49:23Z</time>
      </trkpt>
      <trkpt lat="48.024423597380519" lon="11.513574309647083">
        <ele>604.326171875</ele>
        <time>2013-06-16T14:49:31Z</time>
      </trkpt>
      <trkpt lat="48.024576315656304" lon="11.513734068721533">
        <ele>604.806640625</ele>
        <time>2013-06-16T14:49:34Z</time>
      </trkpt>
      <trkpt lat="48.02501049824059" lon="11.514195827767253">
        <ele>605.287353515625</ele>
        <time>2013-06-16T14:49:42Z</time>
      </trkpt>
      <trkpt lat="48.025782136246562" lon="11.514989845454693">
        <ele>604.326171875</ele>
        <time>2013-06-16T14:49:56Z</time>
      </trkpt>
      <trkpt lat="48.0265071708709" lon="11.515752263367176">
        <ele>602.403076171875</ele>
        <time>2013-06-16T14:50:09Z</time>
      </trkpt>
      <trkpt lat="48.026886535808444" lon="11.516123749315739">
        <ele>603.364501953125</ele>
        <time>2013-06-16T14:50:16Z</time>
      </trkpt>
      <trkpt lat="48.027427000924945" lon="11.516724731773138">
        <ele>601.922607421875</ele>
        <time>2013-06-16T14:50:26Z</time>
      </trkpt>
      <trkpt lat="48.027967298403382" lon="11.517293527722359">
        <ele>602.8837890625</ele>
        <time>2013-06-16T14:50:36Z</time>
      </trkpt>
      <trkpt lat="48.028020691126585" lon="11.51735320687294">
        <ele>601.44189453125</ele>
        <time>2013-06-16T14:50:37Z</time>
      </trkpt>
      <trkpt lat="48.028450263664126" lon="11.517797447741032">
        <ele>600.961181640625</ele>
        <time>2013-06-16T14:50:45Z</time>
      </trkpt>
      <trkpt lat="48.028783444315195" lon="11.518146805465221">
        <ele>600.961181640625</ele>
        <time>2013-06-16T14:50:51Z</time>
      </trkpt>
      <trkpt lat="48.029119810089469" lon="11.518500857055187">
        <ele>600</ele>
        <time>2013-06-16T14:50:58Z</time>
      </trkpt>
      <trkpt lat="48.02972381003201" lon="11.519120195880532">
        <ele>599.519287109375</ele>
        <time>2013-06-16T14:51:09Z</time>
      </trkpt>
      <trkpt lat="48.029878623783588" lon="11.519269645214081">
        <ele>600.480712890625</ele>
        <time>2013-06-16T14:51:12Z</time>
      </trkpt>
      <trkpt lat="48.030069898813963" lon="11.519495621323586">
        <ele>599.03857421875</ele>
        <time>2013-06-16T14:51:16Z</time>
      </trkpt>
      <trkpt lat="48.030378436669707" lon="11.519797034561634">
        <ele>599.03857421875</ele>
        <time>2013-06-16T14:51:22Z</time>
      </trkpt>
      <trkpt lat="48.030569460242987" lon="11.519967773929238">
        <ele>599.03857421875</ele>
        <time>2013-06-16T14:51:26Z</time>
      </trkpt>
      <trkpt lat="48.031041864305735" lon="11.520073302090168">
        <ele>599.03857421875</ele>
        <time>2013-06-16T14:51:34Z</time>
      </trkpt>
      <trkpt lat="48.031424414366484" lon="11.520189810544252">
        <ele>598.077392578125</ele>
        <time>2013-06-16T14:51:42Z</time>
      </trkpt>
      <trkpt lat="48.031504293903708" lon="11.520231468603015">
        <ele>598.557861328125</ele>
        <time>2013-06-16T14:51:44Z</time>
      </trkpt>
      <trkpt lat="48.031856920570135" lon="11.520323166623712">
        <ele>597.5966796875</ele>
        <time>2013-06-16T14:51:51Z</time>
      </trkpt>
      <trkpt lat="48.032270818948746" lon="11.520424420014024">
        <ele>596.635498046875</ele>
        <time>2013-06-16T14:51:58Z</time>
      </trkpt>
      <trkpt lat="48.032735846936703" lon="11.520541347563267">
        <ele>597.5966796875</ele>
        <time>2013-06-16T14:52:06Z</time>
      </trkpt>
      <trkpt lat="48.033254602923989" lon="11.520685097202659">
        <ele>596.15478515625</ele>
        <time>2013-06-16T14:52:15Z</time>
      </trkpt>
      <trkpt lat="48.033606810495257" lon="11.520791547372937">
        <ele>596.15478515625</ele>
        <time>2013-06-16T14:52:21Z</time>
      </trkpt>
      <trkpt lat="48.034203602001071" lon="11.520961029455066">
        <ele>596.635498046875</ele>
        <time>2013-06-16T14:52:31Z</time>
      </trkpt>
      <trkpt lat="48.034722106531262" lon="11.5211146697402">
        <ele>595.193359375</ele>
        <time>2013-06-16T14:52:40Z</time>
      </trkpt>
      <trkpt lat="48.035017233341932" lon="11.521193291991949">
        <ele>595.193359375</ele>
        <time>2013-06-16T14:52:45Z</time>
      </trkpt>
      <trkpt lat="48.035234659910202" lon="11.521301921457052">
        <ele>594.232177734375</ele>
        <time>2013-06-16T14:52:49Z</time>
      </trkpt>
      <trkpt lat="48.035645205527544" lon="11.521429410204291">
        <ele>595.674072265625</ele>
        <time>2013-06-16T14:52:56Z</time>
      </trkpt>
      <trkpt lat="48.036146778613329" lon="11.521451454609632">
        <ele>592.790283203125</ele>
        <time>2013-06-16T14:53:04Z</time>
      </trkpt>
      <trkpt lat="48.036687495186925" lon="11.521439719945192">
        <ele>589.90625</ele>
        <time>2013-06-16T14:53:11Z</time>
      </trkpt>
      <trkpt lat="48.036776427179575" lon="11.521440977230668">
        <ele>589.90625</ele>
        <time>2013-06-16T14:53:12Z</time>
      </trkpt>
      <trkpt lat="48.037068536505103" lon="11.521453214809299">
        <ele>587.502685546875</ele>
        <time>2013-06-16T14:53:15Z</time>
      </trkpt>
      <trkpt lat="48.037670021876693" lon="11.521564442664385">
        <ele>584.618896484375</ele>
        <time>2013-06-16T14:53:21Z</time>
      </trkpt>
      <trkpt lat="48.038422632962465" lon="11.521893935278058">
        <ele>582.6962890625</ele>
        <time>2013-06-16T14:53:29Z</time>
      </trkpt>
      <trkpt lat="48.038940550759435" lon="11.521947830915451">
        <ele>582.215576171875</ele>
        <time>2013-06-16T14:53:35Z</time>
      </trkpt>
      <trkpt lat="48.039088156074286" lon="11.521949758753181">
        <ele>582.6962890625</ele>
        <time>2013-06-16T14:53:37Z</time>
      </trkpt>
      <trkpt lat="48.039382193237543" lon="11.522107170894742">
        <ele>583.657470703125</ele>
        <time>2013-06-16T14:53:42Z</time>
      </trkpt>
      <trkpt lat="48.039516806602478" lon="11.522458456456661">
        <ele>584.13818359375</ele>
        <time>2013-06-16T14:53:48Z</time>
      </trkpt>
      <trkpt lat="48.039726773276925" lon="11.522790379822254">
        <ele>584.13818359375</ele>
        <time>2013-06-16T14:53:55Z</time>
      </trkpt>
      <trkpt lat="48.039827439934015" lon="11.522774789482355">
        <ele>583.1767578125</ele>
        <time>2013-06-16T14:53:57Z</time>
      </trkpt>
      <trkpt lat="48.039976973086596" lon="11.522625926882029">
        <ele>581.73486328125</ele>
        <time>2013-06-16T14:54:00Z</time>
      </trkpt>
      <trkpt lat="48.040223401039839" lon="11.522495755925775">
        <ele>581.25439453125</ele>
        <time>2013-06-16T14:54:04Z</time>
      </trkpt>
      <trkpt lat="48.04053571075201" lon="11.522118402644992">
        <ele>581.25439453125</ele>
        <time>2013-06-16T14:54:10Z</time>
      </trkpt>
      <trkpt lat="48.0410594958812" lon="11.521317679435015">
        <ele>580.29296875</ele>
        <time>2013-06-16T14:54:22Z</time>
      </trkpt>
      <trkpt lat="48.041318831965327" lon="11.52094267308712">
        <ele>580.773681640625</ele>
        <time>2013-06-16T14:54:29Z</time>
      </trkpt>
      <trkpt lat="48.041367614641786" lon="11.520873438566923">
        <ele>580.29296875</ele>
        <time>2013-06-16T14:54:31Z</time>
      </trkpt>
      <trkpt lat="48.041645055636764" lon="11.520456941798329">
        <ele>579.33154296875</ele>
        <time>2013-06-16T14:54:38Z</time>
      </trkpt>
      <trkpt lat="48.042027354240417" lon="11.520018735900521">
        <ele>578.85107421875</ele>
        <time>2013-06-16T14:54:46Z</time>
      </trkpt>
      <trkpt lat="48.042282667011023" lon="11.519874986261129">
        <ele>579.33154296875</ele>
        <time>2013-06-16T14:54:51Z</time>
      </trkpt>
      <trkpt lat="48.042534878477454" lon="11.519861491397023">
        <ele>578.85107421875</ele>
        <time>2013-06-16T14:54:56Z</time>
      </trkpt>
      <trkpt lat="48.042744593694806" lon="11.519902478903532">
        <ele>579.33154296875</ele>
        <time>2013-06-16T14:55:00Z</time>
      </trkpt>
      <trkpt lat="48.042837884277105" lon="11.519963331520557">
        <ele>579.812255859375</ele>
        <time>2013-06-16T14:55:02Z</time>
      </trkpt>
      <trkpt lat="48.04335362277925" lon="11.520140105858445">
        <ele>580.773681640625</ele>
        <time>2013-06-16T14:55:12Z</time>
      </trkpt>
      <trkpt lat="48.043407434597611" lon="11.520141446962953">
        <ele>579.33154296875</ele>
        <time>2013-06-16T14:55:13Z</time>
      </trkpt>
      <trkpt lat="48.043575575575233" lon="11.520124934613705">
        <ele>580.29296875</ele>
        <time>2013-06-16T14:55:16Z</time>
      </trkpt>
      <trkpt lat="48.043847568333149" lon="11.520162904635072">
        <ele>579.812255859375</ele>
        <time>2013-06-16T14:55:21Z</time>
      </trkpt>
      <trkpt lat="48.044085530564189" lon="11.520397933200002">
        <ele>578.85107421875</ele>
        <time>2013-06-16T14:55:26Z</time>
      </trkpt>
      <trkpt lat="48.044260209426284" lon="11.520642349496484">
        <ele>578.85107421875</ele>
        <time>2013-06-16T14:55:30Z</time>
      </trkpt>
      <trkpt lat="48.044384177774191" lon="11.520807556807995">
        <ele>580.773681640625</ele>
        <time>2013-06-16T14:55:33Z</time>
      </trkpt>
      <trkpt lat="48.044424327090383" lon="11.520857932046056">
        <ele>579.812255859375</ele>
        <time>2013-06-16T14:55:34Z</time>
      </trkpt>
      <trkpt lat="48.044617027044296" lon="11.521115591749549">
        <ele>579.33154296875</ele>
        <time>2013-06-16T14:55:39Z</time>
      </trkpt>
      <trkpt lat="48.044884242117405" lon="11.52130963280797">
        <ele>575.967041015625</ele>
        <time>2013-06-16T14:55:45Z</time>
      </trkpt>
      <trkpt lat="48.04504718631506" lon="11.521444749087095">
        <ele>574.04443359375</ele>
        <time>2013-06-16T14:55:48Z</time>
      </trkpt>
      <trkpt lat="48.045095717534423" lon="11.521486407145858">
        <ele>573.083251953125</ele>
        <time>2013-06-16T14:55:49Z</time>
      </trkpt>
      <trkpt lat="48.045331332832575" lon="11.521715484559536">
        <ele>567.795654296875</ele>
        <time>2013-06-16T14:55:53Z</time>
      </trkpt>
      <trkpt lat="48.045567451044917" lon="11.521864179521799">
        <ele>565.392578125</ele>
        <time>2013-06-16T14:55:57Z</time>
      </trkpt>
      <trkpt lat="48.04570684209466" lon="11.521972808986902">
        <ele>564.43115234375</ele>
        <time>2013-06-16T14:56:00Z</time>
      </trkpt>
      <trkpt lat="48.045918820425868" lon="11.522107003256679">
        <ele>560.5859375</ele>
        <time>2013-06-16T14:56:05Z</time>
      </trkpt>
      <trkpt lat="48.045965004712343" lon="11.522123096510768">
        <ele>558.663330078125</ele>
        <time>2013-06-16T14:56:06Z</time>
      </trkpt>
      <trkpt lat="48.046164829283953" lon="11.522260727360845">
        <ele>553.3759765625</ele>
        <time>2013-06-16T14:56:11Z</time>
      </trkpt>
      <trkpt lat="48.046272788196802" lon="11.522295596078038">
        <ele>552.41455078125</ele>
        <time>2013-06-16T14:56:13Z</time>
      </trkpt>
      <trkpt lat="48.04642466828227" lon="11.522293500602245">
        <ele>551.453369140625</ele>
        <time>2013-06-16T14:56:16Z</time>
      </trkpt>
      <trkpt lat="48.046689536422491" lon="11.522364495322108">
        <ele>549.050048828125</ele>
        <time>2013-06-16T14:56:19Z</time>
      </trkpt>
      <trkpt lat="48.046738654375076" lon="11.522375727072358">
        <ele>550.011474609375</ele>
        <time>2013-06-16T14:56:20Z</time>
      </trkpt>
      <trkpt lat="48.046978125348687" lon="11.522366506978869">
        <ele>548.5693359375</ele>
        <time>2013-06-16T14:56:25Z</time>
      </trkpt>
      <trkpt lat="48.047114163637161" lon="11.522380672395229">
        <ele>547.608154296875</ele>
        <time>2013-06-16T14:56:27Z</time>
      </trkpt>
      <trkpt lat="48.047295212745667" lon="11.522453259676695">
        <ele>546.166259765625</ele>
        <time>2013-06-16T14:56:30Z</time>
      </trkpt>
      <trkpt lat="48.047532420605421" lon="11.522462898865342">
        <ele>547.12744140625</ele>
        <time>2013-06-16T14:56:33Z</time>
      </trkpt>
      <trkpt lat="48.04781237617135" lon="11.522589465603232">
        <ele>545.685546875</ele>
        <time>2013-06-16T14:56:37Z</time>
      </trkpt>
      <trkpt lat="48.047981522977352" lon="11.522751655429602">
        <ele>543.2821044921875</ele>
        <time>2013-06-16T14:56:40Z</time>
      </trkpt>
      <trkpt lat="48.048166511580348" lon="11.522802533581853">
        <ele>542.3209228515625</ele>
        <time>2013-06-16T14:56:43Z</time>
      </trkpt>
      <trkpt lat="48.048442360013723" lon="11.522805215790868">
        <ele>541.3594970703125</ele>
        <time>2013-06-16T14:56:46Z</time>
      </trkpt>
      <trkpt lat="48.048673868179321" lon="11.522831870242953">
        <ele>539.9176025390625</ele>
        <time>2013-06-16T14:56:49Z</time>
      </trkpt>
      <trkpt lat="48.048887606710196" lon="11.522969081997871">
        <ele>536.5531005859375</ele>
        <time>2013-06-16T14:56:52Z</time>
      </trkpt>
      <trkpt lat="48.049212489277124" lon="11.523073436692357">
        <ele>538.4757080078125</ele>
        <time>2013-06-16T14:56:57Z</time>
      </trkpt>
      <trkpt lat="48.049479620531201" lon="11.523129176348448">
        <ele>537.9949951171875</ele>
        <time>2013-06-16T14:57:00Z</time>
      </trkpt>
      <trkpt lat="48.049728563055396" lon="11.523290108889341">
        <ele>538.4757080078125</ele>
        <time>2013-06-16T14:57:04Z</time>
      </trkpt>
      <trkpt lat="48.049777345731854" lon="11.523389937356114">
        <ele>538.956298828125</ele>
        <time>2013-06-16T14:57:06Z</time>
      </trkpt>
      <trkpt lat="48.049971805885434" lon="11.523587498813868">
        <ele>539.4368896484375</ele>
        <time>2013-06-16T14:57:11Z</time>
      </trkpt>
      <trkpt lat="48.050073143094778" lon="11.523650949820876">
        <ele>537.9949951171875</ele>
        <time>2013-06-16T14:57:13Z</time>
      </trkpt>
      <trkpt lat="48.050487292930484" lon="11.523822778835893">
        <ele>537.5142822265625</ele>
        <time>2013-06-16T14:57:19Z</time>
      </trkpt>
      <trkpt lat="48.050696421414614" lon="11.523942807689309">
        <ele>539.4368896484375</ele>
        <time>2013-06-16T14:57:23Z</time>
      </trkpt>
      <trkpt lat="48.050718968734145" lon="11.523962672799826">
        <ele>538.956298828125</ele>
        <time>2013-06-16T14:57:24Z</time>
      </trkpt>
      <trkpt lat="48.050878392532468" lon="11.524148667231202">
        <ele>538.956298828125</ele>
        <time>2013-06-16T14:57:29Z</time>
      </trkpt>
      <trkpt lat="48.051019124686718" lon="11.524326363578439">
        <ele>538.4757080078125</ele>
        <time>2013-06-16T14:57:33Z</time>
      </trkpt>
      <trkpt lat="48.051333446055651" lon="11.524403393268585">
        <ele>538.4757080078125</ele>
        <time>2013-06-16T14:57:39Z</time>
      </trkpt>
      <trkpt lat="48.051624298095703" lon="11.524432227015495">
        <ele>536.5531005859375</ele>
        <time>2013-06-16T14:57:43Z</time>
      </trkpt>
      <trkpt lat="48.051844574511051" lon="11.524590058252215">
        <ele>538.956298828125</ele>
        <time>2013-06-16T14:57:47Z</time>
      </trkpt>
      <trkpt lat="48.051817081868649" lon="11.524819806218147">
        <ele>541.3594970703125</ele>
        <time>2013-06-16T14:57:54Z</time>
      </trkpt>
      <trkpt lat="48.051823619753122" lon="11.524845622479916">
        <ele>541.3594970703125</ele>
        <time>2013-06-16T14:57:55Z</time>
      </trkpt>
      <trkpt lat="48.051887406036258" lon="11.524978810921311">
        <ele>542.801513671875</ele>
        <time>2013-06-16T14:57:59Z</time>
      </trkpt>
      <trkpt lat="48.05200232192874" lon="11.525128008797765">
        <ele>543.7628173828125</ele>
        <time>2013-06-16T14:58:04Z</time>
      </trkpt>
      <trkpt lat="48.052110616117716" lon="11.525175953283906">
        <ele>544.7242431640625</ele>
        <time>2013-06-16T14:58:09Z</time>
      </trkpt>
      <trkpt lat="48.052223268896341" lon="11.525203278288245">
        <ele>544.7242431640625</ele>
        <time>2013-06-16T14:58:14Z</time>
      </trkpt>
      <trkpt lat="48.052348745986819" lon="11.525251474231482">
        <ele>544.7242431640625</ele>
        <time>2013-06-16T14:58:18Z</time>
      </trkpt>
      <trkpt lat="48.052461985498667" lon="11.525275865569711">
        <ele>544.7242431640625</ele>
        <time>2013-06-16T14:58:23Z</time>
      </trkpt>
      <trkpt lat="48.052493082359433" lon="11.525277206674218">
        <ele>545.685546875</ele>
        <time>2013-06-16T14:58:24Z</time>
      </trkpt>
      <trkpt lat="48.052771696820855" lon="11.525456327944994">
        <ele>544.7242431640625</ele>
        <time>2013-06-16T14:58:31Z</time>
      </trkpt>
      <trkpt lat="48.052942436188459" lon="11.525590689852834">
        <ele>542.801513671875</ele>
        <time>2013-06-16T14:58:34Z</time>
      </trkpt>
      <trkpt lat="48.053148547187448" lon="11.525689931586385">
        <ele>543.2821044921875</ele>
        <time>2013-06-16T14:58:37Z</time>
      </trkpt>
      <trkpt lat="48.053505448624492" lon="11.525660678744316">
        <ele>540.87890625</ele>
        <time>2013-06-16T14:58:43Z</time>
      </trkpt>
      <trkpt lat="48.053651126101613" lon="11.525654140859842">
        <ele>539.9176025390625</ele>
        <time>2013-06-16T14:58:45Z</time>
      </trkpt>
      <trkpt lat="48.053959496319294" lon="11.525819851085544">
        <ele>539.9176025390625</ele>
        <time>2013-06-16T14:58:50Z</time>
      </trkpt>
      <trkpt lat="48.054179102182388" lon="11.525955721735954">
        <ele>538.4757080078125</ele>
        <time>2013-06-16T14:58:54Z</time>
      </trkpt>
      <trkpt lat="48.054437264800072" lon="11.526228552684188">
        <ele>539.4368896484375</ele>
        <time>2013-06-16T14:59:00Z</time>
      </trkpt>
      <trkpt lat="48.054535584524274" lon="11.526364339515567">
        <ele>539.4368896484375</ele>
        <time>2013-06-16T14:59:03Z</time>
      </trkpt>
      <trkpt lat="48.05483833886683" lon="11.526578413322568">
        <ele>535.591552734375</ele>
        <time>2013-06-16T14:59:08Z</time>
      </trkpt>
      <trkpt lat="48.054905897006392" lon="11.526629291474819">
        <ele>534.63037109375</ele>
        <time>2013-06-16T14:59:09Z</time>
      </trkpt>
      <trkpt lat="48.055176548659801" lon="11.52703145518899">
        <ele>535.1109619140625</ele>
        <time>2013-06-16T14:59:14Z</time>
      </trkpt>
      <trkpt lat="48.055259445682168" lon="11.527189705520868">
        <ele>534.63037109375</ele>
        <time>2013-06-16T14:59:16Z</time>
      </trkpt>
      <trkpt lat="48.055398082360625" lon="11.527358097955585">
        <ele>534.63037109375</ele>
        <time>2013-06-16T14:59:19Z</time>
      </trkpt>
      <trkpt lat="48.055583825334907" lon="11.527606705203652">
        <ele>535.1109619140625</ele>
        <time>2013-06-16T14:59:24Z</time>
      </trkpt>
      <trkpt lat="48.055617185309529" lon="11.52778054587543">
        <ele>534.63037109375</ele>
        <time>2013-06-16T14:59:27Z</time>
      </trkpt>
      <trkpt lat="48.05567535571754" lon="11.527953464537859">
        <ele>535.1109619140625</ele>
        <time>2013-06-16T14:59:30Z</time>
      </trkpt>
      <trkpt lat="48.0557413212955" lon="11.528071481734514">
        <ele>535.1109619140625</ele>
        <time>2013-06-16T14:59:32Z</time>
      </trkpt>
      <trkpt lat="48.05586202070117" lon="11.528369961306453">
        <ele>535.1109619140625</ele>
        <time>2013-06-16T14:59:38Z</time>
      </trkpt>
      <trkpt lat="48.055878281593323" lon="11.528418073430657">
        <ele>535.1109619140625</ele>
        <time>2013-06-16T14:59:39Z</time>
      </trkpt>
      <trkpt lat="48.055956652387977" lon="11.528710182756186">
        <ele>537.03369140625</ele>
        <time>2013-06-16T14:59:45Z</time>
      </trkpt>
      <trkpt lat="48.055968722328544" lon="11.528759133070707">
        <ele>537.03369140625</ele>
        <time>2013-06-16T14:59:46Z</time>
      </trkpt>
      <trkpt lat="48.055979618802667" lon="11.528910342603922">
        <ele>538.4757080078125</ele>
        <time>2013-06-16T14:59:50Z</time>
      </trkpt>
      <trkpt lat="48.056009039282799" lon="11.529112178832293">
        <ele>539.4368896484375</ele>
        <time>2013-06-16T14:59:56Z</time>
      </trkpt>
      <trkpt lat="48.056042063981295" lon="11.529246373102069">
        <ele>540.3983154296875</ele>
        <time>2013-06-16T14:59:59Z</time>
      </trkpt>
      <trkpt lat="48.056069137528539" lon="11.529362043365836">
        <ele>541.8402099609375</ele>
        <time>2013-06-16T15:00:03Z</time>
      </trkpt>
      <trkpt lat="48.056067209690809" lon="11.529556084424257">
        <ele>541.8402099609375</ele>
        <time>2013-06-16T15:00:08Z</time>
      </trkpt>
      <trkpt lat="48.056072071194649" lon="11.529655661433935">
        <ele>543.2821044921875</ele>
        <time>2013-06-16T15:00:11Z</time>
      </trkpt>
      <trkpt lat="48.056059079244733" lon="11.529849953949451">
        <ele>544.24365234375</ele>
        <time>2013-06-16T15:00:17Z</time>
      </trkpt>
      <trkpt lat="48.056060085073113" lon="11.529874261468649">
        <ele>544.24365234375</ele>
        <time>2013-06-16T15:00:18Z</time>
      </trkpt>
      <trkpt lat="48.056066455319524" lon="11.529926229268312">
        <ele>543.7628173828125</ele>
        <time>2013-06-16T15:00:20Z</time>
      </trkpt>
      <trkpt lat="48.056044997647405" lon="11.530056735500693">
        <ele>545.204833984375</ele>
        <time>2013-06-16T15:00:24Z</time>
      </trkpt>
      <trkpt lat="48.056020103394985" lon="11.530180368572474">
        <ele>545.685546875</ele>
        <time>2013-06-16T15:00:28Z</time>
      </trkpt>
      <trkpt lat="48.056015660986304" lon="11.530372397974133">
        <ele>547.608154296875</ele>
        <time>2013-06-16T15:00:34Z</time>
      </trkpt>
      <trkpt lat="48.055994203314185" lon="11.53060189448297">
        <ele>548.0888671875</ele>
        <time>2013-06-16T15:00:42Z</time>
      </trkpt>
      <trkpt lat="48.055987078696489" lon="11.530792331323028">
        <ele>549.050048828125</ele>
        <time>2013-06-16T15:00:48Z</time>
      </trkpt>
      <trkpt lat="48.055982803925872" lon="11.530898530036211">
        <ele>550.011474609375</ele>
        <time>2013-06-16T15:00:52Z</time>
      </trkpt>
      <trkpt lat="48.056052541360259" lon="11.531111095100641">
        <ele>549.050048828125</ele>
        <time>2013-06-16T15:00:58Z</time>
      </trkpt>
      <trkpt lat="48.056084895506501" lon="11.531331371515989">
        <ele>547.608154296875</ele>
        <time>2013-06-16T15:01:01Z</time>
      </trkpt>
      <trkpt lat="48.056161003187299" lon="11.53162557631731">
        <ele>547.608154296875</ele>
        <time>2013-06-16T15:01:05Z</time>
      </trkpt>
      <trkpt lat="48.056159745901823" lon="11.531745186075568">
        <ele>547.608154296875</ele>
        <time>2013-06-16T15:01:07Z</time>
      </trkpt>
      <trkpt lat="48.056120099499822" lon="11.531903687864542">
        <ele>548.0888671875</ele>
        <time>2013-06-16T15:01:10Z</time>
      </trkpt>
      <trkpt lat="48.056066958233714" lon="11.532301157712936">
        <ele>548.0888671875</ele>
        <time>2013-06-16T15:01:16Z</time>
      </trkpt>
      <trkpt lat="48.056095205247402" lon="11.532619334757328">
        <ele>547.608154296875</ele>
        <time>2013-06-16T15:01:22Z</time>
      </trkpt>
      <trkpt lat="48.056084057316184" lon="11.533012446016073">
        <ele>547.608154296875</ele>
        <time>2013-06-16T15:01:28Z</time>
      </trkpt>
      <trkpt lat="48.055985402315855" lon="11.533345375210047">
        <ele>546.6468505859375</ele>
        <time>2013-06-16T15:01:32Z</time>
      </trkpt>
      <trkpt lat="48.055998394265771" lon="11.533757597208023">
        <ele>545.685546875</ele>
        <time>2013-06-16T15:01:37Z</time>
      </trkpt>
      <trkpt lat="48.056088415905833" lon="11.53389816172421">
        <ele>545.685546875</ele>
        <time>2013-06-16T15:01:39Z</time>
      </trkpt>
      <trkpt lat="48.056162009015679" lon="11.534389508888125">
        <ele>544.24365234375</ele>
        <time>2013-06-16T15:01:44Z</time>
      </trkpt>
      <trkpt lat="48.056226465851068" lon="11.534838443621993">
        <ele>543.7628173828125</ele>
        <time>2013-06-16T15:01:48Z</time>
      </trkpt>
      <trkpt lat="48.056254629045725" lon="11.53513977304101">
        <ele>543.7628173828125</ele>
        <time>2013-06-16T15:01:51Z</time>
      </trkpt>
      <trkpt lat="48.05641463957727" lon="11.535587031394243">
        <ele>543.7628173828125</ele>
        <time>2013-06-16T15:01:56Z</time>
      </trkpt>
      <trkpt lat="48.056475073099136" lon="11.535695074126124">
        <ele>542.3209228515625</ele>
        <time>2013-06-16T15:01:58Z</time>
      </trkpt>
      <trkpt lat="48.056593593209982" lon="11.535735055804253">
        <ele>541.8402099609375</ele>
        <time>2013-06-16T15:02:02Z</time>
      </trkpt>
      <trkpt lat="48.056593928486109" lon="11.535788951441646">
        <ele>541.8402099609375</ele>
        <time>2013-06-16T15:02:10Z</time>
      </trkpt>
      <trkpt lat="48.05661597289145" lon="11.53596606105566">
        <ele>540.87890625</ele>
        <time>2013-06-16T15:02:15Z</time>
      </trkpt>
      <trkpt lat="48.056665761396289" lon="11.53612338937819">
        <ele>540.3983154296875</ele>
        <time>2013-06-16T15:02:18Z</time>
      </trkpt>
      <trkpt lat="48.056689649820328" lon="11.536283735185862">
        <ele>540.87890625</ele>
        <time>2013-06-16T15:02:20Z</time>
      </trkpt>
      <trkpt lat="48.056772463023663" lon="11.536697885021567">
        <ele>539.9176025390625</ele>
        <time>2013-06-16T15:02:25Z</time>
      </trkpt>
      <trkpt lat="48.056772965937853" lon="11.536778518930078">
        <ele>539.4368896484375</ele>
        <time>2013-06-16T15:02:26Z</time>
      </trkpt>
      <trkpt lat="48.05681386962533" lon="11.537007009610534">
        <ele>540.87890625</ele>
        <time>2013-06-16T15:02:29Z</time>
      </trkpt>
      <trkpt lat="48.05693943053484" lon="11.537210857495666">
        <ele>540.87890625</ele>
        <time>2013-06-16T15:02:33Z</time>
      </trkpt>
      <trkpt lat="48.057049233466387" lon="11.537415208294988">
        <ele>539.4368896484375</ele>
        <time>2013-06-16T15:02:36Z</time>
      </trkpt>
      <trkpt lat="48.057120898738503" lon="11.537666162475944">
        <ele>538.4757080078125</ele>
        <time>2013-06-16T15:02:40Z</time>
      </trkpt>
      <trkpt lat="48.057156689465046" lon="11.537714190781116">
        <ele>538.956298828125</ele>
        <time>2013-06-16T15:02:47Z</time>
      </trkpt>
      <trkpt lat="48.057154677808285" lon="11.537735145539045">
        <ele>539.4368896484375</ele>
        <time>2013-06-16T15:02:48Z</time>
      </trkpt>
      <trkpt lat="48.057270431891084" lon="11.53787755407393">
        <ele>539.9176025390625</ele>
        <time>2013-06-16T15:02:55Z</time>
      </trkpt>
      <trkpt lat="48.057474279776216" lon="11.538062039762735">
        <ele>538.4757080078125</ele>
        <time>2013-06-16T15:03:01Z</time>
      </trkpt>
      <trkpt lat="48.0575355514884" lon="11.53814728371799">
        <ele>537.03369140625</ele>
        <time>2013-06-16T15:03:03Z</time>
      </trkpt>
      <trkpt lat="48.057614592835307" lon="11.53827435337007">
        <ele>536.0723876953125</ele>
        <time>2013-06-16T15:03:05Z</time>
      </trkpt>
      <trkpt lat="48.057776028290391" lon="11.538510974496603">
        <ele>535.591552734375</ele>
        <time>2013-06-16T15:03:10Z</time>
      </trkpt>
      <trkpt lat="48.057797653600574" lon="11.538604600355029">
        <ele>534.149658203125</ele>
        <time>2013-06-16T15:03:16Z</time>
      </trkpt>
      <trkpt lat="48.057838808745146" lon="11.538686072453856">
        <ele>535.591552734375</ele>
        <time>2013-06-16T15:03:23Z</time>
      </trkpt>
      <trkpt lat="48.05785414762795" lon="11.538667464628816">
        <ele>535.1109619140625</ele>
        <time>2013-06-16T15:03:32Z</time>
      </trkpt>
      <trkpt lat="48.057924723252654" lon="11.538637289777398">
        <ele>533.1883544921875</ele>
        <time>2013-06-16T15:03:36Z</time>
      </trkpt>
      <trkpt lat="48.058100324124098" lon="11.538743991404772">
        <ele>532.22705078125</ele>
        <time>2013-06-16T15:03:41Z</time>
      </trkpt>
      <trkpt lat="48.058208199217916" lon="11.53888220898807">
        <ele>531.746337890625</ele>
        <time>2013-06-16T15:03:43Z</time>
      </trkpt>
      <trkpt lat="48.058569291606545" lon="11.539167780429125">
        <ele>531.746337890625</ele>
        <time>2013-06-16T15:03:50Z</time>
      </trkpt>
      <trkpt lat="48.058748161420226" lon="11.539289988577366">
        <ele>531.746337890625</ele>
        <time>2013-06-16T15:03:54Z</time>
      </trkpt>
      <trkpt lat="48.058841368183494" lon="11.539344722405076">
        <ele>532.707763671875</ele>
        <time>2013-06-16T15:03:56Z</time>
      </trkpt>
      <trkpt lat="48.058960475027561" lon="11.539415214210749">
        <ele>531.746337890625</ele>
        <time>2013-06-16T15:03:58Z</time>
      </trkpt>
      <trkpt lat="48.059162897989154" lon="11.539519568905234">
        <ele>531.2657470703125</ele>
        <time>2013-06-16T15:04:01Z</time>
      </trkpt>
      <trkpt lat="48.059298517182469" lon="11.539601376280189">
        <ele>531.2657470703125</ele>
        <time>2013-06-16T15:04:03Z</time>
      </trkpt>
      <trkpt lat="48.059472525492311" lon="11.539720064029098">
        <ele>531.746337890625</ele>
        <time>2013-06-16T15:04:06Z</time>
      </trkpt>
      <trkpt lat="48.059930093586445" lon="11.540001444518566">
        <ele>530.78515625</ele>
        <time>2013-06-16T15:04:13Z</time>
      </trkpt>
      <trkpt lat="48.060187250375748" lon="11.540135135874152">
        <ele>531.746337890625</ele>
        <time>2013-06-16T15:04:16Z</time>
      </trkpt>
      <trkpt lat="48.06061196140945" lon="11.540419533848763">
        <ele>531.2657470703125</ele>
        <time>2013-06-16T15:04:23Z</time>
      </trkpt>
      <trkpt lat="48.061122670769691" lon="11.540695885196328">
        <ele>530.78515625</ele>
        <time>2013-06-16T15:04:32Z</time>
      </trkpt>
      <trkpt lat="48.06144411675632" lon="11.540876012295485">
        <ele>530.78515625</ele>
        <time>2013-06-16T15:04:37Z</time>
      </trkpt>
      <trkpt lat="48.061575209721923" lon="11.540938625112176">
        <ele>529.3431396484375</ele>
        <time>2013-06-16T15:04:39Z</time>
      </trkpt>
      <trkpt lat="48.062030598521233" lon="11.541153537109494">
        <ele>530.78515625</ele>
        <time>2013-06-16T15:04:46Z</time>
      </trkpt>
      <trkpt lat="48.062378279864788" lon="11.541284713894129">
        <ele>530.78515625</ele>
        <time>2013-06-16T15:04:52Z</time>
      </trkpt>
      <trkpt lat="48.062662007287145" lon="11.541401809081435">
        <ele>529.82373046875</ele>
        <time>2013-06-16T15:04:57Z</time>
      </trkpt>
      <trkpt lat="48.063075570389628" lon="11.541513120755553">
        <ele>530.304443359375</ele>
        <time>2013-06-16T15:05:04Z</time>
      </trkpt>
      <trkpt lat="48.063505981117487" lon="11.541666593402624">
        <ele>530.304443359375</ele>
        <time>2013-06-16T15:05:11Z</time>
      </trkpt>
      <trkpt lat="48.06392197497189" lon="11.541844038292766">
        <ele>529.82373046875</ele>
        <time>2013-06-16T15:05:18Z</time>
      </trkpt>
      <trkpt lat="48.064257586374879" lon="11.54201284982264">
        <ele>529.82373046875</ele>
        <time>2013-06-16T15:05:24Z</time>
      </trkpt>
      <trkpt lat="48.064744994044304" lon="11.542237736284733">
        <ele>529.3431396484375</ele>
        <time>2013-06-16T15:05:33Z</time>
      </trkpt>
      <trkpt lat="48.064838368445635" lon="11.542316190898418">
        <ele>529.3431396484375</ele>
        <time>2013-06-16T15:05:35Z</time>
      </trkpt>
      <trkpt lat="48.065068116411567" lon="11.54247117228806">
        <ele>529.3431396484375</ele>
        <time>2013-06-16T15:05:40Z</time>
      </trkpt>
      <trkpt lat="48.065191078931093" lon="11.542581310495734">
        <ele>529.82373046875</ele>
        <time>2013-06-16T15:05:44Z</time>
      </trkpt>
      <trkpt lat="48.065156545490026" lon="11.542687341570854">
        <ele>530.78515625</ele>
        <time>2013-06-16T15:05:49Z</time>
      </trkpt>
      <trkpt lat="48.065170627087355" lon="11.542697986587882">
        <ele>530.304443359375</ele>
        <time>2013-06-16T15:05:53Z</time>
      </trkpt>
      <trkpt lat="48.065210357308388" lon="11.54271743260324">
        <ele>530.78515625</ele>
        <time>2013-06-16T15:05:56Z</time>
      </trkpt>
      <trkpt lat="48.065414456650615" lon="11.542664794251323">
        <ele>529.82373046875</ele>
        <time>2013-06-16T15:06:02Z</time>
      </trkpt>
      <trkpt lat="48.065597852692008" lon="11.542716175317764">
        <ele>529.3431396484375</ele>
        <time>2013-06-16T15:06:06Z</time>
      </trkpt>
      <trkpt lat="48.065785523504019" lon="11.542818769812584">
        <ele>529.82373046875</ele>
        <time>2013-06-16T15:06:10Z</time>
      </trkpt>
      <trkpt lat="48.065972942858934" lon="11.542925639078021">
        <ele>529.3431396484375</ele>
        <time>2013-06-16T15:06:14Z</time>
      </trkpt>
      <trkpt lat="48.0662199575454" lon="11.542982384562492">
        <ele>529.82373046875</ele>
        <time>2013-06-16T15:06:19Z</time>
      </trkpt>
      <trkpt lat="48.066311487928033" lon="11.54298422858119">
        <ele>529.3431396484375</ele>
        <time>2013-06-16T15:06:21Z</time>
      </trkpt>
      <trkpt lat="48.066631341353059" lon="11.543079949915409">
        <ele>529.82373046875</ele>
        <time>2013-06-16T15:06:27Z</time>
      </trkpt>
      <trkpt lat="48.066824376583099" lon="11.543085314333439">
        <ele>529.82373046875</ele>
        <time>2013-06-16T15:06:31Z</time>
      </trkpt>
      <trkpt lat="48.06714054197073" lon="11.543083051219583">
        <ele>529.3431396484375</ele>
        <time>2013-06-16T15:06:37Z</time>
      </trkpt>
      <trkpt lat="48.067195862531662" lon="11.543079782277346">
        <ele>528.862548828125</ele>
        <time>2013-06-16T15:06:38Z</time>
      </trkpt>
      <trkpt lat="48.06756273843348" lon="11.54305656440556">
        <ele>529.3431396484375</ele>
        <time>2013-06-16T15:06:44Z</time>
      </trkpt>
      <trkpt lat="48.067891811951995" lon="11.543073328211904">
        <ele>529.3431396484375</ele>
        <time>2013-06-16T15:06:50Z</time>
      </trkpt>
      <trkpt lat="48.067943695932627" lon="11.543078105896711">
        <ele>529.3431396484375</ele>
        <time>2013-06-16T15:06:51Z</time>
      </trkpt>
      <trkpt lat="48.068260280415416" lon="11.543135521933436">
        <ele>529.82373046875</ele>
        <time>2013-06-16T15:06:57Z</time>
      </trkpt>
      <trkpt lat="48.06860351935029" lon="11.543152621015906">
        <ele>529.82373046875</ele>
        <time>2013-06-16T15:07:03Z</time>
      </trkpt>
      <trkpt lat="48.068906692788005" lon="11.543066203594208">
        <ele>529.3431396484375</ele>
        <time>2013-06-16T15:07:09Z</time>
      </trkpt>
      <trkpt lat="48.068945417180657" lon="11.543046589940786">
        <ele>529.3431396484375</ele>
        <time>2013-06-16T15:07:10Z</time>
      </trkpt>
      <trkpt lat="48.069241968914866" lon="11.542919268831611">
        <ele>529.3431396484375</ele>
        <time>2013-06-16T15:07:16Z</time>
      </trkpt>
      <trkpt lat="48.069587387144566" lon="11.54279806651175">
        <ele>529.3431396484375</ele>
        <time>2013-06-16T15:07:22Z</time>
      </trkpt>
      <trkpt lat="48.069892656058073" lon="11.542655741795897">
        <ele>529.82373046875</ele>
        <time>2013-06-16T15:07:28Z</time>
      </trkpt>
      <trkpt lat="48.069947389885783" lon="11.542631685733795">
        <ele>530.304443359375</ele>
        <time>2013-06-16T15:07:29Z</time>
      </trkpt>
      <trkpt lat="48.070147885009646" lon="11.542664123699069">
        <ele>529.3431396484375</ele>
        <time>2013-06-16T15:07:33Z</time>
      </trkpt>
      <trkpt lat="48.070384589955211" lon="11.542753893882036">
        <ele>529.3431396484375</ele>
        <time>2013-06-16T15:07:39Z</time>
      </trkpt>
      <trkpt lat="48.07061031460762" lon="11.542817680165172">
        <ele>529.3431396484375</ele>
        <time>2013-06-16T15:07:46Z</time>
      </trkpt>
      <trkpt lat="48.070714753121138" lon="11.542831342667341">
        <ele>529.3431396484375</ele>
        <time>2013-06-16T15:07:50Z</time>
      </trkpt>
      <trkpt lat="48.070949362590909" lon="11.542909042909741">
        <ele>530.304443359375</ele>
        <time>2013-06-16T15:07:54Z</time>
      </trkpt>
      <trkpt lat="48.071147343143821" lon="11.542957490310073">
        <ele>530.304443359375</ele>
        <time>2013-06-16T15:07:57Z</time>
      </trkpt>
      <trkpt lat="48.071359656751156" lon="11.542889010161161">
        <ele>530.304443359375</ele>
        <time>2013-06-16T15:08:02Z</time>
      </trkpt>
      <trkpt lat="48.071421599015594" lon="11.542870402336121">
        <ele>529.82373046875</ele>
        <time>2013-06-16T15:08:03Z</time>
      </trkpt>
      <trkpt lat="48.071662746369839" lon="11.542857913300395">
        <ele>531.2657470703125</ele>
        <time>2013-06-16T15:08:07Z</time>
      </trkpt>
      <trkpt lat="48.071915544569492" lon="11.542793540284038">
        <ele>530.78515625</ele>
        <time>2013-06-16T15:08:12Z</time>
      </trkpt>
      <trkpt lat="48.072172198444605" lon="11.542622968554497">
        <ele>530.78515625</ele>
        <time>2013-06-16T15:08:17Z</time>
      </trkpt>
      <trkpt lat="48.072283007204533" lon="11.542535461485386">
        <ele>530.78515625</ele>
        <time>2013-06-16T15:08:19Z</time>
      </trkpt>
      <trkpt lat="48.072454920038581" lon="11.542413588613272">
        <ele>530.78515625</ele>
        <time>2013-06-16T15:08:23Z</time>
      </trkpt>
      <trkpt lat="48.072695983573794" lon="11.54240763746202">
        <ele>530.78515625</ele>
        <time>2013-06-16T15:08:29Z</time>
      </trkpt>
      <trkpt lat="48.072913326323032" lon="11.542368410155177">
        <ele>530.78515625</ele>
        <time>2013-06-16T15:08:33Z</time>
      </trkpt>
      <trkpt lat="48.073103427886963" lon="11.542325243353844">
        <ele>531.2657470703125</ele>
        <time>2013-06-16T15:08:37Z</time>
      </trkpt>
      <trkpt lat="48.073359746485949" lon="11.542256595566869">
        <ele>530.304443359375</ele>
        <time>2013-06-16T15:08:41Z</time>
      </trkpt>
      <trkpt lat="48.073652945458889" lon="11.542163891717792">
        <ele>529.82373046875</ele>
        <time>2013-06-16T15:08:46Z</time>
      </trkpt>
      <trkpt lat="48.073704745620489" lon="11.542147630825639">
        <ele>530.78515625</ele>
        <time>2013-06-16T15:08:47Z</time>
      </trkpt>
      <trkpt lat="48.073962489143014" lon="11.542087029665709">
        <ele>531.2657470703125</ele>
        <time>2013-06-16T15:08:52Z</time>
      </trkpt>
      <trkpt lat="48.074267338961363" lon="11.542047467082739">
        <ele>530.78515625</ele>
        <time>2013-06-16T15:08:58Z</time>
      </trkpt>
      <trkpt lat="48.074445119127631" lon="11.54201771132648">
        <ele>531.746337890625</ele>
        <time>2013-06-16T15:09:02Z</time>
      </trkpt>
      <trkpt lat="48.074597250670195" lon="11.541976137086749">
        <ele>531.2657470703125</ele>
        <time>2013-06-16T15:09:05Z</time>
      </trkpt>
      <trkpt lat="48.075006119906902" lon="11.541884187608957">
        <ele>530.304443359375</ele>
        <time>2013-06-16T15:09:13Z</time>
      </trkpt>
      <trkpt lat="48.075234275311232" lon="11.541887456551194">
        <ele>531.2657470703125</ele>
        <time>2013-06-16T15:09:18Z</time>
      </trkpt>
      <trkpt lat="48.07535195723176" lon="11.541873039677739">
        <ele>532.707763671875</ele>
        <time>2013-06-16T15:09:21Z</time>
      </trkpt>
      <trkpt lat="48.075542394071817" lon="11.541849989444017">
        <ele>533.1883544921875</ele>
        <time>2013-06-16T15:09:27Z</time>
      </trkpt>
      <trkpt lat="48.075673067942262" lon="11.541839176788926">
        <ele>532.22705078125</ele>
        <time>2013-06-16T15:09:30Z</time>
      </trkpt>
      <trkpt lat="48.075843304395676" lon="11.541825933381915">
        <ele>531.2657470703125</ele>
        <time>2013-06-16T15:09:33Z</time>
      </trkpt>
      <trkpt lat="48.075950676575303" lon="11.541849235072732">
        <ele>529.82373046875</ele>
        <time>2013-06-16T15:09:35Z</time>
      </trkpt>
      <trkpt lat="48.076271703466773" lon="11.541947051882744">
        <ele>529.3431396484375</ele>
        <time>2013-06-16T15:09:40Z</time>
      </trkpt>
      <trkpt lat="48.076342782005668" lon="11.54197420924902">
        <ele>529.3431396484375</ele>
        <time>2013-06-16T15:09:41Z</time>
      </trkpt>
      <trkpt lat="48.076863717287779" lon="11.541991392150521">
        <ele>529.3431396484375</ele>
        <time>2013-06-16T15:09:49Z</time>
      </trkpt>
      <trkpt lat="48.077115006744862" lon="11.541987201198936">
        <ele>530.304443359375</ele>
        <time>2013-06-16T15:09:53Z</time>
      </trkpt>
      <trkpt lat="48.077494036406279" lon="11.541907824575901">
        <ele>529.3431396484375</ele>
        <time>2013-06-16T15:10:00Z</time>
      </trkpt>
      <trkpt lat="48.07772328145802" lon="11.541888043284416">
        <ele>529.82373046875</ele>
        <time>2013-06-16T15:10:04Z</time>
      </trkpt>
      <trkpt lat="48.077996950596571" lon="11.541893491521478">
        <ele>529.3431396484375</ele>
        <time>2013-06-16T15:10:09Z</time>
      </trkpt>
      <trkpt lat="48.078500367701054" lon="11.542006563395262">
        <ele>528.862548828125</ele>
        <time>2013-06-16T15:10:19Z</time>
      </trkpt>
      <trkpt lat="48.078861963003874" lon="11.542174201458693">
        <ele>528.862548828125</ele>
        <time>2013-06-16T15:10:26Z</time>
      </trkpt>
      <trkpt lat="48.079291703179479" lon="11.542372433468699">
        <ele>529.82373046875</ele>
        <time>2013-06-16T15:10:34Z</time>
      </trkpt>
      <trkpt lat="48.079591942951083" lon="11.542502855882049">
        <ele>530.304443359375</ele>
        <time>2013-06-16T15:10:40Z</time>
      </trkpt>
      <trkpt lat="48.079687831923366" lon="11.542541328817606">
        <ele>530.304443359375</ele>
        <time>2013-06-16T15:10:42Z</time>
      </trkpt>
      <trkpt lat="48.07987374253571" lon="11.542634870857">
        <ele>529.3431396484375</ele>
        <time>2013-06-16T15:10:46Z</time>
      </trkpt>
      <trkpt lat="48.079960495233536" lon="11.542668985202909">
        <ele>528.862548828125</ele>
        <time>2013-06-16T15:10:48Z</time>
      </trkpt>
      <trkpt lat="48.080379087477922" lon="11.542801754549146">
        <ele>529.3431396484375</ele>
        <time>2013-06-16T15:10:54Z</time>
      </trkpt>
      <trkpt lat="48.080764235928655" lon="11.542925303801894">
        <ele>528.862548828125</ele>
        <time>2013-06-16T15:11:01Z</time>
      </trkpt>
      <trkpt lat="48.080875044688582" lon="11.542981043457985">
        <ele>528.862548828125</ele>
        <time>2013-06-16T15:11:03Z</time>
      </trkpt>
      <trkpt lat="48.081023236736655" lon="11.543069137260318">
        <ele>528.862548828125</ele>
        <time>2013-06-16T15:11:06Z</time>
      </trkpt>
      <trkpt lat="48.0811832472682" lon="11.54318698681891">
        <ele>528.862548828125</ele>
        <time>2013-06-16T15:11:10Z</time>
      </trkpt>
      <trkpt lat="48.081394890323281" lon="11.543366946280003">
        <ele>529.3431396484375</ele>
        <time>2013-06-16T15:11:14Z</time>
      </trkpt>
      <trkpt lat="48.081619525328279" lon="11.54355788603425">
        <ele>528.862548828125</ele>
        <time>2013-06-16T15:11:19Z</time>
      </trkpt>
      <trkpt lat="48.08184483088553" lon="11.543738013133407">
        <ele>528.862548828125</ele>
        <time>2013-06-16T15:11:24Z</time>
      </trkpt>
      <trkpt lat="48.082204833626747" lon="11.543887797743082">
        <ele>528.862548828125</ele>
        <time>2013-06-16T15:11:30Z</time>
      </trkpt>
      <trkpt lat="48.082509515807033" lon="11.543969102203846">
        <ele>528.862548828125</ele>
        <time>2013-06-16T15:11:35Z</time>
      </trkpt>
      <trkpt lat="48.082827609032393" lon="11.544041270390153">
        <ele>528.862548828125</ele>
        <time>2013-06-16T15:11:41Z</time>
      </trkpt>
      <trkpt lat="48.082992983981967" lon="11.544106649234891">
        <ele>528.862548828125</ele>
        <time>2013-06-16T15:11:44Z</time>
      </trkpt>
      <trkpt lat="48.083204375579953" lon="11.544249393045902">
        <ele>528.3818359375</ele>
        <time>2013-06-16T15:11:48Z</time>
      </trkpt>
      <trkpt lat="48.083447618409991" lon="11.544458689168096">
        <ele>528.3818359375</ele>
        <time>2013-06-16T15:11:53Z</time>
      </trkpt>
      <trkpt lat="48.083710810169578" lon="11.544636469334364">
        <ele>527.9010009765625</ele>
        <time>2013-06-16T15:11:58Z</time>
      </trkpt>
      <trkpt lat="48.083840981125832" lon="11.544714840129018">
        <ele>527.9010009765625</ele>
        <time>2013-06-16T15:12:00Z</time>
      </trkpt>
      <trkpt lat="48.08406519703567" lon="11.544845849275589">
        <ele>528.3818359375</ele>
        <time>2013-06-16T15:12:04Z</time>
      </trkpt>
      <trkpt lat="48.084490997716784" lon="11.545156398788095">
        <ele>528.3818359375</ele>
        <time>2013-06-16T15:12:12Z</time>
      </trkpt>
      <trkpt lat="48.084771707653999" lon="11.545377178117633">
        <ele>527.9010009765625</ele>
        <time>2013-06-16T15:12:17Z</time>
      </trkpt>
      <trkpt lat="48.085144953802228" lon="11.545671969652176">
        <ele>528.3818359375</ele>
        <time>2013-06-16T15:12:24Z</time>
      </trkpt>
      <trkpt lat="48.085368750616908" lon="11.545888055115938">
        <ele>528.862548828125</ele>
        <time>2013-06-16T15:12:28Z</time>
      </trkpt>
      <trkpt lat="48.085685335099697" lon="11.546153090894222">
        <ele>528.3818359375</ele>
        <time>2013-06-16T15:12:34Z</time>
      </trkpt>
      <trkpt lat="48.085994208231568" lon="11.546419048681855">
        <ele>528.3818359375</ele>
        <time>2013-06-16T15:12:40Z</time>
      </trkpt>
      <trkpt lat="48.086317079141736" lon="11.546666901558638">
        <ele>527.9010009765625</ele>
        <time>2013-06-16T15:12:46Z</time>
      </trkpt>
      <trkpt lat="48.086422355845571" lon="11.546745859086514">
        <ele>528.3818359375</ele>
        <time>2013-06-16T15:12:48Z</time>
      </trkpt>
      <trkpt lat="48.086574738845229" lon="11.546882400289178">
        <ele>528.3818359375</ele>
        <time>2013-06-16T15:12:51Z</time>
      </trkpt>
      <trkpt lat="48.086924264207482" lon="11.547176102176309">
        <ele>527.42041015625</ele>
        <time>2013-06-16T15:12:58Z</time>
      </trkpt>
      <trkpt lat="48.087261049076915" lon="11.547493357211351">
        <ele>528.862548828125</ele>
        <time>2013-06-16T15:13:04Z</time>
      </trkpt>
      <trkpt lat="48.087565479800105" lon="11.547771049663424">
        <ele>526.9398193359375</ele>
        <time>2013-06-16T15:13:10Z</time>
      </trkpt>
      <trkpt lat="48.087619375437498" lon="11.547822011634707">
        <ele>527.9010009765625</ele>
        <time>2013-06-16T15:13:11Z</time>
      </trkpt>
      <trkpt lat="48.087927494198084" lon="11.548079587519169">
        <ele>527.9010009765625</ele>
        <time>2013-06-16T15:13:17Z</time>
      </trkpt>
      <trkpt lat="48.088224967941642" lon="11.548344790935516">
        <ele>527.42041015625</ele>
        <time>2013-06-16T15:13:23Z</time>
      </trkpt>
      <trkpt lat="48.088322281837463" lon="11.548426765948534">
        <ele>527.42041015625</ele>
        <time>2013-06-16T15:13:25Z</time>
      </trkpt>
      <trkpt lat="48.088538032025099" lon="11.548615694046021">
        <ele>527.42041015625</ele>
        <time>2013-06-16T15:13:29Z</time>
      </trkpt>
      <trkpt lat="48.088646912947297" lon="11.548735052347183">
        <ele>527.42041015625</ele>
        <time>2013-06-16T15:13:31Z</time>
      </trkpt>
      <trkpt lat="48.088918570429087" lon="11.548972595483065">
        <ele>526.9398193359375</ele>
        <time>2013-06-16T15:13:37Z</time>
      </trkpt>
      <trkpt lat="48.089290140196681" lon="11.549281049519777">
        <ele>527.42041015625</ele>
        <time>2013-06-16T15:13:44Z</time>
      </trkpt>
      <trkpt lat="48.089571353048086" lon="11.549506019800901">
        <ele>527.42041015625</ele>
        <time>2013-06-16T15:13:49Z</time>
      </trkpt>
      <trkpt lat="48.089950969442725" lon="11.54983869753778">
        <ele>526.4591064453125</ele>
        <time>2013-06-16T15:13:56Z</time>
      </trkpt>
      <trkpt lat="48.090320862829685" lon="11.550175901502371">
        <ele>527.42041015625</ele>
        <time>2013-06-16T15:14:03Z</time>
      </trkpt>
      <trkpt lat="48.090483136475086" lon="11.550301965326071">
        <ele>526.9398193359375</ele>
        <time>2013-06-16T15:14:06Z</time>
      </trkpt>
      <trkpt lat="48.090704418718815" lon="11.550479326397181">
        <ele>526.9398193359375</ele>
        <time>2013-06-16T15:14:10Z</time>
      </trkpt>
      <trkpt lat="48.091034665703773" lon="11.550608072429895">
        <ele>527.42041015625</ele>
        <time>2013-06-16T15:14:16Z</time>
      </trkpt>
      <trkpt lat="48.091320488601923" lon="11.550685353577137">
        <ele>527.9010009765625</ele>
        <time>2013-06-16T15:14:21Z</time>
      </trkpt>
      <trkpt lat="48.091607987880707" lon="11.55072265304625">
        <ele>526.9398193359375</ele>
        <time>2013-06-16T15:14:26Z</time>
      </trkpt>
      <trkpt lat="48.091862630099058" lon="11.550715276971459">
        <ele>526.9398193359375</ele>
        <time>2013-06-16T15:14:31Z</time>
      </trkpt>
      <trkpt lat="48.092067902907729" lon="11.55069868080318">
        <ele>526.9398193359375</ele>
        <time>2013-06-16T15:14:35Z</time>
      </trkpt>
      <trkpt lat="48.092246102169156" lon="11.550643360242248">
        <ele>526.9398193359375</ele>
        <time>2013-06-16T15:14:40Z</time>
      </trkpt>
      <trkpt lat="48.092469312250614" lon="11.550453510135412">
        <ele>527.42041015625</ele>
        <time>2013-06-16T15:14:46Z</time>
      </trkpt>
      <trkpt lat="48.092596381902695" lon="11.550513776019216">
        <ele>526.4591064453125</ele>
        <time>2013-06-16T15:14:49Z</time>
      </trkpt>
      <trkpt lat="48.092746250331402" lon="11.550563396885991">
        <ele>525.497802734375</ele>
        <time>2013-06-16T15:14:53Z</time>
      </trkpt>
      <trkpt lat="48.093032911419868" lon="11.550657777115703">
        <ele>524.0557861328125</ele>
        <time>2013-06-16T15:14:58Z</time>
      </trkpt>
      <trkpt lat="48.093215888366103" lon="11.550657860934734">
        <ele>524.5364990234375</ele>
        <time>2013-06-16T15:15:01Z</time>
      </trkpt>
      <trkpt lat="48.093520570546389" lon="11.550677055492997">
        <ele>524.5364990234375</ele>
        <time>2013-06-16T15:15:06Z</time>
      </trkpt>
      <trkpt lat="48.093678569421172" lon="11.550749307498336">
        <ele>524.0557861328125</ele>
        <time>2013-06-16T15:15:09Z</time>
      </trkpt>
      <trkpt lat="48.093919632956386" lon="11.550874197855592">
        <ele>524.5364990234375</ele>
        <time>2013-06-16T15:15:13Z</time>
      </trkpt>
      <trkpt lat="48.094224063679576" lon="11.550948293879628">
        <ele>525.0172119140625</ele>
        <time>2013-06-16T15:15:18Z</time>
      </trkpt>
      <trkpt lat="48.094567637890577" lon="11.550984503701329">
        <ele>524.0557861328125</ele>
        <time>2013-06-16T15:15:24Z</time>
      </trkpt>
      <trkpt lat="48.094919174909592" lon="11.550990622490644">
        <ele>524.0557861328125</ele>
        <time>2013-06-16T15:15:30Z</time>
      </trkpt>
      <trkpt lat="48.095112713053823" lon="11.550990454852581">
        <ele>524.0557861328125</ele>
        <time>2013-06-16T15:15:33Z</time>
      </trkpt>
      <trkpt lat="48.095482606440783" lon="11.551025239750743">
        <ele>523.5751953125</ele>
        <time>2013-06-16T15:15:39Z</time>
      </trkpt>
      <trkpt lat="48.095824671909213" lon="11.55102264136076">
        <ele>524.0557861328125</ele>
        <time>2013-06-16T15:15:44Z</time>
      </trkpt>
      <trkpt lat="48.09603170491755" lon="11.551007553935051">
        <ele>524.0557861328125</ele>
        <time>2013-06-16T15:15:47Z</time>
      </trkpt>
      <trkpt lat="48.096517603844404" lon="11.551004033535719">
        <ele>523.5751953125</ele>
        <time>2013-06-16T15:15:54Z</time>
      </trkpt>
      <trkpt lat="48.096958994865417" lon="11.550996322184801">
        <ele>524.0557861328125</ele>
        <time>2013-06-16T15:16:01Z</time>
      </trkpt>
      <trkpt lat="48.097074497491121" lon="11.550979977473617">
        <ele>523.5751953125</ele>
        <time>2013-06-16T15:16:03Z</time>
      </trkpt>
      <trkpt lat="48.097532652318478" lon="11.550979474559426">
        <ele>524.5364990234375</ele>
        <time>2013-06-16T15:16:11Z</time>
      </trkpt>
      <trkpt lat="48.097593421116471" lon="11.550985174253583">
        <ele>524.0557861328125</ele>
        <time>2013-06-16T15:16:12Z</time>
      </trkpt>
      <trkpt lat="48.097859211266041" lon="11.550974026322365">
        <ele>523.5751953125</ele>
        <time>2013-06-16T15:16:16Z</time>
      </trkpt>
      <trkpt lat="48.098156349733472" lon="11.550949132069945">
        <ele>523.5751953125</ele>
        <time>2013-06-16T15:16:21Z</time>
      </trkpt>
      <trkpt lat="48.098410153761506" lon="11.550954999402165">
        <ele>523.5751953125</ele>
        <time>2013-06-16T15:16:26Z</time>
      </trkpt>
      <trkpt lat="48.098463714122772" lon="11.550955921411514">
        <ele>523.5751953125</ele>
        <time>2013-06-16T15:16:27Z</time>
      </trkpt>
      <trkpt lat="48.098582569509745" lon="11.550954328849912">
        <ele>523.0946044921875</ele>
        <time>2013-06-16T15:16:29Z</time>
      </trkpt>
      <trkpt lat="48.098792368546128" lon="11.550967488437891">
        <ele>524.0557861328125</ele>
        <time>2013-06-16T15:16:32Z</time>
      </trkpt>
      <trkpt lat="48.099149186164141" lon="11.550950305536389">
        <ele>523.5751953125</ele>
        <time>2013-06-16T15:16:39Z</time>
      </trkpt>
      <trkpt lat="48.099544560536742" lon="11.550964722409844">
        <ele>524.5364990234375</ele>
        <time>2013-06-16T15:16:46Z</time>
      </trkpt>
      <trkpt lat="48.099602730944753" lon="11.550966901704669">
        <ele>524.5364990234375</ele>
        <time>2013-06-16T15:16:47Z</time>
      </trkpt>
      <trkpt lat="48.099806411191821" lon="11.550981570035219">
        <ele>524.0557861328125</ele>
        <time>2013-06-16T15:16:52Z</time>
      </trkpt>
      <trkpt lat="48.099981090053916" lon="11.551000010222197">
        <ele>524.5364990234375</ele>
        <time>2013-06-16T15:16:55Z</time>
      </trkpt>
      <trkpt lat="48.10010832734406" lon="11.551010152325034">
        <ele>524.5364990234375</ele>
        <time>2013-06-16T15:16:57Z</time>
      </trkpt>
      <trkpt lat="48.100345116108656" lon="11.550975199788809">
        <ele>524.0557861328125</ele>
        <time>2013-06-16T15:17:02Z</time>
      </trkpt>
      <trkpt lat="48.100586514919996" lon="11.550774872303009">
        <ele>522.1331787109375</ele>
        <time>2013-06-16T15:17:07Z</time>
      </trkpt>
      <trkpt lat="48.10079731978476" lon="11.550866235047579">
        <ele>523.0946044921875</ele>
        <time>2013-06-16T15:17:12Z</time>
      </trkpt>
      <trkpt lat="48.100910307839513" lon="11.550912167876959">
        <ele>523.0946044921875</ele>
        <time>2013-06-16T15:17:17Z</time>
      </trkpt>
      <trkpt lat="48.101017847657204" lon="11.550874281674623">
        <ele>523.0946044921875</ele>
        <time>2013-06-16T15:17:21Z</time>
      </trkpt>
      <trkpt lat="48.101241979748011" lon="11.550979390740395">
        <ele>523.0946044921875</ele>
        <time>2013-06-16T15:17:26Z</time>
      </trkpt>
      <trkpt lat="48.10156786814332" lon="11.551039153710008">
        <ele>522.1331787109375</ele>
        <time>2013-06-16T15:17:32Z</time>
      </trkpt>
      <trkpt lat="48.101655039936304" lon="11.551053822040558">
        <ele>522.6138916015625</ele>
        <time>2013-06-16T15:17:34Z</time>
      </trkpt>
      <trkpt lat="48.101704828441143" lon="11.551145184785128">
        <ele>522.1331787109375</ele>
        <time>2013-06-16T15:17:37Z</time>
      </trkpt>
      <trkpt lat="48.101813290268183" lon="11.551206205040216">
        <ele>522.6138916015625</ele>
        <time>2013-06-16T15:17:43Z</time>
      </trkpt>
      <trkpt lat="48.101967936381698" lon="11.551441568881273">
        <ele>522.1331787109375</ele>
        <time>2013-06-16T15:17:48Z</time>
      </trkpt>
      <trkpt lat="48.10200615786016" lon="11.551486998796463">
        <ele>522.1331787109375</ele>
        <time>2013-06-16T15:17:49Z</time>
      </trkpt>
      <trkpt lat="48.102210089564323" lon="11.551872566342354">
        <ele>521.652587890625</ele>
        <time>2013-06-16T15:17:54Z</time>
      </trkpt>
      <trkpt lat="48.10223925858736" lon="11.551914811134338">
        <ele>521.652587890625</ele>
        <time>2013-06-16T15:17:55Z</time>
      </trkpt>
      <trkpt lat="48.102484429255128" lon="11.552194934338331">
        <ele>521.652587890625</ele>
        <time>2013-06-16T15:18:02Z</time>
      </trkpt>
      <trkpt lat="48.102625664323568" lon="11.552424263209105">
        <ele>521.1719970703125</ele>
        <time>2013-06-16T15:18:06Z</time>
      </trkpt>
      <trkpt lat="48.102851724252105" lon="11.552957016974688">
        <ele>520.2105712890625</ele>
        <time>2013-06-16T15:18:12Z</time>
      </trkpt>
      <trkpt lat="48.103028247132897" lon="11.553245605900884">
        <ele>520.6912841796875</ele>
        <time>2013-06-16T15:18:17Z</time>
      </trkpt>
      <trkpt lat="48.103108545765281" lon="11.553345853462815">
        <ele>520.6912841796875</ele>
        <time>2013-06-16T15:18:24Z</time>
      </trkpt>
      <trkpt lat="48.103270651772618" lon="11.553597813472152">
        <ele>520.2105712890625</ele>
        <time>2013-06-16T15:18:30Z</time>
      </trkpt>
      <trkpt lat="48.103442313149571" lon="11.553833344951272">
        <ele>520.2105712890625</ele>
        <time>2013-06-16T15:18:36Z</time>
      </trkpt>
      <trkpt lat="48.103720592334867" lon="11.554188150912523">
        <ele>519.249267578125</ele>
        <time>2013-06-16T15:18:44Z</time>
      </trkpt>
      <trkpt lat="48.10383022762835" lon="11.554383197799325">
        <ele>519.7298583984375</ele>
        <time>2013-06-16T15:18:47Z</time>
      </trkpt>
      <trkpt lat="48.104002894833684" lon="11.554626524448395">
        <ele>519.7298583984375</ele>
        <time>2013-06-16T15:18:51Z</time>
      </trkpt>
      <trkpt lat="48.104166090488434" lon="11.554886950179935">
        <ele>518.7685546875</ele>
        <time>2013-06-16T15:18:55Z</time>
      </trkpt>
      <trkpt lat="48.104421403259039" lon="11.555105801671743">
        <ele>519.249267578125</ele>
        <time>2013-06-16T15:19:01Z</time>
      </trkpt>
      <trkpt lat="48.104481585323811" lon="11.555207222700119">
        <ele>520.2105712890625</ele>
        <time>2013-06-16T15:19:03Z</time>
      </trkpt>
      <trkpt lat="48.104641009122133" lon="11.555488519370556">
        <ele>519.7298583984375</ele>
        <time>2013-06-16T15:19:08Z</time>
      </trkpt>
      <trkpt lat="48.104786602780223" lon="11.555646350607276">
        <ele>519.249267578125</ele>
        <time>2013-06-16T15:19:11Z</time>
      </trkpt>
      <trkpt lat="48.104857513681054" lon="11.555793453007936">
        <ele>518.7685546875</ele>
        <time>2013-06-16T15:19:13Z</time>
      </trkpt>
      <trkpt lat="48.104926748201251" lon="11.556004509329796">
        <ele>520.2105712890625</ele>
        <time>2013-06-16T15:19:16Z</time>
      </trkpt>
      <trkpt lat="48.105238638818264" lon="11.556375324726105">
        <ele>519.7298583984375</ele>
        <time>2013-06-16T15:19:24Z</time>
      </trkpt>
      <trkpt lat="48.10550325550139" lon="11.55677086673677">
        <ele>519.249267578125</ele>
        <time>2013-06-16T15:19:31Z</time>
      </trkpt>
      <trkpt lat="48.105807267129421" lon="11.557364976033568">
        <ele>519.249267578125</ele>
        <time>2013-06-16T15:19:39Z</time>
      </trkpt>
      <trkpt lat="48.105872562155128" lon="11.55751752667129">
        <ele>519.249267578125</ele>
        <time>2013-06-16T15:19:41Z</time>
      </trkpt>
      <trkpt lat="48.105934923514724" lon="11.557653732597828">
        <ele>518.7685546875</ele>
        <time>2013-06-16T15:19:43Z</time>
      </trkpt>
      <trkpt lat="48.106089485809207" lon="11.557825980708003">
        <ele>519.249267578125</ele>
        <time>2013-06-16T15:19:47Z</time>
      </trkpt>
      <trkpt lat="48.106362400576472" lon="11.55838773585856">
        <ele>518.7685546875</ele>
        <time>2013-06-16T15:19:55Z</time>
      </trkpt>
      <trkpt lat="48.106508580967784" lon="11.558694262057543">
        <ele>519.249267578125</ele>
        <time>2013-06-16T15:19:59Z</time>
      </trkpt>
      <trkpt lat="48.106925161555409" lon="11.559206983074546">
        <ele>517.8072509765625</ele>
        <time>2013-06-16T15:20:08Z</time>
      </trkpt>
      <trkpt lat="48.107468895614147" lon="11.559903100132942">
        <ele>517.8072509765625</ele>
        <time>2013-06-16T15:20:20Z</time>
      </trkpt>
      <trkpt lat="48.107886482030153" lon="11.560318842530251">
        <ele>517.32666015625</ele>
        <time>2013-06-16T15:20:29Z</time>
      </trkpt>
      <trkpt lat="48.107970049604774" lon="11.560401739552617">
        <ele>516.845947265625</ele>
        <time>2013-06-16T15:20:31Z</time>
      </trkpt>
      <trkpt lat="48.108048420399427" lon="11.560494611039758">
        <ele>517.8072509765625</ele>
        <time>2013-06-16T15:20:33Z</time>
      </trkpt>
      <trkpt lat="48.108307672664523" lon="11.560763251036406">
        <ele>516.845947265625</ele>
        <time>2013-06-16T15:20:39Z</time>
      </trkpt>
      <trkpt lat="48.108502216637135" lon="11.560916136950254">
        <ele>517.8072509765625</ele>
        <time>2013-06-16T15:20:43Z</time>
      </trkpt>
      <trkpt lat="48.108916450291872" lon="11.561075896024704">
        <ele>517.32666015625</ele>
        <time>2013-06-16T15:20:50Z</time>
      </trkpt>
      <trkpt lat="48.109084339812398" lon="11.561128702014685">
        <ele>516.845947265625</ele>
        <time>2013-06-16T15:20:53Z</time>
      </trkpt>
      <trkpt lat="48.109422968700528" lon="11.561225345358253">
        <ele>516.365234375</ele>
        <time>2013-06-16T15:20:59Z</time>
      </trkpt>
      <trkpt lat="48.109863270074129" lon="11.561284437775612">
        <ele>516.845947265625</ele>
        <time>2013-06-16T15:21:07Z</time>
      </trkpt>
      <trkpt lat="48.110057227313519" lon="11.561273792758584">
        <ele>516.365234375</ele>
        <time>2013-06-16T15:21:11Z</time>
      </trkpt>
      <trkpt lat="48.110594088211656" lon="11.561149153858423">
        <ele>516.365234375</ele>
        <time>2013-06-16T15:21:21Z</time>
      </trkpt>
      <trkpt lat="48.110774299129844" lon="11.561130881309509">
        <ele>516.845947265625</ele>
        <time>2013-06-16T15:21:24Z</time>
      </trkpt>
      <trkpt lat="48.111105300486088" lon="11.561263566836715">
        <ele>516.845947265625</ele>
        <time>2013-06-16T15:21:30Z</time>
      </trkpt>
      <trkpt lat="48.111274279654026" lon="11.561260046437383">
        <ele>517.32666015625</ele>
        <time>2013-06-16T15:21:33Z</time>
      </trkpt>
      <trkpt lat="48.111503440886736" lon="11.56115778721869">
        <ele>517.8072509765625</ele>
        <time>2013-06-16T15:21:37Z</time>
      </trkpt>
      <trkpt lat="48.111987747251987" lon="11.561085367575288">
        <ele>516.845947265625</ele>
        <time>2013-06-16T15:21:45Z</time>
      </trkpt>
      <trkpt lat="48.112524189054966" lon="11.5610639937222">
        <ele>516.845947265625</ele>
        <time>2013-06-16T15:21:54Z</time>
      </trkpt>
      <trkpt lat="48.112638015300035" lon="11.561041111126542">
        <ele>515.8846435546875</ele>
        <time>2013-06-16T15:21:56Z</time>
      </trkpt>
      <trkpt lat="48.112892908975482" lon="11.560939187183976">
        <ele>517.32666015625</ele>
        <time>2013-06-16T15:22:01Z</time>
      </trkpt>
      <trkpt lat="48.113051578402519" lon="11.560754952952266">
        <ele>515.8846435546875</ele>
        <time>2013-06-16T15:22:05Z</time>
      </trkpt>
      <trkpt lat="48.113421723246574" lon="11.560732573270798">
        <ele>517.8072509765625</ele>
        <time>2013-06-16T15:22:11Z</time>
      </trkpt>
      <trkpt lat="48.113586511462927" lon="11.560814548283815">
        <ele>517.32666015625</ele>
        <time>2013-06-16T15:22:15Z</time>
      </trkpt>
      <trkpt lat="48.113988172262907" lon="11.560769286006689">
        <ele>516.845947265625</ele>
        <time>2013-06-16T15:22:22Z</time>
      </trkpt>
      <trkpt lat="48.114213729277253" lon="11.560770208016038">
        <ele>516.365234375</ele>
        <time>2013-06-16T15:22:26Z</time>
      </trkpt>
      <trkpt lat="48.114313976839185" lon="11.560747493058443">
        <ele>516.845947265625</ele>
        <time>2013-06-16T15:22:28Z</time>
      </trkpt>
      <trkpt lat="48.114759726449847" lon="11.560739781707525">
        <ele>516.845947265625</ele>
        <time>2013-06-16T15:22:36Z</time>
      </trkpt>
      <trkpt lat="48.115210756659508" lon="11.560718407854438">
        <ele>515.8846435546875</ele>
        <time>2013-06-16T15:22:44Z</time>
      </trkpt>
      <trkpt lat="48.115571262314916" lon="11.560656046494842">
        <ele>514.92333984375</ele>
        <time>2013-06-16T15:22:50Z</time>
      </trkpt>
      <trkpt lat="48.115858342498541" lon="11.560655711218715">
        <ele>515.8846435546875</ele>
        <time>2013-06-16T15:22:54Z</time>
      </trkpt>
      <trkpt lat="48.116213232278824" lon="11.560778087005019">
        <ele>513.9620361328125</ele>
        <time>2013-06-16T15:23:00Z</time>
      </trkpt>
      <trkpt lat="48.116616569459438" lon="11.561014205217361">
        <ele>513.9620361328125</ele>
        <time>2013-06-16T15:23:07Z</time>
      </trkpt>
      <trkpt lat="48.116666357964277" lon="11.561040608212352">
        <ele>513.9620361328125</ele>
        <time>2013-06-16T15:23:08Z</time>
      </trkpt>
      <trkpt lat="48.11702074483037" lon="11.561316372826695">
        <ele>513.9620361328125</ele>
        <time>2013-06-16T15:23:15Z</time>
      </trkpt>
      <trkpt lat="48.117447886615992" lon="11.561831943690777">
        <ele>514.92333984375</ele>
        <time>2013-06-16T15:23:23Z</time>
      </trkpt>
      <trkpt lat="48.117661876603961" lon="11.562025062739849">
        <ele>514.442626953125</ele>
        <time>2013-06-16T15:23:27Z</time>
      </trkpt>
      <trkpt lat="48.117893133312464" lon="11.56233636662364">
        <ele>514.92333984375</ele>
        <time>2013-06-16T15:23:32Z</time>
      </trkpt>
      <trkpt lat="48.117983154952526" lon="11.562542896717787">
        <ele>513.4814453125</ele>
        <time>2013-06-16T15:23:35Z</time>
      </trkpt>
      <trkpt lat="48.118040235713124" lon="11.562633840367198">
        <ele>515.404052734375</ele>
        <time>2013-06-16T15:23:37Z</time>
      </trkpt>
      <trkpt lat="48.118185410276055" lon="11.562814805656672">
        <ele>515.404052734375</ele>
        <time>2013-06-16T15:23:41Z</time>
      </trkpt>
      <trkpt lat="48.118445333093405" lon="11.563183777034283">
        <ele>515.8846435546875</ele>
        <time>2013-06-16T15:23:48Z</time>
      </trkpt>
      <trkpt lat="48.118767952546477" lon="11.563545372337103">
        <ele>515.8846435546875</ele>
        <time>2013-06-16T15:23:55Z</time>
      </trkpt>
      <trkpt lat="48.119081100448966" lon="11.563877798616886">
        <ele>515.404052734375</ele>
        <time>2013-06-16T15:24:02Z</time>
      </trkpt>
      <trkpt lat="48.119437247514725" lon="11.564263282343745">
        <ele>514.92333984375</ele>
        <time>2013-06-16T15:24:09Z</time>
      </trkpt>
      <trkpt lat="48.119549313560128" lon="11.564444247633219">
        <ele>514.92333984375</ele>
        <time>2013-06-16T15:24:12Z</time>
      </trkpt>
      <trkpt lat="48.119663223624229" lon="11.564625967293978">
        <ele>514.92333984375</ele>
        <time>2013-06-16T15:24:15Z</time>
      </trkpt>
      <trkpt lat="48.119901940226555" lon="11.564933583140373">
        <ele>514.442626953125</ele>
        <time>2013-06-16T15:24:20Z</time>
      </trkpt>
      <trkpt lat="48.120105620473623" lon="11.565318647772074">
        <ele>514.442626953125</ele>
        <time>2013-06-16T15:24:25Z</time>
      </trkpt>
      <trkpt lat="48.120519183576107" lon="11.566039407625794">
        <ele>514.442626953125</ele>
        <time>2013-06-16T15:24:36Z</time>
      </trkpt>
      <trkpt lat="48.12095420435071" lon="11.56673938035965">
        <ele>513.9620361328125</ele>
        <time>2013-06-16T15:24:46Z</time>
      </trkpt>
      <trkpt lat="48.121126284822822" lon="11.567037776112556">
        <ele>514.442626953125</ele>
        <time>2013-06-16T15:24:52Z</time>
      </trkpt>
      <trkpt lat="48.121231645345688" lon="11.567175574600697">
        <ele>513.9620361328125</ele>
        <time>2013-06-16T15:24:56Z</time>
      </trkpt>
      <trkpt lat="48.121382351964712" lon="11.567490734159946">
        <ele>515.8846435546875</ele>
        <time>2013-06-16T15:25:02Z</time>
      </trkpt>
      <trkpt lat="48.121448988094926" lon="11.567643620073795">
        <ele>516.365234375</ele>
        <time>2013-06-16T15:25:06Z</time>
      </trkpt>
      <trkpt lat="48.121448149904609" lon="11.567654516547918">
        <ele>516.365234375</ele>
        <time>2013-06-16T15:25:07Z</time>
      </trkpt>
      <trkpt lat="48.12147019430995" lon="11.56789792701602">
        <ele>515.8846435546875</ele>
        <time>2013-06-16T15:25:14Z</time>
      </trkpt>
      <trkpt lat="48.121483521535993" lon="11.567952074110508">
        <ele>516.845947265625</ele>
        <time>2013-06-16T15:25:15Z</time>
      </trkpt>
      <trkpt lat="48.121500788256526" lon="11.568074617534876">
        <ele>516.845947265625</ele>
        <time>2013-06-16T15:25:17Z</time>
      </trkpt>
      <trkpt lat="48.121588211506605" lon="11.568340240046382">
        <ele>517.8072509765625</ele>
        <time>2013-06-16T15:25:22Z</time>
      </trkpt>
      <trkpt lat="48.121712682768703" lon="11.56859521754086">
        <ele>518.287841796875</ele>
        <time>2013-06-16T15:25:28Z</time>
      </trkpt>
      <trkpt lat="48.121755262836814" lon="11.568651460111141">
        <ele>519.249267578125</ele>
        <time>2013-06-16T15:25:31Z</time>
      </trkpt>
      <trkpt lat="48.121902113780379" lon="11.568712396547198">
        <ele>519.249267578125</ele>
        <time>2013-06-16T15:25:39Z</time>
      </trkpt>
      <trkpt lat="48.121938994154334" lon="11.568724969401956">
        <ele>519.7298583984375</ele>
        <time>2013-06-16T15:25:44Z</time>
      </trkpt>
      <trkpt lat="48.121985010802746" lon="11.568759838119149">
        <ele>519.7298583984375</ele>
        <time>2013-06-16T15:25:49Z</time>
      </trkpt>
      <trkpt lat="48.12221341766417" lon="11.568621955811977">
        <ele>518.7685546875</ele>
        <time>2013-06-16T15:25:56Z</time>
      </trkpt>
      <trkpt lat="48.122652377933264" lon="11.56808995641768">
        <ele>519.249267578125</ele>
        <time>2013-06-16T15:26:10Z</time>
      </trkpt>
      <trkpt lat="48.123077927157283" lon="11.567601626738906">
        <ele>519.249267578125</ele>
        <time>2013-06-16T15:26:22Z</time>
      </trkpt>
      <trkpt lat="48.123080190271139" lon="11.567610092461109">
        <ele>519.7298583984375</ele>
        <time>2013-06-16T15:26:27Z</time>
      </trkpt>
      <trkpt lat="48.123123273253441" lon="11.567569859325886">
        <ele>519.249267578125</ele>
        <time>2013-06-16T15:26:37Z</time>
      </trkpt>
      <trkpt lat="48.123319242149591" lon="11.567355031147599">
        <ele>518.287841796875</ele>
        <time>2013-06-16T15:26:43Z</time>
      </trkpt>
      <trkpt lat="48.123484700918198" lon="11.567016486078501">
        <ele>516.845947265625</ele>
        <time>2013-06-16T15:26:49Z</time>
      </trkpt>
      <trkpt lat="48.123613279312849" lon="11.566487923264503">
        <ele>518.287841796875</ele>
        <time>2013-06-16T15:26:57Z</time>
      </trkpt>
      <trkpt lat="48.123835232108831" lon="11.565772863104939">
        <ele>517.8072509765625</ele>
        <time>2013-06-16T15:27:08Z</time>
      </trkpt>
      <trkpt lat="48.124137986451387" lon="11.564859403297305">
        <ele>518.287841796875</ele>
        <time>2013-06-16T15:27:21Z</time>
      </trkpt>
      <trkpt lat="48.12427444383502" lon="11.56444919295609">
        <ele>518.287841796875</ele>
        <time>2013-06-16T15:27:27Z</time>
      </trkpt>
      <trkpt lat="48.124418277293444" lon="11.564212236553431">
        <ele>518.7685546875</ele>
        <time>2013-06-16T15:27:32Z</time>
      </trkpt>
      <trkpt lat="48.124506874009967" lon="11.564040072262287">
        <ele>518.287841796875</ele>
        <time>2013-06-16T15:27:35Z</time>
      </trkpt>
      <trkpt lat="48.124826475977898" lon="11.563096856698394">
        <ele>518.7685546875</ele>
        <time>2013-06-16T15:27:47Z</time>
      </trkpt>
      <trkpt lat="48.124990090727806" lon="11.56256896443665">
        <ele>519.7298583984375</ele>
        <time>2013-06-16T15:27:54Z</time>
      </trkpt>
      <trkpt lat="48.125124201178551" lon="11.562181804329157">
        <ele>519.249267578125</ele>
        <time>2013-06-16T15:28:01Z</time>
      </trkpt>
      <trkpt lat="48.125151693820953" lon="11.562153557315469">
        <ele>520.2105712890625</ele>
        <time>2013-06-16T15:28:07Z</time>
      </trkpt>
      <trkpt lat="48.125149346888065" lon="11.562157412990928">
        <ele>520.6912841796875</ele>
        <time>2013-06-16T15:28:28Z</time>
      </trkpt>
    </trkseg>
  </trk>

</gpx>
